<?xml version='1.0' encoding='UTF-8'?><gpx version="1.1" creator="JPX - https://github.com/jenetics/jpx" xmlns="http://www.topografix.com/GPX/1/1"><trk><trkseg><trkpt lat="40.8939985" lon="14.2878448"><ele>80.0</ele><time>2026-04-11T05:19:39.976Z</time></trkpt><trkpt lat="40.8939833" lon="14.2876433"><ele>80.0</ele><time>2026-04-11T05:20:04.628Z</time></trkpt><trkpt lat="40.8940133" lon="14.2877617"><ele>80.0</ele><time>2026-04-11T05:20:08.627Z</time></trkpt><trkpt lat="40.894025" lon="14.28786"><ele>80.0</ele><time>2026-04-11T05:20:11.626Z</time></trkpt><trkpt lat="40.8940483" lon="14.2879767"><ele>80.0</ele><time>2026-04-11T05:20:14.859Z</time></trkpt><trkpt lat="40.8940817" lon="14.2880567"><ele>79.83333333333334</ele><time>2026-04-11T05:20:16.858Z</time></trkpt><trkpt lat="40.8941083" lon="14.2881333"><ele>79.66666666666667</ele><time>2026-04-11T05:20:18.858Z</time></trkpt><trkpt lat="40.8941383" lon="14.2882217"><ele>79.5</ele><time>2026-04-11T05:20:20.858Z</time></trkpt><trkpt lat="40.8941733" lon="14.28831"><ele>79.33333333333333</ele><time>2026-04-11T05:20:22.86Z</time></trkpt><trkpt lat="40.8941983" lon="14.288405"><ele>79.16666666666666</ele><time>2026-04-11T05:20:24.859Z</time></trkpt><trkpt lat="40.8942317" lon="14.2885033"><ele>79.0</ele><time>2026-04-11T05:20:26.858Z</time></trkpt><trkpt lat="40.8942733" lon="14.2886"><ele>78.8</ele><time>2026-04-11T05:20:28.859Z</time></trkpt><trkpt lat="40.8943067" lon="14.2887017"><ele>78.60000000000001</ele><time>2026-04-11T05:20:30.858Z</time></trkpt><trkpt lat="40.8943367" lon="14.2888167"><ele>78.4</ele><time>2026-04-11T05:20:32.858Z</time></trkpt><trkpt lat="40.89437" lon="14.2889417"><ele>78.2</ele><time>2026-04-11T05:20:34.859Z</time></trkpt><trkpt lat="40.8944033" lon="14.2890633"><ele>78.0</ele><time>2026-04-11T05:20:36.859Z</time></trkpt><trkpt lat="40.8944383" lon="14.2891933"><ele>78.0</ele><time>2026-04-11T05:20:38.859Z</time></trkpt><trkpt lat="40.8944733" lon="14.28932"><ele>78.0</ele><time>2026-04-11T05:20:40.86Z</time></trkpt><trkpt lat="40.894475" lon="14.2894633"><ele>78.0</ele><time>2026-04-11T05:20:42.858Z</time></trkpt><trkpt lat="40.8944467" lon="14.2895417"><ele>78.0</ele><time>2026-04-11T05:20:43.859Z</time></trkpt><trkpt lat="40.89441" lon="14.2896917"><ele>78.0</ele><time>2026-04-11T05:20:45.858Z</time></trkpt><trkpt lat="40.8943817" lon="14.2898417"><ele>77.75</ele><time>2026-04-11T05:20:47.858Z</time></trkpt><trkpt lat="40.8943467" lon="14.2899883"><ele>77.5</ele><time>2026-04-11T05:20:49.859Z</time></trkpt><trkpt lat="40.894305" lon="14.2901383"><ele>77.25</ele><time>2026-04-11T05:20:51.86Z</time></trkpt><trkpt lat="40.8942633" lon="14.2902917"><ele>77.0</ele><time>2026-04-11T05:20:53.86Z</time></trkpt><trkpt lat="40.89422" lon="14.29044"><ele>77.0</ele><time>2026-04-11T05:20:55.859Z</time></trkpt><trkpt lat="40.8941917" lon="14.290575"><ele>77.0</ele><time>2026-04-11T05:20:57.858Z</time></trkpt><trkpt lat="40.8942017" lon="14.2907033"><ele>77.0</ele><time>2026-04-11T05:20:59.858Z</time></trkpt><trkpt lat="40.8942483" lon="14.2908283"><ele>77.0</ele><time>2026-04-11T05:21:01.859Z</time></trkpt><trkpt lat="40.894305" lon="14.2909333"><ele>77.0</ele><time>2026-04-11T05:21:03.858Z</time></trkpt><trkpt lat="40.894395" lon="14.2910533"><ele>77.0</ele><time>2026-04-11T05:21:05.859Z</time></trkpt><trkpt lat="40.8944417" lon="14.29111"><ele>77.0</ele><time>2026-04-11T05:21:06.86Z</time></trkpt><trkpt lat="40.8945133" lon="14.291225"><ele>77.0</ele><time>2026-04-11T05:21:08.86Z</time></trkpt><trkpt lat="40.8945817" lon="14.2913433"><ele>77.0</ele><time>2026-04-11T05:21:10.86Z</time></trkpt><trkpt lat="40.894655" lon="14.29146"><ele>77.0</ele><time>2026-04-11T05:21:12.859Z</time></trkpt><trkpt lat="40.89473" lon="14.291575"><ele>77.0</ele><time>2026-04-11T05:21:14.858Z</time></trkpt><trkpt lat="40.894795" lon="14.2916933"><ele>77.0</ele><time>2026-04-11T05:21:16.859Z</time></trkpt><trkpt lat="40.8948533" lon="14.29182"><ele>77.0</ele><time>2026-04-11T05:21:18.86Z</time></trkpt><trkpt lat="40.8949067" lon="14.291945"><ele>77.0</ele><time>2026-04-11T05:21:20.86Z</time></trkpt><trkpt lat="40.894955" lon="14.2920683"><ele>77.0</ele><time>2026-04-11T05:21:22.86Z</time></trkpt><trkpt lat="40.8949983" lon="14.2921767"><ele>77.0</ele><time>2026-04-11T05:21:24.859Z</time></trkpt><trkpt lat="40.8950467" lon="14.292265"><ele>77.0</ele><time>2026-04-11T05:21:26.859Z</time></trkpt><trkpt lat="40.8951167" lon="14.2923017"><ele>77.0</ele><time>2026-04-11T05:21:28.858Z</time></trkpt><trkpt lat="40.89521" lon="14.2923117"><ele>77.0</ele><time>2026-04-11T05:21:30.859Z</time></trkpt><trkpt lat="40.8953067" lon="14.2923183"><ele>77.0</ele><time>2026-04-11T05:21:32.86Z</time></trkpt><trkpt lat="40.8953683" lon="14.2923933"><ele>77.0</ele><time>2026-04-11T05:21:34.86Z</time></trkpt><trkpt lat="40.8953933" lon="14.2925183"><ele>77.2</ele><time>2026-04-11T05:21:36.859Z</time></trkpt><trkpt lat="40.895425" lon="14.2926517"><ele>77.4</ele><time>2026-04-11T05:21:38.86Z</time></trkpt><trkpt lat="40.8954683" lon="14.2927883"><ele>77.6</ele><time>2026-04-11T05:21:40.859Z</time></trkpt><trkpt lat="40.895505" lon="14.292925"><ele>77.8</ele><time>2026-04-11T05:21:42.86Z</time></trkpt><trkpt lat="40.895555" lon="14.2930183"><ele>78.0</ele><time>2026-04-11T05:21:44.862Z</time></trkpt><trkpt lat="40.8956217" lon="14.29305"><ele>78.0</ele><time>2026-04-11T05:21:47.86Z</time></trkpt><trkpt lat="40.895655" lon="14.2929783"><ele>78.0</ele><time>2026-04-11T05:21:55.859Z</time></trkpt><trkpt lat="40.8956917" lon="14.29291"><ele>78.0</ele><time>2026-04-11T05:21:58.856Z</time></trkpt><trkpt lat="40.895735" lon="14.29283"><ele>78.0</ele><time>2026-04-11T05:22:03.858Z</time></trkpt><trkpt lat="40.8957733" lon="14.2927533"><ele>78.0</ele><time>2026-04-11T05:22:05.858Z</time></trkpt><trkpt lat="40.8958267" lon="14.2926467"><ele>78.0</ele><time>2026-04-11T05:22:07.858Z</time></trkpt><trkpt lat="40.8958517" lon="14.2925017"><ele>78.0</ele><time>2026-04-11T05:22:09.859Z</time></trkpt><trkpt lat="40.895865" lon="14.2923417"><ele>78.0</ele><time>2026-04-11T05:22:11.86Z</time></trkpt><trkpt lat="40.8958583" lon="14.2921817"><ele>78.0</ele><time>2026-04-11T05:22:13.859Z</time></trkpt><trkpt lat="40.8958467" lon="14.2920933"><ele>78.0</ele><time>2026-04-11T05:22:14.859Z</time></trkpt><trkpt lat="40.8958167" lon="14.2919217"><ele>78.0</ele><time>2026-04-11T05:22:16.859Z</time></trkpt><trkpt lat="40.895795" lon="14.2918417"><ele>78.0</ele><time>2026-04-11T05:22:17.86Z</time></trkpt><trkpt lat="40.8957717" lon="14.2917467"><ele>78.0</ele><time>2026-04-11T05:22:18.86Z</time></trkpt><trkpt lat="40.89575" lon="14.2916567"><ele>78.0</ele><time>2026-04-11T05:22:19.859Z</time></trkpt><trkpt lat="40.8957067" lon="14.291515"><ele>78.0</ele><time>2026-04-11T05:22:21.858Z</time></trkpt><trkpt lat="40.89567" lon="14.2913733"><ele>78.0</ele><time>2026-04-11T05:22:23.86Z</time></trkpt><trkpt lat="40.895645" lon="14.2912233"><ele>78.0</ele><time>2026-04-11T05:22:25.859Z</time></trkpt><trkpt lat="40.895615" lon="14.2911"><ele>78.0</ele><time>2026-04-11T05:22:26.859Z</time></trkpt><trkpt lat="40.895595" lon="14.2910017"><ele>78.0</ele><time>2026-04-11T05:22:27.859Z</time></trkpt><trkpt lat="40.8955883" lon="14.290905"><ele>78.0</ele><time>2026-04-11T05:22:28.858Z</time></trkpt><trkpt lat="40.89558" lon="14.29081"><ele>78.0</ele><time>2026-04-11T05:22:29.86Z</time></trkpt><trkpt lat="40.8955733" lon="14.290715"><ele>78.0</ele><time>2026-04-11T05:22:30.857Z</time></trkpt><trkpt lat="40.89555" lon="14.2905517"><ele>77.8</ele><time>2026-04-11T05:22:32.86Z</time></trkpt><trkpt lat="40.8955417" lon="14.2904667"><ele>77.6</ele><time>2026-04-11T05:22:33.859Z</time></trkpt><trkpt lat="40.8955233" lon="14.29031"><ele>77.4</ele><time>2026-04-11T05:22:35.859Z</time></trkpt><trkpt lat="40.895505" lon="14.2901183"><ele>77.2</ele><time>2026-04-11T05:22:37.86Z</time></trkpt><trkpt lat="40.89549" lon="14.289995"><ele>77.0</ele><time>2026-04-11T05:22:38.857Z</time></trkpt><trkpt lat="40.8954767" lon="14.2898767"><ele>77.0</ele><time>2026-04-11T05:22:39.857Z</time></trkpt><trkpt lat="40.895465" lon="14.2897667"><ele>77.0</ele><time>2026-04-11T05:22:40.86Z</time></trkpt><trkpt lat="40.8954517" lon="14.2896033"><ele>77.0</ele><time>2026-04-11T05:22:42.86Z</time></trkpt><trkpt lat="40.8954333" lon="14.289455"><ele>77.0</ele><time>2026-04-11T05:22:44.86Z</time></trkpt><trkpt lat="40.895425" lon="14.2893567"><ele>77.0</ele><time>2026-04-11T05:22:45.857Z</time></trkpt><trkpt lat="40.8954167" lon="14.2892617"><ele>77.0</ele><time>2026-04-11T05:22:46.86Z</time></trkpt><trkpt lat="40.8953933" lon="14.2891"><ele>77.0</ele><time>2026-04-11T05:22:48.859Z</time></trkpt><trkpt lat="40.8953833" lon="14.28894"><ele>77.0</ele><time>2026-04-11T05:22:50.86Z</time></trkpt><trkpt lat="40.8953617" lon="14.28879"><ele>77.0</ele><time>2026-04-11T05:22:52.86Z</time></trkpt><trkpt lat="40.89535" lon="14.2886483"><ele>77.0</ele><time>2026-04-11T05:22:54.86Z</time></trkpt><trkpt lat="40.8953383" lon="14.2885133"><ele>77.0</ele><time>2026-04-11T05:22:56.86Z</time></trkpt><trkpt lat="40.895325" lon="14.2883733"><ele>77.0</ele><time>2026-04-11T05:22:58.859Z</time></trkpt><trkpt lat="40.895315" lon="14.2882333"><ele>77.0</ele><time>2026-04-11T05:23:00.865Z</time></trkpt><trkpt lat="40.8953017" lon="14.288105"><ele>77.0</ele><time>2026-04-11T05:23:02.858Z</time></trkpt><trkpt lat="40.895285" lon="14.2879933"><ele>76.8</ele><time>2026-04-11T05:23:04.859Z</time></trkpt><trkpt lat="40.8952733" lon="14.2878767"><ele>76.6</ele><time>2026-04-11T05:23:06.858Z</time></trkpt><trkpt lat="40.8952617" lon="14.2877567"><ele>76.39999999999999</ele><time>2026-04-11T05:23:08.859Z</time></trkpt><trkpt lat="40.8952467" lon="14.287635"><ele>76.2</ele><time>2026-04-11T05:23:10.859Z</time></trkpt><trkpt lat="40.8952367" lon="14.2875183"><ele>76.0</ele><time>2026-04-11T05:23:12.859Z</time></trkpt><trkpt lat="40.8952233" lon="14.2874"><ele>76.0</ele><time>2026-04-11T05:23:14.859Z</time></trkpt><trkpt lat="40.895205" lon="14.2872867"><ele>76.0</ele><time>2026-04-11T05:23:16.858Z</time></trkpt><trkpt lat="40.8951917" lon="14.2871683"><ele>76.0</ele><time>2026-04-11T05:23:18.86Z</time></trkpt><trkpt lat="40.8951783" lon="14.2870467"><ele>76.0</ele><time>2026-04-11T05:23:20.858Z</time></trkpt><trkpt lat="40.8951583" lon="14.2869283"><ele>76.0</ele><time>2026-04-11T05:23:22.859Z</time></trkpt><trkpt lat="40.8951417" lon="14.2868117"><ele>76.39999999999999</ele><time>2026-04-11T05:23:24.86Z</time></trkpt><trkpt lat="40.8951317" lon="14.2867"><ele>76.8</ele><time>2026-04-11T05:23:26.86Z</time></trkpt><trkpt lat="40.89512" lon="14.28658"><ele>77.19999999999999</ele><time>2026-04-11T05:23:28.86Z</time></trkpt><trkpt lat="40.8951083" lon="14.2864617"><ele>77.6</ele><time>2026-04-11T05:23:30.862Z</time></trkpt><trkpt lat="40.8951033" lon="14.2863367"><ele>78.0</ele><time>2026-04-11T05:23:32.86Z</time></trkpt><trkpt lat="40.8950967" lon="14.2862033"><ele>78.0</ele><time>2026-04-11T05:23:34.861Z</time></trkpt><trkpt lat="40.8950933" lon="14.28607"><ele>78.0</ele><time>2026-04-11T05:23:36.858Z</time></trkpt><trkpt lat="40.8950867" lon="14.2859367"><ele>78.0</ele><time>2026-04-11T05:23:38.859Z</time></trkpt><trkpt lat="40.89508" lon="14.2858033"><ele>78.0</ele><time>2026-04-11T05:23:40.86Z</time></trkpt><trkpt lat="40.8950867" lon="14.28567"><ele>78.0</ele><time>2026-04-11T05:23:42.86Z</time></trkpt><trkpt lat="40.8950867" lon="14.2855417"><ele>78.2</ele><time>2026-04-11T05:23:44.86Z</time></trkpt><trkpt lat="40.8950867" lon="14.2854167"><ele>78.4</ele><time>2026-04-11T05:23:46.86Z</time></trkpt><trkpt lat="40.895085" lon="14.285295"><ele>78.60000000000001</ele><time>2026-04-11T05:23:48.86Z</time></trkpt><trkpt lat="40.8950833" lon="14.2851717"><ele>78.8</ele><time>2026-04-11T05:23:50.86Z</time></trkpt><trkpt lat="40.8950917" lon="14.28504"><ele>79.0</ele><time>2026-04-11T05:23:52.861Z</time></trkpt><trkpt lat="40.8950983" lon="14.2849033"><ele>79.0</ele><time>2026-04-11T05:23:54.86Z</time></trkpt><trkpt lat="40.8951083" lon="14.284765"><ele>79.0</ele><time>2026-04-11T05:23:56.859Z</time></trkpt><trkpt lat="40.8951183" lon="14.2846183"><ele>79.0</ele><time>2026-04-11T05:23:58.86Z</time></trkpt><trkpt lat="40.8951333" lon="14.2844617"><ele>79.0</ele><time>2026-04-11T05:24:00.859Z</time></trkpt><trkpt lat="40.8951483" lon="14.284295"><ele>79.42857142857143</ele><time>2026-04-11T05:24:02.86Z</time></trkpt><trkpt lat="40.89516" lon="14.2842117"><ele>79.85714285714286</ele><time>2026-04-11T05:24:03.86Z</time></trkpt><trkpt lat="40.89518" lon="14.2841283"><ele>80.28571428571428</ele><time>2026-04-11T05:24:04.86Z</time></trkpt><trkpt lat="40.8952033" lon="14.2840483"><ele>80.71428571428572</ele><time>2026-04-11T05:24:05.861Z</time></trkpt><trkpt lat="40.8952283" lon="14.28397"><ele>81.14285714285714</ele><time>2026-04-11T05:24:06.859Z</time></trkpt><trkpt lat="40.8952533" lon="14.2838933"><ele>81.57142857142857</ele><time>2026-04-11T05:24:07.859Z</time></trkpt><trkpt lat="40.8952783" lon="14.2838133"><ele>82.0</ele><time>2026-04-11T05:24:08.86Z</time></trkpt><trkpt lat="40.8953033" lon="14.283735"><ele>82.0</ele><time>2026-04-11T05:24:09.86Z</time></trkpt><trkpt lat="40.8953283" lon="14.283655"><ele>82.0</ele><time>2026-04-11T05:24:10.86Z</time></trkpt><trkpt lat="40.8953517" lon="14.2835767"><ele>82.0</ele><time>2026-04-11T05:24:11.86Z</time></trkpt><trkpt lat="40.8954017" lon="14.2834283"><ele>82.0</ele><time>2026-04-11T05:24:13.86Z</time></trkpt><trkpt lat="40.8954517" lon="14.2832833"><ele>82.0</ele><time>2026-04-11T05:24:15.86Z</time></trkpt><trkpt lat="40.89551" lon="14.283155"><ele>81.5</ele><time>2026-04-11T05:24:17.86Z</time></trkpt><trkpt lat="40.8955717" lon="14.2830283"><ele>81.0</ele><time>2026-04-11T05:24:19.86Z</time></trkpt><trkpt lat="40.8956333" lon="14.2829017"><ele>80.5</ele><time>2026-04-11T05:24:21.858Z</time></trkpt><trkpt lat="40.8956967" lon="14.2827767"><ele>80.0</ele><time>2026-04-11T05:24:23.86Z</time></trkpt><trkpt lat="40.8957617" lon="14.2826467"><ele>80.0</ele><time>2026-04-11T05:24:25.86Z</time></trkpt><trkpt lat="40.8958283" lon="14.28252"><ele>80.0</ele><time>2026-04-11T05:24:27.858Z</time></trkpt><trkpt lat="40.8959017" lon="14.2823967"><ele>80.0</ele><time>2026-04-11T05:24:29.859Z</time></trkpt><trkpt lat="40.8959733" lon="14.2822717"><ele>80.0</ele><time>2026-04-11T05:24:31.859Z</time></trkpt><trkpt lat="40.8960467" lon="14.282145"><ele>80.8</ele><time>2026-04-11T05:24:33.858Z</time></trkpt><trkpt lat="40.8961167" lon="14.2820167"><ele>81.6</ele><time>2026-04-11T05:24:35.859Z</time></trkpt><trkpt lat="40.8961883" lon="14.2818867"><ele>82.4</ele><time>2026-04-11T05:24:37.86Z</time></trkpt><trkpt lat="40.8962633" lon="14.2817533"><ele>83.2</ele><time>2026-04-11T05:24:39.857Z</time></trkpt><trkpt lat="40.8963" lon="14.281685"><ele>84.0</ele><time>2026-04-11T05:24:40.86Z</time></trkpt><trkpt lat="40.8963383" lon="14.2816167"><ele>84.0</ele><time>2026-04-11T05:24:41.86Z</time></trkpt><trkpt lat="40.8964083" lon="14.2814883"><ele>84.0</ele><time>2026-04-11T05:24:43.86Z</time></trkpt><trkpt lat="40.8964783" lon="14.2813667"><ele>84.0</ele><time>2026-04-11T05:24:45.86Z</time></trkpt><trkpt lat="40.8965433" lon="14.2812417"><ele>84.0</ele><time>2026-04-11T05:24:47.859Z</time></trkpt><trkpt lat="40.8966067" lon="14.2811183"><ele>84.0</ele><time>2026-04-11T05:24:49.86Z</time></trkpt><trkpt lat="40.8966667" lon="14.2809883"><ele>84.0</ele><time>2026-04-11T05:24:51.86Z</time></trkpt><trkpt lat="40.8967383" lon="14.2808667"><ele>84.0</ele><time>2026-04-11T05:24:53.861Z</time></trkpt><trkpt lat="40.8968117" lon="14.2807367"><ele>84.0</ele><time>2026-04-11T05:24:55.859Z</time></trkpt><trkpt lat="40.8968867" lon="14.2806083"><ele>84.4</ele><time>2026-04-11T05:24:57.859Z</time></trkpt><trkpt lat="40.8969583" lon="14.28048"><ele>84.80000000000001</ele><time>2026-04-11T05:24:59.861Z</time></trkpt><trkpt lat="40.8970267" lon="14.2803433"><ele>85.19999999999999</ele><time>2026-04-11T05:25:01.859Z</time></trkpt><trkpt lat="40.8970617" lon="14.2802717"><ele>85.6</ele><time>2026-04-11T05:25:02.86Z</time></trkpt><trkpt lat="40.8971233" lon="14.2801317"><ele>86.0</ele><time>2026-04-11T05:25:04.86Z</time></trkpt><trkpt lat="40.8971517" lon="14.2800567"><ele>86.0</ele><time>2026-04-11T05:25:05.859Z</time></trkpt><trkpt lat="40.897205" lon="14.279905"><ele>86.0</ele><time>2026-04-11T05:25:07.859Z</time></trkpt><trkpt lat="40.8972467" lon="14.2797533"><ele>86.0</ele><time>2026-04-11T05:25:09.858Z</time></trkpt><trkpt lat="40.897275" lon="14.279595"><ele>86.0</ele><time>2026-04-11T05:25:11.86Z</time></trkpt><trkpt lat="40.8972883" lon="14.2795133"><ele>86.0</ele><time>2026-04-11T05:25:12.86Z</time></trkpt><trkpt lat="40.8973133" lon="14.2793467"><ele>85.83333333333334</ele><time>2026-04-11T05:25:14.862Z</time></trkpt><trkpt lat="40.897335" lon="14.2791867"><ele>85.66666666666667</ele><time>2026-04-11T05:25:16.859Z</time></trkpt><trkpt lat="40.8973433" lon="14.2791033"><ele>85.5</ele><time>2026-04-11T05:25:17.86Z</time></trkpt><trkpt lat="40.8973533" lon="14.2790183"><ele>85.33333333333333</ele><time>2026-04-11T05:25:18.86Z</time></trkpt><trkpt lat="40.89736" lon="14.2789333"><ele>85.16666666666666</ele><time>2026-04-11T05:25:19.861Z</time></trkpt><trkpt lat="40.897365" lon="14.278765"><ele>85.0</ele><time>2026-04-11T05:25:21.858Z</time></trkpt><trkpt lat="40.8973683" lon="14.2786817"><ele>85.0</ele><time>2026-04-11T05:25:22.861Z</time></trkpt><trkpt lat="40.8973717" lon="14.278595"><ele>85.0</ele><time>2026-04-11T05:25:23.86Z</time></trkpt><trkpt lat="40.8973717" lon="14.2785067"><ele>85.0</ele><time>2026-04-11T05:25:24.859Z</time></trkpt><trkpt lat="40.89737" lon="14.2784183"><ele>85.0</ele><time>2026-04-11T05:25:25.861Z</time></trkpt><trkpt lat="40.8973667" lon="14.2783317"><ele>85.0</ele><time>2026-04-11T05:25:26.86Z</time></trkpt><trkpt lat="40.897365" lon="14.278245"><ele>85.0</ele><time>2026-04-11T05:25:27.86Z</time></trkpt><trkpt lat="40.897365" lon="14.2781567"><ele>85.0</ele><time>2026-04-11T05:25:28.86Z</time></trkpt><trkpt lat="40.897365" lon="14.2780683"><ele>85.0</ele><time>2026-04-11T05:25:29.862Z</time></trkpt><trkpt lat="40.8973667" lon="14.2779817"><ele>85.0</ele><time>2026-04-11T05:25:30.86Z</time></trkpt><trkpt lat="40.8973683" lon="14.2778933"><ele>85.0</ele><time>2026-04-11T05:25:31.86Z</time></trkpt><trkpt lat="40.8973667" lon="14.2778033"><ele>85.0</ele><time>2026-04-11T05:25:32.86Z</time></trkpt><trkpt lat="40.8973667" lon="14.277715"><ele>85.0</ele><time>2026-04-11T05:25:33.86Z</time></trkpt><trkpt lat="40.8973683" lon="14.27762"><ele>85.0</ele><time>2026-04-11T05:25:34.86Z</time></trkpt><trkpt lat="40.8973683" lon="14.27753"><ele>85.0</ele><time>2026-04-11T05:25:35.859Z</time></trkpt><trkpt lat="40.8973683" lon="14.2774433"><ele>85.0</ele><time>2026-04-11T05:25:36.86Z</time></trkpt><trkpt lat="40.8973667" lon="14.27736"><ele>85.0</ele><time>2026-04-11T05:25:37.86Z</time></trkpt><trkpt lat="40.897365" lon="14.2772717"><ele>85.0</ele><time>2026-04-11T05:25:38.86Z</time></trkpt><trkpt lat="40.897365" lon="14.277185"><ele>85.0</ele><time>2026-04-11T05:25:39.86Z</time></trkpt><trkpt lat="40.8973617" lon="14.2771"><ele>85.0</ele><time>2026-04-11T05:25:40.86Z</time></trkpt><trkpt lat="40.8973617" lon="14.2770117"><ele>85.0</ele><time>2026-04-11T05:25:41.859Z</time></trkpt><trkpt lat="40.89736" lon="14.276925"><ele>85.0</ele><time>2026-04-11T05:25:42.86Z</time></trkpt><trkpt lat="40.8973583" lon="14.2768417"><ele>85.14285714285715</ele><time>2026-04-11T05:25:43.86Z</time></trkpt><trkpt lat="40.8973583" lon="14.2767517"><ele>85.28571428571428</ele><time>2026-04-11T05:25:44.861Z</time></trkpt><trkpt lat="40.89736" lon="14.2766633"><ele>85.42857142857143</ele><time>2026-04-11T05:25:45.858Z</time></trkpt><trkpt lat="40.89736" lon="14.2765767"><ele>85.57142857142858</ele><time>2026-04-11T05:25:46.86Z</time></trkpt><trkpt lat="40.89736" lon="14.27649"><ele>85.71428571428572</ele><time>2026-04-11T05:25:47.86Z</time></trkpt><trkpt lat="40.8973633" lon="14.2764017"><ele>85.85714285714286</ele><time>2026-04-11T05:25:48.86Z</time></trkpt><trkpt lat="40.8973617" lon="14.2763133"><ele>86.0</ele><time>2026-04-11T05:25:49.86Z</time></trkpt><trkpt lat="40.8973583" lon="14.2762283"><ele>86.14285714285715</ele><time>2026-04-11T05:25:50.86Z</time></trkpt><trkpt lat="40.8973567" lon="14.27614"><ele>86.28571428571429</ele><time>2026-04-11T05:25:51.86Z</time></trkpt><trkpt lat="40.897355" lon="14.2760517"><ele>86.42857142857143</ele><time>2026-04-11T05:25:52.86Z</time></trkpt><trkpt lat="40.897355" lon="14.2759633"><ele>86.57142857142858</ele><time>2026-04-11T05:25:53.86Z</time></trkpt><trkpt lat="40.8973533" lon="14.275875"><ele>86.71428571428572</ele><time>2026-04-11T05:25:54.859Z</time></trkpt><trkpt lat="40.8973533" lon="14.2757867"><ele>86.85714285714286</ele><time>2026-04-11T05:25:55.859Z</time></trkpt><trkpt lat="40.8973533" lon="14.2757"><ele>87.0</ele><time>2026-04-11T05:25:56.859Z</time></trkpt><trkpt lat="40.8973533" lon="14.27561"><ele>87.71428571428571</ele><time>2026-04-11T05:25:57.861Z</time></trkpt><trkpt lat="40.8973533" lon="14.2755217"><ele>88.42857142857143</ele><time>2026-04-11T05:25:58.86Z</time></trkpt><trkpt lat="40.8973567" lon="14.27543"><ele>89.14285714285714</ele><time>2026-04-11T05:25:59.859Z</time></trkpt><trkpt lat="40.8973583" lon="14.2753417"><ele>89.85714285714286</ele><time>2026-04-11T05:26:00.86Z</time></trkpt><trkpt lat="40.89736" lon="14.2752483"><ele>90.57142857142857</ele><time>2026-04-11T05:26:01.86Z</time></trkpt><trkpt lat="40.89736" lon="14.2751533"><ele>91.28571428571429</ele><time>2026-04-11T05:26:02.86Z</time></trkpt><trkpt lat="40.89736" lon="14.2750583"><ele>92.0</ele><time>2026-04-11T05:26:03.858Z</time></trkpt><trkpt lat="40.8973583" lon="14.2749633"><ele>92.0</ele><time>2026-04-11T05:26:04.859Z</time></trkpt><trkpt lat="40.8973567" lon="14.2748667"><ele>92.0</ele><time>2026-04-11T05:26:05.859Z</time></trkpt><trkpt lat="40.8973567" lon="14.2747733"><ele>92.0</ele><time>2026-04-11T05:26:06.86Z</time></trkpt><trkpt lat="40.8973533" lon="14.2746783"><ele>92.0</ele><time>2026-04-11T05:26:07.859Z</time></trkpt><trkpt lat="40.8973483" lon="14.2745817"><ele>92.0</ele><time>2026-04-11T05:26:08.859Z</time></trkpt><trkpt lat="40.8973467" lon="14.2744833"><ele>92.0</ele><time>2026-04-11T05:26:09.859Z</time></trkpt><trkpt lat="40.8973483" lon="14.27439"><ele>92.0</ele><time>2026-04-11T05:26:10.862Z</time></trkpt><trkpt lat="40.8973483" lon="14.274295"><ele>92.28571428571429</ele><time>2026-04-11T05:26:11.861Z</time></trkpt><trkpt lat="40.89735" lon="14.2742"><ele>92.57142857142857</ele><time>2026-04-11T05:26:12.857Z</time></trkpt><trkpt lat="40.89735" lon="14.2741083"><ele>92.85714285714286</ele><time>2026-04-11T05:26:13.86Z</time></trkpt><trkpt lat="40.89735" lon="14.2740167"><ele>93.14285714285714</ele><time>2026-04-11T05:26:14.86Z</time></trkpt><trkpt lat="40.89735" lon="14.2739233"><ele>93.42857142857142</ele><time>2026-04-11T05:26:15.858Z</time></trkpt><trkpt lat="40.8973483" lon="14.2738333"><ele>93.71428571428571</ele><time>2026-04-11T05:26:16.859Z</time></trkpt><trkpt lat="40.89735" lon="14.2737433"><ele>94.0</ele><time>2026-04-11T05:26:17.859Z</time></trkpt><trkpt lat="40.8973517" lon="14.27365"><ele>94.0</ele><time>2026-04-11T05:26:18.861Z</time></trkpt><trkpt lat="40.8973517" lon="14.273555"><ele>94.0</ele><time>2026-04-11T05:26:19.862Z</time></trkpt><trkpt lat="40.8973483" lon="14.2734633"><ele>94.0</ele><time>2026-04-11T05:26:20.862Z</time></trkpt><trkpt lat="40.8973483" lon="14.273375"><ele>94.0</ele><time>2026-04-11T05:26:21.859Z</time></trkpt><trkpt lat="40.89735" lon="14.273285"><ele>94.0</ele><time>2026-04-11T05:26:22.862Z</time></trkpt><trkpt lat="40.8973533" lon="14.2731933"><ele>94.0</ele><time>2026-04-11T05:26:23.86Z</time></trkpt><trkpt lat="40.8973567" lon="14.273105"><ele>94.0</ele><time>2026-04-11T05:26:24.858Z</time></trkpt><trkpt lat="40.8973617" lon="14.27301"><ele>93.57142857142857</ele><time>2026-04-11T05:26:25.859Z</time></trkpt><trkpt lat="40.89737" lon="14.272915"><ele>93.14285714285714</ele><time>2026-04-11T05:26:26.86Z</time></trkpt><trkpt lat="40.89738" lon="14.2728217"><ele>92.71428571428572</ele><time>2026-04-11T05:26:27.858Z</time></trkpt><trkpt lat="40.8973917" lon="14.2727283"><ele>92.28571428571428</ele><time>2026-04-11T05:26:28.86Z</time></trkpt><trkpt lat="40.8974017" lon="14.272635"><ele>91.85714285714286</ele><time>2026-04-11T05:26:29.859Z</time></trkpt><trkpt lat="40.8974083" lon="14.2725433"><ele>91.42857142857143</ele><time>2026-04-11T05:26:30.86Z</time></trkpt><trkpt lat="40.8974217" lon="14.2724533"><ele>91.0</ele><time>2026-04-11T05:26:31.86Z</time></trkpt><trkpt lat="40.8974367" lon="14.2723617"><ele>91.0</ele><time>2026-04-11T05:26:32.858Z</time></trkpt><trkpt lat="40.8974517" lon="14.2722717"><ele>91.0</ele><time>2026-04-11T05:26:33.858Z</time></trkpt><trkpt lat="40.8974683" lon="14.2721833"><ele>91.0</ele><time>2026-04-11T05:26:34.86Z</time></trkpt><trkpt lat="40.89749" lon="14.272095"><ele>91.0</ele><time>2026-04-11T05:26:35.859Z</time></trkpt><trkpt lat="40.8975133" lon="14.2720083"><ele>91.0</ele><time>2026-04-11T05:26:36.859Z</time></trkpt><trkpt lat="40.89754" lon="14.271925"><ele>91.0</ele><time>2026-04-11T05:26:37.86Z</time></trkpt><trkpt lat="40.8975717" lon="14.271845"><ele>91.0</ele><time>2026-04-11T05:26:38.86Z</time></trkpt><trkpt lat="40.8976083" lon="14.27177"><ele>91.0</ele><time>2026-04-11T05:26:39.858Z</time></trkpt><trkpt lat="40.8976467" lon="14.2717017"><ele>91.0</ele><time>2026-04-11T05:26:40.859Z</time></trkpt><trkpt lat="40.8976933" lon="14.271635"><ele>91.0</ele><time>2026-04-11T05:26:41.86Z</time></trkpt><trkpt lat="40.8977383" lon="14.2715683"><ele>91.0</ele><time>2026-04-11T05:26:42.858Z</time></trkpt><trkpt lat="40.8977767" lon="14.271495"><ele>91.0</ele><time>2026-04-11T05:26:43.86Z</time></trkpt><trkpt lat="40.8978083" lon="14.271415"><ele>91.0</ele><time>2026-04-11T05:26:44.86Z</time></trkpt><trkpt lat="40.8978317" lon="14.27133"><ele>91.0</ele><time>2026-04-11T05:26:45.86Z</time></trkpt><trkpt lat="40.89785" lon="14.271245"><ele>91.0</ele><time>2026-04-11T05:26:46.861Z</time></trkpt><trkpt lat="40.8978667" lon="14.2711583"><ele>91.0</ele><time>2026-04-11T05:26:47.857Z</time></trkpt><trkpt lat="40.8978833" lon="14.271075"><ele>91.0</ele><time>2026-04-11T05:26:48.859Z</time></trkpt><trkpt lat="40.8979033" lon="14.270995"><ele>91.0</ele><time>2026-04-11T05:26:49.86Z</time></trkpt><trkpt lat="40.89793" lon="14.2709183"><ele>91.0</ele><time>2026-04-11T05:26:50.86Z</time></trkpt><trkpt lat="40.8979617" lon="14.270845"><ele>91.0</ele><time>2026-04-11T05:26:51.859Z</time></trkpt><trkpt lat="40.897995" lon="14.2707717"><ele>91.0</ele><time>2026-04-11T05:26:52.86Z</time></trkpt><trkpt lat="40.8980333" lon="14.2707"><ele>91.0</ele><time>2026-04-11T05:26:53.86Z</time></trkpt><trkpt lat="40.898075" lon="14.2706317"><ele>91.0</ele><time>2026-04-11T05:26:54.859Z</time></trkpt><trkpt lat="40.898115" lon="14.2705617"><ele>91.0</ele><time>2026-04-11T05:26:55.86Z</time></trkpt><trkpt lat="40.8981583" lon="14.270495"><ele>91.0</ele><time>2026-04-11T05:26:56.858Z</time></trkpt><trkpt lat="40.898205" lon="14.27043"><ele>91.0</ele><time>2026-04-11T05:26:57.859Z</time></trkpt><trkpt lat="40.8982483" lon="14.27036"><ele>91.0</ele><time>2026-04-11T05:26:58.86Z</time></trkpt><trkpt lat="40.8982933" lon="14.2702933"><ele>91.0</ele><time>2026-04-11T05:26:59.859Z</time></trkpt><trkpt lat="40.8983417" lon="14.2702267"><ele>91.0</ele><time>2026-04-11T05:27:00.86Z</time></trkpt><trkpt lat="40.89839" lon="14.2701583"><ele>91.0</ele><time>2026-04-11T05:27:01.859Z</time></trkpt><trkpt lat="40.8984317" lon="14.2700883"><ele>91.0</ele><time>2026-04-11T05:27:02.859Z</time></trkpt><trkpt lat="40.8984733" lon="14.2700183"><ele>91.0</ele><time>2026-04-11T05:27:03.86Z</time></trkpt><trkpt lat="40.8985517" lon="14.2698883"><ele>91.0</ele><time>2026-04-11T05:27:05.86Z</time></trkpt><trkpt lat="40.8985967" lon="14.26983"><ele>91.0</ele><time>2026-04-11T05:27:06.86Z</time></trkpt><trkpt lat="40.898645" lon="14.269775"><ele>90.83333333333333</ele><time>2026-04-11T05:27:07.861Z</time></trkpt><trkpt lat="40.898695" lon="14.2697217"><ele>90.66666666666666</ele><time>2026-04-11T05:27:08.86Z</time></trkpt><trkpt lat="40.8987517" lon="14.2696783"><ele>90.5</ele><time>2026-04-11T05:27:09.86Z</time></trkpt><trkpt lat="40.8988" lon="14.2696233"><ele>90.33333333333333</ele><time>2026-04-11T05:27:10.86Z</time></trkpt><trkpt lat="40.8988917" lon="14.2695167"><ele>90.16666666666667</ele><time>2026-04-11T05:27:12.86Z</time></trkpt><trkpt lat="40.89898" lon="14.2694233"><ele>90.0</ele><time>2026-04-11T05:27:14.861Z</time></trkpt><trkpt lat="40.89907" lon="14.269335"><ele>90.0</ele><time>2026-04-11T05:27:16.861Z</time></trkpt><trkpt lat="40.89917" lon="14.2692583"><ele>90.0</ele><time>2026-04-11T05:27:18.858Z</time></trkpt><trkpt lat="40.8992433" lon="14.2691317"><ele>90.0</ele><time>2026-04-11T05:27:20.86Z</time></trkpt><trkpt lat="40.8992883" lon="14.2689767"><ele>90.0</ele><time>2026-04-11T05:27:22.86Z</time></trkpt><trkpt lat="40.8993" lon="14.2688933"><ele>90.0</ele><time>2026-04-11T05:27:23.861Z</time></trkpt><trkpt lat="40.8993133" lon="14.2688067"><ele>89.71428571428571</ele><time>2026-04-11T05:27:24.86Z</time></trkpt><trkpt lat="40.8993333" lon="14.2687217"><ele>89.42857142857143</ele><time>2026-04-11T05:27:25.86Z</time></trkpt><trkpt lat="40.89936" lon="14.2686433"><ele>89.14285714285714</ele><time>2026-04-11T05:27:26.859Z</time></trkpt><trkpt lat="40.8993883" lon="14.2685667"><ele>88.85714285714286</ele><time>2026-04-11T05:27:27.858Z</time></trkpt><trkpt lat="40.8994233" lon="14.268495"><ele>88.57142857142857</ele><time>2026-04-11T05:27:28.859Z</time></trkpt><trkpt lat="40.89946" lon="14.268425"><ele>88.28571428571429</ele><time>2026-04-11T05:27:29.859Z</time></trkpt><trkpt lat="40.8995017" lon="14.2683567"><ele>88.0</ele><time>2026-04-11T05:27:30.86Z</time></trkpt><trkpt lat="40.8995417" lon="14.26829"><ele>88.0</ele><time>2026-04-11T05:27:31.86Z</time></trkpt><trkpt lat="40.8995867" lon="14.268225"><ele>88.0</ele><time>2026-04-11T05:27:32.862Z</time></trkpt><trkpt lat="40.8996333" lon="14.2681583"><ele>88.0</ele><time>2026-04-11T05:27:33.858Z</time></trkpt><trkpt lat="40.8996783" lon="14.2680917"><ele>88.0</ele><time>2026-04-11T05:27:34.861Z</time></trkpt><trkpt lat="40.8997283" lon="14.2680267"><ele>88.0</ele><time>2026-04-11T05:27:35.858Z</time></trkpt><trkpt lat="40.8997717" lon="14.267965"><ele>88.0</ele><time>2026-04-11T05:27:36.861Z</time></trkpt><trkpt lat="40.899815" lon="14.2678983"><ele>88.0</ele><time>2026-04-11T05:27:37.86Z</time></trkpt><trkpt lat="40.8998567" lon="14.267835"><ele>88.0</ele><time>2026-04-11T05:27:38.858Z</time></trkpt><trkpt lat="40.8999033" lon="14.26777"><ele>88.0</ele><time>2026-04-11T05:27:39.859Z</time></trkpt><trkpt lat="40.89995" lon="14.267705"><ele>88.0</ele><time>2026-04-11T05:27:40.86Z</time></trkpt><trkpt lat="40.899995" lon="14.2676367"><ele>88.0</ele><time>2026-04-11T05:27:41.86Z</time></trkpt><trkpt lat="40.9000417" lon="14.2675683"><ele>88.0</ele><time>2026-04-11T05:27:42.86Z</time></trkpt><trkpt lat="40.9000883" lon="14.2675"><ele>88.0</ele><time>2026-04-11T05:27:43.86Z</time></trkpt><trkpt lat="40.900135" lon="14.2674283"><ele>88.0</ele><time>2026-04-11T05:27:44.861Z</time></trkpt><trkpt lat="40.9001783" lon="14.2673533"><ele>88.0</ele><time>2026-04-11T05:27:45.859Z</time></trkpt><trkpt lat="40.9002267" lon="14.267285"><ele>88.0</ele><time>2026-04-11T05:27:46.861Z</time></trkpt><trkpt lat="40.900275" lon="14.267215"><ele>88.0</ele><time>2026-04-11T05:27:47.859Z</time></trkpt><trkpt lat="40.9003217" lon="14.2671467"><ele>88.0</ele><time>2026-04-11T05:27:48.858Z</time></trkpt><trkpt lat="40.90037" lon="14.2670783"><ele>88.0</ele><time>2026-04-11T05:27:49.859Z</time></trkpt><trkpt lat="40.9004183" lon="14.2670067"><ele>88.0</ele><time>2026-04-11T05:27:50.861Z</time></trkpt><trkpt lat="40.900465" lon="14.2669367"><ele>88.0</ele><time>2026-04-11T05:27:51.858Z</time></trkpt><trkpt lat="40.900515" lon="14.26687"><ele>88.0</ele><time>2026-04-11T05:27:52.86Z</time></trkpt><trkpt lat="40.9005683" lon="14.2668033"><ele>88.0</ele><time>2026-04-11T05:27:53.86Z</time></trkpt><trkpt lat="40.90062" lon="14.2667383"><ele>88.0</ele><time>2026-04-11T05:27:54.86Z</time></trkpt><trkpt lat="40.90067" lon="14.2666733"><ele>88.0</ele><time>2026-04-11T05:27:55.86Z</time></trkpt><trkpt lat="40.9007233" lon="14.2666117"><ele>88.0</ele><time>2026-04-11T05:27:56.861Z</time></trkpt><trkpt lat="40.9007817" lon="14.26655"><ele>88.0</ele><time>2026-04-11T05:27:57.86Z</time></trkpt><trkpt lat="40.9008383" lon="14.26649"><ele>88.0</ele><time>2026-04-11T05:27:58.861Z</time></trkpt><trkpt lat="40.9008983" lon="14.2664283"><ele>88.28571428571429</ele><time>2026-04-11T05:27:59.86Z</time></trkpt><trkpt lat="40.9009583" lon="14.2663683"><ele>88.57142857142857</ele><time>2026-04-11T05:28:00.864Z</time></trkpt><trkpt lat="40.901015" lon="14.266305"><ele>88.85714285714286</ele><time>2026-04-11T05:28:01.859Z</time></trkpt><trkpt lat="40.9010733" lon="14.2662467"><ele>89.14285714285714</ele><time>2026-04-11T05:28:02.86Z</time></trkpt><trkpt lat="40.9011283" lon="14.2661867"><ele>89.42857142857143</ele><time>2026-04-11T05:28:03.857Z</time></trkpt><trkpt lat="40.9011833" lon="14.2661283"><ele>89.71428571428571</ele><time>2026-04-11T05:28:04.858Z</time></trkpt><trkpt lat="40.9012367" lon="14.2660683"><ele>90.0</ele><time>2026-04-11T05:28:05.86Z</time></trkpt><trkpt lat="40.901285" lon="14.266005"><ele>90.0</ele><time>2026-04-11T05:28:06.86Z</time></trkpt><trkpt lat="40.9013333" lon="14.2659433"><ele>90.0</ele><time>2026-04-11T05:28:07.86Z</time></trkpt><trkpt lat="40.9013783" lon="14.26588"><ele>90.0</ele><time>2026-04-11T05:28:08.859Z</time></trkpt><trkpt lat="40.901425" lon="14.2658133"><ele>90.0</ele><time>2026-04-11T05:28:09.86Z</time></trkpt><trkpt lat="40.90147" lon="14.2657467"><ele>90.0</ele><time>2026-04-11T05:28:10.86Z</time></trkpt><trkpt lat="40.901515" lon="14.2656767"><ele>90.0</ele><time>2026-04-11T05:28:11.86Z</time></trkpt><trkpt lat="40.90156" lon="14.265605"><ele>90.0</ele><time>2026-04-11T05:28:12.86Z</time></trkpt><trkpt lat="40.901605" lon="14.26553"><ele>90.14285714285714</ele><time>2026-04-11T05:28:13.86Z</time></trkpt><trkpt lat="40.9016483" lon="14.2654583"><ele>90.28571428571429</ele><time>2026-04-11T05:28:14.86Z</time></trkpt><trkpt lat="40.90169" lon="14.265385"><ele>90.42857142857143</ele><time>2026-04-11T05:28:15.858Z</time></trkpt><trkpt lat="40.9017333" lon="14.2653067"><ele>90.57142857142857</ele><time>2026-04-11T05:28:16.86Z</time></trkpt><trkpt lat="40.9017767" lon="14.265235"><ele>90.71428571428572</ele><time>2026-04-11T05:28:17.86Z</time></trkpt><trkpt lat="40.9018233" lon="14.26516"><ele>90.85714285714286</ele><time>2026-04-11T05:28:18.86Z</time></trkpt><trkpt lat="40.9018683" lon="14.2650883"><ele>91.0</ele><time>2026-04-11T05:28:19.859Z</time></trkpt><trkpt lat="40.9019133" lon="14.265015"><ele>90.42857142857143</ele><time>2026-04-11T05:28:20.86Z</time></trkpt><trkpt lat="40.9019617" lon="14.26494"><ele>89.85714285714286</ele><time>2026-04-11T05:28:21.86Z</time></trkpt><trkpt lat="40.9020083" lon="14.26487"><ele>89.28571428571428</ele><time>2026-04-11T05:28:22.86Z</time></trkpt><trkpt lat="40.90206" lon="14.2647983"><ele>88.71428571428572</ele><time>2026-04-11T05:28:23.861Z</time></trkpt><trkpt lat="40.9021133" lon="14.2647367"><ele>88.14285714285714</ele><time>2026-04-11T05:28:24.859Z</time></trkpt><trkpt lat="40.902175" lon="14.2646883"><ele>87.57142857142857</ele><time>2026-04-11T05:28:25.86Z</time></trkpt><trkpt lat="40.902245" lon="14.2646583"><ele>87.0</ele><time>2026-04-11T05:28:26.86Z</time></trkpt><trkpt lat="40.9023167" lon="14.26465"><ele>87.0</ele><time>2026-04-11T05:28:27.858Z</time></trkpt><trkpt lat="40.9023883" lon="14.2646667"><ele>87.0</ele><time>2026-04-11T05:28:28.86Z</time></trkpt><trkpt lat="40.9024583" lon="14.2647067"><ele>87.0</ele><time>2026-04-11T05:28:29.858Z</time></trkpt><trkpt lat="40.9025217" lon="14.26476"><ele>87.0</ele><time>2026-04-11T05:28:30.859Z</time></trkpt><trkpt lat="40.9025733" lon="14.2648217"><ele>87.0</ele><time>2026-04-11T05:28:31.86Z</time></trkpt><trkpt lat="40.9026133" lon="14.2648967"><ele>87.0</ele><time>2026-04-11T05:28:32.86Z</time></trkpt><trkpt lat="40.9026567" lon="14.2649733"><ele>87.0</ele><time>2026-04-11T05:28:33.86Z</time></trkpt><trkpt lat="40.9027" lon="14.2650467"><ele>86.85714285714286</ele><time>2026-04-11T05:28:34.859Z</time></trkpt><trkpt lat="40.9027483" lon="14.2651167"><ele>86.71428571428572</ele><time>2026-04-11T05:28:35.86Z</time></trkpt><trkpt lat="40.902795" lon="14.26519"><ele>86.57142857142858</ele><time>2026-04-11T05:28:36.86Z</time></trkpt><trkpt lat="40.9028417" lon="14.2652617"><ele>86.42857142857143</ele><time>2026-04-11T05:28:37.86Z</time></trkpt><trkpt lat="40.9028933" lon="14.265325"><ele>86.28571428571429</ele><time>2026-04-11T05:28:38.86Z</time></trkpt><trkpt lat="40.9029533" lon="14.2653767"><ele>86.14285714285715</ele><time>2026-04-11T05:28:39.859Z</time></trkpt><trkpt lat="40.9030217" lon="14.2654133"><ele>86.0</ele><time>2026-04-11T05:28:40.86Z</time></trkpt><trkpt lat="40.9030917" lon="14.2654283"><ele>86.00000000000001</ele><time>2026-04-11T05:28:41.86Z</time></trkpt><trkpt lat="40.90316" lon="14.2654183"><ele>86.0</ele><time>2026-04-11T05:28:42.859Z</time></trkpt><trkpt lat="40.903225" lon="14.26539"><ele>86.0</ele><time>2026-04-11T05:28:43.859Z</time></trkpt><trkpt lat="40.903285" lon="14.2653417"><ele>86.0</ele><time>2026-04-11T05:28:44.859Z</time></trkpt><trkpt lat="40.9033317" lon="14.265275"><ele>86.0</ele><time>2026-04-11T05:28:45.859Z</time></trkpt><trkpt lat="40.9033667" lon="14.2652"><ele>86.00000000000001</ele><time>2026-04-11T05:28:46.862Z</time></trkpt><trkpt lat="40.9033917" lon="14.2651183"><ele>86.0</ele><time>2026-04-11T05:28:47.86Z</time></trkpt><trkpt lat="40.903405" lon="14.2650333"><ele>86.00000000000001</ele><time>2026-04-11T05:28:48.86Z</time></trkpt><trkpt lat="40.903405" lon="14.2649467"><ele>86.0</ele><time>2026-04-11T05:28:49.86Z</time></trkpt><trkpt lat="40.9033933" lon="14.2648567"><ele>86.0</ele><time>2026-04-11T05:28:50.86Z</time></trkpt><trkpt lat="40.9033733" lon="14.2647717"><ele>86.0</ele><time>2026-04-11T05:28:51.859Z</time></trkpt><trkpt lat="40.9033467" lon="14.2646867"><ele>86.0</ele><time>2026-04-11T05:28:52.861Z</time></trkpt><trkpt lat="40.9033217" lon="14.2646067"><ele>86.00000000000001</ele><time>2026-04-11T05:28:53.86Z</time></trkpt><trkpt lat="40.9032967" lon="14.2645267"><ele>86.0</ele><time>2026-04-11T05:28:54.86Z</time></trkpt><trkpt lat="40.90327" lon="14.2644483"><ele>86.0</ele><time>2026-04-11T05:28:55.86Z</time></trkpt><trkpt lat="40.9032433" lon="14.26437"><ele>86.0</ele><time>2026-04-11T05:28:56.859Z</time></trkpt><trkpt lat="40.9032183" lon="14.2642933"><ele>86.0</ele><time>2026-04-11T05:28:57.86Z</time></trkpt><trkpt lat="40.903195" lon="14.264215"><ele>86.0</ele><time>2026-04-11T05:28:58.86Z</time></trkpt><trkpt lat="40.9031717" lon="14.2641367"><ele>86.0</ele><time>2026-04-11T05:28:59.86Z</time></trkpt><trkpt lat="40.9031417" lon="14.2639783"><ele>86.0</ele><time>2026-04-11T05:29:01.86Z</time></trkpt><trkpt lat="40.9031183" lon="14.26382"><ele>86.4</ele><time>2026-04-11T05:29:03.86Z</time></trkpt><trkpt lat="40.90313" lon="14.2636783"><ele>86.8</ele><time>2026-04-11T05:29:05.859Z</time></trkpt><trkpt lat="40.9032" lon="14.2635717"><ele>87.2</ele><time>2026-04-11T05:29:07.86Z</time></trkpt><trkpt lat="40.9032883" lon="14.2634833"><ele>87.60000000000001</ele><time>2026-04-11T05:29:09.858Z</time></trkpt><trkpt lat="40.9033617" lon="14.26336"><ele>88.0</ele><time>2026-04-11T05:29:11.86Z</time></trkpt><trkpt lat="40.9034117" lon="14.2632133"><ele>88.16666666666666</ele><time>2026-04-11T05:29:13.86Z</time></trkpt><trkpt lat="40.90343" lon="14.2631333"><ele>88.33333333333333</ele><time>2026-04-11T05:29:14.863Z</time></trkpt><trkpt lat="40.9034567" lon="14.262975"><ele>88.5</ele><time>2026-04-11T05:29:16.86Z</time></trkpt><trkpt lat="40.903475" lon="14.2628117"><ele>88.66666666666667</ele><time>2026-04-11T05:29:18.86Z</time></trkpt><trkpt lat="40.9034817" lon="14.2627283"><ele>88.83333333333334</ele><time>2026-04-11T05:29:19.86Z</time></trkpt><trkpt lat="40.9034883" lon="14.26264"><ele>89.0</ele><time>2026-04-11T05:29:20.858Z</time></trkpt><trkpt lat="40.9035033" lon="14.2625583"><ele>89.2</ele><time>2026-04-11T05:29:21.859Z</time></trkpt><trkpt lat="40.90356" lon="14.2624133"><ele>89.4</ele><time>2026-04-11T05:29:23.86Z</time></trkpt><trkpt lat="40.903595" lon="14.2623417"><ele>89.6</ele><time>2026-04-11T05:29:24.859Z</time></trkpt><trkpt lat="40.9036333" lon="14.26227"><ele>89.8</ele><time>2026-04-11T05:29:25.862Z</time></trkpt><trkpt lat="40.9037083" lon="14.2621433"><ele>90.0</ele><time>2026-04-11T05:29:27.86Z</time></trkpt><trkpt lat="40.9037883" lon="14.2620183"><ele>90.33333333333333</ele><time>2026-04-11T05:29:29.86Z</time></trkpt><trkpt lat="40.90387" lon="14.2618983"><ele>90.66666666666667</ele><time>2026-04-11T05:29:31.86Z</time></trkpt><trkpt lat="40.9039533" lon="14.2617817"><ele>91.0</ele><time>2026-04-11T05:29:33.858Z</time></trkpt><trkpt lat="40.9039983" lon="14.2617217"><ele>91.33333333333334</ele><time>2026-04-11T05:29:34.859Z</time></trkpt><trkpt lat="40.904045" lon="14.2616633"><ele>91.66666666666667</ele><time>2026-04-11T05:29:35.859Z</time></trkpt><trkpt lat="40.9040917" lon="14.2616017"><ele>92.0</ele><time>2026-04-11T05:29:36.859Z</time></trkpt><trkpt lat="40.904135" lon="14.2615383"><ele>92.0</ele><time>2026-04-11T05:29:37.858Z</time></trkpt><trkpt lat="40.90418" lon="14.2614767"><ele>92.0</ele><time>2026-04-11T05:29:38.859Z</time></trkpt><trkpt lat="40.9042217" lon="14.2614133"><ele>92.0</ele><time>2026-04-11T05:29:39.858Z</time></trkpt><trkpt lat="40.9042633" lon="14.2613467"><ele>92.0</ele><time>2026-04-11T05:29:40.859Z</time></trkpt><trkpt lat="40.9043067" lon="14.26128"><ele>92.0</ele><time>2026-04-11T05:29:41.859Z</time></trkpt><trkpt lat="40.9043483" lon="14.261215"><ele>92.0</ele><time>2026-04-11T05:29:42.859Z</time></trkpt><trkpt lat="40.9043933" lon="14.2611567"><ele>92.0</ele><time>2026-04-11T05:29:43.86Z</time></trkpt><trkpt lat="40.90444" lon="14.2610983"><ele>91.6</ele><time>2026-04-11T05:29:44.86Z</time></trkpt><trkpt lat="40.9045267" lon="14.2609783"><ele>91.19999999999999</ele><time>2026-04-11T05:29:46.86Z</time></trkpt><trkpt lat="40.9046083" lon="14.26086"><ele>90.8</ele><time>2026-04-11T05:29:48.86Z</time></trkpt><trkpt lat="40.9046933" lon="14.2607417"><ele>90.4</ele><time>2026-04-11T05:29:50.859Z</time></trkpt><trkpt lat="40.90474" lon="14.2606833"><ele>90.0</ele><time>2026-04-11T05:29:51.86Z</time></trkpt><trkpt lat="40.90482" lon="14.2605617"><ele>90.0</ele><time>2026-04-11T05:29:53.859Z</time></trkpt><trkpt lat="40.9048667" lon="14.260505"><ele>90.0</ele><time>2026-04-11T05:29:54.858Z</time></trkpt><trkpt lat="40.9049133" lon="14.2604467"><ele>90.0</ele><time>2026-04-11T05:29:55.859Z</time></trkpt><trkpt lat="40.9049617" lon="14.2603917"><ele>90.0</ele><time>2026-04-11T05:29:56.859Z</time></trkpt><trkpt lat="40.9050117" lon="14.2603367"><ele>90.0</ele><time>2026-04-11T05:29:57.86Z</time></trkpt><trkpt lat="40.905055" lon="14.260275"><ele>90.0</ele><time>2026-04-11T05:29:58.86Z</time></trkpt><trkpt lat="40.9050983" lon="14.2602117"><ele>90.0</ele><time>2026-04-11T05:29:59.858Z</time></trkpt><trkpt lat="40.905185" lon="14.2600883"><ele>90.2</ele><time>2026-04-11T05:30:01.861Z</time></trkpt><trkpt lat="40.9052283" lon="14.2600267"><ele>90.4</ele><time>2026-04-11T05:30:02.86Z</time></trkpt><trkpt lat="40.90531" lon="14.2599083"><ele>90.6</ele><time>2026-04-11T05:30:04.858Z</time></trkpt><trkpt lat="40.9053983" lon="14.25979"><ele>90.8</ele><time>2026-04-11T05:30:06.86Z</time></trkpt><trkpt lat="40.9054867" lon="14.2596767"><ele>91.0</ele><time>2026-04-11T05:30:08.86Z</time></trkpt><trkpt lat="40.9055717" lon="14.2595617"><ele>91.0</ele><time>2026-04-11T05:30:10.86Z</time></trkpt><trkpt lat="40.9056117" lon="14.2594967"><ele>91.0</ele><time>2026-04-11T05:30:11.861Z</time></trkpt><trkpt lat="40.9056533" lon="14.2594317"><ele>91.0</ele><time>2026-04-11T05:30:12.86Z</time></trkpt><trkpt lat="40.905695" lon="14.2593633"><ele>91.0</ele><time>2026-04-11T05:30:13.858Z</time></trkpt><trkpt lat="40.9057367" lon="14.2592983"><ele>91.0</ele><time>2026-04-11T05:30:14.861Z</time></trkpt><trkpt lat="40.9057767" lon="14.2592317"><ele>91.0</ele><time>2026-04-11T05:30:15.858Z</time></trkpt><trkpt lat="40.9058167" lon="14.259165"><ele>91.0</ele><time>2026-04-11T05:30:16.86Z</time></trkpt><trkpt lat="40.9058533" lon="14.259095"><ele>91.0</ele><time>2026-04-11T05:30:17.86Z</time></trkpt><trkpt lat="40.9058933" lon="14.259025"><ele>91.0</ele><time>2026-04-11T05:30:18.859Z</time></trkpt><trkpt lat="40.9059333" lon="14.2589517"><ele>91.0</ele><time>2026-04-11T05:30:19.859Z</time></trkpt><trkpt lat="40.9059717" lon="14.25888"><ele>91.0</ele><time>2026-04-11T05:30:20.859Z</time></trkpt><trkpt lat="40.9060033" lon="14.258805"><ele>91.0</ele><time>2026-04-11T05:30:21.858Z</time></trkpt><trkpt lat="40.9060417" lon="14.2587333"><ele>91.0</ele><time>2026-04-11T05:30:22.86Z</time></trkpt><trkpt lat="40.9060833" lon="14.25866"><ele>91.0</ele><time>2026-04-11T05:30:23.859Z</time></trkpt><trkpt lat="40.9061233" lon="14.2585917"><ele>90.83333333333333</ele><time>2026-04-11T05:30:24.86Z</time></trkpt><trkpt lat="40.9061633" lon="14.2585233"><ele>90.66666666666666</ele><time>2026-04-11T05:30:25.859Z</time></trkpt><trkpt lat="40.9062017" lon="14.2584567"><ele>90.5</ele><time>2026-04-11T05:30:26.859Z</time></trkpt><trkpt lat="40.90624" lon="14.2583867"><ele>90.33333333333333</ele><time>2026-04-11T05:30:27.858Z</time></trkpt><trkpt lat="40.9063233" lon="14.2582583"><ele>90.16666666666667</ele><time>2026-04-11T05:30:29.859Z</time></trkpt><trkpt lat="40.9064033" lon="14.2581317"><ele>90.0</ele><time>2026-04-11T05:30:31.86Z</time></trkpt><trkpt lat="40.9064483" lon="14.2580683"><ele>89.85714285714285</ele><time>2026-04-11T05:30:32.858Z</time></trkpt><trkpt lat="40.9064933" lon="14.258005"><ele>89.71428571428572</ele><time>2026-04-11T05:30:33.857Z</time></trkpt><trkpt lat="40.9065383" lon="14.2579417"><ele>89.57142857142857</ele><time>2026-04-11T05:30:34.859Z</time></trkpt><trkpt lat="40.9065833" lon="14.2578783"><ele>89.42857142857142</ele><time>2026-04-11T05:30:35.86Z</time></trkpt><trkpt lat="40.9066283" lon="14.2578133"><ele>89.28571428571428</ele><time>2026-04-11T05:30:36.86Z</time></trkpt><trkpt lat="40.9066717" lon="14.2577517"><ele>89.14285714285714</ele><time>2026-04-11T05:30:37.859Z</time></trkpt><trkpt lat="40.9067133" lon="14.257685"><ele>89.0</ele><time>2026-04-11T05:30:38.859Z</time></trkpt><trkpt lat="40.906755" lon="14.25762"><ele>89.0</ele><time>2026-04-11T05:30:39.858Z</time></trkpt><trkpt lat="40.9068383" lon="14.2574933"><ele>89.0</ele><time>2026-04-11T05:30:41.86Z</time></trkpt><trkpt lat="40.9068867" lon="14.2574267"><ele>89.0</ele><time>2026-04-11T05:30:42.86Z</time></trkpt><trkpt lat="40.9069333" lon="14.2573633"><ele>89.0</ele><time>2026-04-11T05:30:43.86Z</time></trkpt><trkpt lat="40.9069783" lon="14.2572967"><ele>89.0</ele><time>2026-04-11T05:30:44.859Z</time></trkpt><trkpt lat="40.9070233" lon="14.2572317"><ele>89.0</ele><time>2026-04-11T05:30:45.86Z</time></trkpt><trkpt lat="40.9070633" lon="14.2571667"><ele>89.0</ele><time>2026-04-11T05:30:46.861Z</time></trkpt><trkpt lat="40.9071417" lon="14.2570333"><ele>89.0</ele><time>2026-04-11T05:30:48.858Z</time></trkpt><trkpt lat="40.9071867" lon="14.256965"><ele>89.0</ele><time>2026-04-11T05:30:49.86Z</time></trkpt><trkpt lat="40.9072283" lon="14.2569017"><ele>89.0</ele><time>2026-04-11T05:30:50.86Z</time></trkpt><trkpt lat="40.9072717" lon="14.2568383"><ele>89.0</ele><time>2026-04-11T05:30:51.861Z</time></trkpt><trkpt lat="40.907315" lon="14.25677"><ele>89.0</ele><time>2026-04-11T05:30:52.862Z</time></trkpt><trkpt lat="40.9073583" lon="14.256705"><ele>88.99999999999999</ele><time>2026-04-11T05:30:53.858Z</time></trkpt><trkpt lat="40.907405" lon="14.25664"><ele>89.0</ele><time>2026-04-11T05:30:54.858Z</time></trkpt><trkpt lat="40.90745" lon="14.2565767"><ele>89.0</ele><time>2026-04-11T05:30:55.86Z</time></trkpt><trkpt lat="40.907495" lon="14.2565117"><ele>89.0</ele><time>2026-04-11T05:30:56.859Z</time></trkpt><trkpt lat="40.90754" lon="14.2564467"><ele>89.0</ele><time>2026-04-11T05:30:57.858Z</time></trkpt><trkpt lat="40.9075817" lon="14.2563833"><ele>88.99999999999999</ele><time>2026-04-11T05:30:58.858Z</time></trkpt><trkpt lat="40.9076233" lon="14.25632"><ele>89.0</ele><time>2026-04-11T05:30:59.86Z</time></trkpt><trkpt lat="40.90771" lon="14.256195"><ele>88.85714285714285</ele><time>2026-04-11T05:31:01.86Z</time></trkpt><trkpt lat="40.907755" lon="14.25613"><ele>88.71428571428571</ele><time>2026-04-11T05:31:02.86Z</time></trkpt><trkpt lat="40.9077983" lon="14.2560617"><ele>88.57142857142857</ele><time>2026-04-11T05:31:03.858Z</time></trkpt><trkpt lat="40.9078417" lon="14.2559967"><ele>88.42857142857142</ele><time>2026-04-11T05:31:04.86Z</time></trkpt><trkpt lat="40.9078867" lon="14.25593"><ele>88.28571428571428</ele><time>2026-04-11T05:31:05.859Z</time></trkpt><trkpt lat="40.9079333" lon="14.2558633"><ele>88.14285714285714</ele><time>2026-04-11T05:31:06.859Z</time></trkpt><trkpt lat="40.9079783" lon="14.2557983"><ele>88.0</ele><time>2026-04-11T05:31:07.86Z</time></trkpt><trkpt lat="40.908065" lon="14.25567"><ele>88.0</ele><time>2026-04-11T05:31:09.86Z</time></trkpt><trkpt lat="40.90811" lon="14.255605"><ele>88.0</ele><time>2026-04-11T05:31:10.86Z</time></trkpt><trkpt lat="40.9081567" lon="14.25554"><ele>88.0</ele><time>2026-04-11T05:31:11.86Z</time></trkpt><trkpt lat="40.9082033" lon="14.255475"><ele>88.0</ele><time>2026-04-11T05:31:12.86Z</time></trkpt><trkpt lat="40.9082467" lon="14.25541"><ele>88.0</ele><time>2026-04-11T05:31:13.859Z</time></trkpt><trkpt lat="40.9082883" lon="14.2553433"><ele>88.0</ele><time>2026-04-11T05:31:14.86Z</time></trkpt><trkpt lat="40.90833" lon="14.25528"><ele>88.0</ele><time>2026-04-11T05:31:15.858Z</time></trkpt><trkpt lat="40.9083717" lon="14.255215"><ele>88.0</ele><time>2026-04-11T05:31:16.862Z</time></trkpt><trkpt lat="40.9084183" lon="14.25515"><ele>88.0</ele><time>2026-04-11T05:31:17.862Z</time></trkpt><trkpt lat="40.9085083" lon="14.25503"><ele>88.0</ele><time>2026-04-11T05:31:19.86Z</time></trkpt><trkpt lat="40.9085517" lon="14.2549667"><ele>88.0</ele><time>2026-04-11T05:31:20.858Z</time></trkpt><trkpt lat="40.9085967" lon="14.2549033"><ele>88.0</ele><time>2026-04-11T05:31:21.86Z</time></trkpt><trkpt lat="40.90864" lon="14.2548367"><ele>88.0</ele><time>2026-04-11T05:31:22.859Z</time></trkpt><trkpt lat="40.9086817" lon="14.25477"><ele>88.14285714285714</ele><time>2026-04-11T05:31:23.859Z</time></trkpt><trkpt lat="40.908725" lon="14.2547017"><ele>88.28571428571428</ele><time>2026-04-11T05:31:24.858Z</time></trkpt><trkpt lat="40.9087717" lon="14.254635"><ele>88.42857142857142</ele><time>2026-04-11T05:31:25.86Z</time></trkpt><trkpt lat="40.9088167" lon="14.2545683"><ele>88.57142857142857</ele><time>2026-04-11T05:31:26.86Z</time></trkpt><trkpt lat="40.90886" lon="14.2545"><ele>88.71428571428571</ele><time>2026-04-11T05:31:27.858Z</time></trkpt><trkpt lat="40.9089017" lon="14.2544317"><ele>88.85714285714285</ele><time>2026-04-11T05:31:28.86Z</time></trkpt><trkpt lat="40.908945" lon="14.254365"><ele>89.0</ele><time>2026-04-11T05:31:29.86Z</time></trkpt><trkpt lat="40.9089883" lon="14.2543017"><ele>88.99999999999999</ele><time>2026-04-11T05:31:30.86Z</time></trkpt><trkpt lat="40.9090333" lon="14.2542383"><ele>89.0</ele><time>2026-04-11T05:31:31.86Z</time></trkpt><trkpt lat="40.9090767" lon="14.2541767"><ele>89.0</ele><time>2026-04-11T05:31:32.859Z</time></trkpt><trkpt lat="40.90912" lon="14.254115"><ele>89.0</ele><time>2026-04-11T05:31:33.858Z</time></trkpt><trkpt lat="40.9091633" lon="14.2540533"><ele>89.0</ele><time>2026-04-11T05:31:34.86Z</time></trkpt><trkpt lat="40.90921" lon="14.2539867"><ele>88.99999999999999</ele><time>2026-04-11T05:31:35.859Z</time></trkpt><trkpt lat="40.909255" lon="14.2539183"><ele>89.0</ele><time>2026-04-11T05:31:36.859Z</time></trkpt><trkpt lat="40.9093" lon="14.2538533"><ele>88.99999999999999</ele><time>2026-04-11T05:31:37.86Z</time></trkpt><trkpt lat="40.9093467" lon="14.2537867"><ele>89.0</ele><time>2026-04-11T05:31:38.86Z</time></trkpt><trkpt lat="40.9093967" lon="14.2537217"><ele>89.0</ele><time>2026-04-11T05:31:39.859Z</time></trkpt><trkpt lat="40.9094417" lon="14.2536567"><ele>89.0</ele><time>2026-04-11T05:31:40.858Z</time></trkpt><trkpt lat="40.9094867" lon="14.25359"><ele>89.0</ele><time>2026-04-11T05:31:41.86Z</time></trkpt><trkpt lat="40.9095317" lon="14.253525"><ele>88.99999999999999</ele><time>2026-04-11T05:31:42.858Z</time></trkpt><trkpt lat="40.9095767" lon="14.2534617"><ele>89.0</ele><time>2026-04-11T05:31:43.859Z</time></trkpt><trkpt lat="40.90962" lon="14.2533967"><ele>88.99999999999999</ele><time>2026-04-11T05:31:44.861Z</time></trkpt><trkpt lat="40.9096633" lon="14.25333"><ele>89.0</ele><time>2026-04-11T05:31:45.858Z</time></trkpt><trkpt lat="40.909705" lon="14.2532667"><ele>89.0</ele><time>2026-04-11T05:31:46.862Z</time></trkpt><trkpt lat="40.9097483" lon="14.2531967"><ele>89.0</ele><time>2026-04-11T05:31:47.862Z</time></trkpt><trkpt lat="40.909795" lon="14.2531283"><ele>89.0</ele><time>2026-04-11T05:31:48.858Z</time></trkpt><trkpt lat="40.90984" lon="14.2530633"><ele>88.99999999999999</ele><time>2026-04-11T05:31:49.86Z</time></trkpt><trkpt lat="40.9098867" lon="14.2529967"><ele>89.0</ele><time>2026-04-11T05:31:50.859Z</time></trkpt><trkpt lat="40.909935" lon="14.2529283"><ele>88.99999999999999</ele><time>2026-04-11T05:31:51.858Z</time></trkpt><trkpt lat="40.9099817" lon="14.2528633"><ele>89.0</ele><time>2026-04-11T05:31:52.86Z</time></trkpt><trkpt lat="40.9100283" lon="14.252795"><ele>89.0</ele><time>2026-04-11T05:31:53.858Z</time></trkpt><trkpt lat="40.910075" lon="14.2527267"><ele>89.0</ele><time>2026-04-11T05:31:54.86Z</time></trkpt><trkpt lat="40.9101233" lon="14.252655"><ele>89.0</ele><time>2026-04-11T05:31:55.859Z</time></trkpt><trkpt lat="40.910175" lon="14.2525817"><ele>88.99999999999999</ele><time>2026-04-11T05:31:56.86Z</time></trkpt><trkpt lat="40.9102233" lon="14.2525083"><ele>89.0</ele><time>2026-04-11T05:31:57.86Z</time></trkpt><trkpt lat="40.9102733" lon="14.2524367"><ele>88.99999999999999</ele><time>2026-04-11T05:31:58.862Z</time></trkpt><trkpt lat="40.910325" lon="14.252365"><ele>89.0</ele><time>2026-04-11T05:31:59.859Z</time></trkpt><trkpt lat="40.9103733" lon="14.2522933"><ele>89.0</ele><time>2026-04-11T05:32:00.859Z</time></trkpt><trkpt lat="40.9104217" lon="14.2522217"><ele>89.0</ele><time>2026-04-11T05:32:01.861Z</time></trkpt><trkpt lat="40.91047" lon="14.2521483"><ele>89.0</ele><time>2026-04-11T05:32:02.86Z</time></trkpt><trkpt lat="40.9105133" lon="14.2520733"><ele>88.99999999999999</ele><time>2026-04-11T05:32:03.858Z</time></trkpt><trkpt lat="40.9105633" lon="14.2519967"><ele>89.0</ele><time>2026-04-11T05:32:04.859Z</time></trkpt><trkpt lat="40.9106133" lon="14.2519233"><ele>88.99999999999999</ele><time>2026-04-11T05:32:05.858Z</time></trkpt><trkpt lat="40.910665" lon="14.2518517"><ele>89.0</ele><time>2026-04-11T05:32:06.858Z</time></trkpt><trkpt lat="40.9107117" lon="14.2517817"><ele>89.0</ele><time>2026-04-11T05:32:07.859Z</time></trkpt><trkpt lat="40.9107583" lon="14.2517033"><ele>89.0</ele><time>2026-04-11T05:32:08.862Z</time></trkpt><trkpt lat="40.9108067" lon="14.25163"><ele>89.0</ele><time>2026-04-11T05:32:09.86Z</time></trkpt><trkpt lat="40.9108533" lon="14.2515567"><ele>88.99999999999999</ele><time>2026-04-11T05:32:10.858Z</time></trkpt><trkpt lat="40.9109017" lon="14.2514833"><ele>89.0</ele><time>2026-04-11T05:32:11.859Z</time></trkpt><trkpt lat="40.9109517" lon="14.25141"><ele>89.28571428571428</ele><time>2026-04-11T05:32:12.857Z</time></trkpt><trkpt lat="40.9109967" lon="14.2513383"><ele>89.57142857142857</ele><time>2026-04-11T05:32:13.861Z</time></trkpt><trkpt lat="40.9110433" lon="14.2512683"><ele>89.85714285714286</ele><time>2026-04-11T05:32:14.862Z</time></trkpt><trkpt lat="40.91109" lon="14.2512"><ele>90.14285714285714</ele><time>2026-04-11T05:32:15.862Z</time></trkpt><trkpt lat="40.9111367" lon="14.2511283"><ele>90.42857142857143</ele><time>2026-04-11T05:32:16.86Z</time></trkpt><trkpt lat="40.911185" lon="14.2510567"><ele>90.71428571428571</ele><time>2026-04-11T05:32:17.861Z</time></trkpt><trkpt lat="40.9112333" lon="14.250985"><ele>91.0</ele><time>2026-04-11T05:32:18.862Z</time></trkpt><trkpt lat="40.9112833" lon="14.2509117"><ele>91.0</ele><time>2026-04-11T05:32:19.862Z</time></trkpt><trkpt lat="40.9113317" lon="14.2508417"><ele>91.0</ele><time>2026-04-11T05:32:20.862Z</time></trkpt><trkpt lat="40.91138" lon="14.2507683"><ele>91.0</ele><time>2026-04-11T05:32:21.857Z</time></trkpt><trkpt lat="40.91143" lon="14.2506933"><ele>91.0</ele><time>2026-04-11T05:32:22.862Z</time></trkpt><trkpt lat="40.9114783" lon="14.2506217"><ele>91.0</ele><time>2026-04-11T05:32:23.858Z</time></trkpt><trkpt lat="40.9115267" lon="14.2505483"><ele>91.0</ele><time>2026-04-11T05:32:24.858Z</time></trkpt><trkpt lat="40.9115767" lon="14.2504767"><ele>91.0</ele><time>2026-04-11T05:32:25.858Z</time></trkpt><trkpt lat="40.9116233" lon="14.2504033"><ele>90.85714285714286</ele><time>2026-04-11T05:32:26.858Z</time></trkpt><trkpt lat="40.9116717" lon="14.2503333"><ele>90.71428571428572</ele><time>2026-04-11T05:32:27.858Z</time></trkpt><trkpt lat="40.9117217" lon="14.2502633"><ele>90.57142857142857</ele><time>2026-04-11T05:32:28.86Z</time></trkpt><trkpt lat="40.9117717" lon="14.2501933"><ele>90.42857142857143</ele><time>2026-04-11T05:32:29.86Z</time></trkpt><trkpt lat="40.9118183" lon="14.25012"><ele>90.28571428571429</ele><time>2026-04-11T05:32:30.858Z</time></trkpt><trkpt lat="40.9118667" lon="14.2500467"><ele>90.14285714285714</ele><time>2026-04-11T05:32:31.86Z</time></trkpt><trkpt lat="40.911915" lon="14.2499717"><ele>90.0</ele><time>2026-04-11T05:32:32.859Z</time></trkpt><trkpt lat="40.911965" lon="14.2498983"><ele>90.42857142857143</ele><time>2026-04-11T05:32:33.858Z</time></trkpt><trkpt lat="40.912015" lon="14.249825"><ele>90.85714285714286</ele><time>2026-04-11T05:32:34.86Z</time></trkpt><trkpt lat="40.9120633" lon="14.2497517"><ele>91.28571428571429</ele><time>2026-04-11T05:32:35.86Z</time></trkpt><trkpt lat="40.912115" lon="14.24968"><ele>91.71428571428572</ele><time>2026-04-11T05:32:36.859Z</time></trkpt><trkpt lat="40.9121667" lon="14.2496083"><ele>92.14285714285714</ele><time>2026-04-11T05:32:37.858Z</time></trkpt><trkpt lat="40.912215" lon="14.2495383"><ele>92.57142857142858</ele><time>2026-04-11T05:32:38.859Z</time></trkpt><trkpt lat="40.912265" lon="14.249465"><ele>93.0</ele><time>2026-04-11T05:32:39.858Z</time></trkpt><trkpt lat="40.91231" lon="14.2493917"><ele>93.00000000000001</ele><time>2026-04-11T05:32:40.859Z</time></trkpt><trkpt lat="40.9123567" lon="14.24932"><ele>93.0</ele><time>2026-04-11T05:32:41.86Z</time></trkpt><trkpt lat="40.9124" lon="14.249245"><ele>93.0</ele><time>2026-04-11T05:32:42.86Z</time></trkpt><trkpt lat="40.91245" lon="14.249175"><ele>93.0</ele><time>2026-04-11T05:32:43.862Z</time></trkpt><trkpt lat="40.9124983" lon="14.2491017"><ele>93.0</ele><time>2026-04-11T05:32:44.857Z</time></trkpt><trkpt lat="40.9125483" lon="14.24903"><ele>93.00000000000001</ele><time>2026-04-11T05:32:45.858Z</time></trkpt><trkpt lat="40.912595" lon="14.2489567"><ele>93.0</ele><time>2026-04-11T05:32:46.859Z</time></trkpt><trkpt lat="40.912645" lon="14.2488867"><ele>93.00000000000001</ele><time>2026-04-11T05:32:47.858Z</time></trkpt><trkpt lat="40.9126933" lon="14.2488133"><ele>93.0</ele><time>2026-04-11T05:32:48.86Z</time></trkpt><trkpt lat="40.9127433" lon="14.2487383"><ele>93.0</ele><time>2026-04-11T05:32:49.86Z</time></trkpt><trkpt lat="40.9127933" lon="14.2486683"><ele>93.0</ele><time>2026-04-11T05:32:50.86Z</time></trkpt><trkpt lat="40.91284" lon="14.2485933"><ele>93.0</ele><time>2026-04-11T05:32:51.858Z</time></trkpt><trkpt lat="40.9128883" lon="14.2485183"><ele>93.00000000000001</ele><time>2026-04-11T05:32:52.859Z</time></trkpt><trkpt lat="40.9129333" lon="14.2484467"><ele>93.0</ele><time>2026-04-11T05:32:53.86Z</time></trkpt><trkpt lat="40.91298" lon="14.248375"><ele>93.00000000000001</ele><time>2026-04-11T05:32:54.86Z</time></trkpt><trkpt lat="40.9130283" lon="14.2483033"><ele>93.0</ele><time>2026-04-11T05:32:55.86Z</time></trkpt><trkpt lat="40.913075" lon="14.2482317"><ele>93.0</ele><time>2026-04-11T05:32:56.858Z</time></trkpt><trkpt lat="40.9131167" lon="14.2481567"><ele>93.0</ele><time>2026-04-11T05:32:57.859Z</time></trkpt><trkpt lat="40.9131583" lon="14.24808"><ele>93.0</ele><time>2026-04-11T05:32:58.859Z</time></trkpt><trkpt lat="40.9132017" lon="14.2480033"><ele>93.00000000000001</ele><time>2026-04-11T05:32:59.858Z</time></trkpt><trkpt lat="40.91324" lon="14.247925"><ele>93.0</ele><time>2026-04-11T05:33:00.859Z</time></trkpt><trkpt lat="40.9132833" lon="14.24785"><ele>92.71428571428572</ele><time>2026-04-11T05:33:01.858Z</time></trkpt><trkpt lat="40.9133233" lon="14.24776"><ele>92.42857142857143</ele><time>2026-04-11T05:33:02.858Z</time></trkpt><trkpt lat="40.9133633" lon="14.24768"><ele>92.14285714285714</ele><time>2026-04-11T05:33:03.858Z</time></trkpt><trkpt lat="40.91341" lon="14.2476017"><ele>91.85714285714286</ele><time>2026-04-11T05:33:04.858Z</time></trkpt><trkpt lat="40.9134583" lon="14.2475317"><ele>91.57142857142857</ele><time>2026-04-11T05:33:05.863Z</time></trkpt><trkpt lat="40.9135117" lon="14.2474617"><ele>91.28571428571429</ele><time>2026-04-11T05:33:06.857Z</time></trkpt><trkpt lat="40.9135667" lon="14.2473983"><ele>91.0</ele><time>2026-04-11T05:33:07.858Z</time></trkpt><trkpt lat="40.9136217" lon="14.24733"><ele>91.0</ele><time>2026-04-11T05:33:08.864Z</time></trkpt><trkpt lat="40.9136833" lon="14.24727"><ele>91.0</ele><time>2026-04-11T05:33:09.858Z</time></trkpt><trkpt lat="40.9137383" lon="14.2472033"><ele>91.0</ele><time>2026-04-11T05:33:10.859Z</time></trkpt><trkpt lat="40.9137917" lon="14.2471433"><ele>91.0</ele><time>2026-04-11T05:33:11.861Z</time></trkpt><trkpt lat="40.9138517" lon="14.2470833"><ele>91.0</ele><time>2026-04-11T05:33:12.858Z</time></trkpt><trkpt lat="40.9139067" lon="14.2470167"><ele>91.0</ele><time>2026-04-11T05:33:13.86Z</time></trkpt><trkpt lat="40.9139617" lon="14.2469533"><ele>91.0</ele><time>2026-04-11T05:33:14.859Z</time></trkpt><trkpt lat="40.9140083" lon="14.246885"><ele>91.0</ele><time>2026-04-11T05:33:15.858Z</time></trkpt><trkpt lat="40.9140533" lon="14.2468183"><ele>91.0</ele><time>2026-04-11T05:33:16.858Z</time></trkpt><trkpt lat="40.9140983" lon="14.2467467"><ele>91.0</ele><time>2026-04-11T05:33:17.858Z</time></trkpt><trkpt lat="40.9141467" lon="14.2466733"><ele>91.0</ele><time>2026-04-11T05:33:18.859Z</time></trkpt><trkpt lat="40.9141933" lon="14.2465983"><ele>91.0</ele><time>2026-04-11T05:33:19.862Z</time></trkpt><trkpt lat="40.9142367" lon="14.2465283"><ele>91.0</ele><time>2026-04-11T05:33:20.862Z</time></trkpt><trkpt lat="40.91428" lon="14.246455"><ele>91.0</ele><time>2026-04-11T05:33:21.861Z</time></trkpt><trkpt lat="40.914325" lon="14.2463833"><ele>90.57142857142857</ele><time>2026-04-11T05:33:22.86Z</time></trkpt><trkpt lat="40.914365" lon="14.2463067"><ele>90.14285714285714</ele><time>2026-04-11T05:33:23.858Z</time></trkpt><trkpt lat="40.9144067" lon="14.2462317"><ele>89.71428571428572</ele><time>2026-04-11T05:33:24.858Z</time></trkpt><trkpt lat="40.9144433" lon="14.2461583"><ele>89.28571428571428</ele><time>2026-04-11T05:33:25.859Z</time></trkpt><trkpt lat="40.9144817" lon="14.2460867"><ele>88.85714285714286</ele><time>2026-04-11T05:33:26.858Z</time></trkpt><trkpt lat="40.9145183" lon="14.24601"><ele>88.42857142857143</ele><time>2026-04-11T05:33:27.86Z</time></trkpt><trkpt lat="40.914555" lon="14.2459333"><ele>88.0</ele><time>2026-04-11T05:33:28.86Z</time></trkpt><trkpt lat="40.9145917" lon="14.2458517"><ele>88.0</ele><time>2026-04-11T05:33:29.861Z</time></trkpt><trkpt lat="40.9146267" lon="14.2457733"><ele>88.0</ele><time>2026-04-11T05:33:30.86Z</time></trkpt><trkpt lat="40.9146617" lon="14.2456917"><ele>88.0</ele><time>2026-04-11T05:33:31.86Z</time></trkpt><trkpt lat="40.914695" lon="14.24561"><ele>88.0</ele><time>2026-04-11T05:33:32.858Z</time></trkpt><trkpt lat="40.9147283" lon="14.2455283"><ele>88.0</ele><time>2026-04-11T05:33:33.858Z</time></trkpt><trkpt lat="40.91476" lon="14.2454467"><ele>88.0</ele><time>2026-04-11T05:33:34.86Z</time></trkpt><trkpt lat="40.9147867" lon="14.245365"><ele>88.0</ele><time>2026-04-11T05:33:35.86Z</time></trkpt><trkpt lat="40.914815" lon="14.2452817"><ele>88.0</ele><time>2026-04-11T05:33:36.859Z</time></trkpt><trkpt lat="40.9148433" lon="14.2451967"><ele>88.0</ele><time>2026-04-11T05:33:37.859Z</time></trkpt><trkpt lat="40.9148683" lon="14.245115"><ele>88.0</ele><time>2026-04-11T05:33:38.858Z</time></trkpt><trkpt lat="40.91489" lon="14.24503"><ele>88.0</ele><time>2026-04-11T05:33:39.862Z</time></trkpt><trkpt lat="40.9149117" lon="14.244945"><ele>88.0</ele><time>2026-04-11T05:33:40.859Z</time></trkpt><trkpt lat="40.914935" lon="14.2448583"><ele>88.0</ele><time>2026-04-11T05:33:41.86Z</time></trkpt><trkpt lat="40.9149583" lon="14.24477"><ele>88.0</ele><time>2026-04-11T05:33:42.862Z</time></trkpt><trkpt lat="40.9149783" lon="14.2446817"><ele>88.0</ele><time>2026-04-11T05:33:43.858Z</time></trkpt><trkpt lat="40.9149983" lon="14.244595"><ele>88.0</ele><time>2026-04-11T05:33:44.861Z</time></trkpt><trkpt lat="40.9150167" lon="14.2445067"><ele>88.0</ele><time>2026-04-11T05:33:45.86Z</time></trkpt><trkpt lat="40.9150333" lon="14.2444167"><ele>88.0</ele><time>2026-04-11T05:33:46.861Z</time></trkpt><trkpt lat="40.9150483" lon="14.2443233"><ele>88.0</ele><time>2026-04-11T05:33:47.861Z</time></trkpt><trkpt lat="40.91506" lon="14.2442367"><ele>88.0</ele><time>2026-04-11T05:33:48.857Z</time></trkpt><trkpt lat="40.9150733" lon="14.2441483"><ele>88.0</ele><time>2026-04-11T05:33:49.862Z</time></trkpt><trkpt lat="40.9150867" lon="14.2440567"><ele>88.0</ele><time>2026-04-11T05:33:50.861Z</time></trkpt><trkpt lat="40.9150983" lon="14.2439667"><ele>88.0</ele><time>2026-04-11T05:33:51.861Z</time></trkpt><trkpt lat="40.9151067" lon="14.243875"><ele>88.0</ele><time>2026-04-11T05:33:52.862Z</time></trkpt><trkpt lat="40.915115" lon="14.243785"><ele>88.0</ele><time>2026-04-11T05:33:53.861Z</time></trkpt><trkpt lat="40.91512" lon="14.2436983"><ele>88.0</ele><time>2026-04-11T05:33:54.86Z</time></trkpt><trkpt lat="40.9151267" lon="14.2436083"><ele>88.0</ele><time>2026-04-11T05:33:55.861Z</time></trkpt><trkpt lat="40.9151267" lon="14.24352"><ele>88.0</ele><time>2026-04-11T05:33:56.862Z</time></trkpt><trkpt lat="40.91513" lon="14.24343"><ele>88.57142857142857</ele><time>2026-04-11T05:33:57.862Z</time></trkpt><trkpt lat="40.9151317" lon="14.2433367"><ele>89.14285714285714</ele><time>2026-04-11T05:33:58.859Z</time></trkpt><trkpt lat="40.9151317" lon="14.2432483"><ele>89.71428571428572</ele><time>2026-04-11T05:33:59.859Z</time></trkpt><trkpt lat="40.9151283" lon="14.243155"><ele>90.28571428571428</ele><time>2026-04-11T05:34:00.861Z</time></trkpt><trkpt lat="40.9151233" lon="14.24306"><ele>90.85714285714285</ele><time>2026-04-11T05:34:01.86Z</time></trkpt><trkpt lat="40.9151217" lon="14.242965"><ele>91.42857142857143</ele><time>2026-04-11T05:34:02.857Z</time></trkpt><trkpt lat="40.915115" lon="14.24287"><ele>92.0</ele><time>2026-04-11T05:34:03.859Z</time></trkpt><trkpt lat="40.915105" lon="14.2427783"><ele>92.0</ele><time>2026-04-11T05:34:04.858Z</time></trkpt><trkpt lat="40.9150967" lon="14.2426883"><ele>92.0</ele><time>2026-04-11T05:34:05.86Z</time></trkpt><trkpt lat="40.9150867" lon="14.2425967"><ele>92.0</ele><time>2026-04-11T05:34:06.858Z</time></trkpt><trkpt lat="40.915075" lon="14.2425067"><ele>92.0</ele><time>2026-04-11T05:34:07.859Z</time></trkpt><trkpt lat="40.9150633" lon="14.2424183"><ele>92.0</ele><time>2026-04-11T05:34:08.859Z</time></trkpt><trkpt lat="40.9150517" lon="14.24233"><ele>92.0</ele><time>2026-04-11T05:34:09.859Z</time></trkpt><trkpt lat="40.9150417" lon="14.2422467"><ele>92.0</ele><time>2026-04-11T05:34:10.859Z</time></trkpt><trkpt lat="40.91503" lon="14.2421533"><ele>92.0</ele><time>2026-04-11T05:34:11.861Z</time></trkpt><trkpt lat="40.9150183" lon="14.2420633"><ele>92.0</ele><time>2026-04-11T05:34:12.862Z</time></trkpt><trkpt lat="40.915005" lon="14.2419733"><ele>92.0</ele><time>2026-04-11T05:34:13.862Z</time></trkpt><trkpt lat="40.9149917" lon="14.24189"><ele>92.0</ele><time>2026-04-11T05:34:14.861Z</time></trkpt><trkpt lat="40.914975" lon="14.2418067"><ele>92.0</ele><time>2026-04-11T05:34:15.858Z</time></trkpt><trkpt lat="40.9149617" lon="14.2417233"><ele>92.0</ele><time>2026-04-11T05:34:16.86Z</time></trkpt><trkpt lat="40.9149267" lon="14.2415717"><ele>92.25</ele><time>2026-04-11T05:34:18.861Z</time></trkpt><trkpt lat="40.9148867" lon="14.2414267"><ele>92.5</ele><time>2026-04-11T05:34:20.862Z</time></trkpt><trkpt lat="40.9148517" lon="14.2412833"><ele>92.75</ele><time>2026-04-11T05:34:22.858Z</time></trkpt><trkpt lat="40.9148083" lon="14.2411467"><ele>93.0</ele><time>2026-04-11T05:34:24.859Z</time></trkpt><trkpt lat="40.91476" lon="14.2410117"><ele>93.0</ele><time>2026-04-11T05:34:26.859Z</time></trkpt><trkpt lat="40.9147133" lon="14.24088"><ele>93.0</ele><time>2026-04-11T05:34:28.859Z</time></trkpt><trkpt lat="40.9146567" lon="14.2407517"><ele>93.0</ele><time>2026-04-11T05:34:30.86Z</time></trkpt><trkpt lat="40.9145933" lon="14.2406267"><ele>93.0</ele><time>2026-04-11T05:34:32.86Z</time></trkpt><trkpt lat="40.9145283" lon="14.2405017"><ele>93.0</ele><time>2026-04-11T05:34:34.86Z</time></trkpt><trkpt lat="40.9144617" lon="14.240385"><ele>93.0</ele><time>2026-04-11T05:34:36.858Z</time></trkpt><trkpt lat="40.9143967" lon="14.24026"><ele>93.0</ele><time>2026-04-11T05:34:38.86Z</time></trkpt><trkpt lat="40.9143283" lon="14.2401383"><ele>93.0</ele><time>2026-04-11T05:34:40.859Z</time></trkpt><trkpt lat="40.9142617" lon="14.24002"><ele>93.25</ele><time>2026-04-11T05:34:42.858Z</time></trkpt><trkpt lat="40.9141967" lon="14.2399033"><ele>93.5</ele><time>2026-04-11T05:34:44.86Z</time></trkpt><trkpt lat="40.9141233" lon="14.239785"><ele>93.75</ele><time>2026-04-11T05:34:46.858Z</time></trkpt><trkpt lat="40.9140533" lon="14.239665"><ele>94.0</ele><time>2026-04-11T05:34:48.858Z</time></trkpt><trkpt lat="40.9139867" lon="14.239545"><ele>94.0</ele><time>2026-04-11T05:34:50.859Z</time></trkpt><trkpt lat="40.9139183" lon="14.2394333"><ele>94.0</ele><time>2026-04-11T05:34:52.86Z</time></trkpt><trkpt lat="40.9138483" lon="14.2393233"><ele>94.0</ele><time>2026-04-11T05:34:54.857Z</time></trkpt><trkpt lat="40.913775" lon="14.2392117"><ele>94.0</ele><time>2026-04-11T05:34:56.86Z</time></trkpt><trkpt lat="40.9137" lon="14.2390983"><ele>94.0</ele><time>2026-04-11T05:34:58.859Z</time></trkpt><trkpt lat="40.9136233" lon="14.2389817"><ele>94.5</ele><time>2026-04-11T05:35:00.859Z</time></trkpt><trkpt lat="40.913545" lon="14.23887"><ele>95.0</ele><time>2026-04-11T05:35:02.86Z</time></trkpt><trkpt lat="40.9134683" lon="14.2387567"><ele>95.5</ele><time>2026-04-11T05:35:04.861Z</time></trkpt><trkpt lat="40.91339" lon="14.2386483"><ele>96.0</ele><time>2026-04-11T05:35:06.859Z</time></trkpt><trkpt lat="40.9133183" lon="14.23854"><ele>96.4</ele><time>2026-04-11T05:35:08.859Z</time></trkpt><trkpt lat="40.9132417" lon="14.2384233"><ele>96.8</ele><time>2026-04-11T05:35:10.86Z</time></trkpt><trkpt lat="40.9131683" lon="14.2383033"><ele>97.2</ele><time>2026-04-11T05:35:12.862Z</time></trkpt><trkpt lat="40.9130817" lon="14.238185"><ele>97.60000000000001</ele><time>2026-04-11T05:35:14.858Z</time></trkpt><trkpt lat="40.9130367" lon="14.2381183"><ele>98.0</ele><time>2026-04-11T05:35:15.86Z</time></trkpt><trkpt lat="40.91299" lon="14.2380517"><ele>98.28571428571429</ele><time>2026-04-11T05:35:16.86Z</time></trkpt><trkpt lat="40.912945" lon="14.2379817"><ele>98.57142857142857</ele><time>2026-04-11T05:35:17.858Z</time></trkpt><trkpt lat="40.9129017" lon="14.2379117"><ele>98.85714285714286</ele><time>2026-04-11T05:35:18.859Z</time></trkpt><trkpt lat="40.9128567" lon="14.23784"><ele>99.14285714285714</ele><time>2026-04-11T05:35:19.86Z</time></trkpt><trkpt lat="40.9128083" lon="14.23777"><ele>99.42857142857143</ele><time>2026-04-11T05:35:20.859Z</time></trkpt><trkpt lat="40.91276" lon="14.2377017"><ele>99.71428571428572</ele><time>2026-04-11T05:35:21.859Z</time></trkpt><trkpt lat="40.9127083" lon="14.2376267"><ele>100.0</ele><time>2026-04-11T05:35:22.858Z</time></trkpt><trkpt lat="40.912655" lon="14.23755"><ele>100.00000000000001</ele><time>2026-04-11T05:35:23.861Z</time></trkpt><trkpt lat="40.9125983" lon="14.2374683"><ele>100.0</ele><time>2026-04-11T05:35:24.861Z</time></trkpt><trkpt lat="40.912545" lon="14.2373917"><ele>100.0</ele><time>2026-04-11T05:35:25.86Z</time></trkpt><trkpt lat="40.9124917" lon="14.2373133"><ele>100.0</ele><time>2026-04-11T05:35:26.862Z</time></trkpt><trkpt lat="40.9124383" lon="14.23724"><ele>100.00000000000001</ele><time>2026-04-11T05:35:27.859Z</time></trkpt><trkpt lat="40.91238" lon="14.2371583"><ele>100.0</ele><time>2026-04-11T05:35:28.86Z</time></trkpt><trkpt lat="40.912325" lon="14.23708"><ele>100.33333333333334</ele><time>2026-04-11T05:35:29.86Z</time></trkpt><trkpt lat="40.9122733" lon="14.2369983"><ele>100.66666666666667</ele><time>2026-04-11T05:35:30.859Z</time></trkpt><trkpt lat="40.9122233" lon="14.2369217"><ele>101.0</ele><time>2026-04-11T05:35:31.859Z</time></trkpt><trkpt lat="40.9121667" lon="14.2368483"><ele>101.33333333333334</ele><time>2026-04-11T05:35:32.859Z</time></trkpt><trkpt lat="40.9121117" lon="14.2367783"><ele>101.66666666666667</ele><time>2026-04-11T05:35:33.859Z</time></trkpt><trkpt lat="40.9120617" lon="14.236705"><ele>102.0</ele><time>2026-04-11T05:35:34.858Z</time></trkpt><trkpt lat="40.9120167" lon="14.2366283"><ele>102.0</ele><time>2026-04-11T05:35:35.859Z</time></trkpt><trkpt lat="40.9119733" lon="14.2365533"><ele>102.0</ele><time>2026-04-11T05:35:36.858Z</time></trkpt><trkpt lat="40.91193" lon="14.2364767"><ele>102.0</ele><time>2026-04-11T05:35:37.859Z</time></trkpt><trkpt lat="40.91189" lon="14.2364067"><ele>102.0</ele><time>2026-04-11T05:35:38.858Z</time></trkpt><trkpt lat="40.911845" lon="14.2363383"><ele>102.0</ele><time>2026-04-11T05:35:39.859Z</time></trkpt><trkpt lat="40.9118017" lon="14.23627"><ele>102.0</ele><time>2026-04-11T05:35:40.858Z</time></trkpt><trkpt lat="40.9117567" lon="14.2362067"><ele>102.0</ele><time>2026-04-11T05:35:41.859Z</time></trkpt><trkpt lat="40.9117117" lon="14.23614"><ele>102.0</ele><time>2026-04-11T05:35:42.858Z</time></trkpt><trkpt lat="40.9116717" lon="14.2360667"><ele>102.0</ele><time>2026-04-11T05:35:43.859Z</time></trkpt><trkpt lat="40.9116383" lon="14.2359917"><ele>102.0</ele><time>2026-04-11T05:35:44.859Z</time></trkpt><trkpt lat="40.9115933" lon="14.2358367"><ele>102.0</ele><time>2026-04-11T05:35:46.859Z</time></trkpt><trkpt lat="40.9115717" lon="14.2357567"><ele>102.0</ele><time>2026-04-11T05:35:47.859Z</time></trkpt><trkpt lat="40.9115033" lon="14.23563"><ele>102.0</ele><time>2026-04-11T05:35:49.86Z</time></trkpt><trkpt lat="40.91141" lon="14.2355383"><ele>102.0</ele><time>2026-04-11T05:35:51.858Z</time></trkpt><trkpt lat="40.9113567" lon="14.2354917"><ele>102.0</ele><time>2026-04-11T05:35:52.858Z</time></trkpt><trkpt lat="40.9112533" lon="14.2353967"><ele>102.0</ele><time>2026-04-11T05:35:54.86Z</time></trkpt><trkpt lat="40.9112033" lon="14.235345"><ele>102.0</ele><time>2026-04-11T05:35:55.859Z</time></trkpt><trkpt lat="40.911155" lon="14.2352867"><ele>102.0</ele><time>2026-04-11T05:35:56.859Z</time></trkpt><trkpt lat="40.91111" lon="14.2352233"><ele>102.0</ele><time>2026-04-11T05:35:57.859Z</time></trkpt><trkpt lat="40.9110683" lon="14.23516"><ele>102.0</ele><time>2026-04-11T05:35:58.86Z</time></trkpt><trkpt lat="40.911025" lon="14.2350983"><ele>102.0</ele><time>2026-04-11T05:35:59.859Z</time></trkpt><trkpt lat="40.9109817" lon="14.235035"><ele>102.0</ele><time>2026-04-11T05:36:00.859Z</time></trkpt><trkpt lat="40.9109383" lon="14.2349733"><ele>102.0</ele><time>2026-04-11T05:36:01.858Z</time></trkpt><trkpt lat="40.91086" lon="14.23485"><ele>102.0</ele><time>2026-04-11T05:36:03.86Z</time></trkpt><trkpt lat="40.91078" lon="14.2347233"><ele>102.0</ele><time>2026-04-11T05:36:05.858Z</time></trkpt><trkpt lat="40.9107067" lon="14.23459"><ele>102.19999999999999</ele><time>2026-04-11T05:36:07.86Z</time></trkpt><trkpt lat="40.91063" lon="14.234455"><ele>102.4</ele><time>2026-04-11T05:36:09.858Z</time></trkpt><trkpt lat="40.9105917" lon="14.2343883"><ele>102.6</ele><time>2026-04-11T05:36:10.86Z</time></trkpt><trkpt lat="40.9105233" lon="14.2342517"><ele>102.80000000000001</ele><time>2026-04-11T05:36:12.858Z</time></trkpt><trkpt lat="40.910485" lon="14.234185"><ele>103.0</ele><time>2026-04-11T05:36:13.86Z</time></trkpt><trkpt lat="40.9104167" lon="14.2340517"><ele>103.2</ele><time>2026-04-11T05:36:15.859Z</time></trkpt><trkpt lat="40.9103517" lon="14.23391"><ele>103.4</ele><time>2026-04-11T05:36:17.859Z</time></trkpt><trkpt lat="40.9102933" lon="14.2337683"><ele>103.60000000000001</ele><time>2026-04-11T05:36:19.86Z</time></trkpt><trkpt lat="40.91026" lon="14.2336967"><ele>103.80000000000001</ele><time>2026-04-11T05:36:20.858Z</time></trkpt><trkpt lat="40.9102083" lon="14.2335417"><ele>104.0</ele><time>2026-04-11T05:36:22.858Z</time></trkpt><trkpt lat="40.91018" lon="14.233465"><ele>104.0</ele><time>2026-04-11T05:36:23.859Z</time></trkpt><trkpt lat="40.9101283" lon="14.2333183"><ele>104.0</ele><time>2026-04-11T05:36:25.859Z</time></trkpt><trkpt lat="40.910105" lon="14.233235"><ele>104.0</ele><time>2026-04-11T05:36:26.857Z</time></trkpt><trkpt lat="40.9100817" lon="14.233155"><ele>104.0</ele><time>2026-04-11T05:36:27.859Z</time></trkpt><trkpt lat="40.9100383" lon="14.2329933"><ele>104.0</ele><time>2026-04-11T05:36:29.86Z</time></trkpt><trkpt lat="40.910005" lon="14.2328317"><ele>104.33333333333333</ele><time>2026-04-11T05:36:31.861Z</time></trkpt><trkpt lat="40.9099717" lon="14.2326717"><ele>104.66666666666666</ele><time>2026-04-11T05:36:33.858Z</time></trkpt><trkpt lat="40.9099533" lon="14.23259"><ele>105.0</ele><time>2026-04-11T05:36:34.859Z</time></trkpt><trkpt lat="40.90994" lon="14.2325067"><ele>105.33333333333334</ele><time>2026-04-11T05:36:35.86Z</time></trkpt><trkpt lat="40.909915" lon="14.2323533"><ele>105.66666666666667</ele><time>2026-04-11T05:36:37.86Z</time></trkpt><trkpt lat="40.9099" lon="14.23227"><ele>106.0</ele><time>2026-04-11T05:36:38.857Z</time></trkpt><trkpt lat="40.9098833" lon="14.2321033"><ele>106.00000000000001</ele><time>2026-04-11T05:36:40.861Z</time></trkpt><trkpt lat="40.9098783" lon="14.2319367"><ele>106.0</ele><time>2026-04-11T05:36:42.86Z</time></trkpt><trkpt lat="40.9098767" lon="14.2318517"><ele>106.0</ele><time>2026-04-11T05:36:43.86Z</time></trkpt><trkpt lat="40.909875" lon="14.2317617"><ele>106.0</ele><time>2026-04-11T05:36:44.86Z</time></trkpt><trkpt lat="40.9098733" lon="14.2316767"><ele>106.00000000000001</ele><time>2026-04-11T05:36:45.86Z</time></trkpt><trkpt lat="40.90987" lon="14.2315183"><ele>106.0</ele><time>2026-04-11T05:36:47.86Z</time></trkpt><trkpt lat="40.9098683" lon="14.2314333"><ele>106.28571428571429</ele><time>2026-04-11T05:36:48.86Z</time></trkpt><trkpt lat="40.90987" lon="14.2313467"><ele>106.57142857142857</ele><time>2026-04-11T05:36:49.86Z</time></trkpt><trkpt lat="40.9098717" lon="14.2312633"><ele>106.85714285714286</ele><time>2026-04-11T05:36:50.86Z</time></trkpt><trkpt lat="40.9098767" lon="14.2311767"><ele>107.14285714285714</ele><time>2026-04-11T05:36:51.86Z</time></trkpt><trkpt lat="40.909885" lon="14.2310917"><ele>107.42857142857142</ele><time>2026-04-11T05:36:52.857Z</time></trkpt><trkpt lat="40.9098933" lon="14.231005"><ele>107.71428571428571</ele><time>2026-04-11T05:36:53.862Z</time></trkpt><trkpt lat="40.9099033" lon="14.2309167"><ele>108.0</ele><time>2026-04-11T05:36:54.86Z</time></trkpt><trkpt lat="40.909915" lon="14.2308283"><ele>108.0</ele><time>2026-04-11T05:36:55.858Z</time></trkpt><trkpt lat="40.9099267" lon="14.23074"><ele>108.0</ele><time>2026-04-11T05:36:56.858Z</time></trkpt><trkpt lat="40.9099433" lon="14.2306517"><ele>108.0</ele><time>2026-04-11T05:36:57.862Z</time></trkpt><trkpt lat="40.9099583" lon="14.230565"><ele>108.0</ele><time>2026-04-11T05:36:58.858Z</time></trkpt><trkpt lat="40.9099767" lon="14.23048"><ele>108.0</ele><time>2026-04-11T05:36:59.859Z</time></trkpt><trkpt lat="40.909995" lon="14.230395"><ele>108.0</ele><time>2026-04-11T05:37:00.861Z</time></trkpt><trkpt lat="40.9100133" lon="14.2303083"><ele>108.0</ele><time>2026-04-11T05:37:01.862Z</time></trkpt><trkpt lat="40.9100317" lon="14.230225"><ele>108.0</ele><time>2026-04-11T05:37:02.862Z</time></trkpt><trkpt lat="40.910055" lon="14.23014"><ele>108.0</ele><time>2026-04-11T05:37:03.858Z</time></trkpt><trkpt lat="40.9100767" lon="14.230055"><ele>108.0</ele><time>2026-04-11T05:37:04.86Z</time></trkpt><trkpt lat="40.9101017" lon="14.22997"><ele>108.0</ele><time>2026-04-11T05:37:05.86Z</time></trkpt><trkpt lat="40.91013" lon="14.229885"><ele>108.0</ele><time>2026-04-11T05:37:06.858Z</time></trkpt><trkpt lat="40.9101567" lon="14.2298"><ele>108.0</ele><time>2026-04-11T05:37:07.858Z</time></trkpt><trkpt lat="40.9101833" lon="14.2297117"><ele>108.0</ele><time>2026-04-11T05:37:08.86Z</time></trkpt><trkpt lat="40.91021" lon="14.229625"><ele>108.0</ele><time>2026-04-11T05:37:09.86Z</time></trkpt><trkpt lat="40.91024" lon="14.2295383"><ele>108.0</ele><time>2026-04-11T05:37:10.859Z</time></trkpt><trkpt lat="40.9102683" lon="14.2294533"><ele>108.0</ele><time>2026-04-11T05:37:11.859Z</time></trkpt><trkpt lat="40.910295" lon="14.22937"><ele>108.0</ele><time>2026-04-11T05:37:12.86Z</time></trkpt><trkpt lat="40.910325" lon="14.229285"><ele>108.0</ele><time>2026-04-11T05:37:13.86Z</time></trkpt><trkpt lat="40.9103517" lon="14.2292017"><ele>108.0</ele><time>2026-04-11T05:37:14.858Z</time></trkpt><trkpt lat="40.9103817" lon="14.2291217"><ele>108.0</ele><time>2026-04-11T05:37:15.859Z</time></trkpt><trkpt lat="40.910415" lon="14.22904"><ele>108.14285714285714</ele><time>2026-04-11T05:37:16.859Z</time></trkpt><trkpt lat="40.9104467" lon="14.228955"><ele>108.28571428571428</ele><time>2026-04-11T05:37:17.859Z</time></trkpt><trkpt lat="40.9104783" lon="14.22887"><ele>108.42857142857143</ele><time>2026-04-11T05:37:18.86Z</time></trkpt><trkpt lat="40.9105067" lon="14.2287883"><ele>108.57142857142857</ele><time>2026-04-11T05:37:19.861Z</time></trkpt><trkpt lat="40.9105333" lon="14.2287067"><ele>108.71428571428572</ele><time>2026-04-11T05:37:20.86Z</time></trkpt><trkpt lat="40.910565" lon="14.2286267"><ele>108.85714285714286</ele><time>2026-04-11T05:37:21.858Z</time></trkpt><trkpt lat="40.9105967" lon="14.2285433"><ele>109.0</ele><time>2026-04-11T05:37:22.86Z</time></trkpt><trkpt lat="40.9106267" lon="14.2284617"><ele>109.0</ele><time>2026-04-11T05:37:23.86Z</time></trkpt><trkpt lat="40.91066" lon="14.2283817"><ele>109.0</ele><time>2026-04-11T05:37:24.86Z</time></trkpt><trkpt lat="40.9106933" lon="14.2283033"><ele>109.0</ele><time>2026-04-11T05:37:25.859Z</time></trkpt><trkpt lat="40.9107267" lon="14.2282217"><ele>109.0</ele><time>2026-04-11T05:37:26.86Z</time></trkpt><trkpt lat="40.9107583" lon="14.22814"><ele>109.0</ele><time>2026-04-11T05:37:27.858Z</time></trkpt><trkpt lat="40.9107933" lon="14.228055"><ele>109.0</ele><time>2026-04-11T05:37:28.86Z</time></trkpt><trkpt lat="40.910825" lon="14.2279717"><ele>109.0</ele><time>2026-04-11T05:37:29.86Z</time></trkpt><trkpt lat="40.9108567" lon="14.2278867"><ele>109.14285714285714</ele><time>2026-04-11T05:37:30.86Z</time></trkpt><trkpt lat="40.9108867" lon="14.227805"><ele>109.28571428571429</ele><time>2026-04-11T05:37:31.86Z</time></trkpt><trkpt lat="40.910915" lon="14.2277217"><ele>109.42857142857142</ele><time>2026-04-11T05:37:32.858Z</time></trkpt><trkpt lat="40.9109433" lon="14.227635"><ele>109.57142857142857</ele><time>2026-04-11T05:37:33.857Z</time></trkpt><trkpt lat="40.9109683" lon="14.227545"><ele>109.71428571428571</ele><time>2026-04-11T05:37:34.859Z</time></trkpt><trkpt lat="40.9110017" lon="14.2274533"><ele>109.85714285714285</ele><time>2026-04-11T05:37:35.86Z</time></trkpt><trkpt lat="40.9110333" lon="14.2273633"><ele>110.0</ele><time>2026-04-11T05:37:36.859Z</time></trkpt><trkpt lat="40.9110633" lon="14.2272767"><ele>109.99999999999999</ele><time>2026-04-11T05:37:37.86Z</time></trkpt><trkpt lat="40.911095" lon="14.2271967"><ele>110.0</ele><time>2026-04-11T05:37:38.858Z</time></trkpt><trkpt lat="40.9111317" lon="14.22711"><ele>110.0</ele><time>2026-04-11T05:37:39.858Z</time></trkpt><trkpt lat="40.91117" lon="14.2270267"><ele>110.0</ele><time>2026-04-11T05:37:40.86Z</time></trkpt><trkpt lat="40.9112033" lon="14.2269383"><ele>110.0</ele><time>2026-04-11T05:37:41.86Z</time></trkpt><trkpt lat="40.9112317" lon="14.2268533"><ele>109.99999999999999</ele><time>2026-04-11T05:37:42.86Z</time></trkpt><trkpt lat="40.9112767" lon="14.22677"><ele>110.0</ele><time>2026-04-11T05:37:43.859Z</time></trkpt><trkpt lat="40.911305" lon="14.2266867"><ele>109.99999999999999</ele><time>2026-04-11T05:37:44.86Z</time></trkpt><trkpt lat="40.9113333" lon="14.2266033"><ele>110.0</ele><time>2026-04-11T05:37:45.857Z</time></trkpt><trkpt lat="40.9113633" lon="14.2265167"><ele>110.0</ele><time>2026-04-11T05:37:46.859Z</time></trkpt><trkpt lat="40.911395" lon="14.22643"><ele>110.0</ele><time>2026-04-11T05:37:47.86Z</time></trkpt><trkpt lat="40.9114283" lon="14.226345"><ele>110.0</ele><time>2026-04-11T05:37:48.859Z</time></trkpt><trkpt lat="40.9114567" lon="14.2262583"><ele>109.99999999999999</ele><time>2026-04-11T05:37:49.86Z</time></trkpt><trkpt lat="40.9114883" lon="14.2261717"><ele>110.0</ele><time>2026-04-11T05:37:50.86Z</time></trkpt><trkpt lat="40.9115217" lon="14.2260867"><ele>110.14285714285714</ele><time>2026-04-11T05:37:51.858Z</time></trkpt><trkpt lat="40.9115583" lon="14.2260017"><ele>110.28571428571428</ele><time>2026-04-11T05:37:52.857Z</time></trkpt><trkpt lat="40.9115883" lon="14.2259167"><ele>110.42857142857142</ele><time>2026-04-11T05:37:53.858Z</time></trkpt><trkpt lat="40.911625" lon="14.2258367"><ele>110.57142857142857</ele><time>2026-04-11T05:37:54.86Z</time></trkpt><trkpt lat="40.9116567" lon="14.2257533"><ele>110.71428571428572</ele><time>2026-04-11T05:37:55.86Z</time></trkpt><trkpt lat="40.9116833" lon="14.22567"><ele>110.85714285714285</ele><time>2026-04-11T05:37:56.859Z</time></trkpt><trkpt lat="40.911715" lon="14.2255867"><ele>111.0</ele><time>2026-04-11T05:37:57.858Z</time></trkpt><trkpt lat="40.9117433" lon="14.2255"><ele>110.71428571428571</ele><time>2026-04-11T05:37:58.86Z</time></trkpt><trkpt lat="40.9117733" lon="14.225415"><ele>110.42857142857143</ele><time>2026-04-11T05:37:59.858Z</time></trkpt><trkpt lat="40.911805" lon="14.2253333"><ele>110.14285714285714</ele><time>2026-04-11T05:38:00.858Z</time></trkpt><trkpt lat="40.9118367" lon="14.22525"><ele>109.85714285714286</ele><time>2026-04-11T05:38:01.858Z</time></trkpt><trkpt lat="40.9118683" lon="14.2251633"><ele>109.57142857142858</ele><time>2026-04-11T05:38:02.86Z</time></trkpt><trkpt lat="40.9118967" lon="14.2250767"><ele>109.28571428571429</ele><time>2026-04-11T05:38:03.858Z</time></trkpt><trkpt lat="40.9119267" lon="14.2249917"><ele>109.0</ele><time>2026-04-11T05:38:04.859Z</time></trkpt><trkpt lat="40.9119567" lon="14.2249117"><ele>109.0</ele><time>2026-04-11T05:38:05.86Z</time></trkpt><trkpt lat="40.9119833" lon="14.2248233"><ele>109.0</ele><time>2026-04-11T05:38:06.859Z</time></trkpt><trkpt lat="40.9120117" lon="14.2247383"><ele>109.0</ele><time>2026-04-11T05:38:07.86Z</time></trkpt><trkpt lat="40.9120433" lon="14.2246517"><ele>109.0</ele><time>2026-04-11T05:38:08.86Z</time></trkpt><trkpt lat="40.9120783" lon="14.2245683"><ele>109.0</ele><time>2026-04-11T05:38:09.859Z</time></trkpt><trkpt lat="40.9121167" lon="14.2244817"><ele>109.0</ele><time>2026-04-11T05:38:10.86Z</time></trkpt><trkpt lat="40.9121517" lon="14.2243967"><ele>109.0</ele><time>2026-04-11T05:38:11.86Z</time></trkpt><trkpt lat="40.91218" lon="14.2243083"><ele>109.14285714285714</ele><time>2026-04-11T05:38:12.858Z</time></trkpt><trkpt lat="40.9122067" lon="14.22422"><ele>109.28571428571429</ele><time>2026-04-11T05:38:13.86Z</time></trkpt><trkpt lat="40.9122317" lon="14.2241317"><ele>109.42857142857142</ele><time>2026-04-11T05:38:14.859Z</time></trkpt><trkpt lat="40.9122633" lon="14.2240433"><ele>109.57142857142857</ele><time>2026-04-11T05:38:15.858Z</time></trkpt><trkpt lat="40.912295" lon="14.223955"><ele>109.71428571428571</ele><time>2026-04-11T05:38:16.86Z</time></trkpt><trkpt lat="40.9123267" lon="14.2238683"><ele>109.85714285714285</ele><time>2026-04-11T05:38:17.858Z</time></trkpt><trkpt lat="40.912355" lon="14.2237767"><ele>110.0</ele><time>2026-04-11T05:38:18.86Z</time></trkpt><trkpt lat="40.9123883" lon="14.2236917"><ele>109.99999999999999</ele><time>2026-04-11T05:38:19.86Z</time></trkpt><trkpt lat="40.9124233" lon="14.2236117"><ele>110.0</ele><time>2026-04-11T05:38:20.859Z</time></trkpt><trkpt lat="40.9124617" lon="14.2235317"><ele>110.0</ele><time>2026-04-11T05:38:21.86Z</time></trkpt><trkpt lat="40.9125017" lon="14.2234483"><ele>110.0</ele><time>2026-04-11T05:38:22.86Z</time></trkpt><trkpt lat="40.91254" lon="14.2233633"><ele>110.0</ele><time>2026-04-11T05:38:23.86Z</time></trkpt><trkpt lat="40.9125733" lon="14.2232817"><ele>109.99999999999999</ele><time>2026-04-11T05:38:24.86Z</time></trkpt><trkpt lat="40.9126067" lon="14.2232033"><ele>110.0</ele><time>2026-04-11T05:38:25.86Z</time></trkpt><trkpt lat="40.912625" lon="14.223115"><ele>109.99999999999999</ele><time>2026-04-11T05:38:26.86Z</time></trkpt><trkpt lat="40.912665" lon="14.22304"><ele>110.0</ele><time>2026-04-11T05:38:27.86Z</time></trkpt><trkpt lat="40.9126983" lon="14.2229617"><ele>110.0</ele><time>2026-04-11T05:38:28.86Z</time></trkpt><trkpt lat="40.9127317" lon="14.2228783"><ele>110.0</ele><time>2026-04-11T05:38:29.86Z</time></trkpt><trkpt lat="40.9127617" lon="14.2227917"><ele>110.0</ele><time>2026-04-11T05:38:30.86Z</time></trkpt><trkpt lat="40.912795" lon="14.222705"><ele>109.99999999999999</ele><time>2026-04-11T05:38:31.86Z</time></trkpt><trkpt lat="40.91283" lon="14.2226183"><ele>110.0</ele><time>2026-04-11T05:38:32.859Z</time></trkpt><trkpt lat="40.912865" lon="14.2225333"><ele>109.99999999999999</ele><time>2026-04-11T05:38:33.858Z</time></trkpt><trkpt lat="40.9128983" lon="14.222445"><ele>110.0</ele><time>2026-04-11T05:38:34.859Z</time></trkpt><trkpt lat="40.912935" lon="14.2223567"><ele>110.0</ele><time>2026-04-11T05:38:35.86Z</time></trkpt><trkpt lat="40.91297" lon="14.2222683"><ele>110.0</ele><time>2026-04-11T05:38:36.859Z</time></trkpt><trkpt lat="40.9129967" lon="14.2221783"><ele>110.0</ele><time>2026-04-11T05:38:37.859Z</time></trkpt><trkpt lat="40.913025" lon="14.2220883"><ele>109.99999999999999</ele><time>2026-04-11T05:38:38.86Z</time></trkpt><trkpt lat="40.913055" lon="14.222"><ele>110.0</ele><time>2026-04-11T05:38:39.86Z</time></trkpt><trkpt lat="40.9130867" lon="14.2219117"><ele>109.85714285714285</ele><time>2026-04-11T05:38:40.859Z</time></trkpt><trkpt lat="40.9131217" lon="14.2218267"><ele>109.71428571428571</ele><time>2026-04-11T05:38:41.86Z</time></trkpt><trkpt lat="40.91315" lon="14.22174"><ele>109.57142857142857</ele><time>2026-04-11T05:38:42.858Z</time></trkpt><trkpt lat="40.91318" lon="14.2216533"><ele>109.42857142857142</ele><time>2026-04-11T05:38:43.859Z</time></trkpt><trkpt lat="40.9132117" lon="14.22157"><ele>109.28571428571429</ele><time>2026-04-11T05:38:44.86Z</time></trkpt><trkpt lat="40.9132433" lon="14.2214867"><ele>109.14285714285714</ele><time>2026-04-11T05:38:45.858Z</time></trkpt><trkpt lat="40.9132767" lon="14.2213967"><ele>109.0</ele><time>2026-04-11T05:38:46.859Z</time></trkpt><trkpt lat="40.9133067" lon="14.2213083"><ele>109.14285714285714</ele><time>2026-04-11T05:38:47.86Z</time></trkpt><trkpt lat="40.913335" lon="14.2212233"><ele>109.28571428571429</ele><time>2026-04-11T05:38:48.859Z</time></trkpt><trkpt lat="40.9133683" lon="14.22114"><ele>109.42857142857142</ele><time>2026-04-11T05:38:49.861Z</time></trkpt><trkpt lat="40.9133983" lon="14.2210533"><ele>109.57142857142857</ele><time>2026-04-11T05:38:50.86Z</time></trkpt><trkpt lat="40.9134317" lon="14.2209683"><ele>109.71428571428571</ele><time>2026-04-11T05:38:51.86Z</time></trkpt><trkpt lat="40.9134633" lon="14.220885"><ele>109.85714285714285</ele><time>2026-04-11T05:38:52.859Z</time></trkpt><trkpt lat="40.9134967" lon="14.2208"><ele>110.0</ele><time>2026-04-11T05:38:53.86Z</time></trkpt><trkpt lat="40.9135267" lon="14.22071"><ele>109.99999999999999</ele><time>2026-04-11T05:38:54.86Z</time></trkpt><trkpt lat="40.9135583" lon="14.2206217"><ele>110.0</ele><time>2026-04-11T05:38:55.858Z</time></trkpt><trkpt lat="40.9135933" lon="14.2205333"><ele>110.0</ele><time>2026-04-11T05:38:56.86Z</time></trkpt><trkpt lat="40.9136267" lon="14.2204417"><ele>110.0</ele><time>2026-04-11T05:38:57.86Z</time></trkpt><trkpt lat="40.91366" lon="14.2203517"><ele>109.99999999999999</ele><time>2026-04-11T05:38:58.86Z</time></trkpt><trkpt lat="40.9136917" lon="14.22026"><ele>110.0</ele><time>2026-04-11T05:38:59.859Z</time></trkpt><trkpt lat="40.9137267" lon="14.22017"><ele>109.99999999999999</ele><time>2026-04-11T05:39:00.859Z</time></trkpt><trkpt lat="40.9137617" lon="14.22008"><ele>110.0</ele><time>2026-04-11T05:39:01.859Z</time></trkpt><trkpt lat="40.913795" lon="14.21999"><ele>110.0</ele><time>2026-04-11T05:39:02.859Z</time></trkpt><trkpt lat="40.9138333" lon="14.2199"><ele>110.0</ele><time>2026-04-11T05:39:03.858Z</time></trkpt><trkpt lat="40.9138683" lon="14.2198117"><ele>109.99999999999999</ele><time>2026-04-11T05:39:04.859Z</time></trkpt><trkpt lat="40.9139033" lon="14.2197233"><ele>110.0</ele><time>2026-04-11T05:39:05.859Z</time></trkpt><trkpt lat="40.913935" lon="14.21963"><ele>109.83333333333333</ele><time>2026-04-11T05:39:06.861Z</time></trkpt><trkpt lat="40.9139667" lon="14.2195383"><ele>109.66666666666666</ele><time>2026-04-11T05:39:07.86Z</time></trkpt><trkpt lat="40.914" lon="14.2194517"><ele>109.5</ele><time>2026-04-11T05:39:08.86Z</time></trkpt><trkpt lat="40.9140317" lon="14.2193633"><ele>109.33333333333334</ele><time>2026-04-11T05:39:09.86Z</time></trkpt><trkpt lat="40.9140583" lon="14.2192717"><ele>109.16666666666667</ele><time>2026-04-11T05:39:10.86Z</time></trkpt><trkpt lat="40.9140933" lon="14.2191817"><ele>109.0</ele><time>2026-04-11T05:39:11.86Z</time></trkpt><trkpt lat="40.9141283" lon="14.2190917"><ele>109.0</ele><time>2026-04-11T05:39:12.86Z</time></trkpt><trkpt lat="40.9141583" lon="14.2190017"><ele>109.0</ele><time>2026-04-11T05:39:13.859Z</time></trkpt><trkpt lat="40.9141917" lon="14.2189117"><ele>109.0</ele><time>2026-04-11T05:39:14.859Z</time></trkpt><trkpt lat="40.914225" lon="14.2188217"><ele>109.0</ele><time>2026-04-11T05:39:15.859Z</time></trkpt><trkpt lat="40.9142583" lon="14.2187333"><ele>109.0</ele><time>2026-04-11T05:39:16.86Z</time></trkpt><trkpt lat="40.9142933" lon="14.2186467"><ele>109.0</ele><time>2026-04-11T05:39:17.859Z</time></trkpt><trkpt lat="40.9143267" lon="14.21856"><ele>109.0</ele><time>2026-04-11T05:39:18.859Z</time></trkpt><trkpt lat="40.9143633" lon="14.2184733"><ele>108.83333333333334</ele><time>2026-04-11T05:39:19.86Z</time></trkpt><trkpt lat="40.9143933" lon="14.2183867"><ele>108.66666666666667</ele><time>2026-04-11T05:39:20.86Z</time></trkpt><trkpt lat="40.9144267" lon="14.2183067"><ele>108.5</ele><time>2026-04-11T05:39:21.86Z</time></trkpt><trkpt lat="40.9144683" lon="14.2182417"><ele>108.33333333333334</ele><time>2026-04-11T05:39:22.859Z</time></trkpt><trkpt lat="40.9145533" lon="14.218145"><ele>108.16666666666667</ele><time>2026-04-11T05:39:24.859Z</time></trkpt><trkpt lat="40.9146367" lon="14.218045"><ele>108.0</ele><time>2026-04-11T05:39:26.859Z</time></trkpt><trkpt lat="40.9147033" lon="14.217915"><ele>108.0</ele><time>2026-04-11T05:39:28.859Z</time></trkpt><trkpt lat="40.91474" lon="14.21776"><ele>108.0</ele><time>2026-04-11T05:39:30.86Z</time></trkpt><trkpt lat="40.9147567" lon="14.2176783"><ele>108.0</ele><time>2026-04-11T05:39:31.86Z</time></trkpt><trkpt lat="40.914775" lon="14.21751"><ele>108.0</ele><time>2026-04-11T05:39:33.858Z</time></trkpt><trkpt lat="40.9147867" lon="14.217425"><ele>108.0</ele><time>2026-04-11T05:39:34.861Z</time></trkpt><trkpt lat="40.9148017" lon="14.2173433"><ele>108.0</ele><time>2026-04-11T05:39:35.861Z</time></trkpt><trkpt lat="40.914825" lon="14.2172617"><ele>108.5</ele><time>2026-04-11T05:39:36.861Z</time></trkpt><trkpt lat="40.9148483" lon="14.2171783"><ele>109.0</ele><time>2026-04-11T05:39:37.86Z</time></trkpt><trkpt lat="40.914875" lon="14.2171017"><ele>109.5</ele><time>2026-04-11T05:39:38.86Z</time></trkpt><trkpt lat="40.9149" lon="14.2170233"><ele>110.0</ele><time>2026-04-11T05:39:39.862Z</time></trkpt><trkpt lat="40.9149533" lon="14.21687"><ele>110.5</ele><time>2026-04-11T05:39:41.861Z</time></trkpt><trkpt lat="40.914985" lon="14.216795"><ele>111.0</ele><time>2026-04-11T05:39:42.861Z</time></trkpt><trkpt lat="40.915015" lon="14.2167183"><ele>111.0</ele><time>2026-04-11T05:39:43.861Z</time></trkpt><trkpt lat="40.9150417" lon="14.21664"><ele>111.0</ele><time>2026-04-11T05:39:44.86Z</time></trkpt><trkpt lat="40.9150717" lon="14.21656"><ele>111.0</ele><time>2026-04-11T05:39:45.86Z</time></trkpt><trkpt lat="40.9151017" lon="14.2164783"><ele>111.0</ele><time>2026-04-11T05:39:46.86Z</time></trkpt><trkpt lat="40.91513" lon="14.2164"><ele>111.0</ele><time>2026-04-11T05:39:47.86Z</time></trkpt><trkpt lat="40.9151617" lon="14.21632"><ele>111.0</ele><time>2026-04-11T05:39:48.86Z</time></trkpt><trkpt lat="40.91519" lon="14.21624"><ele>111.0</ele><time>2026-04-11T05:39:49.861Z</time></trkpt><trkpt lat="40.91522" lon="14.2161617"><ele>111.14285714285714</ele><time>2026-04-11T05:39:50.86Z</time></trkpt><trkpt lat="40.91525" lon="14.2160817"><ele>111.28571428571429</ele><time>2026-04-11T05:39:51.86Z</time></trkpt><trkpt lat="40.91528" lon="14.2160033"><ele>111.42857142857143</ele><time>2026-04-11T05:39:52.861Z</time></trkpt><trkpt lat="40.9153083" lon="14.215925"><ele>111.57142857142857</ele><time>2026-04-11T05:39:53.859Z</time></trkpt><trkpt lat="40.9153367" lon="14.2158467"><ele>111.71428571428572</ele><time>2026-04-11T05:39:54.859Z</time></trkpt><trkpt lat="40.9153667" lon="14.21577"><ele>111.85714285714286</ele><time>2026-04-11T05:39:55.86Z</time></trkpt><trkpt lat="40.9153983" lon="14.2156933"><ele>112.0</ele><time>2026-04-11T05:39:56.86Z</time></trkpt><trkpt lat="40.9154267" lon="14.215615"><ele>111.71428571428571</ele><time>2026-04-11T05:39:57.857Z</time></trkpt><trkpt lat="40.915455" lon="14.2155333"><ele>111.42857142857143</ele><time>2026-04-11T05:39:58.859Z</time></trkpt><trkpt lat="40.9154833" lon="14.2154483"><ele>111.14285714285714</ele><time>2026-04-11T05:39:59.86Z</time></trkpt><trkpt lat="40.9155117" lon="14.215365"><ele>110.85714285714286</ele><time>2026-04-11T05:40:00.861Z</time></trkpt><trkpt lat="40.9155433" lon="14.215285"><ele>110.57142857142857</ele><time>2026-04-11T05:40:01.86Z</time></trkpt><trkpt lat="40.9155733" lon="14.2152017"><ele>110.28571428571428</ele><time>2026-04-11T05:40:02.861Z</time></trkpt><trkpt lat="40.9156067" lon="14.21512"><ele>110.0</ele><time>2026-04-11T05:40:03.86Z</time></trkpt><trkpt lat="40.915635" lon="14.2150417"><ele>109.99999999999999</ele><time>2026-04-11T05:40:04.86Z</time></trkpt><trkpt lat="40.9156633" lon="14.2149567"><ele>110.0</ele><time>2026-04-11T05:40:05.859Z</time></trkpt><trkpt lat="40.9157" lon="14.214875"><ele>110.0</ele><time>2026-04-11T05:40:06.861Z</time></trkpt><trkpt lat="40.91573" lon="14.2147917"><ele>110.0</ele><time>2026-04-11T05:40:07.863Z</time></trkpt><trkpt lat="40.91576" lon="14.2147117"><ele>110.0</ele><time>2026-04-11T05:40:08.86Z</time></trkpt><trkpt lat="40.9157917" lon="14.2146317"><ele>109.99999999999999</ele><time>2026-04-11T05:40:09.859Z</time></trkpt><trkpt lat="40.9158217" lon="14.2145483"><ele>110.0</ele><time>2026-04-11T05:40:10.86Z</time></trkpt><trkpt lat="40.915855" lon="14.2144683"><ele>109.99999999999999</ele><time>2026-04-11T05:40:11.86Z</time></trkpt><trkpt lat="40.9158867" lon="14.21439"><ele>110.0</ele><time>2026-04-11T05:40:12.86Z</time></trkpt><trkpt lat="40.9159183" lon="14.214305"><ele>110.0</ele><time>2026-04-11T05:40:13.861Z</time></trkpt><trkpt lat="40.9159467" lon="14.21422"><ele>110.0</ele><time>2026-04-11T05:40:14.86Z</time></trkpt><trkpt lat="40.9159767" lon="14.2141367"><ele>110.0</ele><time>2026-04-11T05:40:15.86Z</time></trkpt><trkpt lat="40.9160083" lon="14.214055"><ele>109.99999999999999</ele><time>2026-04-11T05:40:16.86Z</time></trkpt><trkpt lat="40.91604" lon="14.2139717"><ele>110.0</ele><time>2026-04-11T05:40:17.86Z</time></trkpt><trkpt lat="40.9160733" lon="14.21389"><ele>109.99999999999999</ele><time>2026-04-11T05:40:18.86Z</time></trkpt><trkpt lat="40.9161033" lon="14.2138083"><ele>110.0</ele><time>2026-04-11T05:40:19.86Z</time></trkpt><trkpt lat="40.9161317" lon="14.2137217"><ele>110.0</ele><time>2026-04-11T05:40:20.86Z</time></trkpt><trkpt lat="40.91616" lon="14.2136383"><ele>110.0</ele><time>2026-04-11T05:40:21.86Z</time></trkpt><trkpt lat="40.9161867" lon="14.2135517"><ele>110.0</ele><time>2026-04-11T05:40:22.86Z</time></trkpt><trkpt lat="40.91621" lon="14.2134617"><ele>109.99999999999999</ele><time>2026-04-11T05:40:23.86Z</time></trkpt><trkpt lat="40.916235" lon="14.2133733"><ele>110.0</ele><time>2026-04-11T05:40:24.86Z</time></trkpt><trkpt lat="40.9162583" lon="14.2132833"><ele>109.99999999999999</ele><time>2026-04-11T05:40:25.86Z</time></trkpt><trkpt lat="40.9162783" lon="14.213195"><ele>110.0</ele><time>2026-04-11T05:40:26.86Z</time></trkpt><trkpt lat="40.9162933" lon="14.2131067"><ele>110.0</ele><time>2026-04-11T05:40:27.86Z</time></trkpt><trkpt lat="40.9163117" lon="14.2130183"><ele>110.0</ele><time>2026-04-11T05:40:28.86Z</time></trkpt><trkpt lat="40.9163233" lon="14.2129283"><ele>110.0</ele><time>2026-04-11T05:40:29.859Z</time></trkpt><trkpt lat="40.9163333" lon="14.2128367"><ele>109.99999999999999</ele><time>2026-04-11T05:40:30.86Z</time></trkpt><trkpt lat="40.9163433" lon="14.212745"><ele>110.0</ele><time>2026-04-11T05:40:31.86Z</time></trkpt><trkpt lat="40.9163517" lon="14.2126567"><ele>109.99999999999999</ele><time>2026-04-11T05:40:32.861Z</time></trkpt><trkpt lat="40.9163633" lon="14.21257"><ele>110.0</ele><time>2026-04-11T05:40:33.86Z</time></trkpt><trkpt lat="40.9163783" lon="14.212405"><ele>110.0</ele><time>2026-04-11T05:40:35.86Z</time></trkpt><trkpt lat="40.9163917" lon="14.2122383"><ele>110.0</ele><time>2026-04-11T05:40:37.86Z</time></trkpt><trkpt lat="40.916395" lon="14.2121533"><ele>109.99999999999999</ele><time>2026-04-11T05:40:38.859Z</time></trkpt><trkpt lat="40.9163967" lon="14.2120667"><ele>110.0</ele><time>2026-04-11T05:40:39.859Z</time></trkpt><trkpt lat="40.9163983" lon="14.2119767"><ele>110.14285714285714</ele><time>2026-04-11T05:40:40.86Z</time></trkpt><trkpt lat="40.9163983" lon="14.2118883"><ele>110.28571428571428</ele><time>2026-04-11T05:40:41.859Z</time></trkpt><trkpt lat="40.9164" lon="14.2118"><ele>110.42857142857142</ele><time>2026-04-11T05:40:42.86Z</time></trkpt><trkpt lat="40.9164067" lon="14.2117133"><ele>110.57142857142857</ele><time>2026-04-11T05:40:43.86Z</time></trkpt><trkpt lat="40.9164083" lon="14.2116267"><ele>110.71428571428572</ele><time>2026-04-11T05:40:44.859Z</time></trkpt><trkpt lat="40.9164117" lon="14.21154"><ele>110.85714285714285</ele><time>2026-04-11T05:40:45.859Z</time></trkpt><trkpt lat="40.916415" lon="14.2114517"><ele>111.0</ele><time>2026-04-11T05:40:46.86Z</time></trkpt><trkpt lat="40.9164217" lon="14.2113667"><ele>111.0</ele><time>2026-04-11T05:40:47.86Z</time></trkpt><trkpt lat="40.9164283" lon="14.2112817"><ele>111.0</ele><time>2026-04-11T05:40:48.86Z</time></trkpt><trkpt lat="40.9164367" lon="14.2111967"><ele>111.0</ele><time>2026-04-11T05:40:49.859Z</time></trkpt><trkpt lat="40.9164483" lon="14.2111083"><ele>111.0</ele><time>2026-04-11T05:40:50.86Z</time></trkpt><trkpt lat="40.9164583" lon="14.21102"><ele>111.0</ele><time>2026-04-11T05:40:51.859Z</time></trkpt><trkpt lat="40.91647" lon="14.21093"><ele>111.0</ele><time>2026-04-11T05:40:52.858Z</time></trkpt><trkpt lat="40.9164767" lon="14.21084"><ele>111.0</ele><time>2026-04-11T05:40:53.86Z</time></trkpt><trkpt lat="40.9164833" lon="14.2107517"><ele>111.0</ele><time>2026-04-11T05:40:54.86Z</time></trkpt><trkpt lat="40.91649" lon="14.2106583"><ele>111.0</ele><time>2026-04-11T05:40:55.861Z</time></trkpt><trkpt lat="40.9164933" lon="14.2105667"><ele>111.0</ele><time>2026-04-11T05:40:56.859Z</time></trkpt><trkpt lat="40.9164967" lon="14.2104817"><ele>111.0</ele><time>2026-04-11T05:40:57.86Z</time></trkpt><trkpt lat="40.9165033" lon="14.2103933"><ele>111.0</ele><time>2026-04-11T05:40:58.86Z</time></trkpt><trkpt lat="40.9165083" lon="14.2103017"><ele>111.0</ele><time>2026-04-11T05:40:59.86Z</time></trkpt><trkpt lat="40.916515" lon="14.21021"><ele>111.0</ele><time>2026-04-11T05:41:00.86Z</time></trkpt><trkpt lat="40.9165183" lon="14.2101183"><ele>111.0</ele><time>2026-04-11T05:41:01.86Z</time></trkpt><trkpt lat="40.9165233" lon="14.2100283"><ele>111.0</ele><time>2026-04-11T05:41:02.861Z</time></trkpt><trkpt lat="40.91653" lon="14.2099383"><ele>111.0</ele><time>2026-04-11T05:41:03.857Z</time></trkpt><trkpt lat="40.91654" lon="14.2098517"><ele>111.0</ele><time>2026-04-11T05:41:04.86Z</time></trkpt><trkpt lat="40.9165483" lon="14.2097633"><ele>111.0</ele><time>2026-04-11T05:41:05.859Z</time></trkpt><trkpt lat="40.916555" lon="14.2096783"><ele>111.0</ele><time>2026-04-11T05:41:06.86Z</time></trkpt><trkpt lat="40.9165617" lon="14.20959"><ele>111.0</ele><time>2026-04-11T05:41:07.861Z</time></trkpt><trkpt lat="40.9165683" lon="14.2095"><ele>111.0</ele><time>2026-04-11T05:41:08.859Z</time></trkpt><trkpt lat="40.916575" lon="14.2094117"><ele>111.0</ele><time>2026-04-11T05:41:09.858Z</time></trkpt><trkpt lat="40.916585" lon="14.2093217"><ele>111.0</ele><time>2026-04-11T05:41:10.86Z</time></trkpt><trkpt lat="40.91659" lon="14.20923"><ele>111.0</ele><time>2026-04-11T05:41:11.86Z</time></trkpt><trkpt lat="40.9165917" lon="14.209125"><ele>111.0</ele><time>2026-04-11T05:41:12.86Z</time></trkpt><trkpt lat="40.9165933" lon="14.2090333"><ele>111.0</ele><time>2026-04-11T05:41:13.859Z</time></trkpt><trkpt lat="40.9165967" lon="14.2089433"><ele>111.0</ele><time>2026-04-11T05:41:14.86Z</time></trkpt><trkpt lat="40.91661" lon="14.20885"><ele>111.0</ele><time>2026-04-11T05:41:15.86Z</time></trkpt><trkpt lat="40.9166217" lon="14.2087567"><ele>111.0</ele><time>2026-04-11T05:41:16.86Z</time></trkpt><trkpt lat="40.9166283" lon="14.2086567"><ele>111.0</ele><time>2026-04-11T05:41:17.86Z</time></trkpt><trkpt lat="40.9166317" lon="14.2085633"><ele>111.0</ele><time>2026-04-11T05:41:18.86Z</time></trkpt><trkpt lat="40.9166383" lon="14.2084717"><ele>111.0</ele><time>2026-04-11T05:41:19.86Z</time></trkpt><trkpt lat="40.9166467" lon="14.2083783"><ele>111.0</ele><time>2026-04-11T05:41:20.859Z</time></trkpt><trkpt lat="40.9166517" lon="14.208285"><ele>111.0</ele><time>2026-04-11T05:41:21.86Z</time></trkpt><trkpt lat="40.9166583" lon="14.2081917"><ele>111.28571428571428</ele><time>2026-04-11T05:41:22.861Z</time></trkpt><trkpt lat="40.9166617" lon="14.2081"><ele>111.57142857142858</ele><time>2026-04-11T05:41:23.861Z</time></trkpt><trkpt lat="40.916665" lon="14.208005"><ele>111.85714285714286</ele><time>2026-04-11T05:41:24.86Z</time></trkpt><trkpt lat="40.9166717" lon="14.2079133"><ele>112.14285714285714</ele><time>2026-04-11T05:41:25.86Z</time></trkpt><trkpt lat="40.9166767" lon="14.2078233"><ele>112.42857142857142</ele><time>2026-04-11T05:41:26.859Z</time></trkpt><trkpt lat="40.9166833" lon="14.2077333"><ele>112.71428571428572</ele><time>2026-04-11T05:41:27.86Z</time></trkpt><trkpt lat="40.9166883" lon="14.207645"><ele>113.0</ele><time>2026-04-11T05:41:28.86Z</time></trkpt><trkpt lat="40.916695" lon="14.207555"><ele>113.0</ele><time>2026-04-11T05:41:29.86Z</time></trkpt><trkpt lat="40.9167" lon="14.2074667"><ele>113.0</ele><time>2026-04-11T05:41:30.859Z</time></trkpt><trkpt lat="40.9167067" lon="14.2073733"><ele>113.0</ele><time>2026-04-11T05:41:31.86Z</time></trkpt><trkpt lat="40.91671" lon="14.2072833"><ele>113.0</ele><time>2026-04-11T05:41:32.861Z</time></trkpt><trkpt lat="40.9167167" lon="14.2071917"><ele>113.0</ele><time>2026-04-11T05:41:33.859Z</time></trkpt><trkpt lat="40.91672" lon="14.2071"><ele>113.0</ele><time>2026-04-11T05:41:34.86Z</time></trkpt><trkpt lat="40.9167267" lon="14.2070083"><ele>113.0</ele><time>2026-04-11T05:41:35.86Z</time></trkpt><trkpt lat="40.9167317" lon="14.2069183"><ele>112.85714285714286</ele><time>2026-04-11T05:41:36.859Z</time></trkpt><trkpt lat="40.9167417" lon="14.2068267"><ele>112.71428571428571</ele><time>2026-04-11T05:41:37.86Z</time></trkpt><trkpt lat="40.9167483" lon="14.2067367"><ele>112.57142857142857</ele><time>2026-04-11T05:41:38.86Z</time></trkpt><trkpt lat="40.916755" lon="14.2066433"><ele>112.42857142857143</ele><time>2026-04-11T05:41:39.859Z</time></trkpt><trkpt lat="40.9167633" lon="14.2065533"><ele>112.28571428571428</ele><time>2026-04-11T05:41:40.86Z</time></trkpt><trkpt lat="40.91677" lon="14.2064583"><ele>112.14285714285714</ele><time>2026-04-11T05:41:41.861Z</time></trkpt><trkpt lat="40.916785" lon="14.2063667"><ele>112.0</ele><time>2026-04-11T05:41:42.86Z</time></trkpt><trkpt lat="40.916805" lon="14.2062783"><ele>112.0</ele><time>2026-04-11T05:41:43.86Z</time></trkpt><trkpt lat="40.91683" lon="14.2061933"><ele>112.0</ele><time>2026-04-11T05:41:44.86Z</time></trkpt><trkpt lat="40.916865" lon="14.206115"><ele>112.0</ele><time>2026-04-11T05:41:45.86Z</time></trkpt><trkpt lat="40.9169033" lon="14.20604"><ele>112.0</ele><time>2026-04-11T05:41:46.86Z</time></trkpt><trkpt lat="40.9169367" lon="14.2059683"><ele>112.0</ele><time>2026-04-11T05:41:47.859Z</time></trkpt><trkpt lat="40.9169583" lon="14.205885"><ele>112.0</ele><time>2026-04-11T05:41:48.859Z</time></trkpt><trkpt lat="40.9169683" lon="14.2058"><ele>112.0</ele><time>2026-04-11T05:41:49.859Z</time></trkpt><trkpt lat="40.9169567" lon="14.2057133"><ele>111.85714285714286</ele><time>2026-04-11T05:41:50.86Z</time></trkpt><trkpt lat="40.9169383" lon="14.2056267"><ele>111.71428571428572</ele><time>2026-04-11T05:41:51.86Z</time></trkpt><trkpt lat="40.91691" lon="14.2055433"><ele>111.57142857142857</ele><time>2026-04-11T05:41:52.859Z</time></trkpt><trkpt lat="40.91688" lon="14.2054617"><ele>111.42857142857143</ele><time>2026-04-11T05:41:53.86Z</time></trkpt><trkpt lat="40.9168583" lon="14.2053733"><ele>111.28571428571429</ele><time>2026-04-11T05:41:54.86Z</time></trkpt><trkpt lat="40.9168517" lon="14.20529"><ele>111.14285714285714</ele><time>2026-04-11T05:41:55.861Z</time></trkpt><trkpt lat="40.9168483" lon="14.205205"><ele>111.0</ele><time>2026-04-11T05:41:56.858Z</time></trkpt><trkpt lat="40.9168517" lon="14.2051183"><ele>111.0</ele><time>2026-04-11T05:41:57.858Z</time></trkpt><trkpt lat="40.9168567" lon="14.2050317"><ele>111.0</ele><time>2026-04-11T05:41:58.86Z</time></trkpt><trkpt lat="40.9168617" lon="14.2049483"><ele>111.0</ele><time>2026-04-11T05:41:59.86Z</time></trkpt><trkpt lat="40.9168667" lon="14.2048633"><ele>111.0</ele><time>2026-04-11T05:42:00.86Z</time></trkpt><trkpt lat="40.91687" lon="14.2047783"><ele>111.0</ele><time>2026-04-11T05:42:01.859Z</time></trkpt><trkpt lat="40.916875" lon="14.2046933"><ele>111.0</ele><time>2026-04-11T05:42:02.86Z</time></trkpt><trkpt lat="40.91688" lon="14.2046083"><ele>111.0</ele><time>2026-04-11T05:42:03.858Z</time></trkpt><trkpt lat="40.9168867" lon="14.2045233"><ele>111.14285714285714</ele><time>2026-04-11T05:42:04.861Z</time></trkpt><trkpt lat="40.916895" lon="14.2044367"><ele>111.28571428571429</ele><time>2026-04-11T05:42:05.86Z</time></trkpt><trkpt lat="40.9169017" lon="14.2043517"><ele>111.42857142857143</ele><time>2026-04-11T05:42:06.861Z</time></trkpt><trkpt lat="40.91691" lon="14.2042667"><ele>111.57142857142857</ele><time>2026-04-11T05:42:07.86Z</time></trkpt><trkpt lat="40.91692" lon="14.2041783"><ele>111.71428571428572</ele><time>2026-04-11T05:42:08.86Z</time></trkpt><trkpt lat="40.9169283" lon="14.2040917"><ele>111.85714285714286</ele><time>2026-04-11T05:42:09.86Z</time></trkpt><trkpt lat="40.916935" lon="14.204005"><ele>112.0</ele><time>2026-04-11T05:42:10.86Z</time></trkpt><trkpt lat="40.9169417" lon="14.203915"><ele>112.0</ele><time>2026-04-11T05:42:11.86Z</time></trkpt><trkpt lat="40.9169483" lon="14.2038283"><ele>112.0</ele><time>2026-04-11T05:42:12.861Z</time></trkpt><trkpt lat="40.9169567" lon="14.20374"><ele>112.0</ele><time>2026-04-11T05:42:13.859Z</time></trkpt><trkpt lat="40.9169633" lon="14.2036533"><ele>112.0</ele><time>2026-04-11T05:42:14.86Z</time></trkpt><trkpt lat="40.91697" lon="14.2035633"><ele>112.0</ele><time>2026-04-11T05:42:15.858Z</time></trkpt><trkpt lat="40.9169767" lon="14.203475"><ele>112.0</ele><time>2026-04-11T05:42:16.86Z</time></trkpt><trkpt lat="40.9169833" lon="14.2033867"><ele>112.0</ele><time>2026-04-11T05:42:17.859Z</time></trkpt><trkpt lat="40.9169883" lon="14.2033017"><ele>112.0</ele><time>2026-04-11T05:42:18.859Z</time></trkpt><trkpt lat="40.916995" lon="14.2032183"><ele>112.0</ele><time>2026-04-11T05:42:19.86Z</time></trkpt><trkpt lat="40.9170017" lon="14.203135"><ele>112.0</ele><time>2026-04-11T05:42:20.86Z</time></trkpt><trkpt lat="40.9170117" lon="14.2030517"><ele>112.0</ele><time>2026-04-11T05:42:21.858Z</time></trkpt><trkpt lat="40.9170167" lon="14.20296"><ele>112.0</ele><time>2026-04-11T05:42:22.86Z</time></trkpt><trkpt lat="40.91702" lon="14.2028683"><ele>112.0</ele><time>2026-04-11T05:42:23.86Z</time></trkpt><trkpt lat="40.917025" lon="14.20278"><ele>112.0</ele><time>2026-04-11T05:42:24.862Z</time></trkpt><trkpt lat="40.9170317" lon="14.20269"><ele>112.0</ele><time>2026-04-11T05:42:25.862Z</time></trkpt><trkpt lat="40.91704" lon="14.2026"><ele>112.0</ele><time>2026-04-11T05:42:26.858Z</time></trkpt><trkpt lat="40.9170433" lon="14.2025083"><ele>112.0</ele><time>2026-04-11T05:42:27.862Z</time></trkpt><trkpt lat="40.917045" lon="14.2024167"><ele>112.0</ele><time>2026-04-11T05:42:28.861Z</time></trkpt><trkpt lat="40.91705" lon="14.2023267"><ele>112.0</ele><time>2026-04-11T05:42:29.858Z</time></trkpt><trkpt lat="40.9170583" lon="14.2022383"><ele>112.0</ele><time>2026-04-11T05:42:30.86Z</time></trkpt><trkpt lat="40.917065" lon="14.2021517"><ele>112.0</ele><time>2026-04-11T05:42:31.86Z</time></trkpt><trkpt lat="40.917075" lon="14.202065"><ele>112.0</ele><time>2026-04-11T05:42:32.86Z</time></trkpt><trkpt lat="40.91708" lon="14.2019817"><ele>112.0</ele><time>2026-04-11T05:42:33.862Z</time></trkpt><trkpt lat="40.9170867" lon="14.201895"><ele>112.0</ele><time>2026-04-11T05:42:34.861Z</time></trkpt><trkpt lat="40.9170867" lon="14.2018067"><ele>112.0</ele><time>2026-04-11T05:42:35.86Z</time></trkpt><trkpt lat="40.917095" lon="14.2017233"><ele>112.0</ele><time>2026-04-11T05:42:36.86Z</time></trkpt><trkpt lat="40.9171017" lon="14.20164"><ele>112.0</ele><time>2026-04-11T05:42:37.861Z</time></trkpt><trkpt lat="40.9171067" lon="14.2015567"><ele>112.0</ele><time>2026-04-11T05:42:38.86Z</time></trkpt><trkpt lat="40.9171117" lon="14.2014717"><ele>111.85714285714286</ele><time>2026-04-11T05:42:39.858Z</time></trkpt><trkpt lat="40.9171183" lon="14.2013867"><ele>111.71428571428572</ele><time>2026-04-11T05:42:40.86Z</time></trkpt><trkpt lat="40.9171283" lon="14.2013"><ele>111.57142857142857</ele><time>2026-04-11T05:42:41.86Z</time></trkpt><trkpt lat="40.917135" lon="14.2012117"><ele>111.42857142857143</ele><time>2026-04-11T05:42:42.86Z</time></trkpt><trkpt lat="40.91714" lon="14.2011233"><ele>111.28571428571429</ele><time>2026-04-11T05:42:43.86Z</time></trkpt><trkpt lat="40.9171483" lon="14.2010383"><ele>111.14285714285714</ele><time>2026-04-11T05:42:44.859Z</time></trkpt><trkpt lat="40.9171567" lon="14.2009467"><ele>111.0</ele><time>2026-04-11T05:42:45.86Z</time></trkpt><trkpt lat="40.9171667" lon="14.20086"><ele>111.0</ele><time>2026-04-11T05:42:46.86Z</time></trkpt><trkpt lat="40.9171783" lon="14.2007683"><ele>111.0</ele><time>2026-04-11T05:42:47.861Z</time></trkpt><trkpt lat="40.9171917" lon="14.2006817"><ele>111.0</ele><time>2026-04-11T05:42:48.862Z</time></trkpt><trkpt lat="40.9172083" lon="14.2005917"><ele>111.0</ele><time>2026-04-11T05:42:49.86Z</time></trkpt><trkpt lat="40.91723" lon="14.2005"><ele>111.0</ele><time>2026-04-11T05:42:50.86Z</time></trkpt><trkpt lat="40.9172533" lon="14.2004067"><ele>111.0</ele><time>2026-04-11T05:42:51.86Z</time></trkpt><trkpt lat="40.917275" lon="14.200315"><ele>111.0</ele><time>2026-04-11T05:42:52.862Z</time></trkpt><trkpt lat="40.9172933" lon="14.2002167"><ele>111.0</ele><time>2026-04-11T05:42:53.858Z</time></trkpt><trkpt lat="40.917305" lon="14.2001183"><ele>111.0</ele><time>2026-04-11T05:42:54.859Z</time></trkpt><trkpt lat="40.9173083" lon="14.2000167"><ele>111.0</ele><time>2026-04-11T05:42:55.861Z</time></trkpt><trkpt lat="40.91731" lon="14.1999133"><ele>111.0</ele><time>2026-04-11T05:42:56.86Z</time></trkpt><trkpt lat="40.91731" lon="14.1998133"><ele>111.0</ele><time>2026-04-11T05:42:57.862Z</time></trkpt><trkpt lat="40.9173117" lon="14.199715"><ele>111.0</ele><time>2026-04-11T05:42:58.86Z</time></trkpt><trkpt lat="40.9173167" lon="14.19962"><ele>111.28571428571428</ele><time>2026-04-11T05:42:59.861Z</time></trkpt><trkpt lat="40.9173217" lon="14.1995267"><ele>111.57142857142858</ele><time>2026-04-11T05:43:00.86Z</time></trkpt><trkpt lat="40.9173233" lon="14.1994317"><ele>111.85714285714286</ele><time>2026-04-11T05:43:01.859Z</time></trkpt><trkpt lat="40.9173267" lon="14.1993367"><ele>112.14285714285714</ele><time>2026-04-11T05:43:02.86Z</time></trkpt><trkpt lat="40.917325" lon="14.1992417"><ele>112.42857142857142</ele><time>2026-04-11T05:43:03.859Z</time></trkpt><trkpt lat="40.9173183" lon="14.1991433"><ele>112.71428571428572</ele><time>2026-04-11T05:43:04.859Z</time></trkpt><trkpt lat="40.9173133" lon="14.1990467"><ele>113.0</ele><time>2026-04-11T05:43:05.86Z</time></trkpt><trkpt lat="40.9173083" lon="14.1989483"><ele>113.14285714285714</ele><time>2026-04-11T05:43:06.861Z</time></trkpt><trkpt lat="40.917305" lon="14.19885"><ele>113.28571428571428</ele><time>2026-04-11T05:43:07.86Z</time></trkpt><trkpt lat="40.9173067" lon="14.198755"><ele>113.42857142857142</ele><time>2026-04-11T05:43:08.86Z</time></trkpt><trkpt lat="40.9173083" lon="14.19866"><ele>113.57142857142857</ele><time>2026-04-11T05:43:09.86Z</time></trkpt><trkpt lat="40.9173117" lon="14.19856"><ele>113.7142857142857</ele><time>2026-04-11T05:43:10.862Z</time></trkpt><trkpt lat="40.9173167" lon="14.1984667"><ele>113.85714285714285</ele><time>2026-04-11T05:43:11.857Z</time></trkpt><trkpt lat="40.9173233" lon="14.1983767"><ele>114.0</ele><time>2026-04-11T05:43:12.858Z</time></trkpt><trkpt lat="40.9173317" lon="14.19829"><ele>114.0</ele><time>2026-04-11T05:43:13.861Z</time></trkpt><trkpt lat="40.91734" lon="14.198205"><ele>113.99999999999999</ele><time>2026-04-11T05:43:14.861Z</time></trkpt><trkpt lat="40.9173483" lon="14.1981183"><ele>114.0</ele><time>2026-04-11T05:43:15.859Z</time></trkpt><trkpt lat="40.9173567" lon="14.1980333"><ele>114.0</ele><time>2026-04-11T05:43:16.861Z</time></trkpt><trkpt lat="40.9173633" lon="14.1979483"><ele>113.99999999999999</ele><time>2026-04-11T05:43:17.861Z</time></trkpt><trkpt lat="40.9173717" lon="14.1978633"><ele>114.0</ele><time>2026-04-11T05:43:18.862Z</time></trkpt><trkpt lat="40.9173767" lon="14.1977783"><ele>114.0</ele><time>2026-04-11T05:43:19.86Z</time></trkpt><trkpt lat="40.9173817" lon="14.1976917"><ele>114.14285714285714</ele><time>2026-04-11T05:43:20.859Z</time></trkpt><trkpt lat="40.91739" lon="14.1976033"><ele>114.28571428571428</ele><time>2026-04-11T05:43:21.86Z</time></trkpt><trkpt lat="40.9173917" lon="14.197515"><ele>114.42857142857142</ele><time>2026-04-11T05:43:22.86Z</time></trkpt><trkpt lat="40.9173967" lon="14.1974267"><ele>114.57142857142856</ele><time>2026-04-11T05:43:23.86Z</time></trkpt><trkpt lat="40.9173967" lon="14.19734"><ele>114.71428571428571</ele><time>2026-04-11T05:43:24.861Z</time></trkpt><trkpt lat="40.9174" lon="14.1972533"><ele>114.85714285714283</ele><time>2026-04-11T05:43:25.859Z</time></trkpt><trkpt lat="40.9174083" lon="14.197165"><ele>114.99999999999999</ele><time>2026-04-11T05:43:26.86Z</time></trkpt><trkpt lat="40.9174183" lon="14.1970783"><ele>114.99999999999999</ele><time>2026-04-11T05:43:27.86Z</time></trkpt><trkpt lat="40.9174317" lon="14.1969917"><ele>115.0</ele><time>2026-04-11T05:43:28.861Z</time></trkpt><trkpt lat="40.9174467" lon="14.1969067"><ele>114.99999999999999</ele><time>2026-04-11T05:43:29.86Z</time></trkpt><trkpt lat="40.9174683" lon="14.19682"><ele>114.99999999999999</ele><time>2026-04-11T05:43:30.86Z</time></trkpt><trkpt lat="40.9174917" lon="14.1967367"><ele>115.0</ele><time>2026-04-11T05:43:31.861Z</time></trkpt><trkpt lat="40.91752" lon="14.1966583"><ele>114.99999999999999</ele><time>2026-04-11T05:43:32.86Z</time></trkpt><trkpt lat="40.91755" lon="14.1965767"><ele>114.99999999999999</ele><time>2026-04-11T05:43:33.86Z</time></trkpt><trkpt lat="40.91758" lon="14.1964933"><ele>115.16666666666667</ele><time>2026-04-11T05:43:34.861Z</time></trkpt><trkpt lat="40.9176017" lon="14.19641"><ele>115.33333333333334</ele><time>2026-04-11T05:43:35.86Z</time></trkpt><trkpt lat="40.9176133" lon="14.196325"><ele>115.5</ele><time>2026-04-11T05:43:36.86Z</time></trkpt><trkpt lat="40.91762" lon="14.1962067"><ele>115.66666666666666</ele><time>2026-04-11T05:43:38.86Z</time></trkpt><trkpt lat="40.91761" lon="14.19611"><ele>115.83333333333333</ele><time>2026-04-11T05:43:40.86Z</time></trkpt><trkpt lat="40.917565" lon="14.196015"><ele>116.0</ele><time>2026-04-11T05:43:42.86Z</time></trkpt><trkpt lat="40.9175183" lon="14.1959083"><ele>116.0</ele><time>2026-04-11T05:43:44.86Z</time></trkpt><trkpt lat="40.9174767" lon="14.1957867"><ele>116.0</ele><time>2026-04-11T05:43:46.86Z</time></trkpt><trkpt lat="40.91744" lon="14.1956633"><ele>116.0</ele><time>2026-04-11T05:43:48.861Z</time></trkpt><trkpt lat="40.917425" lon="14.195525"><ele>116.0</ele><time>2026-04-11T05:43:50.861Z</time></trkpt><trkpt lat="40.9174183" lon="14.1953833"><ele>116.0</ele><time>2026-04-11T05:43:52.861Z</time></trkpt><trkpt lat="40.9174133" lon="14.195235"><ele>116.0</ele><time>2026-04-11T05:43:54.86Z</time></trkpt><trkpt lat="40.9174117" lon="14.195075"><ele>116.0</ele><time>2026-04-11T05:43:56.861Z</time></trkpt><trkpt lat="40.917415" lon="14.19492"><ele>116.0</ele><time>2026-04-11T05:43:58.859Z</time></trkpt><trkpt lat="40.9174167" lon="14.194835"><ele>116.0</ele><time>2026-04-11T05:43:59.861Z</time></trkpt><trkpt lat="40.9174167" lon="14.1946667"><ele>116.0</ele><time>2026-04-11T05:44:01.86Z</time></trkpt><trkpt lat="40.917415" lon="14.1945817"><ele>115.71428571428572</ele><time>2026-04-11T05:44:02.859Z</time></trkpt><trkpt lat="40.9174167" lon="14.1944983"><ele>115.42857142857143</ele><time>2026-04-11T05:44:03.86Z</time></trkpt><trkpt lat="40.917415" lon="14.194415"><ele>115.14285714285714</ele><time>2026-04-11T05:44:04.86Z</time></trkpt><trkpt lat="40.9174033" lon="14.194325"><ele>114.85714285714286</ele><time>2026-04-11T05:44:05.861Z</time></trkpt><trkpt lat="40.9173933" lon="14.1942333"><ele>114.57142857142856</ele><time>2026-04-11T05:44:06.859Z</time></trkpt><trkpt lat="40.91738" lon="14.194145"><ele>114.28571428571428</ele><time>2026-04-11T05:44:07.859Z</time></trkpt><trkpt lat="40.917375" lon="14.1940583"><ele>114.0</ele><time>2026-04-11T05:44:08.861Z</time></trkpt><trkpt lat="40.9173683" lon="14.1939717"><ele>114.0</ele><time>2026-04-11T05:44:09.859Z</time></trkpt><trkpt lat="40.9173633" lon="14.19388"><ele>113.99999999999999</ele><time>2026-04-11T05:44:10.86Z</time></trkpt><trkpt lat="40.9173617" lon="14.193795"><ele>114.0</ele><time>2026-04-11T05:44:11.86Z</time></trkpt><trkpt lat="40.9173617" lon="14.1937083"><ele>114.0</ele><time>2026-04-11T05:44:12.861Z</time></trkpt><trkpt lat="40.9173617" lon="14.1936233"><ele>113.99999999999999</ele><time>2026-04-11T05:44:13.86Z</time></trkpt><trkpt lat="40.91736" lon="14.1935333"><ele>114.0</ele><time>2026-04-11T05:44:14.86Z</time></trkpt><trkpt lat="40.9173517" lon="14.193445"><ele>114.0</ele><time>2026-04-11T05:44:15.86Z</time></trkpt><trkpt lat="40.917345" lon="14.1933567"><ele>114.0</ele><time>2026-04-11T05:44:16.858Z</time></trkpt><trkpt lat="40.91734" lon="14.1932633"><ele>113.99999999999999</ele><time>2026-04-11T05:44:17.86Z</time></trkpt><trkpt lat="40.91733" lon="14.1931733"><ele>114.0</ele><time>2026-04-11T05:44:18.86Z</time></trkpt><trkpt lat="40.91733" lon="14.1930833"><ele>114.0</ele><time>2026-04-11T05:44:19.861Z</time></trkpt><trkpt lat="40.917325" lon="14.1929933"><ele>113.99999999999999</ele><time>2026-04-11T05:44:20.86Z</time></trkpt><trkpt lat="40.9173183" lon="14.192905"><ele>114.0</ele><time>2026-04-11T05:44:21.859Z</time></trkpt><trkpt lat="40.9173167" lon="14.1928167"><ele>114.0</ele><time>2026-04-11T05:44:22.86Z</time></trkpt><trkpt lat="40.9173167" lon="14.19273"><ele>114.14285714285714</ele><time>2026-04-11T05:44:23.86Z</time></trkpt><trkpt lat="40.917315" lon="14.19264"><ele>114.28571428571428</ele><time>2026-04-11T05:44:24.86Z</time></trkpt><trkpt lat="40.9173117" lon="14.1925467"><ele>114.42857142857142</ele><time>2026-04-11T05:44:25.86Z</time></trkpt><trkpt lat="40.91731" lon="14.1924583"><ele>114.57142857142856</ele><time>2026-04-11T05:44:26.86Z</time></trkpt><trkpt lat="40.9173033" lon="14.1923733"><ele>114.71428571428571</ele><time>2026-04-11T05:44:27.859Z</time></trkpt><trkpt lat="40.9173" lon="14.1922867"><ele>114.85714285714283</ele><time>2026-04-11T05:44:28.86Z</time></trkpt><trkpt lat="40.917295" lon="14.1922"><ele>114.99999999999999</ele><time>2026-04-11T05:44:29.861Z</time></trkpt><trkpt lat="40.9172917" lon="14.1921117"><ele>114.99999999999999</ele><time>2026-04-11T05:44:30.86Z</time></trkpt><trkpt lat="40.9172917" lon="14.1920217"><ele>115.0</ele><time>2026-04-11T05:44:31.861Z</time></trkpt><trkpt lat="40.91729" lon="14.1919333"><ele>114.99999999999999</ele><time>2026-04-11T05:44:32.861Z</time></trkpt><trkpt lat="40.9172917" lon="14.1918417"><ele>114.99999999999999</ele><time>2026-04-11T05:44:33.86Z</time></trkpt><trkpt lat="40.9172933" lon="14.1917533"><ele>115.0</ele><time>2026-04-11T05:44:34.86Z</time></trkpt><trkpt lat="40.9172983" lon="14.191665"><ele>114.99999999999999</ele><time>2026-04-11T05:44:35.861Z</time></trkpt><trkpt lat="40.9173033" lon="14.1915733"><ele>114.99999999999999</ele><time>2026-04-11T05:44:36.861Z</time></trkpt><trkpt lat="40.9173117" lon="14.19148"><ele>114.99999999999999</ele><time>2026-04-11T05:44:37.86Z</time></trkpt><trkpt lat="40.917315" lon="14.1913883"><ele>115.0</ele><time>2026-04-11T05:44:38.861Z</time></trkpt><trkpt lat="40.91732" lon="14.1913"><ele>114.99999999999999</ele><time>2026-04-11T05:44:39.86Z</time></trkpt><trkpt lat="40.9173267" lon="14.19121"><ele>114.99999999999999</ele><time>2026-04-11T05:44:40.861Z</time></trkpt><trkpt lat="40.9173333" lon="14.1911183"><ele>115.0</ele><time>2026-04-11T05:44:41.861Z</time></trkpt><trkpt lat="40.9173433" lon="14.1910267"><ele>114.99999999999999</ele><time>2026-04-11T05:44:42.861Z</time></trkpt><trkpt lat="40.9173533" lon="14.1909367"><ele>114.99999999999999</ele><time>2026-04-11T05:44:43.86Z</time></trkpt><trkpt lat="40.91736" lon="14.1908467"><ele>114.99999999999999</ele><time>2026-04-11T05:44:44.86Z</time></trkpt><trkpt lat="40.9173667" lon="14.1907583"><ele>115.0</ele><time>2026-04-11T05:44:45.859Z</time></trkpt><trkpt lat="40.917375" lon="14.19067"><ele>114.99999999999999</ele><time>2026-04-11T05:44:46.861Z</time></trkpt><trkpt lat="40.9173883" lon="14.1905817"><ele>114.99999999999999</ele><time>2026-04-11T05:44:47.86Z</time></trkpt><trkpt lat="40.9174033" lon="14.190495"><ele>115.0</ele><time>2026-04-11T05:44:48.859Z</time></trkpt><trkpt lat="40.9174183" lon="14.1904133"><ele>114.99999999999999</ele><time>2026-04-11T05:44:49.86Z</time></trkpt><trkpt lat="40.9174333" lon="14.19033"><ele>114.99999999999999</ele><time>2026-04-11T05:44:50.86Z</time></trkpt><trkpt lat="40.9174433" lon="14.1902433"><ele>115.0</ele><time>2026-04-11T05:44:51.86Z</time></trkpt><trkpt lat="40.917465" lon="14.190075"><ele>115.0</ele><time>2026-04-11T05:44:53.86Z</time></trkpt><trkpt lat="40.917485" lon="14.1899067"><ele>115.0</ele><time>2026-04-11T05:44:55.86Z</time></trkpt><trkpt lat="40.9174983" lon="14.1898217"><ele>115.0</ele><time>2026-04-11T05:44:56.86Z</time></trkpt><trkpt lat="40.917515" lon="14.189735"><ele>115.0</ele><time>2026-04-11T05:44:57.86Z</time></trkpt><trkpt lat="40.9175283" lon="14.1896483"><ele>115.14285714285712</ele><time>2026-04-11T05:44:58.86Z</time></trkpt><trkpt lat="40.9175517" lon="14.1895617"><ele>115.28571428571428</ele><time>2026-04-11T05:44:59.86Z</time></trkpt><trkpt lat="40.9175617" lon="14.1894767"><ele>115.42857142857143</ele><time>2026-04-11T05:45:00.862Z</time></trkpt><trkpt lat="40.917575" lon="14.189395"><ele>115.57142857142857</ele><time>2026-04-11T05:45:01.862Z</time></trkpt><trkpt lat="40.91759" lon="14.18931"><ele>115.71428571428572</ele><time>2026-04-11T05:45:02.86Z</time></trkpt><trkpt lat="40.917605" lon="14.1892217"><ele>115.85714285714288</ele><time>2026-04-11T05:45:03.86Z</time></trkpt><trkpt lat="40.9176133" lon="14.189135"><ele>116.00000000000001</ele><time>2026-04-11T05:45:04.859Z</time></trkpt><trkpt lat="40.9176283" lon="14.1890433"><ele>115.85714285714288</ele><time>2026-04-11T05:45:05.859Z</time></trkpt><trkpt lat="40.91765" lon="14.1889583"><ele>115.71428571428572</ele><time>2026-04-11T05:45:06.86Z</time></trkpt><trkpt lat="40.91767" lon="14.18887"><ele>115.57142857142857</ele><time>2026-04-11T05:45:07.861Z</time></trkpt><trkpt lat="40.9176883" lon="14.188785"><ele>115.42857142857143</ele><time>2026-04-11T05:45:08.859Z</time></trkpt><trkpt lat="40.9177067" lon="14.1886967"><ele>115.28571428571428</ele><time>2026-04-11T05:45:09.857Z</time></trkpt><trkpt lat="40.9177267" lon="14.1886083"><ele>115.14285714285712</ele><time>2026-04-11T05:45:10.86Z</time></trkpt><trkpt lat="40.9177483" lon="14.18852"><ele>114.99999999999999</ele><time>2026-04-11T05:45:11.86Z</time></trkpt><trkpt lat="40.9177733" lon="14.1884333"><ele>114.99999999999999</ele><time>2026-04-11T05:45:12.861Z</time></trkpt><trkpt lat="40.9177967" lon="14.188345"><ele>115.0</ele><time>2026-04-11T05:45:13.861Z</time></trkpt><trkpt lat="40.9178217" lon="14.1882617"><ele>114.99999999999999</ele><time>2026-04-11T05:45:14.86Z</time></trkpt><trkpt lat="40.9178467" lon="14.1881733"><ele>114.99999999999999</ele><time>2026-04-11T05:45:15.86Z</time></trkpt><trkpt lat="40.91787" lon="14.1880867"><ele>115.0</ele><time>2026-04-11T05:45:16.861Z</time></trkpt><trkpt lat="40.9178967" lon="14.1880033"><ele>114.99999999999999</ele><time>2026-04-11T05:45:17.86Z</time></trkpt><trkpt lat="40.9179233" lon="14.1879167"><ele>114.99999999999999</ele><time>2026-04-11T05:45:18.86Z</time></trkpt><trkpt lat="40.91795" lon="14.1878283"><ele>114.99999999999999</ele><time>2026-04-11T05:45:19.862Z</time></trkpt><trkpt lat="40.9179767" lon="14.1877383"><ele>115.0</ele><time>2026-04-11T05:45:20.861Z</time></trkpt><trkpt lat="40.918005" lon="14.1876467"><ele>114.99999999999999</ele><time>2026-04-11T05:45:21.86Z</time></trkpt><trkpt lat="40.9180367" lon="14.1875567"><ele>114.99999999999999</ele><time>2026-04-11T05:45:22.861Z</time></trkpt><trkpt lat="40.9180633" lon="14.1874667"><ele>115.0</ele><time>2026-04-11T05:45:23.86Z</time></trkpt><trkpt lat="40.9180933" lon="14.187375"><ele>114.99999999999999</ele><time>2026-04-11T05:45:24.861Z</time></trkpt><trkpt lat="40.9181217" lon="14.1872867"><ele>114.99999999999999</ele><time>2026-04-11T05:45:25.861Z</time></trkpt><trkpt lat="40.9181483" lon="14.1872"><ele>114.99999999999999</ele><time>2026-04-11T05:45:26.861Z</time></trkpt><trkpt lat="40.9181733" lon="14.1871117"><ele>115.0</ele><time>2026-04-11T05:45:27.86Z</time></trkpt><trkpt lat="40.918195" lon="14.1870233"><ele>114.99999999999999</ele><time>2026-04-11T05:45:28.859Z</time></trkpt><trkpt lat="40.918215" lon="14.1869383"><ele>114.99999999999999</ele><time>2026-04-11T05:45:29.861Z</time></trkpt><trkpt lat="40.918245" lon="14.1868567"><ele>115.0</ele><time>2026-04-11T05:45:30.86Z</time></trkpt><trkpt lat="40.9182783" lon="14.1867817"><ele>114.99999999999999</ele><time>2026-04-11T05:45:31.859Z</time></trkpt><trkpt lat="40.91832" lon="14.1867117"><ele>114.99999999999999</ele><time>2026-04-11T05:45:32.859Z</time></trkpt><trkpt lat="40.9183583" lon="14.1866333"><ele>114.99999999999999</ele><time>2026-04-11T05:45:33.862Z</time></trkpt><trkpt lat="40.9183817" lon="14.186545"><ele>115.0</ele><time>2026-04-11T05:45:34.861Z</time></trkpt><trkpt lat="40.9183983" lon="14.18645"><ele>114.99999999999999</ele><time>2026-04-11T05:45:35.86Z</time></trkpt><trkpt lat="40.9184133" lon="14.18636"><ele>114.99999999999999</ele><time>2026-04-11T05:45:36.86Z</time></trkpt><trkpt lat="40.918435" lon="14.1862717"><ele>115.0</ele><time>2026-04-11T05:45:37.86Z</time></trkpt><trkpt lat="40.9184567" lon="14.1861817"><ele>114.99999999999999</ele><time>2026-04-11T05:45:38.859Z</time></trkpt><trkpt lat="40.9184817" lon="14.1860917"><ele>114.99999999999999</ele><time>2026-04-11T05:45:39.859Z</time></trkpt><trkpt lat="40.91851" lon="14.1860017"><ele>114.66666666666667</ele><time>2026-04-11T05:45:40.859Z</time></trkpt><trkpt lat="40.9185367" lon="14.1859167"><ele>114.33333333333334</ele><time>2026-04-11T05:45:41.86Z</time></trkpt><trkpt lat="40.9185717" lon="14.1858333"><ele>114.0</ele><time>2026-04-11T05:45:42.86Z</time></trkpt><trkpt lat="40.9186" lon="14.1857533"><ele>113.66666666666666</ele><time>2026-04-11T05:45:43.861Z</time></trkpt><trkpt lat="40.9186233" lon="14.185675"><ele>113.33333333333333</ele><time>2026-04-11T05:45:44.86Z</time></trkpt><trkpt lat="40.9186617" lon="14.185525"><ele>113.0</ele><time>2026-04-11T05:45:46.86Z</time></trkpt><trkpt lat="40.9187017" lon="14.1853817"><ele>113.0</ele><time>2026-04-11T05:45:48.859Z</time></trkpt><trkpt lat="40.9187317" lon="14.1853083"><ele>113.0</ele><time>2026-04-11T05:45:49.859Z</time></trkpt><trkpt lat="40.9187617" lon="14.1852333"><ele>113.0</ele><time>2026-04-11T05:45:50.859Z</time></trkpt><trkpt lat="40.918795" lon="14.1851517"><ele>113.0</ele><time>2026-04-11T05:45:51.86Z</time></trkpt><trkpt lat="40.91883" lon="14.1850733"><ele>113.0</ele><time>2026-04-11T05:45:52.859Z</time></trkpt><trkpt lat="40.91886" lon="14.1849933"><ele>113.0</ele><time>2026-04-11T05:45:53.861Z</time></trkpt><trkpt lat="40.9188867" lon="14.1849083"><ele>113.0</ele><time>2026-04-11T05:45:54.86Z</time></trkpt><trkpt lat="40.9189117" lon="14.1848217"><ele>113.0</ele><time>2026-04-11T05:45:55.86Z</time></trkpt><trkpt lat="40.9189367" lon="14.184735"><ele>113.0</ele><time>2026-04-11T05:45:56.859Z</time></trkpt><trkpt lat="40.918965" lon="14.1846517"><ele>113.0</ele><time>2026-04-11T05:45:57.86Z</time></trkpt><trkpt lat="40.9189917" lon="14.184565"><ele>113.0</ele><time>2026-04-11T05:45:58.86Z</time></trkpt><trkpt lat="40.919015" lon="14.1844733"><ele>113.0</ele><time>2026-04-11T05:45:59.86Z</time></trkpt><trkpt lat="40.9190417" lon="14.184385"><ele>113.0</ele><time>2026-04-11T05:46:00.859Z</time></trkpt><trkpt lat="40.91907" lon="14.1842983"><ele>113.0</ele><time>2026-04-11T05:46:01.859Z</time></trkpt><trkpt lat="40.9190933" lon="14.1842067"><ele>113.0</ele><time>2026-04-11T05:46:02.86Z</time></trkpt><trkpt lat="40.919115" lon="14.184115"><ele>113.0</ele><time>2026-04-11T05:46:03.86Z</time></trkpt><trkpt lat="40.9191433" lon="14.18403"><ele>113.0</ele><time>2026-04-11T05:46:04.86Z</time></trkpt><trkpt lat="40.91917" lon="14.1839417"><ele>113.0</ele><time>2026-04-11T05:46:05.859Z</time></trkpt><trkpt lat="40.9191983" lon="14.1838517"><ele>113.0</ele><time>2026-04-11T05:46:06.86Z</time></trkpt><trkpt lat="40.9192233" lon="14.1837617"><ele>113.0</ele><time>2026-04-11T05:46:07.859Z</time></trkpt><trkpt lat="40.9192517" lon="14.1836783"><ele>113.0</ele><time>2026-04-11T05:46:08.861Z</time></trkpt><trkpt lat="40.91928" lon="14.18359"><ele>113.0</ele><time>2026-04-11T05:46:09.859Z</time></trkpt><trkpt lat="40.9193083" lon="14.1835017"><ele>113.0</ele><time>2026-04-11T05:46:10.861Z</time></trkpt><trkpt lat="40.919335" lon="14.1834117"><ele>113.0</ele><time>2026-04-11T05:46:11.861Z</time></trkpt><trkpt lat="40.9193667" lon="14.1833183"><ele>113.0</ele><time>2026-04-11T05:46:12.86Z</time></trkpt><trkpt lat="40.9193983" lon="14.1832283"><ele>113.0</ele><time>2026-04-11T05:46:13.86Z</time></trkpt><trkpt lat="40.91943" lon="14.1831467"><ele>113.0</ele><time>2026-04-11T05:46:14.861Z</time></trkpt><trkpt lat="40.9194567" lon="14.183065"><ele>113.0</ele><time>2026-04-11T05:46:15.86Z</time></trkpt><trkpt lat="40.9194833" lon="14.1829783"><ele>113.14285714285714</ele><time>2026-04-11T05:46:16.86Z</time></trkpt><trkpt lat="40.91951" lon="14.1828917"><ele>113.28571428571428</ele><time>2026-04-11T05:46:17.86Z</time></trkpt><trkpt lat="40.91954" lon="14.1828033"><ele>113.42857142857142</ele><time>2026-04-11T05:46:18.86Z</time></trkpt><trkpt lat="40.91957" lon="14.18272"><ele>113.57142857142857</ele><time>2026-04-11T05:46:19.86Z</time></trkpt><trkpt lat="40.919605" lon="14.18264"><ele>113.7142857142857</ele><time>2026-04-11T05:46:20.86Z</time></trkpt><trkpt lat="40.9196517" lon="14.1825667"><ele>113.85714285714285</ele><time>2026-04-11T05:46:21.857Z</time></trkpt><trkpt lat="40.9197" lon="14.1825"><ele>114.0</ele><time>2026-04-11T05:46:22.861Z</time></trkpt><trkpt lat="40.9197467" lon="14.182435"><ele>114.0</ele><time>2026-04-11T05:46:23.86Z</time></trkpt><trkpt lat="40.9197883" lon="14.182365"><ele>113.99999999999999</ele><time>2026-04-11T05:46:24.86Z</time></trkpt><trkpt lat="40.9198217" lon="14.182285"><ele>114.0</ele><time>2026-04-11T05:46:25.86Z</time></trkpt><trkpt lat="40.9198417" lon="14.1821967"><ele>114.0</ele><time>2026-04-11T05:46:26.859Z</time></trkpt><trkpt lat="40.919855" lon="14.1821067"><ele>113.99999999999999</ele><time>2026-04-11T05:46:27.86Z</time></trkpt><trkpt lat="40.9198633" lon="14.182015"><ele>114.0</ele><time>2026-04-11T05:46:28.86Z</time></trkpt><trkpt lat="40.91987" lon="14.1819267"><ele>114.0</ele><time>2026-04-11T05:46:29.862Z</time></trkpt><trkpt lat="40.919875" lon="14.1818367"><ele>114.0</ele><time>2026-04-11T05:46:30.86Z</time></trkpt><trkpt lat="40.9198833" lon="14.1817483"><ele>113.99999999999999</ele><time>2026-04-11T05:46:31.861Z</time></trkpt><trkpt lat="40.9198967" lon="14.1816583"><ele>114.0</ele><time>2026-04-11T05:46:32.861Z</time></trkpt><trkpt lat="40.91992" lon="14.1815733"><ele>114.0</ele><time>2026-04-11T05:46:33.861Z</time></trkpt><trkpt lat="40.919945" lon="14.1814867"><ele>113.99999999999999</ele><time>2026-04-11T05:46:34.86Z</time></trkpt><trkpt lat="40.91997" lon="14.1814017"><ele>114.0</ele><time>2026-04-11T05:46:35.86Z</time></trkpt><trkpt lat="40.919995" lon="14.1813167"><ele>114.0</ele><time>2026-04-11T05:46:36.86Z</time></trkpt><trkpt lat="40.9200167" lon="14.1812283"><ele>114.0</ele><time>2026-04-11T05:46:37.861Z</time></trkpt><trkpt lat="40.9200383" lon="14.1811417"><ele>113.99999999999999</ele><time>2026-04-11T05:46:38.861Z</time></trkpt><trkpt lat="40.920065" lon="14.181055"><ele>114.0</ele><time>2026-04-11T05:46:39.86Z</time></trkpt><trkpt lat="40.9200933" lon="14.18097"><ele>114.0</ele><time>2026-04-11T05:46:40.859Z</time></trkpt><trkpt lat="40.92012" lon="14.1808783"><ele>113.99999999999999</ele><time>2026-04-11T05:46:41.859Z</time></trkpt><trkpt lat="40.9201483" lon="14.1807867"><ele>114.0</ele><time>2026-04-11T05:46:42.861Z</time></trkpt><trkpt lat="40.9201733" lon="14.180695"><ele>114.0</ele><time>2026-04-11T05:46:43.86Z</time></trkpt><trkpt lat="40.9201933" lon="14.1806017"><ele>113.85714285714285</ele><time>2026-04-11T05:46:44.86Z</time></trkpt><trkpt lat="40.9202133" lon="14.1805067"><ele>113.7142857142857</ele><time>2026-04-11T05:46:45.86Z</time></trkpt><trkpt lat="40.9202383" lon="14.1804183"><ele>113.57142857142857</ele><time>2026-04-11T05:46:46.86Z</time></trkpt><trkpt lat="40.9202683" lon="14.18033"><ele>113.42857142857142</ele><time>2026-04-11T05:46:47.861Z</time></trkpt><trkpt lat="40.9203017" lon="14.1802433"><ele>113.28571428571428</ele><time>2026-04-11T05:46:48.861Z</time></trkpt><trkpt lat="40.9203333" lon="14.1801567"><ele>113.14285714285714</ele><time>2026-04-11T05:46:49.86Z</time></trkpt><trkpt lat="40.9203633" lon="14.18007"><ele>113.0</ele><time>2026-04-11T05:46:50.86Z</time></trkpt><trkpt lat="40.9203917" lon="14.1799817"><ele>113.0</ele><time>2026-04-11T05:46:51.858Z</time></trkpt><trkpt lat="40.9204217" lon="14.1798933"><ele>113.0</ele><time>2026-04-11T05:46:52.859Z</time></trkpt><trkpt lat="40.9204517" lon="14.1798083"><ele>113.0</ele><time>2026-04-11T05:46:53.86Z</time></trkpt><trkpt lat="40.9204817" lon="14.1797217"><ele>113.0</ele><time>2026-04-11T05:46:54.86Z</time></trkpt><trkpt lat="40.92051" lon="14.179635"><ele>113.0</ele><time>2026-04-11T05:46:55.86Z</time></trkpt><trkpt lat="40.92054" lon="14.1795433"><ele>113.0</ele><time>2026-04-11T05:46:56.859Z</time></trkpt><trkpt lat="40.9205767" lon="14.179455"><ele>113.0</ele><time>2026-04-11T05:46:57.859Z</time></trkpt><trkpt lat="40.920605" lon="14.1793633"><ele>113.0</ele><time>2026-04-11T05:46:58.859Z</time></trkpt><trkpt lat="40.9206333" lon="14.1792733"><ele>113.0</ele><time>2026-04-11T05:46:59.86Z</time></trkpt><trkpt lat="40.9206633" lon="14.1791817"><ele>113.0</ele><time>2026-04-11T05:47:00.86Z</time></trkpt><trkpt lat="40.92069" lon="14.179095"><ele>113.0</ele><time>2026-04-11T05:47:01.859Z</time></trkpt><trkpt lat="40.9207183" lon="14.17901"><ele>113.0</ele><time>2026-04-11T05:47:02.861Z</time></trkpt><trkpt lat="40.9207433" lon="14.1789233"><ele>113.0</ele><time>2026-04-11T05:47:03.86Z</time></trkpt><trkpt lat="40.9207717" lon="14.178835"><ele>113.0</ele><time>2026-04-11T05:47:04.86Z</time></trkpt><trkpt lat="40.9207983" lon="14.178745"><ele>113.0</ele><time>2026-04-11T05:47:05.859Z</time></trkpt><trkpt lat="40.9208317" lon="14.1786583"><ele>113.0</ele><time>2026-04-11T05:47:06.86Z</time></trkpt><trkpt lat="40.92086" lon="14.1785733"><ele>113.0</ele><time>2026-04-11T05:47:07.859Z</time></trkpt><trkpt lat="40.92089" lon="14.1784883"><ele>113.0</ele><time>2026-04-11T05:47:08.861Z</time></trkpt><trkpt lat="40.920915" lon="14.1784"><ele>113.0</ele><time>2026-04-11T05:47:09.86Z</time></trkpt><trkpt lat="40.9209383" lon="14.178315"><ele>113.0</ele><time>2026-04-11T05:47:10.859Z</time></trkpt><trkpt lat="40.9209633" lon="14.1782267"><ele>113.0</ele><time>2026-04-11T05:47:11.86Z</time></trkpt><trkpt lat="40.9209867" lon="14.1781367"><ele>112.71428571428572</ele><time>2026-04-11T05:47:12.861Z</time></trkpt><trkpt lat="40.92101" lon="14.1780483"><ele>112.42857142857142</ele><time>2026-04-11T05:47:13.859Z</time></trkpt><trkpt lat="40.92104" lon="14.17796"><ele>112.14285714285714</ele><time>2026-04-11T05:47:14.858Z</time></trkpt><trkpt lat="40.92107" lon="14.1778717"><ele>111.85714285714286</ele><time>2026-04-11T05:47:15.858Z</time></trkpt><trkpt lat="40.921095" lon="14.1777783"><ele>111.57142857142858</ele><time>2026-04-11T05:47:16.859Z</time></trkpt><trkpt lat="40.921125" lon="14.177685"><ele>111.28571428571428</ele><time>2026-04-11T05:47:17.859Z</time></trkpt><trkpt lat="40.9211483" lon="14.1775933"><ele>111.0</ele><time>2026-04-11T05:47:18.86Z</time></trkpt><trkpt lat="40.921175" lon="14.1775033"><ele>111.0</ele><time>2026-04-11T05:47:19.86Z</time></trkpt><trkpt lat="40.9212" lon="14.17741"><ele>111.0</ele><time>2026-04-11T05:47:20.861Z</time></trkpt><trkpt lat="40.921225" lon="14.1773183"><ele>111.0</ele><time>2026-04-11T05:47:21.858Z</time></trkpt><trkpt lat="40.92125" lon="14.1772267"><ele>111.0</ele><time>2026-04-11T05:47:22.86Z</time></trkpt><trkpt lat="40.92128" lon="14.1771367"><ele>111.0</ele><time>2026-04-11T05:47:23.86Z</time></trkpt><trkpt lat="40.9213067" lon="14.1770433"><ele>111.0</ele><time>2026-04-11T05:47:24.861Z</time></trkpt><trkpt lat="40.9213333" lon="14.176955"><ele>111.0</ele><time>2026-04-11T05:47:25.863Z</time></trkpt><trkpt lat="40.9213633" lon="14.1768683"><ele>111.0</ele><time>2026-04-11T05:47:26.86Z</time></trkpt><trkpt lat="40.9213933" lon="14.17678"><ele>111.0</ele><time>2026-04-11T05:47:27.861Z</time></trkpt><trkpt lat="40.9214217" lon="14.1766917"><ele>111.0</ele><time>2026-04-11T05:47:28.86Z</time></trkpt><trkpt lat="40.9214517" lon="14.1766033"><ele>111.0</ele><time>2026-04-11T05:47:29.86Z</time></trkpt><trkpt lat="40.92148" lon="14.1765133"><ele>111.0</ele><time>2026-04-11T05:47:30.86Z</time></trkpt><trkpt lat="40.92151" lon="14.1764233"><ele>111.0</ele><time>2026-04-11T05:47:31.86Z</time></trkpt><trkpt lat="40.9215433" lon="14.176335"><ele>111.0</ele><time>2026-04-11T05:47:32.86Z</time></trkpt><trkpt lat="40.921575" lon="14.1762433"><ele>111.0</ele><time>2026-04-11T05:47:33.86Z</time></trkpt><trkpt lat="40.9216033" lon="14.1761533"><ele>111.0</ele><time>2026-04-11T05:47:34.86Z</time></trkpt><trkpt lat="40.9216317" lon="14.176065"><ele>111.0</ele><time>2026-04-11T05:47:35.86Z</time></trkpt><trkpt lat="40.9216617" lon="14.1759767"><ele>111.0</ele><time>2026-04-11T05:47:36.859Z</time></trkpt><trkpt lat="40.9216917" lon="14.175885"><ele>111.0</ele><time>2026-04-11T05:47:37.859Z</time></trkpt><trkpt lat="40.92172" lon="14.1757967"><ele>111.0</ele><time>2026-04-11T05:47:38.858Z</time></trkpt><trkpt lat="40.92175" lon="14.175705"><ele>111.0</ele><time>2026-04-11T05:47:39.86Z</time></trkpt><trkpt lat="40.92178" lon="14.1756183"><ele>111.0</ele><time>2026-04-11T05:47:40.86Z</time></trkpt><trkpt lat="40.92181" lon="14.1755283"><ele>111.0</ele><time>2026-04-11T05:47:41.86Z</time></trkpt><trkpt lat="40.9218383" lon="14.1754383"><ele>111.0</ele><time>2026-04-11T05:47:42.86Z</time></trkpt><trkpt lat="40.9218667" lon="14.17535"><ele>111.0</ele><time>2026-04-11T05:47:43.861Z</time></trkpt><trkpt lat="40.921895" lon="14.1752567"><ele>111.0</ele><time>2026-04-11T05:47:44.861Z</time></trkpt><trkpt lat="40.9219217" lon="14.1751617"><ele>111.0</ele><time>2026-04-11T05:47:45.859Z</time></trkpt><trkpt lat="40.9219517" lon="14.17507"><ele>111.0</ele><time>2026-04-11T05:47:46.86Z</time></trkpt><trkpt lat="40.9219783" lon="14.1749767"><ele>111.0</ele><time>2026-04-11T05:47:47.86Z</time></trkpt><trkpt lat="40.9220067" lon="14.1748817"><ele>111.0</ele><time>2026-04-11T05:47:48.861Z</time></trkpt><trkpt lat="40.9220333" lon="14.1747867"><ele>111.0</ele><time>2026-04-11T05:47:49.86Z</time></trkpt><trkpt lat="40.9220633" lon="14.1746917"><ele>111.0</ele><time>2026-04-11T05:47:50.86Z</time></trkpt><trkpt lat="40.92209" lon="14.1746017"><ele>111.0</ele><time>2026-04-11T05:47:51.858Z</time></trkpt><trkpt lat="40.92212" lon="14.1745083"><ele>111.0</ele><time>2026-04-11T05:47:52.86Z</time></trkpt><trkpt lat="40.92215" lon="14.1744117"><ele>111.0</ele><time>2026-04-11T05:47:53.86Z</time></trkpt><trkpt lat="40.92218" lon="14.1743217"><ele>111.0</ele><time>2026-04-11T05:47:54.862Z</time></trkpt><trkpt lat="40.9222083" lon="14.1742333"><ele>111.0</ele><time>2026-04-11T05:47:55.86Z</time></trkpt><trkpt lat="40.9222367" lon="14.174145"><ele>111.0</ele><time>2026-04-11T05:47:56.86Z</time></trkpt><trkpt lat="40.922265" lon="14.1740533"><ele>111.0</ele><time>2026-04-11T05:47:57.86Z</time></trkpt><trkpt lat="40.92229" lon="14.1739617"><ele>111.0</ele><time>2026-04-11T05:47:58.86Z</time></trkpt><trkpt lat="40.9223183" lon="14.17387"><ele>111.0</ele><time>2026-04-11T05:47:59.86Z</time></trkpt><trkpt lat="40.9223433" lon="14.1737783"><ele>111.0</ele><time>2026-04-11T05:48:00.863Z</time></trkpt><trkpt lat="40.92237" lon="14.1736883"><ele>111.0</ele><time>2026-04-11T05:48:01.862Z</time></trkpt><trkpt lat="40.9224" lon="14.1736"><ele>111.0</ele><time>2026-04-11T05:48:02.864Z</time></trkpt><trkpt lat="40.9224317" lon="14.173515"><ele>111.0</ele><time>2026-04-11T05:48:03.859Z</time></trkpt><trkpt lat="40.9224683" lon="14.173435"><ele>111.0</ele><time>2026-04-11T05:48:04.859Z</time></trkpt><trkpt lat="40.9225067" lon="14.1733533"><ele>111.0</ele><time>2026-04-11T05:48:05.86Z</time></trkpt><trkpt lat="40.9225433" lon="14.1732717"><ele>111.0</ele><time>2026-04-11T05:48:06.858Z</time></trkpt><trkpt lat="40.9225683" lon="14.17318"><ele>111.0</ele><time>2026-04-11T05:48:07.86Z</time></trkpt><trkpt lat="40.9225817" lon="14.173085"><ele>111.0</ele><time>2026-04-11T05:48:08.86Z</time></trkpt><trkpt lat="40.9225933" lon="14.17299"><ele>111.0</ele><time>2026-04-11T05:48:09.859Z</time></trkpt><trkpt lat="40.9226133" lon="14.1728867"><ele>111.0</ele><time>2026-04-11T05:48:10.86Z</time></trkpt><trkpt lat="40.92264" lon="14.1727883"><ele>111.0</ele><time>2026-04-11T05:48:11.861Z</time></trkpt><trkpt lat="40.9226717" lon="14.17269"><ele>111.0</ele><time>2026-04-11T05:48:12.859Z</time></trkpt><trkpt lat="40.9227017" lon="14.172595"><ele>111.0</ele><time>2026-04-11T05:48:13.861Z</time></trkpt><trkpt lat="40.9227317" lon="14.1725017"><ele>111.0</ele><time>2026-04-11T05:48:14.861Z</time></trkpt><trkpt lat="40.9227617" lon="14.1724067"><ele>111.0</ele><time>2026-04-11T05:48:15.86Z</time></trkpt><trkpt lat="40.9227933" lon="14.172315"><ele>111.0</ele><time>2026-04-11T05:48:16.859Z</time></trkpt><trkpt lat="40.9228233" lon="14.1722267"><ele>111.0</ele><time>2026-04-11T05:48:17.858Z</time></trkpt><trkpt lat="40.922855" lon="14.17214"><ele>111.0</ele><time>2026-04-11T05:48:18.861Z</time></trkpt><trkpt lat="40.9228833" lon="14.17205"><ele>111.0</ele><time>2026-04-11T05:48:19.861Z</time></trkpt><trkpt lat="40.9229117" lon="14.1719567"><ele>111.0</ele><time>2026-04-11T05:48:20.859Z</time></trkpt><trkpt lat="40.9229417" lon="14.171865"><ele>111.0</ele><time>2026-04-11T05:48:21.858Z</time></trkpt><trkpt lat="40.9229733" lon="14.171775"><ele>111.0</ele><time>2026-04-11T05:48:22.861Z</time></trkpt><trkpt lat="40.9230033" lon="14.171685"><ele>111.0</ele><time>2026-04-11T05:48:23.861Z</time></trkpt><trkpt lat="40.9230333" lon="14.1715917"><ele>111.0</ele><time>2026-04-11T05:48:24.86Z</time></trkpt><trkpt lat="40.9230617" lon="14.1714967"><ele>110.85714285714285</ele><time>2026-04-11T05:48:25.859Z</time></trkpt><trkpt lat="40.9230867" lon="14.1714083"><ele>110.71428571428572</ele><time>2026-04-11T05:48:26.86Z</time></trkpt><trkpt lat="40.9231167" lon="14.1713233"><ele>110.57142857142857</ele><time>2026-04-11T05:48:27.858Z</time></trkpt><trkpt lat="40.923145" lon="14.1712383"><ele>110.42857142857142</ele><time>2026-04-11T05:48:28.861Z</time></trkpt><trkpt lat="40.9231733" lon="14.1711517"><ele>110.28571428571428</ele><time>2026-04-11T05:48:29.861Z</time></trkpt><trkpt lat="40.9232033" lon="14.171065"><ele>110.14285714285714</ele><time>2026-04-11T05:48:30.86Z</time></trkpt><trkpt lat="40.9232317" lon="14.170975"><ele>110.0</ele><time>2026-04-11T05:48:31.86Z</time></trkpt><trkpt lat="40.9232583" lon="14.170885"><ele>109.99999999999999</ele><time>2026-04-11T05:48:32.862Z</time></trkpt><trkpt lat="40.9232833" lon="14.1708017"><ele>110.0</ele><time>2026-04-11T05:48:33.859Z</time></trkpt><trkpt lat="40.92331" lon="14.17071"><ele>110.0</ele><time>2026-04-11T05:48:34.862Z</time></trkpt><trkpt lat="40.9233367" lon="14.1706217"><ele>110.0</ele><time>2026-04-11T05:48:35.86Z</time></trkpt><trkpt lat="40.923365" lon="14.17053"><ele>110.0</ele><time>2026-04-11T05:48:36.862Z</time></trkpt><trkpt lat="40.9233933" lon="14.1704417"><ele>109.99999999999999</ele><time>2026-04-11T05:48:37.862Z</time></trkpt><trkpt lat="40.92342" lon="14.170355"><ele>110.0</ele><time>2026-04-11T05:48:38.859Z</time></trkpt><trkpt lat="40.9234533" lon="14.1702733"><ele>109.99999999999999</ele><time>2026-04-11T05:48:39.858Z</time></trkpt><trkpt lat="40.9234983" lon="14.1702033"><ele>110.0</ele><time>2026-04-11T05:48:40.862Z</time></trkpt><trkpt lat="40.9235533" lon="14.1701417"><ele>110.0</ele><time>2026-04-11T05:48:41.86Z</time></trkpt><trkpt lat="40.92361" lon="14.1700917"><ele>110.0</ele><time>2026-04-11T05:48:42.859Z</time></trkpt><trkpt lat="40.923665" lon="14.1700317"><ele>110.0</ele><time>2026-04-11T05:48:43.862Z</time></trkpt><trkpt lat="40.9237033" lon="14.1699567"><ele>109.99999999999999</ele><time>2026-04-11T05:48:44.862Z</time></trkpt><trkpt lat="40.9237317" lon="14.1698767"><ele>110.0</ele><time>2026-04-11T05:48:45.862Z</time></trkpt><trkpt lat="40.9237533" lon="14.1697883"><ele>109.99999999999999</ele><time>2026-04-11T05:48:46.859Z</time></trkpt><trkpt lat="40.92377" lon="14.169695"><ele>110.0</ele><time>2026-04-11T05:48:47.861Z</time></trkpt><trkpt lat="40.9237833" lon="14.1696"><ele>110.0</ele><time>2026-04-11T05:48:48.858Z</time></trkpt><trkpt lat="40.9237983" lon="14.1695083"><ele>110.0</ele><time>2026-04-11T05:48:49.86Z</time></trkpt><trkpt lat="40.92381" lon="14.169415"><ele>110.0</ele><time>2026-04-11T05:48:50.859Z</time></trkpt><trkpt lat="40.92382" lon="14.1693217"><ele>109.99999999999999</ele><time>2026-04-11T05:48:51.858Z</time></trkpt><trkpt lat="40.9238283" lon="14.1692233"><ele>110.0</ele><time>2026-04-11T05:48:52.861Z</time></trkpt><trkpt lat="40.9238433" lon="14.169125"><ele>109.99999999999999</ele><time>2026-04-11T05:48:53.861Z</time></trkpt><trkpt lat="40.9238633" lon="14.1690317"><ele>110.0</ele><time>2026-04-11T05:48:54.862Z</time></trkpt><trkpt lat="40.923885" lon="14.168935"><ele>110.0</ele><time>2026-04-11T05:48:55.859Z</time></trkpt><trkpt lat="40.9239067" lon="14.1688333"><ele>110.0</ele><time>2026-04-11T05:48:56.861Z</time></trkpt><trkpt lat="40.92393" lon="14.1687383"><ele>109.99999999999999</ele><time>2026-04-11T05:48:57.861Z</time></trkpt><trkpt lat="40.9239583" lon="14.1686467"><ele>110.0</ele><time>2026-04-11T05:48:58.862Z</time></trkpt><trkpt lat="40.9239883" lon="14.16856"><ele>109.99999999999999</ele><time>2026-04-11T05:48:59.861Z</time></trkpt><trkpt lat="40.92402" lon="14.1684733"><ele>110.0</ele><time>2026-04-11T05:49:00.862Z</time></trkpt><trkpt lat="40.92405" lon="14.1683817"><ele>110.0</ele><time>2026-04-11T05:49:01.86Z</time></trkpt><trkpt lat="40.9240783" lon="14.1682883"><ele>110.0</ele><time>2026-04-11T05:49:02.859Z</time></trkpt><trkpt lat="40.9241083" lon="14.1681917"><ele>109.99999999999999</ele><time>2026-04-11T05:49:03.859Z</time></trkpt><trkpt lat="40.924135" lon="14.1680967"><ele>110.0</ele><time>2026-04-11T05:49:04.862Z</time></trkpt><trkpt lat="40.9241567" lon="14.1680033"><ele>109.83333333333333</ele><time>2026-04-11T05:49:05.861Z</time></trkpt><trkpt lat="40.9241833" lon="14.1679117"><ele>109.66666666666666</ele><time>2026-04-11T05:49:06.86Z</time></trkpt><trkpt lat="40.9242133" lon="14.16782"><ele>109.5</ele><time>2026-04-11T05:49:07.861Z</time></trkpt><trkpt lat="40.9242417" lon="14.1677233"><ele>109.33333333333334</ele><time>2026-04-11T05:49:08.862Z</time></trkpt><trkpt lat="40.9242767" lon="14.1676317"><ele>109.16666666666667</ele><time>2026-04-11T05:49:09.859Z</time></trkpt><trkpt lat="40.9243117" lon="14.1675417"><ele>109.0</ele><time>2026-04-11T05:49:10.862Z</time></trkpt><trkpt lat="40.9243417" lon="14.1674483"><ele>108.66666666666667</ele><time>2026-04-11T05:49:11.859Z</time></trkpt><trkpt lat="40.9243717" lon="14.1673583"><ele>108.33333333333334</ele><time>2026-04-11T05:49:12.86Z</time></trkpt><trkpt lat="40.9244" lon="14.1672667"><ele>108.0</ele><time>2026-04-11T05:49:13.86Z</time></trkpt><trkpt lat="40.92443" lon="14.167175"><ele>107.66666666666666</ele><time>2026-04-11T05:49:14.861Z</time></trkpt><trkpt lat="40.9244617" lon="14.1670817"><ele>107.33333333333333</ele><time>2026-04-11T05:49:15.86Z</time></trkpt><trkpt lat="40.924495" lon="14.166985"><ele>107.0</ele><time>2026-04-11T05:49:16.86Z</time></trkpt><trkpt lat="40.924525" lon="14.16689"><ele>106.99999999999999</ele><time>2026-04-11T05:49:17.86Z</time></trkpt><trkpt lat="40.924555" lon="14.166795"><ele>107.0</ele><time>2026-04-11T05:49:18.861Z</time></trkpt><trkpt lat="40.924585" lon="14.1666967"><ele>107.0</ele><time>2026-04-11T05:49:19.86Z</time></trkpt><trkpt lat="40.924615" lon="14.1666017"><ele>107.0</ele><time>2026-04-11T05:49:20.861Z</time></trkpt><trkpt lat="40.9246433" lon="14.1665033"><ele>106.99999999999999</ele><time>2026-04-11T05:49:21.861Z</time></trkpt><trkpt lat="40.9246733" lon="14.166405"><ele>107.0</ele><time>2026-04-11T05:49:22.861Z</time></trkpt><trkpt lat="40.924705" lon="14.1663067"><ele>107.16666666666666</ele><time>2026-04-11T05:49:23.86Z</time></trkpt><trkpt lat="40.9247367" lon="14.1662117"><ele>107.33333333333333</ele><time>2026-04-11T05:49:24.86Z</time></trkpt><trkpt lat="40.924765" lon="14.1661183"><ele>107.5</ele><time>2026-04-11T05:49:25.86Z</time></trkpt><trkpt lat="40.9247917" lon="14.1660267"><ele>107.66666666666666</ele><time>2026-04-11T05:49:26.861Z</time></trkpt><trkpt lat="40.9248217" lon="14.1659333"><ele>107.83333333333333</ele><time>2026-04-11T05:49:27.862Z</time></trkpt><trkpt lat="40.9248517" lon="14.16584"><ele>108.0</ele><time>2026-04-11T05:49:28.861Z</time></trkpt><trkpt lat="40.92488" lon="14.1657467"><ele>107.83333333333333</ele><time>2026-04-11T05:49:29.861Z</time></trkpt><trkpt lat="40.9249117" lon="14.1656517"><ele>107.66666666666666</ele><time>2026-04-11T05:49:30.861Z</time></trkpt><trkpt lat="40.92494" lon="14.1655583"><ele>107.5</ele><time>2026-04-11T05:49:31.863Z</time></trkpt><trkpt lat="40.9249717" lon="14.1654633"><ele>107.33333333333333</ele><time>2026-04-11T05:49:32.858Z</time></trkpt><trkpt lat="40.9250017" lon="14.1653667"><ele>107.16666666666666</ele><time>2026-04-11T05:49:33.86Z</time></trkpt><trkpt lat="40.92503" lon="14.1652733"><ele>107.0</ele><time>2026-04-11T05:49:34.862Z</time></trkpt><trkpt lat="40.9250567" lon="14.1651817"><ele>106.99999999999999</ele><time>2026-04-11T05:49:35.861Z</time></trkpt><trkpt lat="40.925085" lon="14.165085"><ele>107.0</ele><time>2026-04-11T05:49:36.861Z</time></trkpt><trkpt lat="40.9251167" lon="14.1649867"><ele>107.0</ele><time>2026-04-11T05:49:37.86Z</time></trkpt><trkpt lat="40.9251467" lon="14.16489"><ele>107.0</ele><time>2026-04-11T05:49:38.861Z</time></trkpt><trkpt lat="40.9251783" lon="14.1647933"><ele>106.99999999999999</ele><time>2026-04-11T05:49:39.862Z</time></trkpt><trkpt lat="40.9252067" lon="14.1647"><ele>107.0</ele><time>2026-04-11T05:49:40.861Z</time></trkpt><trkpt lat="40.92524" lon="14.164605"><ele>106.99999999999999</ele><time>2026-04-11T05:49:41.86Z</time></trkpt><trkpt lat="40.9252733" lon="14.1645067"><ele>107.0</ele><time>2026-04-11T05:49:42.86Z</time></trkpt><trkpt lat="40.925305" lon="14.1644133"><ele>107.0</ele><time>2026-04-11T05:49:43.861Z</time></trkpt><trkpt lat="40.925335" lon="14.1643167"><ele>107.0</ele><time>2026-04-11T05:49:44.858Z</time></trkpt><trkpt lat="40.9253667" lon="14.1642217"><ele>106.99999999999999</ele><time>2026-04-11T05:49:45.858Z</time></trkpt><trkpt lat="40.925395" lon="14.1641233"><ele>107.0</ele><time>2026-04-11T05:49:46.861Z</time></trkpt><trkpt lat="40.925425" lon="14.1640233"><ele>106.66666666666666</ele><time>2026-04-11T05:49:47.861Z</time></trkpt><trkpt lat="40.9254533" lon="14.1639283"><ele>106.33333333333333</ele><time>2026-04-11T05:49:48.861Z</time></trkpt><trkpt lat="40.9254817" lon="14.1638333"><ele>106.0</ele><time>2026-04-11T05:49:49.859Z</time></trkpt><trkpt lat="40.9255117" lon="14.1637367"><ele>105.66666666666666</ele><time>2026-04-11T05:49:50.86Z</time></trkpt><trkpt lat="40.9255417" lon="14.1636433"><ele>105.33333333333333</ele><time>2026-04-11T05:49:51.859Z</time></trkpt><trkpt lat="40.92557" lon="14.16355"><ele>105.0</ele><time>2026-04-11T05:49:52.862Z</time></trkpt><trkpt lat="40.9255983" lon="14.1634533"><ele>105.0</ele><time>2026-04-11T05:49:53.859Z</time></trkpt><trkpt lat="40.9256283" lon="14.163355"><ele>105.0</ele><time>2026-04-11T05:49:54.86Z</time></trkpt><trkpt lat="40.9256583" lon="14.1632583"><ele>105.0</ele><time>2026-04-11T05:49:55.861Z</time></trkpt><trkpt lat="40.92569" lon="14.163165"><ele>105.0</ele><time>2026-04-11T05:49:56.862Z</time></trkpt><trkpt lat="40.9257183" lon="14.16307"><ele>105.0</ele><time>2026-04-11T05:49:57.86Z</time></trkpt><trkpt lat="40.92575" lon="14.162975"><ele>105.0</ele><time>2026-04-11T05:49:58.859Z</time></trkpt><trkpt lat="40.9257783" lon="14.16288"><ele>105.0</ele><time>2026-04-11T05:49:59.861Z</time></trkpt><trkpt lat="40.925805" lon="14.16279"><ele>105.0</ele><time>2026-04-11T05:50:00.86Z</time></trkpt><trkpt lat="40.9258333" lon="14.1626967"><ele>105.0</ele><time>2026-04-11T05:50:01.863Z</time></trkpt><trkpt lat="40.92586" lon="14.1626017"><ele>105.0</ele><time>2026-04-11T05:50:02.861Z</time></trkpt><trkpt lat="40.92589" lon="14.1625083"><ele>105.0</ele><time>2026-04-11T05:50:03.86Z</time></trkpt><trkpt lat="40.9259183" lon="14.162415"><ele>105.0</ele><time>2026-04-11T05:50:04.861Z</time></trkpt><trkpt lat="40.92595" lon="14.1623167"><ele>105.0</ele><time>2026-04-11T05:50:05.858Z</time></trkpt><trkpt lat="40.92598" lon="14.1622183"><ele>105.0</ele><time>2026-04-11T05:50:06.86Z</time></trkpt><trkpt lat="40.92601" lon="14.1621217"><ele>105.0</ele><time>2026-04-11T05:50:07.86Z</time></trkpt><trkpt lat="40.9260367" lon="14.1620267"><ele>105.0</ele><time>2026-04-11T05:50:08.859Z</time></trkpt><trkpt lat="40.926065" lon="14.1619317"><ele>105.0</ele><time>2026-04-11T05:50:09.86Z</time></trkpt><trkpt lat="40.92609" lon="14.16184"><ele>105.0</ele><time>2026-04-11T05:50:10.86Z</time></trkpt><trkpt lat="40.92612" lon="14.1617467"><ele>105.0</ele><time>2026-04-11T05:50:11.861Z</time></trkpt><trkpt lat="40.92615" lon="14.1616533"><ele>105.0</ele><time>2026-04-11T05:50:12.861Z</time></trkpt><trkpt lat="40.9261817" lon="14.1615617"><ele>105.0</ele><time>2026-04-11T05:50:13.861Z</time></trkpt><trkpt lat="40.926215" lon="14.1614767"><ele>105.0</ele><time>2026-04-11T05:50:14.86Z</time></trkpt><trkpt lat="40.9262933" lon="14.1613067"><ele>105.0</ele><time>2026-04-11T05:50:16.857Z</time></trkpt><trkpt lat="40.9263317" lon="14.1612233"><ele>105.0</ele><time>2026-04-11T05:50:17.859Z</time></trkpt><trkpt lat="40.9263717" lon="14.16115"><ele>104.85714285714286</ele><time>2026-04-11T05:50:18.858Z</time></trkpt><trkpt lat="40.9264033" lon="14.1610667"><ele>104.71428571428572</ele><time>2026-04-11T05:50:19.857Z</time></trkpt><trkpt lat="40.9264217" lon="14.1609783"><ele>104.57142857142857</ele><time>2026-04-11T05:50:20.858Z</time></trkpt><trkpt lat="40.9264317" lon="14.160895"><ele>104.42857142857143</ele><time>2026-04-11T05:50:21.858Z</time></trkpt><trkpt lat="40.9264367" lon="14.1607983"><ele>104.28571428571429</ele><time>2026-04-11T05:50:22.859Z</time></trkpt><trkpt lat="40.9264533" lon="14.1607067"><ele>104.14285714285714</ele><time>2026-04-11T05:50:23.858Z</time></trkpt><trkpt lat="40.9264783" lon="14.1606167"><ele>104.0</ele><time>2026-04-11T05:50:24.859Z</time></trkpt><trkpt lat="40.9265067" lon="14.16053"><ele>104.0</ele><time>2026-04-11T05:50:25.859Z</time></trkpt><trkpt lat="40.926535" lon="14.160445"><ele>104.0</ele><time>2026-04-11T05:50:26.858Z</time></trkpt><trkpt lat="40.9265567" lon="14.1603617"><ele>104.0</ele><time>2026-04-11T05:50:27.859Z</time></trkpt><trkpt lat="40.92658" lon="14.160275"><ele>104.0</ele><time>2026-04-11T05:50:28.859Z</time></trkpt><trkpt lat="40.9266083" lon="14.1601883"><ele>104.0</ele><time>2026-04-11T05:50:29.86Z</time></trkpt><trkpt lat="40.926635" lon="14.1601"><ele>104.0</ele><time>2026-04-11T05:50:30.86Z</time></trkpt><trkpt lat="40.9266617" lon="14.1600133"><ele>104.0</ele><time>2026-04-11T05:50:31.859Z</time></trkpt><trkpt lat="40.9266883" lon="14.15993"><ele>104.0</ele><time>2026-04-11T05:50:32.857Z</time></trkpt><trkpt lat="40.9267133" lon="14.15985"><ele>104.0</ele><time>2026-04-11T05:50:33.858Z</time></trkpt><trkpt lat="40.9267367" lon="14.1597717"><ele>104.0</ele><time>2026-04-11T05:50:34.858Z</time></trkpt><trkpt lat="40.9267833" lon="14.15962"><ele>104.0</ele><time>2026-04-11T05:50:36.857Z</time></trkpt><trkpt lat="40.9268267" lon="14.1594683"><ele>104.0</ele><time>2026-04-11T05:50:38.857Z</time></trkpt><trkpt lat="40.9268683" lon="14.1593133"><ele>103.6</ele><time>2026-04-11T05:50:40.856Z</time></trkpt><trkpt lat="40.9269117" lon="14.159165"><ele>103.2</ele><time>2026-04-11T05:50:42.857Z</time></trkpt><trkpt lat="40.9269583" lon="14.159015"><ele>102.8</ele><time>2026-04-11T05:50:44.858Z</time></trkpt><trkpt lat="40.926985" lon="14.1589333"><ele>102.39999999999999</ele><time>2026-04-11T05:50:45.857Z</time></trkpt><trkpt lat="40.9270117" lon="14.1588467"><ele>102.0</ele><time>2026-04-11T05:50:46.857Z</time></trkpt><trkpt lat="40.92704" lon="14.1587533"><ele>102.0</ele><time>2026-04-11T05:50:47.858Z</time></trkpt><trkpt lat="40.9270683" lon="14.158665"><ele>102.0</ele><time>2026-04-11T05:50:48.856Z</time></trkpt><trkpt lat="40.927095" lon="14.1585767"><ele>102.0</ele><time>2026-04-11T05:50:49.857Z</time></trkpt><trkpt lat="40.92712" lon="14.1584917"><ele>102.0</ele><time>2026-04-11T05:50:50.857Z</time></trkpt><trkpt lat="40.9271433" lon="14.1584"><ele>102.0</ele><time>2026-04-11T05:50:51.858Z</time></trkpt><trkpt lat="40.9271683" lon="14.1583133"><ele>102.0</ele><time>2026-04-11T05:50:52.857Z</time></trkpt><trkpt lat="40.92719" lon="14.1582283"><ele>102.0</ele><time>2026-04-11T05:50:53.858Z</time></trkpt><trkpt lat="40.92728" lon="14.15798"><ele>102.0</ele><time>2026-04-11T05:50:56.872Z</time></trkpt><trkpt lat="40.9273067" lon="14.1578933"><ele>102.0</ele><time>2026-04-11T05:50:57.858Z</time></trkpt><trkpt lat="40.927335" lon="14.157805"><ele>102.0</ele><time>2026-04-11T05:50:58.857Z</time></trkpt><trkpt lat="40.9273667" lon="14.1577183"><ele>102.0</ele><time>2026-04-11T05:50:59.858Z</time></trkpt><trkpt lat="40.9274017" lon="14.157635"><ele>102.0</ele><time>2026-04-11T05:51:00.857Z</time></trkpt><trkpt lat="40.92744" lon="14.1575517"><ele>102.0</ele><time>2026-04-11T05:51:01.857Z</time></trkpt><trkpt lat="40.9274683" lon="14.1574633"><ele>102.0</ele><time>2026-04-11T05:51:02.856Z</time></trkpt><trkpt lat="40.927495" lon="14.1573683"><ele>102.0</ele><time>2026-04-11T05:51:03.858Z</time></trkpt><trkpt lat="40.9275217" lon="14.1572783"><ele>102.0</ele><time>2026-04-11T05:51:04.859Z</time></trkpt><trkpt lat="40.9275417" lon="14.1571917"><ele>102.0</ele><time>2026-04-11T05:51:05.857Z</time></trkpt><trkpt lat="40.9275633" lon="14.157105"><ele>102.0</ele><time>2026-04-11T05:51:06.858Z</time></trkpt><trkpt lat="40.9275883" lon="14.1570167"><ele>102.0</ele><time>2026-04-11T05:51:07.859Z</time></trkpt><trkpt lat="40.927615" lon="14.1569283"><ele>102.0</ele><time>2026-04-11T05:51:08.858Z</time></trkpt><trkpt lat="40.92764" lon="14.1568433"><ele>102.0</ele><time>2026-04-11T05:51:09.858Z</time></trkpt><trkpt lat="40.9276617" lon="14.1567583"><ele>101.57142857142857</ele><time>2026-04-11T05:51:10.858Z</time></trkpt><trkpt lat="40.927685" lon="14.1566733"><ele>101.14285714285714</ele><time>2026-04-11T05:51:11.859Z</time></trkpt><trkpt lat="40.9277117" lon="14.1565883"><ele>100.71428571428572</ele><time>2026-04-11T05:51:12.857Z</time></trkpt><trkpt lat="40.9277367" lon="14.1565017"><ele>100.28571428571428</ele><time>2026-04-11T05:51:13.859Z</time></trkpt><trkpt lat="40.927765" lon="14.1564117"><ele>99.85714285714285</ele><time>2026-04-11T05:51:14.858Z</time></trkpt><trkpt lat="40.9277917" lon="14.156325"><ele>99.42857142857143</ele><time>2026-04-11T05:51:15.859Z</time></trkpt><trkpt lat="40.9278183" lon="14.15624"><ele>99.0</ele><time>2026-04-11T05:51:16.859Z</time></trkpt><trkpt lat="40.9278433" lon="14.1561483"><ele>98.83333333333333</ele><time>2026-04-11T05:51:17.86Z</time></trkpt><trkpt lat="40.92787" lon="14.156055"><ele>98.66666666666666</ele><time>2026-04-11T05:51:18.859Z</time></trkpt><trkpt lat="40.9279017" lon="14.1559633"><ele>98.5</ele><time>2026-04-11T05:51:19.86Z</time></trkpt><trkpt lat="40.9279317" lon="14.1558667"><ele>98.33333333333333</ele><time>2026-04-11T05:51:20.859Z</time></trkpt><trkpt lat="40.9279617" lon="14.1557717"><ele>98.16666666666666</ele><time>2026-04-11T05:51:21.858Z</time></trkpt><trkpt lat="40.9279917" lon="14.155675"><ele>98.0</ele><time>2026-04-11T05:51:22.86Z</time></trkpt><trkpt lat="40.928025" lon="14.155575"><ele>97.83333333333333</ele><time>2026-04-11T05:51:23.859Z</time></trkpt><trkpt lat="40.9280583" lon="14.155475"><ele>97.66666666666666</ele><time>2026-04-11T05:51:24.859Z</time></trkpt><trkpt lat="40.92809" lon="14.1553767"><ele>97.5</ele><time>2026-04-11T05:51:25.86Z</time></trkpt><trkpt lat="40.9281217" lon="14.1552767"><ele>97.33333333333334</ele><time>2026-04-11T05:51:26.859Z</time></trkpt><trkpt lat="40.9281533" lon="14.1551767"><ele>97.16666666666667</ele><time>2026-04-11T05:51:27.859Z</time></trkpt><trkpt lat="40.9281833" lon="14.1550783"><ele>97.0</ele><time>2026-04-11T05:51:28.861Z</time></trkpt><trkpt lat="40.9282183" lon="14.15498"><ele>97.00000000000001</ele><time>2026-04-11T05:51:29.859Z</time></trkpt><trkpt lat="40.9282517" lon="14.1548833"><ele>97.0</ele><time>2026-04-11T05:51:30.86Z</time></trkpt><trkpt lat="40.9282833" lon="14.1547817"><ele>97.0</ele><time>2026-04-11T05:51:31.859Z</time></trkpt><trkpt lat="40.928315" lon="14.1546817"><ele>97.0</ele><time>2026-04-11T05:51:32.859Z</time></trkpt><trkpt lat="40.9283467" lon="14.154585"><ele>97.00000000000001</ele><time>2026-04-11T05:51:33.859Z</time></trkpt><trkpt lat="40.9283767" lon="14.1544867"><ele>97.0</ele><time>2026-04-11T05:51:34.86Z</time></trkpt><trkpt lat="40.9284033" lon="14.1543867"><ele>97.16666666666667</ele><time>2026-04-11T05:51:35.86Z</time></trkpt><trkpt lat="40.928435" lon="14.15429"><ele>97.33333333333334</ele><time>2026-04-11T05:51:36.859Z</time></trkpt><trkpt lat="40.9284667" lon="14.1541917"><ele>97.5</ele><time>2026-04-11T05:51:37.86Z</time></trkpt><trkpt lat="40.9284983" lon="14.1540933"><ele>97.66666666666666</ele><time>2026-04-11T05:51:38.86Z</time></trkpt><trkpt lat="40.92853" lon="14.153995"><ele>97.83333333333333</ele><time>2026-04-11T05:51:39.859Z</time></trkpt><trkpt lat="40.9285633" lon="14.1538967"><ele>98.0</ele><time>2026-04-11T05:51:40.86Z</time></trkpt><trkpt lat="40.9285967" lon="14.1537983"><ele>97.66666666666666</ele><time>2026-04-11T05:51:41.859Z</time></trkpt><trkpt lat="40.9286283" lon="14.1536967"><ele>97.33333333333333</ele><time>2026-04-11T05:51:42.859Z</time></trkpt><trkpt lat="40.92866" lon="14.1535933"><ele>97.0</ele><time>2026-04-11T05:51:43.86Z</time></trkpt><trkpt lat="40.9286917" lon="14.1534933"><ele>96.66666666666666</ele><time>2026-04-11T05:51:44.86Z</time></trkpt><trkpt lat="40.9287267" lon="14.15339"><ele>96.33333333333333</ele><time>2026-04-11T05:51:45.86Z</time></trkpt><trkpt lat="40.9287633" lon="14.1532867"><ele>96.0</ele><time>2026-04-11T05:51:46.859Z</time></trkpt><trkpt lat="40.9287967" lon="14.1531817"><ele>95.83333333333333</ele><time>2026-04-11T05:51:47.86Z</time></trkpt><trkpt lat="40.92883" lon="14.1530783"><ele>95.66666666666667</ele><time>2026-04-11T05:51:48.86Z</time></trkpt><trkpt lat="40.9288567" lon="14.1529767"><ele>95.5</ele><time>2026-04-11T05:51:49.86Z</time></trkpt><trkpt lat="40.9288883" lon="14.15287"><ele>95.33333333333334</ele><time>2026-04-11T05:51:50.86Z</time></trkpt><trkpt lat="40.9289183" lon="14.152765"><ele>95.16666666666667</ele><time>2026-04-11T05:51:51.858Z</time></trkpt><trkpt lat="40.9289483" lon="14.15266"><ele>95.0</ele><time>2026-04-11T05:51:52.858Z</time></trkpt><trkpt lat="40.92898" lon="14.1525567"><ele>95.0</ele><time>2026-04-11T05:51:53.86Z</time></trkpt><trkpt lat="40.92901" lon="14.1524533"><ele>95.0</ele><time>2026-04-11T05:51:54.858Z</time></trkpt><trkpt lat="40.92904" lon="14.15235"><ele>95.0</ele><time>2026-04-11T05:51:55.86Z</time></trkpt><trkpt lat="40.9290667" lon="14.1522483"><ele>95.0</ele><time>2026-04-11T05:51:56.859Z</time></trkpt><trkpt lat="40.929095" lon="14.1521433"><ele>95.0</ele><time>2026-04-11T05:51:57.858Z</time></trkpt><trkpt lat="40.9291217" lon="14.1520367"><ele>95.0</ele><time>2026-04-11T05:51:58.858Z</time></trkpt><trkpt lat="40.929145" lon="14.151925"><ele>95.0</ele><time>2026-04-11T05:51:59.86Z</time></trkpt><trkpt lat="40.9291667" lon="14.1518183"><ele>95.0</ele><time>2026-04-11T05:52:00.859Z</time></trkpt><trkpt lat="40.9291867" lon="14.1517083"><ele>95.0</ele><time>2026-04-11T05:52:01.86Z</time></trkpt><trkpt lat="40.9292067" lon="14.151595"><ele>95.0</ele><time>2026-04-11T05:52:02.859Z</time></trkpt><trkpt lat="40.9292233" lon="14.1514817"><ele>95.0</ele><time>2026-04-11T05:52:03.861Z</time></trkpt><trkpt lat="40.9292367" lon="14.1513683"><ele>95.0</ele><time>2026-04-11T05:52:04.858Z</time></trkpt><trkpt lat="40.92925" lon="14.1512533"><ele>94.83333333333334</ele><time>2026-04-11T05:52:05.859Z</time></trkpt><trkpt lat="40.92926" lon="14.151145"><ele>94.66666666666667</ele><time>2026-04-11T05:52:06.86Z</time></trkpt><trkpt lat="40.9292683" lon="14.1510367"><ele>94.5</ele><time>2026-04-11T05:52:07.86Z</time></trkpt><trkpt lat="40.9292717" lon="14.1509267"><ele>94.33333333333333</ele><time>2026-04-11T05:52:08.859Z</time></trkpt><trkpt lat="40.9292733" lon="14.1508183"><ele>94.16666666666666</ele><time>2026-04-11T05:52:09.86Z</time></trkpt><trkpt lat="40.9292783" lon="14.1507083"><ele>94.0</ele><time>2026-04-11T05:52:10.859Z</time></trkpt><trkpt lat="40.929285" lon="14.1505933"><ele>93.83333333333333</ele><time>2026-04-11T05:52:11.858Z</time></trkpt><trkpt lat="40.9292917" lon="14.1504783"><ele>93.66666666666666</ele><time>2026-04-11T05:52:12.858Z</time></trkpt><trkpt lat="40.929295" lon="14.150365"><ele>93.5</ele><time>2026-04-11T05:52:13.858Z</time></trkpt><trkpt lat="40.9293017" lon="14.1502533"><ele>93.33333333333333</ele><time>2026-04-11T05:52:14.858Z</time></trkpt><trkpt lat="40.92931" lon="14.15015"><ele>93.16666666666667</ele><time>2026-04-11T05:52:15.857Z</time></trkpt><trkpt lat="40.9293167" lon="14.150045"><ele>93.0</ele><time>2026-04-11T05:52:16.859Z</time></trkpt><trkpt lat="40.9293233" lon="14.1499367"><ele>92.66666666666667</ele><time>2026-04-11T05:52:17.86Z</time></trkpt><trkpt lat="40.9293317" lon="14.14983"><ele>92.33333333333333</ele><time>2026-04-11T05:52:18.859Z</time></trkpt><trkpt lat="40.92934" lon="14.14972"><ele>92.0</ele><time>2026-04-11T05:52:19.857Z</time></trkpt><trkpt lat="40.9293517" lon="14.14961"><ele>91.66666666666666</ele><time>2026-04-11T05:52:20.859Z</time></trkpt><trkpt lat="40.9293633" lon="14.1495017"><ele>91.33333333333333</ele><time>2026-04-11T05:52:21.858Z</time></trkpt><trkpt lat="40.92937" lon="14.1493933"><ele>91.0</ele><time>2026-04-11T05:52:22.86Z</time></trkpt><trkpt lat="40.92938" lon="14.1492833"><ele>91.0</ele><time>2026-04-11T05:52:23.858Z</time></trkpt><trkpt lat="40.92939" lon="14.1491683"><ele>91.0</ele><time>2026-04-11T05:52:24.858Z</time></trkpt><trkpt lat="40.9293967" lon="14.1490517"><ele>91.0</ele><time>2026-04-11T05:52:25.86Z</time></trkpt><trkpt lat="40.929405" lon="14.1489317"><ele>91.0</ele><time>2026-04-11T05:52:26.859Z</time></trkpt><trkpt lat="40.92941" lon="14.148815"><ele>91.0</ele><time>2026-04-11T05:52:27.858Z</time></trkpt><trkpt lat="40.929415" lon="14.1486983"><ele>91.0</ele><time>2026-04-11T05:52:28.86Z</time></trkpt><trkpt lat="40.9294167" lon="14.1485867"><ele>90.5</ele><time>2026-04-11T05:52:29.86Z</time></trkpt><trkpt lat="40.92942" lon="14.1484767"><ele>90.0</ele><time>2026-04-11T05:52:30.859Z</time></trkpt><trkpt lat="40.9294267" lon="14.14837"><ele>89.5</ele><time>2026-04-11T05:52:31.86Z</time></trkpt><trkpt lat="40.9294367" lon="14.14826"><ele>89.0</ele><time>2026-04-11T05:52:32.859Z</time></trkpt><trkpt lat="40.9294517" lon="14.14815"><ele>88.5</ele><time>2026-04-11T05:52:33.858Z</time></trkpt><trkpt lat="40.929465" lon="14.14804"><ele>88.0</ele><time>2026-04-11T05:52:34.857Z</time></trkpt><trkpt lat="40.929475" lon="14.1479333"><ele>88.0</ele><time>2026-04-11T05:52:35.858Z</time></trkpt><trkpt lat="40.9294833" lon="14.14782"><ele>88.0</ele><time>2026-04-11T05:52:36.86Z</time></trkpt><trkpt lat="40.9294867" lon="14.1477133"><ele>88.0</ele><time>2026-04-11T05:52:37.86Z</time></trkpt><trkpt lat="40.9294917" lon="14.1476067"><ele>88.0</ele><time>2026-04-11T05:52:38.86Z</time></trkpt><trkpt lat="40.9294967" lon="14.1474983"><ele>88.0</ele><time>2026-04-11T05:52:39.86Z</time></trkpt><trkpt lat="40.9295017" lon="14.1473917"><ele>88.0</ele><time>2026-04-11T05:52:40.86Z</time></trkpt><trkpt lat="40.9295067" lon="14.1472867"><ele>88.0</ele><time>2026-04-11T05:52:41.859Z</time></trkpt><trkpt lat="40.92951" lon="14.14718"><ele>88.0</ele><time>2026-04-11T05:52:42.857Z</time></trkpt><trkpt lat="40.9295183" lon="14.14707"><ele>88.0</ele><time>2026-04-11T05:52:43.86Z</time></trkpt><trkpt lat="40.9295267" lon="14.1469583"><ele>88.0</ele><time>2026-04-11T05:52:44.859Z</time></trkpt><trkpt lat="40.9295317" lon="14.1468483"><ele>88.0</ele><time>2026-04-11T05:52:45.86Z</time></trkpt><trkpt lat="40.9295433" lon="14.1467367"><ele>88.0</ele><time>2026-04-11T05:52:46.86Z</time></trkpt><trkpt lat="40.9295633" lon="14.1466317"><ele>87.83333333333333</ele><time>2026-04-11T05:52:47.858Z</time></trkpt><trkpt lat="40.92959" lon="14.1465267"><ele>87.66666666666666</ele><time>2026-04-11T05:52:48.859Z</time></trkpt><trkpt lat="40.9296167" lon="14.1464217"><ele>87.5</ele><time>2026-04-11T05:52:49.86Z</time></trkpt><trkpt lat="40.9296433" lon="14.1463167"><ele>87.33333333333333</ele><time>2026-04-11T05:52:50.86Z</time></trkpt><trkpt lat="40.9296733" lon="14.1462117"><ele>87.16666666666667</ele><time>2026-04-11T05:52:51.86Z</time></trkpt><trkpt lat="40.9297" lon="14.146105"><ele>87.0</ele><time>2026-04-11T05:52:52.86Z</time></trkpt><trkpt lat="40.929725" lon="14.1459983"><ele>87.0</ele><time>2026-04-11T05:52:53.86Z</time></trkpt><trkpt lat="40.9297533" lon="14.1458983"><ele>87.0</ele><time>2026-04-11T05:52:54.86Z</time></trkpt><trkpt lat="40.9297833" lon="14.1458017"><ele>87.0</ele><time>2026-04-11T05:52:55.86Z</time></trkpt><trkpt lat="40.92981" lon="14.145705"><ele>87.0</ele><time>2026-04-11T05:52:56.859Z</time></trkpt><trkpt lat="40.92984" lon="14.1456083"><ele>87.0</ele><time>2026-04-11T05:52:57.858Z</time></trkpt><trkpt lat="40.9298733" lon="14.1455133"><ele>87.0</ele><time>2026-04-11T05:52:58.86Z</time></trkpt><trkpt lat="40.92991" lon="14.1454233"><ele>86.83333333333333</ele><time>2026-04-11T05:52:59.859Z</time></trkpt><trkpt lat="40.92996" lon="14.1453383"><ele>86.66666666666667</ele><time>2026-04-11T05:53:00.858Z</time></trkpt><trkpt lat="40.930005" lon="14.145255"><ele>86.5</ele><time>2026-04-11T05:53:01.86Z</time></trkpt><trkpt lat="40.9300417" lon="14.145165"><ele>86.33333333333334</ele><time>2026-04-11T05:53:02.86Z</time></trkpt><trkpt lat="40.93006" lon="14.1450683"><ele>86.16666666666667</ele><time>2026-04-11T05:53:03.859Z</time></trkpt><trkpt lat="40.93006" lon="14.14497"><ele>86.0</ele><time>2026-04-11T05:53:04.858Z</time></trkpt><trkpt lat="40.9300417" lon="14.144875"><ele>85.85714285714286</ele><time>2026-04-11T05:53:05.858Z</time></trkpt><trkpt lat="40.9300033" lon="14.1447917"><ele>85.71428571428572</ele><time>2026-04-11T05:53:06.863Z</time></trkpt><trkpt lat="40.9299533" lon="14.1447217"><ele>85.57142857142858</ele><time>2026-04-11T05:53:07.862Z</time></trkpt><trkpt lat="40.9298983" lon="14.1446583"><ele>85.42857142857143</ele><time>2026-04-11T05:53:08.859Z</time></trkpt><trkpt lat="40.929845" lon="14.1445933"><ele>85.28571428571428</ele><time>2026-04-11T05:53:09.86Z</time></trkpt><trkpt lat="40.929795" lon="14.14452"><ele>85.14285714285715</ele><time>2026-04-11T05:53:10.86Z</time></trkpt><trkpt lat="40.9297583" lon="14.1444367"><ele>85.0</ele><time>2026-04-11T05:53:11.86Z</time></trkpt><trkpt lat="40.9297367" lon="14.1443467"><ele>85.0</ele><time>2026-04-11T05:53:12.859Z</time></trkpt><trkpt lat="40.92972" lon="14.14425"><ele>85.0</ele><time>2026-04-11T05:53:13.86Z</time></trkpt><trkpt lat="40.9297117" lon="14.1441533"><ele>85.0</ele><time>2026-04-11T05:53:14.858Z</time></trkpt><trkpt lat="40.9297033" lon="14.1440617"><ele>85.0</ele><time>2026-04-11T05:53:15.86Z</time></trkpt><trkpt lat="40.9296983" lon="14.1439667"><ele>85.0</ele><time>2026-04-11T05:53:16.858Z</time></trkpt><trkpt lat="40.9296983" lon="14.14387"><ele>85.0</ele><time>2026-04-11T05:53:17.859Z</time></trkpt><trkpt lat="40.9297017" lon="14.1437717"><ele>85.0</ele><time>2026-04-11T05:53:18.86Z</time></trkpt><trkpt lat="40.9297067" lon="14.1436733"><ele>85.0</ele><time>2026-04-11T05:53:19.86Z</time></trkpt><trkpt lat="40.9297183" lon="14.1435717"><ele>85.0</ele><time>2026-04-11T05:53:20.859Z</time></trkpt><trkpt lat="40.9297233" lon="14.1434717"><ele>85.0</ele><time>2026-04-11T05:53:21.858Z</time></trkpt><trkpt lat="40.9297233" lon="14.14337"><ele>85.0</ele><time>2026-04-11T05:53:22.859Z</time></trkpt><trkpt lat="40.929725" lon="14.1432683"><ele>85.0</ele><time>2026-04-11T05:53:23.86Z</time></trkpt><trkpt lat="40.9297283" lon="14.1431617"><ele>85.0</ele><time>2026-04-11T05:53:24.859Z</time></trkpt><trkpt lat="40.9297317" lon="14.1430567"><ele>85.0</ele><time>2026-04-11T05:53:25.86Z</time></trkpt><trkpt lat="40.92974" lon="14.1429533"><ele>85.0</ele><time>2026-04-11T05:53:26.86Z</time></trkpt><trkpt lat="40.929745" lon="14.14285"><ele>85.0</ele><time>2026-04-11T05:53:27.86Z</time></trkpt><trkpt lat="40.9297483" lon="14.1427433"><ele>85.0</ele><time>2026-04-11T05:53:28.86Z</time></trkpt><trkpt lat="40.9297583" lon="14.1426383"><ele>85.0</ele><time>2026-04-11T05:53:29.86Z</time></trkpt><trkpt lat="40.929765" lon="14.1425333"><ele>85.0</ele><time>2026-04-11T05:53:30.859Z</time></trkpt><trkpt lat="40.929775" lon="14.142425"><ele>84.83333333333333</ele><time>2026-04-11T05:53:31.858Z</time></trkpt><trkpt lat="40.929785" lon="14.1423183"><ele>84.66666666666666</ele><time>2026-04-11T05:53:32.86Z</time></trkpt><trkpt lat="40.9297933" lon="14.1422083"><ele>84.5</ele><time>2026-04-11T05:53:33.859Z</time></trkpt><trkpt lat="40.9298033" lon="14.1421033"><ele>84.33333333333333</ele><time>2026-04-11T05:53:34.86Z</time></trkpt><trkpt lat="40.9298083" lon="14.1419933"><ele>84.16666666666667</ele><time>2026-04-11T05:53:35.859Z</time></trkpt><trkpt lat="40.9298167" lon="14.1418833"><ele>84.0</ele><time>2026-04-11T05:53:36.86Z</time></trkpt><trkpt lat="40.92982" lon="14.141775"><ele>84.0</ele><time>2026-04-11T05:53:37.86Z</time></trkpt><trkpt lat="40.9298283" lon="14.141665"><ele>84.0</ele><time>2026-04-11T05:53:38.86Z</time></trkpt><trkpt lat="40.9298367" lon="14.141555"><ele>84.0</ele><time>2026-04-11T05:53:39.859Z</time></trkpt><trkpt lat="40.9298467" lon="14.1414467"><ele>84.0</ele><time>2026-04-11T05:53:40.86Z</time></trkpt><trkpt lat="40.929855" lon="14.1413367"><ele>84.0</ele><time>2026-04-11T05:53:41.86Z</time></trkpt><trkpt lat="40.92986" lon="14.1412283"><ele>84.0</ele><time>2026-04-11T05:53:42.86Z</time></trkpt><trkpt lat="40.9298633" lon="14.1411233"><ele>84.16666666666667</ele><time>2026-04-11T05:53:43.86Z</time></trkpt><trkpt lat="40.9298667" lon="14.141015"><ele>84.33333333333333</ele><time>2026-04-11T05:53:44.859Z</time></trkpt><trkpt lat="40.92987" lon="14.14091"><ele>84.5</ele><time>2026-04-11T05:53:45.858Z</time></trkpt><trkpt lat="40.9298767" lon="14.140805"><ele>84.66666666666666</ele><time>2026-04-11T05:53:46.86Z</time></trkpt><trkpt lat="40.929885" lon="14.1407"><ele>84.83333333333333</ele><time>2026-04-11T05:53:47.86Z</time></trkpt><trkpt lat="40.929895" lon="14.1405917"><ele>85.0</ele><time>2026-04-11T05:53:48.859Z</time></trkpt><trkpt lat="40.9299017" lon="14.140485"><ele>85.0</ele><time>2026-04-11T05:53:49.86Z</time></trkpt><trkpt lat="40.9299083" lon="14.1403783"><ele>85.0</ele><time>2026-04-11T05:53:50.86Z</time></trkpt><trkpt lat="40.9299133" lon="14.1402733"><ele>85.0</ele><time>2026-04-11T05:53:51.858Z</time></trkpt><trkpt lat="40.9299183" lon="14.140165"><ele>85.0</ele><time>2026-04-11T05:53:52.86Z</time></trkpt><trkpt lat="40.9299267" lon="14.1400567"><ele>85.0</ele><time>2026-04-11T05:53:53.86Z</time></trkpt><trkpt lat="40.9299333" lon="14.1399483"><ele>85.0</ele><time>2026-04-11T05:53:54.86Z</time></trkpt><trkpt lat="40.9299383" lon="14.13984"><ele>85.0</ele><time>2026-04-11T05:53:55.858Z</time></trkpt><trkpt lat="40.92994" lon="14.1397317"><ele>85.0</ele><time>2026-04-11T05:53:56.859Z</time></trkpt><trkpt lat="40.929945" lon="14.13962"><ele>85.0</ele><time>2026-04-11T05:53:57.858Z</time></trkpt><trkpt lat="40.9299517" lon="14.1395067"><ele>85.0</ele><time>2026-04-11T05:53:58.86Z</time></trkpt><trkpt lat="40.9299583" lon="14.139395"><ele>85.0</ele><time>2026-04-11T05:53:59.859Z</time></trkpt><trkpt lat="40.9299667" lon="14.1392817"><ele>85.0</ele><time>2026-04-11T05:54:00.859Z</time></trkpt><trkpt lat="40.92997" lon="14.13917"><ele>85.0</ele><time>2026-04-11T05:54:01.86Z</time></trkpt><trkpt lat="40.9299767" lon="14.13906"><ele>85.0</ele><time>2026-04-11T05:54:02.859Z</time></trkpt><trkpt lat="40.929985" lon="14.13895"><ele>85.0</ele><time>2026-04-11T05:54:03.86Z</time></trkpt><trkpt lat="40.9299967" lon="14.13884"><ele>85.0</ele><time>2026-04-11T05:54:04.86Z</time></trkpt><trkpt lat="40.9299967" lon="14.1387267"><ele>85.0</ele><time>2026-04-11T05:54:05.86Z</time></trkpt><trkpt lat="40.93" lon="14.138615"><ele>85.0</ele><time>2026-04-11T05:54:06.86Z</time></trkpt><trkpt lat="40.930005" lon="14.1385067"><ele>85.16666666666666</ele><time>2026-04-11T05:54:07.86Z</time></trkpt><trkpt lat="40.9300117" lon="14.1384"><ele>85.33333333333333</ele><time>2026-04-11T05:54:08.86Z</time></trkpt><trkpt lat="40.9300167" lon="14.1382917"><ele>85.5</ele><time>2026-04-11T05:54:09.86Z</time></trkpt><trkpt lat="40.9300167" lon="14.138185"><ele>85.66666666666667</ele><time>2026-04-11T05:54:10.86Z</time></trkpt><trkpt lat="40.9300217" lon="14.1380783"><ele>85.83333333333334</ele><time>2026-04-11T05:54:11.858Z</time></trkpt><trkpt lat="40.930025" lon="14.13797"><ele>86.0</ele><time>2026-04-11T05:54:12.859Z</time></trkpt><trkpt lat="40.9300317" lon="14.137865"><ele>86.0</ele><time>2026-04-11T05:54:13.858Z</time></trkpt><trkpt lat="40.930035" lon="14.137755"><ele>86.0</ele><time>2026-04-11T05:54:14.859Z</time></trkpt><trkpt lat="40.93004" lon="14.1376467"><ele>86.0</ele><time>2026-04-11T05:54:15.859Z</time></trkpt><trkpt lat="40.9300433" lon="14.1375383"><ele>86.0</ele><time>2026-04-11T05:54:16.86Z</time></trkpt><trkpt lat="40.9300467" lon="14.137435"><ele>86.0</ele><time>2026-04-11T05:54:17.859Z</time></trkpt><trkpt lat="40.9300517" lon="14.13733"><ele>86.0</ele><time>2026-04-11T05:54:18.86Z</time></trkpt><trkpt lat="40.930055" lon="14.1372233"><ele>86.0</ele><time>2026-04-11T05:54:19.86Z</time></trkpt><trkpt lat="40.9300567" lon="14.13712"><ele>86.0</ele><time>2026-04-11T05:54:20.859Z</time></trkpt><trkpt lat="40.93006" lon="14.1370167"><ele>86.0</ele><time>2026-04-11T05:54:21.86Z</time></trkpt><trkpt lat="40.930065" lon="14.1369133"><ele>86.0</ele><time>2026-04-11T05:54:22.86Z</time></trkpt><trkpt lat="40.93007" lon="14.1368033"><ele>86.0</ele><time>2026-04-11T05:54:23.859Z</time></trkpt><trkpt lat="40.9300783" lon="14.136695"><ele>86.0</ele><time>2026-04-11T05:54:24.859Z</time></trkpt><trkpt lat="40.93009" lon="14.1365833"><ele>85.33333333333334</ele><time>2026-04-11T05:54:25.859Z</time></trkpt><trkpt lat="40.9300933" lon="14.1364717"><ele>84.66666666666667</ele><time>2026-04-11T05:54:26.86Z</time></trkpt><trkpt lat="40.9300983" lon="14.1363617"><ele>84.0</ele><time>2026-04-11T05:54:27.86Z</time></trkpt><trkpt lat="40.930105" lon="14.1362517"><ele>83.33333333333333</ele><time>2026-04-11T05:54:28.86Z</time></trkpt><trkpt lat="40.9301133" lon="14.1361433"><ele>82.66666666666666</ele><time>2026-04-11T05:54:29.859Z</time></trkpt><trkpt lat="40.9301217" lon="14.136035"><ele>82.0</ele><time>2026-04-11T05:54:30.86Z</time></trkpt><trkpt lat="40.9301233" lon="14.135935"><ele>82.0</ele><time>2026-04-11T05:54:31.86Z</time></trkpt><trkpt lat="40.9301283" lon="14.13583"><ele>82.0</ele><time>2026-04-11T05:54:32.86Z</time></trkpt><trkpt lat="40.93013" lon="14.13572"><ele>82.0</ele><time>2026-04-11T05:54:33.86Z</time></trkpt><trkpt lat="40.930135" lon="14.1356067"><ele>82.0</ele><time>2026-04-11T05:54:34.86Z</time></trkpt><trkpt lat="40.9301417" lon="14.1354917"><ele>82.0</ele><time>2026-04-11T05:54:35.859Z</time></trkpt><trkpt lat="40.9301483" lon="14.135385"><ele>82.0</ele><time>2026-04-11T05:54:36.86Z</time></trkpt><trkpt lat="40.930155" lon="14.1352767"><ele>82.0</ele><time>2026-04-11T05:54:37.86Z</time></trkpt><trkpt lat="40.93016" lon="14.13517"><ele>82.0</ele><time>2026-04-11T05:54:38.859Z</time></trkpt><trkpt lat="40.930165" lon="14.13506"><ele>82.0</ele><time>2026-04-11T05:54:39.858Z</time></trkpt><trkpt lat="40.9301717" lon="14.1349483"><ele>82.0</ele><time>2026-04-11T05:54:40.859Z</time></trkpt><trkpt lat="40.9301783" lon="14.13484"><ele>82.0</ele><time>2026-04-11T05:54:41.86Z</time></trkpt><trkpt lat="40.9301833" lon="14.13473"><ele>82.0</ele><time>2026-04-11T05:54:42.86Z</time></trkpt><trkpt lat="40.9301933" lon="14.134625"><ele>82.16666666666666</ele><time>2026-04-11T05:54:43.86Z</time></trkpt><trkpt lat="40.9302" lon="14.134515"><ele>82.33333333333333</ele><time>2026-04-11T05:54:44.86Z</time></trkpt><trkpt lat="40.9302" lon="14.13441"><ele>82.5</ele><time>2026-04-11T05:54:45.859Z</time></trkpt><trkpt lat="40.9302017" lon="14.1343"><ele>82.66666666666667</ele><time>2026-04-11T05:54:46.86Z</time></trkpt><trkpt lat="40.9302067" lon="14.13419"><ele>82.83333333333334</ele><time>2026-04-11T05:54:47.86Z</time></trkpt><trkpt lat="40.93021" lon="14.13408"><ele>83.0</ele><time>2026-04-11T05:54:48.86Z</time></trkpt><trkpt lat="40.93022" lon="14.1339667"><ele>82.66666666666667</ele><time>2026-04-11T05:54:49.86Z</time></trkpt><trkpt lat="40.9302283" lon="14.1338533"><ele>82.33333333333334</ele><time>2026-04-11T05:54:50.86Z</time></trkpt><trkpt lat="40.9302333" lon="14.1337417"><ele>82.0</ele><time>2026-04-11T05:54:51.859Z</time></trkpt><trkpt lat="40.9302383" lon="14.13363"><ele>81.66666666666667</ele><time>2026-04-11T05:54:52.86Z</time></trkpt><trkpt lat="40.9302417" lon="14.1335233"><ele>81.33333333333333</ele><time>2026-04-11T05:54:53.86Z</time></trkpt><trkpt lat="40.9302483" lon="14.133415"><ele>81.0</ele><time>2026-04-11T05:54:54.862Z</time></trkpt><trkpt lat="40.9302583" lon="14.133305"><ele>80.83333333333333</ele><time>2026-04-11T05:54:55.86Z</time></trkpt><trkpt lat="40.9302633" lon="14.1331917"><ele>80.66666666666667</ele><time>2026-04-11T05:54:56.859Z</time></trkpt><trkpt lat="40.9302667" lon="14.13308"><ele>80.5</ele><time>2026-04-11T05:54:57.858Z</time></trkpt><trkpt lat="40.9302667" lon="14.13297"><ele>80.33333333333334</ele><time>2026-04-11T05:54:58.859Z</time></trkpt><trkpt lat="40.9302717" lon="14.13286"><ele>80.16666666666667</ele><time>2026-04-11T05:54:59.859Z</time></trkpt><trkpt lat="40.9302783" lon="14.13275"><ele>80.0</ele><time>2026-04-11T05:55:00.861Z</time></trkpt><trkpt lat="40.9302817" lon="14.1326367"><ele>80.0</ele><time>2026-04-11T05:55:01.862Z</time></trkpt><trkpt lat="40.930285" lon="14.1325217"><ele>80.0</ele><time>2026-04-11T05:55:02.859Z</time></trkpt><trkpt lat="40.9302883" lon="14.13241"><ele>80.0</ele><time>2026-04-11T05:55:03.858Z</time></trkpt><trkpt lat="40.93029" lon="14.1322983"><ele>80.0</ele><time>2026-04-11T05:55:04.859Z</time></trkpt><trkpt lat="40.9302933" lon="14.1321867"><ele>80.0</ele><time>2026-04-11T05:55:05.861Z</time></trkpt><trkpt lat="40.930295" lon="14.1320767"><ele>80.0</ele><time>2026-04-11T05:55:06.86Z</time></trkpt><trkpt lat="40.9302967" lon="14.1319683"><ele>80.0</ele><time>2026-04-11T05:55:07.86Z</time></trkpt><trkpt lat="40.9303017" lon="14.1318617"><ele>80.0</ele><time>2026-04-11T05:55:08.86Z</time></trkpt><trkpt lat="40.9303083" lon="14.1317583"><ele>80.0</ele><time>2026-04-11T05:55:09.86Z</time></trkpt><trkpt lat="40.9303167" lon="14.1316567"><ele>80.0</ele><time>2026-04-11T05:55:10.86Z</time></trkpt><trkpt lat="40.9303383" lon="14.1315567"><ele>80.0</ele><time>2026-04-11T05:55:11.86Z</time></trkpt><trkpt lat="40.930365" lon="14.1314483"><ele>80.0</ele><time>2026-04-11T05:55:12.86Z</time></trkpt><trkpt lat="40.93039" lon="14.1313417"><ele>80.0</ele><time>2026-04-11T05:55:13.859Z</time></trkpt><trkpt lat="40.930415" lon="14.1312417"><ele>80.0</ele><time>2026-04-11T05:55:14.86Z</time></trkpt><trkpt lat="40.9304533" lon="14.131145"><ele>80.0</ele><time>2026-04-11T05:55:15.859Z</time></trkpt><trkpt lat="40.930505" lon="14.13106"><ele>80.0</ele><time>2026-04-11T05:55:16.859Z</time></trkpt><trkpt lat="40.930535" lon="14.1309533"><ele>80.0</ele><time>2026-04-11T05:55:17.861Z</time></trkpt><trkpt lat="40.9305517" lon="14.130845"><ele>80.0</ele><time>2026-04-11T05:55:18.86Z</time></trkpt><trkpt lat="40.9305567" lon="14.130725"><ele>80.0</ele><time>2026-04-11T05:55:19.858Z</time></trkpt><trkpt lat="40.9305567" lon="14.1306117"><ele>80.0</ele><time>2026-04-11T05:55:20.859Z</time></trkpt><trkpt lat="40.93056" lon="14.1305017"><ele>80.0</ele><time>2026-04-11T05:55:21.859Z</time></trkpt><trkpt lat="40.9305667" lon="14.1303917"><ele>80.0</ele><time>2026-04-11T05:55:22.86Z</time></trkpt><trkpt lat="40.9305767" lon="14.1302783"><ele>80.0</ele><time>2026-04-11T05:55:23.86Z</time></trkpt><trkpt lat="40.930585" lon="14.130165"><ele>80.0</ele><time>2026-04-11T05:55:24.86Z</time></trkpt><trkpt lat="40.93059" lon="14.1300533"><ele>80.0</ele><time>2026-04-11T05:55:25.861Z</time></trkpt><trkpt lat="40.9305933" lon="14.1299383"><ele>80.0</ele><time>2026-04-11T05:55:26.86Z</time></trkpt><trkpt lat="40.9306" lon="14.129825"><ele>80.0</ele><time>2026-04-11T05:55:27.859Z</time></trkpt><trkpt lat="40.9305983" lon="14.129715"><ele>80.0</ele><time>2026-04-11T05:55:28.86Z</time></trkpt><trkpt lat="40.9305983" lon="14.1295983"><ele>80.0</ele><time>2026-04-11T05:55:29.861Z</time></trkpt><trkpt lat="40.9306033" lon="14.12948"><ele>80.0</ele><time>2026-04-11T05:55:30.86Z</time></trkpt><trkpt lat="40.9306067" lon="14.1293633"><ele>80.0</ele><time>2026-04-11T05:55:31.86Z</time></trkpt><trkpt lat="40.9306133" lon="14.1292517"><ele>80.0</ele><time>2026-04-11T05:55:32.861Z</time></trkpt><trkpt lat="40.93062" lon="14.1291367"><ele>80.0</ele><time>2026-04-11T05:55:33.859Z</time></trkpt><trkpt lat="40.93063" lon="14.129025"><ele>80.0</ele><time>2026-04-11T05:55:34.86Z</time></trkpt><trkpt lat="40.9306417" lon="14.1289117"><ele>80.0</ele><time>2026-04-11T05:55:35.859Z</time></trkpt><trkpt lat="40.9306517" lon="14.1287967"><ele>80.0</ele><time>2026-04-11T05:55:36.86Z</time></trkpt><trkpt lat="40.9306633" lon="14.12868"><ele>79.66666666666667</ele><time>2026-04-11T05:55:37.86Z</time></trkpt><trkpt lat="40.9306683" lon="14.1285617"><ele>79.33333333333334</ele><time>2026-04-11T05:55:38.86Z</time></trkpt><trkpt lat="40.9306783" lon="14.1284467"><ele>79.0</ele><time>2026-04-11T05:55:39.859Z</time></trkpt><trkpt lat="40.93069" lon="14.1283317"><ele>78.66666666666667</ele><time>2026-04-11T05:55:40.859Z</time></trkpt><trkpt lat="40.930695" lon="14.1282183"><ele>78.33333333333333</ele><time>2026-04-11T05:55:41.86Z</time></trkpt><trkpt lat="40.9307033" lon="14.1281"><ele>78.0</ele><time>2026-04-11T05:55:42.858Z</time></trkpt><trkpt lat="40.9307117" lon="14.1279817"><ele>78.0</ele><time>2026-04-11T05:55:43.859Z</time></trkpt><trkpt lat="40.9307233" lon="14.127865"><ele>78.0</ele><time>2026-04-11T05:55:44.86Z</time></trkpt><trkpt lat="40.93073" lon="14.1277517"><ele>78.0</ele><time>2026-04-11T05:55:45.859Z</time></trkpt><trkpt lat="40.9307367" lon="14.1276367"><ele>78.0</ele><time>2026-04-11T05:55:46.86Z</time></trkpt><trkpt lat="40.9307433" lon="14.12752"><ele>78.0</ele><time>2026-04-11T05:55:47.862Z</time></trkpt><trkpt lat="40.93075" lon="14.1274017"><ele>78.0</ele><time>2026-04-11T05:55:48.861Z</time></trkpt><trkpt lat="40.9307533" lon="14.127285"><ele>78.16666666666667</ele><time>2026-04-11T05:55:49.86Z</time></trkpt><trkpt lat="40.9307583" lon="14.1271667"><ele>78.33333333333333</ele><time>2026-04-11T05:55:50.858Z</time></trkpt><trkpt lat="40.930765" lon="14.1270483"><ele>78.5</ele><time>2026-04-11T05:55:51.861Z</time></trkpt><trkpt lat="40.9307683" lon="14.1269283"><ele>78.66666666666666</ele><time>2026-04-11T05:55:52.858Z</time></trkpt><trkpt lat="40.9307667" lon="14.1268133"><ele>78.83333333333333</ele><time>2026-04-11T05:55:53.86Z</time></trkpt><trkpt lat="40.9307683" lon="14.1266933"><ele>79.0</ele><time>2026-04-11T05:55:54.86Z</time></trkpt><trkpt lat="40.9307667" lon="14.1265817"><ele>78.5</ele><time>2026-04-11T05:55:55.861Z</time></trkpt><trkpt lat="40.930765" lon="14.1264717"><ele>78.0</ele><time>2026-04-11T05:55:56.862Z</time></trkpt><trkpt lat="40.93077" lon="14.1263567"><ele>77.5</ele><time>2026-04-11T05:55:57.858Z</time></trkpt><trkpt lat="40.9307767" lon="14.1262383"><ele>77.0</ele><time>2026-04-11T05:55:58.859Z</time></trkpt><trkpt lat="40.9307817" lon="14.1261117"><ele>76.5</ele><time>2026-04-11T05:55:59.86Z</time></trkpt><trkpt lat="40.9307883" lon="14.12599"><ele>76.0</ele><time>2026-04-11T05:56:00.86Z</time></trkpt><trkpt lat="40.930795" lon="14.1258683"><ele>76.0</ele><time>2026-04-11T05:56:01.86Z</time></trkpt><trkpt lat="40.9308033" lon="14.125745"><ele>76.0</ele><time>2026-04-11T05:56:02.86Z</time></trkpt><trkpt lat="40.93081" lon="14.1256217"><ele>76.0</ele><time>2026-04-11T05:56:03.858Z</time></trkpt><trkpt lat="40.9308133" lon="14.1255017"><ele>76.0</ele><time>2026-04-11T05:56:04.86Z</time></trkpt><trkpt lat="40.9308183" lon="14.1253833"><ele>76.0</ele><time>2026-04-11T05:56:05.862Z</time></trkpt><trkpt lat="40.9308233" lon="14.1252617"><ele>75.66666666666666</ele><time>2026-04-11T05:56:06.86Z</time></trkpt><trkpt lat="40.93082" lon="14.125145"><ele>75.33333333333333</ele><time>2026-04-11T05:56:07.863Z</time></trkpt><trkpt lat="40.930815" lon="14.1250267"><ele>75.0</ele><time>2026-04-11T05:56:08.859Z</time></trkpt><trkpt lat="40.9308083" lon="14.1249083"><ele>74.66666666666667</ele><time>2026-04-11T05:56:09.858Z</time></trkpt><trkpt lat="40.9308" lon="14.1247933"><ele>74.33333333333334</ele><time>2026-04-11T05:56:10.86Z</time></trkpt><trkpt lat="40.9307917" lon="14.124675"><ele>74.0</ele><time>2026-04-11T05:56:11.86Z</time></trkpt><trkpt lat="40.9307783" lon="14.1245583"><ele>74.0</ele><time>2026-04-11T05:56:12.862Z</time></trkpt><trkpt lat="40.9307667" lon="14.1244433"><ele>74.0</ele><time>2026-04-11T05:56:13.86Z</time></trkpt><trkpt lat="40.93076" lon="14.124325"><ele>74.0</ele><time>2026-04-11T05:56:14.86Z</time></trkpt><trkpt lat="40.9307583" lon="14.12421"><ele>74.0</ele><time>2026-04-11T05:56:15.86Z</time></trkpt><trkpt lat="40.930755" lon="14.12409"><ele>74.0</ele><time>2026-04-11T05:56:16.86Z</time></trkpt><trkpt lat="40.9307517" lon="14.12397"><ele>74.0</ele><time>2026-04-11T05:56:17.862Z</time></trkpt><trkpt lat="40.9307517" lon="14.12385"><ele>74.2</ele><time>2026-04-11T05:56:18.859Z</time></trkpt><trkpt lat="40.93075" lon="14.1237283"><ele>74.4</ele><time>2026-04-11T05:56:19.863Z</time></trkpt><trkpt lat="40.9307483" lon="14.1236067"><ele>74.6</ele><time>2026-04-11T05:56:20.861Z</time></trkpt><trkpt lat="40.9307533" lon="14.1234833"><ele>74.8</ele><time>2026-04-11T05:56:21.862Z</time></trkpt><trkpt lat="40.9307567" lon="14.123365"><ele>75.0</ele><time>2026-04-11T05:56:22.861Z</time></trkpt><trkpt lat="40.9307583" lon="14.1232467"><ele>74.8</ele><time>2026-04-11T05:56:23.861Z</time></trkpt><trkpt lat="40.9307633" lon="14.123125"><ele>74.6</ele><time>2026-04-11T05:56:24.859Z</time></trkpt><trkpt lat="40.9307633" lon="14.123005"><ele>74.4</ele><time>2026-04-11T05:56:25.863Z</time></trkpt><trkpt lat="40.93076" lon="14.1228817"><ele>74.2</ele><time>2026-04-11T05:56:26.861Z</time></trkpt><trkpt lat="40.9307567" lon="14.12276"><ele>74.0</ele><time>2026-04-11T05:56:27.861Z</time></trkpt><trkpt lat="40.9307533" lon="14.1226433"><ele>74.0</ele><time>2026-04-11T05:56:28.862Z</time></trkpt><trkpt lat="40.9307533" lon="14.1225233"><ele>74.0</ele><time>2026-04-11T05:56:29.86Z</time></trkpt><trkpt lat="40.9307517" lon="14.122405"><ele>74.0</ele><time>2026-04-11T05:56:30.86Z</time></trkpt><trkpt lat="40.9307483" lon="14.1222883"><ele>74.0</ele><time>2026-04-11T05:56:31.86Z</time></trkpt><trkpt lat="40.9307483" lon="14.12216"><ele>74.0</ele><time>2026-04-11T05:56:32.861Z</time></trkpt><trkpt lat="40.9307333" lon="14.122045"><ele>73.4</ele><time>2026-04-11T05:56:33.86Z</time></trkpt><trkpt lat="40.9307383" lon="14.1219267"><ele>72.80000000000001</ele><time>2026-04-11T05:56:34.86Z</time></trkpt><trkpt lat="40.9307483" lon="14.121805"><ele>72.19999999999999</ele><time>2026-04-11T05:56:35.859Z</time></trkpt><trkpt lat="40.9307567" lon="14.1216867"><ele>71.6</ele><time>2026-04-11T05:56:36.86Z</time></trkpt><trkpt lat="40.93076" lon="14.1215633"><ele>71.0</ele><time>2026-04-11T05:56:37.861Z</time></trkpt><trkpt lat="40.9307633" lon="14.1214483"><ele>70.5</ele><time>2026-04-11T05:56:38.86Z</time></trkpt><trkpt lat="40.930765" lon="14.12133"><ele>70.0</ele><time>2026-04-11T05:56:39.86Z</time></trkpt><trkpt lat="40.9307667" lon="14.1212133"><ele>69.5</ele><time>2026-04-11T05:56:40.859Z</time></trkpt><trkpt lat="40.93077" lon="14.1210983"><ele>69.0</ele><time>2026-04-11T05:56:41.86Z</time></trkpt><trkpt lat="40.9307717" lon="14.1209817"><ele>68.5</ele><time>2026-04-11T05:56:42.859Z</time></trkpt><trkpt lat="40.93077" lon="14.1208683"><ele>68.0</ele><time>2026-04-11T05:56:43.861Z</time></trkpt><trkpt lat="40.93077" lon="14.12075"><ele>67.83333333333334</ele><time>2026-04-11T05:56:44.86Z</time></trkpt><trkpt lat="40.93077" lon="14.1206333"><ele>67.66666666666667</ele><time>2026-04-11T05:56:45.859Z</time></trkpt><trkpt lat="40.9307717" lon="14.12052"><ele>67.5</ele><time>2026-04-11T05:56:46.862Z</time></trkpt><trkpt lat="40.93078" lon="14.1204117"><ele>67.33333333333333</ele><time>2026-04-11T05:56:47.858Z</time></trkpt><trkpt lat="40.930785" lon="14.1203067"><ele>67.16666666666666</ele><time>2026-04-11T05:56:48.859Z</time></trkpt><trkpt lat="40.93079" lon="14.1201983"><ele>67.0</ele><time>2026-04-11T05:56:49.86Z</time></trkpt><trkpt lat="40.9307967" lon="14.1200883"><ele>67.0</ele><time>2026-04-11T05:56:50.86Z</time></trkpt><trkpt lat="40.9308" lon="14.1199783"><ele>67.0</ele><time>2026-04-11T05:56:51.86Z</time></trkpt><trkpt lat="40.930805" lon="14.1198633"><ele>67.0</ele><time>2026-04-11T05:56:52.86Z</time></trkpt><trkpt lat="40.9308083" lon="14.11975"><ele>67.0</ele><time>2026-04-11T05:56:53.86Z</time></trkpt><trkpt lat="40.9308133" lon="14.1196367"><ele>67.0</ele><time>2026-04-11T05:56:54.86Z</time></trkpt><trkpt lat="40.9308183" lon="14.1195183"><ele>67.0</ele><time>2026-04-11T05:56:55.86Z</time></trkpt><trkpt lat="40.9308217" lon="14.1194017"><ele>67.0</ele><time>2026-04-11T05:56:56.86Z</time></trkpt><trkpt lat="40.93083" lon="14.1192867"><ele>67.0</ele><time>2026-04-11T05:56:57.858Z</time></trkpt><trkpt lat="40.9308383" lon="14.1191717"><ele>67.0</ele><time>2026-04-11T05:56:58.86Z</time></trkpt><trkpt lat="40.9308517" lon="14.11906"><ele>67.0</ele><time>2026-04-11T05:56:59.86Z</time></trkpt><trkpt lat="40.9308667" lon="14.118945"><ele>67.0</ele><time>2026-04-11T05:57:00.861Z</time></trkpt><trkpt lat="40.93088" lon="14.1188333"><ele>67.0</ele><time>2026-04-11T05:57:01.859Z</time></trkpt><trkpt lat="40.930895" lon="14.1187183"><ele>67.0</ele><time>2026-04-11T05:57:02.86Z</time></trkpt><trkpt lat="40.9309083" lon="14.1186017"><ele>67.0</ele><time>2026-04-11T05:57:03.858Z</time></trkpt><trkpt lat="40.93092" lon="14.118485"><ele>67.0</ele><time>2026-04-11T05:57:04.86Z</time></trkpt><trkpt lat="40.930935" lon="14.1183683"><ele>67.0</ele><time>2026-04-11T05:57:05.862Z</time></trkpt><trkpt lat="40.9309467" lon="14.11825"><ele>67.0</ele><time>2026-04-11T05:57:06.859Z</time></trkpt><trkpt lat="40.9309567" lon="14.1181317"><ele>67.0</ele><time>2026-04-11T05:57:07.863Z</time></trkpt><trkpt lat="40.930965" lon="14.11801"><ele>66.83333333333333</ele><time>2026-04-11T05:57:08.862Z</time></trkpt><trkpt lat="40.9309733" lon="14.1178983"><ele>66.66666666666666</ele><time>2026-04-11T05:57:09.862Z</time></trkpt><trkpt lat="40.9309767" lon="14.1177867"><ele>66.5</ele><time>2026-04-11T05:57:10.862Z</time></trkpt><trkpt lat="40.93098" lon="14.1176717"><ele>66.33333333333333</ele><time>2026-04-11T05:57:11.861Z</time></trkpt><trkpt lat="40.9309817" lon="14.11756"><ele>66.16666666666667</ele><time>2026-04-11T05:57:12.861Z</time></trkpt><trkpt lat="40.930985" lon="14.1174433"><ele>66.0</ele><time>2026-04-11T05:57:13.861Z</time></trkpt><trkpt lat="40.9309883" lon="14.1173267"><ele>66.0</ele><time>2026-04-11T05:57:14.861Z</time></trkpt><trkpt lat="40.930995" lon="14.1172083"><ele>66.0</ele><time>2026-04-11T05:57:15.862Z</time></trkpt><trkpt lat="40.9310017" lon="14.1170933"><ele>66.0</ele><time>2026-04-11T05:57:16.86Z</time></trkpt><trkpt lat="40.9310083" lon="14.1169783"><ele>66.0</ele><time>2026-04-11T05:57:17.862Z</time></trkpt><trkpt lat="40.93101" lon="14.1168633"><ele>66.0</ele><time>2026-04-11T05:57:18.858Z</time></trkpt><trkpt lat="40.9310133" lon="14.1167517"><ele>66.0</ele><time>2026-04-11T05:57:19.86Z</time></trkpt><trkpt lat="40.93102" lon="14.1166333"><ele>66.0</ele><time>2026-04-11T05:57:20.861Z</time></trkpt><trkpt lat="40.9310283" lon="14.1165133"><ele>66.0</ele><time>2026-04-11T05:57:21.86Z</time></trkpt><trkpt lat="40.931035" lon="14.116395"><ele>66.0</ele><time>2026-04-11T05:57:22.861Z</time></trkpt><trkpt lat="40.93104" lon="14.1162783"><ele>66.0</ele><time>2026-04-11T05:57:23.861Z</time></trkpt><trkpt lat="40.9310467" lon="14.1161633"><ele>66.0</ele><time>2026-04-11T05:57:24.861Z</time></trkpt><trkpt lat="40.931055" lon="14.1160517"><ele>66.0</ele><time>2026-04-11T05:57:25.859Z</time></trkpt><trkpt lat="40.9310667" lon="14.1159383"><ele>66.0</ele><time>2026-04-11T05:57:26.859Z</time></trkpt><trkpt lat="40.9310783" lon="14.1158267"><ele>66.0</ele><time>2026-04-11T05:57:27.86Z</time></trkpt><trkpt lat="40.9310917" lon="14.11572"><ele>66.0</ele><time>2026-04-11T05:57:28.859Z</time></trkpt><trkpt lat="40.9310983" lon="14.1156083"><ele>66.0</ele><time>2026-04-11T05:57:29.86Z</time></trkpt><trkpt lat="40.931105" lon="14.1154983"><ele>66.0</ele><time>2026-04-11T05:57:30.86Z</time></trkpt><trkpt lat="40.931115" lon="14.11539"><ele>66.0</ele><time>2026-04-11T05:57:31.861Z</time></trkpt><trkpt lat="40.931125" lon="14.1152833"><ele>65.83333333333333</ele><time>2026-04-11T05:57:32.859Z</time></trkpt><trkpt lat="40.9311333" lon="14.1151783"><ele>65.66666666666667</ele><time>2026-04-11T05:57:33.859Z</time></trkpt><trkpt lat="40.93114" lon="14.11507"><ele>65.5</ele><time>2026-04-11T05:57:34.857Z</time></trkpt><trkpt lat="40.9311483" lon="14.114965"><ele>65.33333333333334</ele><time>2026-04-11T05:57:35.858Z</time></trkpt><trkpt lat="40.9311583" lon="14.1148583"><ele>65.16666666666667</ele><time>2026-04-11T05:57:36.86Z</time></trkpt><trkpt lat="40.9311667" lon="14.1147533"><ele>65.0</ele><time>2026-04-11T05:57:37.859Z</time></trkpt><trkpt lat="40.9311733" lon="14.1146517"><ele>64.83333333333334</ele><time>2026-04-11T05:57:38.86Z</time></trkpt><trkpt lat="40.9311833" lon="14.1145483"><ele>64.66666666666667</ele><time>2026-04-11T05:57:39.858Z</time></trkpt><trkpt lat="40.93119" lon="14.1144417"><ele>64.5</ele><time>2026-04-11T05:57:40.859Z</time></trkpt><trkpt lat="40.9312" lon="14.114335"><ele>64.33333333333333</ele><time>2026-04-11T05:57:41.86Z</time></trkpt><trkpt lat="40.93121" lon="14.11423"><ele>64.16666666666666</ele><time>2026-04-11T05:57:42.86Z</time></trkpt><trkpt lat="40.93122" lon="14.1141267"><ele>64.0</ele><time>2026-04-11T05:57:43.86Z</time></trkpt><trkpt lat="40.9312317" lon="14.11402"><ele>63.99999999999999</ele><time>2026-04-11T05:57:44.859Z</time></trkpt><trkpt lat="40.93124" lon="14.113915"><ele>64.0</ele><time>2026-04-11T05:57:45.86Z</time></trkpt><trkpt lat="40.93125" lon="14.1138083"><ele>64.0</ele><time>2026-04-11T05:57:46.86Z</time></trkpt><trkpt lat="40.93126" lon="14.1137033"><ele>64.0</ele><time>2026-04-11T05:57:47.859Z</time></trkpt><trkpt lat="40.93127" lon="14.1135917"><ele>63.99999999999999</ele><time>2026-04-11T05:57:48.86Z</time></trkpt><trkpt lat="40.9312783" lon="14.1134817"><ele>64.0</ele><time>2026-04-11T05:57:49.86Z</time></trkpt><trkpt lat="40.9312867" lon="14.1133683"><ele>63.99999999999999</ele><time>2026-04-11T05:57:50.859Z</time></trkpt><trkpt lat="40.9312967" lon="14.1132583"><ele>64.0</ele><time>2026-04-11T05:57:51.859Z</time></trkpt><trkpt lat="40.931305" lon="14.11315"><ele>64.0</ele><time>2026-04-11T05:57:52.86Z</time></trkpt><trkpt lat="40.9313117" lon="14.11304"><ele>64.0</ele><time>2026-04-11T05:57:53.863Z</time></trkpt><trkpt lat="40.9313217" lon="14.1129317"><ele>63.99999999999999</ele><time>2026-04-11T05:57:54.862Z</time></trkpt><trkpt lat="40.93133" lon="14.1128233"><ele>64.0</ele><time>2026-04-11T05:57:55.86Z</time></trkpt><trkpt lat="40.93134" lon="14.112715"><ele>63.83333333333333</ele><time>2026-04-11T05:57:56.861Z</time></trkpt><trkpt lat="40.931345" lon="14.11261"><ele>63.666666666666664</ele><time>2026-04-11T05:57:57.861Z</time></trkpt><trkpt lat="40.93135" lon="14.112505"><ele>63.5</ele><time>2026-04-11T05:57:58.859Z</time></trkpt><trkpt lat="40.9313583" lon="14.112395"><ele>63.33333333333333</ele><time>2026-04-11T05:57:59.86Z</time></trkpt><trkpt lat="40.9313683" lon="14.1122867"><ele>63.166666666666664</ele><time>2026-04-11T05:58:00.858Z</time></trkpt><trkpt lat="40.9313783" lon="14.11218"><ele>63.0</ele><time>2026-04-11T05:58:01.859Z</time></trkpt><trkpt lat="40.9313917" lon="14.112075"><ele>63.0</ele><time>2026-04-11T05:58:02.857Z</time></trkpt><trkpt lat="40.9313983" lon="14.1119733"><ele>63.0</ele><time>2026-04-11T05:58:03.858Z</time></trkpt><trkpt lat="40.9314033" lon="14.111875"><ele>63.0</ele><time>2026-04-11T05:58:04.859Z</time></trkpt><trkpt lat="40.9314083" lon="14.111775"><ele>63.0</ele><time>2026-04-11T05:58:05.859Z</time></trkpt><trkpt lat="40.9314117" lon="14.1116733"><ele>63.0</ele><time>2026-04-11T05:58:06.86Z</time></trkpt><trkpt lat="40.9314167" lon="14.1115667"><ele>63.0</ele><time>2026-04-11T05:58:07.859Z</time></trkpt><trkpt lat="40.9314183" lon="14.1114633"><ele>63.0</ele><time>2026-04-11T05:58:08.861Z</time></trkpt><trkpt lat="40.93142" lon="14.1113583"><ele>63.0</ele><time>2026-04-11T05:58:09.86Z</time></trkpt><trkpt lat="40.931425" lon="14.1112517"><ele>63.0</ele><time>2026-04-11T05:58:10.859Z</time></trkpt><trkpt lat="40.93143" lon="14.111145"><ele>63.0</ele><time>2026-04-11T05:58:11.862Z</time></trkpt><trkpt lat="40.931435" lon="14.1110417"><ele>63.0</ele><time>2026-04-11T05:58:12.859Z</time></trkpt><trkpt lat="40.93144" lon="14.1109383"><ele>63.0</ele><time>2026-04-11T05:58:13.859Z</time></trkpt><trkpt lat="40.9314433" lon="14.110835"><ele>62.833333333333336</ele><time>2026-04-11T05:58:14.859Z</time></trkpt><trkpt lat="40.931445" lon="14.11073"><ele>62.66666666666667</ele><time>2026-04-11T05:58:15.859Z</time></trkpt><trkpt lat="40.9314483" lon="14.1106267"><ele>62.5</ele><time>2026-04-11T05:58:16.858Z</time></trkpt><trkpt lat="40.93145" lon="14.11052"><ele>62.333333333333336</ele><time>2026-04-11T05:58:17.859Z</time></trkpt><trkpt lat="40.93146" lon="14.1104167"><ele>62.16666666666667</ele><time>2026-04-11T05:58:18.86Z</time></trkpt><trkpt lat="40.9314667" lon="14.11031"><ele>62.0</ele><time>2026-04-11T05:58:19.86Z</time></trkpt><trkpt lat="40.9314733" lon="14.110205"><ele>62.00000000000001</ele><time>2026-04-11T05:58:20.86Z</time></trkpt><trkpt lat="40.9314817" lon="14.1101"><ele>62.0</ele><time>2026-04-11T05:58:21.86Z</time></trkpt><trkpt lat="40.9314867" lon="14.109995"><ele>62.0</ele><time>2026-04-11T05:58:22.86Z</time></trkpt><trkpt lat="40.93149" lon="14.1098917"><ele>62.0</ele><time>2026-04-11T05:58:23.86Z</time></trkpt><trkpt lat="40.9314883" lon="14.1097883"><ele>62.00000000000001</ele><time>2026-04-11T05:58:24.86Z</time></trkpt><trkpt lat="40.9314917" lon="14.1096817"><ele>62.0</ele><time>2026-04-11T05:58:25.859Z</time></trkpt><trkpt lat="40.9314933" lon="14.109575"><ele>61.833333333333336</ele><time>2026-04-11T05:58:26.86Z</time></trkpt><trkpt lat="40.9314883" lon="14.1094683"><ele>61.66666666666667</ele><time>2026-04-11T05:58:27.86Z</time></trkpt><trkpt lat="40.93148" lon="14.1093633"><ele>61.5</ele><time>2026-04-11T05:58:28.859Z</time></trkpt><trkpt lat="40.93148" lon="14.1092583"><ele>61.33333333333333</ele><time>2026-04-11T05:58:29.86Z</time></trkpt><trkpt lat="40.93148" lon="14.1091517"><ele>61.166666666666664</ele><time>2026-04-11T05:58:30.86Z</time></trkpt><trkpt lat="40.9314783" lon="14.1090433"><ele>61.0</ele><time>2026-04-11T05:58:31.86Z</time></trkpt><trkpt lat="40.9314817" lon="14.10894"><ele>60.83333333333333</ele><time>2026-04-11T05:58:32.86Z</time></trkpt><trkpt lat="40.931485" lon="14.1088367"><ele>60.666666666666664</ele><time>2026-04-11T05:58:33.858Z</time></trkpt><trkpt lat="40.9314917" lon="14.1087317"><ele>60.5</ele><time>2026-04-11T05:58:34.86Z</time></trkpt><trkpt lat="40.9314933" lon="14.1086283"><ele>60.33333333333333</ele><time>2026-04-11T05:58:35.86Z</time></trkpt><trkpt lat="40.9314933" lon="14.1085233"><ele>60.166666666666664</ele><time>2026-04-11T05:58:36.86Z</time></trkpt><trkpt lat="40.9315067" lon="14.1084267"><ele>60.0</ele><time>2026-04-11T05:58:37.859Z</time></trkpt><trkpt lat="40.9315233" lon="14.108335"><ele>60.0</ele><time>2026-04-11T05:58:38.86Z</time></trkpt><trkpt lat="40.9315383" lon="14.1082433"><ele>60.0</ele><time>2026-04-11T05:58:39.86Z</time></trkpt><trkpt lat="40.93154" lon="14.1081533"><ele>60.0</ele><time>2026-04-11T05:58:40.859Z</time></trkpt><trkpt lat="40.9315317" lon="14.108065"><ele>60.0</ele><time>2026-04-11T05:58:41.86Z</time></trkpt><trkpt lat="40.9315133" lon="14.1079783"><ele>60.0</ele><time>2026-04-11T05:58:42.861Z</time></trkpt><trkpt lat="40.9315" lon="14.107885"><ele>60.0</ele><time>2026-04-11T05:58:43.861Z</time></trkpt><trkpt lat="40.9315033" lon="14.107795"><ele>60.0</ele><time>2026-04-11T05:58:44.859Z</time></trkpt><trkpt lat="40.9315083" lon="14.1077033"><ele>60.0</ele><time>2026-04-11T05:58:45.86Z</time></trkpt><trkpt lat="40.93151" lon="14.1076133"><ele>60.0</ele><time>2026-04-11T05:58:46.861Z</time></trkpt><trkpt lat="40.931515" lon="14.1075217"><ele>60.0</ele><time>2026-04-11T05:58:47.86Z</time></trkpt><trkpt lat="40.93152" lon="14.10743"><ele>60.0</ele><time>2026-04-11T05:58:48.86Z</time></trkpt><trkpt lat="40.9315233" lon="14.1073433"><ele>60.0</ele><time>2026-04-11T05:58:49.86Z</time></trkpt><trkpt lat="40.931535" lon="14.10726"><ele>60.0</ele><time>2026-04-11T05:58:50.86Z</time></trkpt><trkpt lat="40.9315667" lon="14.1071067"><ele>60.0</ele><time>2026-04-11T05:58:52.86Z</time></trkpt><trkpt lat="40.9315767" lon="14.1069633"><ele>60.0</ele><time>2026-04-11T05:58:54.86Z</time></trkpt><trkpt lat="40.9316033" lon="14.106835"><ele>60.0</ele><time>2026-04-11T05:58:56.86Z</time></trkpt><trkpt lat="40.93161" lon="14.106705"><ele>60.0</ele><time>2026-04-11T05:58:58.86Z</time></trkpt><trkpt lat="40.9316133" lon="14.106575"><ele>60.0</ele><time>2026-04-11T05:59:00.859Z</time></trkpt><trkpt lat="40.9316167" lon="14.1064483"><ele>60.0</ele><time>2026-04-11T05:59:02.86Z</time></trkpt><trkpt lat="40.9316217" lon="14.1063333"><ele>60.0</ele><time>2026-04-11T05:59:04.86Z</time></trkpt><trkpt lat="40.931625" lon="14.1062117"><ele>60.0</ele><time>2026-04-11T05:59:06.858Z</time></trkpt><trkpt lat="40.931635" lon="14.1060733"><ele>60.0</ele><time>2026-04-11T05:59:08.858Z</time></trkpt><trkpt lat="40.93164" lon="14.1059233"><ele>60.0</ele><time>2026-04-11T05:59:10.86Z</time></trkpt><trkpt lat="40.9316483" lon="14.10577"><ele>59.666666666666664</ele><time>2026-04-11T05:59:12.859Z</time></trkpt><trkpt lat="40.93166" lon="14.1056017"><ele>59.33333333333333</ele><time>2026-04-11T05:59:14.86Z</time></trkpt><trkpt lat="40.9316633" lon="14.105505"><ele>59.0</ele><time>2026-04-11T05:59:15.861Z</time></trkpt><trkpt lat="40.93167" lon="14.1054017"><ele>58.666666666666664</ele><time>2026-04-11T05:59:16.86Z</time></trkpt><trkpt lat="40.9316783" lon="14.1053"><ele>58.33333333333333</ele><time>2026-04-11T05:59:17.86Z</time></trkpt><trkpt lat="40.9316833" lon="14.1051983"><ele>58.0</ele><time>2026-04-11T05:59:18.861Z</time></trkpt><trkpt lat="40.93169" lon="14.1050917"><ele>57.99999999999999</ele><time>2026-04-11T05:59:19.86Z</time></trkpt><trkpt lat="40.931695" lon="14.1049833"><ele>58.0</ele><time>2026-04-11T05:59:20.86Z</time></trkpt><trkpt lat="40.9316967" lon="14.1048717"><ele>58.0</ele><time>2026-04-11T05:59:21.858Z</time></trkpt><trkpt lat="40.9317017" lon="14.1047517"><ele>58.0</ele><time>2026-04-11T05:59:22.86Z</time></trkpt><trkpt lat="40.9317033" lon="14.1046317"><ele>57.99999999999999</ele><time>2026-04-11T05:59:23.86Z</time></trkpt><trkpt lat="40.9317067" lon="14.1045067"><ele>58.0</ele><time>2026-04-11T05:59:24.86Z</time></trkpt><trkpt lat="40.9317117" lon="14.1043733"><ele>57.8</ele><time>2026-04-11T05:59:25.86Z</time></trkpt><trkpt lat="40.931715" lon="14.1042383"><ele>57.599999999999994</ele><time>2026-04-11T05:59:26.862Z</time></trkpt><trkpt lat="40.9317217" lon="14.1041"><ele>57.400000000000006</ele><time>2026-04-11T05:59:27.859Z</time></trkpt><trkpt lat="40.9317233" lon="14.1039583"><ele>57.2</ele><time>2026-04-11T05:59:28.859Z</time></trkpt><trkpt lat="40.9317283" lon="14.1038117"><ele>57.0</ele><time>2026-04-11T05:59:29.86Z</time></trkpt><trkpt lat="40.9317417" lon="14.10366"><ele>56.0</ele><time>2026-04-11T05:59:30.859Z</time></trkpt><trkpt lat="40.93175" lon="14.1035083"><ele>55.0</ele><time>2026-04-11T05:59:31.86Z</time></trkpt><trkpt lat="40.931755" lon="14.1033517"><ele>54.0</ele><time>2026-04-11T05:59:32.859Z</time></trkpt><trkpt lat="40.9317633" lon="14.103195"><ele>53.0</ele><time>2026-04-11T05:59:33.86Z</time></trkpt><trkpt lat="40.93177" lon="14.103045"><ele>53.0</ele><time>2026-04-11T05:59:34.86Z</time></trkpt><trkpt lat="40.9317783" lon="14.1028983"><ele>53.0</ele><time>2026-04-11T05:59:35.861Z</time></trkpt><trkpt lat="40.9317867" lon="14.1027533"><ele>53.0</ele><time>2026-04-11T05:59:36.86Z</time></trkpt><trkpt lat="40.9317967" lon="14.102615"><ele>53.0</ele><time>2026-04-11T05:59:37.86Z</time></trkpt><trkpt lat="40.9318117" lon="14.10248"><ele>53.0</ele><time>2026-04-11T05:59:38.859Z</time></trkpt><trkpt lat="40.9318217" lon="14.1023483"><ele>52.4</ele><time>2026-04-11T05:59:39.86Z</time></trkpt><trkpt lat="40.93183" lon="14.1022217"><ele>51.8</ele><time>2026-04-11T05:59:40.857Z</time></trkpt><trkpt lat="40.9318383" lon="14.1021"><ele>51.2</ele><time>2026-04-11T05:59:41.86Z</time></trkpt><trkpt lat="40.9318483" lon="14.1019767"><ele>50.6</ele><time>2026-04-11T05:59:42.86Z</time></trkpt><trkpt lat="40.9318583" lon="14.1018533"><ele>50.0</ele><time>2026-04-11T05:59:43.859Z</time></trkpt><trkpt lat="40.931865" lon="14.1017267"><ele>50.0</ele><time>2026-04-11T05:59:44.86Z</time></trkpt><trkpt lat="40.9318733" lon="14.1016"><ele>50.0</ele><time>2026-04-11T05:59:45.86Z</time></trkpt><trkpt lat="40.9318783" lon="14.1014767"><ele>50.0</ele><time>2026-04-11T05:59:46.861Z</time></trkpt><trkpt lat="40.931885" lon="14.101355"><ele>50.0</ele><time>2026-04-11T05:59:47.859Z</time></trkpt><trkpt lat="40.9318967" lon="14.1012367"><ele>50.0</ele><time>2026-04-11T05:59:48.86Z</time></trkpt><trkpt lat="40.93191" lon="14.1011217"><ele>49.833333333333336</ele><time>2026-04-11T05:59:49.859Z</time></trkpt><trkpt lat="40.931925" lon="14.1010067"><ele>49.66666666666667</ele><time>2026-04-11T05:59:50.86Z</time></trkpt><trkpt lat="40.93194" lon="14.1008933"><ele>49.5</ele><time>2026-04-11T05:59:51.859Z</time></trkpt><trkpt lat="40.9319533" lon="14.1007817"><ele>49.33333333333333</ele><time>2026-04-11T05:59:52.861Z</time></trkpt><trkpt lat="40.9319633" lon="14.1006683"><ele>49.166666666666664</ele><time>2026-04-11T05:59:53.858Z</time></trkpt><trkpt lat="40.93197" lon="14.100555"><ele>49.0</ele><time>2026-04-11T05:59:54.86Z</time></trkpt><trkpt lat="40.9319733" lon="14.1004433"><ele>48.99999999999999</ele><time>2026-04-11T05:59:55.86Z</time></trkpt><trkpt lat="40.9319767" lon="14.1003317"><ele>49.0</ele><time>2026-04-11T05:59:56.859Z</time></trkpt><trkpt lat="40.931975" lon="14.1002233"><ele>49.0</ele><time>2026-04-11T05:59:57.858Z</time></trkpt><trkpt lat="40.9319733" lon="14.100115"><ele>49.0</ele><time>2026-04-11T05:59:58.86Z</time></trkpt><trkpt lat="40.9319717" lon="14.1000017"><ele>48.99999999999999</ele><time>2026-04-11T05:59:59.86Z</time></trkpt><trkpt lat="40.9319683" lon="14.0998883"><ele>49.0</ele><time>2026-04-11T06:00:00.859Z</time></trkpt><trkpt lat="40.9319683" lon="14.099775"><ele>48.99999999999999</ele><time>2026-04-11T06:00:01.858Z</time></trkpt><trkpt lat="40.931965" lon="14.0996633"><ele>49.0</ele><time>2026-04-11T06:00:02.859Z</time></trkpt><trkpt lat="40.9319617" lon="14.0995517"><ele>49.0</ele><time>2026-04-11T06:00:03.859Z</time></trkpt><trkpt lat="40.93196" lon="14.0994383"><ele>49.0</ele><time>2026-04-11T06:00:04.859Z</time></trkpt><trkpt lat="40.93196" lon="14.0993267"><ele>48.99999999999999</ele><time>2026-04-11T06:00:05.859Z</time></trkpt><trkpt lat="40.9319617" lon="14.0992167"><ele>49.0</ele><time>2026-04-11T06:00:06.859Z</time></trkpt><trkpt lat="40.931965" lon="14.0991067"><ele>48.83333333333333</ele><time>2026-04-11T06:00:07.859Z</time></trkpt><trkpt lat="40.9319683" lon="14.098995"><ele>48.666666666666664</ele><time>2026-04-11T06:00:08.859Z</time></trkpt><trkpt lat="40.931975" lon="14.0988833"><ele>48.5</ele><time>2026-04-11T06:00:09.86Z</time></trkpt><trkpt lat="40.9319817" lon="14.09877"><ele>48.33333333333333</ele><time>2026-04-11T06:00:10.86Z</time></trkpt><trkpt lat="40.931985" lon="14.098655"><ele>48.166666666666664</ele><time>2026-04-11T06:00:11.86Z</time></trkpt><trkpt lat="40.9319933" lon="14.0985433"><ele>48.0</ele><time>2026-04-11T06:00:12.862Z</time></trkpt><trkpt lat="40.932" lon="14.0984333"><ele>48.0</ele><time>2026-04-11T06:00:13.863Z</time></trkpt><trkpt lat="40.9320083" lon="14.0983217"><ele>48.0</ele><time>2026-04-11T06:00:14.86Z</time></trkpt><trkpt lat="40.9320133" lon="14.09821"><ele>48.0</ele><time>2026-04-11T06:00:15.858Z</time></trkpt><trkpt lat="40.9320167" lon="14.0981017"><ele>48.0</ele><time>2026-04-11T06:00:16.86Z</time></trkpt><trkpt lat="40.93202" lon="14.0979933"><ele>48.0</ele><time>2026-04-11T06:00:17.86Z</time></trkpt><trkpt lat="40.9320233" lon="14.0978833"><ele>48.0</ele><time>2026-04-11T06:00:18.861Z</time></trkpt><trkpt lat="40.9320267" lon="14.0977717"><ele>48.0</ele><time>2026-04-11T06:00:19.859Z</time></trkpt><trkpt lat="40.93203" lon="14.0976583"><ele>48.0</ele><time>2026-04-11T06:00:20.86Z</time></trkpt><trkpt lat="40.9320367" lon="14.0975483"><ele>48.0</ele><time>2026-04-11T06:00:21.86Z</time></trkpt><trkpt lat="40.9320417" lon="14.0974367"><ele>48.0</ele><time>2026-04-11T06:00:22.86Z</time></trkpt><trkpt lat="40.9320483" lon="14.0973283"><ele>48.0</ele><time>2026-04-11T06:00:23.862Z</time></trkpt><trkpt lat="40.932055" lon="14.0972183"><ele>48.0</ele><time>2026-04-11T06:00:24.858Z</time></trkpt><trkpt lat="40.9320617" lon="14.0971067"><ele>48.0</ele><time>2026-04-11T06:00:25.86Z</time></trkpt><trkpt lat="40.9320667" lon="14.0969883"><ele>48.0</ele><time>2026-04-11T06:00:26.86Z</time></trkpt><trkpt lat="40.9320733" lon="14.0968833"><ele>48.0</ele><time>2026-04-11T06:00:27.86Z</time></trkpt><trkpt lat="40.9320817" lon="14.0967717"><ele>48.0</ele><time>2026-04-11T06:00:28.86Z</time></trkpt><trkpt lat="40.9320867" lon="14.09666"><ele>48.0</ele><time>2026-04-11T06:00:29.86Z</time></trkpt><trkpt lat="40.9320917" lon="14.096545"><ele>48.0</ele><time>2026-04-11T06:00:30.86Z</time></trkpt><trkpt lat="40.9321" lon="14.0964333"><ele>48.166666666666664</ele><time>2026-04-11T06:00:31.861Z</time></trkpt><trkpt lat="40.9321033" lon="14.0963267"><ele>48.33333333333333</ele><time>2026-04-11T06:00:32.86Z</time></trkpt><trkpt lat="40.9321067" lon="14.096215"><ele>48.5</ele><time>2026-04-11T06:00:33.86Z</time></trkpt><trkpt lat="40.93211" lon="14.0961067"><ele>48.666666666666664</ele><time>2026-04-11T06:00:34.861Z</time></trkpt><trkpt lat="40.9321117" lon="14.0959967"><ele>48.83333333333333</ele><time>2026-04-11T06:00:35.859Z</time></trkpt><trkpt lat="40.932115" lon="14.09589"><ele>49.0</ele><time>2026-04-11T06:00:36.86Z</time></trkpt><trkpt lat="40.9321183" lon="14.0957783"><ele>48.83333333333333</ele><time>2026-04-11T06:00:37.859Z</time></trkpt><trkpt lat="40.932125" lon="14.0956667"><ele>48.666666666666664</ele><time>2026-04-11T06:00:38.86Z</time></trkpt><trkpt lat="40.93213" lon="14.0955533"><ele>48.5</ele><time>2026-04-11T06:00:39.859Z</time></trkpt><trkpt lat="40.932135" lon="14.0954417"><ele>48.33333333333333</ele><time>2026-04-11T06:00:40.861Z</time></trkpt><trkpt lat="40.9321383" lon="14.0953317"><ele>48.166666666666664</ele><time>2026-04-11T06:00:41.86Z</time></trkpt><trkpt lat="40.9321417" lon="14.0952183"><ele>48.0</ele><time>2026-04-11T06:00:42.862Z</time></trkpt><trkpt lat="40.932145" lon="14.095105"><ele>48.0</ele><time>2026-04-11T06:00:43.86Z</time></trkpt><trkpt lat="40.9321567" lon="14.094995"><ele>48.0</ele><time>2026-04-11T06:00:44.862Z</time></trkpt><trkpt lat="40.9321633" lon="14.094885"><ele>48.0</ele><time>2026-04-11T06:00:45.862Z</time></trkpt><trkpt lat="40.9321683" lon="14.094775"><ele>48.0</ele><time>2026-04-11T06:00:46.859Z</time></trkpt><trkpt lat="40.9321717" lon="14.094665"><ele>48.0</ele><time>2026-04-11T06:00:47.86Z</time></trkpt><trkpt lat="40.932175" lon="14.0945533"><ele>48.0</ele><time>2026-04-11T06:00:48.86Z</time></trkpt><trkpt lat="40.9321817" lon="14.0944433"><ele>47.833333333333336</ele><time>2026-04-11T06:00:49.861Z</time></trkpt><trkpt lat="40.9321883" lon="14.09433"><ele>47.666666666666664</ele><time>2026-04-11T06:00:50.86Z</time></trkpt><trkpt lat="40.932195" lon="14.0942217"><ele>47.5</ele><time>2026-04-11T06:00:51.859Z</time></trkpt><trkpt lat="40.9322017" lon="14.09411"><ele>47.33333333333333</ele><time>2026-04-11T06:00:52.86Z</time></trkpt><trkpt lat="40.932205" lon="14.094"><ele>47.166666666666664</ele><time>2026-04-11T06:00:53.86Z</time></trkpt><trkpt lat="40.9322117" lon="14.0938883"><ele>47.0</ele><time>2026-04-11T06:00:54.86Z</time></trkpt><trkpt lat="40.9322217" lon="14.0937733"><ele>47.0</ele><time>2026-04-11T06:00:55.861Z</time></trkpt><trkpt lat="40.9322283" lon="14.093655"><ele>47.0</ele><time>2026-04-11T06:00:56.86Z</time></trkpt><trkpt lat="40.932235" lon="14.0935417"><ele>47.0</ele><time>2026-04-11T06:00:57.86Z</time></trkpt><trkpt lat="40.93224" lon="14.0934267"><ele>47.0</ele><time>2026-04-11T06:00:58.862Z</time></trkpt><trkpt lat="40.932245" lon="14.09331"><ele>47.0</ele><time>2026-04-11T06:00:59.858Z</time></trkpt><trkpt lat="40.9322517" lon="14.093195"><ele>47.0</ele><time>2026-04-11T06:01:00.86Z</time></trkpt><trkpt lat="40.9322567" lon="14.093085"><ele>47.0</ele><time>2026-04-11T06:01:01.86Z</time></trkpt><trkpt lat="40.932265" lon="14.0929717"><ele>47.0</ele><time>2026-04-11T06:01:02.86Z</time></trkpt><trkpt lat="40.9322683" lon="14.0928583"><ele>47.0</ele><time>2026-04-11T06:01:03.862Z</time></trkpt><trkpt lat="40.9322733" lon="14.092745"><ele>47.0</ele><time>2026-04-11T06:01:04.862Z</time></trkpt><trkpt lat="40.93228" lon="14.0926267"><ele>47.0</ele><time>2026-04-11T06:01:05.862Z</time></trkpt><trkpt lat="40.9322867" lon="14.09251"><ele>47.0</ele><time>2026-04-11T06:01:06.86Z</time></trkpt><trkpt lat="40.9322917" lon="14.0923967"><ele>47.0</ele><time>2026-04-11T06:01:07.862Z</time></trkpt><trkpt lat="40.9322967" lon="14.0922833"><ele>47.0</ele><time>2026-04-11T06:01:08.859Z</time></trkpt><trkpt lat="40.9323033" lon="14.0921733"><ele>47.0</ele><time>2026-04-11T06:01:09.86Z</time></trkpt><trkpt lat="40.9323083" lon="14.0920633"><ele>47.0</ele><time>2026-04-11T06:01:10.859Z</time></trkpt><trkpt lat="40.9323167" lon="14.09195"><ele>47.0</ele><time>2026-04-11T06:01:11.859Z</time></trkpt><trkpt lat="40.9323217" lon="14.0918317"><ele>47.0</ele><time>2026-04-11T06:01:12.861Z</time></trkpt><trkpt lat="40.9323267" lon="14.0917167"><ele>47.0</ele><time>2026-04-11T06:01:13.863Z</time></trkpt><trkpt lat="40.93233" lon="14.0916017"><ele>47.0</ele><time>2026-04-11T06:01:14.86Z</time></trkpt><trkpt lat="40.9323383" lon="14.0914867"><ele>47.0</ele><time>2026-04-11T06:01:15.858Z</time></trkpt><trkpt lat="40.9323433" lon="14.091375"><ele>47.0</ele><time>2026-04-11T06:01:16.86Z</time></trkpt><trkpt lat="40.93235" lon="14.0912567"><ele>47.0</ele><time>2026-04-11T06:01:17.86Z</time></trkpt><trkpt lat="40.9323567" lon="14.0911383"><ele>47.0</ele><time>2026-04-11T06:01:18.861Z</time></trkpt><trkpt lat="40.93236" lon="14.09102"><ele>46.83333333333333</ele><time>2026-04-11T06:01:19.859Z</time></trkpt><trkpt lat="40.932365" lon="14.090905"><ele>46.666666666666664</ele><time>2026-04-11T06:01:20.86Z</time></trkpt><trkpt lat="40.93237" lon="14.09079"><ele>46.5</ele><time>2026-04-11T06:01:21.86Z</time></trkpt><trkpt lat="40.932375" lon="14.0906733"><ele>46.333333333333336</ele><time>2026-04-11T06:01:22.859Z</time></trkpt><trkpt lat="40.93238" lon="14.0905567"><ele>46.16666666666667</ele><time>2026-04-11T06:01:23.861Z</time></trkpt><trkpt lat="40.9323833" lon="14.0904417"><ele>46.0</ele><time>2026-04-11T06:01:24.861Z</time></trkpt><trkpt lat="40.9323883" lon="14.090325"><ele>46.0</ele><time>2026-04-11T06:01:25.859Z</time></trkpt><trkpt lat="40.932395" lon="14.0902067"><ele>46.0</ele><time>2026-04-11T06:01:26.86Z</time></trkpt><trkpt lat="40.9324" lon="14.0900917"><ele>46.0</ele><time>2026-04-11T06:01:27.858Z</time></trkpt><trkpt lat="40.9324033" lon="14.0899783"><ele>46.0</ele><time>2026-04-11T06:01:28.859Z</time></trkpt><trkpt lat="40.932405" lon="14.0898667"><ele>46.0</ele><time>2026-04-11T06:01:29.86Z</time></trkpt><trkpt lat="40.9324117" lon="14.0897517"><ele>46.0</ele><time>2026-04-11T06:01:30.86Z</time></trkpt><trkpt lat="40.9324183" lon="14.0896383"><ele>46.0</ele><time>2026-04-11T06:01:31.859Z</time></trkpt><trkpt lat="40.9324267" lon="14.0895233"><ele>46.0</ele><time>2026-04-11T06:01:32.859Z</time></trkpt><trkpt lat="40.9324317" lon="14.0894067"><ele>46.0</ele><time>2026-04-11T06:01:33.861Z</time></trkpt><trkpt lat="40.932435" lon="14.08929"><ele>46.0</ele><time>2026-04-11T06:01:34.86Z</time></trkpt><trkpt lat="40.93244" lon="14.089175"><ele>46.0</ele><time>2026-04-11T06:01:35.86Z</time></trkpt><trkpt lat="40.9324433" lon="14.08906"><ele>46.0</ele><time>2026-04-11T06:01:36.86Z</time></trkpt><trkpt lat="40.93245" lon="14.0889483"><ele>46.16666666666667</ele><time>2026-04-11T06:01:37.86Z</time></trkpt><trkpt lat="40.9324533" lon="14.0888383"><ele>46.333333333333336</ele><time>2026-04-11T06:01:38.859Z</time></trkpt><trkpt lat="40.9324583" lon="14.0887283"><ele>46.5</ele><time>2026-04-11T06:01:39.86Z</time></trkpt><trkpt lat="40.9324633" lon="14.088615"><ele>46.666666666666664</ele><time>2026-04-11T06:01:40.86Z</time></trkpt><trkpt lat="40.9324683" lon="14.0885067"><ele>46.83333333333333</ele><time>2026-04-11T06:01:41.859Z</time></trkpt><trkpt lat="40.9324733" lon="14.0883917"><ele>47.0</ele><time>2026-04-11T06:01:42.86Z</time></trkpt><trkpt lat="40.9324783" lon="14.088275"><ele>47.0</ele><time>2026-04-11T06:01:43.863Z</time></trkpt><trkpt lat="40.9324833" lon="14.08816"><ele>47.0</ele><time>2026-04-11T06:01:44.86Z</time></trkpt><trkpt lat="40.9324917" lon="14.0880483"><ele>47.0</ele><time>2026-04-11T06:01:45.86Z</time></trkpt><trkpt lat="40.9324983" lon="14.087935"><ele>47.0</ele><time>2026-04-11T06:01:46.859Z</time></trkpt><trkpt lat="40.9325067" lon="14.0878233"><ele>47.0</ele><time>2026-04-11T06:01:47.86Z</time></trkpt><trkpt lat="40.9325117" lon="14.0877117"><ele>47.0</ele><time>2026-04-11T06:01:48.862Z</time></trkpt><trkpt lat="40.932515" lon="14.087595"><ele>47.0</ele><time>2026-04-11T06:01:49.86Z</time></trkpt><trkpt lat="40.9325183" lon="14.08748"><ele>47.0</ele><time>2026-04-11T06:01:50.859Z</time></trkpt><trkpt lat="40.9325233" lon="14.08736"><ele>47.0</ele><time>2026-04-11T06:01:51.858Z</time></trkpt><trkpt lat="40.93253" lon="14.0872433"><ele>47.0</ele><time>2026-04-11T06:01:52.859Z</time></trkpt><trkpt lat="40.9325367" lon="14.0871283"><ele>47.0</ele><time>2026-04-11T06:01:53.86Z</time></trkpt><trkpt lat="40.9325417" lon="14.08701"><ele>47.0</ele><time>2026-04-11T06:01:54.86Z</time></trkpt><trkpt lat="40.9325467" lon="14.0868967"><ele>46.666666666666664</ele><time>2026-04-11T06:01:55.86Z</time></trkpt><trkpt lat="40.9325533" lon="14.0867867"><ele>46.33333333333333</ele><time>2026-04-11T06:01:56.863Z</time></trkpt><trkpt lat="40.9325583" lon="14.0866783"><ele>46.0</ele><time>2026-04-11T06:01:57.859Z</time></trkpt><trkpt lat="40.9325667" lon="14.086565"><ele>45.666666666666664</ele><time>2026-04-11T06:01:58.86Z</time></trkpt><trkpt lat="40.9325733" lon="14.0864567"><ele>45.333333333333336</ele><time>2026-04-11T06:01:59.863Z</time></trkpt><trkpt lat="40.9325833" lon="14.086345"><ele>45.0</ele><time>2026-04-11T06:02:00.86Z</time></trkpt><trkpt lat="40.93259" lon="14.0862317"><ele>45.0</ele><time>2026-04-11T06:02:01.86Z</time></trkpt><trkpt lat="40.932595" lon="14.08612"><ele>45.0</ele><time>2026-04-11T06:02:02.86Z</time></trkpt><trkpt lat="40.9326" lon="14.0860083"><ele>45.0</ele><time>2026-04-11T06:02:03.858Z</time></trkpt><trkpt lat="40.932605" lon="14.0858983"><ele>45.0</ele><time>2026-04-11T06:02:04.86Z</time></trkpt><trkpt lat="40.9326117" lon="14.0857867"><ele>45.0</ele><time>2026-04-11T06:02:05.86Z</time></trkpt><trkpt lat="40.9326183" lon="14.0856767"><ele>45.0</ele><time>2026-04-11T06:02:06.861Z</time></trkpt><trkpt lat="40.9326267" lon="14.085565"><ele>45.166666666666664</ele><time>2026-04-11T06:02:07.858Z</time></trkpt><trkpt lat="40.9326367" lon="14.0854567"><ele>45.333333333333336</ele><time>2026-04-11T06:02:08.86Z</time></trkpt><trkpt lat="40.93264" lon="14.0853433"><ele>45.5</ele><time>2026-04-11T06:02:09.86Z</time></trkpt><trkpt lat="40.9326417" lon="14.085235"><ele>45.66666666666667</ele><time>2026-04-11T06:02:10.86Z</time></trkpt><trkpt lat="40.9326467" lon="14.0851217"><ele>45.833333333333336</ele><time>2026-04-11T06:02:11.86Z</time></trkpt><trkpt lat="40.93265" lon="14.0850067"><ele>46.0</ele><time>2026-04-11T06:02:12.86Z</time></trkpt><trkpt lat="40.9326583" lon="14.0848917"><ele>46.16666666666667</ele><time>2026-04-11T06:02:13.863Z</time></trkpt><trkpt lat="40.9326633" lon="14.0847767"><ele>46.333333333333336</ele><time>2026-04-11T06:02:14.859Z</time></trkpt><trkpt lat="40.9326683" lon="14.084665"><ele>46.5</ele><time>2026-04-11T06:02:15.859Z</time></trkpt><trkpt lat="40.9326733" lon="14.0845517"><ele>46.666666666666664</ele><time>2026-04-11T06:02:16.86Z</time></trkpt><trkpt lat="40.9326767" lon="14.0844367"><ele>46.83333333333333</ele><time>2026-04-11T06:02:17.86Z</time></trkpt><trkpt lat="40.9326833" lon="14.084325"><ele>47.0</ele><time>2026-04-11T06:02:18.861Z</time></trkpt><trkpt lat="40.9326867" lon="14.084215"><ele>47.0</ele><time>2026-04-11T06:02:19.86Z</time></trkpt><trkpt lat="40.93269" lon="14.0841067"><ele>47.0</ele><time>2026-04-11T06:02:20.859Z</time></trkpt><trkpt lat="40.9327017" lon="14.083995"><ele>47.0</ele><time>2026-04-11T06:02:21.861Z</time></trkpt><trkpt lat="40.9327083" lon="14.0838833"><ele>47.0</ele><time>2026-04-11T06:02:22.86Z</time></trkpt><trkpt lat="40.93271" lon="14.0837717"><ele>47.0</ele><time>2026-04-11T06:02:23.859Z</time></trkpt><trkpt lat="40.9327133" lon="14.0836617"><ele>47.0</ele><time>2026-04-11T06:02:24.86Z</time></trkpt><trkpt lat="40.9327167" lon="14.0835517"><ele>46.83333333333333</ele><time>2026-04-11T06:02:25.861Z</time></trkpt><trkpt lat="40.93272" lon="14.0834433"><ele>46.666666666666664</ele><time>2026-04-11T06:02:26.861Z</time></trkpt><trkpt lat="40.9327267" lon="14.083335"><ele>46.5</ele><time>2026-04-11T06:02:27.86Z</time></trkpt><trkpt lat="40.9327317" lon="14.0832317"><ele>46.333333333333336</ele><time>2026-04-11T06:02:28.859Z</time></trkpt><trkpt lat="40.9327367" lon="14.0831233"><ele>46.16666666666667</ele><time>2026-04-11T06:02:29.862Z</time></trkpt><trkpt lat="40.9327417" lon="14.0830183"><ele>46.0</ele><time>2026-04-11T06:02:30.861Z</time></trkpt><trkpt lat="40.9327483" lon="14.0829083"><ele>45.66666666666667</ele><time>2026-04-11T06:02:31.861Z</time></trkpt><trkpt lat="40.9327533" lon="14.0827967"><ele>45.333333333333336</ele><time>2026-04-11T06:02:32.859Z</time></trkpt><trkpt lat="40.93276" lon="14.082685"><ele>45.0</ele><time>2026-04-11T06:02:33.858Z</time></trkpt><trkpt lat="40.932765" lon="14.082575"><ele>44.666666666666664</ele><time>2026-04-11T06:02:34.86Z</time></trkpt><trkpt lat="40.93277" lon="14.0824667"><ele>44.33333333333333</ele><time>2026-04-11T06:02:35.863Z</time></trkpt><trkpt lat="40.9327767" lon="14.08236"><ele>44.0</ele><time>2026-04-11T06:02:36.861Z</time></trkpt><trkpt lat="40.9327817" lon="14.0822567"><ele>43.83333333333333</ele><time>2026-04-11T06:02:37.863Z</time></trkpt><trkpt lat="40.9327867" lon="14.08215"><ele>43.666666666666664</ele><time>2026-04-11T06:02:38.86Z</time></trkpt><trkpt lat="40.932795" lon="14.0820417"><ele>43.5</ele><time>2026-04-11T06:02:39.859Z</time></trkpt><trkpt lat="40.9328017" lon="14.081935"><ele>43.333333333333336</ele><time>2026-04-11T06:02:40.861Z</time></trkpt><trkpt lat="40.93281" lon="14.081825"><ele>43.16666666666667</ele><time>2026-04-11T06:02:41.86Z</time></trkpt><trkpt lat="40.93282" lon="14.0817117"><ele>43.0</ele><time>2026-04-11T06:02:42.857Z</time></trkpt><trkpt lat="40.9328267" lon="14.0816017"><ele>42.66666666666667</ele><time>2026-04-11T06:02:43.863Z</time></trkpt><trkpt lat="40.9328367" lon="14.08149"><ele>42.333333333333336</ele><time>2026-04-11T06:02:44.86Z</time></trkpt><trkpt lat="40.9328433" lon="14.08138"><ele>42.0</ele><time>2026-04-11T06:02:45.858Z</time></trkpt><trkpt lat="40.9328533" lon="14.0812683"><ele>41.666666666666664</ele><time>2026-04-11T06:02:46.859Z</time></trkpt><trkpt lat="40.9328633" lon="14.081155"><ele>41.33333333333333</ele><time>2026-04-11T06:02:47.862Z</time></trkpt><trkpt lat="40.9328733" lon="14.081045"><ele>41.0</ele><time>2026-04-11T06:02:48.86Z</time></trkpt><trkpt lat="40.9328833" lon="14.080935"><ele>41.0</ele><time>2026-04-11T06:02:49.859Z</time></trkpt><trkpt lat="40.9328933" lon="14.0808217"><ele>41.0</ele><time>2026-04-11T06:02:50.862Z</time></trkpt><trkpt lat="40.932905" lon="14.0807083"><ele>41.0</ele><time>2026-04-11T06:02:51.862Z</time></trkpt><trkpt lat="40.9329167" lon="14.0805983"><ele>41.0</ele><time>2026-04-11T06:02:52.861Z</time></trkpt><trkpt lat="40.9329283" lon="14.0804933"><ele>41.0</ele><time>2026-04-11T06:02:53.86Z</time></trkpt><trkpt lat="40.9329383" lon="14.0803867"><ele>41.0</ele><time>2026-04-11T06:02:54.86Z</time></trkpt><trkpt lat="40.93295" lon="14.0802817"><ele>41.0</ele><time>2026-04-11T06:02:55.861Z</time></trkpt><trkpt lat="40.9329617" lon="14.0801733"><ele>41.0</ele><time>2026-04-11T06:02:56.86Z</time></trkpt><trkpt lat="40.932975" lon="14.0800617"><ele>41.0</ele><time>2026-04-11T06:02:57.859Z</time></trkpt><trkpt lat="40.9329883" lon="14.0799533"><ele>41.0</ele><time>2026-04-11T06:02:58.861Z</time></trkpt><trkpt lat="40.933" lon="14.079845"><ele>41.0</ele><time>2026-04-11T06:02:59.861Z</time></trkpt><trkpt lat="40.9330133" lon="14.0797367"><ele>41.0</ele><time>2026-04-11T06:03:00.861Z</time></trkpt><trkpt lat="40.93303" lon="14.0796267"><ele>41.0</ele><time>2026-04-11T06:03:01.861Z</time></trkpt><trkpt lat="40.9330417" lon="14.0795183"><ele>41.0</ele><time>2026-04-11T06:03:02.86Z</time></trkpt><trkpt lat="40.9330533" lon="14.0794117"><ele>41.0</ele><time>2026-04-11T06:03:03.858Z</time></trkpt><trkpt lat="40.933065" lon="14.0793017"><ele>41.0</ele><time>2026-04-11T06:03:04.86Z</time></trkpt><trkpt lat="40.933075" lon="14.0791933"><ele>41.0</ele><time>2026-04-11T06:03:05.862Z</time></trkpt><trkpt lat="40.9330833" lon="14.0790883"><ele>41.0</ele><time>2026-04-11T06:03:06.86Z</time></trkpt><trkpt lat="40.9330917" lon="14.0789833"><ele>40.83333333333333</ele><time>2026-04-11T06:03:07.862Z</time></trkpt><trkpt lat="40.9331017" lon="14.0788783"><ele>40.666666666666664</ele><time>2026-04-11T06:03:08.86Z</time></trkpt><trkpt lat="40.9331117" lon="14.0787733"><ele>40.5</ele><time>2026-04-11T06:03:09.86Z</time></trkpt><trkpt lat="40.9331283" lon="14.078665"><ele>40.333333333333336</ele><time>2026-04-11T06:03:10.86Z</time></trkpt><trkpt lat="40.93314" lon="14.0785517"><ele>40.16666666666667</ele><time>2026-04-11T06:03:11.861Z</time></trkpt><trkpt lat="40.9331483" lon="14.0784417"><ele>40.0</ele><time>2026-04-11T06:03:12.86Z</time></trkpt><trkpt lat="40.9331633" lon="14.0783367"><ele>40.0</ele><time>2026-04-11T06:03:13.86Z</time></trkpt><trkpt lat="40.9331733" lon="14.0782283"><ele>40.0</ele><time>2026-04-11T06:03:14.862Z</time></trkpt><trkpt lat="40.933185" lon="14.0781217"><ele>40.0</ele><time>2026-04-11T06:03:15.858Z</time></trkpt><trkpt lat="40.9331933" lon="14.07802"><ele>40.0</ele><time>2026-04-11T06:03:16.86Z</time></trkpt><trkpt lat="40.933205" lon="14.07791"><ele>40.0</ele><time>2026-04-11T06:03:17.859Z</time></trkpt><trkpt lat="40.9332167" lon="14.0778"><ele>40.0</ele><time>2026-04-11T06:03:18.861Z</time></trkpt><trkpt lat="40.93323" lon="14.0776933"><ele>40.0</ele><time>2026-04-11T06:03:19.86Z</time></trkpt><trkpt lat="40.9332417" lon="14.0775867"><ele>40.0</ele><time>2026-04-11T06:03:20.861Z</time></trkpt><trkpt lat="40.9332533" lon="14.0774783"><ele>40.0</ele><time>2026-04-11T06:03:21.86Z</time></trkpt><trkpt lat="40.933265" lon="14.0773683"><ele>40.0</ele><time>2026-04-11T06:03:22.86Z</time></trkpt><trkpt lat="40.9332717" lon="14.07726"><ele>40.0</ele><time>2026-04-11T06:03:23.86Z</time></trkpt><trkpt lat="40.9332833" lon="14.0771517"><ele>40.0</ele><time>2026-04-11T06:03:24.86Z</time></trkpt><trkpt lat="40.9332967" lon="14.077045"><ele>40.0</ele><time>2026-04-11T06:03:25.86Z</time></trkpt><trkpt lat="40.93331" lon="14.0769367"><ele>40.0</ele><time>2026-04-11T06:03:26.86Z</time></trkpt><trkpt lat="40.9333267" lon="14.0768267"><ele>40.0</ele><time>2026-04-11T06:03:27.857Z</time></trkpt><trkpt lat="40.93334" lon="14.07672"><ele>40.0</ele><time>2026-04-11T06:03:28.86Z</time></trkpt><trkpt lat="40.9333567" lon="14.07661"><ele>40.0</ele><time>2026-04-11T06:03:29.861Z</time></trkpt><trkpt lat="40.933375" lon="14.0764983"><ele>40.0</ele><time>2026-04-11T06:03:30.859Z</time></trkpt><trkpt lat="40.93339" lon="14.0763917"><ele>39.5</ele><time>2026-04-11T06:03:31.859Z</time></trkpt><trkpt lat="40.9334017" lon="14.0762833"><ele>39.0</ele><time>2026-04-11T06:03:32.86Z</time></trkpt><trkpt lat="40.9334133" lon="14.0761767"><ele>38.5</ele><time>2026-04-11T06:03:33.861Z</time></trkpt><trkpt lat="40.9334217" lon="14.0760667"><ele>38.0</ele><time>2026-04-11T06:03:34.86Z</time></trkpt><trkpt lat="40.9334283" lon="14.0759517"><ele>37.5</ele><time>2026-04-11T06:03:35.862Z</time></trkpt><trkpt lat="40.9334333" lon="14.07584"><ele>37.0</ele><time>2026-04-11T06:03:36.86Z</time></trkpt><trkpt lat="40.933435" lon="14.0757267"><ele>37.0</ele><time>2026-04-11T06:03:37.863Z</time></trkpt><trkpt lat="40.9334367" lon="14.075615"><ele>37.0</ele><time>2026-04-11T06:03:38.862Z</time></trkpt><trkpt lat="40.9334367" lon="14.0755017"><ele>37.0</ele><time>2026-04-11T06:03:39.861Z</time></trkpt><trkpt lat="40.9334417" lon="14.0753917"><ele>37.0</ele><time>2026-04-11T06:03:40.861Z</time></trkpt><trkpt lat="40.9334483" lon="14.0752767"><ele>37.0</ele><time>2026-04-11T06:03:41.862Z</time></trkpt><trkpt lat="40.9334517" lon="14.0751633"><ele>37.0</ele><time>2026-04-11T06:03:42.861Z</time></trkpt><trkpt lat="40.93345" lon="14.075055"><ele>37.0</ele><time>2026-04-11T06:03:43.862Z</time></trkpt><trkpt lat="40.9334517" lon="14.0749433"><ele>37.0</ele><time>2026-04-11T06:03:44.862Z</time></trkpt><trkpt lat="40.933455" lon="14.0748267"><ele>37.0</ele><time>2026-04-11T06:03:45.862Z</time></trkpt><trkpt lat="40.93346" lon="14.07471"><ele>37.0</ele><time>2026-04-11T06:03:46.86Z</time></trkpt><trkpt lat="40.933465" lon="14.0745933"><ele>37.0</ele><time>2026-04-11T06:03:47.859Z</time></trkpt><trkpt lat="40.9334667" lon="14.0744817"><ele>37.0</ele><time>2026-04-11T06:03:48.86Z</time></trkpt><trkpt lat="40.9334683" lon="14.0743683"><ele>37.0</ele><time>2026-04-11T06:03:49.86Z</time></trkpt><trkpt lat="40.9334733" lon="14.0742567"><ele>37.0</ele><time>2026-04-11T06:03:50.86Z</time></trkpt><trkpt lat="40.933475" lon="14.0741417"><ele>37.0</ele><time>2026-04-11T06:03:51.858Z</time></trkpt><trkpt lat="40.93348" lon="14.074025"><ele>37.0</ele><time>2026-04-11T06:03:52.861Z</time></trkpt><trkpt lat="40.9334817" lon="14.0739133"><ele>37.0</ele><time>2026-04-11T06:03:53.86Z</time></trkpt><trkpt lat="40.933485" lon="14.0737983"><ele>37.0</ele><time>2026-04-11T06:03:54.86Z</time></trkpt><trkpt lat="40.933485" lon="14.0736867"><ele>36.66666666666667</ele><time>2026-04-11T06:03:55.861Z</time></trkpt><trkpt lat="40.933485" lon="14.0735717"><ele>36.333333333333336</ele><time>2026-04-11T06:03:56.859Z</time></trkpt><trkpt lat="40.9334867" lon="14.0734583"><ele>36.0</ele><time>2026-04-11T06:03:57.858Z</time></trkpt><trkpt lat="40.9334867" lon="14.0733467"><ele>35.666666666666664</ele><time>2026-04-11T06:03:58.861Z</time></trkpt><trkpt lat="40.93349" lon="14.0732317"><ele>35.33333333333333</ele><time>2026-04-11T06:03:59.86Z</time></trkpt><trkpt lat="40.9334933" lon="14.07312"><ele>35.0</ele><time>2026-04-11T06:04:00.86Z</time></trkpt><trkpt lat="40.9334933" lon="14.07301"><ele>35.0</ele><time>2026-04-11T06:04:01.86Z</time></trkpt><trkpt lat="40.9334933" lon="14.0728967"><ele>35.0</ele><time>2026-04-11T06:04:02.862Z</time></trkpt><trkpt lat="40.933495" lon="14.072785"><ele>35.0</ele><time>2026-04-11T06:04:03.861Z</time></trkpt><trkpt lat="40.933495" lon="14.0726717"><ele>35.0</ele><time>2026-04-11T06:04:04.862Z</time></trkpt><trkpt lat="40.9334933" lon="14.0725567"><ele>35.0</ele><time>2026-04-11T06:04:05.86Z</time></trkpt><trkpt lat="40.9334967" lon="14.0724467"><ele>35.0</ele><time>2026-04-11T06:04:06.861Z</time></trkpt><trkpt lat="40.9334983" lon="14.0723367"><ele>35.0</ele><time>2026-04-11T06:04:07.86Z</time></trkpt><trkpt lat="40.9335033" lon="14.072225"><ele>35.0</ele><time>2026-04-11T06:04:08.86Z</time></trkpt><trkpt lat="40.933505" lon="14.0721133"><ele>35.0</ele><time>2026-04-11T06:04:09.858Z</time></trkpt><trkpt lat="40.9335067" lon="14.0720017"><ele>35.0</ele><time>2026-04-11T06:04:10.862Z</time></trkpt><trkpt lat="40.9335083" lon="14.0718917"><ele>35.0</ele><time>2026-04-11T06:04:11.86Z</time></trkpt><trkpt lat="40.9335083" lon="14.0717783"><ele>35.0</ele><time>2026-04-11T06:04:12.862Z</time></trkpt><trkpt lat="40.9335083" lon="14.071665"><ele>35.0</ele><time>2026-04-11T06:04:13.861Z</time></trkpt><trkpt lat="40.9335067" lon="14.0715567"><ele>35.0</ele><time>2026-04-11T06:04:14.862Z</time></trkpt><trkpt lat="40.93351" lon="14.0714467"><ele>35.0</ele><time>2026-04-11T06:04:15.861Z</time></trkpt><trkpt lat="40.9335117" lon="14.071335"><ele>35.0</ele><time>2026-04-11T06:04:16.859Z</time></trkpt><trkpt lat="40.93351" lon="14.0712233"><ele>35.0</ele><time>2026-04-11T06:04:17.859Z</time></trkpt><trkpt lat="40.93351" lon="14.0711117"><ele>35.0</ele><time>2026-04-11T06:04:18.86Z</time></trkpt><trkpt lat="40.93351" lon="14.0710017"><ele>35.0</ele><time>2026-04-11T06:04:19.86Z</time></trkpt><trkpt lat="40.9335067" lon="14.0708917"><ele>35.0</ele><time>2026-04-11T06:04:20.861Z</time></trkpt><trkpt lat="40.9335067" lon="14.0707817"><ele>35.0</ele><time>2026-04-11T06:04:21.858Z</time></trkpt><trkpt lat="40.9335067" lon="14.07067"><ele>35.0</ele><time>2026-04-11T06:04:22.859Z</time></trkpt><trkpt lat="40.9335083" lon="14.0705583"><ele>35.0</ele><time>2026-04-11T06:04:23.86Z</time></trkpt><trkpt lat="40.9335083" lon="14.070445"><ele>35.0</ele><time>2026-04-11T06:04:24.86Z</time></trkpt><trkpt lat="40.9335117" lon="14.07033"><ele>35.0</ele><time>2026-04-11T06:04:25.861Z</time></trkpt><trkpt lat="40.933515" lon="14.07022"><ele>35.0</ele><time>2026-04-11T06:04:26.86Z</time></trkpt><trkpt lat="40.9335217" lon="14.070105"><ele>35.0</ele><time>2026-04-11T06:04:27.859Z</time></trkpt><trkpt lat="40.933525" lon="14.069995"><ele>35.0</ele><time>2026-04-11T06:04:28.862Z</time></trkpt><trkpt lat="40.9335283" lon="14.0698867"><ele>35.0</ele><time>2026-04-11T06:04:29.858Z</time></trkpt><trkpt lat="40.93353" lon="14.069775"><ele>35.0</ele><time>2026-04-11T06:04:30.86Z</time></trkpt><trkpt lat="40.93353" lon="14.06966"><ele>35.0</ele><time>2026-04-11T06:04:31.862Z</time></trkpt><trkpt lat="40.93353" lon="14.0695467"><ele>35.0</ele><time>2026-04-11T06:04:32.863Z</time></trkpt><trkpt lat="40.9335333" lon="14.0694333"><ele>35.0</ele><time>2026-04-11T06:04:33.86Z</time></trkpt><trkpt lat="40.9335367" lon="14.06932"><ele>35.0</ele><time>2026-04-11T06:04:34.859Z</time></trkpt><trkpt lat="40.9335367" lon="14.0692117"><ele>35.0</ele><time>2026-04-11T06:04:35.861Z</time></trkpt><trkpt lat="40.93354" lon="14.0691017"><ele>35.0</ele><time>2026-04-11T06:04:36.862Z</time></trkpt><trkpt lat="40.933545" lon="14.0689883"><ele>34.83333333333333</ele><time>2026-04-11T06:04:37.863Z</time></trkpt><trkpt lat="40.933545" lon="14.06888"><ele>34.666666666666664</ele><time>2026-04-11T06:04:38.861Z</time></trkpt><trkpt lat="40.9335483" lon="14.0687717"><ele>34.5</ele><time>2026-04-11T06:04:39.86Z</time></trkpt><trkpt lat="40.9335533" lon="14.0686583"><ele>34.333333333333336</ele><time>2026-04-11T06:04:40.862Z</time></trkpt><trkpt lat="40.9335583" lon="14.068545"><ele>34.16666666666667</ele><time>2026-04-11T06:04:41.859Z</time></trkpt><trkpt lat="40.9335617" lon="14.0684333"><ele>34.0</ele><time>2026-04-11T06:04:42.862Z</time></trkpt><trkpt lat="40.9335683" lon="14.06832"><ele>34.16666666666667</ele><time>2026-04-11T06:04:43.863Z</time></trkpt><trkpt lat="40.9335733" lon="14.0682083"><ele>34.333333333333336</ele><time>2026-04-11T06:04:44.861Z</time></trkpt><trkpt lat="40.9335783" lon="14.0680967"><ele>34.5</ele><time>2026-04-11T06:04:45.86Z</time></trkpt><trkpt lat="40.9335817" lon="14.067985"><ele>34.666666666666664</ele><time>2026-04-11T06:04:46.861Z</time></trkpt><trkpt lat="40.9335833" lon="14.0678717"><ele>34.83333333333333</ele><time>2026-04-11T06:04:47.86Z</time></trkpt><trkpt lat="40.933585" lon="14.0677567"><ele>35.0</ele><time>2026-04-11T06:04:48.859Z</time></trkpt><trkpt lat="40.9335867" lon="14.06764"><ele>35.0</ele><time>2026-04-11T06:04:49.861Z</time></trkpt><trkpt lat="40.9335817" lon="14.0675267"><ele>35.0</ele><time>2026-04-11T06:04:50.86Z</time></trkpt><trkpt lat="40.9335783" lon="14.0674167"><ele>35.0</ele><time>2026-04-11T06:04:51.859Z</time></trkpt><trkpt lat="40.933575" lon="14.0673067"><ele>35.0</ele><time>2026-04-11T06:04:52.861Z</time></trkpt><trkpt lat="40.9335683" lon="14.0671967"><ele>35.0</ele><time>2026-04-11T06:04:53.86Z</time></trkpt><trkpt lat="40.9335617" lon="14.06709"><ele>35.0</ele><time>2026-04-11T06:04:54.859Z</time></trkpt><trkpt lat="40.93356" lon="14.0669783"><ele>35.0</ele><time>2026-04-11T06:04:55.859Z</time></trkpt><trkpt lat="40.9335583" lon="14.066865"><ele>35.0</ele><time>2026-04-11T06:04:56.86Z</time></trkpt><trkpt lat="40.93356" lon="14.0667533"><ele>35.0</ele><time>2026-04-11T06:04:57.86Z</time></trkpt><trkpt lat="40.93356" lon="14.0666417"><ele>35.0</ele><time>2026-04-11T06:04:58.86Z</time></trkpt><trkpt lat="40.9335583" lon="14.0665317"><ele>35.0</ele><time>2026-04-11T06:04:59.86Z</time></trkpt><trkpt lat="40.9335583" lon="14.0664233"><ele>35.0</ele><time>2026-04-11T06:05:00.862Z</time></trkpt><trkpt lat="40.93356" lon="14.0663133"><ele>34.83333333333333</ele><time>2026-04-11T06:05:01.86Z</time></trkpt><trkpt lat="40.9335667" lon="14.0662017"><ele>34.666666666666664</ele><time>2026-04-11T06:05:02.86Z</time></trkpt><trkpt lat="40.933575" lon="14.0660933"><ele>34.5</ele><time>2026-04-11T06:05:03.862Z</time></trkpt><trkpt lat="40.9335817" lon="14.0659833"><ele>34.333333333333336</ele><time>2026-04-11T06:05:04.861Z</time></trkpt><trkpt lat="40.9335883" lon="14.065875"><ele>34.16666666666667</ele><time>2026-04-11T06:05:05.858Z</time></trkpt><trkpt lat="40.9335933" lon="14.06577"><ele>34.0</ele><time>2026-04-11T06:05:06.862Z</time></trkpt><trkpt lat="40.9335983" lon="14.0656633"><ele>34.0</ele><time>2026-04-11T06:05:07.86Z</time></trkpt><trkpt lat="40.9336033" lon="14.0655517"><ele>34.0</ele><time>2026-04-11T06:05:08.862Z</time></trkpt><trkpt lat="40.9336067" lon="14.0654417"><ele>34.0</ele><time>2026-04-11T06:05:09.859Z</time></trkpt><trkpt lat="40.9336117" lon="14.0653333"><ele>34.0</ele><time>2026-04-11T06:05:10.862Z</time></trkpt><trkpt lat="40.9336183" lon="14.065225"><ele>34.0</ele><time>2026-04-11T06:05:11.86Z</time></trkpt><trkpt lat="40.933625" lon="14.06512"><ele>34.0</ele><time>2026-04-11T06:05:12.862Z</time></trkpt><trkpt lat="40.9336267" lon="14.06502"><ele>33.833333333333336</ele><time>2026-04-11T06:05:13.861Z</time></trkpt><trkpt lat="40.9336317" lon="14.0649167"><ele>33.66666666666667</ele><time>2026-04-11T06:05:14.862Z</time></trkpt><trkpt lat="40.9336383" lon="14.0648133"><ele>33.5</ele><time>2026-04-11T06:05:15.858Z</time></trkpt><trkpt lat="40.933645" lon="14.0647033"><ele>33.333333333333336</ele><time>2026-04-11T06:05:16.86Z</time></trkpt><trkpt lat="40.9336517" lon="14.0645967"><ele>33.166666666666664</ele><time>2026-04-11T06:05:17.861Z</time></trkpt><trkpt lat="40.9336583" lon="14.0644867"><ele>33.0</ele><time>2026-04-11T06:05:18.861Z</time></trkpt><trkpt lat="40.9336667" lon="14.0643783"><ele>33.0</ele><time>2026-04-11T06:05:19.861Z</time></trkpt><trkpt lat="40.933675" lon="14.0642717"><ele>33.0</ele><time>2026-04-11T06:05:20.861Z</time></trkpt><trkpt lat="40.9336817" lon="14.0641683"><ele>33.0</ele><time>2026-04-11T06:05:21.859Z</time></trkpt><trkpt lat="40.93369" lon="14.0640667"><ele>33.0</ele><time>2026-04-11T06:05:22.861Z</time></trkpt><trkpt lat="40.9336967" lon="14.0639583"><ele>33.0</ele><time>2026-04-11T06:05:23.863Z</time></trkpt><trkpt lat="40.9336983" lon="14.0638517"><ele>33.0</ele><time>2026-04-11T06:05:24.861Z</time></trkpt><trkpt lat="40.933705" lon="14.0637383"><ele>33.0</ele><time>2026-04-11T06:05:25.861Z</time></trkpt><trkpt lat="40.933715" lon="14.0636317"><ele>33.0</ele><time>2026-04-11T06:05:26.86Z</time></trkpt><trkpt lat="40.9337233" lon="14.06353"><ele>33.0</ele><time>2026-04-11T06:05:27.858Z</time></trkpt><trkpt lat="40.9337333" lon="14.0634283"><ele>33.0</ele><time>2026-04-11T06:05:28.862Z</time></trkpt><trkpt lat="40.9337417" lon="14.063325"><ele>33.0</ele><time>2026-04-11T06:05:29.862Z</time></trkpt><trkpt lat="40.9337517" lon="14.0632233"><ele>33.0</ele><time>2026-04-11T06:05:30.86Z</time></trkpt><trkpt lat="40.93376" lon="14.0631217"><ele>32.833333333333336</ele><time>2026-04-11T06:05:31.863Z</time></trkpt><trkpt lat="40.9337717" lon="14.0630183"><ele>32.666666666666664</ele><time>2026-04-11T06:05:32.862Z</time></trkpt><trkpt lat="40.93378" lon="14.0629167"><ele>32.5</ele><time>2026-04-11T06:05:33.86Z</time></trkpt><trkpt lat="40.9337883" lon="14.0628167"><ele>32.33333333333333</ele><time>2026-04-11T06:05:34.861Z</time></trkpt><trkpt lat="40.9337983" lon="14.0627167"><ele>32.166666666666664</ele><time>2026-04-11T06:05:35.863Z</time></trkpt><trkpt lat="40.9338083" lon="14.0626167"><ele>32.0</ele><time>2026-04-11T06:05:36.86Z</time></trkpt><trkpt lat="40.933825" lon="14.062515"><ele>31.833333333333332</ele><time>2026-04-11T06:05:37.86Z</time></trkpt><trkpt lat="40.933855" lon="14.0624217"><ele>31.666666666666664</ele><time>2026-04-11T06:05:38.86Z</time></trkpt><trkpt lat="40.9339033" lon="14.06234"><ele>31.5</ele><time>2026-04-11T06:05:39.861Z</time></trkpt><trkpt lat="40.9339617" lon="14.0622783"><ele>31.333333333333336</ele><time>2026-04-11T06:05:40.861Z</time></trkpt><trkpt lat="40.934025" lon="14.0622267"><ele>31.166666666666668</ele><time>2026-04-11T06:05:41.862Z</time></trkpt><trkpt lat="40.9340867" lon="14.062175"><ele>31.0</ele><time>2026-04-11T06:05:42.86Z</time></trkpt><trkpt lat="40.9341517" lon="14.062125"><ele>31.0</ele><time>2026-04-11T06:05:43.859Z</time></trkpt><trkpt lat="40.9342167" lon="14.0620783"><ele>31.000000000000004</ele><time>2026-04-11T06:05:44.86Z</time></trkpt><trkpt lat="40.9342783" lon="14.0620283"><ele>31.0</ele><time>2026-04-11T06:05:45.859Z</time></trkpt><trkpt lat="40.93434" lon="14.06198"><ele>31.0</ele><time>2026-04-11T06:05:46.86Z</time></trkpt><trkpt lat="40.9344033" lon="14.06193"><ele>31.000000000000004</ele><time>2026-04-11T06:05:47.861Z</time></trkpt><trkpt lat="40.9344667" lon="14.06188"><ele>31.0</ele><time>2026-04-11T06:05:48.859Z</time></trkpt><trkpt lat="40.93453" lon="14.061825"><ele>31.0</ele><time>2026-04-11T06:05:49.858Z</time></trkpt><trkpt lat="40.9345933" lon="14.0617767"><ele>31.166666666666668</ele><time>2026-04-11T06:05:50.86Z</time></trkpt><trkpt lat="40.9346583" lon="14.06173"><ele>31.333333333333336</ele><time>2026-04-11T06:05:51.86Z</time></trkpt><trkpt lat="40.934725" lon="14.061685"><ele>31.5</ele><time>2026-04-11T06:05:52.86Z</time></trkpt><trkpt lat="40.93479" lon="14.0616367"><ele>31.666666666666664</ele><time>2026-04-11T06:05:53.863Z</time></trkpt><trkpt lat="40.934855" lon="14.0615883"><ele>31.833333333333332</ele><time>2026-04-11T06:05:54.862Z</time></trkpt><trkpt lat="40.9349233" lon="14.0615433"><ele>32.0</ele><time>2026-04-11T06:05:55.861Z</time></trkpt><trkpt lat="40.93499" lon="14.061495"><ele>31.499999999999996</ele><time>2026-04-11T06:05:56.86Z</time></trkpt><trkpt lat="40.9350567" lon="14.0614417"><ele>31.0</ele><time>2026-04-11T06:05:57.86Z</time></trkpt><trkpt lat="40.935125" lon="14.06139"><ele>30.5</ele><time>2026-04-11T06:05:58.859Z</time></trkpt><trkpt lat="40.9351967" lon="14.061335"><ele>30.0</ele><time>2026-04-11T06:05:59.86Z</time></trkpt><trkpt lat="40.93527" lon="14.0612767"><ele>29.499999999999996</ele><time>2026-04-11T06:06:00.86Z</time></trkpt><trkpt lat="40.9353483" lon="14.06122"><ele>29.0</ele><time>2026-04-11T06:06:01.861Z</time></trkpt><trkpt lat="40.9354267" lon="14.0611583"><ele>28.999999999999996</ele><time>2026-04-11T06:06:02.86Z</time></trkpt><trkpt lat="40.935505" lon="14.0610967"><ele>29.0</ele><time>2026-04-11T06:06:03.859Z</time></trkpt><trkpt lat="40.9355833" lon="14.0610333"><ele>29.0</ele><time>2026-04-11T06:06:04.861Z</time></trkpt><trkpt lat="40.93566" lon="14.0609683"><ele>29.0</ele><time>2026-04-11T06:06:05.861Z</time></trkpt><trkpt lat="40.9357333" lon="14.060905"><ele>28.999999999999996</ele><time>2026-04-11T06:06:06.859Z</time></trkpt><trkpt lat="40.93581" lon="14.0608483"><ele>29.0</ele><time>2026-04-11T06:06:07.858Z</time></trkpt><trkpt lat="40.9358867" lon="14.060795"><ele>28.833333333333332</ele><time>2026-04-11T06:06:08.859Z</time></trkpt><trkpt lat="40.935965" lon="14.0607417"><ele>28.666666666666664</ele><time>2026-04-11T06:06:09.858Z</time></trkpt><trkpt lat="40.936045" lon="14.0606917"><ele>28.5</ele><time>2026-04-11T06:06:10.859Z</time></trkpt><trkpt lat="40.9361217" lon="14.0606417"><ele>28.333333333333336</ele><time>2026-04-11T06:06:11.862Z</time></trkpt><trkpt lat="40.9362" lon="14.060595"><ele>28.166666666666668</ele><time>2026-04-11T06:06:12.858Z</time></trkpt><trkpt lat="40.93628" lon="14.060565"><ele>28.0</ele><time>2026-04-11T06:06:13.861Z</time></trkpt><trkpt lat="40.93636" lon="14.0605517"><ele>28.000000000000004</ele><time>2026-04-11T06:06:14.859Z</time></trkpt><trkpt lat="40.9364433" lon="14.06055"><ele>28.0</ele><time>2026-04-11T06:06:15.861Z</time></trkpt><trkpt lat="40.936525" lon="14.0605417"><ele>28.0</ele><time>2026-04-11T06:06:16.862Z</time></trkpt><trkpt lat="40.9366033" lon="14.06052"><ele>28.0</ele><time>2026-04-11T06:06:17.859Z</time></trkpt><trkpt lat="40.936675" lon="14.060475"><ele>28.000000000000004</ele><time>2026-04-11T06:06:18.862Z</time></trkpt><trkpt lat="40.9367383" lon="14.0604117"><ele>28.0</ele><time>2026-04-11T06:06:19.859Z</time></trkpt><trkpt lat="40.9367917" lon="14.0603417"><ele>28.000000000000004</ele><time>2026-04-11T06:06:20.862Z</time></trkpt><trkpt lat="40.936845" lon="14.0602683"><ele>28.0</ele><time>2026-04-11T06:06:21.862Z</time></trkpt><trkpt lat="40.9369033" lon="14.0602"><ele>28.0</ele><time>2026-04-11T06:06:22.86Z</time></trkpt><trkpt lat="40.93697" lon="14.0601433"><ele>28.0</ele><time>2026-04-11T06:06:23.861Z</time></trkpt><trkpt lat="40.9370467" lon="14.0600967"><ele>28.000000000000004</ele><time>2026-04-11T06:06:24.861Z</time></trkpt><trkpt lat="40.9371233" lon="14.0600567"><ele>28.0</ele><time>2026-04-11T06:06:25.862Z</time></trkpt><trkpt lat="40.9371967" lon="14.060015"><ele>28.000000000000004</ele><time>2026-04-11T06:06:26.859Z</time></trkpt><trkpt lat="40.93727" lon="14.05997"><ele>28.0</ele><time>2026-04-11T06:06:27.862Z</time></trkpt><trkpt lat="40.937345" lon="14.0599267"><ele>28.0</ele><time>2026-04-11T06:06:28.862Z</time></trkpt><trkpt lat="40.93742" lon="14.0598883"><ele>28.0</ele><time>2026-04-11T06:06:29.862Z</time></trkpt><trkpt lat="40.937495" lon="14.0598483"><ele>28.000000000000004</ele><time>2026-04-11T06:06:30.86Z</time></trkpt><trkpt lat="40.9375683" lon="14.0598067"><ele>28.0</ele><time>2026-04-11T06:06:31.861Z</time></trkpt><trkpt lat="40.9376417" lon="14.059765"><ele>28.000000000000004</ele><time>2026-04-11T06:06:32.862Z</time></trkpt><trkpt lat="40.9377133" lon="14.059725"><ele>28.0</ele><time>2026-04-11T06:06:33.86Z</time></trkpt><trkpt lat="40.937785" lon="14.0596867"><ele>28.0</ele><time>2026-04-11T06:06:34.86Z</time></trkpt><trkpt lat="40.937855" lon="14.059645"><ele>28.0</ele><time>2026-04-11T06:06:35.862Z</time></trkpt><trkpt lat="40.937925" lon="14.0596033"><ele>28.000000000000004</ele><time>2026-04-11T06:06:36.862Z</time></trkpt><trkpt lat="40.9379967" lon="14.0595633"><ele>28.0</ele><time>2026-04-11T06:06:37.86Z</time></trkpt><trkpt lat="40.93807" lon="14.0595233"><ele>28.000000000000004</ele><time>2026-04-11T06:06:38.858Z</time></trkpt><trkpt lat="40.9381417" lon="14.0594817"><ele>28.0</ele><time>2026-04-11T06:06:39.86Z</time></trkpt><trkpt lat="40.938215" lon="14.0594383"><ele>28.0</ele><time>2026-04-11T06:06:40.861Z</time></trkpt><trkpt lat="40.9382867" lon="14.0593933"><ele>28.0</ele><time>2026-04-11T06:06:41.86Z</time></trkpt><trkpt lat="40.9383583" lon="14.05935"><ele>28.000000000000004</ele><time>2026-04-11T06:06:42.86Z</time></trkpt><trkpt lat="40.9384317" lon="14.0593033"><ele>28.0</ele><time>2026-04-11T06:06:43.861Z</time></trkpt><trkpt lat="40.938505" lon="14.05926"><ele>27.833333333333336</ele><time>2026-04-11T06:06:44.858Z</time></trkpt><trkpt lat="40.9385767" lon="14.0592183"><ele>27.666666666666668</ele><time>2026-04-11T06:06:45.858Z</time></trkpt><trkpt lat="40.9386517" lon="14.0591817"><ele>27.5</ele><time>2026-04-11T06:06:46.861Z</time></trkpt><trkpt lat="40.9387267" lon="14.0591417"><ele>27.333333333333336</ele><time>2026-04-11T06:06:47.859Z</time></trkpt><trkpt lat="40.9388017" lon="14.0591"><ele>27.166666666666668</ele><time>2026-04-11T06:06:48.859Z</time></trkpt><trkpt lat="40.938875" lon="14.059055"><ele>27.0</ele><time>2026-04-11T06:06:49.86Z</time></trkpt><trkpt lat="40.93895" lon="14.0590117"><ele>26.5</ele><time>2026-04-11T06:06:50.861Z</time></trkpt><trkpt lat="40.939025" lon="14.05897"><ele>26.0</ele><time>2026-04-11T06:06:51.858Z</time></trkpt><trkpt lat="40.9391017" lon="14.0589317"><ele>25.5</ele><time>2026-04-11T06:06:52.86Z</time></trkpt><trkpt lat="40.9391767" lon="14.0588933"><ele>25.0</ele><time>2026-04-11T06:06:53.86Z</time></trkpt><trkpt lat="40.9392533" lon="14.0588517"><ele>24.5</ele><time>2026-04-11T06:06:54.861Z</time></trkpt><trkpt lat="40.9393283" lon="14.0588083"><ele>24.0</ele><time>2026-04-11T06:06:55.86Z</time></trkpt><trkpt lat="40.9394033" lon="14.0587667"><ele>23.833333333333332</ele><time>2026-04-11T06:06:56.861Z</time></trkpt><trkpt lat="40.9394767" lon="14.0587233"><ele>23.666666666666668</ele><time>2026-04-11T06:06:57.859Z</time></trkpt><trkpt lat="40.93955" lon="14.0586783"><ele>23.5</ele><time>2026-04-11T06:06:58.86Z</time></trkpt><trkpt lat="40.939625" lon="14.0586383"><ele>23.333333333333336</ele><time>2026-04-11T06:06:59.861Z</time></trkpt><trkpt lat="40.9396967" lon="14.0585967"><ele>23.166666666666668</ele><time>2026-04-11T06:07:00.862Z</time></trkpt><trkpt lat="40.93977" lon="14.058555"><ele>23.0</ele><time>2026-04-11T06:07:01.859Z</time></trkpt><trkpt lat="40.9398467" lon="14.0585133"><ele>23.0</ele><time>2026-04-11T06:07:02.862Z</time></trkpt><trkpt lat="40.93992" lon="14.05847"><ele>23.0</ele><time>2026-04-11T06:07:03.862Z</time></trkpt><trkpt lat="40.939995" lon="14.0584283"><ele>23.0</ele><time>2026-04-11T06:07:04.859Z</time></trkpt><trkpt lat="40.9400717" lon="14.058385"><ele>23.0</ele><time>2026-04-11T06:07:05.86Z</time></trkpt><trkpt lat="40.9401433" lon="14.0583433"><ele>23.0</ele><time>2026-04-11T06:07:06.862Z</time></trkpt><trkpt lat="40.9402183" lon="14.0582983"><ele>23.0</ele><time>2026-04-11T06:07:07.858Z</time></trkpt><trkpt lat="40.9402933" lon="14.0582517"><ele>23.5</ele><time>2026-04-11T06:07:08.862Z</time></trkpt><trkpt lat="40.9403667" lon="14.0582067"><ele>24.0</ele><time>2026-04-11T06:07:09.862Z</time></trkpt><trkpt lat="40.9404433" lon="14.05816"><ele>24.5</ele><time>2026-04-11T06:07:10.861Z</time></trkpt><trkpt lat="40.9405167" lon="14.0581133"><ele>25.0</ele><time>2026-04-11T06:07:11.862Z</time></trkpt><trkpt lat="40.940595" lon="14.0580683"><ele>25.499999999999996</ele><time>2026-04-11T06:07:12.861Z</time></trkpt><trkpt lat="40.9406717" lon="14.058025"><ele>26.0</ele><time>2026-04-11T06:07:13.862Z</time></trkpt><trkpt lat="40.9407467" lon="14.0579817"><ele>25.999999999999996</ele><time>2026-04-11T06:07:14.858Z</time></trkpt><trkpt lat="40.940825" lon="14.05794"><ele>26.0</ele><time>2026-04-11T06:07:15.862Z</time></trkpt><trkpt lat="40.940905" lon="14.0579017"><ele>26.0</ele><time>2026-04-11T06:07:16.86Z</time></trkpt><trkpt lat="40.94099" lon="14.0578667"><ele>26.0</ele><time>2026-04-11T06:07:17.86Z</time></trkpt><trkpt lat="40.9410733" lon="14.0578383"><ele>25.999999999999996</ele><time>2026-04-11T06:07:18.859Z</time></trkpt><trkpt lat="40.9411583" lon="14.0578167"><ele>26.0</ele><time>2026-04-11T06:07:19.859Z</time></trkpt><trkpt lat="40.9412433" lon="14.0577967"><ele>25.666666666666664</ele><time>2026-04-11T06:07:20.859Z</time></trkpt><trkpt lat="40.94133" lon="14.0577817"><ele>25.333333333333332</ele><time>2026-04-11T06:07:21.86Z</time></trkpt><trkpt lat="40.9414133" lon="14.0577667"><ele>25.0</ele><time>2026-04-11T06:07:22.86Z</time></trkpt><trkpt lat="40.9414983" lon="14.0577633"><ele>24.666666666666664</ele><time>2026-04-11T06:07:23.86Z</time></trkpt><trkpt lat="40.9415833" lon="14.0577567"><ele>24.333333333333332</ele><time>2026-04-11T06:07:24.859Z</time></trkpt><trkpt lat="40.94167" lon="14.0577533"><ele>24.0</ele><time>2026-04-11T06:07:25.86Z</time></trkpt><trkpt lat="40.9417567" lon="14.0577467"><ele>23.833333333333332</ele><time>2026-04-11T06:07:26.86Z</time></trkpt><trkpt lat="40.9418417" lon="14.0577417"><ele>23.666666666666668</ele><time>2026-04-11T06:07:27.859Z</time></trkpt><trkpt lat="40.9419283" lon="14.057735"><ele>23.5</ele><time>2026-04-11T06:07:28.861Z</time></trkpt><trkpt lat="40.9420117" lon="14.0577267"><ele>23.333333333333336</ele><time>2026-04-11T06:07:29.86Z</time></trkpt><trkpt lat="40.942095" lon="14.0577217"><ele>23.166666666666668</ele><time>2026-04-11T06:07:30.861Z</time></trkpt><trkpt lat="40.9421817" lon="14.0577183"><ele>23.0</ele><time>2026-04-11T06:07:31.858Z</time></trkpt><trkpt lat="40.942265" lon="14.0577167"><ele>23.0</ele><time>2026-04-11T06:07:32.86Z</time></trkpt><trkpt lat="40.9423517" lon="14.057715"><ele>23.0</ele><time>2026-04-11T06:07:33.861Z</time></trkpt><trkpt lat="40.9424367" lon="14.0577083"><ele>23.0</ele><time>2026-04-11T06:07:34.859Z</time></trkpt><trkpt lat="40.9425217" lon="14.0577017"><ele>23.0</ele><time>2026-04-11T06:07:35.86Z</time></trkpt><trkpt lat="40.942605" lon="14.0576967"><ele>23.0</ele><time>2026-04-11T06:07:36.86Z</time></trkpt><trkpt lat="40.9426883" lon="14.057695"><ele>23.0</ele><time>2026-04-11T06:07:37.86Z</time></trkpt><trkpt lat="40.94277" lon="14.0576867"><ele>23.0</ele><time>2026-04-11T06:07:38.859Z</time></trkpt><trkpt lat="40.9428517" lon="14.05768"><ele>23.0</ele><time>2026-04-11T06:07:39.858Z</time></trkpt><trkpt lat="40.9429317" lon="14.057675"><ele>23.0</ele><time>2026-04-11T06:07:40.86Z</time></trkpt><trkpt lat="40.9430133" lon="14.0576733"><ele>23.0</ele><time>2026-04-11T06:07:41.86Z</time></trkpt><trkpt lat="40.9430933" lon="14.0576733"><ele>23.0</ele><time>2026-04-11T06:07:42.861Z</time></trkpt><trkpt lat="40.9431733" lon="14.0576667"><ele>23.0</ele><time>2026-04-11T06:07:43.86Z</time></trkpt><trkpt lat="40.9432533" lon="14.057665"><ele>23.0</ele><time>2026-04-11T06:07:44.86Z</time></trkpt><trkpt lat="40.9433367" lon="14.0576617"><ele>23.0</ele><time>2026-04-11T06:07:45.859Z</time></trkpt><trkpt lat="40.9434183" lon="14.0576583"><ele>23.0</ele><time>2026-04-11T06:07:46.861Z</time></trkpt><trkpt lat="40.9435017" lon="14.05765"><ele>23.0</ele><time>2026-04-11T06:07:47.861Z</time></trkpt><trkpt lat="40.9435817" lon="14.0576417"><ele>23.0</ele><time>2026-04-11T06:07:48.861Z</time></trkpt><trkpt lat="40.9436633" lon="14.0576333"><ele>23.0</ele><time>2026-04-11T06:07:49.86Z</time></trkpt><trkpt lat="40.94375" lon="14.0576317"><ele>22.833333333333336</ele><time>2026-04-11T06:07:50.86Z</time></trkpt><trkpt lat="40.943835" lon="14.0576317"><ele>22.666666666666668</ele><time>2026-04-11T06:07:51.859Z</time></trkpt><trkpt lat="40.9439167" lon="14.0576283"><ele>22.5</ele><time>2026-04-11T06:07:52.859Z</time></trkpt><trkpt lat="40.9439983" lon="14.05762"><ele>22.333333333333332</ele><time>2026-04-11T06:07:53.86Z</time></trkpt><trkpt lat="40.94408" lon="14.0576133"><ele>22.166666666666664</ele><time>2026-04-11T06:07:54.86Z</time></trkpt><trkpt lat="40.9441633" lon="14.057605"><ele>22.0</ele><time>2026-04-11T06:07:55.861Z</time></trkpt><trkpt lat="40.9442467" lon="14.0575967"><ele>21.666666666666664</ele><time>2026-04-11T06:07:56.861Z</time></trkpt><trkpt lat="40.9443233" lon="14.0575783"><ele>21.333333333333332</ele><time>2026-04-11T06:07:57.86Z</time></trkpt><trkpt lat="40.9444033" lon="14.0575633"><ele>21.0</ele><time>2026-04-11T06:07:58.86Z</time></trkpt><trkpt lat="40.944485" lon="14.0575567"><ele>20.666666666666668</ele><time>2026-04-11T06:07:59.861Z</time></trkpt><trkpt lat="40.9445667" lon="14.0575517"><ele>20.333333333333336</ele><time>2026-04-11T06:08:00.859Z</time></trkpt><trkpt lat="40.9446467" lon="14.057545"><ele>20.0</ele><time>2026-04-11T06:08:01.861Z</time></trkpt><trkpt lat="40.9447233" lon="14.057535"><ele>20.0</ele><time>2026-04-11T06:08:02.859Z</time></trkpt><trkpt lat="40.9448033" lon="14.0575233"><ele>20.0</ele><time>2026-04-11T06:08:03.858Z</time></trkpt><trkpt lat="40.9448817" lon="14.0575167"><ele>20.0</ele><time>2026-04-11T06:08:04.858Z</time></trkpt><trkpt lat="40.9449617" lon="14.0575083"><ele>20.0</ele><time>2026-04-11T06:08:05.857Z</time></trkpt><trkpt lat="40.9450433" lon="14.0575017"><ele>20.0</ele><time>2026-04-11T06:08:06.861Z</time></trkpt><trkpt lat="40.9451217" lon="14.057495"><ele>20.0</ele><time>2026-04-11T06:08:07.858Z</time></trkpt><trkpt lat="40.9452017" lon="14.05749"><ele>19.666666666666668</ele><time>2026-04-11T06:08:08.865Z</time></trkpt><trkpt lat="40.9452817" lon="14.0574833"><ele>19.333333333333336</ele><time>2026-04-11T06:08:09.858Z</time></trkpt><trkpt lat="40.9453633" lon="14.0574767"><ele>19.0</ele><time>2026-04-11T06:08:10.859Z</time></trkpt><trkpt lat="40.945445" lon="14.0574767"><ele>18.666666666666668</ele><time>2026-04-11T06:08:11.858Z</time></trkpt><trkpt lat="40.945525" lon="14.0574783"><ele>18.333333333333332</ele><time>2026-04-11T06:08:12.858Z</time></trkpt><trkpt lat="40.9456067" lon="14.0574783"><ele>18.0</ele><time>2026-04-11T06:08:13.859Z</time></trkpt><trkpt lat="40.9456867" lon="14.0574783"><ele>18.0</ele><time>2026-04-11T06:08:14.857Z</time></trkpt><trkpt lat="40.9457683" lon="14.0574717"><ele>18.0</ele><time>2026-04-11T06:08:15.856Z</time></trkpt><trkpt lat="40.9458483" lon="14.057465"><ele>18.0</ele><time>2026-04-11T06:08:16.858Z</time></trkpt><trkpt lat="40.94593" lon="14.0574583"><ele>18.0</ele><time>2026-04-11T06:08:17.858Z</time></trkpt><trkpt lat="40.9460133" lon="14.0574533"><ele>18.0</ele><time>2026-04-11T06:08:18.858Z</time></trkpt><trkpt lat="40.9460933" lon="14.057445"><ele>18.0</ele><time>2026-04-11T06:08:19.858Z</time></trkpt><trkpt lat="40.946175" lon="14.0574367"><ele>18.0</ele><time>2026-04-11T06:08:20.859Z</time></trkpt><trkpt lat="40.9462533" lon="14.057435"><ele>18.0</ele><time>2026-04-11T06:08:21.86Z</time></trkpt><trkpt lat="40.9463333" lon="14.0574333"><ele>18.0</ele><time>2026-04-11T06:08:22.858Z</time></trkpt><trkpt lat="40.946415" lon="14.05743"><ele>18.0</ele><time>2026-04-11T06:08:23.859Z</time></trkpt><trkpt lat="40.9464933" lon="14.0574233"><ele>18.0</ele><time>2026-04-11T06:08:24.86Z</time></trkpt><trkpt lat="40.94657" lon="14.057415"><ele>18.0</ele><time>2026-04-11T06:08:25.86Z</time></trkpt><trkpt lat="40.9466483" lon="14.0574083"><ele>18.0</ele><time>2026-04-11T06:08:26.86Z</time></trkpt><trkpt lat="40.9467233" lon="14.0574017"><ele>18.0</ele><time>2026-04-11T06:08:27.861Z</time></trkpt><trkpt lat="40.9467983" lon="14.0573983"><ele>18.0</ele><time>2026-04-11T06:08:28.859Z</time></trkpt><trkpt lat="40.9468767" lon="14.0573967"><ele>18.0</ele><time>2026-04-11T06:08:29.858Z</time></trkpt><trkpt lat="40.946955" lon="14.0573917"><ele>18.0</ele><time>2026-04-11T06:08:30.858Z</time></trkpt><trkpt lat="40.94703" lon="14.0573867"><ele>18.0</ele><time>2026-04-11T06:08:31.858Z</time></trkpt><trkpt lat="40.9471067" lon="14.0573833"><ele>18.0</ele><time>2026-04-11T06:08:32.859Z</time></trkpt><trkpt lat="40.947185" lon="14.0573767"><ele>18.0</ele><time>2026-04-11T06:08:33.857Z</time></trkpt><trkpt lat="40.9472617" lon="14.0573633"><ele>18.0</ele><time>2026-04-11T06:08:34.859Z</time></trkpt><trkpt lat="40.9473383" lon="14.0573533"><ele>18.0</ele><time>2026-04-11T06:08:35.861Z</time></trkpt><trkpt lat="40.9474133" lon="14.0573417"><ele>18.0</ele><time>2026-04-11T06:08:36.858Z</time></trkpt><trkpt lat="40.9474917" lon="14.05733"><ele>18.0</ele><time>2026-04-11T06:08:37.858Z</time></trkpt><trkpt lat="40.9475683" lon="14.0573167"><ele>18.0</ele><time>2026-04-11T06:08:38.86Z</time></trkpt><trkpt lat="40.947645" lon="14.0573033"><ele>18.0</ele><time>2026-04-11T06:08:39.858Z</time></trkpt><trkpt lat="40.9477233" lon="14.057295"><ele>18.0</ele><time>2026-04-11T06:08:40.858Z</time></trkpt><trkpt lat="40.947805" lon="14.057275"><ele>18.0</ele><time>2026-04-11T06:08:41.858Z</time></trkpt><trkpt lat="40.9478867" lon="14.057265"><ele>18.0</ele><time>2026-04-11T06:08:42.859Z</time></trkpt><trkpt lat="40.9479683" lon="14.0572533"><ele>18.0</ele><time>2026-04-11T06:08:43.859Z</time></trkpt><trkpt lat="40.9480467" lon="14.0572383"><ele>18.0</ele><time>2026-04-11T06:08:44.859Z</time></trkpt><trkpt lat="40.948125" lon="14.0572233"><ele>18.0</ele><time>2026-04-11T06:08:45.859Z</time></trkpt><trkpt lat="40.948205" lon="14.0572083"><ele>18.0</ele><time>2026-04-11T06:08:46.857Z</time></trkpt><trkpt lat="40.9482833" lon="14.0571933"><ele>18.0</ele><time>2026-04-11T06:08:47.859Z</time></trkpt><trkpt lat="40.94836" lon="14.0571667"><ele>18.0</ele><time>2026-04-11T06:08:48.859Z</time></trkpt><trkpt lat="40.9484333" lon="14.0571433"><ele>18.0</ele><time>2026-04-11T06:08:49.859Z</time></trkpt><trkpt lat="40.94851" lon="14.057125"><ele>18.0</ele><time>2026-04-11T06:08:50.858Z</time></trkpt><trkpt lat="40.9485867" lon="14.057105"><ele>18.0</ele><time>2026-04-11T06:08:51.858Z</time></trkpt><trkpt lat="40.9486583" lon="14.057085"><ele>18.0</ele><time>2026-04-11T06:08:52.859Z</time></trkpt><trkpt lat="40.948735" lon="14.0570683"><ele>18.0</ele><time>2026-04-11T06:08:53.859Z</time></trkpt><trkpt lat="40.9488133" lon="14.0570533"><ele>18.0</ele><time>2026-04-11T06:08:54.857Z</time></trkpt><trkpt lat="40.9488867" lon="14.0570417"><ele>18.0</ele><time>2026-04-11T06:08:55.859Z</time></trkpt><trkpt lat="40.94896" lon="14.057025"><ele>18.0</ele><time>2026-04-11T06:08:56.858Z</time></trkpt><trkpt lat="40.949035" lon="14.0570033"><ele>18.0</ele><time>2026-04-11T06:08:57.859Z</time></trkpt><trkpt lat="40.9491133" lon="14.0569867"><ele>18.0</ele><time>2026-04-11T06:08:58.859Z</time></trkpt><trkpt lat="40.94919" lon="14.0569667"><ele>18.0</ele><time>2026-04-11T06:08:59.858Z</time></trkpt><trkpt lat="40.949265" lon="14.0569517"><ele>18.0</ele><time>2026-04-11T06:09:00.858Z</time></trkpt><trkpt lat="40.9493433" lon="14.0569367"><ele>18.0</ele><time>2026-04-11T06:09:01.859Z</time></trkpt><trkpt lat="40.9494233" lon="14.056915"><ele>17.666666666666668</ele><time>2026-04-11T06:09:02.858Z</time></trkpt><trkpt lat="40.9495" lon="14.0568967"><ele>17.333333333333332</ele><time>2026-04-11T06:09:03.859Z</time></trkpt><trkpt lat="40.949575" lon="14.05688"><ele>17.0</ele><time>2026-04-11T06:09:04.859Z</time></trkpt><trkpt lat="40.9496533" lon="14.05686"><ele>16.666666666666664</ele><time>2026-04-11T06:09:05.857Z</time></trkpt><trkpt lat="40.9497333" lon="14.0568367"><ele>16.333333333333332</ele><time>2026-04-11T06:09:06.858Z</time></trkpt><trkpt lat="40.9498117" lon="14.0568233"><ele>16.0</ele><time>2026-04-11T06:09:07.858Z</time></trkpt><trkpt lat="40.94989" lon="14.0568033"><ele>15.999999999999998</ele><time>2026-04-11T06:09:08.859Z</time></trkpt><trkpt lat="40.9499683" lon="14.0567833"><ele>16.0</ele><time>2026-04-11T06:09:09.859Z</time></trkpt><trkpt lat="40.9500467" lon="14.056765"><ele>16.0</ele><time>2026-04-11T06:09:10.859Z</time></trkpt><trkpt lat="40.9501267" lon="14.056755"><ele>16.0</ele><time>2026-04-11T06:09:11.858Z</time></trkpt><trkpt lat="40.9502067" lon="14.0567417"><ele>15.999999999999998</ele><time>2026-04-11T06:09:12.858Z</time></trkpt><trkpt lat="40.9502883" lon="14.05673"><ele>16.0</ele><time>2026-04-11T06:09:13.858Z</time></trkpt><trkpt lat="40.95037" lon="14.056715"><ele>16.166666666666664</ele><time>2026-04-11T06:09:14.859Z</time></trkpt><trkpt lat="40.95045" lon="14.0566933"><ele>16.333333333333332</ele><time>2026-04-11T06:09:15.858Z</time></trkpt><trkpt lat="40.9505317" lon="14.05667"><ele>16.5</ele><time>2026-04-11T06:09:16.859Z</time></trkpt><trkpt lat="40.95061" lon="14.0566467"><ele>16.666666666666668</ele><time>2026-04-11T06:09:17.859Z</time></trkpt><trkpt lat="40.9506883" lon="14.0566283"><ele>16.833333333333336</ele><time>2026-04-11T06:09:18.859Z</time></trkpt><trkpt lat="40.950765" lon="14.056615"><ele>17.0</ele><time>2026-04-11T06:09:19.858Z</time></trkpt><trkpt lat="40.9508433" lon="14.0565983"><ele>16.333333333333336</ele><time>2026-04-11T06:09:20.858Z</time></trkpt><trkpt lat="40.9509183" lon="14.0565817"><ele>15.666666666666668</ele><time>2026-04-11T06:09:21.858Z</time></trkpt><trkpt lat="40.950995" lon="14.0565617"><ele>15.0</ele><time>2026-04-11T06:09:22.859Z</time></trkpt><trkpt lat="40.9510717" lon="14.0565433"><ele>14.333333333333332</ele><time>2026-04-11T06:09:23.858Z</time></trkpt><trkpt lat="40.9511517" lon="14.0565233"><ele>13.666666666666666</ele><time>2026-04-11T06:09:24.858Z</time></trkpt><trkpt lat="40.9512333" lon="14.0565033"><ele>13.0</ele><time>2026-04-11T06:09:25.865Z</time></trkpt><trkpt lat="40.9513133" lon="14.0564867"><ele>12.999999999999998</ele><time>2026-04-11T06:09:26.858Z</time></trkpt><trkpt lat="40.95139" lon="14.0564717"><ele>13.0</ele><time>2026-04-11T06:09:27.857Z</time></trkpt><trkpt lat="40.9514667" lon="14.056455"><ele>13.0</ele><time>2026-04-11T06:09:28.858Z</time></trkpt><trkpt lat="40.9515417" lon="14.0564367"><ele>13.0</ele><time>2026-04-11T06:09:29.859Z</time></trkpt><trkpt lat="40.9516183" lon="14.0564183"><ele>12.999999999999998</ele><time>2026-04-11T06:09:30.859Z</time></trkpt><trkpt lat="40.9516967" lon="14.056405"><ele>13.0</ele><time>2026-04-11T06:09:31.859Z</time></trkpt><trkpt lat="40.9517717" lon="14.056385"><ele>12.833333333333332</ele><time>2026-04-11T06:09:32.859Z</time></trkpt><trkpt lat="40.95185" lon="14.05637"><ele>12.666666666666666</ele><time>2026-04-11T06:09:33.858Z</time></trkpt><trkpt lat="40.9519283" lon="14.05635"><ele>12.5</ele><time>2026-04-11T06:09:34.859Z</time></trkpt><trkpt lat="40.952005" lon="14.0563317"><ele>12.333333333333332</ele><time>2026-04-11T06:09:35.859Z</time></trkpt><trkpt lat="40.9520817" lon="14.0563133"><ele>12.166666666666666</ele><time>2026-04-11T06:09:36.859Z</time></trkpt><trkpt lat="40.9521617" lon="14.0563"><ele>12.0</ele><time>2026-04-11T06:09:37.86Z</time></trkpt><trkpt lat="40.95224" lon="14.0562833"><ele>12.0</ele><time>2026-04-11T06:09:38.858Z</time></trkpt><trkpt lat="40.9523183" lon="14.056265"><ele>12.0</ele><time>2026-04-11T06:09:39.858Z</time></trkpt><trkpt lat="40.952395" lon="14.0562467"><ele>12.0</ele><time>2026-04-11T06:09:40.859Z</time></trkpt><trkpt lat="40.9524733" lon="14.05623"><ele>12.0</ele><time>2026-04-11T06:09:41.86Z</time></trkpt><trkpt lat="40.952555" lon="14.0562167"><ele>12.0</ele><time>2026-04-11T06:09:42.857Z</time></trkpt><trkpt lat="40.9526333" lon="14.0562017"><ele>12.0</ele><time>2026-04-11T06:09:43.858Z</time></trkpt><trkpt lat="40.9527133" lon="14.0561883"><ele>12.0</ele><time>2026-04-11T06:09:44.858Z</time></trkpt><trkpt lat="40.95279" lon="14.0561683"><ele>12.0</ele><time>2026-04-11T06:09:45.859Z</time></trkpt><trkpt lat="40.9528683" lon="14.05615"><ele>12.0</ele><time>2026-04-11T06:09:46.858Z</time></trkpt><trkpt lat="40.952945" lon="14.0561233"><ele>12.0</ele><time>2026-04-11T06:09:47.86Z</time></trkpt><trkpt lat="40.953025" lon="14.0561017"><ele>12.0</ele><time>2026-04-11T06:09:48.859Z</time></trkpt><trkpt lat="40.9531033" lon="14.0560817"><ele>12.0</ele><time>2026-04-11T06:09:49.859Z</time></trkpt><trkpt lat="40.95318" lon="14.0560617"><ele>12.0</ele><time>2026-04-11T06:09:50.861Z</time></trkpt><trkpt lat="40.9532583" lon="14.0560433"><ele>12.0</ele><time>2026-04-11T06:09:51.859Z</time></trkpt><trkpt lat="40.953335" lon="14.0560233"><ele>12.0</ele><time>2026-04-11T06:09:52.859Z</time></trkpt><trkpt lat="40.9534133" lon="14.0560017"><ele>12.0</ele><time>2026-04-11T06:09:53.858Z</time></trkpt><trkpt lat="40.9534917" lon="14.0559817"><ele>12.0</ele><time>2026-04-11T06:09:54.858Z</time></trkpt><trkpt lat="40.9535683" lon="14.0559633"><ele>12.0</ele><time>2026-04-11T06:09:55.858Z</time></trkpt><trkpt lat="40.953645" lon="14.0559433"><ele>12.0</ele><time>2026-04-11T06:09:56.859Z</time></trkpt><trkpt lat="40.9537233" lon="14.0559233"><ele>12.0</ele><time>2026-04-11T06:09:57.857Z</time></trkpt><trkpt lat="40.9538017" lon="14.055905"><ele>12.0</ele><time>2026-04-11T06:09:58.86Z</time></trkpt><trkpt lat="40.9538783" lon="14.0558833"><ele>12.0</ele><time>2026-04-11T06:09:59.858Z</time></trkpt><trkpt lat="40.9539567" lon="14.0558633"><ele>12.0</ele><time>2026-04-11T06:10:00.858Z</time></trkpt><trkpt lat="40.9540333" lon="14.0558433"><ele>12.0</ele><time>2026-04-11T06:10:01.859Z</time></trkpt><trkpt lat="40.9541083" lon="14.055825"><ele>12.0</ele><time>2026-04-11T06:10:02.858Z</time></trkpt><trkpt lat="40.9541867" lon="14.0558117"><ele>12.0</ele><time>2026-04-11T06:10:03.859Z</time></trkpt><trkpt lat="40.9542633" lon="14.0557967"><ele>12.0</ele><time>2026-04-11T06:10:04.858Z</time></trkpt><trkpt lat="40.9543417" lon="14.0557817"><ele>12.0</ele><time>2026-04-11T06:10:05.86Z</time></trkpt><trkpt lat="40.9544183" lon="14.0557633"><ele>12.0</ele><time>2026-04-11T06:10:06.86Z</time></trkpt><trkpt lat="40.9544967" lon="14.0557483"><ele>12.0</ele><time>2026-04-11T06:10:07.86Z</time></trkpt><trkpt lat="40.9545733" lon="14.055735"><ele>11.833333333333334</ele><time>2026-04-11T06:10:08.858Z</time></trkpt><trkpt lat="40.95465" lon="14.0557183"><ele>11.666666666666666</ele><time>2026-04-11T06:10:09.859Z</time></trkpt><trkpt lat="40.9547283" lon="14.0556883"><ele>11.5</ele><time>2026-04-11T06:10:10.859Z</time></trkpt><trkpt lat="40.954805" lon="14.055665"><ele>11.333333333333332</ele><time>2026-04-11T06:10:11.858Z</time></trkpt><trkpt lat="40.9548833" lon="14.055645"><ele>11.166666666666666</ele><time>2026-04-11T06:10:12.858Z</time></trkpt><trkpt lat="40.9549617" lon="14.0556267"><ele>11.0</ele><time>2026-04-11T06:10:13.86Z</time></trkpt><trkpt lat="40.95504" lon="14.05561"><ele>11.0</ele><time>2026-04-11T06:10:14.859Z</time></trkpt><trkpt lat="40.9551167" lon="14.0555833"><ele>11.0</ele><time>2026-04-11T06:10:15.857Z</time></trkpt><trkpt lat="40.955195" lon="14.0555533"><ele>11.0</ele><time>2026-04-11T06:10:16.86Z</time></trkpt><trkpt lat="40.9552717" lon="14.055525"><ele>11.0</ele><time>2026-04-11T06:10:17.861Z</time></trkpt><trkpt lat="40.9553533" lon="14.0555"><ele>11.0</ele><time>2026-04-11T06:10:18.859Z</time></trkpt><trkpt lat="40.95543" lon="14.0554683"><ele>11.0</ele><time>2026-04-11T06:10:19.861Z</time></trkpt><trkpt lat="40.95551" lon="14.0554383"><ele>11.0</ele><time>2026-04-11T06:10:20.86Z</time></trkpt><trkpt lat="40.9555867" lon="14.0554083"><ele>11.0</ele><time>2026-04-11T06:10:21.859Z</time></trkpt><trkpt lat="40.9556633" lon="14.0553817"><ele>11.0</ele><time>2026-04-11T06:10:22.86Z</time></trkpt><trkpt lat="40.9557417" lon="14.0553533"><ele>11.0</ele><time>2026-04-11T06:10:23.861Z</time></trkpt><trkpt lat="40.95582" lon="14.0553217"><ele>11.0</ele><time>2026-04-11T06:10:24.859Z</time></trkpt><trkpt lat="40.9559" lon="14.0552933"><ele>11.0</ele><time>2026-04-11T06:10:25.864Z</time></trkpt><trkpt lat="40.95598" lon="14.0552667"><ele>11.0</ele><time>2026-04-11T06:10:26.858Z</time></trkpt><trkpt lat="40.956055" lon="14.0552367"><ele>11.0</ele><time>2026-04-11T06:10:27.858Z</time></trkpt><trkpt lat="40.9561333" lon="14.05521"><ele>11.0</ele><time>2026-04-11T06:10:28.859Z</time></trkpt><trkpt lat="40.95621" lon="14.0551817"><ele>11.0</ele><time>2026-04-11T06:10:29.859Z</time></trkpt><trkpt lat="40.9562883" lon="14.0551533"><ele>11.0</ele><time>2026-04-11T06:10:30.858Z</time></trkpt><trkpt lat="40.956365" lon="14.055125"><ele>11.0</ele><time>2026-04-11T06:10:31.859Z</time></trkpt><trkpt lat="40.9564417" lon="14.055095"><ele>11.0</ele><time>2026-04-11T06:10:32.858Z</time></trkpt><trkpt lat="40.9565183" lon="14.055065"><ele>11.0</ele><time>2026-04-11T06:10:33.86Z</time></trkpt><trkpt lat="40.9565967" lon="14.0550333"><ele>11.0</ele><time>2026-04-11T06:10:34.86Z</time></trkpt><trkpt lat="40.9566733" lon="14.0550017"><ele>11.0</ele><time>2026-04-11T06:10:35.86Z</time></trkpt><trkpt lat="40.95675" lon="14.0549733"><ele>11.0</ele><time>2026-04-11T06:10:36.86Z</time></trkpt><trkpt lat="40.95683" lon="14.0549433"><ele>11.0</ele><time>2026-04-11T06:10:37.86Z</time></trkpt><trkpt lat="40.9569067" lon="14.05491"><ele>10.5</ele><time>2026-04-11T06:10:38.859Z</time></trkpt><trkpt lat="40.9569833" lon="14.0548783"><ele>10.0</ele><time>2026-04-11T06:10:39.858Z</time></trkpt><trkpt lat="40.9570567" lon="14.0548533"><ele>9.5</ele><time>2026-04-11T06:10:40.86Z</time></trkpt><trkpt lat="40.9571333" lon="14.0548267"><ele>9.0</ele><time>2026-04-11T06:10:41.86Z</time></trkpt><trkpt lat="40.9572117" lon="14.0548017"><ele>8.5</ele><time>2026-04-11T06:10:42.859Z</time></trkpt><trkpt lat="40.9572883" lon="14.05477"><ele>8.0</ele><time>2026-04-11T06:10:43.859Z</time></trkpt><trkpt lat="40.9573633" lon="14.0547417"><ele>7.999999999999999</ele><time>2026-04-11T06:10:44.859Z</time></trkpt><trkpt lat="40.9574383" lon="14.054715"><ele>8.0</ele><time>2026-04-11T06:10:45.86Z</time></trkpt><trkpt lat="40.9575133" lon="14.054685"><ele>8.0</ele><time>2026-04-11T06:10:46.859Z</time></trkpt><trkpt lat="40.9575917" lon="14.0546583"><ele>8.0</ele><time>2026-04-11T06:10:47.858Z</time></trkpt><trkpt lat="40.95767" lon="14.05463"><ele>7.999999999999999</ele><time>2026-04-11T06:10:48.86Z</time></trkpt><trkpt lat="40.9577467" lon="14.0546017"><ele>8.0</ele><time>2026-04-11T06:10:49.86Z</time></trkpt><trkpt lat="40.9578217" lon="14.0545717"><ele>8.166666666666666</ele><time>2026-04-11T06:10:50.859Z</time></trkpt><trkpt lat="40.9578983" lon="14.05454"><ele>8.333333333333332</ele><time>2026-04-11T06:10:51.859Z</time></trkpt><trkpt lat="40.9579733" lon="14.0545"><ele>8.5</ele><time>2026-04-11T06:10:52.859Z</time></trkpt><trkpt lat="40.9580483" lon="14.054465"><ele>8.666666666666666</ele><time>2026-04-11T06:10:53.859Z</time></trkpt><trkpt lat="40.9581267" lon="14.0544317"><ele>8.833333333333334</ele><time>2026-04-11T06:10:54.858Z</time></trkpt><trkpt lat="40.9582033" lon="14.0543983"><ele>9.0</ele><time>2026-04-11T06:10:55.86Z</time></trkpt><trkpt lat="40.95828" lon="14.05437"><ele>9.0</ele><time>2026-04-11T06:10:56.859Z</time></trkpt><trkpt lat="40.9583567" lon="14.0543433"><ele>9.0</ele><time>2026-04-11T06:10:57.859Z</time></trkpt><trkpt lat="40.9584333" lon="14.0543133"><ele>9.0</ele><time>2026-04-11T06:10:58.858Z</time></trkpt><trkpt lat="40.9585117" lon="14.05429"><ele>9.0</ele><time>2026-04-11T06:10:59.859Z</time></trkpt><trkpt lat="40.9585883" lon="14.0542633"><ele>9.0</ele><time>2026-04-11T06:11:00.858Z</time></trkpt><trkpt lat="40.958665" lon="14.0542367"><ele>9.0</ele><time>2026-04-11T06:11:01.86Z</time></trkpt><trkpt lat="40.9587417" lon="14.0542083"><ele>8.833333333333334</ele><time>2026-04-11T06:11:02.86Z</time></trkpt><trkpt lat="40.9588167" lon="14.0541817"><ele>8.666666666666666</ele><time>2026-04-11T06:11:03.859Z</time></trkpt><trkpt lat="40.9588917" lon="14.0541517"><ele>8.5</ele><time>2026-04-11T06:11:04.859Z</time></trkpt><trkpt lat="40.9589683" lon="14.0541217"><ele>8.333333333333332</ele><time>2026-04-11T06:11:05.859Z</time></trkpt><trkpt lat="40.9590417" lon="14.0540917"><ele>8.166666666666666</ele><time>2026-04-11T06:11:06.86Z</time></trkpt><trkpt lat="40.9591183" lon="14.054065"><ele>8.0</ele><time>2026-04-11T06:11:07.859Z</time></trkpt><trkpt lat="40.959195" lon="14.05404"><ele>7.833333333333333</ele><time>2026-04-11T06:11:08.858Z</time></trkpt><trkpt lat="40.9592717" lon="14.054015"><ele>7.666666666666666</ele><time>2026-04-11T06:11:09.856Z</time></trkpt><trkpt lat="40.9593467" lon="14.0539817"><ele>7.5</ele><time>2026-04-11T06:11:10.859Z</time></trkpt><trkpt lat="40.9594233" lon="14.05395"><ele>7.333333333333334</ele><time>2026-04-11T06:11:11.86Z</time></trkpt><trkpt lat="40.9594983" lon="14.053915"><ele>7.166666666666667</ele><time>2026-04-11T06:11:12.859Z</time></trkpt><trkpt lat="40.9595733" lon="14.0538767"><ele>7.0</ele><time>2026-04-11T06:11:13.858Z</time></trkpt><trkpt lat="40.95965" lon="14.0538483"><ele>7.000000000000001</ele><time>2026-04-11T06:11:14.86Z</time></trkpt><trkpt lat="40.959725" lon="14.0538183"><ele>7.0</ele><time>2026-04-11T06:11:15.857Z</time></trkpt><trkpt lat="40.9598017" lon="14.053785"><ele>7.0</ele><time>2026-04-11T06:11:16.859Z</time></trkpt><trkpt lat="40.9598783" lon="14.0537567"><ele>7.0</ele><time>2026-04-11T06:11:17.86Z</time></trkpt><trkpt lat="40.9599517" lon="14.0537317"><ele>7.000000000000001</ele><time>2026-04-11T06:11:18.858Z</time></trkpt><trkpt lat="40.9600283" lon="14.053705"><ele>7.0</ele><time>2026-04-11T06:11:19.86Z</time></trkpt><trkpt lat="40.9601067" lon="14.0536783"><ele>7.166666666666667</ele><time>2026-04-11T06:11:20.859Z</time></trkpt><trkpt lat="40.96018" lon="14.0536467"><ele>7.333333333333334</ele><time>2026-04-11T06:11:21.859Z</time></trkpt><trkpt lat="40.960255" lon="14.0536183"><ele>7.5</ele><time>2026-04-11T06:11:22.86Z</time></trkpt><trkpt lat="40.9603283" lon="14.0535917"><ele>7.666666666666666</ele><time>2026-04-11T06:11:23.86Z</time></trkpt><trkpt lat="40.9604017" lon="14.053565"><ele>7.833333333333333</ele><time>2026-04-11T06:11:24.86Z</time></trkpt><trkpt lat="40.960475" lon="14.0535367"><ele>8.0</ele><time>2026-04-11T06:11:25.86Z</time></trkpt><trkpt lat="40.9605483" lon="14.0535083"><ele>7.999999999999999</ele><time>2026-04-11T06:11:26.859Z</time></trkpt><trkpt lat="40.9606217" lon="14.0534783"><ele>8.0</ele><time>2026-04-11T06:11:27.859Z</time></trkpt><trkpt lat="40.960695" lon="14.05345"><ele>8.0</ele><time>2026-04-11T06:11:28.858Z</time></trkpt><trkpt lat="40.96077" lon="14.0534217"><ele>8.0</ele><time>2026-04-11T06:11:29.86Z</time></trkpt><trkpt lat="40.960845" lon="14.0533983"><ele>7.999999999999999</ele><time>2026-04-11T06:11:30.859Z</time></trkpt><trkpt lat="40.9609217" lon="14.0533733"><ele>8.0</ele><time>2026-04-11T06:11:31.859Z</time></trkpt><trkpt lat="40.9609967" lon="14.053345"><ele>7.999999999999999</ele><time>2026-04-11T06:11:32.859Z</time></trkpt><trkpt lat="40.9610683" lon="14.0533117"><ele>8.0</ele><time>2026-04-11T06:11:33.859Z</time></trkpt><trkpt lat="40.96114" lon="14.05328"><ele>8.0</ele><time>2026-04-11T06:11:34.86Z</time></trkpt><trkpt lat="40.9612117" lon="14.05325"><ele>8.0</ele><time>2026-04-11T06:11:35.858Z</time></trkpt><trkpt lat="40.961285" lon="14.05322"><ele>7.999999999999999</ele><time>2026-04-11T06:11:36.86Z</time></trkpt><trkpt lat="40.9613583" lon="14.05319"><ele>8.0</ele><time>2026-04-11T06:11:37.86Z</time></trkpt><trkpt lat="40.9614317" lon="14.053165"><ele>7.833333333333333</ele><time>2026-04-11T06:11:38.859Z</time></trkpt><trkpt lat="40.9615067" lon="14.0531367"><ele>7.666666666666666</ele><time>2026-04-11T06:11:39.859Z</time></trkpt><trkpt lat="40.96158" lon="14.053105"><ele>7.5</ele><time>2026-04-11T06:11:40.859Z</time></trkpt><trkpt lat="40.961655" lon="14.0530767"><ele>7.333333333333334</ele><time>2026-04-11T06:11:41.86Z</time></trkpt><trkpt lat="40.96173" lon="14.0530517"><ele>7.166666666666667</ele><time>2026-04-11T06:11:42.859Z</time></trkpt><trkpt lat="40.9618017" lon="14.05302"><ele>7.0</ele><time>2026-04-11T06:11:43.86Z</time></trkpt><trkpt lat="40.9618717" lon="14.0529883"><ele>7.000000000000001</ele><time>2026-04-11T06:11:44.859Z</time></trkpt><trkpt lat="40.961945" lon="14.05296"><ele>7.0</ele><time>2026-04-11T06:11:45.86Z</time></trkpt><trkpt lat="40.9620183" lon="14.05293"><ele>7.0</ele><time>2026-04-11T06:11:46.86Z</time></trkpt><trkpt lat="40.9620917" lon="14.0529033"><ele>7.0</ele><time>2026-04-11T06:11:47.86Z</time></trkpt><trkpt lat="40.9621633" lon="14.052875"><ele>7.000000000000001</ele><time>2026-04-11T06:11:48.86Z</time></trkpt><trkpt lat="40.9622333" lon="14.0528433"><ele>7.0</ele><time>2026-04-11T06:11:49.86Z</time></trkpt><trkpt lat="40.9623017" lon="14.052815"><ele>7.000000000000001</ele><time>2026-04-11T06:11:50.859Z</time></trkpt><trkpt lat="40.9623683" lon="14.05279"><ele>7.0</ele><time>2026-04-11T06:11:51.858Z</time></trkpt><trkpt lat="40.962435" lon="14.05277"><ele>7.0</ele><time>2026-04-11T06:11:52.86Z</time></trkpt><trkpt lat="40.9625567" lon="14.0527333"><ele>7.0</ele><time>2026-04-11T06:11:54.859Z</time></trkpt><trkpt lat="40.9626167" lon="14.0527017"><ele>7.000000000000001</ele><time>2026-04-11T06:11:55.86Z</time></trkpt><trkpt lat="40.9626767" lon="14.052665"><ele>7.0</ele><time>2026-04-11T06:11:56.86Z</time></trkpt><trkpt lat="40.9627367" lon="14.0526317"><ele>7.0</ele><time>2026-04-11T06:11:57.86Z</time></trkpt><trkpt lat="40.9627983" lon="14.0525967"><ele>7.0</ele><time>2026-04-11T06:11:58.858Z</time></trkpt><trkpt lat="40.962865" lon="14.052565"><ele>7.0</ele><time>2026-04-11T06:11:59.86Z</time></trkpt><trkpt lat="40.9629333" lon="14.0525367"><ele>7.0</ele><time>2026-04-11T06:12:00.858Z</time></trkpt><trkpt lat="40.963" lon="14.052505"><ele>7.0</ele><time>2026-04-11T06:12:01.86Z</time></trkpt><trkpt lat="40.9630683" lon="14.052475"><ele>7.0</ele><time>2026-04-11T06:12:02.859Z</time></trkpt><trkpt lat="40.9631383" lon="14.052445"><ele>7.0</ele><time>2026-04-11T06:12:03.858Z</time></trkpt><trkpt lat="40.9632083" lon="14.0524167"><ele>7.0</ele><time>2026-04-11T06:12:04.86Z</time></trkpt><trkpt lat="40.9632817" lon="14.0523867"><ele>7.0</ele><time>2026-04-11T06:12:05.859Z</time></trkpt><trkpt lat="40.9633483" lon="14.0523517"><ele>7.0</ele><time>2026-04-11T06:12:06.86Z</time></trkpt><trkpt lat="40.9634133" lon="14.0523183"><ele>7.0</ele><time>2026-04-11T06:12:07.858Z</time></trkpt><trkpt lat="40.9634833" lon="14.05229"><ele>7.0</ele><time>2026-04-11T06:12:08.86Z</time></trkpt><trkpt lat="40.9635567" lon="14.0522633"><ele>7.0</ele><time>2026-04-11T06:12:09.859Z</time></trkpt><trkpt lat="40.96363" lon="14.0522317"><ele>7.0</ele><time>2026-04-11T06:12:10.858Z</time></trkpt><trkpt lat="40.9637083" lon="14.0522033"><ele>7.0</ele><time>2026-04-11T06:12:11.86Z</time></trkpt><trkpt lat="40.96378" lon="14.052175"><ele>7.0</ele><time>2026-04-11T06:12:12.859Z</time></trkpt><trkpt lat="40.9638517" lon="14.05215"><ele>7.0</ele><time>2026-04-11T06:12:13.859Z</time></trkpt><trkpt lat="40.96392" lon="14.0521267"><ele>7.0</ele><time>2026-04-11T06:12:14.859Z</time></trkpt><trkpt lat="40.9639883" lon="14.0521017"><ele>7.0</ele><time>2026-04-11T06:12:15.858Z</time></trkpt><trkpt lat="40.9640583" lon="14.0520733"><ele>7.0</ele><time>2026-04-11T06:12:16.858Z</time></trkpt><trkpt lat="40.96413" lon="14.0520483"><ele>7.0</ele><time>2026-04-11T06:12:17.86Z</time></trkpt><trkpt lat="40.9642017" lon="14.0520217"><ele>7.0</ele><time>2026-04-11T06:12:18.858Z</time></trkpt><trkpt lat="40.9642733" lon="14.0519917"><ele>7.0</ele><time>2026-04-11T06:12:19.86Z</time></trkpt><trkpt lat="40.964345" lon="14.0519633"><ele>7.0</ele><time>2026-04-11T06:12:20.86Z</time></trkpt><trkpt lat="40.964415" lon="14.0519433"><ele>7.0</ele><time>2026-04-11T06:12:21.858Z</time></trkpt><trkpt lat="40.9644833" lon="14.051925"><ele>7.0</ele><time>2026-04-11T06:12:22.859Z</time></trkpt><trkpt lat="40.9645467" lon="14.0519017"><ele>7.0</ele><time>2026-04-11T06:12:23.859Z</time></trkpt><trkpt lat="40.9646117" lon="14.0518783"><ele>7.0</ele><time>2026-04-11T06:12:24.86Z</time></trkpt><trkpt lat="40.9646783" lon="14.0518533"><ele>7.0</ele><time>2026-04-11T06:12:25.86Z</time></trkpt><trkpt lat="40.9647433" lon="14.05183"><ele>7.0</ele><time>2026-04-11T06:12:26.858Z</time></trkpt><trkpt lat="40.9648133" lon="14.05181"><ele>7.0</ele><time>2026-04-11T06:12:27.859Z</time></trkpt><trkpt lat="40.96488" lon="14.051785"><ele>7.0</ele><time>2026-04-11T06:12:28.859Z</time></trkpt><trkpt lat="40.9649467" lon="14.05176"><ele>7.0</ele><time>2026-04-11T06:12:29.86Z</time></trkpt><trkpt lat="40.965015" lon="14.051735"><ele>7.0</ele><time>2026-04-11T06:12:30.859Z</time></trkpt><trkpt lat="40.9650833" lon="14.0517083"><ele>7.0</ele><time>2026-04-11T06:12:31.86Z</time></trkpt><trkpt lat="40.9651533" lon="14.0516783"><ele>6.714285714285714</ele><time>2026-04-11T06:12:32.862Z</time></trkpt><trkpt lat="40.965225" lon="14.0516533"><ele>6.428571428571429</ele><time>2026-04-11T06:12:33.861Z</time></trkpt><trkpt lat="40.965295" lon="14.0516283"><ele>6.142857142857142</ele><time>2026-04-11T06:12:34.858Z</time></trkpt><trkpt lat="40.965365" lon="14.0516017"><ele>5.857142857142858</ele><time>2026-04-11T06:12:35.859Z</time></trkpt><trkpt lat="40.9654367" lon="14.0515733"><ele>5.571428571428571</ele><time>2026-04-11T06:12:36.859Z</time></trkpt><trkpt lat="40.9655067" lon="14.0515467"><ele>5.285714285714286</ele><time>2026-04-11T06:12:37.86Z</time></trkpt><trkpt lat="40.9655767" lon="14.0515233"><ele>5.0</ele><time>2026-04-11T06:12:38.86Z</time></trkpt><trkpt lat="40.9656467" lon="14.051495"><ele>5.0</ele><time>2026-04-11T06:12:39.859Z</time></trkpt><trkpt lat="40.9657183" lon="14.0514683"><ele>5.0</ele><time>2026-04-11T06:12:40.859Z</time></trkpt><trkpt lat="40.9657867" lon="14.0514383"><ele>5.0</ele><time>2026-04-11T06:12:41.859Z</time></trkpt><trkpt lat="40.9658583" lon="14.051405"><ele>5.0</ele><time>2026-04-11T06:12:42.859Z</time></trkpt><trkpt lat="40.96593" lon="14.05138"><ele>5.0</ele><time>2026-04-11T06:12:43.858Z</time></trkpt><trkpt lat="40.9660017" lon="14.05135"><ele>5.0</ele><time>2026-04-11T06:12:44.858Z</time></trkpt><trkpt lat="40.9660717" lon="14.0513217"><ele>5.0</ele><time>2026-04-11T06:12:45.858Z</time></trkpt><trkpt lat="40.966145" lon="14.0512917"><ele>5.0</ele><time>2026-04-11T06:12:46.86Z</time></trkpt><trkpt lat="40.966215" lon="14.0512633"><ele>5.0</ele><time>2026-04-11T06:12:47.86Z</time></trkpt><trkpt lat="40.9662867" lon="14.0512333"><ele>5.0</ele><time>2026-04-11T06:12:48.86Z</time></trkpt><trkpt lat="40.9663583" lon="14.051205"><ele>5.0</ele><time>2026-04-11T06:12:49.86Z</time></trkpt><trkpt lat="40.9664283" lon="14.05118"><ele>5.0</ele><time>2026-04-11T06:12:50.859Z</time></trkpt><trkpt lat="40.9665" lon="14.051155"><ele>5.0</ele><time>2026-04-11T06:12:51.858Z</time></trkpt><trkpt lat="40.966575" lon="14.0511267"><ele>5.0</ele><time>2026-04-11T06:12:52.86Z</time></trkpt><trkpt lat="40.96665" lon="14.0510983"><ele>4.857142857142857</ele><time>2026-04-11T06:12:53.86Z</time></trkpt><trkpt lat="40.9667233" lon="14.05107"><ele>4.714285714285714</ele><time>2026-04-11T06:12:54.859Z</time></trkpt><trkpt lat="40.966795" lon="14.0510433"><ele>4.571428571428571</ele><time>2026-04-11T06:12:55.859Z</time></trkpt><trkpt lat="40.9668667" lon="14.05102"><ele>4.428571428571429</ele><time>2026-04-11T06:12:56.863Z</time></trkpt><trkpt lat="40.9669367" lon="14.0509933"><ele>4.285714285714286</ele><time>2026-04-11T06:12:57.858Z</time></trkpt><trkpt lat="40.9670067" lon="14.0509683"><ele>4.142857142857142</ele><time>2026-04-11T06:12:58.859Z</time></trkpt><trkpt lat="40.9670783" lon="14.0509433"><ele>4.0</ele><time>2026-04-11T06:12:59.859Z</time></trkpt><trkpt lat="40.96715" lon="14.0509133"><ele>3.9999999999999996</ele><time>2026-04-11T06:13:00.858Z</time></trkpt><trkpt lat="40.9672233" lon="14.050885"><ele>4.0</ele><time>2026-04-11T06:13:01.859Z</time></trkpt><trkpt lat="40.9672983" lon="14.05086"><ele>4.0</ele><time>2026-04-11T06:13:02.858Z</time></trkpt><trkpt lat="40.9673733" lon="14.0508317"><ele>4.0</ele><time>2026-04-11T06:13:03.859Z</time></trkpt><trkpt lat="40.9674467" lon="14.050805"><ele>3.9999999999999996</ele><time>2026-04-11T06:13:04.859Z</time></trkpt><trkpt lat="40.96752" lon="14.05078"><ele>4.0</ele><time>2026-04-11T06:13:05.86Z</time></trkpt><trkpt lat="40.9675933" lon="14.0507533"><ele>3.9999999999999996</ele><time>2026-04-11T06:13:06.86Z</time></trkpt><trkpt lat="40.9676667" lon="14.0507267"><ele>4.0</ele><time>2026-04-11T06:13:07.86Z</time></trkpt><trkpt lat="40.96774" lon="14.0507"><ele>4.0</ele><time>2026-04-11T06:13:08.859Z</time></trkpt><trkpt lat="40.9678133" lon="14.05067"><ele>4.0</ele><time>2026-04-11T06:13:09.86Z</time></trkpt><trkpt lat="40.9678867" lon="14.0506417"><ele>3.9999999999999996</ele><time>2026-04-11T06:13:10.858Z</time></trkpt><trkpt lat="40.96796" lon="14.0506167"><ele>4.0</ele><time>2026-04-11T06:13:11.859Z</time></trkpt><trkpt lat="40.9680317" lon="14.0505917"><ele>4.0</ele><time>2026-04-11T06:13:12.859Z</time></trkpt><trkpt lat="40.9681017" lon="14.0505667"><ele>3.9999999999999996</ele><time>2026-04-11T06:13:13.86Z</time></trkpt><trkpt lat="40.9681733" lon="14.0505417"><ele>4.0</ele><time>2026-04-11T06:13:14.859Z</time></trkpt><trkpt lat="40.9682433" lon="14.0505133"><ele>4.0</ele><time>2026-04-11T06:13:15.858Z</time></trkpt><trkpt lat="40.9683133" lon="14.0504883"><ele>3.9999999999999996</ele><time>2026-04-11T06:13:16.859Z</time></trkpt><trkpt lat="40.9683867" lon="14.0504617"><ele>4.0</ele><time>2026-04-11T06:13:17.86Z</time></trkpt><trkpt lat="40.9684583" lon="14.050435"><ele>4.0</ele><time>2026-04-11T06:13:18.859Z</time></trkpt><trkpt lat="40.9685317" lon="14.0504067"><ele>4.142857142857142</ele><time>2026-04-11T06:13:19.86Z</time></trkpt><trkpt lat="40.9686033" lon="14.0503783"><ele>4.285714285714286</ele><time>2026-04-11T06:13:20.858Z</time></trkpt><trkpt lat="40.968675" lon="14.0503533"><ele>4.428571428571429</ele><time>2026-04-11T06:13:21.859Z</time></trkpt><trkpt lat="40.9687467" lon="14.0503283"><ele>4.571428571428571</ele><time>2026-04-11T06:13:22.859Z</time></trkpt><trkpt lat="40.9688183" lon="14.0503033"><ele>4.714285714285714</ele><time>2026-04-11T06:13:23.86Z</time></trkpt><trkpt lat="40.9688883" lon="14.0502767"><ele>4.857142857142857</ele><time>2026-04-11T06:13:24.86Z</time></trkpt><trkpt lat="40.9689583" lon="14.05025"><ele>5.0</ele><time>2026-04-11T06:13:25.861Z</time></trkpt><trkpt lat="40.9690283" lon="14.0502217"><ele>5.0</ele><time>2026-04-11T06:13:26.859Z</time></trkpt><trkpt lat="40.9691" lon="14.050195"><ele>5.0</ele><time>2026-04-11T06:13:27.859Z</time></trkpt><trkpt lat="40.96917" lon="14.05017"><ele>5.0</ele><time>2026-04-11T06:13:28.859Z</time></trkpt><trkpt lat="40.9692417" lon="14.050145"><ele>5.0</ele><time>2026-04-11T06:13:29.86Z</time></trkpt><trkpt lat="40.9693117" lon="14.050115"><ele>5.0</ele><time>2026-04-11T06:13:30.859Z</time></trkpt><trkpt lat="40.9693817" lon="14.0500883"><ele>5.0</ele><time>2026-04-11T06:13:31.86Z</time></trkpt><trkpt lat="40.96945" lon="14.0500617"><ele>5.0</ele><time>2026-04-11T06:13:32.859Z</time></trkpt><trkpt lat="40.9695183" lon="14.050035"><ele>5.0</ele><time>2026-04-11T06:13:33.858Z</time></trkpt><trkpt lat="40.969585" lon="14.050005"><ele>5.0</ele><time>2026-04-11T06:13:34.86Z</time></trkpt><trkpt lat="40.9696533" lon="14.0499767"><ele>5.0</ele><time>2026-04-11T06:13:35.859Z</time></trkpt><trkpt lat="40.9697217" lon="14.04995"><ele>5.0</ele><time>2026-04-11T06:13:36.86Z</time></trkpt><trkpt lat="40.9697917" lon="14.049925"><ele>5.0</ele><time>2026-04-11T06:13:37.86Z</time></trkpt><trkpt lat="40.96986" lon="14.0499033"><ele>5.0</ele><time>2026-04-11T06:13:38.86Z</time></trkpt><trkpt lat="40.9699283" lon="14.0498783"><ele>5.0</ele><time>2026-04-11T06:13:39.858Z</time></trkpt><trkpt lat="40.9699967" lon="14.049855"><ele>5.0</ele><time>2026-04-11T06:13:40.859Z</time></trkpt><trkpt lat="40.970065" lon="14.04983"><ele>5.0</ele><time>2026-04-11T06:13:41.86Z</time></trkpt><trkpt lat="40.9701333" lon="14.0498067"><ele>5.0</ele><time>2026-04-11T06:13:42.86Z</time></trkpt><trkpt lat="40.9702017" lon="14.04978"><ele>5.0</ele><time>2026-04-11T06:13:43.858Z</time></trkpt><trkpt lat="40.9702683" lon="14.04975"><ele>5.0</ele><time>2026-04-11T06:13:44.858Z</time></trkpt><trkpt lat="40.9703383" lon="14.0497233"><ele>5.0</ele><time>2026-04-11T06:13:45.86Z</time></trkpt><trkpt lat="40.9704083" lon="14.0496983"><ele>5.0</ele><time>2026-04-11T06:13:46.859Z</time></trkpt><trkpt lat="40.9704767" lon="14.049675"><ele>5.0</ele><time>2026-04-11T06:13:47.858Z</time></trkpt><trkpt lat="40.970545" lon="14.0496483"><ele>5.0</ele><time>2026-04-11T06:13:48.859Z</time></trkpt><trkpt lat="40.9706133" lon="14.0496267"><ele>5.0</ele><time>2026-04-11T06:13:49.86Z</time></trkpt><trkpt lat="40.9706817" lon="14.0496017"><ele>5.0</ele><time>2026-04-11T06:13:50.86Z</time></trkpt><trkpt lat="40.97075" lon="14.0495783"><ele>5.0</ele><time>2026-04-11T06:13:51.859Z</time></trkpt><trkpt lat="40.9708167" lon="14.0495533"><ele>5.0</ele><time>2026-04-11T06:13:52.86Z</time></trkpt><trkpt lat="40.9708833" lon="14.04953"><ele>5.0</ele><time>2026-04-11T06:13:53.86Z</time></trkpt><trkpt lat="40.9709483" lon="14.049505"><ele>5.142857142857142</ele><time>2026-04-11T06:13:54.86Z</time></trkpt><trkpt lat="40.971015" lon="14.04948"><ele>5.285714285714286</ele><time>2026-04-11T06:13:55.86Z</time></trkpt><trkpt lat="40.97108" lon="14.0494583"><ele>5.428571428571429</ele><time>2026-04-11T06:13:56.86Z</time></trkpt><trkpt lat="40.9711433" lon="14.049435"><ele>5.571428571428571</ele><time>2026-04-11T06:13:57.859Z</time></trkpt><trkpt lat="40.9712067" lon="14.0494117"><ele>5.714285714285714</ele><time>2026-04-11T06:13:58.859Z</time></trkpt><trkpt lat="40.9712717" lon="14.0493867"><ele>5.857142857142857</ele><time>2026-04-11T06:13:59.86Z</time></trkpt><trkpt lat="40.9713367" lon="14.0493617"><ele>6.0</ele><time>2026-04-11T06:14:00.858Z</time></trkpt><trkpt lat="40.9714017" lon="14.049335"><ele>5.999999999999999</ele><time>2026-04-11T06:14:01.86Z</time></trkpt><trkpt lat="40.9714667" lon="14.0493083"><ele>6.0</ele><time>2026-04-11T06:14:02.86Z</time></trkpt><trkpt lat="40.9715317" lon="14.0492833"><ele>6.0</ele><time>2026-04-11T06:14:03.858Z</time></trkpt><trkpt lat="40.9716" lon="14.0492567"><ele>6.0</ele><time>2026-04-11T06:14:04.858Z</time></trkpt><trkpt lat="40.9716633" lon="14.049235"><ele>6.0</ele><time>2026-04-11T06:14:05.86Z</time></trkpt><trkpt lat="40.97173" lon="14.0492117"><ele>5.999999999999999</ele><time>2026-04-11T06:14:06.859Z</time></trkpt><trkpt lat="40.9717967" lon="14.0491883"><ele>6.0</ele><time>2026-04-11T06:14:07.86Z</time></trkpt><trkpt lat="40.971865" lon="14.04917"><ele>5.999999999999999</ele><time>2026-04-11T06:14:08.86Z</time></trkpt><trkpt lat="40.9719333" lon="14.0491533"><ele>6.0</ele><time>2026-04-11T06:14:09.858Z</time></trkpt><trkpt lat="40.972" lon="14.0491383"><ele>6.0</ele><time>2026-04-11T06:14:10.858Z</time></trkpt><trkpt lat="40.9720667" lon="14.0491283"><ele>6.0</ele><time>2026-04-11T06:14:11.86Z</time></trkpt><trkpt lat="40.972135" lon="14.0491183"><ele>6.0</ele><time>2026-04-11T06:14:12.86Z</time></trkpt><trkpt lat="40.9722067" lon="14.0491167"><ele>5.999999999999999</ele><time>2026-04-11T06:14:13.86Z</time></trkpt><trkpt lat="40.9722783" lon="14.0491183"><ele>6.0</ele><time>2026-04-11T06:14:14.859Z</time></trkpt><trkpt lat="40.97235" lon="14.0491233"><ele>5.999999999999999</ele><time>2026-04-11T06:14:15.858Z</time></trkpt><trkpt lat="40.97242" lon="14.0491317"><ele>6.0</ele><time>2026-04-11T06:14:16.86Z</time></trkpt><trkpt lat="40.97249" lon="14.04914"><ele>6.0</ele><time>2026-04-11T06:14:17.86Z</time></trkpt><trkpt lat="40.9725617" lon="14.0491483"><ele>6.0</ele><time>2026-04-11T06:14:18.86Z</time></trkpt><trkpt lat="40.97263" lon="14.04916"><ele>6.0</ele><time>2026-04-11T06:14:19.859Z</time></trkpt><trkpt lat="40.9726983" lon="14.0491683"><ele>5.999999999999999</ele><time>2026-04-11T06:14:20.861Z</time></trkpt><trkpt lat="40.9727717" lon="14.049175"><ele>6.0</ele><time>2026-04-11T06:14:21.858Z</time></trkpt><trkpt lat="40.9728433" lon="14.04918"><ele>5.999999999999999</ele><time>2026-04-11T06:14:22.859Z</time></trkpt><trkpt lat="40.9729117" lon="14.049185"><ele>6.0</ele><time>2026-04-11T06:14:23.861Z</time></trkpt><trkpt lat="40.9729817" lon="14.0491883"><ele>6.0</ele><time>2026-04-11T06:14:24.857Z</time></trkpt><trkpt lat="40.973055" lon="14.0491917"><ele>6.0</ele><time>2026-04-11T06:14:25.859Z</time></trkpt><trkpt lat="40.9731267" lon="14.049195"><ele>6.0</ele><time>2026-04-11T06:14:26.858Z</time></trkpt><trkpt lat="40.9731983" lon="14.0492"><ele>5.999999999999999</ele><time>2026-04-11T06:14:27.858Z</time></trkpt><trkpt lat="40.97327" lon="14.0492067"><ele>6.0</ele><time>2026-04-11T06:14:28.86Z</time></trkpt><trkpt lat="40.9733433" lon="14.0492117"><ele>5.999999999999999</ele><time>2026-04-11T06:14:29.86Z</time></trkpt><trkpt lat="40.9734167" lon="14.0492167"><ele>6.0</ele><time>2026-04-11T06:14:30.859Z</time></trkpt><trkpt lat="40.9734883" lon="14.04922"><ele>6.0</ele><time>2026-04-11T06:14:31.86Z</time></trkpt><trkpt lat="40.97356" lon="14.0492267"><ele>6.0</ele><time>2026-04-11T06:14:32.86Z</time></trkpt><trkpt lat="40.9736317" lon="14.0492333"><ele>6.0</ele><time>2026-04-11T06:14:33.857Z</time></trkpt><trkpt lat="40.9737" lon="14.0492367"><ele>5.999999999999999</ele><time>2026-04-11T06:14:34.86Z</time></trkpt><trkpt lat="40.97377" lon="14.0492417"><ele>6.0</ele><time>2026-04-11T06:14:35.859Z</time></trkpt><trkpt lat="40.9738383" lon="14.049245"><ele>5.999999999999999</ele><time>2026-04-11T06:14:36.859Z</time></trkpt><trkpt lat="40.9739083" lon="14.0492483"><ele>6.0</ele><time>2026-04-11T06:14:37.86Z</time></trkpt><trkpt lat="40.9739767" lon="14.049255"><ele>6.0</ele><time>2026-04-11T06:14:38.86Z</time></trkpt><trkpt lat="40.9740467" lon="14.0492617"><ele>6.0</ele><time>2026-04-11T06:14:39.859Z</time></trkpt><trkpt lat="40.97412" lon="14.0492633"><ele>6.0</ele><time>2026-04-11T06:14:40.859Z</time></trkpt><trkpt lat="40.9741917" lon="14.049265"><ele>5.999999999999999</ele><time>2026-04-11T06:14:41.86Z</time></trkpt><trkpt lat="40.9742633" lon="14.0492717"><ele>6.0</ele><time>2026-04-11T06:14:42.86Z</time></trkpt><trkpt lat="40.9743367" lon="14.0492717"><ele>5.999999999999999</ele><time>2026-04-11T06:14:43.86Z</time></trkpt><trkpt lat="40.9744067" lon="14.049275"><ele>6.0</ele><time>2026-04-11T06:14:44.86Z</time></trkpt><trkpt lat="40.9744783" lon="14.04928"><ele>6.0</ele><time>2026-04-11T06:14:45.86Z</time></trkpt><trkpt lat="40.97455" lon="14.049285"><ele>6.0</ele><time>2026-04-11T06:14:46.861Z</time></trkpt><trkpt lat="40.9746217" lon="14.0492917"><ele>6.0</ele><time>2026-04-11T06:14:47.858Z</time></trkpt><trkpt lat="40.9746917" lon="14.0493017"><ele>5.999999999999999</ele><time>2026-04-11T06:14:48.858Z</time></trkpt><trkpt lat="40.9747617" lon="14.049315"><ele>6.0</ele><time>2026-04-11T06:14:49.86Z</time></trkpt><trkpt lat="40.97483" lon="14.0493367"><ele>5.999999999999999</ele><time>2026-04-11T06:14:50.859Z</time></trkpt><trkpt lat="40.9749" lon="14.0493567"><ele>6.0</ele><time>2026-04-11T06:14:51.858Z</time></trkpt><trkpt lat="40.97497" lon="14.0493733"><ele>6.0</ele><time>2026-04-11T06:14:52.86Z</time></trkpt><trkpt lat="40.97504" lon="14.0493917"><ele>6.0</ele><time>2026-04-11T06:14:53.86Z</time></trkpt><trkpt lat="40.9751083" lon="14.0494133"><ele>6.0</ele><time>2026-04-11T06:14:54.859Z</time></trkpt><trkpt lat="40.97518" lon="14.04943"><ele>5.999999999999999</ele><time>2026-04-11T06:14:55.858Z</time></trkpt><trkpt lat="40.97525" lon="14.0494467"><ele>6.0</ele><time>2026-04-11T06:14:56.859Z</time></trkpt><trkpt lat="40.97532" lon="14.04946"><ele>5.666666666666667</ele><time>2026-04-11T06:14:57.86Z</time></trkpt><trkpt lat="40.9753933" lon="14.04948"><ele>5.333333333333333</ele><time>2026-04-11T06:14:58.859Z</time></trkpt><trkpt lat="40.975465" lon="14.0494983"><ele>5.0</ele><time>2026-04-11T06:14:59.858Z</time></trkpt><trkpt lat="40.97554" lon="14.0495167"><ele>4.666666666666666</ele><time>2026-04-11T06:15:00.86Z</time></trkpt><trkpt lat="40.9756133" lon="14.04953"><ele>4.333333333333333</ele><time>2026-04-11T06:15:01.86Z</time></trkpt><trkpt lat="40.9756883" lon="14.049545"><ele>4.0</ele><time>2026-04-11T06:15:02.859Z</time></trkpt><trkpt lat="40.9757633" lon="14.04956"><ele>4.0</ele><time>2026-04-11T06:15:03.86Z</time></trkpt><trkpt lat="40.9758367" lon="14.0495733"><ele>3.9999999999999996</ele><time>2026-04-11T06:15:04.86Z</time></trkpt><trkpt lat="40.97591" lon="14.0495917"><ele>4.0</ele><time>2026-04-11T06:15:05.86Z</time></trkpt><trkpt lat="40.9759833" lon="14.0496117"><ele>4.0</ele><time>2026-04-11T06:15:06.86Z</time></trkpt><trkpt lat="40.9760567" lon="14.0496317"><ele>3.9999999999999996</ele><time>2026-04-11T06:15:07.86Z</time></trkpt><trkpt lat="40.9761267" lon="14.0496517"><ele>4.0</ele><time>2026-04-11T06:15:08.86Z</time></trkpt><trkpt lat="40.9761983" lon="14.0496717"><ele>4.0</ele><time>2026-04-11T06:15:09.859Z</time></trkpt><trkpt lat="40.9762683" lon="14.0496883"><ele>4.142857142857142</ele><time>2026-04-11T06:15:10.859Z</time></trkpt><trkpt lat="40.9763383" lon="14.0497017"><ele>4.285714285714286</ele><time>2026-04-11T06:15:11.859Z</time></trkpt><trkpt lat="40.9764083" lon="14.0497167"><ele>4.428571428571429</ele><time>2026-04-11T06:15:12.859Z</time></trkpt><trkpt lat="40.9764783" lon="14.049735"><ele>4.571428571428571</ele><time>2026-04-11T06:15:13.86Z</time></trkpt><trkpt lat="40.9765483" lon="14.0497517"><ele>4.714285714285714</ele><time>2026-04-11T06:15:14.859Z</time></trkpt><trkpt lat="40.9766183" lon="14.0497683"><ele>4.857142857142857</ele><time>2026-04-11T06:15:15.859Z</time></trkpt><trkpt lat="40.97669" lon="14.0497917"><ele>5.0</ele><time>2026-04-11T06:15:16.859Z</time></trkpt><trkpt lat="40.9767633" lon="14.04981"><ele>5.142857142857142</ele><time>2026-04-11T06:15:17.859Z</time></trkpt><trkpt lat="40.9768333" lon="14.0498317"><ele>5.285714285714286</ele><time>2026-04-11T06:15:18.86Z</time></trkpt><trkpt lat="40.976905" lon="14.0498483"><ele>5.428571428571429</ele><time>2026-04-11T06:15:19.859Z</time></trkpt><trkpt lat="40.976975" lon="14.0498683"><ele>5.571428571428571</ele><time>2026-04-11T06:15:20.859Z</time></trkpt><trkpt lat="40.977045" lon="14.049885"><ele>5.714285714285714</ele><time>2026-04-11T06:15:21.858Z</time></trkpt><trkpt lat="40.9771133" lon="14.0499017"><ele>5.857142857142857</ele><time>2026-04-11T06:15:22.858Z</time></trkpt><trkpt lat="40.977185" lon="14.0499217"><ele>6.0</ele><time>2026-04-11T06:15:23.86Z</time></trkpt><trkpt lat="40.9772567" lon="14.0499433"><ele>5.999999999999999</ele><time>2026-04-11T06:15:24.86Z</time></trkpt><trkpt lat="40.9773283" lon="14.04996"><ele>6.0</ele><time>2026-04-11T06:15:25.857Z</time></trkpt><trkpt lat="40.9774033" lon="14.0499767"><ele>6.0</ele><time>2026-04-11T06:15:26.86Z</time></trkpt><trkpt lat="40.977475" lon="14.04999"><ele>6.0</ele><time>2026-04-11T06:15:27.86Z</time></trkpt><trkpt lat="40.9775483" lon="14.050005"><ele>6.0</ele><time>2026-04-11T06:15:28.859Z</time></trkpt><trkpt lat="40.97762" lon="14.050025"><ele>5.999999999999999</ele><time>2026-04-11T06:15:29.86Z</time></trkpt><trkpt lat="40.9776917" lon="14.0500433"><ele>6.0</ele><time>2026-04-11T06:15:30.859Z</time></trkpt><trkpt lat="40.977765" lon="14.05006"><ele>5.857142857142857</ele><time>2026-04-11T06:15:31.86Z</time></trkpt><trkpt lat="40.97784" lon="14.050075"><ele>5.714285714285714</ele><time>2026-04-11T06:15:32.859Z</time></trkpt><trkpt lat="40.97791" lon="14.0500917"><ele>5.571428571428571</ele><time>2026-04-11T06:15:33.859Z</time></trkpt><trkpt lat="40.97798" lon="14.0501067"><ele>5.428571428571429</ele><time>2026-04-11T06:15:34.859Z</time></trkpt><trkpt lat="40.9780517" lon="14.050125"><ele>5.285714285714286</ele><time>2026-04-11T06:15:35.859Z</time></trkpt><trkpt lat="40.9781233" lon="14.0501433"><ele>5.142857142857142</ele><time>2026-04-11T06:15:36.86Z</time></trkpt><trkpt lat="40.9781917" lon="14.0501617"><ele>5.0</ele><time>2026-04-11T06:15:37.858Z</time></trkpt><trkpt lat="40.9782617" lon="14.0501783"><ele>5.0</ele><time>2026-04-11T06:15:38.859Z</time></trkpt><trkpt lat="40.9783317" lon="14.0501917"><ele>5.0</ele><time>2026-04-11T06:15:39.857Z</time></trkpt><trkpt lat="40.9784" lon="14.0502067"><ele>5.0</ele><time>2026-04-11T06:15:40.86Z</time></trkpt><trkpt lat="40.97847" lon="14.050225"><ele>5.0</ele><time>2026-04-11T06:15:41.859Z</time></trkpt><trkpt lat="40.97854" lon="14.0502433"><ele>5.0</ele><time>2026-04-11T06:15:42.858Z</time></trkpt><trkpt lat="40.9786083" lon="14.0502617"><ele>5.0</ele><time>2026-04-11T06:15:43.859Z</time></trkpt><trkpt lat="40.9786783" lon="14.0502783"><ele>5.0</ele><time>2026-04-11T06:15:44.859Z</time></trkpt><trkpt lat="40.978745" lon="14.0502967"><ele>5.0</ele><time>2026-04-11T06:15:45.858Z</time></trkpt><trkpt lat="40.9788117" lon="14.0503133"><ele>5.0</ele><time>2026-04-11T06:15:46.86Z</time></trkpt><trkpt lat="40.97888" lon="14.050325"><ele>5.0</ele><time>2026-04-11T06:15:47.86Z</time></trkpt><trkpt lat="40.9789483" lon="14.050335"><ele>5.0</ele><time>2026-04-11T06:15:48.859Z</time></trkpt><trkpt lat="40.9790167" lon="14.050355"><ele>5.0</ele><time>2026-04-11T06:15:49.858Z</time></trkpt><trkpt lat="40.979085" lon="14.0503783"><ele>5.0</ele><time>2026-04-11T06:15:50.86Z</time></trkpt><trkpt lat="40.9791517" lon="14.0504"><ele>5.0</ele><time>2026-04-11T06:15:51.858Z</time></trkpt><trkpt lat="40.9792183" lon="14.05042"><ele>5.0</ele><time>2026-04-11T06:15:52.86Z</time></trkpt><trkpt lat="40.979285" lon="14.0504383"><ele>5.0</ele><time>2026-04-11T06:15:53.859Z</time></trkpt><trkpt lat="40.9793517" lon="14.050455"><ele>5.0</ele><time>2026-04-11T06:15:54.86Z</time></trkpt><trkpt lat="40.9794217" lon="14.050475"><ele>5.0</ele><time>2026-04-11T06:15:55.859Z</time></trkpt><trkpt lat="40.9794917" lon="14.050495"><ele>5.0</ele><time>2026-04-11T06:15:56.858Z</time></trkpt><trkpt lat="40.9795617" lon="14.0505133"><ele>5.0</ele><time>2026-04-11T06:15:57.859Z</time></trkpt><trkpt lat="40.9796283" lon="14.0505283"><ele>5.0</ele><time>2026-04-11T06:15:58.86Z</time></trkpt><trkpt lat="40.9796967" lon="14.0505433"><ele>5.0</ele><time>2026-04-11T06:15:59.859Z</time></trkpt><trkpt lat="40.9797633" lon="14.0505583"><ele>5.0</ele><time>2026-04-11T06:16:00.86Z</time></trkpt><trkpt lat="40.9798317" lon="14.0505717"><ele>5.0</ele><time>2026-04-11T06:16:01.859Z</time></trkpt><trkpt lat="40.9799" lon="14.05059"><ele>5.0</ele><time>2026-04-11T06:16:02.86Z</time></trkpt><trkpt lat="40.9799633" lon="14.0506083"><ele>5.0</ele><time>2026-04-11T06:16:03.859Z</time></trkpt><trkpt lat="40.9800283" lon="14.050625"><ele>5.0</ele><time>2026-04-11T06:16:04.858Z</time></trkpt><trkpt lat="40.9800933" lon="14.0506367"><ele>5.0</ele><time>2026-04-11T06:16:05.859Z</time></trkpt><trkpt lat="40.9801567" lon="14.050655"><ele>4.857142857142857</ele><time>2026-04-11T06:16:06.859Z</time></trkpt><trkpt lat="40.98022" lon="14.05067"><ele>4.714285714285714</ele><time>2026-04-11T06:16:07.86Z</time></trkpt><trkpt lat="40.9802833" lon="14.0506867"><ele>4.571428571428571</ele><time>2026-04-11T06:16:08.859Z</time></trkpt><trkpt lat="40.980405" lon="14.0507167"><ele>4.428571428571429</ele><time>2026-04-11T06:16:10.859Z</time></trkpt><trkpt lat="40.9804683" lon="14.05073"><ele>4.285714285714286</ele><time>2026-04-11T06:16:11.859Z</time></trkpt><trkpt lat="40.9805317" lon="14.0507417"><ele>4.142857142857142</ele><time>2026-04-11T06:16:12.86Z</time></trkpt><trkpt lat="40.9805967" lon="14.0507533"><ele>4.0</ele><time>2026-04-11T06:16:13.859Z</time></trkpt><trkpt lat="40.98066" lon="14.0507683"><ele>4.25</ele><time>2026-04-11T06:16:14.859Z</time></trkpt><trkpt lat="40.9807783" lon="14.0508033"><ele>4.5</ele><time>2026-04-11T06:16:16.86Z</time></trkpt><trkpt lat="40.9809" lon="14.0508383"><ele>4.75</ele><time>2026-04-11T06:16:18.859Z</time></trkpt><trkpt lat="40.9810217" lon="14.05087"><ele>5.0</ele><time>2026-04-11T06:16:20.859Z</time></trkpt><trkpt lat="40.9811417" lon="14.0508983"><ele>5.0</ele><time>2026-04-11T06:16:22.86Z</time></trkpt><trkpt lat="40.981205" lon="14.050915"><ele>5.0</ele><time>2026-04-11T06:16:23.859Z</time></trkpt><trkpt lat="40.9812683" lon="14.0509333"><ele>5.0</ele><time>2026-04-11T06:16:24.86Z</time></trkpt><trkpt lat="40.9813333" lon="14.05095"><ele>5.0</ele><time>2026-04-11T06:16:25.86Z</time></trkpt><trkpt lat="40.9813983" lon="14.0509567"><ele>5.0</ele><time>2026-04-11T06:16:26.86Z</time></trkpt><trkpt lat="40.981465" lon="14.050965"><ele>5.0</ele><time>2026-04-11T06:16:27.859Z</time></trkpt><trkpt lat="40.9815283" lon="14.0509817"><ele>5.0</ele><time>2026-04-11T06:16:28.86Z</time></trkpt><trkpt lat="40.981595" lon="14.0510033"><ele>5.0</ele><time>2026-04-11T06:16:29.86Z</time></trkpt><trkpt lat="40.9816617" lon="14.0510283"><ele>5.0</ele><time>2026-04-11T06:16:30.86Z</time></trkpt><trkpt lat="40.9817317" lon="14.0510533"><ele>5.0</ele><time>2026-04-11T06:16:31.86Z</time></trkpt><trkpt lat="40.9818" lon="14.05108"><ele>5.0</ele><time>2026-04-11T06:16:32.86Z</time></trkpt><trkpt lat="40.98187" lon="14.051115"><ele>5.0</ele><time>2026-04-11T06:16:33.859Z</time></trkpt><trkpt lat="40.98194" lon="14.05115"><ele>5.0</ele><time>2026-04-11T06:16:34.86Z</time></trkpt><trkpt lat="40.9820133" lon="14.0511833"><ele>5.0</ele><time>2026-04-11T06:16:35.859Z</time></trkpt><trkpt lat="40.9820867" lon="14.0512233"><ele>5.0</ele><time>2026-04-11T06:16:36.86Z</time></trkpt><trkpt lat="40.9821567" lon="14.051265"><ele>5.0</ele><time>2026-04-11T06:16:37.86Z</time></trkpt><trkpt lat="40.9822267" lon="14.0513167"><ele>5.0</ele><time>2026-04-11T06:16:38.86Z</time></trkpt><trkpt lat="40.982295" lon="14.05137"><ele>5.0</ele><time>2026-04-11T06:16:39.858Z</time></trkpt><trkpt lat="40.9823633" lon="14.05142"><ele>5.0</ele><time>2026-04-11T06:16:40.86Z</time></trkpt><trkpt lat="40.9824317" lon="14.0514717"><ele>5.0</ele><time>2026-04-11T06:16:41.859Z</time></trkpt><trkpt lat="40.9824983" lon="14.0515283"><ele>4.833333333333334</ele><time>2026-04-11T06:16:42.86Z</time></trkpt><trkpt lat="40.982565" lon="14.0515883"><ele>4.666666666666667</ele><time>2026-04-11T06:16:43.859Z</time></trkpt><trkpt lat="40.98263" lon="14.051645"><ele>4.5</ele><time>2026-04-11T06:16:44.86Z</time></trkpt><trkpt lat="40.9826917" lon="14.0517"><ele>4.333333333333333</ele><time>2026-04-11T06:16:45.858Z</time></trkpt><trkpt lat="40.9827533" lon="14.0517533"><ele>4.166666666666666</ele><time>2026-04-11T06:16:46.86Z</time></trkpt><trkpt lat="40.9828133" lon="14.05181"><ele>4.0</ele><time>2026-04-11T06:16:47.858Z</time></trkpt><trkpt lat="40.9828767" lon="14.0518633"><ele>4.0</ele><time>2026-04-11T06:16:48.858Z</time></trkpt><trkpt lat="40.9829367" lon="14.05192"><ele>3.9999999999999996</ele><time>2026-04-11T06:16:49.861Z</time></trkpt><trkpt lat="40.982995" lon="14.0519767"><ele>4.0</ele><time>2026-04-11T06:16:50.86Z</time></trkpt><trkpt lat="40.983055" lon="14.0520283"><ele>4.0</ele><time>2026-04-11T06:16:51.859Z</time></trkpt><trkpt lat="40.9831133" lon="14.0520817"><ele>3.9999999999999996</ele><time>2026-04-11T06:16:52.86Z</time></trkpt><trkpt lat="40.9831683" lon="14.0521333"><ele>4.0</ele><time>2026-04-11T06:16:53.86Z</time></trkpt><trkpt lat="40.9832267" lon="14.0521883"><ele>4.0</ele><time>2026-04-11T06:16:54.858Z</time></trkpt><trkpt lat="40.9832833" lon="14.05224"><ele>4.0</ele><time>2026-04-11T06:16:55.859Z</time></trkpt><trkpt lat="40.98334" lon="14.0522883"><ele>3.9999999999999996</ele><time>2026-04-11T06:16:56.859Z</time></trkpt><trkpt lat="40.9833933" lon="14.0523433"><ele>4.0</ele><time>2026-04-11T06:16:57.859Z</time></trkpt><trkpt lat="40.9834483" lon="14.0524033"><ele>4.0</ele><time>2026-04-11T06:16:58.86Z</time></trkpt><trkpt lat="40.9835067" lon="14.05245"><ele>3.9999999999999996</ele><time>2026-04-11T06:16:59.86Z</time></trkpt><trkpt lat="40.9835633" lon="14.0524967"><ele>4.0</ele><time>2026-04-11T06:17:00.858Z</time></trkpt><trkpt lat="40.9836217" lon="14.0525483"><ele>4.0</ele><time>2026-04-11T06:17:01.859Z</time></trkpt><trkpt lat="40.9836783" lon="14.0525967"><ele>4.0</ele><time>2026-04-11T06:17:02.86Z</time></trkpt><trkpt lat="40.9837367" lon="14.052645"><ele>3.9999999999999996</ele><time>2026-04-11T06:17:03.859Z</time></trkpt><trkpt lat="40.9837933" lon="14.0526933"><ele>4.0</ele><time>2026-04-11T06:17:04.859Z</time></trkpt><trkpt lat="40.98385" lon="14.0527433"><ele>4.0</ele><time>2026-04-11T06:17:05.859Z</time></trkpt><trkpt lat="40.9839067" lon="14.0527933"><ele>3.9999999999999996</ele><time>2026-04-11T06:17:06.86Z</time></trkpt><trkpt lat="40.9839617" lon="14.052845"><ele>4.0</ele><time>2026-04-11T06:17:07.86Z</time></trkpt><trkpt lat="40.9840167" lon="14.0529"><ele>4.0</ele><time>2026-04-11T06:17:08.857Z</time></trkpt><trkpt lat="40.9840717" lon="14.0529533"><ele>4.0</ele><time>2026-04-11T06:17:09.858Z</time></trkpt><trkpt lat="40.9841283" lon="14.0530067"><ele>3.9999999999999996</ele><time>2026-04-11T06:17:10.86Z</time></trkpt><trkpt lat="40.984185" lon="14.05306"><ele>4.0</ele><time>2026-04-11T06:17:11.86Z</time></trkpt><trkpt lat="40.9842417" lon="14.053115"><ele>4.0</ele><time>2026-04-11T06:17:12.859Z</time></trkpt><trkpt lat="40.9842983" lon="14.05317"><ele>3.9999999999999996</ele><time>2026-04-11T06:17:13.86Z</time></trkpt><trkpt lat="40.984355" lon="14.0532267"><ele>4.0</ele><time>2026-04-11T06:17:14.859Z</time></trkpt><trkpt lat="40.9844117" lon="14.0532767"><ele>4.0</ele><time>2026-04-11T06:17:15.858Z</time></trkpt><trkpt lat="40.98447" lon="14.053325"><ele>4.0</ele><time>2026-04-11T06:17:16.86Z</time></trkpt><trkpt lat="40.9845267" lon="14.0533767"><ele>3.9999999999999996</ele><time>2026-04-11T06:17:17.86Z</time></trkpt><trkpt lat="40.984585" lon="14.0534283"><ele>4.0</ele><time>2026-04-11T06:17:18.858Z</time></trkpt><trkpt lat="40.9846433" lon="14.0534867"><ele>4.0</ele><time>2026-04-11T06:17:19.86Z</time></trkpt><trkpt lat="40.9846983" lon="14.0535433"><ele>3.9999999999999996</ele><time>2026-04-11T06:17:20.858Z</time></trkpt><trkpt lat="40.984755" lon="14.0535967"><ele>4.0</ele><time>2026-04-11T06:17:21.859Z</time></trkpt><trkpt lat="40.98481" lon="14.0536467"><ele>4.0</ele><time>2026-04-11T06:17:22.86Z</time></trkpt><trkpt lat="40.9848667" lon="14.0537"><ele>4.0</ele><time>2026-04-11T06:17:23.86Z</time></trkpt><trkpt lat="40.9849233" lon="14.0537517"><ele>3.9999999999999996</ele><time>2026-04-11T06:17:24.86Z</time></trkpt><trkpt lat="40.98498" lon="14.0538"><ele>4.0</ele><time>2026-04-11T06:17:25.86Z</time></trkpt><trkpt lat="40.985035" lon="14.05385"><ele>4.0</ele><time>2026-04-11T06:17:26.86Z</time></trkpt><trkpt lat="40.9850917" lon="14.053905"><ele>3.9999999999999996</ele><time>2026-04-11T06:17:27.859Z</time></trkpt><trkpt lat="40.9851517" lon="14.0539517"><ele>4.0</ele><time>2026-04-11T06:17:28.859Z</time></trkpt><trkpt lat="40.98521" lon="14.054"><ele>4.0</ele><time>2026-04-11T06:17:29.859Z</time></trkpt><trkpt lat="40.985265" lon="14.0540533"><ele>4.0</ele><time>2026-04-11T06:17:30.86Z</time></trkpt><trkpt lat="40.9853217" lon="14.0541117"><ele>3.9999999999999996</ele><time>2026-04-11T06:17:31.861Z</time></trkpt><trkpt lat="40.98538" lon="14.0541683"><ele>4.0</ele><time>2026-04-11T06:17:32.86Z</time></trkpt><trkpt lat="40.9854367" lon="14.0542233"><ele>4.0</ele><time>2026-04-11T06:17:33.86Z</time></trkpt><trkpt lat="40.985495" lon="14.0542767"><ele>3.9999999999999996</ele><time>2026-04-11T06:17:34.86Z</time></trkpt><trkpt lat="40.9855533" lon="14.05433"><ele>4.0</ele><time>2026-04-11T06:17:35.86Z</time></trkpt><trkpt lat="40.98561" lon="14.0543817"><ele>4.0</ele><time>2026-04-11T06:17:36.86Z</time></trkpt><trkpt lat="40.9856667" lon="14.0544333"><ele>4.142857142857142</ele><time>2026-04-11T06:17:37.858Z</time></trkpt><trkpt lat="40.985725" lon="14.054485"><ele>4.285714285714286</ele><time>2026-04-11T06:17:38.859Z</time></trkpt><trkpt lat="40.985785" lon="14.0545317"><ele>4.428571428571429</ele><time>2026-04-11T06:17:39.86Z</time></trkpt><trkpt lat="40.985845" lon="14.05458"><ele>4.571428571428571</ele><time>2026-04-11T06:17:40.859Z</time></trkpt><trkpt lat="40.9859017" lon="14.0546333"><ele>4.714285714285714</ele><time>2026-04-11T06:17:41.859Z</time></trkpt><trkpt lat="40.9859567" lon="14.054685"><ele>4.857142857142857</ele><time>2026-04-11T06:17:42.86Z</time></trkpt><trkpt lat="40.986015" lon="14.0547383"><ele>5.0</ele><time>2026-04-11T06:17:43.86Z</time></trkpt><trkpt lat="40.9860717" lon="14.05479"><ele>5.0</ele><time>2026-04-11T06:17:44.859Z</time></trkpt><trkpt lat="40.9861283" lon="14.0548433"><ele>5.0</ele><time>2026-04-11T06:17:45.86Z</time></trkpt><trkpt lat="40.9861867" lon="14.0548967"><ele>5.0</ele><time>2026-04-11T06:17:46.86Z</time></trkpt><trkpt lat="40.986245" lon="14.05495"><ele>5.0</ele><time>2026-04-11T06:17:47.86Z</time></trkpt><trkpt lat="40.9863017" lon="14.0550017"><ele>5.0</ele><time>2026-04-11T06:17:48.86Z</time></trkpt><trkpt lat="40.9863617" lon="14.0550533"><ele>5.0</ele><time>2026-04-11T06:17:49.86Z</time></trkpt><trkpt lat="40.9864217" lon="14.0551083"><ele>5.0</ele><time>2026-04-11T06:17:50.86Z</time></trkpt><trkpt lat="40.9864833" lon="14.055165"><ele>5.0</ele><time>2026-04-11T06:17:51.859Z</time></trkpt><trkpt lat="40.9865433" lon="14.0552183"><ele>5.0</ele><time>2026-04-11T06:17:52.86Z</time></trkpt><trkpt lat="40.9866017" lon="14.0552717"><ele>5.0</ele><time>2026-04-11T06:17:53.86Z</time></trkpt><trkpt lat="40.98666" lon="14.055325"><ele>5.0</ele><time>2026-04-11T06:17:54.858Z</time></trkpt><trkpt lat="40.98672" lon="14.0553767"><ele>5.0</ele><time>2026-04-11T06:17:55.86Z</time></trkpt><trkpt lat="40.98678" lon="14.0554267"><ele>5.0</ele><time>2026-04-11T06:17:56.859Z</time></trkpt><trkpt lat="40.9868383" lon="14.0554767"><ele>5.0</ele><time>2026-04-11T06:17:57.857Z</time></trkpt><trkpt lat="40.986895" lon="14.0555283"><ele>5.0</ele><time>2026-04-11T06:17:58.86Z</time></trkpt><trkpt lat="40.9869517" lon="14.05558"><ele>5.0</ele><time>2026-04-11T06:17:59.86Z</time></trkpt><trkpt lat="40.98701" lon="14.0556317"><ele>5.0</ele><time>2026-04-11T06:18:00.858Z</time></trkpt><trkpt lat="40.98707" lon="14.0556867"><ele>5.0</ele><time>2026-04-11T06:18:01.86Z</time></trkpt><trkpt lat="40.98713" lon="14.0557417"><ele>5.0</ele><time>2026-04-11T06:18:02.86Z</time></trkpt><trkpt lat="40.9871883" lon="14.055795"><ele>5.0</ele><time>2026-04-11T06:18:03.859Z</time></trkpt><trkpt lat="40.9872467" lon="14.0558467"><ele>5.0</ele><time>2026-04-11T06:18:04.858Z</time></trkpt><trkpt lat="40.987305" lon="14.0558967"><ele>4.857142857142857</ele><time>2026-04-11T06:18:05.86Z</time></trkpt><trkpt lat="40.987365" lon="14.05595"><ele>4.714285714285714</ele><time>2026-04-11T06:18:06.86Z</time></trkpt><trkpt lat="40.9874233" lon="14.0560083"><ele>4.571428571428571</ele><time>2026-04-11T06:18:07.859Z</time></trkpt><trkpt lat="40.9874817" lon="14.056065"><ele>4.428571428571429</ele><time>2026-04-11T06:18:08.859Z</time></trkpt><trkpt lat="40.9875383" lon="14.0561217"><ele>4.285714285714286</ele><time>2026-04-11T06:18:09.858Z</time></trkpt><trkpt lat="40.987595" lon="14.0561783"><ele>4.142857142857142</ele><time>2026-04-11T06:18:10.86Z</time></trkpt><trkpt lat="40.9876517" lon="14.056235"><ele>4.0</ele><time>2026-04-11T06:18:11.86Z</time></trkpt><trkpt lat="40.9877067" lon="14.0562883"><ele>3.8571428571428568</ele><time>2026-04-11T06:18:12.859Z</time></trkpt><trkpt lat="40.9877633" lon="14.056345"><ele>3.714285714285714</ele><time>2026-04-11T06:18:13.86Z</time></trkpt><trkpt lat="40.9878233" lon="14.0564"><ele>3.571428571428571</ele><time>2026-04-11T06:18:14.86Z</time></trkpt><trkpt lat="40.9878833" lon="14.056455"><ele>3.4285714285714284</ele><time>2026-04-11T06:18:15.86Z</time></trkpt><trkpt lat="40.9879417" lon="14.0565067"><ele>3.2857142857142856</ele><time>2026-04-11T06:18:16.86Z</time></trkpt><trkpt lat="40.9880017" lon="14.0565633"><ele>3.1428571428571423</ele><time>2026-04-11T06:18:17.86Z</time></trkpt><trkpt lat="40.9880617" lon="14.05662"><ele>3.0</ele><time>2026-04-11T06:18:18.86Z</time></trkpt><trkpt lat="40.9881217" lon="14.056675"><ele>2.9999999999999996</ele><time>2026-04-11T06:18:19.86Z</time></trkpt><trkpt lat="40.9881817" lon="14.05673"><ele>3.0</ele><time>2026-04-11T06:18:20.86Z</time></trkpt><trkpt lat="40.9882417" lon="14.0567817"><ele>3.0</ele><time>2026-04-11T06:18:21.858Z</time></trkpt><trkpt lat="40.9883017" lon="14.0568283"><ele>3.0</ele><time>2026-04-11T06:18:22.86Z</time></trkpt><trkpt lat="40.98836" lon="14.056875"><ele>3.0</ele><time>2026-04-11T06:18:23.86Z</time></trkpt><trkpt lat="40.98842" lon="14.0569283"><ele>2.9999999999999996</ele><time>2026-04-11T06:18:24.859Z</time></trkpt><trkpt lat="40.9884817" lon="14.0569767"><ele>3.0</ele><time>2026-04-11T06:18:25.859Z</time></trkpt><trkpt lat="40.9885417" lon="14.0570217"><ele>3.1428571428571423</ele><time>2026-04-11T06:18:26.86Z</time></trkpt><trkpt lat="40.9886017" lon="14.05708"><ele>3.2857142857142856</ele><time>2026-04-11T06:18:27.859Z</time></trkpt><trkpt lat="40.9886633" lon="14.0571367"><ele>3.4285714285714284</ele><time>2026-04-11T06:18:28.86Z</time></trkpt><trkpt lat="40.988725" lon="14.0571883"><ele>3.571428571428571</ele><time>2026-04-11T06:18:29.859Z</time></trkpt><trkpt lat="40.988785" lon="14.0572367"><ele>3.714285714285714</ele><time>2026-04-11T06:18:30.86Z</time></trkpt><trkpt lat="40.988845" lon="14.057285"><ele>3.8571428571428568</ele><time>2026-04-11T06:18:31.859Z</time></trkpt><trkpt lat="40.9889033" lon="14.0573417"><ele>4.0</ele><time>2026-04-11T06:18:32.859Z</time></trkpt><trkpt lat="40.9889617" lon="14.0573983"><ele>4.142857142857142</ele><time>2026-04-11T06:18:33.859Z</time></trkpt><trkpt lat="40.98902" lon="14.0574533"><ele>4.285714285714286</ele><time>2026-04-11T06:18:34.858Z</time></trkpt><trkpt lat="40.98908" lon="14.0575067"><ele>4.428571428571429</ele><time>2026-04-11T06:18:35.86Z</time></trkpt><trkpt lat="40.9891417" lon="14.0575583"><ele>4.571428571428571</ele><time>2026-04-11T06:18:36.858Z</time></trkpt><trkpt lat="40.9891983" lon="14.05761"><ele>4.714285714285714</ele><time>2026-04-11T06:18:37.86Z</time></trkpt><trkpt lat="40.9892583" lon="14.0576633"><ele>4.857142857142857</ele><time>2026-04-11T06:18:38.859Z</time></trkpt><trkpt lat="40.9893167" lon="14.0577167"><ele>5.0</ele><time>2026-04-11T06:18:39.86Z</time></trkpt><trkpt lat="40.989375" lon="14.0577683"><ele>4.714285714285714</ele><time>2026-04-11T06:18:40.86Z</time></trkpt><trkpt lat="40.9894333" lon="14.05782"><ele>4.428571428571429</ele><time>2026-04-11T06:18:41.862Z</time></trkpt><trkpt lat="40.9894883" lon="14.0578767"><ele>4.142857142857142</ele><time>2026-04-11T06:18:42.858Z</time></trkpt><trkpt lat="40.9895467" lon="14.0579267"><ele>3.8571428571428568</ele><time>2026-04-11T06:18:43.86Z</time></trkpt><trkpt lat="40.9896033" lon="14.05798"><ele>3.571428571428571</ele><time>2026-04-11T06:18:44.859Z</time></trkpt><trkpt lat="40.9896633" lon="14.0580317"><ele>3.2857142857142856</ele><time>2026-04-11T06:18:45.858Z</time></trkpt><trkpt lat="40.9897217" lon="14.0580817"><ele>3.0</ele><time>2026-04-11T06:18:46.858Z</time></trkpt><trkpt lat="40.9897833" lon="14.0581283"><ele>2.9999999999999996</ele><time>2026-04-11T06:18:47.86Z</time></trkpt><trkpt lat="40.989845" lon="14.058175"><ele>3.0</ele><time>2026-04-11T06:18:48.859Z</time></trkpt><trkpt lat="40.9899083" lon="14.0582167"><ele>3.0</ele><time>2026-04-11T06:18:49.86Z</time></trkpt><trkpt lat="40.98997" lon="14.05826"><ele>3.0</ele><time>2026-04-11T06:18:50.857Z</time></trkpt><trkpt lat="40.9900317" lon="14.0583"><ele>3.0</ele><time>2026-04-11T06:18:51.859Z</time></trkpt><trkpt lat="40.9900983" lon="14.058345"><ele>2.9999999999999996</ele><time>2026-04-11T06:18:52.86Z</time></trkpt><trkpt lat="40.9901633" lon="14.0583883"><ele>3.0</ele><time>2026-04-11T06:18:53.859Z</time></trkpt><trkpt lat="40.9902283" lon="14.0584267"><ele>3.1428571428571423</ele><time>2026-04-11T06:18:54.86Z</time></trkpt><trkpt lat="40.990295" lon="14.0584633"><ele>3.2857142857142856</ele><time>2026-04-11T06:18:55.859Z</time></trkpt><trkpt lat="40.99036" lon="14.0584967"><ele>3.4285714285714284</ele><time>2026-04-11T06:18:56.859Z</time></trkpt><trkpt lat="40.99043" lon="14.0585283"><ele>3.571428571428571</ele><time>2026-04-11T06:18:57.859Z</time></trkpt><trkpt lat="40.9904983" lon="14.0585617"><ele>3.714285714285714</ele><time>2026-04-11T06:18:58.86Z</time></trkpt><trkpt lat="40.9905667" lon="14.0585933"><ele>3.8571428571428568</ele><time>2026-04-11T06:18:59.86Z</time></trkpt><trkpt lat="40.9906367" lon="14.058625"><ele>4.0</ele><time>2026-04-11T06:19:00.859Z</time></trkpt><trkpt lat="40.9907083" lon="14.0586567"><ele>4.0</ele><time>2026-04-11T06:19:01.86Z</time></trkpt><trkpt lat="40.9907783" lon="14.0586817"><ele>3.9999999999999996</ele><time>2026-04-11T06:19:02.86Z</time></trkpt><trkpt lat="40.9908483" lon="14.0587067"><ele>4.0</ele><time>2026-04-11T06:19:03.859Z</time></trkpt><trkpt lat="40.99092" lon="14.0587283"><ele>4.0</ele><time>2026-04-11T06:19:04.86Z</time></trkpt><trkpt lat="40.99099" lon="14.058745"><ele>3.9999999999999996</ele><time>2026-04-11T06:19:05.86Z</time></trkpt><trkpt lat="40.99106" lon="14.0587617"><ele>4.0</ele><time>2026-04-11T06:19:06.859Z</time></trkpt><trkpt lat="40.9911333" lon="14.058775"><ele>4.0</ele><time>2026-04-11T06:19:07.859Z</time></trkpt><trkpt lat="40.9912067" lon="14.0587933"><ele>4.142857142857142</ele><time>2026-04-11T06:19:08.857Z</time></trkpt><trkpt lat="40.99128" lon="14.0588067"><ele>4.285714285714286</ele><time>2026-04-11T06:19:09.858Z</time></trkpt><trkpt lat="40.9913533" lon="14.058815"><ele>4.428571428571429</ele><time>2026-04-11T06:19:10.86Z</time></trkpt><trkpt lat="40.9914283" lon="14.058825"><ele>4.571428571428571</ele><time>2026-04-11T06:19:11.86Z</time></trkpt><trkpt lat="40.9915017" lon="14.058835"><ele>4.714285714285714</ele><time>2026-04-11T06:19:12.859Z</time></trkpt><trkpt lat="40.991575" lon="14.0588433"><ele>4.857142857142857</ele><time>2026-04-11T06:19:13.86Z</time></trkpt><trkpt lat="40.99165" lon="14.05885"><ele>5.0</ele><time>2026-04-11T06:19:14.86Z</time></trkpt><trkpt lat="40.9917233" lon="14.0588567"><ele>5.0</ele><time>2026-04-11T06:19:15.86Z</time></trkpt><trkpt lat="40.9917983" lon="14.0588583"><ele>5.0</ele><time>2026-04-11T06:19:16.859Z</time></trkpt><trkpt lat="40.9918717" lon="14.0588667"><ele>5.0</ele><time>2026-04-11T06:19:17.859Z</time></trkpt><trkpt lat="40.9919467" lon="14.0588733"><ele>5.0</ele><time>2026-04-11T06:19:18.86Z</time></trkpt><trkpt lat="40.9920183" lon="14.0588817"><ele>5.0</ele><time>2026-04-11T06:19:19.861Z</time></trkpt><trkpt lat="40.9920917" lon="14.0588867"><ele>5.0</ele><time>2026-04-11T06:19:20.86Z</time></trkpt><trkpt lat="40.9921667" lon="14.0588933"><ele>5.0</ele><time>2026-04-11T06:19:21.86Z</time></trkpt><trkpt lat="40.99224" lon="14.0589"><ele>5.0</ele><time>2026-04-11T06:19:22.859Z</time></trkpt><trkpt lat="40.9923133" lon="14.0589067"><ele>5.0</ele><time>2026-04-11T06:19:23.86Z</time></trkpt><trkpt lat="40.9923883" lon="14.05892"><ele>5.0</ele><time>2026-04-11T06:19:24.86Z</time></trkpt><trkpt lat="40.9924633" lon="14.0589333"><ele>5.0</ele><time>2026-04-11T06:19:25.86Z</time></trkpt><trkpt lat="40.9925383" lon="14.0589417"><ele>5.0</ele><time>2026-04-11T06:19:26.859Z</time></trkpt><trkpt lat="40.99261" lon="14.0589417"><ele>5.0</ele><time>2026-04-11T06:19:27.859Z</time></trkpt><trkpt lat="40.9926817" lon="14.058945"><ele>5.0</ele><time>2026-04-11T06:19:28.859Z</time></trkpt><trkpt lat="40.9927517" lon="14.0589533"><ele>5.142857142857142</ele><time>2026-04-11T06:19:29.86Z</time></trkpt><trkpt lat="40.9928217" lon="14.0589633"><ele>5.285714285714286</ele><time>2026-04-11T06:19:30.858Z</time></trkpt><trkpt lat="40.9928917" lon="14.0589717"><ele>5.428571428571429</ele><time>2026-04-11T06:19:31.86Z</time></trkpt><trkpt lat="40.9929617" lon="14.0589833"><ele>5.571428571428571</ele><time>2026-04-11T06:19:32.86Z</time></trkpt><trkpt lat="40.99303" lon="14.0589933"><ele>5.714285714285714</ele><time>2026-04-11T06:19:33.859Z</time></trkpt><trkpt lat="40.993095" lon="14.059"><ele>5.857142857142857</ele><time>2026-04-11T06:19:34.86Z</time></trkpt><trkpt lat="40.9931583" lon="14.0590083"><ele>6.0</ele><time>2026-04-11T06:19:35.86Z</time></trkpt><trkpt lat="40.9932217" lon="14.0590167"><ele>5.999999999999999</ele><time>2026-04-11T06:19:36.859Z</time></trkpt><trkpt lat="40.9932883" lon="14.0590283"><ele>6.0</ele><time>2026-04-11T06:19:37.86Z</time></trkpt><trkpt lat="40.9933567" lon="14.05904"><ele>6.0</ele><time>2026-04-11T06:19:38.86Z</time></trkpt><trkpt lat="40.993425" lon="14.0590517"><ele>6.0</ele><time>2026-04-11T06:19:39.858Z</time></trkpt><trkpt lat="40.993495" lon="14.0590633"><ele>6.0</ele><time>2026-04-11T06:19:40.86Z</time></trkpt><trkpt lat="40.9935683" lon="14.0590717"><ele>5.999999999999999</ele><time>2026-04-11T06:19:41.86Z</time></trkpt><trkpt lat="40.99364" lon="14.0590783"><ele>6.0</ele><time>2026-04-11T06:19:42.858Z</time></trkpt><trkpt lat="40.9937133" lon="14.05909"><ele>5.999999999999999</ele><time>2026-04-11T06:19:43.86Z</time></trkpt><trkpt lat="40.993785" lon="14.0591033"><ele>6.0</ele><time>2026-04-11T06:19:44.859Z</time></trkpt><trkpt lat="40.9938567" lon="14.059115"><ele>6.0</ele><time>2026-04-11T06:19:45.86Z</time></trkpt><trkpt lat="40.99393" lon="14.059125"><ele>6.0</ele><time>2026-04-11T06:19:46.857Z</time></trkpt><trkpt lat="40.9940017" lon="14.05913"><ele>6.0</ele><time>2026-04-11T06:19:47.86Z</time></trkpt><trkpt lat="40.994075" lon="14.05913"><ele>5.999999999999999</ele><time>2026-04-11T06:19:48.86Z</time></trkpt><trkpt lat="40.9941483" lon="14.0591317"><ele>6.0</ele><time>2026-04-11T06:19:49.86Z</time></trkpt><trkpt lat="40.99422" lon="14.05914"><ele>5.999999999999999</ele><time>2026-04-11T06:19:50.86Z</time></trkpt><trkpt lat="40.9942917" lon="14.0591467"><ele>6.0</ele><time>2026-04-11T06:19:51.858Z</time></trkpt><trkpt lat="40.994365" lon="14.059155"><ele>6.0</ele><time>2026-04-11T06:19:52.86Z</time></trkpt><trkpt lat="40.9944383" lon="14.059165"><ele>6.0</ele><time>2026-04-11T06:19:53.86Z</time></trkpt><trkpt lat="40.9945133" lon="14.0591783"><ele>6.0</ele><time>2026-04-11T06:19:54.86Z</time></trkpt><trkpt lat="40.9945867" lon="14.0591867"><ele>5.999999999999999</ele><time>2026-04-11T06:19:55.86Z</time></trkpt><trkpt lat="40.9946583" lon="14.0591933"><ele>6.0</ele><time>2026-04-11T06:19:56.86Z</time></trkpt><trkpt lat="40.9947317" lon="14.0592017"><ele>5.999999999999999</ele><time>2026-04-11T06:19:57.859Z</time></trkpt><trkpt lat="40.9948067" lon="14.0592133"><ele>6.0</ele><time>2026-04-11T06:19:58.859Z</time></trkpt><trkpt lat="40.9948817" lon="14.059225"><ele>6.0</ele><time>2026-04-11T06:19:59.86Z</time></trkpt><trkpt lat="40.9949567" lon="14.0592367"><ele>6.0</ele><time>2026-04-11T06:20:00.859Z</time></trkpt><trkpt lat="40.99503" lon="14.0592483"><ele>6.0</ele><time>2026-04-11T06:20:01.861Z</time></trkpt><trkpt lat="40.9951033" lon="14.0592633"><ele>5.999999999999999</ele><time>2026-04-11T06:20:02.859Z</time></trkpt><trkpt lat="40.9951767" lon="14.0592733"><ele>6.0</ele><time>2026-04-11T06:20:03.86Z</time></trkpt><trkpt lat="40.99525" lon="14.0592833"><ele>5.857142857142857</ele><time>2026-04-11T06:20:04.86Z</time></trkpt><trkpt lat="40.9953233" lon="14.0592917"><ele>5.714285714285714</ele><time>2026-04-11T06:20:05.86Z</time></trkpt><trkpt lat="40.995395" lon="14.0592983"><ele>5.571428571428571</ele><time>2026-04-11T06:20:06.858Z</time></trkpt><trkpt lat="40.9954683" lon="14.0593017"><ele>5.428571428571429</ele><time>2026-04-11T06:20:07.859Z</time></trkpt><trkpt lat="40.99554" lon="14.0593083"><ele>5.285714285714286</ele><time>2026-04-11T06:20:08.86Z</time></trkpt><trkpt lat="40.99561" lon="14.0593233"><ele>5.142857142857142</ele><time>2026-04-11T06:20:09.857Z</time></trkpt><trkpt lat="40.995685" lon="14.0593417"><ele>5.0</ele><time>2026-04-11T06:20:10.859Z</time></trkpt><trkpt lat="40.9957567" lon="14.0593533"><ele>5.0</ele><time>2026-04-11T06:20:11.86Z</time></trkpt><trkpt lat="40.99583" lon="14.0593567"><ele>5.0</ele><time>2026-04-11T06:20:12.86Z</time></trkpt><trkpt lat="40.9959033" lon="14.0593583"><ele>5.0</ele><time>2026-04-11T06:20:13.859Z</time></trkpt><trkpt lat="40.9959767" lon="14.05936"><ele>5.0</ele><time>2026-04-11T06:20:14.86Z</time></trkpt><trkpt lat="40.9960483" lon="14.0593683"><ele>5.0</ele><time>2026-04-11T06:20:15.858Z</time></trkpt><trkpt lat="40.99612" lon="14.0593783"><ele>5.0</ele><time>2026-04-11T06:20:16.862Z</time></trkpt><trkpt lat="40.9961933" lon="14.0593867"><ele>5.0</ele><time>2026-04-11T06:20:17.859Z</time></trkpt><trkpt lat="40.9962667" lon="14.0593983"><ele>5.0</ele><time>2026-04-11T06:20:18.86Z</time></trkpt><trkpt lat="40.9963433" lon="14.0594133"><ele>5.0</ele><time>2026-04-11T06:20:19.86Z</time></trkpt><trkpt lat="40.9964167" lon="14.0594217"><ele>5.0</ele><time>2026-04-11T06:20:20.86Z</time></trkpt><trkpt lat="40.9964917" lon="14.0594317"><ele>5.0</ele><time>2026-04-11T06:20:21.86Z</time></trkpt><trkpt lat="40.9965667" lon="14.05944"><ele>5.0</ele><time>2026-04-11T06:20:22.86Z</time></trkpt><trkpt lat="40.9966383" lon="14.0594517"><ele>5.0</ele><time>2026-04-11T06:20:23.86Z</time></trkpt><trkpt lat="40.9967117" lon="14.0594583"><ele>5.0</ele><time>2026-04-11T06:20:24.86Z</time></trkpt><trkpt lat="40.9967867" lon="14.0594667"><ele>5.0</ele><time>2026-04-11T06:20:25.86Z</time></trkpt><trkpt lat="40.99686" lon="14.0594717"><ele>5.0</ele><time>2026-04-11T06:20:26.859Z</time></trkpt><trkpt lat="40.9969333" lon="14.0594783"><ele>5.0</ele><time>2026-04-11T06:20:27.86Z</time></trkpt><trkpt lat="40.9970067" lon="14.059485"><ele>5.0</ele><time>2026-04-11T06:20:28.86Z</time></trkpt><trkpt lat="40.9970817" lon="14.059495"><ele>5.0</ele><time>2026-04-11T06:20:29.86Z</time></trkpt><trkpt lat="40.9971567" lon="14.0595083"><ele>5.0</ele><time>2026-04-11T06:20:30.86Z</time></trkpt><trkpt lat="40.99723" lon="14.0595183"><ele>5.0</ele><time>2026-04-11T06:20:31.86Z</time></trkpt><trkpt lat="40.997305" lon="14.0595283"><ele>5.0</ele><time>2026-04-11T06:20:32.858Z</time></trkpt><trkpt lat="40.99738" lon="14.0595383"><ele>5.0</ele><time>2026-04-11T06:20:33.86Z</time></trkpt><trkpt lat="40.9974567" lon="14.05955"><ele>5.0</ele><time>2026-04-11T06:20:34.86Z</time></trkpt><trkpt lat="40.9975317" lon="14.0595617"><ele>5.0</ele><time>2026-04-11T06:20:35.86Z</time></trkpt><trkpt lat="40.9976067" lon="14.0595733"><ele>5.0</ele><time>2026-04-11T06:20:36.861Z</time></trkpt><trkpt lat="40.9976817" lon="14.059585"><ele>5.0</ele><time>2026-04-11T06:20:37.859Z</time></trkpt><trkpt lat="40.997755" lon="14.0595983"><ele>4.833333333333334</ele><time>2026-04-11T06:20:38.86Z</time></trkpt><trkpt lat="40.9978283" lon="14.0596117"><ele>4.666666666666667</ele><time>2026-04-11T06:20:39.86Z</time></trkpt><trkpt lat="40.9979033" lon="14.0596267"><ele>4.5</ele><time>2026-04-11T06:20:40.86Z</time></trkpt><trkpt lat="40.9979783" lon="14.0596433"><ele>4.333333333333333</ele><time>2026-04-11T06:20:41.86Z</time></trkpt><trkpt lat="40.9980517" lon="14.059665"><ele>4.166666666666666</ele><time>2026-04-11T06:20:42.86Z</time></trkpt><trkpt lat="40.9981233" lon="14.0596933"><ele>4.0</ele><time>2026-04-11T06:20:43.86Z</time></trkpt><trkpt lat="40.9981917" lon="14.0597317"><ele>4.0</ele><time>2026-04-11T06:20:44.862Z</time></trkpt><trkpt lat="40.9982567" lon="14.0597767"><ele>3.9999999999999996</ele><time>2026-04-11T06:20:45.862Z</time></trkpt><trkpt lat="40.99832" lon="14.0598167"><ele>4.0</ele><time>2026-04-11T06:20:46.86Z</time></trkpt><trkpt lat="40.998385" lon="14.05986"><ele>4.0</ele><time>2026-04-11T06:20:47.86Z</time></trkpt><trkpt lat="40.9984467" lon="14.059905"><ele>3.9999999999999996</ele><time>2026-04-11T06:20:48.86Z</time></trkpt><trkpt lat="40.9985083" lon="14.0599567"><ele>4.0</ele><time>2026-04-11T06:20:49.859Z</time></trkpt><trkpt lat="40.9985683" lon="14.06001"><ele>4.0</ele><time>2026-04-11T06:20:50.86Z</time></trkpt><trkpt lat="40.9986283" lon="14.060065"><ele>3.8571428571428568</ele><time>2026-04-11T06:20:51.858Z</time></trkpt><trkpt lat="40.9986867" lon="14.0601217"><ele>3.714285714285714</ele><time>2026-04-11T06:20:52.86Z</time></trkpt><trkpt lat="40.998745" lon="14.0601817"><ele>3.571428571428571</ele><time>2026-04-11T06:20:53.86Z</time></trkpt><trkpt lat="40.9988017" lon="14.06024"><ele>3.4285714285714284</ele><time>2026-04-11T06:20:54.86Z</time></trkpt><trkpt lat="40.9988567" lon="14.0603"><ele>3.2857142857142856</ele><time>2026-04-11T06:20:55.859Z</time></trkpt><trkpt lat="40.9989117" lon="14.06036"><ele>3.1428571428571423</ele><time>2026-04-11T06:20:56.86Z</time></trkpt><trkpt lat="40.9989667" lon="14.0604183"><ele>3.0</ele><time>2026-04-11T06:20:57.862Z</time></trkpt><trkpt lat="40.9990233" lon="14.0604783"><ele>2.9999999999999996</ele><time>2026-04-11T06:20:58.858Z</time></trkpt><trkpt lat="40.99908" lon="14.0605383"><ele>3.0</ele><time>2026-04-11T06:20:59.862Z</time></trkpt><trkpt lat="40.9991383" lon="14.0606"><ele>3.0</ele><time>2026-04-11T06:21:00.859Z</time></trkpt><trkpt lat="40.999195" lon="14.0606617"><ele>3.0</ele><time>2026-04-11T06:21:01.861Z</time></trkpt><trkpt lat="40.99925" lon="14.0607217"><ele>3.0</ele><time>2026-04-11T06:21:02.86Z</time></trkpt><trkpt lat="40.999305" lon="14.060785"><ele>2.9999999999999996</ele><time>2026-04-11T06:21:03.86Z</time></trkpt><trkpt lat="40.99936" lon="14.0608467"><ele>3.0</ele><time>2026-04-11T06:21:04.861Z</time></trkpt><trkpt lat="40.9994133" lon="14.0609067"><ele>3.2857142857142856</ele><time>2026-04-11T06:21:05.859Z</time></trkpt><trkpt lat="40.999465" lon="14.0609667"><ele>3.571428571428571</ele><time>2026-04-11T06:21:06.859Z</time></trkpt><trkpt lat="40.99952" lon="14.0610233"><ele>3.8571428571428568</ele><time>2026-04-11T06:21:07.861Z</time></trkpt><trkpt lat="40.9995717" lon="14.0610817"><ele>4.142857142857142</ele><time>2026-04-11T06:21:08.86Z</time></trkpt><trkpt lat="40.9996233" lon="14.0611433"><ele>4.428571428571429</ele><time>2026-04-11T06:21:09.859Z</time></trkpt><trkpt lat="40.9996767" lon="14.061205"><ele>4.714285714285714</ele><time>2026-04-11T06:21:10.861Z</time></trkpt><trkpt lat="40.9997283" lon="14.0612633"><ele>5.0</ele><time>2026-04-11T06:21:11.86Z</time></trkpt><trkpt lat="40.9997817" lon="14.0613217"><ele>5.0</ele><time>2026-04-11T06:21:12.86Z</time></trkpt><trkpt lat="40.999835" lon="14.0613767"><ele>5.0</ele><time>2026-04-11T06:21:13.859Z</time></trkpt><trkpt lat="40.9998883" lon="14.0614367"><ele>5.0</ele><time>2026-04-11T06:21:14.858Z</time></trkpt><trkpt lat="40.9999383" lon="14.06149"><ele>5.0</ele><time>2026-04-11T06:21:15.86Z</time></trkpt><trkpt lat="40.9999917" lon="14.0615467"><ele>5.0</ele><time>2026-04-11T06:21:16.859Z</time></trkpt><trkpt lat="41.0000433" lon="14.0616017"><ele>5.0</ele><time>2026-04-11T06:21:17.859Z</time></trkpt><trkpt lat="41.000095" lon="14.06166"><ele>5.0</ele><time>2026-04-11T06:21:18.859Z</time></trkpt><trkpt lat="41.000145" lon="14.0617167"><ele>5.0</ele><time>2026-04-11T06:21:19.86Z</time></trkpt><trkpt lat="41.0002" lon="14.06177"><ele>5.0</ele><time>2026-04-11T06:21:20.86Z</time></trkpt><trkpt lat="41.0002533" lon="14.061825"><ele>5.0</ele><time>2026-04-11T06:21:21.858Z</time></trkpt><trkpt lat="41.0003067" lon="14.06188"><ele>5.0</ele><time>2026-04-11T06:21:22.859Z</time></trkpt><trkpt lat="41.0003583" lon="14.0619367"><ele>5.0</ele><time>2026-04-11T06:21:23.859Z</time></trkpt><trkpt lat="41.0004117" lon="14.061995"><ele>5.0</ele><time>2026-04-11T06:21:24.86Z</time></trkpt><trkpt lat="41.0004667" lon="14.0620533"><ele>5.0</ele><time>2026-04-11T06:21:25.861Z</time></trkpt><trkpt lat="41.00052" lon="14.0621133"><ele>5.0</ele><time>2026-04-11T06:21:26.86Z</time></trkpt><trkpt lat="41.0005733" lon="14.062175"><ele>5.0</ele><time>2026-04-11T06:21:27.858Z</time></trkpt><trkpt lat="41.0006283" lon="14.0622283"><ele>5.0</ele><time>2026-04-11T06:21:28.86Z</time></trkpt><trkpt lat="41.000685" lon="14.0622817"><ele>5.0</ele><time>2026-04-11T06:21:29.86Z</time></trkpt><trkpt lat="41.00074" lon="14.0623383"><ele>5.0</ele><time>2026-04-11T06:21:30.86Z</time></trkpt><trkpt lat="41.000795" lon="14.0623933"><ele>5.0</ele><time>2026-04-11T06:21:31.86Z</time></trkpt><trkpt lat="41.0008533" lon="14.0624467"><ele>5.0</ele><time>2026-04-11T06:21:32.858Z</time></trkpt><trkpt lat="41.0009133" lon="14.0624967"><ele>4.714285714285714</ele><time>2026-04-11T06:21:33.862Z</time></trkpt><trkpt lat="41.0009733" lon="14.0625433"><ele>4.428571428571429</ele><time>2026-04-11T06:21:34.859Z</time></trkpt><trkpt lat="41.0010317" lon="14.0625933"><ele>4.142857142857142</ele><time>2026-04-11T06:21:35.86Z</time></trkpt><trkpt lat="41.0010917" lon="14.0626417"><ele>3.8571428571428568</ele><time>2026-04-11T06:21:36.861Z</time></trkpt><trkpt lat="41.0011533" lon="14.06269"><ele>3.571428571428571</ele><time>2026-04-11T06:21:37.86Z</time></trkpt><trkpt lat="41.001215" lon="14.0627433"><ele>3.2857142857142856</ele><time>2026-04-11T06:21:38.86Z</time></trkpt><trkpt lat="41.0012767" lon="14.0627933"><ele>3.0</ele><time>2026-04-11T06:21:39.857Z</time></trkpt><trkpt lat="41.00134" lon="14.0628417"><ele>2.9999999999999996</ele><time>2026-04-11T06:21:40.86Z</time></trkpt><trkpt lat="41.0014017" lon="14.0628883"><ele>3.0</ele><time>2026-04-11T06:21:41.86Z</time></trkpt><trkpt lat="41.0014633" lon="14.0629333"><ele>3.0</ele><time>2026-04-11T06:21:42.86Z</time></trkpt><trkpt lat="41.001525" lon="14.0629817"><ele>3.0</ele><time>2026-04-11T06:21:43.86Z</time></trkpt><trkpt lat="41.0015883" lon="14.0630283"><ele>3.0</ele><time>2026-04-11T06:21:44.859Z</time></trkpt><trkpt lat="41.00165" lon="14.063075"><ele>2.9999999999999996</ele><time>2026-04-11T06:21:45.859Z</time></trkpt><trkpt lat="41.001715" lon="14.0631217"><ele>3.0</ele><time>2026-04-11T06:21:46.859Z</time></trkpt><trkpt lat="41.00178" lon="14.0631717"><ele>3.1428571428571423</ele><time>2026-04-11T06:21:47.86Z</time></trkpt><trkpt lat="41.0018433" lon="14.0632267"><ele>3.2857142857142856</ele><time>2026-04-11T06:21:48.859Z</time></trkpt><trkpt lat="41.001905" lon="14.06328"><ele>3.4285714285714284</ele><time>2026-04-11T06:21:49.86Z</time></trkpt><trkpt lat="41.0019683" lon="14.0633317"><ele>3.571428571428571</ele><time>2026-04-11T06:21:50.859Z</time></trkpt><trkpt lat="41.0020283" lon="14.06338"><ele>3.714285714285714</ele><time>2026-04-11T06:21:51.859Z</time></trkpt><trkpt lat="41.0020883" lon="14.0634283"><ele>3.8571428571428568</ele><time>2026-04-11T06:21:52.859Z</time></trkpt><trkpt lat="41.00215" lon="14.0634733"><ele>4.0</ele><time>2026-04-11T06:21:53.86Z</time></trkpt><trkpt lat="41.00221" lon="14.0635217"><ele>3.9999999999999996</ele><time>2026-04-11T06:21:54.861Z</time></trkpt><trkpt lat="41.0022667" lon="14.0635667"><ele>4.0</ele><time>2026-04-11T06:21:55.861Z</time></trkpt><trkpt lat="41.002325" lon="14.06361"><ele>4.0</ele><time>2026-04-11T06:21:56.86Z</time></trkpt><trkpt lat="41.0023833" lon="14.0636467"><ele>4.0</ele><time>2026-04-11T06:21:57.86Z</time></trkpt><trkpt lat="41.0024983" lon="14.0637033"><ele>3.9999999999999996</ele><time>2026-04-11T06:21:59.86Z</time></trkpt><trkpt lat="41.0026167" lon="14.0637283"><ele>4.0</ele><time>2026-04-11T06:22:01.86Z</time></trkpt><trkpt lat="41.00268" lon="14.0637233"><ele>3.8571428571428568</ele><time>2026-04-11T06:22:02.86Z</time></trkpt><trkpt lat="41.0027417" lon="14.0637067"><ele>3.714285714285714</ele><time>2026-04-11T06:22:03.857Z</time></trkpt><trkpt lat="41.002805" lon="14.0636867"><ele>3.571428571428571</ele><time>2026-04-11T06:22:04.86Z</time></trkpt><trkpt lat="41.0028683" lon="14.0636633"><ele>3.4285714285714284</ele><time>2026-04-11T06:22:05.861Z</time></trkpt><trkpt lat="41.0029317" lon="14.0636333"><ele>3.2857142857142856</ele><time>2026-04-11T06:22:06.858Z</time></trkpt><trkpt lat="41.002995" lon="14.0636033"><ele>3.1428571428571423</ele><time>2026-04-11T06:22:07.859Z</time></trkpt><trkpt lat="41.0030583" lon="14.0635767"><ele>3.0</ele><time>2026-04-11T06:22:08.859Z</time></trkpt><trkpt lat="41.0031233" lon="14.0635467"><ele>2.9999999999999996</ele><time>2026-04-11T06:22:09.857Z</time></trkpt><trkpt lat="41.0031883" lon="14.063515"><ele>3.0</ele><time>2026-04-11T06:22:10.86Z</time></trkpt><trkpt lat="41.0032533" lon="14.0634867"><ele>3.0</ele><time>2026-04-11T06:22:11.86Z</time></trkpt><trkpt lat="41.00332" lon="14.0634617"><ele>3.0</ele><time>2026-04-11T06:22:12.86Z</time></trkpt><trkpt lat="41.0033867" lon="14.0634333"><ele>3.0</ele><time>2026-04-11T06:22:13.859Z</time></trkpt><trkpt lat="41.0034517" lon="14.0634017"><ele>2.9999999999999996</ele><time>2026-04-11T06:22:14.86Z</time></trkpt><trkpt lat="41.0035167" lon="14.0633733"><ele>3.0</ele><time>2026-04-11T06:22:15.861Z</time></trkpt><trkpt lat="41.0035817" lon="14.063345"><ele>2.9999999999999996</ele><time>2026-04-11T06:22:16.859Z</time></trkpt><trkpt lat="41.003645" lon="14.063315"><ele>3.0</ele><time>2026-04-11T06:22:17.86Z</time></trkpt><trkpt lat="41.00371" lon="14.063285"><ele>3.0</ele><time>2026-04-11T06:22:18.859Z</time></trkpt><trkpt lat="41.0037717" lon="14.0632567"><ele>3.0</ele><time>2026-04-11T06:22:19.858Z</time></trkpt><trkpt lat="41.0038333" lon="14.0632317"><ele>3.0</ele><time>2026-04-11T06:22:20.862Z</time></trkpt><trkpt lat="41.0038933" lon="14.0632033"><ele>2.9999999999999996</ele><time>2026-04-11T06:22:21.861Z</time></trkpt><trkpt lat="41.003955" lon="14.0631733"><ele>3.0</ele><time>2026-04-11T06:22:22.859Z</time></trkpt><trkpt lat="41.0040183" lon="14.0631467"><ele>3.1428571428571423</ele><time>2026-04-11T06:22:23.86Z</time></trkpt><trkpt lat="41.0040817" lon="14.0631183"><ele>3.2857142857142856</ele><time>2026-04-11T06:22:24.859Z</time></trkpt><trkpt lat="41.0041433" lon="14.0630917"><ele>3.4285714285714284</ele><time>2026-04-11T06:22:25.859Z</time></trkpt><trkpt lat="41.004205" lon="14.0630667"><ele>3.571428571428571</ele><time>2026-04-11T06:22:26.859Z</time></trkpt><trkpt lat="41.0042667" lon="14.0630417"><ele>3.714285714285714</ele><time>2026-04-11T06:22:27.86Z</time></trkpt><trkpt lat="41.0043283" lon="14.0630167"><ele>3.8571428571428568</ele><time>2026-04-11T06:22:28.861Z</time></trkpt><trkpt lat="41.00439" lon="14.06299"><ele>4.0</ele><time>2026-04-11T06:22:29.86Z</time></trkpt><trkpt lat="41.0044517" lon="14.062965"><ele>4.0</ele><time>2026-04-11T06:22:30.86Z</time></trkpt><trkpt lat="41.0045133" lon="14.0629367"><ele>3.9999999999999996</ele><time>2026-04-11T06:22:31.859Z</time></trkpt><trkpt lat="41.0045767" lon="14.0629083"><ele>4.0</ele><time>2026-04-11T06:22:32.858Z</time></trkpt><trkpt lat="41.00464" lon="14.0628817"><ele>4.0</ele><time>2026-04-11T06:22:33.862Z</time></trkpt><trkpt lat="41.004705" lon="14.0628533"><ele>3.9999999999999996</ele><time>2026-04-11T06:22:34.86Z</time></trkpt><trkpt lat="41.0047683" lon="14.062825"><ele>4.0</ele><time>2026-04-11T06:22:35.859Z</time></trkpt><trkpt lat="41.0048317" lon="14.0627967"><ele>4.0</ele><time>2026-04-11T06:22:36.859Z</time></trkpt><trkpt lat="41.004895" lon="14.0627683"><ele>4.0</ele><time>2026-04-11T06:22:37.86Z</time></trkpt><trkpt lat="41.0049583" lon="14.0627383"><ele>3.9999999999999996</ele><time>2026-04-11T06:22:38.86Z</time></trkpt><trkpt lat="41.00502" lon="14.06271"><ele>4.0</ele><time>2026-04-11T06:22:39.859Z</time></trkpt><trkpt lat="41.0050817" lon="14.06268"><ele>4.0</ele><time>2026-04-11T06:22:40.858Z</time></trkpt><trkpt lat="41.005145" lon="14.0626533"><ele>3.9999999999999996</ele><time>2026-04-11T06:22:41.858Z</time></trkpt><trkpt lat="41.0052067" lon="14.062625"><ele>4.0</ele><time>2026-04-11T06:22:42.86Z</time></trkpt><trkpt lat="41.00527" lon="14.0625967"><ele>4.0</ele><time>2026-04-11T06:22:43.86Z</time></trkpt><trkpt lat="41.0053317" lon="14.06257"><ele>4.142857142857142</ele><time>2026-04-11T06:22:44.86Z</time></trkpt><trkpt lat="41.0053967" lon="14.06254"><ele>4.285714285714286</ele><time>2026-04-11T06:22:45.859Z</time></trkpt><trkpt lat="41.0054617" lon="14.06251"><ele>4.428571428571429</ele><time>2026-04-11T06:22:46.86Z</time></trkpt><trkpt lat="41.005525" lon="14.0624817"><ele>4.571428571428571</ele><time>2026-04-11T06:22:47.86Z</time></trkpt><trkpt lat="41.00559" lon="14.062455"><ele>4.714285714285714</ele><time>2026-04-11T06:22:48.86Z</time></trkpt><trkpt lat="41.005655" lon="14.0624267"><ele>4.857142857142857</ele><time>2026-04-11T06:22:49.86Z</time></trkpt><trkpt lat="41.0057183" lon="14.0624"><ele>5.0</ele><time>2026-04-11T06:22:50.859Z</time></trkpt><trkpt lat="41.0057817" lon="14.0623733"><ele>5.0</ele><time>2026-04-11T06:22:51.86Z</time></trkpt><trkpt lat="41.005845" lon="14.0623433"><ele>5.0</ele><time>2026-04-11T06:22:52.86Z</time></trkpt><trkpt lat="41.0059083" lon="14.062315"><ele>5.0</ele><time>2026-04-11T06:22:53.86Z</time></trkpt><trkpt lat="41.0059717" lon="14.0622867"><ele>5.0</ele><time>2026-04-11T06:22:54.86Z</time></trkpt><trkpt lat="41.0060367" lon="14.0622567"><ele>5.0</ele><time>2026-04-11T06:22:55.861Z</time></trkpt><trkpt lat="41.0061017" lon="14.0622267"><ele>5.0</ele><time>2026-04-11T06:22:56.86Z</time></trkpt><trkpt lat="41.006165" lon="14.0621983"><ele>5.0</ele><time>2026-04-11T06:22:57.86Z</time></trkpt><trkpt lat="41.00623" lon="14.06217"><ele>5.0</ele><time>2026-04-11T06:22:58.859Z</time></trkpt><trkpt lat="41.006295" lon="14.06214"><ele>5.0</ele><time>2026-04-11T06:22:59.859Z</time></trkpt><trkpt lat="41.0063567" lon="14.0621133"><ele>5.0</ele><time>2026-04-11T06:23:00.858Z</time></trkpt><trkpt lat="41.00642" lon="14.0620883"><ele>5.0</ele><time>2026-04-11T06:23:01.86Z</time></trkpt><trkpt lat="41.006485" lon="14.062065"><ele>5.0</ele><time>2026-04-11T06:23:02.859Z</time></trkpt><trkpt lat="41.0065467" lon="14.0620417"><ele>5.0</ele><time>2026-04-11T06:23:03.86Z</time></trkpt><trkpt lat="41.0066083" lon="14.0620133"><ele>5.0</ele><time>2026-04-11T06:23:04.86Z</time></trkpt><trkpt lat="41.0066717" lon="14.061985"><ele>4.857142857142857</ele><time>2026-04-11T06:23:05.86Z</time></trkpt><trkpt lat="41.006735" lon="14.0619583"><ele>4.714285714285714</ele><time>2026-04-11T06:23:06.86Z</time></trkpt><trkpt lat="41.0067983" lon="14.06193"><ele>4.571428571428571</ele><time>2026-04-11T06:23:07.861Z</time></trkpt><trkpt lat="41.00686" lon="14.0619033"><ele>4.428571428571429</ele><time>2026-04-11T06:23:08.859Z</time></trkpt><trkpt lat="41.0069217" lon="14.0618783"><ele>4.285714285714286</ele><time>2026-04-11T06:23:09.86Z</time></trkpt><trkpt lat="41.0069883" lon="14.061855"><ele>4.142857142857142</ele><time>2026-04-11T06:23:10.862Z</time></trkpt><trkpt lat="41.0070517" lon="14.0618267"><ele>4.0</ele><time>2026-04-11T06:23:11.861Z</time></trkpt><trkpt lat="41.0071167" lon="14.0617967"><ele>3.9999999999999996</ele><time>2026-04-11T06:23:12.861Z</time></trkpt><trkpt lat="41.00718" lon="14.061765"><ele>4.0</ele><time>2026-04-11T06:23:13.862Z</time></trkpt><trkpt lat="41.0072433" lon="14.0617317"><ele>4.0</ele><time>2026-04-11T06:23:14.862Z</time></trkpt><trkpt lat="41.0073083" lon="14.0617033"><ele>4.0</ele><time>2026-04-11T06:23:15.86Z</time></trkpt><trkpt lat="41.00737" lon="14.061675"><ele>3.9999999999999996</ele><time>2026-04-11T06:23:16.86Z</time></trkpt><trkpt lat="41.0074317" lon="14.0616483"><ele>4.0</ele><time>2026-04-11T06:23:17.861Z</time></trkpt><trkpt lat="41.0075467" lon="14.0616"><ele>3.9999999999999996</ele><time>2026-04-11T06:23:19.859Z</time></trkpt><trkpt lat="41.00765" lon="14.0615533"><ele>4.0</ele><time>2026-04-11T06:23:21.859Z</time></trkpt><trkpt lat="41.0077133" lon="14.0614983"><ele>4.0</ele><time>2026-04-11T06:23:23.859Z</time></trkpt><trkpt lat="41.0077233" lon="14.0614117"><ele>4.0</ele><time>2026-04-11T06:23:25.86Z</time></trkpt><trkpt lat="41.0077233" lon="14.06131"><ele>3.9999999999999996</ele><time>2026-04-11T06:23:27.858Z</time></trkpt><trkpt lat="41.007705" lon="14.0611883"><ele>4.0</ele><time>2026-04-11T06:23:29.861Z</time></trkpt><trkpt lat="41.0076683" lon="14.06105"><ele>4.0</ele><time>2026-04-11T06:23:31.861Z</time></trkpt><trkpt lat="41.0076283" lon="14.0608983"><ele>4.0</ele><time>2026-04-11T06:23:33.862Z</time></trkpt><trkpt lat="41.007595" lon="14.06074"><ele>4.0</ele><time>2026-04-11T06:23:35.861Z</time></trkpt><trkpt lat="41.0075583" lon="14.0605833"><ele>4.0</ele><time>2026-04-11T06:23:37.86Z</time></trkpt><trkpt lat="41.00754" lon="14.0605017"><ele>4.0</ele><time>2026-04-11T06:23:38.861Z</time></trkpt><trkpt lat="41.00752" lon="14.06042"><ele>4.0</ele><time>2026-04-11T06:23:39.861Z</time></trkpt><trkpt lat="41.0074983" lon="14.06034"><ele>3.9999999999999996</ele><time>2026-04-11T06:23:40.859Z</time></trkpt><trkpt lat="41.0074783" lon="14.060255"><ele>4.0</ele><time>2026-04-11T06:23:41.86Z</time></trkpt><trkpt lat="41.0074567" lon="14.060175"><ele>4.0</ele><time>2026-04-11T06:23:42.86Z</time></trkpt><trkpt lat="41.0074367" lon="14.0600917"><ele>3.9999999999999996</ele><time>2026-04-11T06:23:43.86Z</time></trkpt><trkpt lat="41.007415" lon="14.0600133"><ele>4.0</ele><time>2026-04-11T06:23:44.861Z</time></trkpt><trkpt lat="41.0073917" lon="14.0599333"><ele>4.0</ele><time>2026-04-11T06:23:45.859Z</time></trkpt><trkpt lat="41.0073683" lon="14.0598533"><ele>4.0</ele><time>2026-04-11T06:23:46.86Z</time></trkpt><trkpt lat="41.0073467" lon="14.0597683"><ele>3.9999999999999996</ele><time>2026-04-11T06:23:47.859Z</time></trkpt><trkpt lat="41.007325" lon="14.0596867"><ele>4.0</ele><time>2026-04-11T06:23:48.859Z</time></trkpt><trkpt lat="41.0073017" lon="14.059605"><ele>4.0</ele><time>2026-04-11T06:23:49.86Z</time></trkpt><trkpt lat="41.0072783" lon="14.05952"><ele>3.9999999999999996</ele><time>2026-04-11T06:23:50.86Z</time></trkpt><trkpt lat="41.0072567" lon="14.0594333"><ele>4.0</ele><time>2026-04-11T06:23:51.86Z</time></trkpt><trkpt lat="41.0072333" lon="14.0593467"><ele>4.0</ele><time>2026-04-11T06:23:52.86Z</time></trkpt><trkpt lat="41.00721" lon="14.0592583"><ele>4.0</ele><time>2026-04-11T06:23:53.861Z</time></trkpt><trkpt lat="41.0071867" lon="14.0591717"><ele>3.9999999999999996</ele><time>2026-04-11T06:23:54.858Z</time></trkpt><trkpt lat="41.0071667" lon="14.0590833"><ele>4.0</ele><time>2026-04-11T06:23:55.86Z</time></trkpt><trkpt lat="41.0071483" lon="14.058995"><ele>4.0</ele><time>2026-04-11T06:23:56.861Z</time></trkpt><trkpt lat="41.0071267" lon="14.058905"><ele>3.9999999999999996</ele><time>2026-04-11T06:23:57.86Z</time></trkpt><trkpt lat="41.0071033" lon="14.05882"><ele>4.0</ele><time>2026-04-11T06:23:58.86Z</time></trkpt><trkpt lat="41.0070817" lon="14.0587317"><ele>4.0</ele><time>2026-04-11T06:23:59.862Z</time></trkpt><trkpt lat="41.00706" lon="14.0586483"><ele>3.8571428571428568</ele><time>2026-04-11T06:24:00.86Z</time></trkpt><trkpt lat="41.00704" lon="14.058565"><ele>3.714285714285714</ele><time>2026-04-11T06:24:01.859Z</time></trkpt><trkpt lat="41.00702" lon="14.0584783"><ele>3.571428571428571</ele><time>2026-04-11T06:24:02.858Z</time></trkpt><trkpt lat="41.0069983" lon="14.0583933"><ele>3.4285714285714284</ele><time>2026-04-11T06:24:03.858Z</time></trkpt><trkpt lat="41.0069767" lon="14.0583067"><ele>3.2857142857142856</ele><time>2026-04-11T06:24:04.86Z</time></trkpt><trkpt lat="41.0069533" lon="14.0582217"><ele>3.1428571428571423</ele><time>2026-04-11T06:24:05.858Z</time></trkpt><trkpt lat="41.0069317" lon="14.0581367"><ele>3.0</ele><time>2026-04-11T06:24:06.86Z</time></trkpt><trkpt lat="41.00691" lon="14.0580483"><ele>2.9999999999999996</ele><time>2026-04-11T06:24:07.859Z</time></trkpt><trkpt lat="41.0068867" lon="14.0579617"><ele>3.0</ele><time>2026-04-11T06:24:08.859Z</time></trkpt><trkpt lat="41.0068633" lon="14.057875"><ele>3.0</ele><time>2026-04-11T06:24:09.859Z</time></trkpt><trkpt lat="41.0068367" lon="14.0577883"><ele>3.0</ele><time>2026-04-11T06:24:10.862Z</time></trkpt><trkpt lat="41.0068117" lon="14.057705"><ele>3.0</ele><time>2026-04-11T06:24:11.862Z</time></trkpt><trkpt lat="41.0067883" lon="14.0576233"><ele>2.9999999999999996</ele><time>2026-04-11T06:24:12.86Z</time></trkpt><trkpt lat="41.0067633" lon="14.0575333"><ele>3.0</ele><time>2026-04-11T06:24:13.862Z</time></trkpt><trkpt lat="41.0067433" lon="14.0574417"><ele>2.9999999999999996</ele><time>2026-04-11T06:24:14.861Z</time></trkpt><trkpt lat="41.00672" lon="14.0573517"><ele>3.0</ele><time>2026-04-11T06:24:15.86Z</time></trkpt><trkpt lat="41.0066983" lon="14.05726"><ele>3.0</ele><time>2026-04-11T06:24:16.86Z</time></trkpt><trkpt lat="41.0066767" lon="14.05717"><ele>3.0</ele><time>2026-04-11T06:24:17.86Z</time></trkpt><trkpt lat="41.0066533" lon="14.0570817"><ele>3.0</ele><time>2026-04-11T06:24:18.86Z</time></trkpt><trkpt lat="41.0066283" lon="14.0569933"><ele>2.9999999999999996</ele><time>2026-04-11T06:24:19.861Z</time></trkpt><trkpt lat="41.006605" lon="14.0569083"><ele>3.0</ele><time>2026-04-11T06:24:20.86Z</time></trkpt><trkpt lat="41.006585" lon="14.05682"><ele>2.8571428571428568</ele><time>2026-04-11T06:24:21.859Z</time></trkpt><trkpt lat="41.0065617" lon="14.05673"><ele>2.7142857142857144</ele><time>2026-04-11T06:24:22.86Z</time></trkpt><trkpt lat="41.0065417" lon="14.0566383"><ele>2.571428571428571</ele><time>2026-04-11T06:24:23.859Z</time></trkpt><trkpt lat="41.0065183" lon="14.0565467"><ele>2.4285714285714284</ele><time>2026-04-11T06:24:24.86Z</time></trkpt><trkpt lat="41.0064933" lon="14.056455"><ele>2.2857142857142856</ele><time>2026-04-11T06:24:25.862Z</time></trkpt><trkpt lat="41.00647" lon="14.0563633"><ele>2.142857142857143</ele><time>2026-04-11T06:24:26.861Z</time></trkpt><trkpt lat="41.0064467" lon="14.056275"><ele>2.0</ele><time>2026-04-11T06:24:27.858Z</time></trkpt><trkpt lat="41.0064217" lon="14.0561883"><ele>2.0</ele><time>2026-04-11T06:24:28.86Z</time></trkpt><trkpt lat="41.0063967" lon="14.0560983"><ele>1.9999999999999998</ele><time>2026-04-11T06:24:29.859Z</time></trkpt><trkpt lat="41.0063733" lon="14.0560083"><ele>2.0</ele><time>2026-04-11T06:24:30.86Z</time></trkpt><trkpt lat="41.0063517" lon="14.055915"><ele>2.0</ele><time>2026-04-11T06:24:31.86Z</time></trkpt><trkpt lat="41.00633" lon="14.055825"><ele>1.9999999999999998</ele><time>2026-04-11T06:24:32.86Z</time></trkpt><trkpt lat="41.0063067" lon="14.0557317"><ele>2.0</ele><time>2026-04-11T06:24:33.86Z</time></trkpt><trkpt lat="41.0062833" lon="14.05564"><ele>2.0</ele><time>2026-04-11T06:24:34.86Z</time></trkpt><trkpt lat="41.0062583" lon="14.0555467"><ele>1.857142857142857</ele><time>2026-04-11T06:24:35.86Z</time></trkpt><trkpt lat="41.006235" lon="14.0554517"><ele>1.714285714285714</ele><time>2026-04-11T06:24:36.86Z</time></trkpt><trkpt lat="41.0062117" lon="14.0553583"><ele>1.5714285714285714</ele><time>2026-04-11T06:24:37.86Z</time></trkpt><trkpt lat="41.0061867" lon="14.055265"><ele>1.4285714285714284</ele><time>2026-04-11T06:24:38.86Z</time></trkpt><trkpt lat="41.00616" lon="14.0551733"><ele>1.2857142857142856</ele><time>2026-04-11T06:24:39.858Z</time></trkpt><trkpt lat="41.0061383" lon="14.05508"><ele>1.1428571428571428</ele><time>2026-04-11T06:24:40.86Z</time></trkpt><trkpt lat="41.006115" lon="14.054985"><ele>1.0</ele><time>2026-04-11T06:24:41.861Z</time></trkpt><trkpt lat="41.00609" lon="14.05489"><ele>1.3333333333333333</ele><time>2026-04-11T06:24:42.86Z</time></trkpt><trkpt lat="41.006065" lon="14.0547967"><ele>1.6666666666666665</ele><time>2026-04-11T06:24:43.861Z</time></trkpt><trkpt lat="41.00604" lon="14.0547"><ele>2.0</ele><time>2026-04-11T06:24:44.858Z</time></trkpt><trkpt lat="41.006015" lon="14.054605"><ele>2.3333333333333335</ele><time>2026-04-11T06:24:45.86Z</time></trkpt><trkpt lat="41.0059883" lon="14.0545117"><ele>2.6666666666666665</ele><time>2026-04-11T06:24:46.86Z</time></trkpt><trkpt lat="41.0059667" lon="14.0544183"><ele>3.0</ele><time>2026-04-11T06:24:47.86Z</time></trkpt><trkpt lat="41.0059433" lon="14.0543233"><ele>2.9999999999999996</ele><time>2026-04-11T06:24:48.86Z</time></trkpt><trkpt lat="41.0059217" lon="14.0542317"><ele>3.0</ele><time>2026-04-11T06:24:49.859Z</time></trkpt><trkpt lat="41.0058983" lon="14.0541383"><ele>3.0</ele><time>2026-04-11T06:24:50.86Z</time></trkpt><trkpt lat="41.005875" lon="14.0540483"><ele>3.0</ele><time>2026-04-11T06:24:51.858Z</time></trkpt><trkpt lat="41.0058533" lon="14.0539567"><ele>3.0</ele><time>2026-04-11T06:24:52.859Z</time></trkpt><trkpt lat="41.00583" lon="14.053865"><ele>2.9999999999999996</ele><time>2026-04-11T06:24:53.859Z</time></trkpt><trkpt lat="41.005805" lon="14.0537717"><ele>3.0</ele><time>2026-04-11T06:24:54.861Z</time></trkpt><trkpt lat="41.0057833" lon="14.0536817"><ele>2.9999999999999996</ele><time>2026-04-11T06:24:55.861Z</time></trkpt><trkpt lat="41.00576" lon="14.0535917"><ele>3.0</ele><time>2026-04-11T06:24:56.86Z</time></trkpt><trkpt lat="41.0057367" lon="14.0535"><ele>3.0</ele><time>2026-04-11T06:24:57.86Z</time></trkpt><trkpt lat="41.0057133" lon="14.0534133"><ele>3.0</ele><time>2026-04-11T06:24:58.859Z</time></trkpt><trkpt lat="41.0056917" lon="14.053325"><ele>3.0</ele><time>2026-04-11T06:24:59.859Z</time></trkpt><trkpt lat="41.0056683" lon="14.0532367"><ele>2.9999999999999996</ele><time>2026-04-11T06:25:00.86Z</time></trkpt><trkpt lat="41.0056467" lon="14.05315"><ele>3.0</ele><time>2026-04-11T06:25:01.86Z</time></trkpt><trkpt lat="41.0056233" lon="14.0530617"><ele>2.8571428571428568</ele><time>2026-04-11T06:25:02.86Z</time></trkpt><trkpt lat="41.0056033" lon="14.0529733"><ele>2.7142857142857144</ele><time>2026-04-11T06:25:03.86Z</time></trkpt><trkpt lat="41.00558" lon="14.052885"><ele>2.571428571428571</ele><time>2026-04-11T06:25:04.86Z</time></trkpt><trkpt lat="41.0055567" lon="14.0527983"><ele>2.4285714285714284</ele><time>2026-04-11T06:25:05.859Z</time></trkpt><trkpt lat="41.0055367" lon="14.0527117"><ele>2.2857142857142856</ele><time>2026-04-11T06:25:06.858Z</time></trkpt><trkpt lat="41.0055117" lon="14.0526233"><ele>2.142857142857143</ele><time>2026-04-11T06:25:07.862Z</time></trkpt><trkpt lat="41.0054883" lon="14.052535"><ele>2.0</ele><time>2026-04-11T06:25:08.862Z</time></trkpt><trkpt lat="41.005465" lon="14.0524467"><ele>2.0</ele><time>2026-04-11T06:25:09.862Z</time></trkpt><trkpt lat="41.00544" lon="14.05236"><ele>1.9999999999999998</ele><time>2026-04-11T06:25:10.861Z</time></trkpt><trkpt lat="41.0054133" lon="14.0522767"><ele>2.0</ele><time>2026-04-11T06:25:11.86Z</time></trkpt><trkpt lat="41.00539" lon="14.0521883"><ele>2.0</ele><time>2026-04-11T06:25:12.859Z</time></trkpt><trkpt lat="41.0053683" lon="14.0520967"><ele>1.9999999999999998</ele><time>2026-04-11T06:25:13.861Z</time></trkpt><trkpt lat="41.005345" lon="14.05201"><ele>2.0</ele><time>2026-04-11T06:25:14.862Z</time></trkpt><trkpt lat="41.00532" lon="14.05192"><ele>2.0</ele><time>2026-04-11T06:25:15.862Z</time></trkpt><trkpt lat="41.0052967" lon="14.05183"><ele>2.0</ele><time>2026-04-11T06:25:16.857Z</time></trkpt><trkpt lat="41.0052733" lon="14.0517367"><ele>1.9999999999999998</ele><time>2026-04-11T06:25:17.861Z</time></trkpt><trkpt lat="41.0052517" lon="14.051645"><ele>2.0</ele><time>2026-04-11T06:25:18.86Z</time></trkpt><trkpt lat="41.00523" lon="14.0515533"><ele>2.0</ele><time>2026-04-11T06:25:19.86Z</time></trkpt><trkpt lat="41.005205" lon="14.0514633"><ele>1.9999999999999998</ele><time>2026-04-11T06:25:20.859Z</time></trkpt><trkpt lat="41.0051817" lon="14.0513733"><ele>2.0</ele><time>2026-04-11T06:25:21.859Z</time></trkpt><trkpt lat="41.00516" lon="14.051285"><ele>2.0</ele><time>2026-04-11T06:25:22.86Z</time></trkpt><trkpt lat="41.0051333" lon="14.051195"><ele>2.142857142857143</ele><time>2026-04-11T06:25:23.861Z</time></trkpt><trkpt lat="41.00511" lon="14.0511033"><ele>2.2857142857142856</ele><time>2026-04-11T06:25:24.859Z</time></trkpt><trkpt lat="41.0050867" lon="14.0510083"><ele>2.4285714285714284</ele><time>2026-04-11T06:25:25.862Z</time></trkpt><trkpt lat="41.0050633" lon="14.0509167"><ele>2.571428571428571</ele><time>2026-04-11T06:25:26.858Z</time></trkpt><trkpt lat="41.0050417" lon="14.050825"><ele>2.7142857142857144</ele><time>2026-04-11T06:25:27.859Z</time></trkpt><trkpt lat="41.0050167" lon="14.0507333"><ele>2.8571428571428568</ele><time>2026-04-11T06:25:28.862Z</time></trkpt><trkpt lat="41.004995" lon="14.050645"><ele>3.0</ele><time>2026-04-11T06:25:29.861Z</time></trkpt><trkpt lat="41.0049733" lon="14.0505567"><ele>2.714285714285714</ele><time>2026-04-11T06:25:30.862Z</time></trkpt><trkpt lat="41.00495" lon="14.0504667"><ele>2.4285714285714284</ele><time>2026-04-11T06:25:31.859Z</time></trkpt><trkpt lat="41.004925" lon="14.0503767"><ele>2.142857142857143</ele><time>2026-04-11T06:25:32.86Z</time></trkpt><trkpt lat="41.0049033" lon="14.0502867"><ele>1.857142857142857</ele><time>2026-04-11T06:25:33.861Z</time></trkpt><trkpt lat="41.0048817" lon="14.0501967"><ele>1.5714285714285712</ele><time>2026-04-11T06:25:34.86Z</time></trkpt><trkpt lat="41.0048583" lon="14.0501017"><ele>1.2857142857142856</ele><time>2026-04-11T06:25:35.862Z</time></trkpt><trkpt lat="41.0048367" lon="14.05001"><ele>1.0</ele><time>2026-04-11T06:25:36.86Z</time></trkpt><trkpt lat="41.0048117" lon="14.0499217"><ele>1.0</ele><time>2026-04-11T06:25:37.862Z</time></trkpt><trkpt lat="41.0047883" lon="14.0498283"><ele>0.9999999999999999</ele><time>2026-04-11T06:25:38.858Z</time></trkpt><trkpt lat="41.0047633" lon="14.049735"><ele>1.0</ele><time>2026-04-11T06:25:39.86Z</time></trkpt><trkpt lat="41.00474" lon="14.0496433"><ele>1.0</ele><time>2026-04-11T06:25:40.862Z</time></trkpt><trkpt lat="41.004715" lon="14.0495517"><ele>0.9999999999999999</ele><time>2026-04-11T06:25:41.861Z</time></trkpt><trkpt lat="41.0046917" lon="14.049465"><ele>1.0</ele><time>2026-04-11T06:25:42.861Z</time></trkpt><trkpt lat="41.0046683" lon="14.0493733"><ele>1.0</ele><time>2026-04-11T06:25:43.861Z</time></trkpt><trkpt lat="41.0046433" lon="14.0492783"><ele>1.0</ele><time>2026-04-11T06:25:44.861Z</time></trkpt><trkpt lat="41.0046217" lon="14.049185"><ele>0.9999999999999999</ele><time>2026-04-11T06:25:45.86Z</time></trkpt><trkpt lat="41.0045983" lon="14.049095"><ele>1.0</ele><time>2026-04-11T06:25:46.861Z</time></trkpt><trkpt lat="41.004575" lon="14.049"><ele>1.0</ele><time>2026-04-11T06:25:47.859Z</time></trkpt><trkpt lat="41.00455" lon="14.048905"><ele>0.9999999999999999</ele><time>2026-04-11T06:25:48.859Z</time></trkpt><trkpt lat="41.004525" lon="14.0488117"><ele>1.0</ele><time>2026-04-11T06:25:49.863Z</time></trkpt><trkpt lat="41.0045" lon="14.0487167"><ele>1.0</ele><time>2026-04-11T06:25:50.86Z</time></trkpt><trkpt lat="41.0044767" lon="14.0486217"><ele>1.0</ele><time>2026-04-11T06:25:51.859Z</time></trkpt><trkpt lat="41.0044533" lon="14.0485317"><ele>0.9999999999999999</ele><time>2026-04-11T06:25:52.861Z</time></trkpt><trkpt lat="41.00443" lon="14.0484367"><ele>1.0</ele><time>2026-04-11T06:25:53.858Z</time></trkpt><trkpt lat="41.0044067" lon="14.0483417"><ele>1.0</ele><time>2026-04-11T06:25:54.859Z</time></trkpt><trkpt lat="41.0043833" lon="14.0482467"><ele>0.9999999999999999</ele><time>2026-04-11T06:25:55.862Z</time></trkpt><trkpt lat="41.0043583" lon="14.0481533"><ele>1.0</ele><time>2026-04-11T06:25:56.86Z</time></trkpt><trkpt lat="41.0043333" lon="14.0480583"><ele>1.0</ele><time>2026-04-11T06:25:57.862Z</time></trkpt><trkpt lat="41.0043067" lon="14.047965"><ele>1.0</ele><time>2026-04-11T06:25:58.859Z</time></trkpt><trkpt lat="41.0042833" lon="14.04787"><ele>0.9999999999999999</ele><time>2026-04-11T06:25:59.862Z</time></trkpt><trkpt lat="41.0042583" lon="14.047775"><ele>1.0</ele><time>2026-04-11T06:26:00.861Z</time></trkpt><trkpt lat="41.004235" lon="14.04768"><ele>1.0</ele><time>2026-04-11T06:26:01.858Z</time></trkpt><trkpt lat="41.0042083" lon="14.0475867"><ele>0.9999999999999999</ele><time>2026-04-11T06:26:02.861Z</time></trkpt><trkpt lat="41.0041833" lon="14.047495"><ele>1.0</ele><time>2026-04-11T06:26:03.858Z</time></trkpt><trkpt lat="41.0041583" lon="14.047405"><ele>1.0</ele><time>2026-04-11T06:26:04.862Z</time></trkpt><trkpt lat="41.0041333" lon="14.0473133"><ele>1.0</ele><time>2026-04-11T06:26:05.86Z</time></trkpt><trkpt lat="41.0041083" lon="14.0472233"><ele>0.9999999999999999</ele><time>2026-04-11T06:26:06.858Z</time></trkpt><trkpt lat="41.0040833" lon="14.0471317"><ele>1.0</ele><time>2026-04-11T06:26:07.858Z</time></trkpt><trkpt lat="41.0040633" lon="14.04704"><ele>1.0</ele><time>2026-04-11T06:26:08.861Z</time></trkpt><trkpt lat="41.00404" lon="14.0469467"><ele>0.9999999999999999</ele><time>2026-04-11T06:26:09.86Z</time></trkpt><trkpt lat="41.0040183" lon="14.0468517"><ele>1.0</ele><time>2026-04-11T06:26:10.862Z</time></trkpt><trkpt lat="41.003995" lon="14.0467583"><ele>1.0</ele><time>2026-04-11T06:26:11.861Z</time></trkpt><trkpt lat="41.0039717" lon="14.046665"><ele>1.0</ele><time>2026-04-11T06:26:12.86Z</time></trkpt><trkpt lat="41.0039483" lon="14.0465733"><ele>0.9999999999999999</ele><time>2026-04-11T06:26:13.861Z</time></trkpt><trkpt lat="41.003925" lon="14.0464833"><ele>1.0</ele><time>2026-04-11T06:26:14.857Z</time></trkpt><trkpt lat="41.0039" lon="14.0463933"><ele>1.0</ele><time>2026-04-11T06:26:15.86Z</time></trkpt><trkpt lat="41.0038783" lon="14.0463033"><ele>0.9999999999999999</ele><time>2026-04-11T06:26:16.86Z</time></trkpt><trkpt lat="41.003855" lon="14.04621"><ele>1.0</ele><time>2026-04-11T06:26:17.861Z</time></trkpt><trkpt lat="41.0038317" lon="14.04612"><ele>1.0</ele><time>2026-04-11T06:26:18.86Z</time></trkpt><trkpt lat="41.00381" lon="14.0460267"><ele>1.0</ele><time>2026-04-11T06:26:19.862Z</time></trkpt><trkpt lat="41.003785" lon="14.0459317"><ele>0.9999999999999999</ele><time>2026-04-11T06:26:20.861Z</time></trkpt><trkpt lat="41.0037617" lon="14.0458383"><ele>1.0</ele><time>2026-04-11T06:26:21.86Z</time></trkpt><trkpt lat="41.00374" lon="14.0457467"><ele>1.0</ele><time>2026-04-11T06:26:22.86Z</time></trkpt><trkpt lat="41.003715" lon="14.0456567"><ele>0.9999999999999999</ele><time>2026-04-11T06:26:23.859Z</time></trkpt><trkpt lat="41.0036917" lon="14.045565"><ele>1.0</ele><time>2026-04-11T06:26:24.86Z</time></trkpt><trkpt lat="41.0036667" lon="14.045475"><ele>1.0</ele><time>2026-04-11T06:26:25.861Z</time></trkpt><trkpt lat="41.0036433" lon="14.045385"><ele>1.0</ele><time>2026-04-11T06:26:26.862Z</time></trkpt><trkpt lat="41.0036183" lon="14.0452933"><ele>0.9999999999999999</ele><time>2026-04-11T06:26:27.859Z</time></trkpt><trkpt lat="41.0035933" lon="14.0452033"><ele>1.0</ele><time>2026-04-11T06:26:28.859Z</time></trkpt><trkpt lat="41.00357" lon="14.0451133"><ele>1.0</ele><time>2026-04-11T06:26:29.861Z</time></trkpt><trkpt lat="41.0035467" lon="14.045025"><ele>0.9999999999999999</ele><time>2026-04-11T06:26:30.861Z</time></trkpt><trkpt lat="41.0035233" lon="14.0449333"><ele>1.0</ele><time>2026-04-11T06:26:31.862Z</time></trkpt><trkpt lat="41.0035" lon="14.0448417"><ele>1.0</ele><time>2026-04-11T06:26:32.857Z</time></trkpt><trkpt lat="41.003475" lon="14.0447483"><ele>1.0</ele><time>2026-04-11T06:26:33.859Z</time></trkpt><trkpt lat="41.003455" lon="14.044655"><ele>0.9999999999999999</ele><time>2026-04-11T06:26:34.861Z</time></trkpt><trkpt lat="41.0034317" lon="14.0445583"><ele>1.0</ele><time>2026-04-11T06:26:35.86Z</time></trkpt><trkpt lat="41.0034117" lon="14.0444683"><ele>1.0</ele><time>2026-04-11T06:26:36.861Z</time></trkpt><trkpt lat="41.0033883" lon="14.0443733"><ele>0.9999999999999999</ele><time>2026-04-11T06:26:37.862Z</time></trkpt><trkpt lat="41.0033667" lon="14.0442783"><ele>1.0</ele><time>2026-04-11T06:26:38.858Z</time></trkpt><trkpt lat="41.0033417" lon="14.04419"><ele>1.0</ele><time>2026-04-11T06:26:39.862Z</time></trkpt><trkpt lat="41.0033167" lon="14.0441"><ele>1.1428571428571428</ele><time>2026-04-11T06:26:40.861Z</time></trkpt><trkpt lat="41.0032933" lon="14.0440083"><ele>1.2857142857142856</ele><time>2026-04-11T06:26:41.862Z</time></trkpt><trkpt lat="41.0032717" lon="14.043915"><ele>1.4285714285714284</ele><time>2026-04-11T06:26:42.86Z</time></trkpt><trkpt lat="41.00325" lon="14.0438233"><ele>1.5714285714285714</ele><time>2026-04-11T06:26:43.861Z</time></trkpt><trkpt lat="41.0032283" lon="14.04373"><ele>1.714285714285714</ele><time>2026-04-11T06:26:44.858Z</time></trkpt><trkpt lat="41.0032033" lon="14.0436383"><ele>1.857142857142857</ele><time>2026-04-11T06:26:45.86Z</time></trkpt><trkpt lat="41.0031783" lon="14.043545"><ele>2.0</ele><time>2026-04-11T06:26:46.859Z</time></trkpt><trkpt lat="41.0031533" lon="14.0434517"><ele>2.0</ele><time>2026-04-11T06:26:47.859Z</time></trkpt><trkpt lat="41.00313" lon="14.04336"><ele>1.9999999999999998</ele><time>2026-04-11T06:26:48.862Z</time></trkpt><trkpt lat="41.003105" lon="14.0432667"><ele>2.0</ele><time>2026-04-11T06:26:49.859Z</time></trkpt><trkpt lat="41.0030817" lon="14.0431733"><ele>2.0</ele><time>2026-04-11T06:26:50.862Z</time></trkpt><trkpt lat="41.0030583" lon="14.0430783"><ele>1.9999999999999998</ele><time>2026-04-11T06:26:51.86Z</time></trkpt><trkpt lat="41.0030333" lon="14.042985"><ele>2.0</ele><time>2026-04-11T06:26:52.858Z</time></trkpt><trkpt lat="41.0030083" lon="14.04289"><ele>2.0</ele><time>2026-04-11T06:26:53.862Z</time></trkpt><trkpt lat="41.002985" lon="14.0427967"><ele>1.4999999999999998</ele><time>2026-04-11T06:26:54.859Z</time></trkpt><trkpt lat="41.00296" lon="14.0427033"><ele>1.0</ele><time>2026-04-11T06:26:55.86Z</time></trkpt><trkpt lat="41.002935" lon="14.0426083"><ele>0.5</ele><time>2026-04-11T06:26:56.857Z</time></trkpt><trkpt lat="41.0029133" lon="14.042515"><ele>0.0</ele><time>2026-04-11T06:26:57.862Z</time></trkpt><trkpt lat="41.00289" lon="14.0424167"><ele>-0.49999999999999994</ele><time>2026-04-11T06:26:58.861Z</time></trkpt><trkpt lat="41.002865" lon="14.04232"><ele>-1.0</ele><time>2026-04-11T06:26:59.861Z</time></trkpt><trkpt lat="41.0028383" lon="14.0422267"><ele>-0.9999999999999999</ele><time>2026-04-11T06:27:00.861Z</time></trkpt><trkpt lat="41.0028117" lon="14.04213"><ele>-1.0</ele><time>2026-04-11T06:27:01.862Z</time></trkpt><trkpt lat="41.0027817" lon="14.0420333"><ele>-1.0</ele><time>2026-04-11T06:27:02.861Z</time></trkpt><trkpt lat="41.0027583" lon="14.0419383"><ele>-1.0</ele><time>2026-04-11T06:27:03.861Z</time></trkpt><trkpt lat="41.002735" lon="14.04184"><ele>-0.9999999999999999</ele><time>2026-04-11T06:27:04.861Z</time></trkpt><trkpt lat="41.00271" lon="14.0417417"><ele>-1.0</ele><time>2026-04-11T06:27:05.858Z</time></trkpt><trkpt lat="41.0026867" lon="14.041645"><ele>-0.8333333333333333</ele><time>2026-04-11T06:27:06.86Z</time></trkpt><trkpt lat="41.00266" lon="14.0415467"><ele>-0.6666666666666666</ele><time>2026-04-11T06:27:07.86Z</time></trkpt><trkpt lat="41.0026333" lon="14.0414467"><ele>-0.5</ele><time>2026-04-11T06:27:08.858Z</time></trkpt><trkpt lat="41.00261" lon="14.0413483"><ele>-0.3333333333333333</ele><time>2026-04-11T06:27:09.861Z</time></trkpt><trkpt lat="41.0025867" lon="14.0412517"><ele>-0.16666666666666666</ele><time>2026-04-11T06:27:10.861Z</time></trkpt><trkpt lat="41.0025617" lon="14.0411533"><ele>0.0</ele><time>2026-04-11T06:27:11.86Z</time></trkpt><trkpt lat="41.002535" lon="14.041055"><ele>0.0</ele><time>2026-04-11T06:27:12.859Z</time></trkpt><trkpt lat="41.0025083" lon="14.0409583"><ele>0.0</ele><time>2026-04-11T06:27:13.86Z</time></trkpt><trkpt lat="41.0024833" lon="14.0408633"><ele>0.0</ele><time>2026-04-11T06:27:14.862Z</time></trkpt><trkpt lat="41.0024567" lon="14.0407667"><ele>0.0</ele><time>2026-04-11T06:27:15.861Z</time></trkpt><trkpt lat="41.00243" lon="14.04067"><ele>0.0</ele><time>2026-04-11T06:27:16.86Z</time></trkpt><trkpt lat="41.0024033" lon="14.0405717"><ele>0.0</ele><time>2026-04-11T06:27:17.858Z</time></trkpt><trkpt lat="41.00238" lon="14.0404717"><ele>0.16666666666666666</ele><time>2026-04-11T06:27:18.859Z</time></trkpt><trkpt lat="41.0023533" lon="14.0403717"><ele>0.3333333333333333</ele><time>2026-04-11T06:27:19.858Z</time></trkpt><trkpt lat="41.002325" lon="14.040275"><ele>0.5</ele><time>2026-04-11T06:27:20.859Z</time></trkpt><trkpt lat="41.0022983" lon="14.0401767"><ele>0.6666666666666666</ele><time>2026-04-11T06:27:21.86Z</time></trkpt><trkpt lat="41.002275" lon="14.04008"><ele>0.8333333333333333</ele><time>2026-04-11T06:27:22.859Z</time></trkpt><trkpt lat="41.0022517" lon="14.0399833"><ele>1.0</ele><time>2026-04-11T06:27:23.859Z</time></trkpt><trkpt lat="41.0022267" lon="14.0398867"><ele>0.9999999999999999</ele><time>2026-04-11T06:27:24.86Z</time></trkpt><trkpt lat="41.0022017" lon="14.03979"><ele>1.0</ele><time>2026-04-11T06:27:25.86Z</time></trkpt><trkpt lat="41.0021767" lon="14.0396917"><ele>1.0</ele><time>2026-04-11T06:27:26.86Z</time></trkpt><trkpt lat="41.0021533" lon="14.0395933"><ele>1.0</ele><time>2026-04-11T06:27:27.86Z</time></trkpt><trkpt lat="41.00213" lon="14.0394967"><ele>0.9999999999999999</ele><time>2026-04-11T06:27:28.859Z</time></trkpt><trkpt lat="41.002105" lon="14.0393983"><ele>1.0</ele><time>2026-04-11T06:27:29.862Z</time></trkpt><trkpt lat="41.00208" lon="14.0393017"><ele>0.9999999999999999</ele><time>2026-04-11T06:27:30.859Z</time></trkpt><trkpt lat="41.0020533" lon="14.0392083"><ele>1.0</ele><time>2026-04-11T06:27:31.859Z</time></trkpt><trkpt lat="41.0020283" lon="14.0391117"><ele>1.0</ele><time>2026-04-11T06:27:32.86Z</time></trkpt><trkpt lat="41.002005" lon="14.039015"><ele>1.0</ele><time>2026-04-11T06:27:33.862Z</time></trkpt><trkpt lat="41.00198" lon="14.0389217"><ele>0.9999999999999999</ele><time>2026-04-11T06:27:34.86Z</time></trkpt><trkpt lat="41.0019567" lon="14.038825"><ele>1.0</ele><time>2026-04-11T06:27:35.861Z</time></trkpt><trkpt lat="41.0019317" lon="14.0387283"><ele>0.9999999999999999</ele><time>2026-04-11T06:27:36.86Z</time></trkpt><trkpt lat="41.0019067" lon="14.0386317"><ele>1.0</ele><time>2026-04-11T06:27:37.86Z</time></trkpt><trkpt lat="41.0018817" lon="14.038535"><ele>1.0</ele><time>2026-04-11T06:27:38.858Z</time></trkpt><trkpt lat="41.0018567" lon="14.0384367"><ele>1.0</ele><time>2026-04-11T06:27:39.861Z</time></trkpt><trkpt lat="41.0018333" lon="14.03834"><ele>0.9999999999999999</ele><time>2026-04-11T06:27:40.861Z</time></trkpt><trkpt lat="41.0018083" lon="14.0382433"><ele>1.0</ele><time>2026-04-11T06:27:41.86Z</time></trkpt><trkpt lat="41.0017817" lon="14.0381483"><ele>0.8333333333333333</ele><time>2026-04-11T06:27:42.859Z</time></trkpt><trkpt lat="41.001755" lon="14.0380517"><ele>0.6666666666666666</ele><time>2026-04-11T06:27:43.859Z</time></trkpt><trkpt lat="41.0017283" lon="14.0379567"><ele>0.5</ele><time>2026-04-11T06:27:44.858Z</time></trkpt><trkpt lat="41.001705" lon="14.0378567"><ele>0.3333333333333333</ele><time>2026-04-11T06:27:45.86Z</time></trkpt><trkpt lat="41.001685" lon="14.03776"><ele>0.16666666666666666</ele><time>2026-04-11T06:27:46.859Z</time></trkpt><trkpt lat="41.001665" lon="14.03766"><ele>0.0</ele><time>2026-04-11T06:27:47.859Z</time></trkpt><trkpt lat="41.00164" lon="14.0375617"><ele>0.0</ele><time>2026-04-11T06:27:48.858Z</time></trkpt><trkpt lat="41.001615" lon="14.0374633"><ele>0.0</ele><time>2026-04-11T06:27:49.858Z</time></trkpt><trkpt lat="41.0015917" lon="14.0373683"><ele>0.0</ele><time>2026-04-11T06:27:50.858Z</time></trkpt><trkpt lat="41.0015667" lon="14.03727"><ele>0.0</ele><time>2026-04-11T06:27:51.858Z</time></trkpt><trkpt lat="41.00154" lon="14.0371733"><ele>0.0</ele><time>2026-04-11T06:27:52.858Z</time></trkpt><trkpt lat="41.001515" lon="14.0370733"><ele>0.0</ele><time>2026-04-11T06:27:53.86Z</time></trkpt><trkpt lat="41.0014883" lon="14.0369767"><ele>0.0</ele><time>2026-04-11T06:27:54.858Z</time></trkpt><trkpt lat="41.0014633" lon="14.0368817"><ele>0.0</ele><time>2026-04-11T06:27:55.858Z</time></trkpt><trkpt lat="41.0014383" lon="14.0367833"><ele>0.0</ele><time>2026-04-11T06:27:56.858Z</time></trkpt><trkpt lat="41.0014083" lon="14.0366867"><ele>0.0</ele><time>2026-04-11T06:27:57.858Z</time></trkpt><trkpt lat="41.0013783" lon="14.0365933"><ele>0.0</ele><time>2026-04-11T06:27:58.86Z</time></trkpt><trkpt lat="41.0013517" lon="14.0365"><ele>0.0</ele><time>2026-04-11T06:27:59.861Z</time></trkpt><trkpt lat="41.001325" lon="14.0364067"><ele>0.16666666666666666</ele><time>2026-04-11T06:28:00.859Z</time></trkpt><trkpt lat="41.0012933" lon="14.0363167"><ele>0.3333333333333333</ele><time>2026-04-11T06:28:01.859Z</time></trkpt><trkpt lat="41.0012633" lon="14.03623"><ele>0.5</ele><time>2026-04-11T06:28:02.859Z</time></trkpt><trkpt lat="41.0012317" lon="14.03614"><ele>0.6666666666666666</ele><time>2026-04-11T06:28:03.86Z</time></trkpt><trkpt lat="41.0012133" lon="14.0360367"><ele>0.8333333333333333</ele><time>2026-04-11T06:28:04.858Z</time></trkpt><trkpt lat="41.0011983" lon="14.0359367"><ele>1.0</ele><time>2026-04-11T06:28:05.862Z</time></trkpt><trkpt lat="41.0011767" lon="14.03584"><ele>1.1666666666666665</ele><time>2026-04-11T06:28:06.859Z</time></trkpt><trkpt lat="41.001155" lon="14.0357433"><ele>1.3333333333333333</ele><time>2026-04-11T06:28:07.861Z</time></trkpt><trkpt lat="41.0011333" lon="14.0356467"><ele>1.5</ele><time>2026-04-11T06:28:08.86Z</time></trkpt><trkpt lat="41.0011083" lon="14.0355483"><ele>1.6666666666666665</ele><time>2026-04-11T06:28:09.858Z</time></trkpt><trkpt lat="41.001085" lon="14.0354467"><ele>1.8333333333333333</ele><time>2026-04-11T06:28:10.86Z</time></trkpt><trkpt lat="41.001065" lon="14.0353483"><ele>2.0</ele><time>2026-04-11T06:28:11.86Z</time></trkpt><trkpt lat="41.0010417" lon="14.0352517"><ele>1.9999999999999998</ele><time>2026-04-11T06:28:12.861Z</time></trkpt><trkpt lat="41.001015" lon="14.0351567"><ele>2.0</ele><time>2026-04-11T06:28:13.86Z</time></trkpt><trkpt lat="41.0009883" lon="14.0350633"><ele>2.0</ele><time>2026-04-11T06:28:14.86Z</time></trkpt><trkpt lat="41.0009617" lon="14.0349667"><ele>2.0</ele><time>2026-04-11T06:28:15.861Z</time></trkpt><trkpt lat="41.0009367" lon="14.0348717"><ele>1.9999999999999998</ele><time>2026-04-11T06:28:16.862Z</time></trkpt><trkpt lat="41.0009117" lon="14.0347783"><ele>2.0</ele><time>2026-04-11T06:28:17.859Z</time></trkpt><trkpt lat="41.000885" lon="14.0346833"><ele>1.8333333333333333</ele><time>2026-04-11T06:28:18.858Z</time></trkpt><trkpt lat="41.0008617" lon="14.0345867"><ele>1.6666666666666665</ele><time>2026-04-11T06:28:19.86Z</time></trkpt><trkpt lat="41.00084" lon="14.034485"><ele>1.5</ele><time>2026-04-11T06:28:20.858Z</time></trkpt><trkpt lat="41.0008167" lon="14.034385"><ele>1.3333333333333333</ele><time>2026-04-11T06:28:21.859Z</time></trkpt><trkpt lat="41.0007933" lon="14.034285"><ele>1.1666666666666665</ele><time>2026-04-11T06:28:22.859Z</time></trkpt><trkpt lat="41.0007683" lon="14.034185"><ele>1.0</ele><time>2026-04-11T06:28:23.859Z</time></trkpt><trkpt lat="41.0007433" lon="14.0340867"><ele>0.8333333333333333</ele><time>2026-04-11T06:28:24.859Z</time></trkpt><trkpt lat="41.000715" lon="14.0339917"><ele>0.6666666666666666</ele><time>2026-04-11T06:28:25.858Z</time></trkpt><trkpt lat="41.0006883" lon="14.0338967"><ele>0.5</ele><time>2026-04-11T06:28:26.859Z</time></trkpt><trkpt lat="41.0006633" lon="14.0338"><ele>0.3333333333333333</ele><time>2026-04-11T06:28:27.858Z</time></trkpt><trkpt lat="41.0006383" lon="14.0336967"><ele>0.16666666666666666</ele><time>2026-04-11T06:28:28.862Z</time></trkpt><trkpt lat="41.0006117" lon="14.0336"><ele>0.0</ele><time>2026-04-11T06:28:29.861Z</time></trkpt><trkpt lat="41.0005867" lon="14.0335033"><ele>0.0</ele><time>2026-04-11T06:28:30.861Z</time></trkpt><trkpt lat="41.0005617" lon="14.0334067"><ele>0.0</ele><time>2026-04-11T06:28:31.861Z</time></trkpt><trkpt lat="41.000535" lon="14.0333083"><ele>0.0</ele><time>2026-04-11T06:28:32.861Z</time></trkpt><trkpt lat="41.0005083" lon="14.0332083"><ele>0.0</ele><time>2026-04-11T06:28:33.861Z</time></trkpt><trkpt lat="41.0004833" lon="14.0331117"><ele>0.0</ele><time>2026-04-11T06:28:34.86Z</time></trkpt><trkpt lat="41.0004583" lon="14.0330083"><ele>0.0</ele><time>2026-04-11T06:28:35.86Z</time></trkpt><trkpt lat="41.0004333" lon="14.0329083"><ele>0.0</ele><time>2026-04-11T06:28:36.861Z</time></trkpt><trkpt lat="41.0004067" lon="14.0328083"><ele>0.0</ele><time>2026-04-11T06:28:37.86Z</time></trkpt><trkpt lat="41.0003833" lon="14.032705"><ele>0.0</ele><time>2026-04-11T06:28:38.861Z</time></trkpt><trkpt lat="41.0003617" lon="14.032605"><ele>0.0</ele><time>2026-04-11T06:28:39.86Z</time></trkpt><trkpt lat="41.0003367" lon="14.032505"><ele>0.0</ele><time>2026-04-11T06:28:40.861Z</time></trkpt><trkpt lat="41.0003133" lon="14.0324083"><ele>0.0</ele><time>2026-04-11T06:28:41.86Z</time></trkpt><trkpt lat="41.0002883" lon="14.032315"><ele>0.0</ele><time>2026-04-11T06:28:42.861Z</time></trkpt><trkpt lat="41.0002617" lon="14.03222"><ele>0.0</ele><time>2026-04-11T06:28:43.861Z</time></trkpt><trkpt lat="41.000235" lon="14.03212"><ele>0.0</ele><time>2026-04-11T06:28:44.858Z</time></trkpt><trkpt lat="41.00021" lon="14.03202"><ele>0.0</ele><time>2026-04-11T06:28:45.862Z</time></trkpt><trkpt lat="41.000185" lon="14.0319217"><ele>0.0</ele><time>2026-04-11T06:28:46.859Z</time></trkpt><trkpt lat="41.0001617" lon="14.031825"><ele>0.0</ele><time>2026-04-11T06:28:47.859Z</time></trkpt><trkpt lat="41.0001367" lon="14.0317267"><ele>0.16666666666666666</ele><time>2026-04-11T06:28:48.859Z</time></trkpt><trkpt lat="41.0001117" lon="14.0316317"><ele>0.3333333333333333</ele><time>2026-04-11T06:28:49.859Z</time></trkpt><trkpt lat="41.000085" lon="14.0315383"><ele>0.5</ele><time>2026-04-11T06:28:50.86Z</time></trkpt><trkpt lat="41.0000583" lon="14.031445"><ele>0.6666666666666666</ele><time>2026-04-11T06:28:51.858Z</time></trkpt><trkpt lat="41.0000333" lon="14.0313483"><ele>0.8333333333333333</ele><time>2026-04-11T06:28:52.86Z</time></trkpt><trkpt lat="41.00001" lon="14.0312533"><ele>1.0</ele><time>2026-04-11T06:28:53.86Z</time></trkpt><trkpt lat="40.9999833" lon="14.0311567"><ele>1.0</ele><time>2026-04-11T06:28:54.86Z</time></trkpt><trkpt lat="40.9999567" lon="14.031065"><ele>0.9999999999999999</ele><time>2026-04-11T06:28:55.86Z</time></trkpt><trkpt lat="40.9999317" lon="14.0309767"><ele>1.0</ele><time>2026-04-11T06:28:56.859Z</time></trkpt><trkpt lat="40.9999083" lon="14.030885"><ele>1.0</ele><time>2026-04-11T06:28:57.859Z</time></trkpt><trkpt lat="40.9998867" lon="14.0307917"><ele>0.9999999999999999</ele><time>2026-04-11T06:28:58.861Z</time></trkpt><trkpt lat="40.9998617" lon="14.0307017"><ele>1.0</ele><time>2026-04-11T06:28:59.861Z</time></trkpt><trkpt lat="40.9998383" lon="14.03061"><ele>1.0</ele><time>2026-04-11T06:29:00.86Z</time></trkpt><trkpt lat="40.9998133" lon="14.0305167"><ele>0.8571428571428571</ele><time>2026-04-11T06:29:01.861Z</time></trkpt><trkpt lat="40.99979" lon="14.030425"><ele>0.7142857142857142</ele><time>2026-04-11T06:29:02.861Z</time></trkpt><trkpt lat="40.99977" lon="14.0303333"><ele>0.5714285714285714</ele><time>2026-04-11T06:29:03.861Z</time></trkpt><trkpt lat="40.999745" lon="14.03024"><ele>0.42857142857142855</ele><time>2026-04-11T06:29:04.86Z</time></trkpt><trkpt lat="40.9997217" lon="14.0301467"><ele>0.2857142857142857</ele><time>2026-04-11T06:29:05.859Z</time></trkpt><trkpt lat="40.9996983" lon="14.0300533"><ele>0.14285714285714285</ele><time>2026-04-11T06:29:06.858Z</time></trkpt><trkpt lat="40.9996733" lon="14.0299617"><ele>0.0</ele><time>2026-04-11T06:29:07.862Z</time></trkpt><trkpt lat="40.9996517" lon="14.02987"><ele>-0.14285714285714285</ele><time>2026-04-11T06:29:08.858Z</time></trkpt><trkpt lat="40.99963" lon="14.0297767"><ele>-0.2857142857142857</ele><time>2026-04-11T06:29:09.861Z</time></trkpt><trkpt lat="40.9996083" lon="14.0296817"><ele>-0.42857142857142855</ele><time>2026-04-11T06:29:10.862Z</time></trkpt><trkpt lat="40.999585" lon="14.0295867"><ele>-0.5714285714285714</ele><time>2026-04-11T06:29:11.861Z</time></trkpt><trkpt lat="40.9995633" lon="14.0294883"><ele>-0.7142857142857142</ele><time>2026-04-11T06:29:12.86Z</time></trkpt><trkpt lat="40.99954" lon="14.029395"><ele>-0.8571428571428571</ele><time>2026-04-11T06:29:13.86Z</time></trkpt><trkpt lat="40.999515" lon="14.0293033"><ele>-1.0</ele><time>2026-04-11T06:29:14.861Z</time></trkpt><trkpt lat="40.999495" lon="14.0292133"><ele>-1.0</ele><time>2026-04-11T06:29:15.859Z</time></trkpt><trkpt lat="40.99947" lon="14.0291233"><ele>-0.9999999999999999</ele><time>2026-04-11T06:29:16.858Z</time></trkpt><trkpt lat="40.999445" lon="14.0290317"><ele>-1.0</ele><time>2026-04-11T06:29:17.86Z</time></trkpt><trkpt lat="40.9994183" lon="14.0289417"><ele>-1.0</ele><time>2026-04-11T06:29:18.86Z</time></trkpt><trkpt lat="40.9993933" lon="14.0288517"><ele>-0.9999999999999999</ele><time>2026-04-11T06:29:19.858Z</time></trkpt><trkpt lat="40.9993683" lon="14.0287583"><ele>-1.0</ele><time>2026-04-11T06:29:20.859Z</time></trkpt><trkpt lat="40.9993467" lon="14.0286667"><ele>-1.0</ele><time>2026-04-11T06:29:21.858Z</time></trkpt><trkpt lat="40.9993217" lon="14.0285717"><ele>-0.9999999999999999</ele><time>2026-04-11T06:29:22.859Z</time></trkpt><trkpt lat="40.9992967" lon="14.0284733"><ele>-1.0</ele><time>2026-04-11T06:29:23.862Z</time></trkpt><trkpt lat="40.9992717" lon="14.0283783"><ele>-1.0</ele><time>2026-04-11T06:29:24.861Z</time></trkpt><trkpt lat="40.9992467" lon="14.0282833"><ele>-1.0</ele><time>2026-04-11T06:29:25.861Z</time></trkpt><trkpt lat="40.9992217" lon="14.0281883"><ele>-0.9999999999999999</ele><time>2026-04-11T06:29:26.861Z</time></trkpt><trkpt lat="40.9991967" lon="14.02809"><ele>-1.0</ele><time>2026-04-11T06:29:27.858Z</time></trkpt><trkpt lat="40.9991733" lon="14.0279917"><ele>-0.9999999999999999</ele><time>2026-04-11T06:29:28.861Z</time></trkpt><trkpt lat="40.9991517" lon="14.027895"><ele>-1.0</ele><time>2026-04-11T06:29:29.861Z</time></trkpt><trkpt lat="40.99913" lon="14.0278"><ele>-1.0</ele><time>2026-04-11T06:29:30.858Z</time></trkpt><trkpt lat="40.999105" lon="14.027705"><ele>-1.0</ele><time>2026-04-11T06:29:31.859Z</time></trkpt><trkpt lat="40.9990817" lon="14.0276083"><ele>-0.9999999999999999</ele><time>2026-04-11T06:29:32.86Z</time></trkpt><trkpt lat="40.9990583" lon="14.027515"><ele>-1.0</ele><time>2026-04-11T06:29:33.861Z</time></trkpt><trkpt lat="40.9990333" lon="14.0274233"><ele>-0.8571428571428571</ele><time>2026-04-11T06:29:34.859Z</time></trkpt><trkpt lat="40.99901" lon="14.0273333"><ele>-0.7142857142857142</ele><time>2026-04-11T06:29:35.86Z</time></trkpt><trkpt lat="40.9989833" lon="14.0272417"><ele>-0.5714285714285714</ele><time>2026-04-11T06:29:36.861Z</time></trkpt><trkpt lat="40.9989617" lon="14.02715"><ele>-0.42857142857142855</ele><time>2026-04-11T06:29:37.862Z</time></trkpt><trkpt lat="40.9989383" lon="14.0270617"><ele>-0.2857142857142857</ele><time>2026-04-11T06:29:38.861Z</time></trkpt><trkpt lat="40.998915" lon="14.0269717"><ele>-0.14285714285714285</ele><time>2026-04-11T06:29:39.86Z</time></trkpt><trkpt lat="40.99889" lon="14.0268833"><ele>0.0</ele><time>2026-04-11T06:29:40.859Z</time></trkpt><trkpt lat="40.9988667" lon="14.0267867"><ele>0.0</ele><time>2026-04-11T06:29:41.86Z</time></trkpt><trkpt lat="40.998845" lon="14.026695"><ele>0.0</ele><time>2026-04-11T06:29:42.859Z</time></trkpt><trkpt lat="40.998825" lon="14.0266017"><ele>0.0</ele><time>2026-04-11T06:29:43.861Z</time></trkpt><trkpt lat="40.998805" lon="14.026505"><ele>0.0</ele><time>2026-04-11T06:29:44.861Z</time></trkpt><trkpt lat="40.9987817" lon="14.0264117"><ele>0.0</ele><time>2026-04-11T06:29:45.861Z</time></trkpt><trkpt lat="40.9987567" lon="14.0263183"><ele>0.0</ele><time>2026-04-11T06:29:46.858Z</time></trkpt><trkpt lat="40.99873" lon="14.02623"><ele>0.0</ele><time>2026-04-11T06:29:47.859Z</time></trkpt><trkpt lat="40.998705" lon="14.0261367"><ele>0.14285714285714285</ele><time>2026-04-11T06:29:48.859Z</time></trkpt><trkpt lat="40.99868" lon="14.02604"><ele>0.2857142857142857</ele><time>2026-04-11T06:29:49.859Z</time></trkpt><trkpt lat="40.9986583" lon="14.0259467"><ele>0.42857142857142855</ele><time>2026-04-11T06:29:50.858Z</time></trkpt><trkpt lat="40.9986417" lon="14.02585"><ele>0.5714285714285714</ele><time>2026-04-11T06:29:51.858Z</time></trkpt><trkpt lat="40.99862" lon="14.0257567"><ele>0.7142857142857142</ele><time>2026-04-11T06:29:52.859Z</time></trkpt><trkpt lat="40.998595" lon="14.0256617"><ele>0.8571428571428571</ele><time>2026-04-11T06:29:53.862Z</time></trkpt><trkpt lat="40.9985667" lon="14.0255717"><ele>1.0</ele><time>2026-04-11T06:29:54.861Z</time></trkpt><trkpt lat="40.9985417" lon="14.0254833"><ele>0.9999999999999999</ele><time>2026-04-11T06:29:55.861Z</time></trkpt><trkpt lat="40.998515" lon="14.0253917"><ele>1.0</ele><time>2026-04-11T06:29:56.86Z</time></trkpt><trkpt lat="40.9984917" lon="14.025295"><ele>1.0</ele><time>2026-04-11T06:29:57.859Z</time></trkpt><trkpt lat="40.99847" lon="14.0252017"><ele>1.0</ele><time>2026-04-11T06:29:58.859Z</time></trkpt><trkpt lat="40.998445" lon="14.0251083"><ele>0.9999999999999999</ele><time>2026-04-11T06:29:59.86Z</time></trkpt><trkpt lat="40.9984183" lon="14.02501"><ele>1.0</ele><time>2026-04-11T06:30:00.86Z</time></trkpt><trkpt lat="40.9983917" lon="14.0249117"><ele>0.6666666666666666</ele><time>2026-04-11T06:30:01.857Z</time></trkpt><trkpt lat="40.998365" lon="14.024815"><ele>0.3333333333333333</ele><time>2026-04-11T06:30:02.859Z</time></trkpt><trkpt lat="40.99834" lon="14.024715"><ele>0.0</ele><time>2026-04-11T06:30:03.857Z</time></trkpt><trkpt lat="40.998315" lon="14.0246167"><ele>-0.3333333333333333</ele><time>2026-04-11T06:30:04.859Z</time></trkpt><trkpt lat="40.99829" lon="14.0245167"><ele>-0.6666666666666666</ele><time>2026-04-11T06:30:05.86Z</time></trkpt><trkpt lat="40.9982633" lon="14.02442"><ele>-1.0</ele><time>2026-04-11T06:30:06.86Z</time></trkpt><trkpt lat="40.998235" lon="14.0243217"><ele>-0.9999999999999999</ele><time>2026-04-11T06:30:07.859Z</time></trkpt><trkpt lat="40.9982083" lon="14.024225"><ele>-1.0</ele><time>2026-04-11T06:30:08.859Z</time></trkpt><trkpt lat="40.9981833" lon="14.0241283"><ele>-1.0</ele><time>2026-04-11T06:30:09.859Z</time></trkpt><trkpt lat="40.9981583" lon="14.0240283"><ele>-1.0</ele><time>2026-04-11T06:30:10.859Z</time></trkpt><trkpt lat="40.9981317" lon="14.023935"><ele>-0.9999999999999999</ele><time>2026-04-11T06:30:11.859Z</time></trkpt><trkpt lat="40.998105" lon="14.0238383"><ele>-1.0</ele><time>2026-04-11T06:30:12.859Z</time></trkpt><trkpt lat="40.9980783" lon="14.02374"><ele>-0.9999999999999999</ele><time>2026-04-11T06:30:13.862Z</time></trkpt><trkpt lat="40.9980533" lon="14.0236433"><ele>-1.0</ele><time>2026-04-11T06:30:14.861Z</time></trkpt><trkpt lat="40.99803" lon="14.02355"><ele>-1.0</ele><time>2026-04-11T06:30:15.86Z</time></trkpt><trkpt lat="40.998005" lon="14.0234533"><ele>-1.0</ele><time>2026-04-11T06:30:16.857Z</time></trkpt><trkpt lat="40.9979817" lon="14.023355"><ele>-0.9999999999999999</ele><time>2026-04-11T06:30:17.862Z</time></trkpt><trkpt lat="40.9979567" lon="14.0232517"><ele>-1.0</ele><time>2026-04-11T06:30:18.861Z</time></trkpt><trkpt lat="40.9979333" lon="14.023155"><ele>-1.1666666666666665</ele><time>2026-04-11T06:30:19.861Z</time></trkpt><trkpt lat="40.99791" lon="14.023055"><ele>-1.3333333333333333</ele><time>2026-04-11T06:30:20.86Z</time></trkpt><trkpt lat="40.9978883" lon="14.022955"><ele>-1.5</ele><time>2026-04-11T06:30:21.86Z</time></trkpt><trkpt lat="40.9978633" lon="14.0228567"><ele>-1.6666666666666665</ele><time>2026-04-11T06:30:22.861Z</time></trkpt><trkpt lat="40.9978383" lon="14.0227567"><ele>-1.8333333333333333</ele><time>2026-04-11T06:30:23.858Z</time></trkpt><trkpt lat="40.9978133" lon="14.0226617"><ele>-2.0</ele><time>2026-04-11T06:30:24.861Z</time></trkpt><trkpt lat="40.9977883" lon="14.0225633"><ele>-1.9999999999999998</ele><time>2026-04-11T06:30:25.859Z</time></trkpt><trkpt lat="40.9977617" lon="14.0224617"><ele>-2.0</ele><time>2026-04-11T06:30:26.859Z</time></trkpt><trkpt lat="40.9977367" lon="14.02236"><ele>-2.0</ele><time>2026-04-11T06:30:27.858Z</time></trkpt><trkpt lat="40.9977117" lon="14.02226"><ele>-2.0</ele><time>2026-04-11T06:30:28.859Z</time></trkpt><trkpt lat="40.9976833" lon="14.02216"><ele>-1.9999999999999998</ele><time>2026-04-11T06:30:29.859Z</time></trkpt><trkpt lat="40.997655" lon="14.0220583"><ele>-2.0</ele><time>2026-04-11T06:30:30.86Z</time></trkpt><trkpt lat="40.9976267" lon="14.0219583"><ele>-1.9999999999999998</ele><time>2026-04-11T06:30:31.86Z</time></trkpt><trkpt lat="40.9976" lon="14.0218583"><ele>-2.0</ele><time>2026-04-11T06:30:32.86Z</time></trkpt><trkpt lat="40.997575" lon="14.0217567"><ele>-2.0</ele><time>2026-04-11T06:30:33.858Z</time></trkpt><trkpt lat="40.9975483" lon="14.0216567"><ele>-2.0</ele><time>2026-04-11T06:30:34.859Z</time></trkpt><trkpt lat="40.9975233" lon="14.0215567"><ele>-1.9999999999999998</ele><time>2026-04-11T06:30:35.86Z</time></trkpt><trkpt lat="40.9975017" lon="14.021455"><ele>-2.0</ele><time>2026-04-11T06:30:36.858Z</time></trkpt><trkpt lat="40.9974783" lon="14.0213567"><ele>-1.8333333333333333</ele><time>2026-04-11T06:30:37.86Z</time></trkpt><trkpt lat="40.9974517" lon="14.0212583"><ele>-1.6666666666666665</ele><time>2026-04-11T06:30:38.859Z</time></trkpt><trkpt lat="40.997425" lon="14.02116"><ele>-1.5</ele><time>2026-04-11T06:30:39.858Z</time></trkpt><trkpt lat="40.9974" lon="14.021065"><ele>-1.3333333333333333</ele><time>2026-04-11T06:30:40.861Z</time></trkpt><trkpt lat="40.997375" lon="14.02097"><ele>-1.1666666666666665</ele><time>2026-04-11T06:30:41.859Z</time></trkpt><trkpt lat="40.9973517" lon="14.0208733"><ele>-1.0</ele><time>2026-04-11T06:30:42.861Z</time></trkpt><trkpt lat="40.997325" lon="14.02078"><ele>-1.0</ele><time>2026-04-11T06:30:43.86Z</time></trkpt><trkpt lat="40.9972917" lon="14.0206933"><ele>-0.9999999999999999</ele><time>2026-04-11T06:30:44.861Z</time></trkpt><trkpt lat="40.99726" lon="14.02061"><ele>-1.0</ele><time>2026-04-11T06:30:45.861Z</time></trkpt><trkpt lat="40.99723" lon="14.0205217"><ele>-1.0</ele><time>2026-04-11T06:30:46.861Z</time></trkpt><trkpt lat="40.9972067" lon="14.0204317"><ele>-0.9999999999999999</ele><time>2026-04-11T06:30:47.858Z</time></trkpt><trkpt lat="40.9971867" lon="14.020335"><ele>-1.0</ele><time>2026-04-11T06:30:48.861Z</time></trkpt><trkpt lat="40.9971733" lon="14.0202333"><ele>-1.0</ele><time>2026-04-11T06:30:49.861Z</time></trkpt><trkpt lat="40.9971583" lon="14.0201367"><ele>-1.0</ele><time>2026-04-11T06:30:50.86Z</time></trkpt><trkpt lat="40.9971383" lon="14.02004"><ele>-0.9999999999999999</ele><time>2026-04-11T06:30:51.861Z</time></trkpt><trkpt lat="40.9971167" lon="14.0199483"><ele>-1.0</ele><time>2026-04-11T06:30:52.858Z</time></trkpt><trkpt lat="40.9970933" lon="14.0198567"><ele>-1.0</ele><time>2026-04-11T06:30:53.862Z</time></trkpt><trkpt lat="40.9970717" lon="14.019765"><ele>-0.9999999999999999</ele><time>2026-04-11T06:30:54.858Z</time></trkpt><trkpt lat="40.9970483" lon="14.0196733"><ele>-1.0</ele><time>2026-04-11T06:30:55.859Z</time></trkpt><trkpt lat="40.9970233" lon="14.019585"><ele>-1.0</ele><time>2026-04-11T06:30:56.86Z</time></trkpt><trkpt lat="40.997" lon="14.019495"><ele>-1.1428571428571428</ele><time>2026-04-11T06:30:57.859Z</time></trkpt><trkpt lat="40.996975" lon="14.0194033"><ele>-1.2857142857142856</ele><time>2026-04-11T06:30:58.859Z</time></trkpt><trkpt lat="40.9969517" lon="14.01931"><ele>-1.4285714285714284</ele><time>2026-04-11T06:30:59.86Z</time></trkpt><trkpt lat="40.9969267" lon="14.0192167"><ele>-1.5714285714285714</ele><time>2026-04-11T06:31:00.86Z</time></trkpt><trkpt lat="40.9969017" lon="14.01913"><ele>-1.714285714285714</ele><time>2026-04-11T06:31:01.861Z</time></trkpt><trkpt lat="40.9968783" lon="14.01904"><ele>-1.857142857142857</ele><time>2026-04-11T06:31:02.859Z</time></trkpt><trkpt lat="40.9968567" lon="14.0189483"><ele>-2.0</ele><time>2026-04-11T06:31:03.859Z</time></trkpt><trkpt lat="40.9968317" lon="14.0188567"><ele>-1.9999999999999998</ele><time>2026-04-11T06:31:04.858Z</time></trkpt><trkpt lat="40.9968083" lon="14.0187617"><ele>-2.0</ele><time>2026-04-11T06:31:05.859Z</time></trkpt><trkpt lat="40.9967833" lon="14.018665"><ele>-2.0</ele><time>2026-04-11T06:31:06.859Z</time></trkpt><trkpt lat="40.99676" lon="14.0185667"><ele>-2.0</ele><time>2026-04-11T06:31:07.859Z</time></trkpt><trkpt lat="40.9967367" lon="14.01847"><ele>-1.9999999999999998</ele><time>2026-04-11T06:31:08.858Z</time></trkpt><trkpt lat="40.9967133" lon="14.018375"><ele>-2.0</ele><time>2026-04-11T06:31:09.861Z</time></trkpt><trkpt lat="40.9966883" lon="14.0182783"><ele>-1.6666666666666665</ele><time>2026-04-11T06:31:10.859Z</time></trkpt><trkpt lat="40.996665" lon="14.01818"><ele>-1.3333333333333333</ele><time>2026-04-11T06:31:11.86Z</time></trkpt><trkpt lat="40.9966417" lon="14.0180817"><ele>-1.0</ele><time>2026-04-11T06:31:12.859Z</time></trkpt><trkpt lat="40.9966167" lon="14.0179833"><ele>-0.6666666666666666</ele><time>2026-04-11T06:31:13.861Z</time></trkpt><trkpt lat="40.9965917" lon="14.0178867"><ele>-0.3333333333333333</ele><time>2026-04-11T06:31:14.859Z</time></trkpt><trkpt lat="40.9965667" lon="14.0177933"><ele>0.0</ele><time>2026-04-11T06:31:15.858Z</time></trkpt><trkpt lat="40.9965417" lon="14.0176983"><ele>0.0</ele><time>2026-04-11T06:31:16.859Z</time></trkpt><trkpt lat="40.9965183" lon="14.0176017"><ele>0.0</ele><time>2026-04-11T06:31:17.858Z</time></trkpt><trkpt lat="40.996495" lon="14.0175083"><ele>0.0</ele><time>2026-04-11T06:31:18.858Z</time></trkpt><trkpt lat="40.9964717" lon="14.017415"><ele>0.0</ele><time>2026-04-11T06:31:19.861Z</time></trkpt><trkpt lat="40.9964467" lon="14.01732"><ele>0.0</ele><time>2026-04-11T06:31:20.859Z</time></trkpt><trkpt lat="40.99642" lon="14.017225"><ele>0.0</ele><time>2026-04-11T06:31:21.86Z</time></trkpt><trkpt lat="40.996395" lon="14.0171283"><ele>-0.2857142857142857</ele><time>2026-04-11T06:31:22.859Z</time></trkpt><trkpt lat="40.99637" lon="14.017035"><ele>-0.5714285714285714</ele><time>2026-04-11T06:31:23.86Z</time></trkpt><trkpt lat="40.996345" lon="14.0169417"><ele>-0.8571428571428571</ele><time>2026-04-11T06:31:24.859Z</time></trkpt><trkpt lat="40.9963233" lon="14.0168467"><ele>-1.1428571428571428</ele><time>2026-04-11T06:31:25.861Z</time></trkpt><trkpt lat="40.9962983" lon="14.01675"><ele>-1.4285714285714284</ele><time>2026-04-11T06:31:26.861Z</time></trkpt><trkpt lat="40.9962783" lon="14.0166567"><ele>-1.7142857142857142</ele><time>2026-04-11T06:31:27.857Z</time></trkpt><trkpt lat="40.996255" lon="14.016565"><ele>-2.0</ele><time>2026-04-11T06:31:28.86Z</time></trkpt><trkpt lat="40.99623" lon="14.0164733"><ele>-1.9999999999999998</ele><time>2026-04-11T06:31:29.861Z</time></trkpt><trkpt lat="40.996205" lon="14.01638"><ele>-2.0</ele><time>2026-04-11T06:31:30.86Z</time></trkpt><trkpt lat="40.99618" lon="14.0162867"><ele>-2.0</ele><time>2026-04-11T06:31:31.859Z</time></trkpt><trkpt lat="40.9961533" lon="14.0161933"><ele>-2.0</ele><time>2026-04-11T06:31:32.861Z</time></trkpt><trkpt lat="40.9961283" lon="14.0161"><ele>-1.9999999999999998</ele><time>2026-04-11T06:31:33.858Z</time></trkpt><trkpt lat="40.9961" lon="14.016005"><ele>-2.0</ele><time>2026-04-11T06:31:34.859Z</time></trkpt><trkpt lat="40.9960733" lon="14.01591"><ele>-2.142857142857143</ele><time>2026-04-11T06:31:35.861Z</time></trkpt><trkpt lat="40.9960467" lon="14.015815"><ele>-2.2857142857142856</ele><time>2026-04-11T06:31:36.861Z</time></trkpt><trkpt lat="40.99602" lon="14.015725"><ele>-2.4285714285714284</ele><time>2026-04-11T06:31:37.859Z</time></trkpt><trkpt lat="40.995995" lon="14.015635"><ele>-2.571428571428571</ele><time>2026-04-11T06:31:38.86Z</time></trkpt><trkpt lat="40.9959717" lon="14.0155467"><ele>-2.7142857142857144</ele><time>2026-04-11T06:31:39.86Z</time></trkpt><trkpt lat="40.9959483" lon="14.015455"><ele>-2.8571428571428568</ele><time>2026-04-11T06:31:40.861Z</time></trkpt><trkpt lat="40.9959233" lon="14.0153667"><ele>-3.0</ele><time>2026-04-11T06:31:41.858Z</time></trkpt><trkpt lat="40.9958983" lon="14.0152783"><ele>-2.9999999999999996</ele><time>2026-04-11T06:31:42.858Z</time></trkpt><trkpt lat="40.9958733" lon="14.0151883"><ele>-3.0</ele><time>2026-04-11T06:31:43.86Z</time></trkpt><trkpt lat="40.99585" lon="14.0150983"><ele>-3.0</ele><time>2026-04-11T06:31:44.859Z</time></trkpt><trkpt lat="40.9958267" lon="14.0150067"><ele>-3.0</ele><time>2026-04-11T06:31:45.859Z</time></trkpt><trkpt lat="40.9958033" lon="14.0149183"><ele>-3.0</ele><time>2026-04-11T06:31:46.86Z</time></trkpt><trkpt lat="40.99578" lon="14.01483"><ele>-2.9999999999999996</ele><time>2026-04-11T06:31:47.859Z</time></trkpt><trkpt lat="40.9957567" lon="14.0147433"><ele>-3.0</ele><time>2026-04-11T06:31:48.861Z</time></trkpt><trkpt lat="40.9957317" lon="14.014655"><ele>-2.8571428571428568</ele><time>2026-04-11T06:31:49.862Z</time></trkpt><trkpt lat="40.9957067" lon="14.0145683"><ele>-2.7142857142857144</ele><time>2026-04-11T06:31:50.858Z</time></trkpt><trkpt lat="40.9956833" lon="14.0144833"><ele>-2.571428571428571</ele><time>2026-04-11T06:31:51.861Z</time></trkpt><trkpt lat="40.9956617" lon="14.014395"><ele>-2.4285714285714284</ele><time>2026-04-11T06:31:52.859Z</time></trkpt><trkpt lat="40.99564" lon="14.01431"><ele>-2.2857142857142856</ele><time>2026-04-11T06:31:53.859Z</time></trkpt><trkpt lat="40.9956183" lon="14.014225"><ele>-2.142857142857143</ele><time>2026-04-11T06:31:54.862Z</time></trkpt><trkpt lat="40.9955967" lon="14.0141417"><ele>-2.0</ele><time>2026-04-11T06:31:55.861Z</time></trkpt><trkpt lat="40.995575" lon="14.0140567"><ele>-1.857142857142857</ele><time>2026-04-11T06:31:56.861Z</time></trkpt><trkpt lat="40.9955533" lon="14.0139733"><ele>-1.714285714285714</ele><time>2026-04-11T06:31:57.858Z</time></trkpt><trkpt lat="40.99553" lon="14.01389"><ele>-1.5714285714285714</ele><time>2026-04-11T06:31:58.859Z</time></trkpt><trkpt lat="40.9955033" lon="14.0138"><ele>-1.4285714285714284</ele><time>2026-04-11T06:31:59.861Z</time></trkpt><trkpt lat="40.9954817" lon="14.0137133"><ele>-1.2857142857142856</ele><time>2026-04-11T06:32:00.861Z</time></trkpt><trkpt lat="40.99546" lon="14.0136283"><ele>-1.1428571428571428</ele><time>2026-04-11T06:32:01.858Z</time></trkpt><trkpt lat="40.995435" lon="14.01354"><ele>-1.0</ele><time>2026-04-11T06:32:02.86Z</time></trkpt><trkpt lat="40.9954117" lon="14.0134533"><ele>-1.0</ele><time>2026-04-11T06:32:03.857Z</time></trkpt><trkpt lat="40.9953867" lon="14.013365"><ele>-0.9999999999999999</ele><time>2026-04-11T06:32:04.859Z</time></trkpt><trkpt lat="40.9953617" lon="14.0132717"><ele>-1.0</ele><time>2026-04-11T06:32:05.862Z</time></trkpt><trkpt lat="40.9953367" lon="14.0131833"><ele>-1.0</ele><time>2026-04-11T06:32:06.86Z</time></trkpt><trkpt lat="40.9953083" lon="14.0130933"><ele>-0.9999999999999999</ele><time>2026-04-11T06:32:07.86Z</time></trkpt><trkpt lat="40.99528" lon="14.0130017"><ele>-1.0</ele><time>2026-04-11T06:32:08.859Z</time></trkpt><trkpt lat="40.995245" lon="14.0129133"><ele>-1.0</ele><time>2026-04-11T06:32:09.859Z</time></trkpt><trkpt lat="40.9952133" lon="14.0128267"><ele>-0.8571428571428571</ele><time>2026-04-11T06:32:10.86Z</time></trkpt><trkpt lat="40.99519" lon="14.0127333"><ele>-0.7142857142857142</ele><time>2026-04-11T06:32:11.859Z</time></trkpt><trkpt lat="40.9951683" lon="14.012645"><ele>-0.5714285714285714</ele><time>2026-04-11T06:32:12.86Z</time></trkpt><trkpt lat="40.99514" lon="14.012555"><ele>-0.42857142857142855</ele><time>2026-04-11T06:32:13.86Z</time></trkpt><trkpt lat="40.995115" lon="14.012465"><ele>-0.2857142857142857</ele><time>2026-04-11T06:32:14.858Z</time></trkpt><trkpt lat="40.995095" lon="14.0123683"><ele>-0.14285714285714285</ele><time>2026-04-11T06:32:15.858Z</time></trkpt><trkpt lat="40.9950717" lon="14.012275"><ele>0.0</ele><time>2026-04-11T06:32:16.859Z</time></trkpt><trkpt lat="40.99505" lon="14.01218"><ele>-0.2857142857142857</ele><time>2026-04-11T06:32:17.859Z</time></trkpt><trkpt lat="40.9950267" lon="14.01209"><ele>-0.5714285714285714</ele><time>2026-04-11T06:32:18.861Z</time></trkpt><trkpt lat="40.9950033" lon="14.0120017"><ele>-0.8571428571428571</ele><time>2026-04-11T06:32:19.861Z</time></trkpt><trkpt lat="40.99498" lon="14.0119067"><ele>-1.1428571428571428</ele><time>2026-04-11T06:32:20.861Z</time></trkpt><trkpt lat="40.99496" lon="14.0118167"><ele>-1.4285714285714284</ele><time>2026-04-11T06:32:21.861Z</time></trkpt><trkpt lat="40.9949333" lon="14.0117317"><ele>-1.7142857142857142</ele><time>2026-04-11T06:32:22.861Z</time></trkpt><trkpt lat="40.9949083" lon="14.0116483"><ele>-2.0</ele><time>2026-04-11T06:32:23.86Z</time></trkpt><trkpt lat="40.9948767" lon="14.0115017"><ele>-2.0</ele><time>2026-04-11T06:32:25.86Z</time></trkpt><trkpt lat="40.994845" lon="14.0113617"><ele>-2.0</ele><time>2026-04-11T06:32:27.858Z</time></trkpt><trkpt lat="40.9948167" lon="14.0112233"><ele>-2.0</ele><time>2026-04-11T06:32:29.86Z</time></trkpt><trkpt lat="40.9947783" lon="14.0110817"><ele>-2.0</ele><time>2026-04-11T06:32:31.86Z</time></trkpt><trkpt lat="40.9947333" lon="14.010935"><ele>-2.0</ele><time>2026-04-11T06:32:33.858Z</time></trkpt><trkpt lat="40.99471" lon="14.0108567"><ele>-1.9999999999999998</ele><time>2026-04-11T06:32:34.858Z</time></trkpt><trkpt lat="40.994685" lon="14.0107767"><ele>-2.0</ele><time>2026-04-11T06:32:35.861Z</time></trkpt><trkpt lat="40.99466" lon="14.0106967"><ele>-2.0</ele><time>2026-04-11T06:32:36.861Z</time></trkpt><trkpt lat="40.9946333" lon="14.0106133"><ele>-1.9999999999999998</ele><time>2026-04-11T06:32:37.858Z</time></trkpt><trkpt lat="40.9946117" lon="14.0105283"><ele>-2.0</ele><time>2026-04-11T06:32:38.861Z</time></trkpt><trkpt lat="40.9945883" lon="14.0104417"><ele>-2.0</ele><time>2026-04-11T06:32:39.858Z</time></trkpt><trkpt lat="40.9945667" lon="14.0103583"><ele>-2.0</ele><time>2026-04-11T06:32:40.86Z</time></trkpt><trkpt lat="40.9945433" lon="14.0102733"><ele>-1.9999999999999998</ele><time>2026-04-11T06:32:41.861Z</time></trkpt><trkpt lat="40.9945217" lon="14.010185"><ele>-2.0</ele><time>2026-04-11T06:32:42.858Z</time></trkpt><trkpt lat="40.9944983" lon="14.0100967"><ele>-2.0</ele><time>2026-04-11T06:32:43.859Z</time></trkpt><trkpt lat="40.994475" lon="14.01001"><ele>-1.9999999999999998</ele><time>2026-04-11T06:32:44.859Z</time></trkpt><trkpt lat="40.9944517" lon="14.009925"><ele>-2.0</ele><time>2026-04-11T06:32:45.858Z</time></trkpt><trkpt lat="40.9944283" lon="14.0098383"><ele>-2.0</ele><time>2026-04-11T06:32:46.86Z</time></trkpt><trkpt lat="40.994405" lon="14.009755"><ele>-2.0</ele><time>2026-04-11T06:32:47.86Z</time></trkpt><trkpt lat="40.9943833" lon="14.0096683"><ele>-1.9999999999999998</ele><time>2026-04-11T06:32:48.858Z</time></trkpt><trkpt lat="40.99436" lon="14.0095817"><ele>-2.0</ele><time>2026-04-11T06:32:49.859Z</time></trkpt><trkpt lat="40.9943383" lon="14.0094967"><ele>-2.0</ele><time>2026-04-11T06:32:50.859Z</time></trkpt><trkpt lat="40.99431" lon="14.00942"><ele>-1.9999999999999998</ele><time>2026-04-11T06:32:51.86Z</time></trkpt><trkpt lat="40.99429" lon="14.009335"><ele>-2.0</ele><time>2026-04-11T06:32:52.859Z</time></trkpt><trkpt lat="40.994265" lon="14.009245"><ele>-2.0</ele><time>2026-04-11T06:32:53.86Z</time></trkpt><trkpt lat="40.9942433" lon="14.0091567"><ele>-2.0</ele><time>2026-04-11T06:32:54.859Z</time></trkpt><trkpt lat="40.9942217" lon="14.0090717"><ele>-1.9999999999999998</ele><time>2026-04-11T06:32:55.858Z</time></trkpt><trkpt lat="40.9941983" lon="14.0089833"><ele>-2.0</ele><time>2026-04-11T06:32:56.859Z</time></trkpt><trkpt lat="40.9941767" lon="14.0088917"><ele>-2.0</ele><time>2026-04-11T06:32:57.858Z</time></trkpt><trkpt lat="40.9941517" lon="14.0088017"><ele>-1.9999999999999998</ele><time>2026-04-11T06:32:58.862Z</time></trkpt><trkpt lat="40.99413" lon="14.0087067"><ele>-2.0</ele><time>2026-04-11T06:32:59.861Z</time></trkpt><trkpt lat="40.9941067" lon="14.0086183"><ele>-2.0</ele><time>2026-04-11T06:33:00.86Z</time></trkpt><trkpt lat="40.9940833" lon="14.0085267"><ele>-2.0</ele><time>2026-04-11T06:33:01.859Z</time></trkpt><trkpt lat="40.9940583" lon="14.008435"><ele>-1.9999999999999998</ele><time>2026-04-11T06:33:02.857Z</time></trkpt><trkpt lat="40.994035" lon="14.0083483"><ele>-2.0</ele><time>2026-04-11T06:33:03.858Z</time></trkpt><trkpt lat="40.99401" lon="14.00826"><ele>-2.0</ele><time>2026-04-11T06:33:04.86Z</time></trkpt><trkpt lat="40.9939867" lon="14.00817"><ele>-1.9999999999999998</ele><time>2026-04-11T06:33:05.856Z</time></trkpt><trkpt lat="40.99396" lon="14.008075"><ele>-2.0</ele><time>2026-04-11T06:33:06.857Z</time></trkpt><trkpt lat="40.9939317" lon="14.0079833"><ele>-2.0</ele><time>2026-04-11T06:33:07.86Z</time></trkpt><trkpt lat="40.9939083" lon="14.0078933"><ele>-2.0</ele><time>2026-04-11T06:33:08.861Z</time></trkpt><trkpt lat="40.993885" lon="14.0078"><ele>-1.9999999999999998</ele><time>2026-04-11T06:33:09.859Z</time></trkpt><trkpt lat="40.99386" lon="14.0077083"><ele>-2.0</ele><time>2026-04-11T06:33:10.862Z</time></trkpt><trkpt lat="40.993835" lon="14.0076167"><ele>-2.0</ele><time>2026-04-11T06:33:11.86Z</time></trkpt><trkpt lat="40.99381" lon="14.0075267"><ele>-1.9999999999999998</ele><time>2026-04-11T06:33:12.861Z</time></trkpt><trkpt lat="40.993785" lon="14.00744"><ele>-2.0</ele><time>2026-04-11T06:33:13.861Z</time></trkpt><trkpt lat="40.9937617" lon="14.0073533"><ele>-2.0</ele><time>2026-04-11T06:33:14.861Z</time></trkpt><trkpt lat="40.99374" lon="14.0072667"><ele>-2.0</ele><time>2026-04-11T06:33:15.859Z</time></trkpt><trkpt lat="40.9937167" lon="14.0071783"><ele>-1.9999999999999998</ele><time>2026-04-11T06:33:16.86Z</time></trkpt><trkpt lat="40.9936917" lon="14.0070933"><ele>-2.0</ele><time>2026-04-11T06:33:17.863Z</time></trkpt><trkpt lat="40.9936667" lon="14.007005"><ele>-2.0</ele><time>2026-04-11T06:33:18.861Z</time></trkpt><trkpt lat="40.9936417" lon="14.0069167"><ele>-1.9999999999999998</ele><time>2026-04-11T06:33:19.86Z</time></trkpt><trkpt lat="40.99362" lon="14.00683"><ele>-2.0</ele><time>2026-04-11T06:33:20.86Z</time></trkpt><trkpt lat="40.9935967" lon="14.00674"><ele>-2.0</ele><time>2026-04-11T06:33:21.858Z</time></trkpt><trkpt lat="40.9935733" lon="14.0066567"><ele>-1.857142857142857</ele><time>2026-04-11T06:33:22.862Z</time></trkpt><trkpt lat="40.99355" lon="14.0065683"><ele>-1.714285714285714</ele><time>2026-04-11T06:33:23.861Z</time></trkpt><trkpt lat="40.9935267" lon="14.0064817"><ele>-1.5714285714285714</ele><time>2026-04-11T06:33:24.859Z</time></trkpt><trkpt lat="40.9935033" lon="14.006395"><ele>-1.4285714285714284</ele><time>2026-04-11T06:33:25.862Z</time></trkpt><trkpt lat="40.9934767" lon="14.0063083"><ele>-1.2857142857142856</ele><time>2026-04-11T06:33:26.859Z</time></trkpt><trkpt lat="40.9934517" lon="14.006215"><ele>-1.1428571428571428</ele><time>2026-04-11T06:33:27.861Z</time></trkpt><trkpt lat="40.993425" lon="14.0061267"><ele>-1.0</ele><time>2026-04-11T06:33:28.859Z</time></trkpt><trkpt lat="40.9933967" lon="14.0060383"><ele>-1.0</ele><time>2026-04-11T06:33:29.86Z</time></trkpt><trkpt lat="40.99337" lon="14.0059533"><ele>-0.9999999999999999</ele><time>2026-04-11T06:33:30.861Z</time></trkpt><trkpt lat="40.9933433" lon="14.0058633"><ele>-1.0</ele><time>2026-04-11T06:33:31.858Z</time></trkpt><trkpt lat="40.99332" lon="14.0057717"><ele>-1.0</ele><time>2026-04-11T06:33:32.86Z</time></trkpt><trkpt lat="40.9932983" lon="14.0056833"><ele>-0.9999999999999999</ele><time>2026-04-11T06:33:33.861Z</time></trkpt><trkpt lat="40.9932733" lon="14.0055967"><ele>-1.0</ele><time>2026-04-11T06:33:34.861Z</time></trkpt><trkpt lat="40.99325" lon="14.0055067"><ele>-1.0</ele><time>2026-04-11T06:33:35.86Z</time></trkpt><trkpt lat="40.993225" lon="14.0054117"><ele>-1.0</ele><time>2026-04-11T06:33:36.861Z</time></trkpt><trkpt lat="40.9932" lon="14.0053217"><ele>-0.9999999999999999</ele><time>2026-04-11T06:33:37.858Z</time></trkpt><trkpt lat="40.99317" lon="14.0052333"><ele>-1.0</ele><time>2026-04-11T06:33:38.86Z</time></trkpt><trkpt lat="40.9931417" lon="14.0051367"><ele>-1.0</ele><time>2026-04-11T06:33:39.861Z</time></trkpt><trkpt lat="40.9931233" lon="14.00504"><ele>-0.9999999999999999</ele><time>2026-04-11T06:33:40.86Z</time></trkpt><trkpt lat="40.9931067" lon="14.004945"><ele>-1.0</ele><time>2026-04-11T06:33:41.861Z</time></trkpt><trkpt lat="40.993085" lon="14.0048533"><ele>-1.0</ele><time>2026-04-11T06:33:42.861Z</time></trkpt><trkpt lat="40.9930633" lon="14.00476"><ele>-1.0</ele><time>2026-04-11T06:33:43.859Z</time></trkpt><trkpt lat="40.99304" lon="14.00467"><ele>-0.9999999999999999</ele><time>2026-04-11T06:33:44.861Z</time></trkpt><trkpt lat="40.9930167" lon="14.0045783"><ele>-1.0</ele><time>2026-04-11T06:33:45.861Z</time></trkpt><trkpt lat="40.9929933" lon="14.004485"><ele>-1.0</ele><time>2026-04-11T06:33:46.859Z</time></trkpt><trkpt lat="40.9929717" lon="14.0043933"><ele>-0.9999999999999999</ele><time>2026-04-11T06:33:47.861Z</time></trkpt><trkpt lat="40.9929483" lon="14.0043017"><ele>-1.0</ele><time>2026-04-11T06:33:48.86Z</time></trkpt><trkpt lat="40.992925" lon="14.00421"><ele>-1.0</ele><time>2026-04-11T06:33:49.86Z</time></trkpt><trkpt lat="40.9929033" lon="14.0041183"><ele>-1.0</ele><time>2026-04-11T06:33:50.861Z</time></trkpt><trkpt lat="40.9928767" lon="14.0040267"><ele>-0.9999999999999999</ele><time>2026-04-11T06:33:51.858Z</time></trkpt><trkpt lat="40.99285" lon="14.0039367"><ele>-1.0</ele><time>2026-04-11T06:33:52.86Z</time></trkpt><trkpt lat="40.992825" lon="14.0038467"><ele>-1.0</ele><time>2026-04-11T06:33:53.862Z</time></trkpt><trkpt lat="40.9928017" lon="14.0037567"><ele>-0.9999999999999999</ele><time>2026-04-11T06:33:54.861Z</time></trkpt><trkpt lat="40.9927767" lon="14.0036683"><ele>-1.0</ele><time>2026-04-11T06:33:55.862Z</time></trkpt><trkpt lat="40.9927517" lon="14.0035767"><ele>-1.0</ele><time>2026-04-11T06:33:56.858Z</time></trkpt><trkpt lat="40.9927283" lon="14.003485"><ele>-1.0</ele><time>2026-04-11T06:33:57.861Z</time></trkpt><trkpt lat="40.992705" lon="14.00339"><ele>-0.9999999999999999</ele><time>2026-04-11T06:33:58.86Z</time></trkpt><trkpt lat="40.9926817" lon="14.0032983"><ele>-1.0</ele><time>2026-04-11T06:33:59.86Z</time></trkpt><trkpt lat="40.992655" lon="14.0032067"><ele>-1.0</ele><time>2026-04-11T06:34:00.861Z</time></trkpt><trkpt lat="40.9926283" lon="14.0031183"><ele>-0.9999999999999999</ele><time>2026-04-11T06:34:01.861Z</time></trkpt><trkpt lat="40.9926017" lon="14.00303"><ele>-1.0</ele><time>2026-04-11T06:34:02.858Z</time></trkpt><trkpt lat="40.992575" lon="14.00294"><ele>-1.0</ele><time>2026-04-11T06:34:03.861Z</time></trkpt><trkpt lat="40.992555" lon="14.0028483"><ele>-1.1428571428571428</ele><time>2026-04-11T06:34:04.861Z</time></trkpt><trkpt lat="40.9925367" lon="14.002755"><ele>-1.2857142857142856</ele><time>2026-04-11T06:34:05.861Z</time></trkpt><trkpt lat="40.9925117" lon="14.002665"><ele>-1.4285714285714284</ele><time>2026-04-11T06:34:06.859Z</time></trkpt><trkpt lat="40.9924883" lon="14.0025717"><ele>-1.5714285714285714</ele><time>2026-04-11T06:34:07.862Z</time></trkpt><trkpt lat="40.9924617" lon="14.0024783"><ele>-1.714285714285714</ele><time>2026-04-11T06:34:08.861Z</time></trkpt><trkpt lat="40.9924367" lon="14.0023867"><ele>-1.857142857142857</ele><time>2026-04-11T06:34:09.859Z</time></trkpt><trkpt lat="40.9924083" lon="14.0022983"><ele>-2.0</ele><time>2026-04-11T06:34:10.86Z</time></trkpt><trkpt lat="40.9923817" lon="14.0022083"><ele>-2.0</ele><time>2026-04-11T06:34:11.858Z</time></trkpt><trkpt lat="40.992355" lon="14.002125"><ele>-1.9999999999999998</ele><time>2026-04-11T06:34:12.859Z</time></trkpt><trkpt lat="40.99233" lon="14.0020433"><ele>-2.0</ele><time>2026-04-11T06:34:13.859Z</time></trkpt><trkpt lat="40.9923083" lon="14.0019583"><ele>-2.0</ele><time>2026-04-11T06:34:14.859Z</time></trkpt><trkpt lat="40.9922867" lon="14.0018667"><ele>-1.9999999999999998</ele><time>2026-04-11T06:34:15.861Z</time></trkpt><trkpt lat="40.9922667" lon="14.0017783"><ele>-2.0</ele><time>2026-04-11T06:34:16.859Z</time></trkpt><trkpt lat="40.9922433" lon="14.0016917"><ele>-2.0</ele><time>2026-04-11T06:34:17.86Z</time></trkpt><trkpt lat="40.99222" lon="14.0016033"><ele>-2.0</ele><time>2026-04-11T06:34:18.859Z</time></trkpt><trkpt lat="40.9921967" lon="14.0015183"><ele>-1.9999999999999998</ele><time>2026-04-11T06:34:19.86Z</time></trkpt><trkpt lat="40.9921733" lon="14.0014367"><ele>-2.0</ele><time>2026-04-11T06:34:20.86Z</time></trkpt><trkpt lat="40.9921517" lon="14.0013517"><ele>-2.0</ele><time>2026-04-11T06:34:21.861Z</time></trkpt><trkpt lat="40.99213" lon="14.0012667"><ele>-1.9999999999999998</ele><time>2026-04-11T06:34:22.858Z</time></trkpt><trkpt lat="40.9921083" lon="14.0011817"><ele>-2.0</ele><time>2026-04-11T06:34:23.861Z</time></trkpt><trkpt lat="40.9920833" lon="14.0010967"><ele>-2.0</ele><time>2026-04-11T06:34:24.859Z</time></trkpt><trkpt lat="40.9920583" lon="14.0010117"><ele>-2.0</ele><time>2026-04-11T06:34:25.861Z</time></trkpt><trkpt lat="40.9920333" lon="14.0009267"><ele>-1.9999999999999998</ele><time>2026-04-11T06:34:26.861Z</time></trkpt><trkpt lat="40.9920083" lon="14.0008417"><ele>-2.0</ele><time>2026-04-11T06:34:27.861Z</time></trkpt><trkpt lat="40.9919867" lon="14.0007517"><ele>-2.0</ele><time>2026-04-11T06:34:28.861Z</time></trkpt><trkpt lat="40.9919633" lon="14.0006633"><ele>-1.9999999999999998</ele><time>2026-04-11T06:34:29.861Z</time></trkpt><trkpt lat="40.99194" lon="14.000575"><ele>-2.0</ele><time>2026-04-11T06:34:30.857Z</time></trkpt><trkpt lat="40.9919183" lon="14.000485"><ele>-2.0</ele><time>2026-04-11T06:34:31.861Z</time></trkpt><trkpt lat="40.991895" lon="14.0003967"><ele>-2.142857142857143</ele><time>2026-04-11T06:34:32.858Z</time></trkpt><trkpt lat="40.99187" lon="14.000305"><ele>-2.2857142857142856</ele><time>2026-04-11T06:34:33.86Z</time></trkpt><trkpt lat="40.991845" lon="14.0002167"><ele>-2.4285714285714284</ele><time>2026-04-11T06:34:34.86Z</time></trkpt><trkpt lat="40.9918217" lon="14.00013"><ele>-2.571428571428571</ele><time>2026-04-11T06:34:35.86Z</time></trkpt><trkpt lat="40.9917983" lon="14.0000383"><ele>-2.7142857142857144</ele><time>2026-04-11T06:34:36.86Z</time></trkpt><trkpt lat="40.991775" lon="13.9999533"><ele>-2.8571428571428568</ele><time>2026-04-11T06:34:37.862Z</time></trkpt><trkpt lat="40.99175" lon="13.999865"><ele>-3.0</ele><time>2026-04-11T06:34:38.857Z</time></trkpt><trkpt lat="40.9917267" lon="13.9997733"><ele>-2.9999999999999996</ele><time>2026-04-11T06:34:39.86Z</time></trkpt><trkpt lat="40.9917033" lon="13.9996833"><ele>-3.0</ele><time>2026-04-11T06:34:40.861Z</time></trkpt><trkpt lat="40.99168" lon="13.9995933"><ele>-3.0</ele><time>2026-04-11T06:34:41.86Z</time></trkpt><trkpt lat="40.9916583" lon="13.9995"><ele>-3.0</ele><time>2026-04-11T06:34:42.862Z</time></trkpt><trkpt lat="40.9916317" lon="13.999405"><ele>-3.0</ele><time>2026-04-11T06:34:43.859Z</time></trkpt><trkpt lat="40.9916083" lon="13.9993133"><ele>-2.9999999999999996</ele><time>2026-04-11T06:34:44.86Z</time></trkpt><trkpt lat="40.9915817" lon="13.9992233"><ele>-3.0</ele><time>2026-04-11T06:34:45.861Z</time></trkpt><trkpt lat="40.991555" lon="13.9991317"><ele>-2.714285714285714</ele><time>2026-04-11T06:34:46.86Z</time></trkpt><trkpt lat="40.99153" lon="13.99904"><ele>-2.4285714285714284</ele><time>2026-04-11T06:34:47.86Z</time></trkpt><trkpt lat="40.991505" lon="13.9989517"><ele>-2.142857142857143</ele><time>2026-04-11T06:34:48.86Z</time></trkpt><trkpt lat="40.99148" lon="13.99886"><ele>-1.857142857142857</ele><time>2026-04-11T06:34:49.86Z</time></trkpt><trkpt lat="40.9914567" lon="13.9987667"><ele>-1.5714285714285712</ele><time>2026-04-11T06:34:50.859Z</time></trkpt><trkpt lat="40.9914333" lon="13.9986717"><ele>-1.2857142857142856</ele><time>2026-04-11T06:34:51.858Z</time></trkpt><trkpt lat="40.99141" lon="13.9985817"><ele>-1.0</ele><time>2026-04-11T06:34:52.86Z</time></trkpt><trkpt lat="40.9913867" lon="13.99849"><ele>-1.0</ele><time>2026-04-11T06:34:53.86Z</time></trkpt><trkpt lat="40.9913617" lon="13.9983967"><ele>-0.9999999999999999</ele><time>2026-04-11T06:34:54.86Z</time></trkpt><trkpt lat="40.991335" lon="13.9983067"><ele>-1.0</ele><time>2026-04-11T06:34:55.86Z</time></trkpt><trkpt lat="40.9913117" lon="13.9982167"><ele>-1.0</ele><time>2026-04-11T06:34:56.86Z</time></trkpt><trkpt lat="40.9912883" lon="13.9981267"><ele>-0.9999999999999999</ele><time>2026-04-11T06:34:57.859Z</time></trkpt><trkpt lat="40.991265" lon="13.9980383"><ele>-1.0</ele><time>2026-04-11T06:34:58.858Z</time></trkpt><trkpt lat="40.99124" lon="13.997945"><ele>-1.0</ele><time>2026-04-11T06:34:59.86Z</time></trkpt><trkpt lat="40.9912117" lon="13.997855"><ele>-1.1428571428571428</ele><time>2026-04-11T06:35:00.86Z</time></trkpt><trkpt lat="40.9911883" lon="13.99777"><ele>-1.2857142857142856</ele><time>2026-04-11T06:35:01.859Z</time></trkpt><trkpt lat="40.99116" lon="13.997685"><ele>-1.4285714285714284</ele><time>2026-04-11T06:35:02.861Z</time></trkpt><trkpt lat="40.991135" lon="13.9975967"><ele>-1.5714285714285714</ele><time>2026-04-11T06:35:03.86Z</time></trkpt><trkpt lat="40.991115" lon="13.9975033"><ele>-1.714285714285714</ele><time>2026-04-11T06:35:04.86Z</time></trkpt><trkpt lat="40.991095" lon="13.99741"><ele>-1.857142857142857</ele><time>2026-04-11T06:35:05.861Z</time></trkpt><trkpt lat="40.9910717" lon="13.9973183"><ele>-2.0</ele><time>2026-04-11T06:35:06.859Z</time></trkpt><trkpt lat="40.9910483" lon="13.9972283"><ele>-2.0</ele><time>2026-04-11T06:35:07.86Z</time></trkpt><trkpt lat="40.9910267" lon="13.9971383"><ele>-1.9999999999999998</ele><time>2026-04-11T06:35:08.861Z</time></trkpt><trkpt lat="40.9910033" lon="13.9970483"><ele>-2.0</ele><time>2026-04-11T06:35:09.86Z</time></trkpt><trkpt lat="40.9909767" lon="13.996965"><ele>-2.0</ele><time>2026-04-11T06:35:10.858Z</time></trkpt><trkpt lat="40.9909517" lon="13.9968783"><ele>-1.9999999999999998</ele><time>2026-04-11T06:35:11.86Z</time></trkpt><trkpt lat="40.9909267" lon="13.996795"><ele>-2.0</ele><time>2026-04-11T06:35:12.861Z</time></trkpt><trkpt lat="40.9909017" lon="13.99671"><ele>-2.0</ele><time>2026-04-11T06:35:13.862Z</time></trkpt><trkpt lat="40.9908783" lon="13.9966217"><ele>-1.7142857142857142</ele><time>2026-04-11T06:35:14.862Z</time></trkpt><trkpt lat="40.990855" lon="13.99653"><ele>-1.4285714285714284</ele><time>2026-04-11T06:35:15.862Z</time></trkpt><trkpt lat="40.9908283" lon="13.9964367"><ele>-1.1428571428571428</ele><time>2026-04-11T06:35:16.86Z</time></trkpt><trkpt lat="40.9908017" lon="13.9963417"><ele>-0.8571428571428571</ele><time>2026-04-11T06:35:17.86Z</time></trkpt><trkpt lat="40.990775" lon="13.9962517"><ele>-0.5714285714285714</ele><time>2026-04-11T06:35:18.86Z</time></trkpt><trkpt lat="40.99075" lon="13.9961567"><ele>-0.2857142857142857</ele><time>2026-04-11T06:35:19.86Z</time></trkpt><trkpt lat="40.9907267" lon="13.996065"><ele>0.0</ele><time>2026-04-11T06:35:20.859Z</time></trkpt><trkpt lat="40.990705" lon="13.995975"><ele>0.0</ele><time>2026-04-11T06:35:21.858Z</time></trkpt><trkpt lat="40.9906817" lon="13.9958917"><ele>0.0</ele><time>2026-04-11T06:35:22.859Z</time></trkpt><trkpt lat="40.9906583" lon="13.9958067"><ele>0.0</ele><time>2026-04-11T06:35:23.861Z</time></trkpt><trkpt lat="40.9906367" lon="13.99572"><ele>0.0</ele><time>2026-04-11T06:35:24.86Z</time></trkpt><trkpt lat="40.99061" lon="13.99563"><ele>0.0</ele><time>2026-04-11T06:35:25.862Z</time></trkpt><trkpt lat="40.9905867" lon="13.995545"><ele>0.0</ele><time>2026-04-11T06:35:26.862Z</time></trkpt><trkpt lat="40.9905667" lon="13.9954583"><ele>0.0</ele><time>2026-04-11T06:35:27.861Z</time></trkpt><trkpt lat="40.9905417" lon="13.9953733"><ele>-0.14285714285714285</ele><time>2026-04-11T06:35:28.861Z</time></trkpt><trkpt lat="40.9905133" lon="13.9952867"><ele>-0.2857142857142857</ele><time>2026-04-11T06:35:29.86Z</time></trkpt><trkpt lat="40.9904867" lon="13.9951983"><ele>-0.42857142857142855</ele><time>2026-04-11T06:35:30.858Z</time></trkpt><trkpt lat="40.9904633" lon="13.9951117"><ele>-0.5714285714285714</ele><time>2026-04-11T06:35:31.861Z</time></trkpt><trkpt lat="40.9904383" lon="13.99502"><ele>-0.7142857142857142</ele><time>2026-04-11T06:35:32.861Z</time></trkpt><trkpt lat="40.9904167" lon="13.9949283"><ele>-0.8571428571428571</ele><time>2026-04-11T06:35:33.858Z</time></trkpt><trkpt lat="40.9903933" lon="13.9948383"><ele>-1.0</ele><time>2026-04-11T06:35:34.859Z</time></trkpt><trkpt lat="40.9903683" lon="13.99475"><ele>-0.9999999999999999</ele><time>2026-04-11T06:35:35.859Z</time></trkpt><trkpt lat="40.99034" lon="13.9946633"><ele>-1.0</ele><time>2026-04-11T06:35:36.859Z</time></trkpt><trkpt lat="40.9903183" lon="13.9945767"><ele>-1.0</ele><time>2026-04-11T06:35:37.861Z</time></trkpt><trkpt lat="40.9903" lon="13.9944933"><ele>-1.0</ele><time>2026-04-11T06:35:38.861Z</time></trkpt><trkpt lat="40.9902833" lon="13.99441"><ele>-0.9999999999999999</ele><time>2026-04-11T06:35:39.86Z</time></trkpt><trkpt lat="40.990245" lon="13.9942783"><ele>-1.0</ele><time>2026-04-11T06:35:41.859Z</time></trkpt><trkpt lat="40.990215" lon="13.9941583"><ele>-0.4</ele><time>2026-04-11T06:35:43.862Z</time></trkpt><trkpt lat="40.9901817" lon="13.9940167"><ele>0.19999999999999996</ele><time>2026-04-11T06:35:45.86Z</time></trkpt><trkpt lat="40.9901483" lon="13.9938733"><ele>0.8000000000000002</ele><time>2026-04-11T06:35:47.86Z</time></trkpt><trkpt lat="40.9901117" lon="13.9937133"><ele>1.4000000000000001</ele><time>2026-04-11T06:35:49.86Z</time></trkpt><trkpt lat="40.9900883" lon="13.9936333"><ele>2.0</ele><time>2026-04-11T06:35:50.86Z</time></trkpt><trkpt lat="40.9900667" lon="13.9935483"><ele>2.0</ele><time>2026-04-11T06:35:51.859Z</time></trkpt><trkpt lat="40.99004" lon="13.993465"><ele>1.9999999999999998</ele><time>2026-04-11T06:35:52.86Z</time></trkpt><trkpt lat="40.9900117" lon="13.9933817"><ele>2.0</ele><time>2026-04-11T06:35:53.862Z</time></trkpt><trkpt lat="40.9899833" lon="13.9932967"><ele>2.0</ele><time>2026-04-11T06:35:54.86Z</time></trkpt><trkpt lat="40.9899583" lon="13.9932117"><ele>1.9999999999999998</ele><time>2026-04-11T06:35:55.858Z</time></trkpt><trkpt lat="40.989935" lon="13.9931217"><ele>2.0</ele><time>2026-04-11T06:35:56.862Z</time></trkpt><trkpt lat="40.9899117" lon="13.99303"><ele>2.0</ele><time>2026-04-11T06:35:57.861Z</time></trkpt><trkpt lat="40.9898917" lon="13.99294"><ele>2.0</ele><time>2026-04-11T06:35:58.86Z</time></trkpt><trkpt lat="40.9898767" lon="13.9928467"><ele>1.9999999999999998</ele><time>2026-04-11T06:35:59.86Z</time></trkpt><trkpt lat="40.9898633" lon="13.9927567"><ele>2.0</ele><time>2026-04-11T06:36:00.86Z</time></trkpt><trkpt lat="40.989845" lon="13.9926717"><ele>2.0</ele><time>2026-04-11T06:36:01.86Z</time></trkpt><trkpt lat="40.989825" lon="13.992585"><ele>1.9999999999999998</ele><time>2026-04-11T06:36:02.86Z</time></trkpt><trkpt lat="40.9898017" lon="13.992495"><ele>2.0</ele><time>2026-04-11T06:36:03.859Z</time></trkpt><trkpt lat="40.989775" lon="13.992405"><ele>2.0</ele><time>2026-04-11T06:36:04.86Z</time></trkpt><trkpt lat="40.9897467" lon="13.99232"><ele>1.857142857142857</ele><time>2026-04-11T06:36:05.86Z</time></trkpt><trkpt lat="40.9897217" lon="13.9922317"><ele>1.714285714285714</ele><time>2026-04-11T06:36:06.86Z</time></trkpt><trkpt lat="40.9896983" lon="13.9921467"><ele>1.5714285714285714</ele><time>2026-04-11T06:36:07.86Z</time></trkpt><trkpt lat="40.9896767" lon="13.9920633"><ele>1.4285714285714284</ele><time>2026-04-11T06:36:08.86Z</time></trkpt><trkpt lat="40.9896567" lon="13.9919783"><ele>1.2857142857142856</ele><time>2026-04-11T06:36:09.858Z</time></trkpt><trkpt lat="40.9896333" lon="13.9918883"><ele>1.1428571428571428</ele><time>2026-04-11T06:36:10.86Z</time></trkpt><trkpt lat="40.9896117" lon="13.9918033"><ele>1.0</ele><time>2026-04-11T06:36:11.86Z</time></trkpt><trkpt lat="40.9895917" lon="13.9917183"><ele>1.0</ele><time>2026-04-11T06:36:12.859Z</time></trkpt><trkpt lat="40.9895667" lon="13.99163"><ele>0.9999999999999999</ele><time>2026-04-11T06:36:13.86Z</time></trkpt><trkpt lat="40.9895467" lon="13.9915383"><ele>1.0</ele><time>2026-04-11T06:36:14.86Z</time></trkpt><trkpt lat="40.989525" lon="13.9914517"><ele>1.0</ele><time>2026-04-11T06:36:15.86Z</time></trkpt><trkpt lat="40.989495" lon="13.9913667"><ele>0.9999999999999999</ele><time>2026-04-11T06:36:16.858Z</time></trkpt><trkpt lat="40.9894633" lon="13.9912833"><ele>1.0</ele><time>2026-04-11T06:36:17.86Z</time></trkpt><trkpt lat="40.9894367" lon="13.991195"><ele>1.0</ele><time>2026-04-11T06:36:18.86Z</time></trkpt><trkpt lat="40.9894133" lon="13.9911017"><ele>1.0</ele><time>2026-04-11T06:36:19.86Z</time></trkpt><trkpt lat="40.9893883" lon="13.99101"><ele>0.9999999999999999</ele><time>2026-04-11T06:36:20.86Z</time></trkpt><trkpt lat="40.9893633" lon="13.9909217"><ele>1.0</ele><time>2026-04-11T06:36:21.859Z</time></trkpt><trkpt lat="40.98934" lon="13.9908317"><ele>1.0</ele><time>2026-04-11T06:36:22.861Z</time></trkpt><trkpt lat="40.9893167" lon="13.9907383"><ele>0.9999999999999999</ele><time>2026-04-11T06:36:23.862Z</time></trkpt><trkpt lat="40.9892933" lon="13.9906483"><ele>1.0</ele><time>2026-04-11T06:36:24.86Z</time></trkpt><trkpt lat="40.98927" lon="13.9905567"><ele>1.0</ele><time>2026-04-11T06:36:25.863Z</time></trkpt><trkpt lat="40.9892483" lon="13.99047"><ele>1.0</ele><time>2026-04-11T06:36:26.862Z</time></trkpt><trkpt lat="40.9892233" lon="13.9903833"><ele>0.9999999999999999</ele><time>2026-04-11T06:36:27.859Z</time></trkpt><trkpt lat="40.9891983" lon="13.990295"><ele>1.0</ele><time>2026-04-11T06:36:28.86Z</time></trkpt><trkpt lat="40.9891733" lon="13.9902067"><ele>1.0</ele><time>2026-04-11T06:36:29.859Z</time></trkpt><trkpt lat="40.98915" lon="13.9901183"><ele>0.9999999999999999</ele><time>2026-04-11T06:36:30.861Z</time></trkpt><trkpt lat="40.989125" lon="13.9900333"><ele>1.0</ele><time>2026-04-11T06:36:31.859Z</time></trkpt><trkpt lat="40.9891" lon="13.9899467"><ele>1.0</ele><time>2026-04-11T06:36:32.859Z</time></trkpt><trkpt lat="40.989075" lon="13.98986"><ele>1.2857142857142856</ele><time>2026-04-11T06:36:33.859Z</time></trkpt><trkpt lat="40.98905" lon="13.989775"><ele>1.5714285714285712</ele><time>2026-04-11T06:36:34.86Z</time></trkpt><trkpt lat="40.9890267" lon="13.9896883"><ele>1.857142857142857</ele><time>2026-04-11T06:36:35.86Z</time></trkpt><trkpt lat="40.9890033" lon="13.9896"><ele>2.142857142857143</ele><time>2026-04-11T06:36:36.859Z</time></trkpt><trkpt lat="40.98898" lon="13.989515"><ele>2.4285714285714284</ele><time>2026-04-11T06:36:37.859Z</time></trkpt><trkpt lat="40.98896" lon="13.9894267"><ele>2.714285714285714</ele><time>2026-04-11T06:36:38.862Z</time></trkpt><trkpt lat="40.9889383" lon="13.98934"><ele>3.0</ele><time>2026-04-11T06:36:39.861Z</time></trkpt><trkpt lat="40.9889167" lon="13.9892533"><ele>3.1428571428571423</ele><time>2026-04-11T06:36:40.861Z</time></trkpt><trkpt lat="40.9888933" lon="13.989165"><ele>3.2857142857142856</ele><time>2026-04-11T06:36:41.86Z</time></trkpt><trkpt lat="40.98887" lon="13.9890767"><ele>3.4285714285714284</ele><time>2026-04-11T06:36:42.861Z</time></trkpt><trkpt lat="40.9888467" lon="13.98899"><ele>3.571428571428571</ele><time>2026-04-11T06:36:43.861Z</time></trkpt><trkpt lat="40.988825" lon="13.9889"><ele>3.714285714285714</ele><time>2026-04-11T06:36:44.861Z</time></trkpt><trkpt lat="40.9888017" lon="13.9888117"><ele>3.8571428571428568</ele><time>2026-04-11T06:36:45.858Z</time></trkpt><trkpt lat="40.9887783" lon="13.988725"><ele>4.0</ele><time>2026-04-11T06:36:46.86Z</time></trkpt><trkpt lat="40.9887533" lon="13.98864"><ele>4.0</ele><time>2026-04-11T06:36:47.859Z</time></trkpt><trkpt lat="40.9887283" lon="13.9885533"><ele>3.9999999999999996</ele><time>2026-04-11T06:36:48.86Z</time></trkpt><trkpt lat="40.988705" lon="13.9884667"><ele>4.0</ele><time>2026-04-11T06:36:49.86Z</time></trkpt><trkpt lat="40.98868" lon="13.9883733"><ele>4.0</ele><time>2026-04-11T06:36:50.86Z</time></trkpt><trkpt lat="40.9886567" lon="13.9882817"><ele>3.9999999999999996</ele><time>2026-04-11T06:36:51.858Z</time></trkpt><trkpt lat="40.9886333" lon="13.98819"><ele>4.0</ele><time>2026-04-11T06:36:52.86Z</time></trkpt><trkpt lat="40.98861" lon="13.9880967"><ele>4.0</ele><time>2026-04-11T06:36:53.859Z</time></trkpt><trkpt lat="40.9885883" lon="13.9880067"><ele>3.8571428571428568</ele><time>2026-04-11T06:36:54.86Z</time></trkpt><trkpt lat="40.9885633" lon="13.9879183"><ele>3.714285714285714</ele><time>2026-04-11T06:36:55.86Z</time></trkpt><trkpt lat="40.9885417" lon="13.9878283"><ele>3.571428571428571</ele><time>2026-04-11T06:36:56.86Z</time></trkpt><trkpt lat="40.9885183" lon="13.9877333"><ele>3.4285714285714284</ele><time>2026-04-11T06:36:57.858Z</time></trkpt><trkpt lat="40.98849" lon="13.987645"><ele>3.2857142857142856</ele><time>2026-04-11T06:36:58.858Z</time></trkpt><trkpt lat="40.988465" lon="13.987555"><ele>3.1428571428571423</ele><time>2026-04-11T06:36:59.86Z</time></trkpt><trkpt lat="40.9884383" lon="13.9874667"><ele>3.0</ele><time>2026-04-11T06:37:00.86Z</time></trkpt><trkpt lat="40.9884133" lon="13.9873783"><ele>2.9999999999999996</ele><time>2026-04-11T06:37:01.86Z</time></trkpt><trkpt lat="40.98839" lon="13.9872883"><ele>3.0</ele><time>2026-04-11T06:37:02.86Z</time></trkpt><trkpt lat="40.988365" lon="13.9872"><ele>3.0</ele><time>2026-04-11T06:37:03.858Z</time></trkpt><trkpt lat="40.9883383" lon="13.98711"><ele>3.0</ele><time>2026-04-11T06:37:04.859Z</time></trkpt><trkpt lat="40.9883117" lon="13.98702"><ele>3.0</ele><time>2026-04-11T06:37:05.859Z</time></trkpt><trkpt lat="40.9882867" lon="13.9869317"><ele>2.9999999999999996</ele><time>2026-04-11T06:37:06.859Z</time></trkpt><trkpt lat="40.9882633" lon="13.9868417"><ele>3.0</ele><time>2026-04-11T06:37:07.86Z</time></trkpt><trkpt lat="40.9882417" lon="13.9867483"><ele>2.9999999999999996</ele><time>2026-04-11T06:37:08.86Z</time></trkpt><trkpt lat="40.98822" lon="13.98666"><ele>3.0</ele><time>2026-04-11T06:37:09.858Z</time></trkpt><trkpt lat="40.9881967" lon="13.9865733"><ele>3.0</ele><time>2026-04-11T06:37:10.858Z</time></trkpt><trkpt lat="40.9881717" lon="13.9864867"><ele>3.0</ele><time>2026-04-11T06:37:11.858Z</time></trkpt><trkpt lat="40.98815" lon="13.9863933"><ele>3.0</ele><time>2026-04-11T06:37:12.86Z</time></trkpt><trkpt lat="40.9881283" lon="13.9862983"><ele>2.9999999999999996</ele><time>2026-04-11T06:37:13.86Z</time></trkpt><trkpt lat="40.988105" lon="13.9862083"><ele>3.0</ele><time>2026-04-11T06:37:14.86Z</time></trkpt><trkpt lat="40.98808" lon="13.98612"><ele>2.9999999999999996</ele><time>2026-04-11T06:37:15.859Z</time></trkpt><trkpt lat="40.9880583" lon="13.9860317"><ele>3.0</ele><time>2026-04-11T06:37:16.86Z</time></trkpt><trkpt lat="40.9880383" lon="13.985945"><ele>3.0</ele><time>2026-04-11T06:37:17.86Z</time></trkpt><trkpt lat="40.9880117" lon="13.9858633"><ele>3.0</ele><time>2026-04-11T06:37:18.861Z</time></trkpt><trkpt lat="40.9879833" lon="13.98578"><ele>3.0</ele><time>2026-04-11T06:37:19.86Z</time></trkpt><trkpt lat="40.9879567" lon="13.9856933"><ele>2.9999999999999996</ele><time>2026-04-11T06:37:20.859Z</time></trkpt><trkpt lat="40.9879317" lon="13.9856033"><ele>3.0</ele><time>2026-04-11T06:37:21.86Z</time></trkpt><trkpt lat="40.98791" lon="13.985515"><ele>2.9999999999999996</ele><time>2026-04-11T06:37:22.86Z</time></trkpt><trkpt lat="40.9878867" lon="13.985425"><ele>3.0</ele><time>2026-04-11T06:37:23.86Z</time></trkpt><trkpt lat="40.9878617" lon="13.9853417"><ele>3.0</ele><time>2026-04-11T06:37:24.86Z</time></trkpt><trkpt lat="40.9878367" lon="13.985255"><ele>3.0</ele><time>2026-04-11T06:37:25.861Z</time></trkpt><trkpt lat="40.987815" lon="13.98517"><ele>3.0</ele><time>2026-04-11T06:37:26.859Z</time></trkpt><trkpt lat="40.9877917" lon="13.98509"><ele>2.9999999999999996</ele><time>2026-04-11T06:37:27.859Z</time></trkpt><trkpt lat="40.98777" lon="13.98501"><ele>3.0</ele><time>2026-04-11T06:37:28.86Z</time></trkpt><trkpt lat="40.98775" lon="13.9849267"><ele>3.1428571428571423</ele><time>2026-04-11T06:37:29.859Z</time></trkpt><trkpt lat="40.9877283" lon="13.984845"><ele>3.2857142857142856</ele><time>2026-04-11T06:37:30.861Z</time></trkpt><trkpt lat="40.9877033" lon="13.984765"><ele>3.4285714285714284</ele><time>2026-04-11T06:37:31.86Z</time></trkpt><trkpt lat="40.9876783" lon="13.98468"><ele>3.571428571428571</ele><time>2026-04-11T06:37:32.86Z</time></trkpt><trkpt lat="40.987655" lon="13.9845967"><ele>3.714285714285714</ele><time>2026-04-11T06:37:33.86Z</time></trkpt><trkpt lat="40.9876317" lon="13.9845117"><ele>3.8571428571428568</ele><time>2026-04-11T06:37:34.861Z</time></trkpt><trkpt lat="40.9876083" lon="13.9844283"><ele>4.0</ele><time>2026-04-11T06:37:35.857Z</time></trkpt><trkpt lat="40.987585" lon="13.9843417"><ele>4.0</ele><time>2026-04-11T06:37:36.859Z</time></trkpt><trkpt lat="40.9875633" lon="13.9842567"><ele>3.9999999999999996</ele><time>2026-04-11T06:37:37.859Z</time></trkpt><trkpt lat="40.98754" lon="13.9841717"><ele>4.0</ele><time>2026-04-11T06:37:38.86Z</time></trkpt><trkpt lat="40.9875167" lon="13.9840883"><ele>4.0</ele><time>2026-04-11T06:37:39.859Z</time></trkpt><trkpt lat="40.9874933" lon="13.9840017"><ele>3.9999999999999996</ele><time>2026-04-11T06:37:40.86Z</time></trkpt><trkpt lat="40.9874683" lon="13.983915"><ele>4.0</ele><time>2026-04-11T06:37:41.861Z</time></trkpt><trkpt lat="40.9874433" lon="13.983825"><ele>4.0</ele><time>2026-04-11T06:37:42.859Z</time></trkpt><trkpt lat="40.9874217" lon="13.9837383"><ele>4.0</ele><time>2026-04-11T06:37:43.86Z</time></trkpt><trkpt lat="40.9874017" lon="13.9836483"><ele>3.9999999999999996</ele><time>2026-04-11T06:37:44.86Z</time></trkpt><trkpt lat="40.9873817" lon="13.98356"><ele>4.0</ele><time>2026-04-11T06:37:45.859Z</time></trkpt><trkpt lat="40.9873617" lon="13.98347"><ele>4.0</ele><time>2026-04-11T06:37:46.86Z</time></trkpt><trkpt lat="40.9873383" lon="13.9833783"><ele>3.9999999999999996</ele><time>2026-04-11T06:37:47.86Z</time></trkpt><trkpt lat="40.9873167" lon="13.9832867"><ele>4.0</ele><time>2026-04-11T06:37:48.86Z</time></trkpt><trkpt lat="40.98729" lon="13.9832"><ele>4.0</ele><time>2026-04-11T06:37:49.861Z</time></trkpt><trkpt lat="40.9872617" lon="13.983115"><ele>3.8571428571428568</ele><time>2026-04-11T06:37:50.858Z</time></trkpt><trkpt lat="40.98724" lon="13.9830283"><ele>3.714285714285714</ele><time>2026-04-11T06:37:51.859Z</time></trkpt><trkpt lat="40.98722" lon="13.9829433"><ele>3.571428571428571</ele><time>2026-04-11T06:37:52.861Z</time></trkpt><trkpt lat="40.9871983" lon="13.9828583"><ele>3.4285714285714284</ele><time>2026-04-11T06:37:53.858Z</time></trkpt><trkpt lat="40.987175" lon="13.982775"><ele>3.2857142857142856</ele><time>2026-04-11T06:37:54.86Z</time></trkpt><trkpt lat="40.98715" lon="13.982695"><ele>3.1428571428571423</ele><time>2026-04-11T06:37:55.862Z</time></trkpt><trkpt lat="40.9871267" lon="13.9826133"><ele>3.0</ele><time>2026-04-11T06:37:56.859Z</time></trkpt><trkpt lat="40.9871033" lon="13.982535"><ele>3.1428571428571423</ele><time>2026-04-11T06:37:57.86Z</time></trkpt><trkpt lat="40.98708" lon="13.982455"><ele>3.2857142857142856</ele><time>2026-04-11T06:37:58.86Z</time></trkpt><trkpt lat="40.987055" lon="13.9823717"><ele>3.4285714285714284</ele><time>2026-04-11T06:37:59.861Z</time></trkpt><trkpt lat="40.9870317" lon="13.9822833"><ele>3.571428571428571</ele><time>2026-04-11T06:38:00.857Z</time></trkpt><trkpt lat="40.9870117" lon="13.982195"><ele>3.714285714285714</ele><time>2026-04-11T06:38:01.86Z</time></trkpt><trkpt lat="40.98699" lon="13.9821067"><ele>3.8571428571428568</ele><time>2026-04-11T06:38:02.859Z</time></trkpt><trkpt lat="40.986965" lon="13.9820167"><ele>4.0</ele><time>2026-04-11T06:38:03.86Z</time></trkpt><trkpt lat="40.98694" lon="13.9819283"><ele>4.0</ele><time>2026-04-11T06:38:04.86Z</time></trkpt><trkpt lat="40.9869167" lon="13.9818417"><ele>3.9999999999999996</ele><time>2026-04-11T06:38:05.862Z</time></trkpt><trkpt lat="40.9868933" lon="13.9817517"><ele>4.0</ele><time>2026-04-11T06:38:06.86Z</time></trkpt><trkpt lat="40.98687" lon="13.981665"><ele>4.0</ele><time>2026-04-11T06:38:07.859Z</time></trkpt><trkpt lat="40.9868467" lon="13.9815767"><ele>3.9999999999999996</ele><time>2026-04-11T06:38:08.859Z</time></trkpt><trkpt lat="40.9868217" lon="13.9814883"><ele>4.0</ele><time>2026-04-11T06:38:09.86Z</time></trkpt><trkpt lat="40.9867967" lon="13.9814017"><ele>4.0</ele><time>2026-04-11T06:38:10.86Z</time></trkpt><trkpt lat="40.98677" lon="13.981315"><ele>3.8571428571428568</ele><time>2026-04-11T06:38:11.86Z</time></trkpt><trkpt lat="40.986745" lon="13.9812233"><ele>3.714285714285714</ele><time>2026-04-11T06:38:12.86Z</time></trkpt><trkpt lat="40.9867233" lon="13.98113"><ele>3.571428571428571</ele><time>2026-04-11T06:38:13.859Z</time></trkpt><trkpt lat="40.9866983" lon="13.98104"><ele>3.4285714285714284</ele><time>2026-04-11T06:38:14.86Z</time></trkpt><trkpt lat="40.9866733" lon="13.9809533"><ele>3.2857142857142856</ele><time>2026-04-11T06:38:15.86Z</time></trkpt><trkpt lat="40.9866517" lon="13.9808667"><ele>3.1428571428571423</ele><time>2026-04-11T06:38:16.86Z</time></trkpt><trkpt lat="40.98663" lon="13.9807817"><ele>3.0</ele><time>2026-04-11T06:38:17.86Z</time></trkpt><trkpt lat="40.9866083" lon="13.9806933"><ele>2.9999999999999996</ele><time>2026-04-11T06:38:18.858Z</time></trkpt><trkpt lat="40.9865867" lon="13.980605"><ele>3.0</ele><time>2026-04-11T06:38:19.86Z</time></trkpt><trkpt lat="40.9865633" lon="13.98052"><ele>3.0</ele><time>2026-04-11T06:38:20.86Z</time></trkpt><trkpt lat="40.986545" lon="13.98043"><ele>3.0</ele><time>2026-04-11T06:38:21.859Z</time></trkpt><trkpt lat="40.98654" lon="13.9803433"><ele>3.0</ele><time>2026-04-11T06:38:22.86Z</time></trkpt><trkpt lat="40.9865533" lon="13.9802467"><ele>2.9999999999999996</ele><time>2026-04-11T06:38:23.86Z</time></trkpt><trkpt lat="40.9865833" lon="13.98017"><ele>3.0</ele><time>2026-04-11T06:38:24.86Z</time></trkpt><trkpt lat="40.9866267" lon="13.980105"><ele>2.8571428571428568</ele><time>2026-04-11T06:38:25.86Z</time></trkpt><trkpt lat="40.9866883" lon="13.9800517"><ele>2.7142857142857144</ele><time>2026-04-11T06:38:26.859Z</time></trkpt><trkpt lat="40.9867417" lon="13.9799967"><ele>2.571428571428571</ele><time>2026-04-11T06:38:27.862Z</time></trkpt><trkpt lat="40.9868017" lon="13.9799433"><ele>2.4285714285714284</ele><time>2026-04-11T06:38:28.86Z</time></trkpt><trkpt lat="40.9868633" lon="13.9798917"><ele>2.2857142857142856</ele><time>2026-04-11T06:38:29.859Z</time></trkpt><trkpt lat="40.986925" lon="13.9798417"><ele>2.142857142857143</ele><time>2026-04-11T06:38:30.86Z</time></trkpt><trkpt lat="40.98699" lon="13.9797917"><ele>2.0</ele><time>2026-04-11T06:38:31.86Z</time></trkpt><trkpt lat="40.9870483" lon="13.97974"><ele>2.0</ele><time>2026-04-11T06:38:32.858Z</time></trkpt><trkpt lat="40.98711" lon="13.9796867"><ele>1.9999999999999998</ele><time>2026-04-11T06:38:33.859Z</time></trkpt><trkpt lat="40.9871717" lon="13.979635"><ele>2.0</ele><time>2026-04-11T06:38:34.859Z</time></trkpt><trkpt lat="40.9872317" lon="13.979585"><ele>2.0</ele><time>2026-04-11T06:38:35.86Z</time></trkpt><trkpt lat="40.9872917" lon="13.9795317"><ele>1.9999999999999998</ele><time>2026-04-11T06:38:36.86Z</time></trkpt><trkpt lat="40.9873517" lon="13.9794833"><ele>2.0</ele><time>2026-04-11T06:38:37.86Z</time></trkpt><trkpt lat="40.9874083" lon="13.9794317"><ele>2.0</ele><time>2026-04-11T06:38:38.859Z</time></trkpt><trkpt lat="40.9874683" lon="13.979385"><ele>2.142857142857143</ele><time>2026-04-11T06:38:39.859Z</time></trkpt><trkpt lat="40.987525" lon="13.9793317"><ele>2.2857142857142856</ele><time>2026-04-11T06:38:40.86Z</time></trkpt><trkpt lat="40.9875833" lon="13.9792783"><ele>2.4285714285714284</ele><time>2026-04-11T06:38:41.859Z</time></trkpt><trkpt lat="40.987645" lon="13.97923"><ele>2.571428571428571</ele><time>2026-04-11T06:38:42.86Z</time></trkpt><trkpt lat="40.9877083" lon="13.97918"><ele>2.7142857142857144</ele><time>2026-04-11T06:38:43.86Z</time></trkpt><trkpt lat="40.9877683" lon="13.9791267"><ele>2.8571428571428568</ele><time>2026-04-11T06:38:44.859Z</time></trkpt><trkpt lat="40.98783" lon="13.979075"><ele>3.0</ele><time>2026-04-11T06:38:45.859Z</time></trkpt><trkpt lat="40.9878917" lon="13.9790267"><ele>3.2857142857142856</ele><time>2026-04-11T06:38:46.86Z</time></trkpt><trkpt lat="40.987955" lon="13.9789767"><ele>3.571428571428571</ele><time>2026-04-11T06:38:47.858Z</time></trkpt><trkpt lat="40.98802" lon="13.9789233"><ele>3.8571428571428568</ele><time>2026-04-11T06:38:48.86Z</time></trkpt><trkpt lat="40.988085" lon="13.978875"><ele>4.142857142857142</ele><time>2026-04-11T06:38:49.861Z</time></trkpt><trkpt lat="40.98815" lon="13.9788317"><ele>4.428571428571429</ele><time>2026-04-11T06:38:50.859Z</time></trkpt><trkpt lat="40.988215" lon="13.978785"><ele>4.714285714285714</ele><time>2026-04-11T06:38:51.861Z</time></trkpt><trkpt lat="40.98828" lon="13.97873"><ele>5.0</ele><time>2026-04-11T06:38:52.86Z</time></trkpt><trkpt lat="40.9883417" lon="13.9786683"><ele>4.857142857142857</ele><time>2026-04-11T06:38:53.86Z</time></trkpt><trkpt lat="40.9884017" lon="13.9786083"><ele>4.714285714285714</ele><time>2026-04-11T06:38:54.861Z</time></trkpt><trkpt lat="40.9884583" lon="13.9785467"><ele>4.571428571428571</ele><time>2026-04-11T06:38:55.861Z</time></trkpt><trkpt lat="40.9885217" lon="13.9784933"><ele>4.428571428571429</ele><time>2026-04-11T06:38:56.859Z</time></trkpt><trkpt lat="40.9885867" lon="13.9784483"><ele>4.285714285714286</ele><time>2026-04-11T06:38:57.86Z</time></trkpt><trkpt lat="40.98865" lon="13.9784017"><ele>4.142857142857142</ele><time>2026-04-11T06:38:58.86Z</time></trkpt><trkpt lat="40.9887117" lon="13.9783533"><ele>4.0</ele><time>2026-04-11T06:38:59.86Z</time></trkpt><trkpt lat="40.9887717" lon="13.9783"><ele>4.0</ele><time>2026-04-11T06:39:00.86Z</time></trkpt><trkpt lat="40.9888333" lon="13.9782483"><ele>3.9999999999999996</ele><time>2026-04-11T06:39:01.86Z</time></trkpt><trkpt lat="40.9888967" lon="13.9782017"><ele>4.0</ele><time>2026-04-11T06:39:02.859Z</time></trkpt><trkpt lat="40.9889617" lon="13.9781533"><ele>4.0</ele><time>2026-04-11T06:39:03.86Z</time></trkpt><trkpt lat="40.9890217" lon="13.9781067"><ele>3.9999999999999996</ele><time>2026-04-11T06:39:04.861Z</time></trkpt><trkpt lat="40.9890833" lon="13.978055"><ele>4.0</ele><time>2026-04-11T06:39:05.859Z</time></trkpt><trkpt lat="40.9891433" lon="13.9779983"><ele>4.0</ele><time>2026-04-11T06:39:06.86Z</time></trkpt><trkpt lat="40.9892033" lon="13.9779433"><ele>3.8571428571428568</ele><time>2026-04-11T06:39:07.861Z</time></trkpt><trkpt lat="40.989265" lon="13.9778983"><ele>3.714285714285714</ele><time>2026-04-11T06:39:08.86Z</time></trkpt><trkpt lat="40.9893267" lon="13.9778517"><ele>3.571428571428571</ele><time>2026-04-11T06:39:09.86Z</time></trkpt><trkpt lat="40.9893867" lon="13.977805"><ele>3.4285714285714284</ele><time>2026-04-11T06:39:10.859Z</time></trkpt><trkpt lat="40.989445" lon="13.9777533"><ele>3.2857142857142856</ele><time>2026-04-11T06:39:11.86Z</time></trkpt><trkpt lat="40.9895017" lon="13.9777017"><ele>3.1428571428571423</ele><time>2026-04-11T06:39:12.86Z</time></trkpt><trkpt lat="40.9895633" lon="13.9776567"><ele>3.0</ele><time>2026-04-11T06:39:13.861Z</time></trkpt><trkpt lat="40.989625" lon="13.977615"><ele>2.9999999999999996</ele><time>2026-04-11T06:39:14.859Z</time></trkpt><trkpt lat="40.9896867" lon="13.9775717"><ele>3.0</ele><time>2026-04-11T06:39:15.858Z</time></trkpt><trkpt lat="40.9897433" lon="13.9775267"><ele>3.0</ele><time>2026-04-11T06:39:16.86Z</time></trkpt><trkpt lat="40.9898" lon="13.97748"><ele>3.0</ele><time>2026-04-11T06:39:17.859Z</time></trkpt><trkpt lat="40.9898583" lon="13.97743"><ele>3.0</ele><time>2026-04-11T06:39:18.86Z</time></trkpt><trkpt lat="40.9899167" lon="13.9773817"><ele>2.9999999999999996</ele><time>2026-04-11T06:39:19.859Z</time></trkpt><trkpt lat="40.9899767" lon="13.9773333"><ele>3.0</ele><time>2026-04-11T06:39:20.86Z</time></trkpt><trkpt lat="40.9900367" lon="13.9772833"><ele>2.9999999999999996</ele><time>2026-04-11T06:39:21.859Z</time></trkpt><trkpt lat="40.9900967" lon="13.9772317"><ele>3.0</ele><time>2026-04-11T06:39:22.86Z</time></trkpt><trkpt lat="40.990155" lon="13.9771833"><ele>3.0</ele><time>2026-04-11T06:39:23.86Z</time></trkpt><trkpt lat="40.990215" lon="13.9771333"><ele>3.0</ele><time>2026-04-11T06:39:24.86Z</time></trkpt><trkpt lat="40.9902733" lon="13.9770817"><ele>3.0</ele><time>2026-04-11T06:39:25.86Z</time></trkpt><trkpt lat="40.99033" lon="13.9770283"><ele>2.9999999999999996</ele><time>2026-04-11T06:39:26.858Z</time></trkpt><trkpt lat="40.9903917" lon="13.9769783"><ele>3.0</ele><time>2026-04-11T06:39:27.859Z</time></trkpt><trkpt lat="40.9904533" lon="13.97693"><ele>2.9999999999999996</ele><time>2026-04-11T06:39:28.86Z</time></trkpt><trkpt lat="40.9905133" lon="13.97688"><ele>3.0</ele><time>2026-04-11T06:39:29.86Z</time></trkpt><trkpt lat="40.9905733" lon="13.976825"><ele>3.0</ele><time>2026-04-11T06:39:30.86Z</time></trkpt><trkpt lat="40.9906333" lon="13.976775"><ele>3.0</ele><time>2026-04-11T06:39:31.861Z</time></trkpt><trkpt lat="40.9906967" lon="13.9767267"><ele>3.0</ele><time>2026-04-11T06:39:32.859Z</time></trkpt><trkpt lat="40.9907617" lon="13.9766817"><ele>2.9999999999999996</ele><time>2026-04-11T06:39:33.858Z</time></trkpt><trkpt lat="40.9908233" lon="13.9766417"><ele>3.0</ele><time>2026-04-11T06:39:34.86Z</time></trkpt><trkpt lat="40.990885" lon="13.9766"><ele>3.1428571428571423</ele><time>2026-04-11T06:39:35.859Z</time></trkpt><trkpt lat="40.990945" lon="13.9765667"><ele>3.2857142857142856</ele><time>2026-04-11T06:39:36.858Z</time></trkpt><trkpt lat="40.99101" lon="13.976545"><ele>3.4285714285714284</ele><time>2026-04-11T06:39:37.861Z</time></trkpt><trkpt lat="40.99108" lon="13.9765333"><ele>3.571428571428571</ele><time>2026-04-11T06:39:38.86Z</time></trkpt><trkpt lat="40.9911467" lon="13.97652"><ele>3.714285714285714</ele><time>2026-04-11T06:39:39.859Z</time></trkpt><trkpt lat="40.9912133" lon="13.9764917"><ele>3.8571428571428568</ele><time>2026-04-11T06:39:40.858Z</time></trkpt><trkpt lat="40.9912733" lon="13.97645"><ele>4.0</ele><time>2026-04-11T06:39:41.861Z</time></trkpt><trkpt lat="40.991325" lon="13.976395"><ele>4.0</ele><time>2026-04-11T06:39:42.86Z</time></trkpt><trkpt lat="40.9913683" lon="13.9763317"><ele>3.9999999999999996</ele><time>2026-04-11T06:39:43.86Z</time></trkpt><trkpt lat="40.991405" lon="13.9762583"><ele>4.0</ele><time>2026-04-11T06:39:44.86Z</time></trkpt><trkpt lat="40.9914417" lon="13.9761817"><ele>4.0</ele><time>2026-04-11T06:39:45.86Z</time></trkpt><trkpt lat="40.9914817" lon="13.9761117"><ele>3.9999999999999996</ele><time>2026-04-11T06:39:46.859Z</time></trkpt><trkpt lat="40.9915367" lon="13.9760533"><ele>4.0</ele><time>2026-04-11T06:39:47.86Z</time></trkpt><trkpt lat="40.9915983" lon="13.976005"><ele>4.0</ele><time>2026-04-11T06:39:48.859Z</time></trkpt><trkpt lat="40.99166" lon="13.9759617"><ele>3.8571428571428568</ele><time>2026-04-11T06:39:49.861Z</time></trkpt><trkpt lat="40.99172" lon="13.9759133"><ele>3.714285714285714</ele><time>2026-04-11T06:39:50.859Z</time></trkpt><trkpt lat="40.99178" lon="13.9758617"><ele>3.571428571428571</ele><time>2026-04-11T06:39:51.859Z</time></trkpt><trkpt lat="40.9918383" lon="13.9758083"><ele>3.4285714285714284</ele><time>2026-04-11T06:39:52.86Z</time></trkpt><trkpt lat="40.991895" lon="13.975755"><ele>3.2857142857142856</ele><time>2026-04-11T06:39:53.86Z</time></trkpt><trkpt lat="40.991955" lon="13.9757"><ele>3.1428571428571423</ele><time>2026-04-11T06:39:54.859Z</time></trkpt><trkpt lat="40.9920167" lon="13.97565"><ele>3.0</ele><time>2026-04-11T06:39:55.86Z</time></trkpt><trkpt lat="40.99208" lon="13.9756033"><ele>2.9999999999999996</ele><time>2026-04-11T06:39:56.86Z</time></trkpt><trkpt lat="40.9921433" lon="13.9755533"><ele>3.0</ele><time>2026-04-11T06:39:57.86Z</time></trkpt><trkpt lat="40.992205" lon="13.9755033"><ele>3.0</ele><time>2026-04-11T06:39:58.86Z</time></trkpt><trkpt lat="40.9922717" lon="13.9754533"><ele>3.0</ele><time>2026-04-11T06:39:59.86Z</time></trkpt><trkpt lat="40.9923317" lon="13.975405"><ele>3.0</ele><time>2026-04-11T06:40:00.86Z</time></trkpt><trkpt lat="40.99239" lon="13.9753533"><ele>2.9999999999999996</ele><time>2026-04-11T06:40:01.86Z</time></trkpt><trkpt lat="40.9924467" lon="13.97531"><ele>3.0</ele><time>2026-04-11T06:40:02.858Z</time></trkpt><trkpt lat="40.992505" lon="13.9752633"><ele>3.1428571428571423</ele><time>2026-04-11T06:40:03.86Z</time></trkpt><trkpt lat="40.9925617" lon="13.9752183"><ele>3.2857142857142856</ele><time>2026-04-11T06:40:04.86Z</time></trkpt><trkpt lat="40.9926183" lon="13.9751717"><ele>3.4285714285714284</ele><time>2026-04-11T06:40:05.86Z</time></trkpt><trkpt lat="40.992675" lon="13.9751217"><ele>3.571428571428571</ele><time>2026-04-11T06:40:06.861Z</time></trkpt><trkpt lat="40.9927333" lon="13.975075"><ele>3.714285714285714</ele><time>2026-04-11T06:40:07.861Z</time></trkpt><trkpt lat="40.9927933" lon="13.9750283"><ele>3.8571428571428568</ele><time>2026-04-11T06:40:08.857Z</time></trkpt><trkpt lat="40.9928517" lon="13.9749767"><ele>4.0</ele><time>2026-04-11T06:40:09.858Z</time></trkpt><trkpt lat="40.9929067" lon="13.9749233"><ele>4.0</ele><time>2026-04-11T06:40:10.86Z</time></trkpt><trkpt lat="40.9929617" lon="13.974875"><ele>3.9999999999999996</ele><time>2026-04-11T06:40:11.859Z</time></trkpt><trkpt lat="40.99302" lon="13.9748267"><ele>4.0</ele><time>2026-04-11T06:40:12.86Z</time></trkpt><trkpt lat="40.9930783" lon="13.97478"><ele>4.0</ele><time>2026-04-11T06:40:13.859Z</time></trkpt><trkpt lat="40.9931367" lon="13.9747317"><ele>3.9999999999999996</ele><time>2026-04-11T06:40:14.86Z</time></trkpt><trkpt lat="40.9931967" lon="13.9746817"><ele>4.0</ele><time>2026-04-11T06:40:15.858Z</time></trkpt><trkpt lat="40.9932533" lon="13.97463"><ele>4.0</ele><time>2026-04-11T06:40:16.86Z</time></trkpt><trkpt lat="40.99331" lon="13.9745817"><ele>3.8571428571428568</ele><time>2026-04-11T06:40:17.859Z</time></trkpt><trkpt lat="40.9933683" lon="13.9745317"><ele>3.714285714285714</ele><time>2026-04-11T06:40:18.86Z</time></trkpt><trkpt lat="40.9934283" lon="13.9744833"><ele>3.571428571428571</ele><time>2026-04-11T06:40:19.861Z</time></trkpt><trkpt lat="40.99349" lon="13.9744367"><ele>3.4285714285714284</ele><time>2026-04-11T06:40:20.86Z</time></trkpt><trkpt lat="40.9935517" lon="13.9743883"><ele>3.2857142857142856</ele><time>2026-04-11T06:40:21.86Z</time></trkpt><trkpt lat="40.993615" lon="13.97434"><ele>3.1428571428571423</ele><time>2026-04-11T06:40:22.86Z</time></trkpt><trkpt lat="40.993675" lon="13.9742917"><ele>3.0</ele><time>2026-04-11T06:40:23.86Z</time></trkpt><trkpt lat="40.9937383" lon="13.97424"><ele>2.9999999999999996</ele><time>2026-04-11T06:40:24.861Z</time></trkpt><trkpt lat="40.9938" lon="13.9741867"><ele>3.0</ele><time>2026-04-11T06:40:25.86Z</time></trkpt><trkpt lat="40.99386" lon="13.974135"><ele>3.0</ele><time>2026-04-11T06:40:26.86Z</time></trkpt><trkpt lat="40.9939217" lon="13.974085"><ele>3.0</ele><time>2026-04-11T06:40:27.858Z</time></trkpt><trkpt lat="40.9939817" lon="13.9740367"><ele>3.0</ele><time>2026-04-11T06:40:28.86Z</time></trkpt><trkpt lat="40.9940433" lon="13.9739883"><ele>2.9999999999999996</ele><time>2026-04-11T06:40:29.861Z</time></trkpt><trkpt lat="40.9941033" lon="13.9739383"><ele>3.0</ele><time>2026-04-11T06:40:30.861Z</time></trkpt><trkpt lat="40.9941667" lon="13.9738933"><ele>3.1428571428571423</ele><time>2026-04-11T06:40:31.86Z</time></trkpt><trkpt lat="40.9942267" lon="13.9738467"><ele>3.2857142857142856</ele><time>2026-04-11T06:40:32.86Z</time></trkpt><trkpt lat="40.9942883" lon="13.973805"><ele>3.4285714285714284</ele><time>2026-04-11T06:40:33.86Z</time></trkpt><trkpt lat="40.9943517" lon="13.9737617"><ele>3.571428571428571</ele><time>2026-04-11T06:40:34.86Z</time></trkpt><trkpt lat="40.9944117" lon="13.9737167"><ele>3.714285714285714</ele><time>2026-04-11T06:40:35.86Z</time></trkpt><trkpt lat="40.99447" lon="13.9736683"><ele>3.8571428571428568</ele><time>2026-04-11T06:40:36.86Z</time></trkpt><trkpt lat="40.9945267" lon="13.9736183"><ele>4.0</ele><time>2026-04-11T06:40:37.86Z</time></trkpt><trkpt lat="40.9945833" lon="13.9735667"><ele>4.0</ele><time>2026-04-11T06:40:38.859Z</time></trkpt><trkpt lat="40.9946417" lon="13.97352"><ele>3.9999999999999996</ele><time>2026-04-11T06:40:39.859Z</time></trkpt><trkpt lat="40.9947017" lon="13.973475"><ele>4.0</ele><time>2026-04-11T06:40:40.86Z</time></trkpt><trkpt lat="40.99476" lon="13.9734267"><ele>4.0</ele><time>2026-04-11T06:40:41.861Z</time></trkpt><trkpt lat="40.9948167" lon="13.973375"><ele>3.9999999999999996</ele><time>2026-04-11T06:40:42.86Z</time></trkpt><trkpt lat="40.9948767" lon="13.9733283"><ele>4.0</ele><time>2026-04-11T06:40:43.86Z</time></trkpt><trkpt lat="40.9949367" lon="13.9732817"><ele>4.0</ele><time>2026-04-11T06:40:44.858Z</time></trkpt><trkpt lat="40.994995" lon="13.9732367"><ele>3.8571428571428568</ele><time>2026-04-11T06:40:45.859Z</time></trkpt><trkpt lat="40.9950533" lon="13.9731883"><ele>3.714285714285714</ele><time>2026-04-11T06:40:46.859Z</time></trkpt><trkpt lat="40.9951117" lon="13.9731383"><ele>3.571428571428571</ele><time>2026-04-11T06:40:47.86Z</time></trkpt><trkpt lat="40.9951667" lon="13.973085"><ele>3.4285714285714284</ele><time>2026-04-11T06:40:48.86Z</time></trkpt><trkpt lat="40.995225" lon="13.973035"><ele>3.2857142857142856</ele><time>2026-04-11T06:40:49.86Z</time></trkpt><trkpt lat="40.9952833" lon="13.9729883"><ele>3.1428571428571423</ele><time>2026-04-11T06:40:50.86Z</time></trkpt><trkpt lat="40.9953433" lon="13.97294"><ele>3.0</ele><time>2026-04-11T06:40:51.86Z</time></trkpt><trkpt lat="40.9954033" lon="13.97289"><ele>2.9999999999999996</ele><time>2026-04-11T06:40:52.86Z</time></trkpt><trkpt lat="40.9954633" lon="13.9728433"><ele>3.0</ele><time>2026-04-11T06:40:53.86Z</time></trkpt><trkpt lat="40.9955233" lon="13.9727967"><ele>3.0</ele><time>2026-04-11T06:40:54.86Z</time></trkpt><trkpt lat="40.9955867" lon="13.97275"><ele>3.0</ele><time>2026-04-11T06:40:55.861Z</time></trkpt><trkpt lat="40.99565" lon="13.9727017"><ele>3.0</ele><time>2026-04-11T06:40:56.86Z</time></trkpt><trkpt lat="40.99571" lon="13.97265"><ele>2.9999999999999996</ele><time>2026-04-11T06:40:57.859Z</time></trkpt><trkpt lat="40.99577" lon="13.9726"><ele>3.0</ele><time>2026-04-11T06:40:58.86Z</time></trkpt><trkpt lat="40.99583" lon="13.9725483"><ele>3.571428571428571</ele><time>2026-04-11T06:40:59.858Z</time></trkpt><trkpt lat="40.9958867" lon="13.9724967"><ele>4.142857142857142</ele><time>2026-04-11T06:41:00.861Z</time></trkpt><trkpt lat="40.995945" lon="13.97245"><ele>4.714285714285714</ele><time>2026-04-11T06:41:01.859Z</time></trkpt><trkpt lat="40.9960067" lon="13.9724033"><ele>5.285714285714286</ele><time>2026-04-11T06:41:02.86Z</time></trkpt><trkpt lat="40.99607" lon="13.9723617"><ele>5.857142857142857</ele><time>2026-04-11T06:41:03.858Z</time></trkpt><trkpt lat="40.996135" lon="13.9723267"><ele>6.428571428571429</ele><time>2026-04-11T06:41:04.86Z</time></trkpt><trkpt lat="40.9962" lon="13.9722933"><ele>7.0</ele><time>2026-04-11T06:41:05.859Z</time></trkpt><trkpt lat="40.9962667" lon="13.9722683"><ele>7.0</ele><time>2026-04-11T06:41:06.86Z</time></trkpt><trkpt lat="40.9963317" lon="13.9722417"><ele>7.0</ele><time>2026-04-11T06:41:07.86Z</time></trkpt><trkpt lat="40.9964" lon="13.972215"><ele>7.0</ele><time>2026-04-11T06:41:08.86Z</time></trkpt><trkpt lat="40.9964683" lon="13.9721917"><ele>7.0</ele><time>2026-04-11T06:41:09.86Z</time></trkpt><trkpt lat="40.9965367" lon="13.97217"><ele>7.0</ele><time>2026-04-11T06:41:10.86Z</time></trkpt><trkpt lat="40.9966033" lon="13.9721483"><ele>7.0</ele><time>2026-04-11T06:41:11.86Z</time></trkpt><trkpt lat="40.9966733" lon="13.9721233"><ele>7.0</ele><time>2026-04-11T06:41:12.861Z</time></trkpt><trkpt lat="40.9967433" lon="13.9720933"><ele>6.571428571428571</ele><time>2026-04-11T06:41:13.861Z</time></trkpt><trkpt lat="40.9968117" lon="13.9720633"><ele>6.142857142857142</ele><time>2026-04-11T06:41:14.86Z</time></trkpt><trkpt lat="40.9968783" lon="13.9720267"><ele>5.714285714285714</ele><time>2026-04-11T06:41:15.859Z</time></trkpt><trkpt lat="40.99694" lon="13.971985"><ele>5.285714285714286</ele><time>2026-04-11T06:41:16.86Z</time></trkpt><trkpt lat="40.9969967" lon="13.9719333"><ele>4.857142857142857</ele><time>2026-04-11T06:41:17.861Z</time></trkpt><trkpt lat="40.997045" lon="13.971865"><ele>4.428571428571429</ele><time>2026-04-11T06:41:18.861Z</time></trkpt><trkpt lat="40.9970883" lon="13.97179"><ele>4.0</ele><time>2026-04-11T06:41:19.86Z</time></trkpt><trkpt lat="40.9971317" lon="13.971715"><ele>4.0</ele><time>2026-04-11T06:41:20.86Z</time></trkpt><trkpt lat="40.99717" lon="13.97164"><ele>3.9999999999999996</ele><time>2026-04-11T06:41:21.857Z</time></trkpt><trkpt lat="40.9972117" lon="13.9715617"><ele>4.0</ele><time>2026-04-11T06:41:22.861Z</time></trkpt><trkpt lat="40.9972617" lon="13.9714933"><ele>4.0</ele><time>2026-04-11T06:41:23.862Z</time></trkpt><trkpt lat="40.9973117" lon="13.9714183"><ele>3.9999999999999996</ele><time>2026-04-11T06:41:24.859Z</time></trkpt><trkpt lat="40.99736" lon="13.9713417"><ele>4.0</ele><time>2026-04-11T06:41:25.86Z</time></trkpt><trkpt lat="40.9974033" lon="13.9712633"><ele>4.0</ele><time>2026-04-11T06:41:26.86Z</time></trkpt><trkpt lat="40.997445" lon="13.971195"><ele>4.0</ele><time>2026-04-11T06:41:27.859Z</time></trkpt><trkpt lat="40.9974933" lon="13.9711333"><ele>3.9999999999999996</ele><time>2026-04-11T06:41:28.861Z</time></trkpt><trkpt lat="40.9975533" lon="13.971085"><ele>4.0</ele><time>2026-04-11T06:41:29.86Z</time></trkpt><trkpt lat="40.9976133" lon="13.9710417"><ele>4.0</ele><time>2026-04-11T06:41:30.86Z</time></trkpt><trkpt lat="40.9976733" lon="13.9709983"><ele>3.9999999999999996</ele><time>2026-04-11T06:41:31.86Z</time></trkpt><trkpt lat="40.997735" lon="13.9709517"><ele>4.0</ele><time>2026-04-11T06:41:32.859Z</time></trkpt><trkpt lat="40.997795" lon="13.970905"><ele>4.0</ele><time>2026-04-11T06:41:33.86Z</time></trkpt><trkpt lat="40.9978567" lon="13.9708567"><ele>3.714285714285714</ele><time>2026-04-11T06:41:34.86Z</time></trkpt><trkpt lat="40.9979167" lon="13.9708083"><ele>3.428571428571428</ele><time>2026-04-11T06:41:35.86Z</time></trkpt><trkpt lat="40.9979767" lon="13.9707567"><ele>3.142857142857143</ele><time>2026-04-11T06:41:36.86Z</time></trkpt><trkpt lat="40.9980367" lon="13.9707083"><ele>2.8571428571428568</ele><time>2026-04-11T06:41:37.861Z</time></trkpt><trkpt lat="40.9981" lon="13.970665"><ele>2.571428571428571</ele><time>2026-04-11T06:41:38.859Z</time></trkpt><trkpt lat="40.9981567" lon="13.9706183"><ele>2.2857142857142856</ele><time>2026-04-11T06:41:39.858Z</time></trkpt><trkpt lat="40.998215" lon="13.9705717"><ele>2.0</ele><time>2026-04-11T06:41:40.86Z</time></trkpt><trkpt lat="40.9982733" lon="13.9705267"><ele>2.0</ele><time>2026-04-11T06:41:41.861Z</time></trkpt><trkpt lat="40.99833" lon="13.970485"><ele>1.9999999999999998</ele><time>2026-04-11T06:41:42.859Z</time></trkpt><trkpt lat="40.99839" lon="13.97044"><ele>2.0</ele><time>2026-04-11T06:41:43.86Z</time></trkpt><trkpt lat="40.9984483" lon="13.9703967"><ele>2.0</ele><time>2026-04-11T06:41:44.861Z</time></trkpt><trkpt lat="40.9985033" lon="13.9703517"><ele>1.9999999999999998</ele><time>2026-04-11T06:41:45.86Z</time></trkpt><trkpt lat="40.99856" lon="13.9703033"><ele>2.0</ele><time>2026-04-11T06:41:46.86Z</time></trkpt><trkpt lat="40.998615" lon="13.9702533"><ele>2.0</ele><time>2026-04-11T06:41:47.859Z</time></trkpt><trkpt lat="40.99867" lon="13.970205"><ele>2.0</ele><time>2026-04-11T06:41:48.86Z</time></trkpt><trkpt lat="40.9987267" lon="13.9701583"><ele>1.9999999999999998</ele><time>2026-04-11T06:41:49.86Z</time></trkpt><trkpt lat="40.9987833" lon="13.97011"><ele>2.0</ele><time>2026-04-11T06:41:50.86Z</time></trkpt><trkpt lat="40.99884" lon="13.9700583"><ele>2.0</ele><time>2026-04-11T06:41:51.86Z</time></trkpt><trkpt lat="40.9988967" lon="13.97001"><ele>1.9999999999999998</ele><time>2026-04-11T06:41:52.86Z</time></trkpt><trkpt lat="40.998955" lon="13.9699617"><ele>2.0</ele><time>2026-04-11T06:41:53.86Z</time></trkpt><trkpt lat="40.9990117" lon="13.9699133"><ele>2.0</ele><time>2026-04-11T06:41:54.859Z</time></trkpt><trkpt lat="40.9990683" lon="13.9698633"><ele>2.0</ele><time>2026-04-11T06:41:55.861Z</time></trkpt><trkpt lat="40.999125" lon="13.969815"><ele>1.9999999999999998</ele><time>2026-04-11T06:41:56.859Z</time></trkpt><trkpt lat="40.9991833" lon="13.96977"><ele>2.0</ele><time>2026-04-11T06:41:57.859Z</time></trkpt><trkpt lat="40.9992433" lon="13.969725"><ele>2.0</ele><time>2026-04-11T06:41:58.86Z</time></trkpt><trkpt lat="40.9993033" lon="13.9696783"><ele>1.9999999999999998</ele><time>2026-04-11T06:41:59.859Z</time></trkpt><trkpt lat="40.9993633" lon="13.9696283"><ele>2.0</ele><time>2026-04-11T06:42:00.86Z</time></trkpt><trkpt lat="40.9994217" lon="13.9695783"><ele>2.0</ele><time>2026-04-11T06:42:01.86Z</time></trkpt><trkpt lat="40.9994833" lon="13.96953"><ele>2.0</ele><time>2026-04-11T06:42:02.86Z</time></trkpt><trkpt lat="40.9995433" lon="13.9694817"><ele>1.9999999999999998</ele><time>2026-04-11T06:42:03.86Z</time></trkpt><trkpt lat="40.999605" lon="13.9694333"><ele>2.0</ele><time>2026-04-11T06:42:04.859Z</time></trkpt><trkpt lat="40.9996667" lon="13.969385"><ele>2.0</ele><time>2026-04-11T06:42:05.86Z</time></trkpt><trkpt lat="40.9997283" lon="13.969335"><ele>1.9999999999999998</ele><time>2026-04-11T06:42:06.86Z</time></trkpt><trkpt lat="40.99979" lon="13.9692883"><ele>2.0</ele><time>2026-04-11T06:42:07.86Z</time></trkpt><trkpt lat="40.9998517" lon="13.9692383"><ele>2.0</ele><time>2026-04-11T06:42:08.86Z</time></trkpt><trkpt lat="40.9999117" lon="13.9691883"><ele>1.857142857142857</ele><time>2026-04-11T06:42:09.858Z</time></trkpt><trkpt lat="40.9999717" lon="13.9691383"><ele>1.714285714285714</ele><time>2026-04-11T06:42:10.859Z</time></trkpt><trkpt lat="41.0000333" lon="13.9690883"><ele>1.5714285714285714</ele><time>2026-04-11T06:42:11.86Z</time></trkpt><trkpt lat="41.000095" lon="13.9690367"><ele>1.4285714285714284</ele><time>2026-04-11T06:42:12.859Z</time></trkpt><trkpt lat="41.000155" lon="13.968985"><ele>1.2857142857142856</ele><time>2026-04-11T06:42:13.859Z</time></trkpt><trkpt lat="41.000215" lon="13.9689383"><ele>1.1428571428571428</ele><time>2026-04-11T06:42:14.861Z</time></trkpt><trkpt lat="41.0002767" lon="13.96889"><ele>1.0</ele><time>2026-04-11T06:42:15.859Z</time></trkpt><trkpt lat="41.0003367" lon="13.96884"><ele>1.0</ele><time>2026-04-11T06:42:16.86Z</time></trkpt><trkpt lat="41.000395" lon="13.9687883"><ele>0.9999999999999999</ele><time>2026-04-11T06:42:17.861Z</time></trkpt><trkpt lat="41.000455" lon="13.9687367"><ele>1.0</ele><time>2026-04-11T06:42:18.86Z</time></trkpt><trkpt lat="41.0005117" lon="13.9686867"><ele>1.0</ele><time>2026-04-11T06:42:19.859Z</time></trkpt><trkpt lat="41.00057" lon="13.9686333"><ele>0.9999999999999999</ele><time>2026-04-11T06:42:20.861Z</time></trkpt><trkpt lat="41.0006283" lon="13.968585"><ele>1.0</ele><time>2026-04-11T06:42:21.859Z</time></trkpt><trkpt lat="41.0006883" lon="13.9685367"><ele>1.0</ele><time>2026-04-11T06:42:22.859Z</time></trkpt><trkpt lat="41.0007467" lon="13.9684883"><ele>1.0</ele><time>2026-04-11T06:42:23.86Z</time></trkpt><trkpt lat="41.000805" lon="13.9684383"><ele>0.9999999999999999</ele><time>2026-04-11T06:42:24.861Z</time></trkpt><trkpt lat="41.0008633" lon="13.96839"><ele>1.0</ele><time>2026-04-11T06:42:25.861Z</time></trkpt><trkpt lat="41.0009217" lon="13.96834"><ele>1.0</ele><time>2026-04-11T06:42:26.859Z</time></trkpt><trkpt lat="41.00098" lon="13.96829"><ele>0.9999999999999999</ele><time>2026-04-11T06:42:27.859Z</time></trkpt><trkpt lat="41.0010383" lon="13.96824"><ele>1.0</ele><time>2026-04-11T06:42:28.859Z</time></trkpt><trkpt lat="41.0010983" lon="13.9681883"><ele>1.0</ele><time>2026-04-11T06:42:29.861Z</time></trkpt><trkpt lat="41.0011583" lon="13.9681383"><ele>1.2857142857142856</ele><time>2026-04-11T06:42:30.859Z</time></trkpt><trkpt lat="41.0012167" lon="13.9680867"><ele>1.5714285714285712</ele><time>2026-04-11T06:42:31.86Z</time></trkpt><trkpt lat="41.0012783" lon="13.96804"><ele>1.857142857142857</ele><time>2026-04-11T06:42:32.861Z</time></trkpt><trkpt lat="41.00134" lon="13.9679917"><ele>2.142857142857143</ele><time>2026-04-11T06:42:33.858Z</time></trkpt><trkpt lat="41.0014017" lon="13.9679417"><ele>2.4285714285714284</ele><time>2026-04-11T06:42:34.859Z</time></trkpt><trkpt lat="41.0014617" lon="13.9678917"><ele>2.714285714285714</ele><time>2026-04-11T06:42:35.86Z</time></trkpt><trkpt lat="41.0015233" lon="13.9678433"><ele>3.0</ele><time>2026-04-11T06:42:36.859Z</time></trkpt><trkpt lat="41.001585" lon="13.9677967"><ele>2.9999999999999996</ele><time>2026-04-11T06:42:37.86Z</time></trkpt><trkpt lat="41.0016467" lon="13.9677467"><ele>3.0</ele><time>2026-04-11T06:42:38.86Z</time></trkpt><trkpt lat="41.0017083" lon="13.9676967"><ele>3.0</ele><time>2026-04-11T06:42:39.86Z</time></trkpt><trkpt lat="41.00177" lon="13.9676467"><ele>3.0</ele><time>2026-04-11T06:42:40.86Z</time></trkpt><trkpt lat="41.0018283" lon="13.9675983"><ele>3.0</ele><time>2026-04-11T06:42:41.86Z</time></trkpt><trkpt lat="41.00189" lon="13.96755"><ele>2.9999999999999996</ele><time>2026-04-11T06:42:42.858Z</time></trkpt><trkpt lat="41.00195" lon="13.9675017"><ele>3.0</ele><time>2026-04-11T06:42:43.861Z</time></trkpt><trkpt lat="41.0020083" lon="13.9674533"><ele>3.1428571428571423</ele><time>2026-04-11T06:42:44.861Z</time></trkpt><trkpt lat="41.0020683" lon="13.967405"><ele>3.2857142857142856</ele><time>2026-04-11T06:42:45.857Z</time></trkpt><trkpt lat="41.0021267" lon="13.9673583"><ele>3.4285714285714284</ele><time>2026-04-11T06:42:46.859Z</time></trkpt><trkpt lat="41.0021817" lon="13.96731"><ele>3.571428571428571</ele><time>2026-04-11T06:42:47.86Z</time></trkpt><trkpt lat="41.00224" lon="13.9672633"><ele>3.714285714285714</ele><time>2026-04-11T06:42:48.859Z</time></trkpt><trkpt lat="41.0022967" lon="13.9672167"><ele>3.8571428571428568</ele><time>2026-04-11T06:42:49.86Z</time></trkpt><trkpt lat="41.0023567" lon="13.96717"><ele>4.0</ele><time>2026-04-11T06:42:50.86Z</time></trkpt><trkpt lat="41.002415" lon="13.9671217"><ele>4.0</ele><time>2026-04-11T06:42:51.859Z</time></trkpt><trkpt lat="41.0024733" lon="13.9670733"><ele>3.9999999999999996</ele><time>2026-04-11T06:42:52.86Z</time></trkpt><trkpt lat="41.0025317" lon="13.9670283"><ele>4.0</ele><time>2026-04-11T06:42:53.861Z</time></trkpt><trkpt lat="41.00259" lon="13.96698"><ele>4.0</ele><time>2026-04-11T06:42:54.858Z</time></trkpt><trkpt lat="41.00265" lon="13.9669317"><ele>3.9999999999999996</ele><time>2026-04-11T06:42:55.86Z</time></trkpt><trkpt lat="41.0027083" lon="13.96688"><ele>4.0</ele><time>2026-04-11T06:42:56.861Z</time></trkpt><trkpt lat="41.002765" lon="13.9668333"><ele>4.0</ele><time>2026-04-11T06:42:57.859Z</time></trkpt><trkpt lat="41.0028217" lon="13.9667867"><ele>4.0</ele><time>2026-04-11T06:42:58.861Z</time></trkpt><trkpt lat="41.00288" lon="13.96674"><ele>3.9999999999999996</ele><time>2026-04-11T06:42:59.86Z</time></trkpt><trkpt lat="41.0029367" lon="13.9666917"><ele>4.0</ele><time>2026-04-11T06:43:00.859Z</time></trkpt><trkpt lat="41.0029917" lon="13.966645"><ele>4.0</ele><time>2026-04-11T06:43:01.86Z</time></trkpt><trkpt lat="41.0030467" lon="13.9666"><ele>3.9999999999999996</ele><time>2026-04-11T06:43:02.859Z</time></trkpt><trkpt lat="41.0031067" lon="13.9665567"><ele>4.0</ele><time>2026-04-11T06:43:03.86Z</time></trkpt><trkpt lat="41.003165" lon="13.96651"><ele>4.0</ele><time>2026-04-11T06:43:04.861Z</time></trkpt><trkpt lat="41.003225" lon="13.96646"><ele>4.142857142857142</ele><time>2026-04-11T06:43:05.859Z</time></trkpt><trkpt lat="41.0032867" lon="13.9664083"><ele>4.285714285714286</ele><time>2026-04-11T06:43:06.86Z</time></trkpt><trkpt lat="41.003345" lon="13.9663567"><ele>4.428571428571429</ele><time>2026-04-11T06:43:07.86Z</time></trkpt><trkpt lat="41.003405" lon="13.966305"><ele>4.571428571428571</ele><time>2026-04-11T06:43:08.859Z</time></trkpt><trkpt lat="41.0034633" lon="13.9662517"><ele>4.714285714285714</ele><time>2026-04-11T06:43:09.86Z</time></trkpt><trkpt lat="41.0035217" lon="13.9662017"><ele>4.857142857142857</ele><time>2026-04-11T06:43:10.861Z</time></trkpt><trkpt lat="41.0035817" lon="13.9661533"><ele>5.0</ele><time>2026-04-11T06:43:11.86Z</time></trkpt><trkpt lat="41.00364" lon="13.9661083"><ele>4.714285714285714</ele><time>2026-04-11T06:43:12.86Z</time></trkpt><trkpt lat="41.0037" lon="13.96606"><ele>4.428571428571429</ele><time>2026-04-11T06:43:13.861Z</time></trkpt><trkpt lat="41.0037617" lon="13.9660083"><ele>4.142857142857142</ele><time>2026-04-11T06:43:14.859Z</time></trkpt><trkpt lat="41.0038233" lon="13.9659583"><ele>3.8571428571428568</ele><time>2026-04-11T06:43:15.86Z</time></trkpt><trkpt lat="41.0038867" lon="13.9659083"><ele>3.571428571428571</ele><time>2026-04-11T06:43:16.86Z</time></trkpt><trkpt lat="41.00395" lon="13.96586"><ele>3.2857142857142856</ele><time>2026-04-11T06:43:17.861Z</time></trkpt><trkpt lat="41.004015" lon="13.96581"><ele>3.0</ele><time>2026-04-11T06:43:18.86Z</time></trkpt><trkpt lat="41.004075" lon="13.9657567"><ele>2.9999999999999996</ele><time>2026-04-11T06:43:19.86Z</time></trkpt><trkpt lat="41.004135" lon="13.9657033"><ele>3.0</ele><time>2026-04-11T06:43:20.858Z</time></trkpt><trkpt lat="41.0041967" lon="13.96565"><ele>3.0</ele><time>2026-04-11T06:43:21.86Z</time></trkpt><trkpt lat="41.0042583" lon="13.9656"><ele>3.0</ele><time>2026-04-11T06:43:22.859Z</time></trkpt><trkpt lat="41.0043167" lon="13.9655517"><ele>3.0</ele><time>2026-04-11T06:43:23.861Z</time></trkpt><trkpt lat="41.0043767" lon="13.9655067"><ele>2.9999999999999996</ele><time>2026-04-11T06:43:24.86Z</time></trkpt><trkpt lat="41.004435" lon="13.9654583"><ele>3.0</ele><time>2026-04-11T06:43:25.863Z</time></trkpt><trkpt lat="41.0044933" lon="13.9654067"><ele>3.1428571428571423</ele><time>2026-04-11T06:43:26.858Z</time></trkpt><trkpt lat="41.0045483" lon="13.9653567"><ele>3.2857142857142856</ele><time>2026-04-11T06:43:27.861Z</time></trkpt><trkpt lat="41.0046067" lon="13.9653067"><ele>3.4285714285714284</ele><time>2026-04-11T06:43:28.859Z</time></trkpt><trkpt lat="41.004665" lon="13.9652583"><ele>3.571428571428571</ele><time>2026-04-11T06:43:29.859Z</time></trkpt><trkpt lat="41.0047233" lon="13.96521"><ele>3.714285714285714</ele><time>2026-04-11T06:43:30.859Z</time></trkpt><trkpt lat="41.00478" lon="13.9651583"><ele>3.8571428571428568</ele><time>2026-04-11T06:43:31.86Z</time></trkpt><trkpt lat="41.004835" lon="13.96511"><ele>4.0</ele><time>2026-04-11T06:43:32.861Z</time></trkpt><trkpt lat="41.0048933" lon="13.9650617"><ele>4.142857142857142</ele><time>2026-04-11T06:43:33.857Z</time></trkpt><trkpt lat="41.0049517" lon="13.9650167"><ele>4.285714285714286</ele><time>2026-04-11T06:43:34.859Z</time></trkpt><trkpt lat="41.0050083" lon="13.9649667"><ele>4.428571428571429</ele><time>2026-04-11T06:43:35.857Z</time></trkpt><trkpt lat="41.0050667" lon="13.96492"><ele>4.571428571428571</ele><time>2026-04-11T06:43:36.859Z</time></trkpt><trkpt lat="41.005125" lon="13.964875"><ele>4.714285714285714</ele><time>2026-04-11T06:43:37.859Z</time></trkpt><trkpt lat="41.0051867" lon="13.9648283"><ele>4.857142857142857</ele><time>2026-04-11T06:43:38.858Z</time></trkpt><trkpt lat="41.0052467" lon="13.96478"><ele>5.0</ele><time>2026-04-11T06:43:39.859Z</time></trkpt><trkpt lat="41.0053083" lon="13.964735"><ele>5.0</ele><time>2026-04-11T06:43:40.858Z</time></trkpt><trkpt lat="41.0053683" lon="13.9646883"><ele>5.0</ele><time>2026-04-11T06:43:41.859Z</time></trkpt><trkpt lat="41.0054283" lon="13.96464"><ele>5.0</ele><time>2026-04-11T06:43:42.859Z</time></trkpt><trkpt lat="41.0054867" lon="13.9645883"><ele>5.0</ele><time>2026-04-11T06:43:43.859Z</time></trkpt><trkpt lat="41.00554" lon="13.96453"><ele>5.0</ele><time>2026-04-11T06:43:44.859Z</time></trkpt><trkpt lat="41.0056" lon="13.9644783"><ele>5.0</ele><time>2026-04-11T06:43:45.859Z</time></trkpt><trkpt lat="41.0056617" lon="13.9644333"><ele>5.0</ele><time>2026-04-11T06:43:46.859Z</time></trkpt><trkpt lat="41.0057267" lon="13.96439"><ele>5.0</ele><time>2026-04-11T06:43:47.859Z</time></trkpt><trkpt lat="41.0057883" lon="13.964345"><ele>5.0</ele><time>2026-04-11T06:43:48.859Z</time></trkpt><trkpt lat="41.0058517" lon="13.9642967"><ele>5.0</ele><time>2026-04-11T06:43:49.859Z</time></trkpt><trkpt lat="41.0059117" lon="13.9642467"><ele>5.0</ele><time>2026-04-11T06:43:50.86Z</time></trkpt><trkpt lat="41.00597" lon="13.9641983"><ele>5.0</ele><time>2026-04-11T06:43:51.858Z</time></trkpt><trkpt lat="41.00603" lon="13.9641483"><ele>5.0</ele><time>2026-04-11T06:43:52.858Z</time></trkpt><trkpt lat="41.00609" lon="13.9641"><ele>5.0</ele><time>2026-04-11T06:43:53.859Z</time></trkpt><trkpt lat="41.0061517" lon="13.9640533"><ele>4.857142857142857</ele><time>2026-04-11T06:43:54.859Z</time></trkpt><trkpt lat="41.0062133" lon="13.9640067"><ele>4.714285714285714</ele><time>2026-04-11T06:43:55.859Z</time></trkpt><trkpt lat="41.006275" lon="13.9639583"><ele>4.571428571428571</ele><time>2026-04-11T06:43:56.86Z</time></trkpt><trkpt lat="41.0063367" lon="13.9639083"><ele>4.428571428571429</ele><time>2026-04-11T06:43:57.858Z</time></trkpt><trkpt lat="41.0063967" lon="13.9638583"><ele>4.285714285714286</ele><time>2026-04-11T06:43:58.859Z</time></trkpt><trkpt lat="41.0064567" lon="13.96381"><ele>4.142857142857142</ele><time>2026-04-11T06:43:59.86Z</time></trkpt><trkpt lat="41.0065167" lon="13.96376"><ele>4.0</ele><time>2026-04-11T06:44:00.859Z</time></trkpt><trkpt lat="41.006575" lon="13.9637083"><ele>4.0</ele><time>2026-04-11T06:44:01.86Z</time></trkpt><trkpt lat="41.0066333" lon="13.96366"><ele>3.9999999999999996</ele><time>2026-04-11T06:44:02.86Z</time></trkpt><trkpt lat="41.0066917" lon="13.9636133"><ele>4.0</ele><time>2026-04-11T06:44:03.858Z</time></trkpt><trkpt lat="41.00675" lon="13.9635633"><ele>4.0</ele><time>2026-04-11T06:44:04.86Z</time></trkpt><trkpt lat="41.00681" lon="13.963515"><ele>3.9999999999999996</ele><time>2026-04-11T06:44:05.858Z</time></trkpt><trkpt lat="41.0068717" lon="13.963465"><ele>4.0</ele><time>2026-04-11T06:44:06.858Z</time></trkpt><trkpt lat="41.0069317" lon="13.9634117"><ele>4.0</ele><time>2026-04-11T06:44:07.859Z</time></trkpt><trkpt lat="41.00699" lon="13.9633617"><ele>3.833333333333333</ele><time>2026-04-11T06:44:08.86Z</time></trkpt><trkpt lat="41.007045" lon="13.96331"><ele>3.6666666666666665</ele><time>2026-04-11T06:44:09.859Z</time></trkpt><trkpt lat="41.0071" lon="13.9632583"><ele>3.5</ele><time>2026-04-11T06:44:10.859Z</time></trkpt><trkpt lat="41.0071533" lon="13.9632067"><ele>3.333333333333333</ele><time>2026-04-11T06:44:11.859Z</time></trkpt><trkpt lat="41.0072067" lon="13.9631583"><ele>3.1666666666666665</ele><time>2026-04-11T06:44:12.86Z</time></trkpt><trkpt lat="41.0073183" lon="13.96308"><ele>3.0</ele><time>2026-04-11T06:44:14.859Z</time></trkpt><trkpt lat="41.0073733" lon="13.9630383"><ele>3.0</ele><time>2026-04-11T06:44:15.857Z</time></trkpt><trkpt lat="41.0074283" lon="13.9629933"><ele>3.0</ele><time>2026-04-11T06:44:16.859Z</time></trkpt><trkpt lat="41.0075367" lon="13.962905"><ele>3.0</ele><time>2026-04-11T06:44:18.858Z</time></trkpt><trkpt lat="41.0075917" lon="13.9628583"><ele>3.0</ele><time>2026-04-11T06:44:19.86Z</time></trkpt><trkpt lat="41.0076483" lon="13.962815"><ele>3.0</ele><time>2026-04-11T06:44:20.857Z</time></trkpt><trkpt lat="41.007705" lon="13.9627683"><ele>3.0</ele><time>2026-04-11T06:44:21.857Z</time></trkpt><trkpt lat="41.00776" lon="13.9627217"><ele>2.9999999999999996</ele><time>2026-04-11T06:44:22.859Z</time></trkpt><trkpt lat="41.0078167" lon="13.9626733"><ele>3.0</ele><time>2026-04-11T06:44:23.858Z</time></trkpt><trkpt lat="41.0078717" lon="13.9626233"><ele>3.0</ele><time>2026-04-11T06:44:24.859Z</time></trkpt><trkpt lat="41.0079283" lon="13.9625733"><ele>3.0</ele><time>2026-04-11T06:44:25.859Z</time></trkpt><trkpt lat="41.0079833" lon="13.9625233"><ele>3.0</ele><time>2026-04-11T06:44:26.86Z</time></trkpt><trkpt lat="41.0080383" lon="13.962475"><ele>2.9999999999999996</ele><time>2026-04-11T06:44:27.859Z</time></trkpt><trkpt lat="41.0080967" lon="13.9624267"><ele>3.0</ele><time>2026-04-11T06:44:28.858Z</time></trkpt><trkpt lat="41.0081517" lon="13.9623767"><ele>2.9999999999999996</ele><time>2026-04-11T06:44:29.859Z</time></trkpt><trkpt lat="41.0082067" lon="13.9623233"><ele>3.0</ele><time>2026-04-11T06:44:30.859Z</time></trkpt><trkpt lat="41.0082617" lon="13.9622783"><ele>3.0</ele><time>2026-04-11T06:44:31.858Z</time></trkpt><trkpt lat="41.0083183" lon="13.9622333"><ele>3.0</ele><time>2026-04-11T06:44:32.859Z</time></trkpt><trkpt lat="41.0083733" lon="13.962185"><ele>3.0</ele><time>2026-04-11T06:44:33.859Z</time></trkpt><trkpt lat="41.0084267" lon="13.9621367"><ele>2.9999999999999996</ele><time>2026-04-11T06:44:34.858Z</time></trkpt><trkpt lat="41.008485" lon="13.9620983"><ele>3.0</ele><time>2026-04-11T06:44:35.859Z</time></trkpt><trkpt lat="41.0085433" lon="13.9620633"><ele>2.9999999999999996</ele><time>2026-04-11T06:44:36.859Z</time></trkpt><trkpt lat="41.0086017" lon="13.9620283"><ele>3.0</ele><time>2026-04-11T06:44:37.859Z</time></trkpt><trkpt lat="41.0086583" lon="13.9619917"><ele>3.0</ele><time>2026-04-11T06:44:38.856Z</time></trkpt><trkpt lat="41.0087167" lon="13.9619467"><ele>3.0</ele><time>2026-04-11T06:44:39.859Z</time></trkpt><trkpt lat="41.0087717" lon="13.961895"><ele>3.0</ele><time>2026-04-11T06:44:40.859Z</time></trkpt><trkpt lat="41.008825" lon="13.9618417"><ele>2.9999999999999996</ele><time>2026-04-11T06:44:41.858Z</time></trkpt><trkpt lat="41.0088817" lon="13.9617917"><ele>3.0</ele><time>2026-04-11T06:44:42.858Z</time></trkpt><trkpt lat="41.00894" lon="13.9617433"><ele>2.9999999999999996</ele><time>2026-04-11T06:44:43.859Z</time></trkpt><trkpt lat="41.0089967" lon="13.961695"><ele>3.0</ele><time>2026-04-11T06:44:44.859Z</time></trkpt><trkpt lat="41.0090533" lon="13.96165"><ele>3.0</ele><time>2026-04-11T06:44:45.857Z</time></trkpt><trkpt lat="41.0091083" lon="13.961605"><ele>3.0</ele><time>2026-04-11T06:44:46.859Z</time></trkpt><trkpt lat="41.0091683" lon="13.961555"><ele>3.0</ele><time>2026-04-11T06:44:47.858Z</time></trkpt><trkpt lat="41.009225" lon="13.9615067"><ele>2.9999999999999996</ele><time>2026-04-11T06:44:48.859Z</time></trkpt><trkpt lat="41.0092833" lon="13.96146"><ele>3.0</ele><time>2026-04-11T06:44:49.858Z</time></trkpt><trkpt lat="41.0093433" lon="13.9614117"><ele>2.9999999999999996</ele><time>2026-04-11T06:44:50.861Z</time></trkpt><trkpt lat="41.0094033" lon="13.9613667"><ele>3.0</ele><time>2026-04-11T06:44:51.86Z</time></trkpt><trkpt lat="41.00946" lon="13.9613167"><ele>3.0</ele><time>2026-04-11T06:44:52.858Z</time></trkpt><trkpt lat="41.00952" lon="13.9612667"><ele>3.0</ele><time>2026-04-11T06:44:53.859Z</time></trkpt><trkpt lat="41.0095767" lon="13.96122"><ele>3.0</ele><time>2026-04-11T06:44:54.861Z</time></trkpt><trkpt lat="41.009635" lon="13.9611717"><ele>2.9999999999999996</ele><time>2026-04-11T06:44:55.859Z</time></trkpt><trkpt lat="41.009695" lon="13.9611217"><ele>3.0</ele><time>2026-04-11T06:44:56.859Z</time></trkpt><trkpt lat="41.0097533" lon="13.96107"><ele>2.9999999999999996</ele><time>2026-04-11T06:44:57.857Z</time></trkpt><trkpt lat="41.0098117" lon="13.96102"><ele>3.0</ele><time>2026-04-11T06:44:58.858Z</time></trkpt><trkpt lat="41.00987" lon="13.9609717"><ele>3.0</ele><time>2026-04-11T06:44:59.86Z</time></trkpt><trkpt lat="41.00993" lon="13.960925"><ele>3.0</ele><time>2026-04-11T06:45:00.858Z</time></trkpt><trkpt lat="41.00999" lon="13.96088"><ele>3.0</ele><time>2026-04-11T06:45:01.859Z</time></trkpt><trkpt lat="41.0100483" lon="13.960835"><ele>2.9999999999999996</ele><time>2026-04-11T06:45:02.858Z</time></trkpt><trkpt lat="41.0101067" lon="13.960785"><ele>3.0</ele><time>2026-04-11T06:45:03.859Z</time></trkpt><trkpt lat="41.0101667" lon="13.9607333"><ele>2.9999999999999996</ele><time>2026-04-11T06:45:04.859Z</time></trkpt><trkpt lat="41.010225" lon="13.960685"><ele>3.0</ele><time>2026-04-11T06:45:05.859Z</time></trkpt><trkpt lat="41.0102833" lon="13.960635"><ele>3.0</ele><time>2026-04-11T06:45:06.859Z</time></trkpt><trkpt lat="41.01034" lon="13.960585"><ele>3.0</ele><time>2026-04-11T06:45:07.859Z</time></trkpt><trkpt lat="41.0104" lon="13.9605367"><ele>3.0</ele><time>2026-04-11T06:45:08.859Z</time></trkpt><trkpt lat="41.0104583" lon="13.9604867"><ele>2.9999999999999996</ele><time>2026-04-11T06:45:09.858Z</time></trkpt><trkpt lat="41.0105167" lon="13.9604383"><ele>3.0</ele><time>2026-04-11T06:45:10.858Z</time></trkpt><trkpt lat="41.010575" lon="13.9603883"><ele>2.9999999999999996</ele><time>2026-04-11T06:45:11.86Z</time></trkpt><trkpt lat="41.0106333" lon="13.96034"><ele>3.0</ele><time>2026-04-11T06:45:12.86Z</time></trkpt><trkpt lat="41.0106917" lon="13.9602917"><ele>3.0</ele><time>2026-04-11T06:45:13.859Z</time></trkpt><trkpt lat="41.01075" lon="13.9602467"><ele>3.0</ele><time>2026-04-11T06:45:14.86Z</time></trkpt><trkpt lat="41.0108117" lon="13.9602"><ele>3.0</ele><time>2026-04-11T06:45:15.859Z</time></trkpt><trkpt lat="41.010875" lon="13.9601517"><ele>2.9999999999999996</ele><time>2026-04-11T06:45:16.859Z</time></trkpt><trkpt lat="41.0109367" lon="13.9601017"><ele>3.0</ele><time>2026-04-11T06:45:17.858Z</time></trkpt><trkpt lat="41.0109967" lon="13.960055"><ele>2.9999999999999996</ele><time>2026-04-11T06:45:18.857Z</time></trkpt><trkpt lat="41.0110567" lon="13.9600033"><ele>3.0</ele><time>2026-04-11T06:45:19.861Z</time></trkpt><trkpt lat="41.011115" lon="13.9599517"><ele>3.0</ele><time>2026-04-11T06:45:20.858Z</time></trkpt><trkpt lat="41.0111733" lon="13.9599"><ele>3.0</ele><time>2026-04-11T06:45:21.858Z</time></trkpt><trkpt lat="41.0112317" lon="13.9598467"><ele>3.0</ele><time>2026-04-11T06:45:22.859Z</time></trkpt><trkpt lat="41.0112933" lon="13.9597967"><ele>2.9999999999999996</ele><time>2026-04-11T06:45:23.859Z</time></trkpt><trkpt lat="41.0113567" lon="13.9597467"><ele>3.0</ele><time>2026-04-11T06:45:24.858Z</time></trkpt><trkpt lat="41.0114183" lon="13.9596983"><ele>2.9999999999999996</ele><time>2026-04-11T06:45:25.857Z</time></trkpt><trkpt lat="41.0114817" lon="13.9596517"><ele>3.0</ele><time>2026-04-11T06:45:26.859Z</time></trkpt><trkpt lat="41.0115433" lon="13.9596"><ele>3.0</ele><time>2026-04-11T06:45:27.858Z</time></trkpt><trkpt lat="41.011605" lon="13.9595467"><ele>3.0</ele><time>2026-04-11T06:45:28.859Z</time></trkpt><trkpt lat="41.0116667" lon="13.9594983"><ele>3.0</ele><time>2026-04-11T06:45:29.859Z</time></trkpt><trkpt lat="41.01173" lon="13.9594533"><ele>2.9999999999999996</ele><time>2026-04-11T06:45:30.859Z</time></trkpt><trkpt lat="41.0117933" lon="13.9594033"><ele>3.0</ele><time>2026-04-11T06:45:31.859Z</time></trkpt><trkpt lat="41.0118567" lon="13.9593567"><ele>3.1428571428571423</ele><time>2026-04-11T06:45:32.858Z</time></trkpt><trkpt lat="41.0119167" lon="13.9593033"><ele>3.2857142857142856</ele><time>2026-04-11T06:45:33.858Z</time></trkpt><trkpt lat="41.0119783" lon="13.9592533"><ele>3.4285714285714284</ele><time>2026-04-11T06:45:34.858Z</time></trkpt><trkpt lat="41.0120417" lon="13.959205"><ele>3.571428571428571</ele><time>2026-04-11T06:45:35.858Z</time></trkpt><trkpt lat="41.0121017" lon="13.9591567"><ele>3.714285714285714</ele><time>2026-04-11T06:45:36.858Z</time></trkpt><trkpt lat="41.0121617" lon="13.959105"><ele>3.8571428571428568</ele><time>2026-04-11T06:45:37.857Z</time></trkpt><trkpt lat="41.0122233" lon="13.9590533"><ele>4.0</ele><time>2026-04-11T06:45:38.86Z</time></trkpt><trkpt lat="41.012285" lon="13.9590017"><ele>4.0</ele><time>2026-04-11T06:45:39.859Z</time></trkpt><trkpt lat="41.0123483" lon="13.9589517"><ele>3.9999999999999996</ele><time>2026-04-11T06:45:40.861Z</time></trkpt><trkpt lat="41.0124117" lon="13.9589033"><ele>4.0</ele><time>2026-04-11T06:45:41.859Z</time></trkpt><trkpt lat="41.0124767" lon="13.9588567"><ele>4.0</ele><time>2026-04-11T06:45:42.859Z</time></trkpt><trkpt lat="41.0125383" lon="13.9588083"><ele>3.9999999999999996</ele><time>2026-04-11T06:45:43.858Z</time></trkpt><trkpt lat="41.0126" lon="13.95876"><ele>4.0</ele><time>2026-04-11T06:45:44.859Z</time></trkpt><trkpt lat="41.0126617" lon="13.958715"><ele>4.0</ele><time>2026-04-11T06:45:45.862Z</time></trkpt><trkpt lat="41.0127233" lon="13.95867"><ele>4.0</ele><time>2026-04-11T06:45:46.859Z</time></trkpt><trkpt lat="41.012785" lon="13.9586183"><ele>3.9999999999999996</ele><time>2026-04-11T06:45:47.858Z</time></trkpt><trkpt lat="41.0128433" lon="13.958565"><ele>4.0</ele><time>2026-04-11T06:45:48.859Z</time></trkpt><trkpt lat="41.0129017" lon="13.9585083"><ele>4.0</ele><time>2026-04-11T06:45:49.859Z</time></trkpt><trkpt lat="41.0129583" lon="13.958455"><ele>3.9999999999999996</ele><time>2026-04-11T06:45:50.859Z</time></trkpt><trkpt lat="41.0130183" lon="13.958405"><ele>4.0</ele><time>2026-04-11T06:45:51.86Z</time></trkpt><trkpt lat="41.01308" lon="13.9583517"><ele>4.0</ele><time>2026-04-11T06:45:52.859Z</time></trkpt><trkpt lat="41.01314" lon="13.9582983"><ele>4.0</ele><time>2026-04-11T06:45:53.859Z</time></trkpt><trkpt lat="41.0132017" lon="13.9582433"><ele>3.9999999999999996</ele><time>2026-04-11T06:45:54.86Z</time></trkpt><trkpt lat="41.0132633" lon="13.95819"><ele>4.0</ele><time>2026-04-11T06:45:55.86Z</time></trkpt><trkpt lat="41.0133233" lon="13.9581367"><ele>4.0</ele><time>2026-04-11T06:45:56.859Z</time></trkpt><trkpt lat="41.013385" lon="13.9580867"><ele>3.9999999999999996</ele><time>2026-04-11T06:45:57.859Z</time></trkpt><trkpt lat="41.0134467" lon="13.95804"><ele>4.0</ele><time>2026-04-11T06:45:58.857Z</time></trkpt><trkpt lat="41.013505" lon="13.9579917"><ele>4.0</ele><time>2026-04-11T06:45:59.86Z</time></trkpt><trkpt lat="41.0135633" lon="13.957945"><ele>3.714285714285714</ele><time>2026-04-11T06:46:00.86Z</time></trkpt><trkpt lat="41.0136233" lon="13.957895"><ele>3.428571428571428</ele><time>2026-04-11T06:46:01.858Z</time></trkpt><trkpt lat="41.0136817" lon="13.9578483"><ele>3.142857142857143</ele><time>2026-04-11T06:46:02.859Z</time></trkpt><trkpt lat="41.0137417" lon="13.9577967"><ele>2.8571428571428568</ele><time>2026-04-11T06:46:03.859Z</time></trkpt><trkpt lat="41.0138017" lon="13.95775"><ele>2.571428571428571</ele><time>2026-04-11T06:46:04.858Z</time></trkpt><trkpt lat="41.0138633" lon="13.9577"><ele>2.2857142857142856</ele><time>2026-04-11T06:46:05.858Z</time></trkpt><trkpt lat="41.0139267" lon="13.95765"><ele>2.0</ele><time>2026-04-11T06:46:06.86Z</time></trkpt><trkpt lat="41.013985" lon="13.9575967"><ele>2.0</ele><time>2026-04-11T06:46:07.86Z</time></trkpt><trkpt lat="41.0140467" lon="13.9575433"><ele>1.9999999999999998</ele><time>2026-04-11T06:46:08.86Z</time></trkpt><trkpt lat="41.0141083" lon="13.9574967"><ele>2.0</ele><time>2026-04-11T06:46:09.858Z</time></trkpt><trkpt lat="41.0141683" lon="13.957445"><ele>2.0</ele><time>2026-04-11T06:46:10.858Z</time></trkpt><trkpt lat="41.0142267" lon="13.957395"><ele>1.9999999999999998</ele><time>2026-04-11T06:46:11.86Z</time></trkpt><trkpt lat="41.0142833" lon="13.9573517"><ele>2.0</ele><time>2026-04-11T06:46:12.86Z</time></trkpt><trkpt lat="41.01434" lon="13.9573117"><ele>2.0</ele><time>2026-04-11T06:46:13.859Z</time></trkpt><trkpt lat="41.014445" lon="13.9572267"><ele>2.0</ele><time>2026-04-11T06:46:15.858Z</time></trkpt><trkpt lat="41.014545" lon="13.9571283"><ele>2.0</ele><time>2026-04-11T06:46:17.86Z</time></trkpt><trkpt lat="41.0146517" lon="13.9570283"><ele>2.0</ele><time>2026-04-11T06:46:19.86Z</time></trkpt><trkpt lat="41.0147083" lon="13.9569817"><ele>2.0</ele><time>2026-04-11T06:46:20.858Z</time></trkpt><trkpt lat="41.0147667" lon="13.9569367"><ele>2.0</ele><time>2026-04-11T06:46:21.859Z</time></trkpt><trkpt lat="41.014825" lon="13.9568883"><ele>2.0</ele><time>2026-04-11T06:46:22.86Z</time></trkpt><trkpt lat="41.0148817" lon="13.9568417"><ele>1.9999999999999998</ele><time>2026-04-11T06:46:23.86Z</time></trkpt><trkpt lat="41.014935" lon="13.956795"><ele>2.0</ele><time>2026-04-11T06:46:24.861Z</time></trkpt><trkpt lat="41.0149917" lon="13.9567483"><ele>2.0</ele><time>2026-04-11T06:46:25.859Z</time></trkpt><trkpt lat="41.0150467" lon="13.9567033"><ele>1.9999999999999998</ele><time>2026-04-11T06:46:26.859Z</time></trkpt><trkpt lat="41.015105" lon="13.9566567"><ele>2.0</ele><time>2026-04-11T06:46:27.859Z</time></trkpt><trkpt lat="41.015165" lon="13.9566083"><ele>2.0</ele><time>2026-04-11T06:46:28.859Z</time></trkpt><trkpt lat="41.015225" lon="13.95656"><ele>2.142857142857143</ele><time>2026-04-11T06:46:29.859Z</time></trkpt><trkpt lat="41.0152817" lon="13.9565067"><ele>2.2857142857142856</ele><time>2026-04-11T06:46:30.858Z</time></trkpt><trkpt lat="41.0153433" lon="13.95646"><ele>2.4285714285714284</ele><time>2026-04-11T06:46:31.858Z</time></trkpt><trkpt lat="41.0154067" lon="13.956415"><ele>2.571428571428571</ele><time>2026-04-11T06:46:32.859Z</time></trkpt><trkpt lat="41.0154683" lon="13.9563667"><ele>2.7142857142857144</ele><time>2026-04-11T06:46:33.857Z</time></trkpt><trkpt lat="41.0155283" lon="13.9563167"><ele>2.8571428571428568</ele><time>2026-04-11T06:46:34.859Z</time></trkpt><trkpt lat="41.0155933" lon="13.9562733"><ele>3.0</ele><time>2026-04-11T06:46:35.862Z</time></trkpt><trkpt lat="41.015655" lon="13.956225"><ele>2.9999999999999996</ele><time>2026-04-11T06:46:36.859Z</time></trkpt><trkpt lat="41.0157167" lon="13.9561767"><ele>3.0</ele><time>2026-04-11T06:46:37.859Z</time></trkpt><trkpt lat="41.0157767" lon="13.9561267"><ele>3.0</ele><time>2026-04-11T06:46:38.857Z</time></trkpt><trkpt lat="41.0158383" lon="13.9560767"><ele>3.0</ele><time>2026-04-11T06:46:39.858Z</time></trkpt><trkpt lat="41.0159" lon="13.9560233"><ele>3.0</ele><time>2026-04-11T06:46:40.86Z</time></trkpt><trkpt lat="41.0159567" lon="13.9559733"><ele>2.9999999999999996</ele><time>2026-04-11T06:46:41.859Z</time></trkpt><trkpt lat="41.0160133" lon="13.9559217"><ele>3.0</ele><time>2026-04-11T06:46:42.859Z</time></trkpt><trkpt lat="41.0160717" lon="13.9558717"><ele>3.1428571428571423</ele><time>2026-04-11T06:46:43.859Z</time></trkpt><trkpt lat="41.0161267" lon="13.955825"><ele>3.2857142857142856</ele><time>2026-04-11T06:46:44.861Z</time></trkpt><trkpt lat="41.016185" lon="13.9557783"><ele>3.4285714285714284</ele><time>2026-04-11T06:46:45.858Z</time></trkpt><trkpt lat="41.0162433" lon="13.9557267"><ele>3.571428571428571</ele><time>2026-04-11T06:46:46.858Z</time></trkpt><trkpt lat="41.0163017" lon="13.955675"><ele>3.714285714285714</ele><time>2026-04-11T06:46:47.859Z</time></trkpt><trkpt lat="41.0163583" lon="13.9556233"><ele>3.8571428571428568</ele><time>2026-04-11T06:46:48.858Z</time></trkpt><trkpt lat="41.0164167" lon="13.9555767"><ele>4.0</ele><time>2026-04-11T06:46:49.86Z</time></trkpt><trkpt lat="41.0164767" lon="13.9555283"><ele>4.0</ele><time>2026-04-11T06:46:50.86Z</time></trkpt><trkpt lat="41.0165383" lon="13.955475"><ele>3.9999999999999996</ele><time>2026-04-11T06:46:51.861Z</time></trkpt><trkpt lat="41.016595" lon="13.9554183"><ele>4.0</ele><time>2026-04-11T06:46:52.858Z</time></trkpt><trkpt lat="41.0166567" lon="13.955365"><ele>4.0</ele><time>2026-04-11T06:46:53.86Z</time></trkpt><trkpt lat="41.01672" lon="13.9553133"><ele>3.9999999999999996</ele><time>2026-04-11T06:46:54.859Z</time></trkpt><trkpt lat="41.016785" lon="13.955265"><ele>4.0</ele><time>2026-04-11T06:46:55.859Z</time></trkpt><trkpt lat="41.0168483" lon="13.9552167"><ele>4.0</ele><time>2026-04-11T06:46:56.859Z</time></trkpt><trkpt lat="41.0169083" lon="13.9551667"><ele>4.0</ele><time>2026-04-11T06:46:57.858Z</time></trkpt><trkpt lat="41.0169667" lon="13.9551183"><ele>3.9999999999999996</ele><time>2026-04-11T06:46:58.86Z</time></trkpt><trkpt lat="41.017025" lon="13.95507"><ele>4.0</ele><time>2026-04-11T06:46:59.857Z</time></trkpt><trkpt lat="41.017085" lon="13.9550217"><ele>4.0</ele><time>2026-04-11T06:47:00.859Z</time></trkpt><trkpt lat="41.0171417" lon="13.95497"><ele>3.9999999999999996</ele><time>2026-04-11T06:47:01.86Z</time></trkpt><trkpt lat="41.0171983" lon="13.9549167"><ele>4.0</ele><time>2026-04-11T06:47:02.857Z</time></trkpt><trkpt lat="41.0172533" lon="13.9548667"><ele>4.0</ele><time>2026-04-11T06:47:03.859Z</time></trkpt><trkpt lat="41.017315" lon="13.9548217"><ele>4.0</ele><time>2026-04-11T06:47:04.86Z</time></trkpt><trkpt lat="41.0173767" lon="13.9547783"><ele>3.9999999999999996</ele><time>2026-04-11T06:47:05.858Z</time></trkpt><trkpt lat="41.0174367" lon="13.9547333"><ele>4.0</ele><time>2026-04-11T06:47:06.859Z</time></trkpt><trkpt lat="41.0175" lon="13.9546883"><ele>4.0</ele><time>2026-04-11T06:47:07.858Z</time></trkpt><trkpt lat="41.01756" lon="13.9546417"><ele>3.9999999999999996</ele><time>2026-04-11T06:47:08.859Z</time></trkpt><trkpt lat="41.0176183" lon="13.9545917"><ele>4.0</ele><time>2026-04-11T06:47:09.857Z</time></trkpt><trkpt lat="41.0176733" lon="13.9545433"><ele>4.0</ele><time>2026-04-11T06:47:10.858Z</time></trkpt><trkpt lat="41.01773" lon="13.9544933"><ele>4.0</ele><time>2026-04-11T06:47:11.86Z</time></trkpt><trkpt lat="41.017785" lon="13.9544433"><ele>3.9999999999999996</ele><time>2026-04-11T06:47:12.859Z</time></trkpt><trkpt lat="41.0178417" lon="13.954395"><ele>4.0</ele><time>2026-04-11T06:47:13.86Z</time></trkpt><trkpt lat="41.0178983" lon="13.95435"><ele>4.0</ele><time>2026-04-11T06:47:14.859Z</time></trkpt><trkpt lat="41.0179533" lon="13.9543067"><ele>3.9999999999999996</ele><time>2026-04-11T06:47:15.858Z</time></trkpt><trkpt lat="41.01801" lon="13.95426"><ele>4.0</ele><time>2026-04-11T06:47:16.859Z</time></trkpt><trkpt lat="41.018065" lon="13.9542133"><ele>4.0</ele><time>2026-04-11T06:47:17.858Z</time></trkpt><trkpt lat="41.0181233" lon="13.954165"><ele>4.0</ele><time>2026-04-11T06:47:18.859Z</time></trkpt><trkpt lat="41.0181817" lon="13.9541183"><ele>3.9999999999999996</ele><time>2026-04-11T06:47:19.859Z</time></trkpt><trkpt lat="41.0182417" lon="13.95407"><ele>4.0</ele><time>2026-04-11T06:47:20.86Z</time></trkpt><trkpt lat="41.0183017" lon="13.95402"><ele>4.0</ele><time>2026-04-11T06:47:21.86Z</time></trkpt><trkpt lat="41.0183583" lon="13.9539717"><ele>3.9999999999999996</ele><time>2026-04-11T06:47:22.858Z</time></trkpt><trkpt lat="41.018415" lon="13.9539233"><ele>4.0</ele><time>2026-04-11T06:47:23.86Z</time></trkpt><trkpt lat="41.0184683" lon="13.9538783"><ele>4.0</ele><time>2026-04-11T06:47:24.86Z</time></trkpt><trkpt lat="41.0185217" lon="13.9538333"><ele>4.0</ele><time>2026-04-11T06:47:25.858Z</time></trkpt><trkpt lat="41.018575" lon="13.9537867"><ele>3.9999999999999996</ele><time>2026-04-11T06:47:26.859Z</time></trkpt><trkpt lat="41.01863" lon="13.9537383"><ele>4.0</ele><time>2026-04-11T06:47:27.859Z</time></trkpt><trkpt lat="41.0186833" lon="13.9536933"><ele>4.0</ele><time>2026-04-11T06:47:28.86Z</time></trkpt><trkpt lat="41.0187417" lon="13.9536467"><ele>3.9999999999999996</ele><time>2026-04-11T06:47:29.859Z</time></trkpt><trkpt lat="41.0187983" lon="13.9535983"><ele>4.0</ele><time>2026-04-11T06:47:30.859Z</time></trkpt><trkpt lat="41.0188583" lon="13.95355"><ele>4.0</ele><time>2026-04-11T06:47:31.86Z</time></trkpt><trkpt lat="41.0189183" lon="13.9535"><ele>4.0</ele><time>2026-04-11T06:47:32.86Z</time></trkpt><trkpt lat="41.01898" lon="13.9534483"><ele>3.9999999999999996</ele><time>2026-04-11T06:47:33.858Z</time></trkpt><trkpt lat="41.0190433" lon="13.9534"><ele>4.0</ele><time>2026-04-11T06:47:34.86Z</time></trkpt><trkpt lat="41.0191067" lon="13.95335"><ele>4.0</ele><time>2026-04-11T06:47:35.859Z</time></trkpt><trkpt lat="41.01917" lon="13.9533017"><ele>3.9999999999999996</ele><time>2026-04-11T06:47:36.86Z</time></trkpt><trkpt lat="41.0192333" lon="13.9532567"><ele>4.0</ele><time>2026-04-11T06:47:37.86Z</time></trkpt><trkpt lat="41.0192967" lon="13.95321"><ele>4.0</ele><time>2026-04-11T06:47:38.86Z</time></trkpt><trkpt lat="41.0193583" lon="13.9531633"><ele>3.8571428571428568</ele><time>2026-04-11T06:47:39.859Z</time></trkpt><trkpt lat="41.01942" lon="13.9531133"><ele>3.714285714285714</ele><time>2026-04-11T06:47:40.86Z</time></trkpt><trkpt lat="41.0194783" lon="13.9530633"><ele>3.571428571428571</ele><time>2026-04-11T06:47:41.86Z</time></trkpt><trkpt lat="41.0195383" lon="13.9530133"><ele>3.4285714285714284</ele><time>2026-04-11T06:47:42.859Z</time></trkpt><trkpt lat="41.0195983" lon="13.9529633"><ele>3.2857142857142856</ele><time>2026-04-11T06:47:43.86Z</time></trkpt><trkpt lat="41.0196583" lon="13.9529183"><ele>3.1428571428571423</ele><time>2026-04-11T06:47:44.86Z</time></trkpt><trkpt lat="41.019715" lon="13.9528667"><ele>3.0</ele><time>2026-04-11T06:47:45.86Z</time></trkpt><trkpt lat="41.0197717" lon="13.95281"><ele>2.9999999999999996</ele><time>2026-04-11T06:47:46.86Z</time></trkpt><trkpt lat="41.0198317" lon="13.9527617"><ele>3.0</ele><time>2026-04-11T06:47:47.86Z</time></trkpt><trkpt lat="41.0198917" lon="13.9527117"><ele>3.0</ele><time>2026-04-11T06:47:48.859Z</time></trkpt><trkpt lat="41.01995" lon="13.9526617"><ele>3.0</ele><time>2026-04-11T06:47:49.86Z</time></trkpt><trkpt lat="41.0200083" lon="13.95261"><ele>3.0</ele><time>2026-04-11T06:47:50.859Z</time></trkpt><trkpt lat="41.02007" lon="13.9525617"><ele>2.9999999999999996</ele><time>2026-04-11T06:47:51.858Z</time></trkpt><trkpt lat="41.0201317" lon="13.9525117"><ele>3.0</ele><time>2026-04-11T06:47:52.859Z</time></trkpt><trkpt lat="41.02019" lon="13.9524583"><ele>2.9999999999999996</ele><time>2026-04-11T06:47:53.859Z</time></trkpt><trkpt lat="41.02025" lon="13.9524083"><ele>3.0</ele><time>2026-04-11T06:47:54.858Z</time></trkpt><trkpt lat="41.02031" lon="13.95236"><ele>3.0</ele><time>2026-04-11T06:47:55.858Z</time></trkpt><trkpt lat="41.02037" lon="13.9523133"><ele>3.0</ele><time>2026-04-11T06:47:56.859Z</time></trkpt><trkpt lat="41.0204333" lon="13.9522633"><ele>3.0</ele><time>2026-04-11T06:47:57.859Z</time></trkpt><trkpt lat="41.0204917" lon="13.95221"><ele>2.9999999999999996</ele><time>2026-04-11T06:47:58.858Z</time></trkpt><trkpt lat="41.0205533" lon="13.9521567"><ele>3.0</ele><time>2026-04-11T06:47:59.859Z</time></trkpt><trkpt lat="41.0206133" lon="13.952105"><ele>2.9999999999999996</ele><time>2026-04-11T06:48:00.859Z</time></trkpt><trkpt lat="41.020675" lon="13.9520533"><ele>3.0</ele><time>2026-04-11T06:48:01.86Z</time></trkpt><trkpt lat="41.0207367" lon="13.9520017"><ele>3.0</ele><time>2026-04-11T06:48:02.86Z</time></trkpt><trkpt lat="41.0208" lon="13.9519517"><ele>3.0</ele><time>2026-04-11T06:48:03.858Z</time></trkpt><trkpt lat="41.0208633" lon="13.9519033"><ele>3.0</ele><time>2026-04-11T06:48:04.859Z</time></trkpt><trkpt lat="41.020925" lon="13.951855"><ele>2.9999999999999996</ele><time>2026-04-11T06:48:05.859Z</time></trkpt><trkpt lat="41.02099" lon="13.9518083"><ele>3.0</ele><time>2026-04-11T06:48:06.859Z</time></trkpt><trkpt lat="41.0210533" lon="13.9517617"><ele>2.8571428571428568</ele><time>2026-04-11T06:48:07.86Z</time></trkpt><trkpt lat="41.0211167" lon="13.9517083"><ele>2.7142857142857144</ele><time>2026-04-11T06:48:08.858Z</time></trkpt><trkpt lat="41.02118" lon="13.9516567"><ele>2.571428571428571</ele><time>2026-04-11T06:48:09.859Z</time></trkpt><trkpt lat="41.0212433" lon="13.951605"><ele>2.4285714285714284</ele><time>2026-04-11T06:48:10.859Z</time></trkpt><trkpt lat="41.0213067" lon="13.9515567"><ele>2.2857142857142856</ele><time>2026-04-11T06:48:11.86Z</time></trkpt><trkpt lat="41.0213683" lon="13.95151"><ele>2.142857142857143</ele><time>2026-04-11T06:48:12.859Z</time></trkpt><trkpt lat="41.02143" lon="13.95146"><ele>2.0</ele><time>2026-04-11T06:48:13.86Z</time></trkpt><trkpt lat="41.0214933" lon="13.9514083"><ele>2.142857142857143</ele><time>2026-04-11T06:48:14.86Z</time></trkpt><trkpt lat="41.021555" lon="13.9513567"><ele>2.2857142857142856</ele><time>2026-04-11T06:48:15.857Z</time></trkpt><trkpt lat="41.021615" lon="13.9513067"><ele>2.4285714285714284</ele><time>2026-04-11T06:48:16.859Z</time></trkpt><trkpt lat="41.0216767" lon="13.9512517"><ele>2.571428571428571</ele><time>2026-04-11T06:48:17.86Z</time></trkpt><trkpt lat="41.0217383" lon="13.9511967"><ele>2.7142857142857144</ele><time>2026-04-11T06:48:18.859Z</time></trkpt><trkpt lat="41.0218" lon="13.9511417"><ele>2.8571428571428568</ele><time>2026-04-11T06:48:19.859Z</time></trkpt><trkpt lat="41.0218633" lon="13.9510917"><ele>3.0</ele><time>2026-04-11T06:48:20.859Z</time></trkpt><trkpt lat="41.0219267" lon="13.9510383"><ele>2.9999999999999996</ele><time>2026-04-11T06:48:21.858Z</time></trkpt><trkpt lat="41.02199" lon="13.95099"><ele>3.0</ele><time>2026-04-11T06:48:22.86Z</time></trkpt><trkpt lat="41.0220583" lon="13.9509433"><ele>3.0</ele><time>2026-04-11T06:48:23.86Z</time></trkpt><trkpt lat="41.0221233" lon="13.9508917"><ele>3.0</ele><time>2026-04-11T06:48:24.86Z</time></trkpt><trkpt lat="41.0221867" lon="13.95084"><ele>3.0</ele><time>2026-04-11T06:48:25.858Z</time></trkpt><trkpt lat="41.0222483" lon="13.9507883"><ele>2.9999999999999996</ele><time>2026-04-11T06:48:26.858Z</time></trkpt><trkpt lat="41.0223117" lon="13.95074"><ele>3.0</ele><time>2026-04-11T06:48:27.859Z</time></trkpt><trkpt lat="41.022375" lon="13.9506917"><ele>3.1428571428571423</ele><time>2026-04-11T06:48:28.86Z</time></trkpt><trkpt lat="41.0224333" lon="13.9506417"><ele>3.2857142857142856</ele><time>2026-04-11T06:48:29.86Z</time></trkpt><trkpt lat="41.0224933" lon="13.95059"><ele>3.4285714285714284</ele><time>2026-04-11T06:48:30.86Z</time></trkpt><trkpt lat="41.02255" lon="13.9505417"><ele>3.571428571428571</ele><time>2026-04-11T06:48:31.858Z</time></trkpt><trkpt lat="41.0226067" lon="13.950495"><ele>3.714285714285714</ele><time>2026-04-11T06:48:32.86Z</time></trkpt><trkpt lat="41.0226667" lon="13.9504517"><ele>3.8571428571428568</ele><time>2026-04-11T06:48:33.859Z</time></trkpt><trkpt lat="41.0227283" lon="13.950415"><ele>4.0</ele><time>2026-04-11T06:48:34.858Z</time></trkpt><trkpt lat="41.0227917" lon="13.9503817"><ele>3.6666666666666665</ele><time>2026-04-11T06:48:35.86Z</time></trkpt><trkpt lat="41.0228567" lon="13.9503517"><ele>3.333333333333333</ele><time>2026-04-11T06:48:36.859Z</time></trkpt><trkpt lat="41.0229233" lon="13.9503233"><ele>3.0</ele><time>2026-04-11T06:48:37.86Z</time></trkpt><trkpt lat="41.0229867" lon="13.9502967"><ele>2.6666666666666665</ele><time>2026-04-11T06:48:38.859Z</time></trkpt><trkpt lat="41.02305" lon="13.950275"><ele>2.333333333333333</ele><time>2026-04-11T06:48:39.858Z</time></trkpt><trkpt lat="41.0231117" lon="13.9502567"><ele>2.0</ele><time>2026-04-11T06:48:40.859Z</time></trkpt><trkpt lat="41.0232217" lon="13.9501883"><ele>2.0</ele><time>2026-04-11T06:48:42.859Z</time></trkpt><trkpt lat="41.0232917" lon="13.9500683"><ele>2.0</ele><time>2026-04-11T06:48:44.86Z</time></trkpt><trkpt lat="41.02332" lon="13.9499233"><ele>2.0</ele><time>2026-04-11T06:48:46.86Z</time></trkpt><trkpt lat="41.0233483" lon="13.94979"><ele>2.0</ele><time>2026-04-11T06:48:48.86Z</time></trkpt><trkpt lat="41.0234183" lon="13.9496967"><ele>2.0</ele><time>2026-04-11T06:48:50.859Z</time></trkpt><trkpt lat="41.0235217" lon="13.949635"><ele>1.9999999999999998</ele><time>2026-04-11T06:48:52.86Z</time></trkpt><trkpt lat="41.0236267" lon="13.949555"><ele>2.0</ele><time>2026-04-11T06:48:54.86Z</time></trkpt><trkpt lat="41.02368" lon="13.94951"><ele>2.0</ele><time>2026-04-11T06:48:55.86Z</time></trkpt><trkpt lat="41.023735" lon="13.9494633"><ele>2.0</ele><time>2026-04-11T06:48:56.858Z</time></trkpt><trkpt lat="41.0237917" lon="13.94942"><ele>1.9999999999999998</ele><time>2026-04-11T06:48:57.859Z</time></trkpt><trkpt lat="41.0238483" lon="13.9493733"><ele>2.0</ele><time>2026-04-11T06:48:58.86Z</time></trkpt><trkpt lat="41.023905" lon="13.94932"><ele>2.0</ele><time>2026-04-11T06:48:59.858Z</time></trkpt><trkpt lat="41.0239617" lon="13.9492733"><ele>1.9999999999999998</ele><time>2026-04-11T06:49:00.86Z</time></trkpt><trkpt lat="41.0240233" lon="13.94923"><ele>2.0</ele><time>2026-04-11T06:49:01.858Z</time></trkpt><trkpt lat="41.0240833" lon="13.9491883"><ele>2.0</ele><time>2026-04-11T06:49:02.86Z</time></trkpt><trkpt lat="41.02414" lon="13.9491417"><ele>1.9999999999999998</ele><time>2026-04-11T06:49:03.859Z</time></trkpt><trkpt lat="41.0241967" lon="13.9490933"><ele>2.0</ele><time>2026-04-11T06:49:04.859Z</time></trkpt><trkpt lat="41.024255" lon="13.9490433"><ele>2.0</ele><time>2026-04-11T06:49:05.858Z</time></trkpt><trkpt lat="41.0243067" lon="13.9489933"><ele>2.4285714285714284</ele><time>2026-04-11T06:49:06.86Z</time></trkpt><trkpt lat="41.0243617" lon="13.9489417"><ele>2.8571428571428568</ele><time>2026-04-11T06:49:07.859Z</time></trkpt><trkpt lat="41.02442" lon="13.9488967"><ele>3.2857142857142856</ele><time>2026-04-11T06:49:08.86Z</time></trkpt><trkpt lat="41.0244817" lon="13.9488567"><ele>3.7142857142857144</ele><time>2026-04-11T06:49:09.859Z</time></trkpt><trkpt lat="41.0245417" lon="13.9488117"><ele>4.142857142857143</ele><time>2026-04-11T06:49:10.86Z</time></trkpt><trkpt lat="41.0246017" lon="13.9487667"><ele>4.571428571428571</ele><time>2026-04-11T06:49:11.86Z</time></trkpt><trkpt lat="41.0246617" lon="13.9487217"><ele>5.0</ele><time>2026-04-11T06:49:12.859Z</time></trkpt><trkpt lat="41.02472" lon="13.9486767"><ele>5.0</ele><time>2026-04-11T06:49:13.859Z</time></trkpt><trkpt lat="41.0247767" lon="13.9486317"><ele>5.0</ele><time>2026-04-11T06:49:14.86Z</time></trkpt><trkpt lat="41.024835" lon="13.9485867"><ele>5.0</ele><time>2026-04-11T06:49:15.859Z</time></trkpt><trkpt lat="41.0248933" lon="13.9485383"><ele>5.0</ele><time>2026-04-11T06:49:16.86Z</time></trkpt><trkpt lat="41.0249517" lon="13.94849"><ele>5.0</ele><time>2026-04-11T06:49:17.86Z</time></trkpt><trkpt lat="41.02501" lon="13.948445"><ele>5.0</ele><time>2026-04-11T06:49:18.859Z</time></trkpt><trkpt lat="41.0250667" lon="13.9484"><ele>5.0</ele><time>2026-04-11T06:49:19.86Z</time></trkpt><trkpt lat="41.0251217" lon="13.948355"><ele>4.857142857142857</ele><time>2026-04-11T06:49:20.859Z</time></trkpt><trkpt lat="41.0251767" lon="13.9483083"><ele>4.714285714285714</ele><time>2026-04-11T06:49:21.858Z</time></trkpt><trkpt lat="41.0252317" lon="13.9482617"><ele>4.571428571428571</ele><time>2026-04-11T06:49:22.86Z</time></trkpt><trkpt lat="41.0252867" lon="13.948215"><ele>4.428571428571429</ele><time>2026-04-11T06:49:23.86Z</time></trkpt><trkpt lat="41.025345" lon="13.9481683"><ele>4.285714285714286</ele><time>2026-04-11T06:49:24.86Z</time></trkpt><trkpt lat="41.025405" lon="13.948125"><ele>4.142857142857142</ele><time>2026-04-11T06:49:25.86Z</time></trkpt><trkpt lat="41.0254617" lon="13.94808"><ele>4.0</ele><time>2026-04-11T06:49:26.859Z</time></trkpt><trkpt lat="41.0255183" lon="13.948035"><ele>4.0</ele><time>2026-04-11T06:49:27.858Z</time></trkpt><trkpt lat="41.025575" lon="13.9479917"><ele>3.9999999999999996</ele><time>2026-04-11T06:49:28.86Z</time></trkpt><trkpt lat="41.02563" lon="13.947945"><ele>4.0</ele><time>2026-04-11T06:49:29.86Z</time></trkpt><trkpt lat="41.0256867" lon="13.9478967"><ele>4.0</ele><time>2026-04-11T06:49:30.86Z</time></trkpt><trkpt lat="41.025745" lon="13.9478517"><ele>3.9999999999999996</ele><time>2026-04-11T06:49:31.858Z</time></trkpt><trkpt lat="41.0258" lon="13.947805"><ele>4.0</ele><time>2026-04-11T06:49:32.859Z</time></trkpt><trkpt lat="41.02586" lon="13.9477583"><ele>4.0</ele><time>2026-04-11T06:49:33.859Z</time></trkpt><trkpt lat="41.0259183" lon="13.9477117"><ele>3.8571428571428568</ele><time>2026-04-11T06:49:34.86Z</time></trkpt><trkpt lat="41.0259767" lon="13.9476617"><ele>3.714285714285714</ele><time>2026-04-11T06:49:35.859Z</time></trkpt><trkpt lat="41.0260333" lon="13.9476167"><ele>3.571428571428571</ele><time>2026-04-11T06:49:36.86Z</time></trkpt><trkpt lat="41.02609" lon="13.9475683"><ele>3.4285714285714284</ele><time>2026-04-11T06:49:37.859Z</time></trkpt><trkpt lat="41.0261483" lon="13.9475233"><ele>3.2857142857142856</ele><time>2026-04-11T06:49:38.86Z</time></trkpt><trkpt lat="41.0262067" lon="13.947475"><ele>3.1428571428571423</ele><time>2026-04-11T06:49:39.86Z</time></trkpt><trkpt lat="41.026265" lon="13.947425"><ele>3.0</ele><time>2026-04-11T06:49:40.859Z</time></trkpt><trkpt lat="41.0263233" lon="13.947375"><ele>2.8571428571428568</ele><time>2026-04-11T06:49:41.859Z</time></trkpt><trkpt lat="41.02638" lon="13.9473283"><ele>2.7142857142857144</ele><time>2026-04-11T06:49:42.86Z</time></trkpt><trkpt lat="41.0264367" lon="13.94728"><ele>2.571428571428571</ele><time>2026-04-11T06:49:43.86Z</time></trkpt><trkpt lat="41.0264933" lon="13.9472333"><ele>2.4285714285714284</ele><time>2026-04-11T06:49:44.861Z</time></trkpt><trkpt lat="41.0265483" lon="13.9471867"><ele>2.2857142857142856</ele><time>2026-04-11T06:49:45.86Z</time></trkpt><trkpt lat="41.0266033" lon="13.9471383"><ele>2.142857142857143</ele><time>2026-04-11T06:49:46.858Z</time></trkpt><trkpt lat="41.0266567" lon="13.9470867"><ele>2.0</ele><time>2026-04-11T06:49:47.86Z</time></trkpt><trkpt lat="41.02671" lon="13.9470417"><ele>2.2857142857142856</ele><time>2026-04-11T06:49:48.859Z</time></trkpt><trkpt lat="41.0267617" lon="13.9469917"><ele>2.571428571428571</ele><time>2026-04-11T06:49:49.86Z</time></trkpt><trkpt lat="41.026815" lon="13.9469433"><ele>2.8571428571428568</ele><time>2026-04-11T06:49:50.858Z</time></trkpt><trkpt lat="41.02687" lon="13.9468967"><ele>3.142857142857143</ele><time>2026-04-11T06:49:51.859Z</time></trkpt><trkpt lat="41.0269283" lon="13.9468533"><ele>3.428571428571428</ele><time>2026-04-11T06:49:52.86Z</time></trkpt><trkpt lat="41.0269867" lon="13.946805"><ele>3.714285714285714</ele><time>2026-04-11T06:49:53.859Z</time></trkpt><trkpt lat="41.027045" lon="13.9467517"><ele>4.0</ele><time>2026-04-11T06:49:54.859Z</time></trkpt><trkpt lat="41.0271" lon="13.9467"><ele>4.0</ele><time>2026-04-11T06:49:55.86Z</time></trkpt><trkpt lat="41.0271567" lon="13.9466483"><ele>3.9999999999999996</ele><time>2026-04-11T06:49:56.859Z</time></trkpt><trkpt lat="41.02721" lon="13.9465933"><ele>4.0</ele><time>2026-04-11T06:49:57.86Z</time></trkpt><trkpt lat="41.0272667" lon="13.9465383"><ele>4.0</ele><time>2026-04-11T06:49:58.859Z</time></trkpt><trkpt lat="41.0273217" lon="13.9464833"><ele>3.9999999999999996</ele><time>2026-04-11T06:49:59.859Z</time></trkpt><trkpt lat="41.02738" lon="13.9464333"><ele>4.0</ele><time>2026-04-11T06:50:00.86Z</time></trkpt><trkpt lat="41.0274383" lon="13.9463833"><ele>4.0</ele><time>2026-04-11T06:50:01.86Z</time></trkpt><trkpt lat="41.0274983" lon="13.9463317"><ele>4.0</ele><time>2026-04-11T06:50:02.859Z</time></trkpt><trkpt lat="41.027555" lon="13.9462783"><ele>3.9999999999999996</ele><time>2026-04-11T06:50:03.858Z</time></trkpt><trkpt lat="41.0276117" lon="13.94623"><ele>4.0</ele><time>2026-04-11T06:50:04.86Z</time></trkpt><trkpt lat="41.0276683" lon="13.9461817"><ele>4.0</ele><time>2026-04-11T06:50:05.858Z</time></trkpt><trkpt lat="41.0277233" lon="13.9461317"><ele>3.9999999999999996</ele><time>2026-04-11T06:50:06.86Z</time></trkpt><trkpt lat="41.0277817" lon="13.94608"><ele>4.0</ele><time>2026-04-11T06:50:07.859Z</time></trkpt><trkpt lat="41.0278417" lon="13.9460267"><ele>4.0</ele><time>2026-04-11T06:50:08.86Z</time></trkpt><trkpt lat="41.0279017" lon="13.945975"><ele>4.0</ele><time>2026-04-11T06:50:09.86Z</time></trkpt><trkpt lat="41.0279633" lon="13.945925"><ele>3.9999999999999996</ele><time>2026-04-11T06:50:10.859Z</time></trkpt><trkpt lat="41.0280183" lon="13.9458733"><ele>4.0</ele><time>2026-04-11T06:50:11.86Z</time></trkpt><trkpt lat="41.0280733" lon="13.9458183"><ele>4.0</ele><time>2026-04-11T06:50:12.86Z</time></trkpt><trkpt lat="41.0281283" lon="13.9457617"><ele>3.9999999999999996</ele><time>2026-04-11T06:50:13.86Z</time></trkpt><trkpt lat="41.0281833" lon="13.9457067"><ele>4.0</ele><time>2026-04-11T06:50:14.86Z</time></trkpt><trkpt lat="41.0282417" lon="13.9456583"><ele>4.0</ele><time>2026-04-11T06:50:15.858Z</time></trkpt><trkpt lat="41.0282983" lon="13.9456083"><ele>3.571428571428571</ele><time>2026-04-11T06:50:16.859Z</time></trkpt><trkpt lat="41.028355" lon="13.9455567"><ele>3.1428571428571423</ele><time>2026-04-11T06:50:17.859Z</time></trkpt><trkpt lat="41.0284117" lon="13.9455067"><ele>2.714285714285714</ele><time>2026-04-11T06:50:18.86Z</time></trkpt><trkpt lat="41.0284683" lon="13.945455"><ele>2.2857142857142856</ele><time>2026-04-11T06:50:19.86Z</time></trkpt><trkpt lat="41.0285267" lon="13.9454"><ele>1.857142857142857</ele><time>2026-04-11T06:50:20.86Z</time></trkpt><trkpt lat="41.028585" lon="13.9453467"><ele>1.4285714285714284</ele><time>2026-04-11T06:50:21.859Z</time></trkpt><trkpt lat="41.0286433" lon="13.94529"><ele>1.0</ele><time>2026-04-11T06:50:22.86Z</time></trkpt><trkpt lat="41.0287017" lon="13.945235"><ele>1.0</ele><time>2026-04-11T06:50:23.86Z</time></trkpt><trkpt lat="41.02876" lon="13.9451817"><ele>0.9999999999999999</ele><time>2026-04-11T06:50:24.859Z</time></trkpt><trkpt lat="41.02882" lon="13.9451267"><ele>1.0</ele><time>2026-04-11T06:50:25.86Z</time></trkpt><trkpt lat="41.0288783" lon="13.945075"><ele>1.0</ele><time>2026-04-11T06:50:26.86Z</time></trkpt><trkpt lat="41.028935" lon="13.9450233"><ele>0.9999999999999999</ele><time>2026-04-11T06:50:27.859Z</time></trkpt><trkpt lat="41.0289933" lon="13.9449717"><ele>1.0</ele><time>2026-04-11T06:50:28.859Z</time></trkpt><trkpt lat="41.02905" lon="13.9449183"><ele>1.0</ele><time>2026-04-11T06:50:29.86Z</time></trkpt><trkpt lat="41.0291083" lon="13.9448667"><ele>1.1428571428571428</ele><time>2026-04-11T06:50:30.86Z</time></trkpt><trkpt lat="41.029165" lon="13.9448133"><ele>1.2857142857142856</ele><time>2026-04-11T06:50:31.859Z</time></trkpt><trkpt lat="41.0292233" lon="13.9447617"><ele>1.4285714285714284</ele><time>2026-04-11T06:50:32.86Z</time></trkpt><trkpt lat="41.02928" lon="13.94471"><ele>1.5714285714285714</ele><time>2026-04-11T06:50:33.859Z</time></trkpt><trkpt lat="41.02934" lon="13.9446567"><ele>1.714285714285714</ele><time>2026-04-11T06:50:34.862Z</time></trkpt><trkpt lat="41.0293983" lon="13.9446"><ele>1.857142857142857</ele><time>2026-04-11T06:50:35.86Z</time></trkpt><trkpt lat="41.029455" lon="13.9445433"><ele>2.0</ele><time>2026-04-11T06:50:36.859Z</time></trkpt><trkpt lat="41.0295133" lon="13.9444883"><ele>2.0</ele><time>2026-04-11T06:50:37.859Z</time></trkpt><trkpt lat="41.0295733" lon="13.9444383"><ele>1.9999999999999998</ele><time>2026-04-11T06:50:38.858Z</time></trkpt><trkpt lat="41.0296317" lon="13.944385"><ele>2.0</ele><time>2026-04-11T06:50:39.858Z</time></trkpt><trkpt lat="41.02969" lon="13.9443317"><ele>2.0</ele><time>2026-04-11T06:50:40.861Z</time></trkpt><trkpt lat="41.0297517" lon="13.94428"><ele>1.9999999999999998</ele><time>2026-04-11T06:50:41.859Z</time></trkpt><trkpt lat="41.0298117" lon="13.944225"><ele>2.0</ele><time>2026-04-11T06:50:42.86Z</time></trkpt><trkpt lat="41.0298717" lon="13.9441733"><ele>2.0</ele><time>2026-04-11T06:50:43.859Z</time></trkpt><trkpt lat="41.0299333" lon="13.9441217"><ele>2.1666666666666665</ele><time>2026-04-11T06:50:44.859Z</time></trkpt><trkpt lat="41.0299933" lon="13.9440683"><ele>2.333333333333333</ele><time>2026-04-11T06:50:45.86Z</time></trkpt><trkpt lat="41.0300517" lon="13.944015"><ele>2.5</ele><time>2026-04-11T06:50:46.86Z</time></trkpt><trkpt lat="41.0301083" lon="13.9439633"><ele>2.6666666666666665</ele><time>2026-04-11T06:50:47.859Z</time></trkpt><trkpt lat="41.03016" lon="13.9439133"><ele>2.8333333333333335</ele><time>2026-04-11T06:50:48.86Z</time></trkpt><trkpt lat="41.0302167" lon="13.9438617"><ele>3.0</ele><time>2026-04-11T06:50:49.861Z</time></trkpt><trkpt lat="41.0303183" lon="13.943765"><ele>3.0</ele><time>2026-04-11T06:50:51.859Z</time></trkpt><trkpt lat="41.03037" lon="13.9437167"><ele>3.0</ele><time>2026-04-11T06:50:52.859Z</time></trkpt><trkpt lat="41.030475" lon="13.9436217"><ele>3.0</ele><time>2026-04-11T06:50:54.86Z</time></trkpt><trkpt lat="41.0305283" lon="13.9435683"><ele>3.0</ele><time>2026-04-11T06:50:55.86Z</time></trkpt><trkpt lat="41.03058" lon="13.9435183"><ele>3.0</ele><time>2026-04-11T06:50:56.86Z</time></trkpt><trkpt lat="41.030635" lon="13.9434683"><ele>3.0</ele><time>2026-04-11T06:50:57.859Z</time></trkpt><trkpt lat="41.0306883" lon="13.9434183"><ele>2.8571428571428568</ele><time>2026-04-11T06:50:58.86Z</time></trkpt><trkpt lat="41.0307417" lon="13.94337"><ele>2.7142857142857144</ele><time>2026-04-11T06:50:59.86Z</time></trkpt><trkpt lat="41.0307967" lon="13.94332"><ele>2.571428571428571</ele><time>2026-04-11T06:51:00.86Z</time></trkpt><trkpt lat="41.0308533" lon="13.94327"><ele>2.4285714285714284</ele><time>2026-04-11T06:51:01.86Z</time></trkpt><trkpt lat="41.0309067" lon="13.9432217"><ele>2.2857142857142856</ele><time>2026-04-11T06:51:02.859Z</time></trkpt><trkpt lat="41.03096" lon="13.94317"><ele>2.142857142857143</ele><time>2026-04-11T06:51:03.86Z</time></trkpt><trkpt lat="41.0310133" lon="13.94312"><ele>2.0</ele><time>2026-04-11T06:51:04.86Z</time></trkpt><trkpt lat="41.0310667" lon="13.9430717"><ele>1.857142857142857</ele><time>2026-04-11T06:51:05.86Z</time></trkpt><trkpt lat="41.03112" lon="13.943025"><ele>1.714285714285714</ele><time>2026-04-11T06:51:06.859Z</time></trkpt><trkpt lat="41.031175" lon="13.942975"><ele>1.5714285714285714</ele><time>2026-04-11T06:51:07.86Z</time></trkpt><trkpt lat="41.03123" lon="13.942925"><ele>1.4285714285714284</ele><time>2026-04-11T06:51:08.86Z</time></trkpt><trkpt lat="41.0312867" lon="13.942875"><ele>1.2857142857142856</ele><time>2026-04-11T06:51:09.858Z</time></trkpt><trkpt lat="41.0313417" lon="13.942825"><ele>1.1428571428571428</ele><time>2026-04-11T06:51:10.858Z</time></trkpt><trkpt lat="41.0313967" lon="13.94277"><ele>1.0</ele><time>2026-04-11T06:51:11.86Z</time></trkpt><trkpt lat="41.0314533" lon="13.9427217"><ele>1.0</ele><time>2026-04-11T06:51:12.859Z</time></trkpt><trkpt lat="41.03151" lon="13.9426667"><ele>0.9999999999999999</ele><time>2026-04-11T06:51:13.86Z</time></trkpt><trkpt lat="41.03157" lon="13.9426133"><ele>1.0</ele><time>2026-04-11T06:51:14.86Z</time></trkpt><trkpt lat="41.03163" lon="13.9425617"><ele>1.0</ele><time>2026-04-11T06:51:15.857Z</time></trkpt><trkpt lat="41.0316917" lon="13.94251"><ele>0.9999999999999999</ele><time>2026-04-11T06:51:16.862Z</time></trkpt><trkpt lat="41.0317533" lon="13.9424533"><ele>1.0</ele><time>2026-04-11T06:51:17.858Z</time></trkpt><trkpt lat="41.0318183" lon="13.9423967"><ele>1.0</ele><time>2026-04-11T06:51:18.858Z</time></trkpt><trkpt lat="41.0318817" lon="13.9423417"><ele>1.1666666666666665</ele><time>2026-04-11T06:51:19.859Z</time></trkpt><trkpt lat="41.0319467" lon="13.9422867"><ele>1.3333333333333333</ele><time>2026-04-11T06:51:20.858Z</time></trkpt><trkpt lat="41.0320083" lon="13.9422267"><ele>1.5</ele><time>2026-04-11T06:51:21.859Z</time></trkpt><trkpt lat="41.0320717" lon="13.94217"><ele>1.6666666666666665</ele><time>2026-04-11T06:51:22.859Z</time></trkpt><trkpt lat="41.0321383" lon="13.9421117"><ele>1.8333333333333333</ele><time>2026-04-11T06:51:23.859Z</time></trkpt><trkpt lat="41.0322033" lon="13.9420533"><ele>2.0</ele><time>2026-04-11T06:51:24.86Z</time></trkpt><trkpt lat="41.0322633" lon="13.9419967"><ele>2.0</ele><time>2026-04-11T06:51:25.861Z</time></trkpt><trkpt lat="41.032325" lon="13.9419433"><ele>1.9999999999999998</ele><time>2026-04-11T06:51:26.858Z</time></trkpt><trkpt lat="41.0323867" lon="13.9418867"><ele>2.0</ele><time>2026-04-11T06:51:27.859Z</time></trkpt><trkpt lat="41.0324467" lon="13.941835"><ele>2.0</ele><time>2026-04-11T06:51:28.86Z</time></trkpt><trkpt lat="41.0325083" lon="13.9417817"><ele>1.9999999999999998</ele><time>2026-04-11T06:51:29.86Z</time></trkpt><trkpt lat="41.0325667" lon="13.9417283"><ele>2.0</ele><time>2026-04-11T06:51:30.86Z</time></trkpt><trkpt lat="41.03263" lon="13.9416733"><ele>2.0</ele><time>2026-04-11T06:51:31.861Z</time></trkpt><trkpt lat="41.03269" lon="13.94162"><ele>2.0</ele><time>2026-04-11T06:51:32.859Z</time></trkpt><trkpt lat="41.0327517" lon="13.941565"><ele>1.9999999999999998</ele><time>2026-04-11T06:51:33.858Z</time></trkpt><trkpt lat="41.0328117" lon="13.9415133"><ele>2.0</ele><time>2026-04-11T06:51:34.86Z</time></trkpt><trkpt lat="41.0328733" lon="13.941465"><ele>2.0</ele><time>2026-04-11T06:51:35.86Z</time></trkpt><trkpt lat="41.03293" lon="13.9414117"><ele>1.9999999999999998</ele><time>2026-04-11T06:51:36.859Z</time></trkpt><trkpt lat="41.0329883" lon="13.941355"><ele>2.0</ele><time>2026-04-11T06:51:37.861Z</time></trkpt><trkpt lat="41.0330467" lon="13.9412967"><ele>2.0</ele><time>2026-04-11T06:51:38.86Z</time></trkpt><trkpt lat="41.033105" lon="13.94124"><ele>2.0</ele><time>2026-04-11T06:51:39.858Z</time></trkpt><trkpt lat="41.0331633" lon="13.941185"><ele>1.9999999999999998</ele><time>2026-04-11T06:51:40.86Z</time></trkpt><trkpt lat="41.03322" lon="13.94113"><ele>2.0</ele><time>2026-04-11T06:51:41.86Z</time></trkpt><trkpt lat="41.0332767" lon="13.941075"><ele>2.0</ele><time>2026-04-11T06:51:42.86Z</time></trkpt><trkpt lat="41.033335" lon="13.9410167"><ele>1.9999999999999998</ele><time>2026-04-11T06:51:43.86Z</time></trkpt><trkpt lat="41.03339" lon="13.940955"><ele>2.0</ele><time>2026-04-11T06:51:44.86Z</time></trkpt><trkpt lat="41.0334433" lon="13.94089"><ele>2.0</ele><time>2026-04-11T06:51:45.86Z</time></trkpt><trkpt lat="41.0334933" lon="13.9408233"><ele>2.2857142857142856</ele><time>2026-04-11T06:51:46.859Z</time></trkpt><trkpt lat="41.0335383" lon="13.9407533"><ele>2.571428571428571</ele><time>2026-04-11T06:51:47.86Z</time></trkpt><trkpt lat="41.0335817" lon="13.9406817"><ele>2.8571428571428568</ele><time>2026-04-11T06:51:48.859Z</time></trkpt><trkpt lat="41.0336183" lon="13.9406067"><ele>3.142857142857143</ele><time>2026-04-11T06:51:49.86Z</time></trkpt><trkpt lat="41.0336533" lon="13.9405267"><ele>3.428571428571428</ele><time>2026-04-11T06:51:50.86Z</time></trkpt><trkpt lat="41.03369" lon="13.9404467"><ele>3.714285714285714</ele><time>2026-04-11T06:51:51.859Z</time></trkpt><trkpt lat="41.0337267" lon="13.9403667"><ele>4.0</ele><time>2026-04-11T06:51:52.86Z</time></trkpt><trkpt lat="41.033765" lon="13.9402867"><ele>4.0</ele><time>2026-04-11T06:51:53.86Z</time></trkpt><trkpt lat="41.0338067" lon="13.9402117"><ele>3.9999999999999996</ele><time>2026-04-11T06:51:54.86Z</time></trkpt><trkpt lat="41.0338533" lon="13.9401367"><ele>4.0</ele><time>2026-04-11T06:51:55.86Z</time></trkpt><trkpt lat="41.0339" lon="13.9400583"><ele>4.0</ele><time>2026-04-11T06:51:56.859Z</time></trkpt><trkpt lat="41.0339417" lon="13.9399783"><ele>3.9999999999999996</ele><time>2026-04-11T06:51:57.859Z</time></trkpt><trkpt lat="41.0339833" lon="13.939895"><ele>4.0</ele><time>2026-04-11T06:51:58.86Z</time></trkpt><trkpt lat="41.0340217" lon="13.9398167"><ele>4.0</ele><time>2026-04-11T06:51:59.86Z</time></trkpt><trkpt lat="41.0340633" lon="13.9397383"><ele>3.4285714285714284</ele><time>2026-04-11T06:52:00.862Z</time></trkpt><trkpt lat="41.0341033" lon="13.9396617"><ele>2.8571428571428568</ele><time>2026-04-11T06:52:01.858Z</time></trkpt><trkpt lat="41.0341433" lon="13.9395833"><ele>2.2857142857142856</ele><time>2026-04-11T06:52:02.858Z</time></trkpt><trkpt lat="41.0341817" lon="13.939505"><ele>1.7142857142857142</ele><time>2026-04-11T06:52:03.859Z</time></trkpt><trkpt lat="41.0342183" lon="13.939425"><ele>1.1428571428571428</ele><time>2026-04-11T06:52:04.859Z</time></trkpt><trkpt lat="41.0342533" lon="13.93935"><ele>0.5714285714285714</ele><time>2026-04-11T06:52:05.86Z</time></trkpt><trkpt lat="41.0342917" lon="13.9392783"><ele>0.0</ele><time>2026-04-11T06:52:06.859Z</time></trkpt><trkpt lat="41.0343283" lon="13.9392083"><ele>0.0</ele><time>2026-04-11T06:52:07.859Z</time></trkpt><trkpt lat="41.0343617" lon="13.9391333"><ele>0.0</ele><time>2026-04-11T06:52:08.862Z</time></trkpt><trkpt lat="41.0343933" lon="13.93906"><ele>0.0</ele><time>2026-04-11T06:52:09.861Z</time></trkpt><trkpt lat="41.0344267" lon="13.938985"><ele>0.0</ele><time>2026-04-11T06:52:10.86Z</time></trkpt><trkpt lat="41.034465" lon="13.93891"><ele>0.0</ele><time>2026-04-11T06:52:11.859Z</time></trkpt><trkpt lat="41.0345033" lon="13.9388333"><ele>0.0</ele><time>2026-04-11T06:52:12.86Z</time></trkpt><trkpt lat="41.034545" lon="13.938755"><ele>0.0</ele><time>2026-04-11T06:52:13.861Z</time></trkpt><trkpt lat="41.0345817" lon="13.9386817"><ele>0.0</ele><time>2026-04-11T06:52:14.859Z</time></trkpt><trkpt lat="41.03462" lon="13.9386067"><ele>0.0</ele><time>2026-04-11T06:52:15.858Z</time></trkpt><trkpt lat="41.034655" lon="13.9385317"><ele>0.0</ele><time>2026-04-11T06:52:16.858Z</time></trkpt><trkpt lat="41.0346917" lon="13.9384583"><ele>0.0</ele><time>2026-04-11T06:52:17.86Z</time></trkpt><trkpt lat="41.0347233" lon="13.938385"><ele>0.0</ele><time>2026-04-11T06:52:18.859Z</time></trkpt><trkpt lat="41.0347567" lon="13.9383117"><ele>0.0</ele><time>2026-04-11T06:52:19.86Z</time></trkpt><trkpt lat="41.0347883" lon="13.9382367"><ele>0.0</ele><time>2026-04-11T06:52:20.857Z</time></trkpt><trkpt lat="41.034825" lon="13.9381633"><ele>-0.14285714285714285</ele><time>2026-04-11T06:52:21.859Z</time></trkpt><trkpt lat="41.034865" lon="13.9380917"><ele>-0.2857142857142857</ele><time>2026-04-11T06:52:22.859Z</time></trkpt><trkpt lat="41.0349017" lon="13.938015"><ele>-0.42857142857142855</ele><time>2026-04-11T06:52:23.86Z</time></trkpt><trkpt lat="41.0349383" lon="13.9379367"><ele>-0.5714285714285714</ele><time>2026-04-11T06:52:24.861Z</time></trkpt><trkpt lat="41.0349783" lon="13.9378567"><ele>-0.7142857142857142</ele><time>2026-04-11T06:52:25.859Z</time></trkpt><trkpt lat="41.0350167" lon="13.9377733"><ele>-0.8571428571428571</ele><time>2026-04-11T06:52:26.86Z</time></trkpt><trkpt lat="41.035055" lon="13.9376917"><ele>-1.0</ele><time>2026-04-11T06:52:27.86Z</time></trkpt><trkpt lat="41.0350967" lon="13.9376117"><ele>-0.8571428571428571</ele><time>2026-04-11T06:52:28.86Z</time></trkpt><trkpt lat="41.0351383" lon="13.9375283"><ele>-0.7142857142857142</ele><time>2026-04-11T06:52:29.86Z</time></trkpt><trkpt lat="41.03518" lon="13.93745"><ele>-0.5714285714285714</ele><time>2026-04-11T06:52:30.86Z</time></trkpt><trkpt lat="41.0352233" lon="13.9373717"><ele>-0.42857142857142855</ele><time>2026-04-11T06:52:31.861Z</time></trkpt><trkpt lat="41.035265" lon="13.9372933"><ele>-0.2857142857142857</ele><time>2026-04-11T06:52:32.86Z</time></trkpt><trkpt lat="41.0353117" lon="13.93722"><ele>-0.14285714285714285</ele><time>2026-04-11T06:52:33.86Z</time></trkpt><trkpt lat="41.0353617" lon="13.9371517"><ele>0.0</ele><time>2026-04-11T06:52:34.86Z</time></trkpt><trkpt lat="41.0354133" lon="13.9370833"><ele>0.0</ele><time>2026-04-11T06:52:35.859Z</time></trkpt><trkpt lat="41.035465" lon="13.93702"><ele>0.0</ele><time>2026-04-11T06:52:36.86Z</time></trkpt><trkpt lat="41.0355183" lon="13.936955"><ele>0.0</ele><time>2026-04-11T06:52:37.861Z</time></trkpt><trkpt lat="41.0355717" lon="13.9368917"><ele>0.0</ele><time>2026-04-11T06:52:38.86Z</time></trkpt><trkpt lat="41.03563" lon="13.9368333"><ele>0.0</ele><time>2026-04-11T06:52:39.86Z</time></trkpt><trkpt lat="41.0356917" lon="13.9367767"><ele>0.0</ele><time>2026-04-11T06:52:40.859Z</time></trkpt><trkpt lat="41.0357583" lon="13.936725"><ele>0.0</ele><time>2026-04-11T06:52:41.86Z</time></trkpt><trkpt lat="41.0358283" lon="13.9366783"><ele>0.14285714285714285</ele><time>2026-04-11T06:52:42.86Z</time></trkpt><trkpt lat="41.03589" lon="13.936625"><ele>0.2857142857142857</ele><time>2026-04-11T06:52:43.86Z</time></trkpt><trkpt lat="41.035955" lon="13.9365783"><ele>0.42857142857142855</ele><time>2026-04-11T06:52:44.86Z</time></trkpt><trkpt lat="41.0360233" lon="13.936535"><ele>0.5714285714285714</ele><time>2026-04-11T06:52:45.859Z</time></trkpt><trkpt lat="41.03609" lon="13.93649"><ele>0.7142857142857142</ele><time>2026-04-11T06:52:46.86Z</time></trkpt><trkpt lat="41.0361567" lon="13.936445"><ele>0.8571428571428571</ele><time>2026-04-11T06:52:47.86Z</time></trkpt><trkpt lat="41.036225" lon="13.936405"><ele>1.0</ele><time>2026-04-11T06:52:48.86Z</time></trkpt><trkpt lat="41.036295" lon="13.9363667"><ele>1.0</ele><time>2026-04-11T06:52:49.86Z</time></trkpt><trkpt lat="41.0363667" lon="13.9363317"><ele>0.9999999999999999</ele><time>2026-04-11T06:52:50.859Z</time></trkpt><trkpt lat="41.03644" lon="13.9363017"><ele>1.0</ele><time>2026-04-11T06:52:51.859Z</time></trkpt><trkpt lat="41.0365133" lon="13.9362733"><ele>1.0</ele><time>2026-04-11T06:52:52.86Z</time></trkpt><trkpt lat="41.036585" lon="13.936245"><ele>0.9999999999999999</ele><time>2026-04-11T06:52:53.861Z</time></trkpt><trkpt lat="41.0366533" lon="13.9362233"><ele>1.0</ele><time>2026-04-11T06:52:54.858Z</time></trkpt><trkpt lat="41.0367233" lon="13.9362067"><ele>1.0</ele><time>2026-04-11T06:52:55.86Z</time></trkpt><trkpt lat="41.0367933" lon="13.9361933"><ele>0.7142857142857142</ele><time>2026-04-11T06:52:56.86Z</time></trkpt><trkpt lat="41.0368633" lon="13.93618"><ele>0.4285714285714285</ele><time>2026-04-11T06:52:57.859Z</time></trkpt><trkpt lat="41.0369317" lon="13.9361683"><ele>0.14285714285714285</ele><time>2026-04-11T06:52:58.861Z</time></trkpt><trkpt lat="41.0370033" lon="13.936155"><ele>-0.14285714285714285</ele><time>2026-04-11T06:52:59.86Z</time></trkpt><trkpt lat="41.0370783" lon="13.93614"><ele>-0.4285714285714285</ele><time>2026-04-11T06:53:00.859Z</time></trkpt><trkpt lat="41.03715" lon="13.9361233"><ele>-0.7142857142857142</ele><time>2026-04-11T06:53:01.859Z</time></trkpt><trkpt lat="41.037225" lon="13.93611"><ele>-1.0</ele><time>2026-04-11T06:53:02.86Z</time></trkpt><trkpt lat="41.0373" lon="13.9360967"><ele>-1.0</ele><time>2026-04-11T06:53:03.86Z</time></trkpt><trkpt lat="41.037375" lon="13.93608"><ele>-0.9999999999999999</ele><time>2026-04-11T06:53:04.862Z</time></trkpt><trkpt lat="41.0374467" lon="13.936065"><ele>-1.0</ele><time>2026-04-11T06:53:05.859Z</time></trkpt><trkpt lat="41.0375183" lon="13.93605"><ele>-1.0</ele><time>2026-04-11T06:53:06.859Z</time></trkpt><trkpt lat="41.0375917" lon="13.9360333"><ele>-0.9999999999999999</ele><time>2026-04-11T06:53:07.859Z</time></trkpt><trkpt lat="41.0376617" lon="13.9360183"><ele>-1.0</ele><time>2026-04-11T06:53:08.86Z</time></trkpt><trkpt lat="41.0377317" lon="13.9360067"><ele>-1.0</ele><time>2026-04-11T06:53:09.859Z</time></trkpt><trkpt lat="41.037805" lon="13.93599"><ele>-1.1428571428571428</ele><time>2026-04-11T06:53:10.86Z</time></trkpt><trkpt lat="41.037875" lon="13.935975"><ele>-1.2857142857142856</ele><time>2026-04-11T06:53:11.86Z</time></trkpt><trkpt lat="41.0379467" lon="13.9359583"><ele>-1.4285714285714284</ele><time>2026-04-11T06:53:12.86Z</time></trkpt><trkpt lat="41.0380167" lon="13.935945"><ele>-1.5714285714285714</ele><time>2026-04-11T06:53:13.86Z</time></trkpt><trkpt lat="41.0380817" lon="13.9359333"><ele>-1.714285714285714</ele><time>2026-04-11T06:53:14.86Z</time></trkpt><trkpt lat="41.038145" lon="13.9359217"><ele>-1.857142857142857</ele><time>2026-04-11T06:53:15.858Z</time></trkpt><trkpt lat="41.0382117" lon="13.9359083"><ele>-2.0</ele><time>2026-04-11T06:53:16.86Z</time></trkpt><trkpt lat="41.03828" lon="13.9358917"><ele>-1.5714285714285714</ele><time>2026-04-11T06:53:17.86Z</time></trkpt><trkpt lat="41.03835" lon="13.935875"><ele>-1.1428571428571428</ele><time>2026-04-11T06:53:18.86Z</time></trkpt><trkpt lat="41.03842" lon="13.9358617"><ele>-0.7142857142857142</ele><time>2026-04-11T06:53:19.86Z</time></trkpt><trkpt lat="41.03849" lon="13.93585"><ele>-0.2857142857142857</ele><time>2026-04-11T06:53:20.861Z</time></trkpt><trkpt lat="41.03856" lon="13.93584"><ele>0.1428571428571428</ele><time>2026-04-11T06:53:21.859Z</time></trkpt><trkpt lat="41.0386283" lon="13.9358317"><ele>0.5714285714285714</ele><time>2026-04-11T06:53:22.86Z</time></trkpt><trkpt lat="41.0386983" lon="13.93582"><ele>1.0</ele><time>2026-04-11T06:53:23.861Z</time></trkpt><trkpt lat="41.038765" lon="13.9358033"><ele>1.0</ele><time>2026-04-11T06:53:24.86Z</time></trkpt><trkpt lat="41.0388317" lon="13.9357833"><ele>0.9999999999999999</ele><time>2026-04-11T06:53:25.859Z</time></trkpt><trkpt lat="41.0389" lon="13.9357633"><ele>1.0</ele><time>2026-04-11T06:53:26.859Z</time></trkpt><trkpt lat="41.03897" lon="13.9357483"><ele>1.0</ele><time>2026-04-11T06:53:27.859Z</time></trkpt><trkpt lat="41.0390433" lon="13.9357383"><ele>0.9999999999999999</ele><time>2026-04-11T06:53:28.86Z</time></trkpt><trkpt lat="41.0391167" lon="13.9357283"><ele>1.0</ele><time>2026-04-11T06:53:29.861Z</time></trkpt><trkpt lat="41.0391883" lon="13.93572"><ele>1.0</ele><time>2026-04-11T06:53:30.859Z</time></trkpt><trkpt lat="41.0392633" lon="13.9357067"><ele>1.2857142857142856</ele><time>2026-04-11T06:53:31.86Z</time></trkpt><trkpt lat="41.0393333" lon="13.9356917"><ele>1.5714285714285712</ele><time>2026-04-11T06:53:32.861Z</time></trkpt><trkpt lat="41.0394033" lon="13.935675"><ele>1.857142857142857</ele><time>2026-04-11T06:53:33.86Z</time></trkpt><trkpt lat="41.039475" lon="13.9356633"><ele>2.142857142857143</ele><time>2026-04-11T06:53:34.859Z</time></trkpt><trkpt lat="41.0395467" lon="13.9356483"><ele>2.4285714285714284</ele><time>2026-04-11T06:53:35.859Z</time></trkpt><trkpt lat="41.0396167" lon="13.9356317"><ele>2.714285714285714</ele><time>2026-04-11T06:53:36.86Z</time></trkpt><trkpt lat="41.0396883" lon="13.9356167"><ele>3.0</ele><time>2026-04-11T06:53:37.86Z</time></trkpt><trkpt lat="41.0397617" lon="13.9356017"><ele>2.9999999999999996</ele><time>2026-04-11T06:53:38.859Z</time></trkpt><trkpt lat="41.0398333" lon="13.9355883"><ele>3.0</ele><time>2026-04-11T06:53:39.859Z</time></trkpt><trkpt lat="41.039905" lon="13.9355767"><ele>3.0</ele><time>2026-04-11T06:53:40.86Z</time></trkpt><trkpt lat="41.039975" lon="13.9355667"><ele>3.0</ele><time>2026-04-11T06:53:41.86Z</time></trkpt><trkpt lat="41.0400467" lon="13.9355567"><ele>3.0</ele><time>2026-04-11T06:53:42.86Z</time></trkpt><trkpt lat="41.0401183" lon="13.935545"><ele>2.9999999999999996</ele><time>2026-04-11T06:53:43.86Z</time></trkpt><trkpt lat="41.04019" lon="13.9355333"><ele>3.0</ele><time>2026-04-11T06:53:44.859Z</time></trkpt><trkpt lat="41.04026" lon="13.9355167"><ele>2.9999999999999996</ele><time>2026-04-11T06:53:45.86Z</time></trkpt><trkpt lat="41.04033" lon="13.9355033"><ele>3.0</ele><time>2026-04-11T06:53:46.86Z</time></trkpt><trkpt lat="41.0404017" lon="13.9354867"><ele>3.0</ele><time>2026-04-11T06:53:47.86Z</time></trkpt><trkpt lat="41.0404717" lon="13.9354683"><ele>3.0</ele><time>2026-04-11T06:53:48.86Z</time></trkpt><trkpt lat="41.0405433" lon="13.9354533"><ele>3.0</ele><time>2026-04-11T06:53:49.86Z</time></trkpt><trkpt lat="41.040615" lon="13.9354417"><ele>2.9999999999999996</ele><time>2026-04-11T06:53:50.86Z</time></trkpt><trkpt lat="41.040685" lon="13.93543"><ele>3.0</ele><time>2026-04-11T06:53:51.86Z</time></trkpt><trkpt lat="41.0407533" lon="13.9354167"><ele>3.1428571428571423</ele><time>2026-04-11T06:53:52.86Z</time></trkpt><trkpt lat="41.0408217" lon="13.9354033"><ele>3.2857142857142856</ele><time>2026-04-11T06:53:53.859Z</time></trkpt><trkpt lat="41.04089" lon="13.9353867"><ele>3.4285714285714284</ele><time>2026-04-11T06:53:54.86Z</time></trkpt><trkpt lat="41.040955" lon="13.9353717"><ele>3.571428571428571</ele><time>2026-04-11T06:53:55.861Z</time></trkpt><trkpt lat="41.041055" lon="13.9353533"><ele>3.714285714285714</ele><time>2026-04-11T06:53:57.858Z</time></trkpt><trkpt lat="41.041115" lon="13.9353933"><ele>3.8571428571428568</ele><time>2026-04-11T06:53:59.86Z</time></trkpt><trkpt lat="41.0411383" lon="13.9354883"><ele>4.0</ele><time>2026-04-11T06:54:02.859Z</time></trkpt><trkpt lat="41.0412735" lon="13.9354944"><ele>4.0</ele><time>2026-04-11T06:55:00.974Z</time></trkpt><trkpt lat="41.0414637" lon="13.9354768"><ele>4.0</ele><time>2026-04-11T06:55:05.896Z</time></trkpt><trkpt lat="41.041655" lon="13.9353667"><ele>4.0</ele><time>2026-04-11T06:55:08.86Z</time></trkpt><trkpt lat="41.0417467" lon="13.9353067"><ele>3.8000000000000003</ele><time>2026-04-11T06:55:10.86Z</time></trkpt><trkpt lat="41.0418467" lon="13.9352467"><ele>3.6000000000000005</ele><time>2026-04-11T06:55:12.861Z</time></trkpt><trkpt lat="41.04194" lon="13.9351917"><ele>3.4</ele><time>2026-04-11T06:55:14.859Z</time></trkpt><trkpt lat="41.0420383" lon="13.9351517"><ele>3.2</ele><time>2026-04-11T06:55:16.86Z</time></trkpt><trkpt lat="41.0421483" lon="13.9351267"><ele>3.0</ele><time>2026-04-11T06:55:18.858Z</time></trkpt><trkpt lat="41.0422567" lon="13.9351017"><ele>3.0</ele><time>2026-04-11T06:55:20.86Z</time></trkpt><trkpt lat="41.0423683" lon="13.9350717"><ele>3.0</ele><time>2026-04-11T06:55:22.859Z</time></trkpt><trkpt lat="41.04248" lon="13.935055"><ele>3.0</ele><time>2026-04-11T06:55:24.858Z</time></trkpt><trkpt lat="41.0425983" lon="13.9350383"><ele>3.0</ele><time>2026-04-11T06:55:26.858Z</time></trkpt><trkpt lat="41.0427217" lon="13.9350167"><ele>2.8333333333333335</ele><time>2026-04-11T06:55:28.86Z</time></trkpt><trkpt lat="41.042845" lon="13.9349867"><ele>2.6666666666666665</ele><time>2026-04-11T06:55:30.86Z</time></trkpt><trkpt lat="41.0429683" lon="13.934965"><ele>2.5</ele><time>2026-04-11T06:55:32.86Z</time></trkpt><trkpt lat="41.0430317" lon="13.934955"><ele>2.333333333333333</ele><time>2026-04-11T06:55:33.856Z</time></trkpt><trkpt lat="41.0430967" lon="13.934945"><ele>2.1666666666666665</ele><time>2026-04-11T06:55:34.858Z</time></trkpt><trkpt lat="41.0431633" lon="13.93493"><ele>2.0</ele><time>2026-04-11T06:55:35.86Z</time></trkpt><trkpt lat="41.0432317" lon="13.934915"><ele>1.857142857142857</ele><time>2026-04-11T06:55:36.859Z</time></trkpt><trkpt lat="41.0432983" lon="13.9349017"><ele>1.714285714285714</ele><time>2026-04-11T06:55:37.858Z</time></trkpt><trkpt lat="41.0433633" lon="13.9348883"><ele>1.5714285714285714</ele><time>2026-04-11T06:55:38.858Z</time></trkpt><trkpt lat="41.0434283" lon="13.9348767"><ele>1.4285714285714284</ele><time>2026-04-11T06:55:39.858Z</time></trkpt><trkpt lat="41.0434967" lon="13.9348667"><ele>1.2857142857142856</ele><time>2026-04-11T06:55:40.86Z</time></trkpt><trkpt lat="41.0435617" lon="13.934855"><ele>1.1428571428571428</ele><time>2026-04-11T06:55:41.859Z</time></trkpt><trkpt lat="41.0436283" lon="13.93484"><ele>1.0</ele><time>2026-04-11T06:55:42.858Z</time></trkpt><trkpt lat="41.0436933" lon="13.9348233"><ele>1.0</ele><time>2026-04-11T06:55:43.859Z</time></trkpt><trkpt lat="41.0437583" lon="13.93481"><ele>0.9999999999999999</ele><time>2026-04-11T06:55:44.86Z</time></trkpt><trkpt lat="41.0438217" lon="13.9347917"><ele>1.0</ele><time>2026-04-11T06:55:45.859Z</time></trkpt><trkpt lat="41.043885" lon="13.9347817"><ele>1.0</ele><time>2026-04-11T06:55:46.86Z</time></trkpt><trkpt lat="41.0439517" lon="13.9347733"><ele>0.9999999999999999</ele><time>2026-04-11T06:55:47.858Z</time></trkpt><trkpt lat="41.04402" lon="13.9347583"><ele>1.0</ele><time>2026-04-11T06:55:48.86Z</time></trkpt><trkpt lat="41.0440867" lon="13.93474"><ele>1.0</ele><time>2026-04-11T06:55:49.859Z</time></trkpt><trkpt lat="41.0441517" lon="13.9347217"><ele>0.8571428571428571</ele><time>2026-04-11T06:55:50.861Z</time></trkpt><trkpt lat="41.0442183" lon="13.934705"><ele>0.7142857142857142</ele><time>2026-04-11T06:55:51.859Z</time></trkpt><trkpt lat="41.0442833" lon="13.9346867"><ele>0.5714285714285714</ele><time>2026-04-11T06:55:52.859Z</time></trkpt><trkpt lat="41.0443467" lon="13.93467"><ele>0.42857142857142855</ele><time>2026-04-11T06:55:53.86Z</time></trkpt><trkpt lat="41.0444117" lon="13.9346533"><ele>0.2857142857142857</ele><time>2026-04-11T06:55:54.86Z</time></trkpt><trkpt lat="41.0444783" lon="13.934635"><ele>0.14285714285714285</ele><time>2026-04-11T06:55:55.858Z</time></trkpt><trkpt lat="41.0445467" lon="13.934615"><ele>0.0</ele><time>2026-04-11T06:55:56.858Z</time></trkpt><trkpt lat="41.0446117" lon="13.9345933"><ele>0.0</ele><time>2026-04-11T06:55:57.858Z</time></trkpt><trkpt lat="41.0446767" lon="13.9345783"><ele>0.0</ele><time>2026-04-11T06:55:58.86Z</time></trkpt><trkpt lat="41.044745" lon="13.9345583"><ele>0.0</ele><time>2026-04-11T06:55:59.86Z</time></trkpt><trkpt lat="41.0448117" lon="13.93454"><ele>0.0</ele><time>2026-04-11T06:56:00.86Z</time></trkpt><trkpt lat="41.04488" lon="13.9345217"><ele>0.0</ele><time>2026-04-11T06:56:01.859Z</time></trkpt><trkpt lat="41.0449483" lon="13.9345067"><ele>0.0</ele><time>2026-04-11T06:56:02.86Z</time></trkpt><trkpt lat="41.0450167" lon="13.9344883"><ele>0.0</ele><time>2026-04-11T06:56:03.86Z</time></trkpt><trkpt lat="41.0450883" lon="13.9344717"><ele>0.0</ele><time>2026-04-11T06:56:04.86Z</time></trkpt><trkpt lat="41.04516" lon="13.9344517"><ele>0.0</ele><time>2026-04-11T06:56:05.859Z</time></trkpt><trkpt lat="41.0452317" lon="13.934425"><ele>0.0</ele><time>2026-04-11T06:56:06.859Z</time></trkpt><trkpt lat="41.0453033" lon="13.9344"><ele>0.0</ele><time>2026-04-11T06:56:07.859Z</time></trkpt><trkpt lat="41.0453733" lon="13.9343817"><ele>0.0</ele><time>2026-04-11T06:56:08.859Z</time></trkpt><trkpt lat="41.0454433" lon="13.9343633"><ele>0.0</ele><time>2026-04-11T06:56:09.861Z</time></trkpt><trkpt lat="41.0455117" lon="13.934345"><ele>0.0</ele><time>2026-04-11T06:56:10.858Z</time></trkpt><trkpt lat="41.0455817" lon="13.9343267"><ele>0.0</ele><time>2026-04-11T06:56:11.859Z</time></trkpt><trkpt lat="41.0456517" lon="13.9343033"><ele>0.0</ele><time>2026-04-11T06:56:12.859Z</time></trkpt><trkpt lat="41.0457183" lon="13.9342817"><ele>0.0</ele><time>2026-04-11T06:56:13.86Z</time></trkpt><trkpt lat="41.0457833" lon="13.93426"><ele>0.0</ele><time>2026-04-11T06:56:14.858Z</time></trkpt><trkpt lat="41.0458517" lon="13.9342433"><ele>0.0</ele><time>2026-04-11T06:56:15.858Z</time></trkpt><trkpt lat="41.0459183" lon="13.934225"><ele>0.0</ele><time>2026-04-11T06:56:16.859Z</time></trkpt><trkpt lat="41.045985" lon="13.9342067"><ele>0.0</ele><time>2026-04-11T06:56:17.86Z</time></trkpt><trkpt lat="41.04605" lon="13.9341867"><ele>0.14285714285714285</ele><time>2026-04-11T06:56:18.86Z</time></trkpt><trkpt lat="41.046115" lon="13.9341683"><ele>0.2857142857142857</ele><time>2026-04-11T06:56:19.861Z</time></trkpt><trkpt lat="41.0461817" lon="13.93415"><ele>0.42857142857142855</ele><time>2026-04-11T06:56:20.86Z</time></trkpt><trkpt lat="41.046245" lon="13.9341283"><ele>0.5714285714285714</ele><time>2026-04-11T06:56:21.858Z</time></trkpt><trkpt lat="41.0463117" lon="13.9341117"><ele>0.7142857142857142</ele><time>2026-04-11T06:56:22.86Z</time></trkpt><trkpt lat="41.0463767" lon="13.93409"><ele>0.8571428571428571</ele><time>2026-04-11T06:56:23.859Z</time></trkpt><trkpt lat="41.0464417" lon="13.9340717"><ele>1.0</ele><time>2026-04-11T06:56:24.86Z</time></trkpt><trkpt lat="41.0465067" lon="13.934055"><ele>1.0</ele><time>2026-04-11T06:56:25.857Z</time></trkpt><trkpt lat="41.046575" lon="13.93404"><ele>0.9999999999999999</ele><time>2026-04-11T06:56:26.86Z</time></trkpt><trkpt lat="41.0466433" lon="13.93402"><ele>1.0</ele><time>2026-04-11T06:56:27.858Z</time></trkpt><trkpt lat="41.0467117" lon="13.934"><ele>1.0</ele><time>2026-04-11T06:56:28.86Z</time></trkpt><trkpt lat="41.04678" lon="13.9339767"><ele>0.9999999999999999</ele><time>2026-04-11T06:56:29.858Z</time></trkpt><trkpt lat="41.0468483" lon="13.93396"><ele>1.0</ele><time>2026-04-11T06:56:30.859Z</time></trkpt><trkpt lat="41.0469183" lon="13.933945"><ele>1.0</ele><time>2026-04-11T06:56:31.859Z</time></trkpt><trkpt lat="41.0469917" lon="13.9339283"><ele>0.9999999999999999</ele><time>2026-04-11T06:56:32.858Z</time></trkpt><trkpt lat="41.0470667" lon="13.9339083"><ele>1.0</ele><time>2026-04-11T06:56:33.857Z</time></trkpt><trkpt lat="41.0471417" lon="13.9338883"><ele>1.0</ele><time>2026-04-11T06:56:34.859Z</time></trkpt><trkpt lat="41.047215" lon="13.9338667"><ele>1.0</ele><time>2026-04-11T06:56:35.86Z</time></trkpt><trkpt lat="41.04729" lon="13.93385"><ele>0.9999999999999999</ele><time>2026-04-11T06:56:36.859Z</time></trkpt><trkpt lat="41.0473633" lon="13.9338283"><ele>1.0</ele><time>2026-04-11T06:56:37.86Z</time></trkpt><trkpt lat="41.0474367" lon="13.9338083"><ele>0.8333333333333333</ele><time>2026-04-11T06:56:38.861Z</time></trkpt><trkpt lat="41.0475117" lon="13.9337983"><ele>0.6666666666666666</ele><time>2026-04-11T06:56:39.859Z</time></trkpt><trkpt lat="41.04759" lon="13.9337933"><ele>0.5</ele><time>2026-04-11T06:56:40.86Z</time></trkpt><trkpt lat="41.047665" lon="13.9337917"><ele>0.3333333333333333</ele><time>2026-04-11T06:56:41.86Z</time></trkpt><trkpt lat="41.0477417" lon="13.9337967"><ele>0.16666666666666666</ele><time>2026-04-11T06:56:42.86Z</time></trkpt><trkpt lat="41.0478167" lon="13.9338133"><ele>0.0</ele><time>2026-04-11T06:56:43.859Z</time></trkpt><trkpt lat="41.0478933" lon="13.93384"><ele>0.0</ele><time>2026-04-11T06:56:44.857Z</time></trkpt><trkpt lat="41.0479633" lon="13.9338733"><ele>0.0</ele><time>2026-04-11T06:56:45.858Z</time></trkpt><trkpt lat="41.04803" lon="13.9339183"><ele>0.0</ele><time>2026-04-11T06:56:46.86Z</time></trkpt><trkpt lat="41.0480933" lon="13.93397"><ele>0.0</ele><time>2026-04-11T06:56:47.859Z</time></trkpt><trkpt lat="41.048155" lon="13.9340283"><ele>0.0</ele><time>2026-04-11T06:56:48.859Z</time></trkpt><trkpt lat="41.048215" lon="13.9340867"><ele>0.0</ele><time>2026-04-11T06:56:49.86Z</time></trkpt><trkpt lat="41.0482733" lon="13.9341467"><ele>0.0</ele><time>2026-04-11T06:56:50.859Z</time></trkpt><trkpt lat="41.04833" lon="13.9342117"><ele>0.14285714285714285</ele><time>2026-04-11T06:56:51.86Z</time></trkpt><trkpt lat="41.0483833" lon="13.9342733"><ele>0.2857142857142857</ele><time>2026-04-11T06:56:52.859Z</time></trkpt><trkpt lat="41.0484333" lon="13.9343383"><ele>0.42857142857142855</ele><time>2026-04-11T06:56:53.861Z</time></trkpt><trkpt lat="41.048485" lon="13.9344033"><ele>0.5714285714285714</ele><time>2026-04-11T06:56:54.86Z</time></trkpt><trkpt lat="41.0485367" lon="13.9344717"><ele>0.7142857142857142</ele><time>2026-04-11T06:56:55.859Z</time></trkpt><trkpt lat="41.04859" lon="13.93454"><ele>0.8571428571428571</ele><time>2026-04-11T06:56:56.86Z</time></trkpt><trkpt lat="41.0486433" lon="13.93461"><ele>1.0</ele><time>2026-04-11T06:56:57.858Z</time></trkpt><trkpt lat="41.0487" lon="13.93468"><ele>0.9999999999999999</ele><time>2026-04-11T06:56:58.859Z</time></trkpt><trkpt lat="41.0487533" lon="13.9347483"><ele>1.0</ele><time>2026-04-11T06:56:59.86Z</time></trkpt><trkpt lat="41.0488" lon="13.9348183"><ele>1.0</ele><time>2026-04-11T06:57:00.86Z</time></trkpt><trkpt lat="41.04885" lon="13.9348917"><ele>1.0</ele><time>2026-04-11T06:57:01.86Z</time></trkpt><trkpt lat="41.048905" lon="13.93497"><ele>0.9999999999999999</ele><time>2026-04-11T06:57:02.859Z</time></trkpt><trkpt lat="41.0489633" lon="13.935045"><ele>1.0</ele><time>2026-04-11T06:57:03.859Z</time></trkpt><trkpt lat="41.0490217" lon="13.935105"><ele>1.1428571428571428</ele><time>2026-04-11T06:57:04.86Z</time></trkpt><trkpt lat="41.0490817" lon="13.9351567"><ele>1.2857142857142856</ele><time>2026-04-11T06:57:05.861Z</time></trkpt><trkpt lat="41.04914" lon="13.9352117"><ele>1.4285714285714284</ele><time>2026-04-11T06:57:06.859Z</time></trkpt><trkpt lat="41.0492017" lon="13.9352583"><ele>1.5714285714285714</ele><time>2026-04-11T06:57:07.859Z</time></trkpt><trkpt lat="41.0492667" lon="13.9352933"><ele>1.714285714285714</ele><time>2026-04-11T06:57:08.86Z</time></trkpt><trkpt lat="41.0493367" lon="13.93532"><ele>1.857142857142857</ele><time>2026-04-11T06:57:09.859Z</time></trkpt><trkpt lat="41.0494067" lon="13.93534"><ele>2.0</ele><time>2026-04-11T06:57:10.86Z</time></trkpt><trkpt lat="41.0494767" lon="13.93535"><ele>1.7142857142857142</ele><time>2026-04-11T06:57:11.86Z</time></trkpt><trkpt lat="41.0495483" lon="13.9353483"><ele>1.4285714285714284</ele><time>2026-04-11T06:57:12.859Z</time></trkpt><trkpt lat="41.0496183" lon="13.9353417"><ele>1.1428571428571428</ele><time>2026-04-11T06:57:13.86Z</time></trkpt><trkpt lat="41.0496867" lon="13.9353283"><ele>0.8571428571428571</ele><time>2026-04-11T06:57:14.859Z</time></trkpt><trkpt lat="41.0497533" lon="13.9353067"><ele>0.5714285714285714</ele><time>2026-04-11T06:57:15.859Z</time></trkpt><trkpt lat="41.04982" lon="13.93528"><ele>0.2857142857142857</ele><time>2026-04-11T06:57:16.86Z</time></trkpt><trkpt lat="41.0498817" lon="13.9352467"><ele>0.0</ele><time>2026-04-11T06:57:17.859Z</time></trkpt><trkpt lat="41.0499433" lon="13.9351967"><ele>0.0</ele><time>2026-04-11T06:57:18.86Z</time></trkpt><trkpt lat="41.05" lon="13.9351417"><ele>0.0</ele><time>2026-04-11T06:57:19.86Z</time></trkpt><trkpt lat="41.0500567" lon="13.93508"><ele>0.0</ele><time>2026-04-11T06:57:20.86Z</time></trkpt><trkpt lat="41.05011" lon="13.9350117"><ele>0.0</ele><time>2026-04-11T06:57:21.86Z</time></trkpt><trkpt lat="41.05016" lon="13.934945"><ele>0.0</ele><time>2026-04-11T06:57:22.859Z</time></trkpt><trkpt lat="41.0502067" lon="13.9348717"><ele>0.0</ele><time>2026-04-11T06:57:23.86Z</time></trkpt><trkpt lat="41.0502483" lon="13.9347933"><ele>0.0</ele><time>2026-04-11T06:57:24.86Z</time></trkpt><trkpt lat="41.050285" lon="13.9347117"><ele>0.0</ele><time>2026-04-11T06:57:25.86Z</time></trkpt><trkpt lat="41.0503183" lon="13.9346267"><ele>0.0</ele><time>2026-04-11T06:57:26.86Z</time></trkpt><trkpt lat="41.050345" lon="13.9345367"><ele>0.0</ele><time>2026-04-11T06:57:27.858Z</time></trkpt><trkpt lat="41.0503633" lon="13.9344433"><ele>0.0</ele><time>2026-04-11T06:57:28.86Z</time></trkpt><trkpt lat="41.0503817" lon="13.9343517"><ele>0.0</ele><time>2026-04-11T06:57:29.86Z</time></trkpt><trkpt lat="41.0504" lon="13.9342633"><ele>0.0</ele><time>2026-04-11T06:57:30.859Z</time></trkpt><trkpt lat="41.0504183" lon="13.934175"><ele>0.0</ele><time>2026-04-11T06:57:31.861Z</time></trkpt><trkpt lat="41.0504383" lon="13.934085"><ele>0.0</ele><time>2026-04-11T06:57:32.86Z</time></trkpt><trkpt lat="41.0504583" lon="13.933995"><ele>0.0</ele><time>2026-04-11T06:57:33.86Z</time></trkpt><trkpt lat="41.0504767" lon="13.933905"><ele>0.0</ele><time>2026-04-11T06:57:34.86Z</time></trkpt><trkpt lat="41.050495" lon="13.933815"><ele>0.0</ele><time>2026-04-11T06:57:35.86Z</time></trkpt><trkpt lat="41.0505167" lon="13.933725"><ele>0.0</ele><time>2026-04-11T06:57:36.859Z</time></trkpt><trkpt lat="41.0505367" lon="13.9336367"><ele>0.0</ele><time>2026-04-11T06:57:37.86Z</time></trkpt><trkpt lat="41.0505583" lon="13.93355"><ele>0.0</ele><time>2026-04-11T06:57:38.86Z</time></trkpt><trkpt lat="41.0505817" lon="13.9334633"><ele>0.0</ele><time>2026-04-11T06:57:39.86Z</time></trkpt><trkpt lat="41.0506083" lon="13.9333817"><ele>0.0</ele><time>2026-04-11T06:57:40.86Z</time></trkpt><trkpt lat="41.0506417" lon="13.9333067"><ele>0.0</ele><time>2026-04-11T06:57:41.86Z</time></trkpt><trkpt lat="41.0506783" lon="13.9332317"><ele>0.0</ele><time>2026-04-11T06:57:42.857Z</time></trkpt><trkpt lat="41.050715" lon="13.933155"><ele>0.0</ele><time>2026-04-11T06:57:43.859Z</time></trkpt><trkpt lat="41.0507533" lon="13.9330833"><ele>0.0</ele><time>2026-04-11T06:57:44.86Z</time></trkpt><trkpt lat="41.0507933" lon="13.9330133"><ele>0.0</ele><time>2026-04-11T06:57:45.86Z</time></trkpt><trkpt lat="41.05084" lon="13.9329467"><ele>0.0</ele><time>2026-04-11T06:57:46.86Z</time></trkpt><trkpt lat="41.050885" lon="13.932885"><ele>0.0</ele><time>2026-04-11T06:57:47.859Z</time></trkpt><trkpt lat="41.0509317" lon="13.9328267"><ele>0.0</ele><time>2026-04-11T06:57:48.859Z</time></trkpt><trkpt lat="41.0510283" lon="13.9327217"><ele>0.0</ele><time>2026-04-11T06:57:50.859Z</time></trkpt><trkpt lat="41.0510867" lon="13.9326717"><ele>0.0</ele><time>2026-04-11T06:57:51.857Z</time></trkpt><trkpt lat="41.0511433" lon="13.932615"><ele>0.0</ele><time>2026-04-11T06:57:52.86Z</time></trkpt><trkpt lat="41.0512033" lon="13.9325667"><ele>0.0</ele><time>2026-04-11T06:57:53.861Z</time></trkpt><trkpt lat="41.051265" lon="13.93252"><ele>0.0</ele><time>2026-04-11T06:57:54.858Z</time></trkpt><trkpt lat="41.0513267" lon="13.9324767"><ele>0.0</ele><time>2026-04-11T06:57:55.859Z</time></trkpt><trkpt lat="41.0513883" lon="13.9324333"><ele>0.0</ele><time>2026-04-11T06:57:56.86Z</time></trkpt><trkpt lat="41.05145" lon="13.9323917"><ele>0.0</ele><time>2026-04-11T06:57:57.859Z</time></trkpt><trkpt lat="41.05151" lon="13.9323533"><ele>0.0</ele><time>2026-04-11T06:57:58.86Z</time></trkpt><trkpt lat="41.0515667" lon="13.932315"><ele>0.0</ele><time>2026-04-11T06:57:59.86Z</time></trkpt><trkpt lat="41.051625" lon="13.9322767"><ele>0.16666666666666666</ele><time>2026-04-11T06:58:00.859Z</time></trkpt><trkpt lat="41.051735" lon="13.932195"><ele>0.3333333333333333</ele><time>2026-04-11T06:58:02.86Z</time></trkpt><trkpt lat="41.0517917" lon="13.932155"><ele>0.5</ele><time>2026-04-11T06:58:03.859Z</time></trkpt><trkpt lat="41.0518483" lon="13.9321167"><ele>0.6666666666666666</ele><time>2026-04-11T06:58:04.86Z</time></trkpt><trkpt lat="41.0519067" lon="13.93208"><ele>0.8333333333333333</ele><time>2026-04-11T06:58:05.86Z</time></trkpt><trkpt lat="41.0519683" lon="13.93205"><ele>1.0</ele><time>2026-04-11T06:58:06.859Z</time></trkpt><trkpt lat="41.05203" lon="13.93202"><ele>1.0</ele><time>2026-04-11T06:58:07.86Z</time></trkpt><trkpt lat="41.0520917" lon="13.9319917"><ele>0.9999999999999999</ele><time>2026-04-11T06:58:08.86Z</time></trkpt><trkpt lat="41.0521533" lon="13.931965"><ele>1.0</ele><time>2026-04-11T06:58:09.858Z</time></trkpt><trkpt lat="41.0522133" lon="13.9319367"><ele>1.0</ele><time>2026-04-11T06:58:10.86Z</time></trkpt><trkpt lat="41.0522767" lon="13.9319083"><ele>0.9999999999999999</ele><time>2026-04-11T06:58:11.859Z</time></trkpt><trkpt lat="41.0523383" lon="13.9318783"><ele>1.0</ele><time>2026-04-11T06:58:12.86Z</time></trkpt><trkpt lat="41.0523983" lon="13.9318467"><ele>1.0</ele><time>2026-04-11T06:58:13.86Z</time></trkpt><trkpt lat="41.05246" lon="13.9318117"><ele>1.1428571428571428</ele><time>2026-04-11T06:58:14.86Z</time></trkpt><trkpt lat="41.05252" lon="13.9317833"><ele>1.2857142857142856</ele><time>2026-04-11T06:58:15.86Z</time></trkpt><trkpt lat="41.052585" lon="13.9317533"><ele>1.4285714285714284</ele><time>2026-04-11T06:58:16.86Z</time></trkpt><trkpt lat="41.05265" lon="13.9317217"><ele>1.5714285714285714</ele><time>2026-04-11T06:58:17.86Z</time></trkpt><trkpt lat="41.052715" lon="13.93169"><ele>1.714285714285714</ele><time>2026-04-11T06:58:18.858Z</time></trkpt><trkpt lat="41.05278" lon="13.9316583"><ele>1.857142857142857</ele><time>2026-04-11T06:58:19.86Z</time></trkpt><trkpt lat="41.0528467" lon="13.9316283"><ele>2.0</ele><time>2026-04-11T06:58:20.859Z</time></trkpt><trkpt lat="41.0529133" lon="13.9315967"><ele>2.0</ele><time>2026-04-11T06:58:21.86Z</time></trkpt><trkpt lat="41.0529817" lon="13.9315667"><ele>1.9999999999999998</ele><time>2026-04-11T06:58:22.86Z</time></trkpt><trkpt lat="41.0530483" lon="13.9315367"><ele>2.0</ele><time>2026-04-11T06:58:23.86Z</time></trkpt><trkpt lat="41.0531133" lon="13.9315067"><ele>2.0</ele><time>2026-04-11T06:58:24.86Z</time></trkpt><trkpt lat="41.05318" lon="13.9314817"><ele>1.9999999999999998</ele><time>2026-04-11T06:58:25.86Z</time></trkpt><trkpt lat="41.0532467" lon="13.9314567"><ele>2.0</ele><time>2026-04-11T06:58:26.86Z</time></trkpt><trkpt lat="41.0533117" lon="13.9314317"><ele>2.0</ele><time>2026-04-11T06:58:27.86Z</time></trkpt><trkpt lat="41.05338" lon="13.9314033"><ele>2.0</ele><time>2026-04-11T06:58:28.858Z</time></trkpt><trkpt lat="41.05345" lon="13.9313717"><ele>1.9999999999999998</ele><time>2026-04-11T06:58:29.859Z</time></trkpt><trkpt lat="41.0535167" lon="13.9313433"><ele>2.0</ele><time>2026-04-11T06:58:30.859Z</time></trkpt><trkpt lat="41.0535883" lon="13.9313167"><ele>2.0</ele><time>2026-04-11T06:58:31.859Z</time></trkpt><trkpt lat="41.0536567" lon="13.93129"><ele>1.9999999999999998</ele><time>2026-04-11T06:58:32.86Z</time></trkpt><trkpt lat="41.0537233" lon="13.93126"><ele>2.0</ele><time>2026-04-11T06:58:33.86Z</time></trkpt><trkpt lat="41.0537933" lon="13.931225"><ele>2.0</ele><time>2026-04-11T06:58:34.859Z</time></trkpt><trkpt lat="41.053865" lon="13.9311917"><ele>2.0</ele><time>2026-04-11T06:58:35.86Z</time></trkpt><trkpt lat="41.0539333" lon="13.9311633"><ele>1.9999999999999998</ele><time>2026-04-11T06:58:36.86Z</time></trkpt><trkpt lat="41.054" lon="13.9311283"><ele>2.0</ele><time>2026-04-11T06:58:37.861Z</time></trkpt><trkpt lat="41.054065" lon="13.9310967"><ele>2.0</ele><time>2026-04-11T06:58:38.86Z</time></trkpt><trkpt lat="41.0541317" lon="13.9310683"><ele>1.9999999999999998</ele><time>2026-04-11T06:58:39.86Z</time></trkpt><trkpt lat="41.0541967" lon="13.9310383"><ele>2.0</ele><time>2026-04-11T06:58:40.859Z</time></trkpt><trkpt lat="41.0542617" lon="13.9310067"><ele>2.0</ele><time>2026-04-11T06:58:41.861Z</time></trkpt><trkpt lat="41.054325" lon="13.93097"><ele>2.0</ele><time>2026-04-11T06:58:42.861Z</time></trkpt><trkpt lat="41.0543917" lon="13.9309383"><ele>1.9999999999999998</ele><time>2026-04-11T06:58:43.861Z</time></trkpt><trkpt lat="41.0544567" lon="13.9309117"><ele>2.0</ele><time>2026-04-11T06:58:44.861Z</time></trkpt><trkpt lat="41.0545267" lon="13.9308833"><ele>2.0</ele><time>2026-04-11T06:58:45.86Z</time></trkpt><trkpt lat="41.054595" lon="13.930855"><ele>1.9999999999999998</ele><time>2026-04-11T06:58:46.86Z</time></trkpt><trkpt lat="41.0546617" lon="13.930825"><ele>2.0</ele><time>2026-04-11T06:58:47.859Z</time></trkpt><trkpt lat="41.0547317" lon="13.9307967"><ele>2.0</ele><time>2026-04-11T06:58:48.86Z</time></trkpt><trkpt lat="41.0548" lon="13.930765"><ele>2.0</ele><time>2026-04-11T06:58:49.861Z</time></trkpt><trkpt lat="41.0548667" lon="13.9307317"><ele>1.9999999999999998</ele><time>2026-04-11T06:58:50.861Z</time></trkpt><trkpt lat="41.0549333" lon="13.9306983"><ele>2.0</ele><time>2026-04-11T06:58:51.86Z</time></trkpt><trkpt lat="41.0550033" lon="13.9306667"><ele>2.0</ele><time>2026-04-11T06:58:52.861Z</time></trkpt><trkpt lat="41.0550717" lon="13.93064"><ele>1.9999999999999998</ele><time>2026-04-11T06:58:53.862Z</time></trkpt><trkpt lat="41.0551417" lon="13.93061"><ele>2.0</ele><time>2026-04-11T06:58:54.861Z</time></trkpt><trkpt lat="41.05521" lon="13.93058"><ele>2.0</ele><time>2026-04-11T06:58:55.859Z</time></trkpt><trkpt lat="41.0552767" lon="13.9305483"><ele>2.142857142857143</ele><time>2026-04-11T06:58:56.861Z</time></trkpt><trkpt lat="41.0553417" lon="13.9305167"><ele>2.2857142857142856</ele><time>2026-04-11T06:58:57.861Z</time></trkpt><trkpt lat="41.05541" lon="13.9304883"><ele>2.4285714285714284</ele><time>2026-04-11T06:58:58.86Z</time></trkpt><trkpt lat="41.0554783" lon="13.9304583"><ele>2.571428571428571</ele><time>2026-04-11T06:58:59.86Z</time></trkpt><trkpt lat="41.055545" lon="13.9304283"><ele>2.7142857142857144</ele><time>2026-04-11T06:59:00.86Z</time></trkpt><trkpt lat="41.0556133" lon="13.9303967"><ele>2.8571428571428568</ele><time>2026-04-11T06:59:01.86Z</time></trkpt><trkpt lat="41.0556817" lon="13.9303667"><ele>3.0</ele><time>2026-04-11T06:59:02.86Z</time></trkpt><trkpt lat="41.05575" lon="13.9303317"><ele>2.714285714285714</ele><time>2026-04-11T06:59:03.858Z</time></trkpt><trkpt lat="41.05582" lon="13.9302983"><ele>2.4285714285714284</ele><time>2026-04-11T06:59:04.859Z</time></trkpt><trkpt lat="41.0558917" lon="13.93027"><ele>2.142857142857143</ele><time>2026-04-11T06:59:05.86Z</time></trkpt><trkpt lat="41.0559667" lon="13.9302467"><ele>1.857142857142857</ele><time>2026-04-11T06:59:06.859Z</time></trkpt><trkpt lat="41.05604" lon="13.9302367"><ele>1.5714285714285712</ele><time>2026-04-11T06:59:07.86Z</time></trkpt><trkpt lat="41.056115" lon="13.9302367"><ele>1.2857142857142856</ele><time>2026-04-11T06:59:08.858Z</time></trkpt><trkpt lat="41.0561883" lon="13.930245"><ele>1.0</ele><time>2026-04-11T06:59:09.859Z</time></trkpt><trkpt lat="41.05626" lon="13.9302517"><ele>1.0</ele><time>2026-04-11T06:59:10.86Z</time></trkpt><trkpt lat="41.05633" lon="13.93024"><ele>0.9999999999999999</ele><time>2026-04-11T06:59:11.86Z</time></trkpt><trkpt lat="41.0563917" lon="13.9301983"><ele>1.0</ele><time>2026-04-11T06:59:12.861Z</time></trkpt><trkpt lat="41.05645" lon="13.9301383"><ele>1.0</ele><time>2026-04-11T06:59:13.86Z</time></trkpt><trkpt lat="41.056505" lon="13.9300667"><ele>0.9999999999999999</ele><time>2026-04-11T06:59:14.859Z</time></trkpt><trkpt lat="41.0565633" lon="13.9299983"><ele>1.0</ele><time>2026-04-11T06:59:15.859Z</time></trkpt><trkpt lat="41.0566233" lon="13.929945"><ele>1.0</ele><time>2026-04-11T06:59:16.858Z</time></trkpt><trkpt lat="41.0566917" lon="13.929905"><ele>1.1428571428571428</ele><time>2026-04-11T06:59:17.859Z</time></trkpt><trkpt lat="41.0567617" lon="13.9298717"><ele>1.2857142857142856</ele><time>2026-04-11T06:59:18.857Z</time></trkpt><trkpt lat="41.0568283" lon="13.9298367"><ele>1.4285714285714284</ele><time>2026-04-11T06:59:19.859Z</time></trkpt><trkpt lat="41.0568983" lon="13.929805"><ele>1.5714285714285714</ele><time>2026-04-11T06:59:20.858Z</time></trkpt><trkpt lat="41.0569667" lon="13.9297733"><ele>1.714285714285714</ele><time>2026-04-11T06:59:21.858Z</time></trkpt><trkpt lat="41.0570383" lon="13.92974"><ele>1.857142857142857</ele><time>2026-04-11T06:59:22.859Z</time></trkpt><trkpt lat="41.0571083" lon="13.9297083"><ele>2.0</ele><time>2026-04-11T06:59:23.859Z</time></trkpt><trkpt lat="41.0571817" lon="13.929675"><ele>2.0</ele><time>2026-04-11T06:59:24.858Z</time></trkpt><trkpt lat="41.0572517" lon="13.9296433"><ele>1.9999999999999998</ele><time>2026-04-11T06:59:25.859Z</time></trkpt><trkpt lat="41.0573217" lon="13.9296117"><ele>2.0</ele><time>2026-04-11T06:59:26.859Z</time></trkpt><trkpt lat="41.0573883" lon="13.92958"><ele>2.0</ele><time>2026-04-11T06:59:27.862Z</time></trkpt><trkpt lat="41.057455" lon="13.92955"><ele>1.9999999999999998</ele><time>2026-04-11T06:59:28.858Z</time></trkpt><trkpt lat="41.0575233" lon="13.9295183"><ele>2.0</ele><time>2026-04-11T06:59:29.859Z</time></trkpt><trkpt lat="41.0575883" lon="13.92949"><ele>2.0</ele><time>2026-04-11T06:59:30.858Z</time></trkpt><trkpt lat="41.0576567" lon="13.92946"><ele>2.0</ele><time>2026-04-11T06:59:31.859Z</time></trkpt><trkpt lat="41.057725" lon="13.92943"><ele>1.9999999999999998</ele><time>2026-04-11T06:59:32.858Z</time></trkpt><trkpt lat="41.0577917" lon="13.9293983"><ele>2.0</ele><time>2026-04-11T06:59:33.857Z</time></trkpt><trkpt lat="41.0578583" lon="13.9293633"><ele>2.0</ele><time>2026-04-11T06:59:34.858Z</time></trkpt><trkpt lat="41.0579267" lon="13.92933"><ele>1.9999999999999998</ele><time>2026-04-11T06:59:35.859Z</time></trkpt><trkpt lat="41.057995" lon="13.9293"><ele>2.0</ele><time>2026-04-11T06:59:36.857Z</time></trkpt><trkpt lat="41.0580617" lon="13.92927"><ele>2.0</ele><time>2026-04-11T06:59:37.858Z</time></trkpt><trkpt lat="41.0581267" lon="13.9292383"><ele>2.142857142857143</ele><time>2026-04-11T06:59:38.859Z</time></trkpt><trkpt lat="41.0581933" lon="13.9292067"><ele>2.2857142857142856</ele><time>2026-04-11T06:59:39.856Z</time></trkpt><trkpt lat="41.058265" lon="13.9291767"><ele>2.4285714285714284</ele><time>2026-04-11T06:59:40.858Z</time></trkpt><trkpt lat="41.0583333" lon="13.9291483"><ele>2.571428571428571</ele><time>2026-04-11T06:59:41.859Z</time></trkpt><trkpt lat="41.0584017" lon="13.9291217"><ele>2.7142857142857144</ele><time>2026-04-11T06:59:42.858Z</time></trkpt><trkpt lat="41.05847" lon="13.92909"><ele>2.8571428571428568</ele><time>2026-04-11T06:59:43.86Z</time></trkpt><trkpt lat="41.05854" lon="13.929055"><ele>3.0</ele><time>2026-04-11T06:59:44.86Z</time></trkpt><trkpt lat="41.05861" lon="13.92902"><ele>2.9999999999999996</ele><time>2026-04-11T06:59:45.857Z</time></trkpt><trkpt lat="41.05868" lon="13.9289833"><ele>3.0</ele><time>2026-04-11T06:59:46.859Z</time></trkpt><trkpt lat="41.05875" lon="13.9289533"><ele>3.0</ele><time>2026-04-11T06:59:47.859Z</time></trkpt><trkpt lat="41.0588183" lon="13.9289217"><ele>3.0</ele><time>2026-04-11T06:59:48.86Z</time></trkpt><trkpt lat="41.0588883" lon="13.928895"><ele>3.0</ele><time>2026-04-11T06:59:49.86Z</time></trkpt><trkpt lat="41.058955" lon="13.9288567"><ele>2.9999999999999996</ele><time>2026-04-11T06:59:50.859Z</time></trkpt><trkpt lat="41.0590217" lon="13.92882"><ele>3.0</ele><time>2026-04-11T06:59:51.859Z</time></trkpt><trkpt lat="41.0590883" lon="13.9287883"><ele>2.714285714285714</ele><time>2026-04-11T06:59:52.858Z</time></trkpt><trkpt lat="41.0591567" lon="13.928755"><ele>2.4285714285714284</ele><time>2026-04-11T06:59:53.858Z</time></trkpt><trkpt lat="41.0592233" lon="13.9287183"><ele>2.142857142857143</ele><time>2026-04-11T06:59:54.86Z</time></trkpt><trkpt lat="41.05929" lon="13.9286817"><ele>1.857142857142857</ele><time>2026-04-11T06:59:55.859Z</time></trkpt><trkpt lat="41.0593567" lon="13.9286517"><ele>1.5714285714285712</ele><time>2026-04-11T06:59:56.858Z</time></trkpt><trkpt lat="41.0594233" lon="13.9286167"><ele>1.2857142857142856</ele><time>2026-04-11T06:59:57.858Z</time></trkpt><trkpt lat="41.05949" lon="13.928585"><ele>1.0</ele><time>2026-04-11T06:59:58.858Z</time></trkpt><trkpt lat="41.0595567" lon="13.92855"><ele>1.0</ele><time>2026-04-11T06:59:59.86Z</time></trkpt><trkpt lat="41.059625" lon="13.9285133"><ele>0.9999999999999999</ele><time>2026-04-11T07:00:00.857Z</time></trkpt><trkpt lat="41.059695" lon="13.9284733"><ele>1.0</ele><time>2026-04-11T07:00:01.856Z</time></trkpt><trkpt lat="41.0597617" lon="13.9284317"><ele>1.0</ele><time>2026-04-11T07:00:02.858Z</time></trkpt><trkpt lat="41.0598317" lon="13.9283967"><ele>0.9999999999999999</ele><time>2026-04-11T07:00:03.858Z</time></trkpt><trkpt lat="41.0599" lon="13.9283633"><ele>1.0</ele><time>2026-04-11T07:00:04.859Z</time></trkpt><trkpt lat="41.05997" lon="13.9283367"><ele>1.0</ele><time>2026-04-11T07:00:05.86Z</time></trkpt><trkpt lat="41.0600417" lon="13.9283067"><ele>1.1428571428571428</ele><time>2026-04-11T07:00:06.858Z</time></trkpt><trkpt lat="41.0601133" lon="13.9282733"><ele>1.2857142857142856</ele><time>2026-04-11T07:00:07.858Z</time></trkpt><trkpt lat="41.0601833" lon="13.9282417"><ele>1.4285714285714284</ele><time>2026-04-11T07:00:08.859Z</time></trkpt><trkpt lat="41.0602533" lon="13.92821"><ele>1.5714285714285714</ele><time>2026-04-11T07:00:09.858Z</time></trkpt><trkpt lat="41.0603217" lon="13.9281733"><ele>1.714285714285714</ele><time>2026-04-11T07:00:10.859Z</time></trkpt><trkpt lat="41.06039" lon="13.9281417"><ele>1.857142857142857</ele><time>2026-04-11T07:00:11.859Z</time></trkpt><trkpt lat="41.0604633" lon="13.9281083"><ele>2.0</ele><time>2026-04-11T07:00:12.859Z</time></trkpt><trkpt lat="41.0605317" lon="13.9280783"><ele>1.9999999999999998</ele><time>2026-04-11T07:00:13.86Z</time></trkpt><trkpt lat="41.0606017" lon="13.9280433"><ele>2.0</ele><time>2026-04-11T07:00:14.857Z</time></trkpt><trkpt lat="41.0606733" lon="13.928005"><ele>2.0</ele><time>2026-04-11T07:00:15.857Z</time></trkpt><trkpt lat="41.0607433" lon="13.9279683"><ele>2.0</ele><time>2026-04-11T07:00:16.858Z</time></trkpt><trkpt lat="41.0608117" lon="13.9279267"><ele>1.9999999999999998</ele><time>2026-04-11T07:00:17.858Z</time></trkpt><trkpt lat="41.060885" lon="13.9278883"><ele>2.0</ele><time>2026-04-11T07:00:18.858Z</time></trkpt><trkpt lat="41.0609567" lon="13.9278517"><ele>1.9999999999999998</ele><time>2026-04-11T07:00:19.857Z</time></trkpt><trkpt lat="41.061025" lon="13.9278133"><ele>2.0</ele><time>2026-04-11T07:00:20.857Z</time></trkpt><trkpt lat="41.061095" lon="13.9277783"><ele>2.0</ele><time>2026-04-11T07:00:21.86Z</time></trkpt><trkpt lat="41.0611683" lon="13.9277433"><ele>2.0</ele><time>2026-04-11T07:00:22.857Z</time></trkpt><trkpt lat="41.06124" lon="13.9277067"><ele>1.9999999999999998</ele><time>2026-04-11T07:00:23.858Z</time></trkpt><trkpt lat="41.0613133" lon="13.92767"><ele>2.0</ele><time>2026-04-11T07:00:24.857Z</time></trkpt><trkpt lat="41.061385" lon="13.9276333"><ele>1.9999999999999998</ele><time>2026-04-11T07:00:25.858Z</time></trkpt><trkpt lat="41.06146" lon="13.927605"><ele>2.0</ele><time>2026-04-11T07:00:26.858Z</time></trkpt><trkpt lat="41.061535" lon="13.927575"><ele>2.0</ele><time>2026-04-11T07:00:27.858Z</time></trkpt><trkpt lat="41.0616067" lon="13.9275467"><ele>2.0</ele><time>2026-04-11T07:00:28.859Z</time></trkpt><trkpt lat="41.06168" lon="13.9275117"><ele>1.9999999999999998</ele><time>2026-04-11T07:00:29.86Z</time></trkpt><trkpt lat="41.061755" lon="13.9274817"><ele>2.0</ele><time>2026-04-11T07:00:30.86Z</time></trkpt><trkpt lat="41.0618283" lon="13.9274517"><ele>2.5</ele><time>2026-04-11T07:00:31.859Z</time></trkpt><trkpt lat="41.0619" lon="13.9274217"><ele>3.0</ele><time>2026-04-11T07:00:32.86Z</time></trkpt><trkpt lat="41.0619717" lon="13.927385"><ele>3.5</ele><time>2026-04-11T07:00:33.859Z</time></trkpt><trkpt lat="41.0620433" lon="13.9273483"><ele>4.0</ele><time>2026-04-11T07:00:34.86Z</time></trkpt><trkpt lat="41.062115" lon="13.927315"><ele>4.5</ele><time>2026-04-11T07:00:35.859Z</time></trkpt><trkpt lat="41.0621883" lon="13.9272833"><ele>5.0</ele><time>2026-04-11T07:00:36.86Z</time></trkpt><trkpt lat="41.06226" lon="13.92725"><ele>5.0</ele><time>2026-04-11T07:00:37.86Z</time></trkpt><trkpt lat="41.062335" lon="13.927215"><ele>5.0</ele><time>2026-04-11T07:00:38.859Z</time></trkpt><trkpt lat="41.0624083" lon="13.9271833"><ele>5.0</ele><time>2026-04-11T07:00:39.855Z</time></trkpt><trkpt lat="41.0624817" lon="13.9271517"><ele>5.0</ele><time>2026-04-11T07:00:40.858Z</time></trkpt><trkpt lat="41.0625517" lon="13.927115"><ele>5.0</ele><time>2026-04-11T07:00:41.861Z</time></trkpt><trkpt lat="41.062625" lon="13.9270783"><ele>5.0</ele><time>2026-04-11T07:00:42.859Z</time></trkpt><trkpt lat="41.0626983" lon="13.9270433"><ele>4.5</ele><time>2026-04-11T07:00:43.858Z</time></trkpt><trkpt lat="41.0627717" lon="13.9270083"><ele>4.0</ele><time>2026-04-11T07:00:44.859Z</time></trkpt><trkpt lat="41.062845" lon="13.9269783"><ele>3.5</ele><time>2026-04-11T07:00:45.859Z</time></trkpt><trkpt lat="41.0629183" lon="13.926945"><ele>3.0</ele><time>2026-04-11T07:00:46.859Z</time></trkpt><trkpt lat="41.06299" lon="13.9269117"><ele>2.5</ele><time>2026-04-11T07:00:47.86Z</time></trkpt><trkpt lat="41.0630617" lon="13.92688"><ele>2.0</ele><time>2026-04-11T07:00:48.859Z</time></trkpt><trkpt lat="41.063135" lon="13.9268533"><ele>1.9999999999999998</ele><time>2026-04-11T07:00:49.859Z</time></trkpt><trkpt lat="41.0632067" lon="13.9268217"><ele>2.0</ele><time>2026-04-11T07:00:50.859Z</time></trkpt><trkpt lat="41.063275" lon="13.9267867"><ele>2.0</ele><time>2026-04-11T07:00:51.859Z</time></trkpt><trkpt lat="41.0633467" lon="13.926745"><ele>2.0</ele><time>2026-04-11T07:00:52.86Z</time></trkpt><trkpt lat="41.0634183" lon="13.9267067"><ele>1.9999999999999998</ele><time>2026-04-11T07:00:53.859Z</time></trkpt><trkpt lat="41.06349" lon="13.9266667"><ele>2.0</ele><time>2026-04-11T07:00:54.858Z</time></trkpt><trkpt lat="41.06356" lon="13.9266317"><ele>1.9999999999999998</ele><time>2026-04-11T07:00:55.859Z</time></trkpt><trkpt lat="41.0636317" lon="13.9265933"><ele>2.0</ele><time>2026-04-11T07:00:56.859Z</time></trkpt><trkpt lat="41.0637" lon="13.9265533"><ele>2.0</ele><time>2026-04-11T07:00:57.858Z</time></trkpt><trkpt lat="41.06377" lon="13.9265133"><ele>2.0</ele><time>2026-04-11T07:00:58.859Z</time></trkpt><trkpt lat="41.0638383" lon="13.926475"><ele>1.9999999999999998</ele><time>2026-04-11T07:00:59.86Z</time></trkpt><trkpt lat="41.0639083" lon="13.926435"><ele>2.0</ele><time>2026-04-11T07:01:00.857Z</time></trkpt><trkpt lat="41.0639767" lon="13.926395"><ele>1.9999999999999998</ele><time>2026-04-11T07:01:01.859Z</time></trkpt><trkpt lat="41.0640483" lon="13.9263567"><ele>2.0</ele><time>2026-04-11T07:01:02.858Z</time></trkpt><trkpt lat="41.0641183" lon="13.9263183"><ele>2.0</ele><time>2026-04-11T07:01:03.86Z</time></trkpt><trkpt lat="41.0641883" lon="13.92628"><ele>2.0</ele><time>2026-04-11T07:01:04.859Z</time></trkpt><trkpt lat="41.0642583" lon="13.9262433"><ele>1.9999999999999998</ele><time>2026-04-11T07:01:05.859Z</time></trkpt><trkpt lat="41.064325" lon="13.9262017"><ele>2.0</ele><time>2026-04-11T07:01:06.858Z</time></trkpt><trkpt lat="41.0643933" lon="13.9261583"><ele>1.9999999999999998</ele><time>2026-04-11T07:01:07.858Z</time></trkpt><trkpt lat="41.0644617" lon="13.9261083"><ele>2.0</ele><time>2026-04-11T07:01:08.858Z</time></trkpt><trkpt lat="41.0645283" lon="13.9260567"><ele>2.0</ele><time>2026-04-11T07:01:09.857Z</time></trkpt><trkpt lat="41.0645917" lon="13.9260067"><ele>2.0</ele><time>2026-04-11T07:01:10.858Z</time></trkpt><trkpt lat="41.0646567" lon="13.9259567"><ele>1.9999999999999998</ele><time>2026-04-11T07:01:11.858Z</time></trkpt><trkpt lat="41.0647233" lon="13.925905"><ele>2.0</ele><time>2026-04-11T07:01:12.859Z</time></trkpt><trkpt lat="41.0647933" lon="13.925855"><ele>1.9999999999999998</ele><time>2026-04-11T07:01:13.858Z</time></trkpt><trkpt lat="41.0648617" lon="13.9258067"><ele>2.0</ele><time>2026-04-11T07:01:14.857Z</time></trkpt><trkpt lat="41.06493" lon="13.925755"><ele>2.0</ele><time>2026-04-11T07:01:15.858Z</time></trkpt><trkpt lat="41.0649983" lon="13.925705"><ele>2.0</ele><time>2026-04-11T07:01:16.858Z</time></trkpt><trkpt lat="41.0650683" lon="13.9256567"><ele>1.9999999999999998</ele><time>2026-04-11T07:01:17.86Z</time></trkpt><trkpt lat="41.0651367" lon="13.925605"><ele>2.0</ele><time>2026-04-11T07:01:18.859Z</time></trkpt><trkpt lat="41.0652067" lon="13.925555"><ele>1.8333333333333333</ele><time>2026-04-11T07:01:19.859Z</time></trkpt><trkpt lat="41.0652733" lon="13.9255033"><ele>1.6666666666666665</ele><time>2026-04-11T07:01:20.859Z</time></trkpt><trkpt lat="41.0653417" lon="13.9254517"><ele>1.5</ele><time>2026-04-11T07:01:21.858Z</time></trkpt><trkpt lat="41.0654133" lon="13.9254033"><ele>1.3333333333333333</ele><time>2026-04-11T07:01:22.858Z</time></trkpt><trkpt lat="41.0654833" lon="13.9253533"><ele>1.1666666666666665</ele><time>2026-04-11T07:01:23.859Z</time></trkpt><trkpt lat="41.0655533" lon="13.9253033"><ele>1.0</ele><time>2026-04-11T07:01:24.86Z</time></trkpt><trkpt lat="41.0656233" lon="13.9252567"><ele>0.9999999999999999</ele><time>2026-04-11T07:01:25.859Z</time></trkpt><trkpt lat="41.0656933" lon="13.9252067"><ele>1.0</ele><time>2026-04-11T07:01:26.859Z</time></trkpt><trkpt lat="41.0657633" lon="13.9251567"><ele>1.0</ele><time>2026-04-11T07:01:27.858Z</time></trkpt><trkpt lat="41.0658333" lon="13.9251083"><ele>1.0</ele><time>2026-04-11T07:01:28.859Z</time></trkpt><trkpt lat="41.065905" lon="13.9250617"><ele>0.9999999999999999</ele><time>2026-04-11T07:01:29.86Z</time></trkpt><trkpt lat="41.065975" lon="13.9250117"><ele>1.0</ele><time>2026-04-11T07:01:30.859Z</time></trkpt><trkpt lat="41.0660433" lon="13.9249633"><ele>0.9999999999999999</ele><time>2026-04-11T07:01:31.86Z</time></trkpt><trkpt lat="41.06611" lon="13.924915"><ele>1.0</ele><time>2026-04-11T07:01:32.859Z</time></trkpt><trkpt lat="41.0661767" lon="13.9248683"><ele>1.0</ele><time>2026-04-11T07:01:33.858Z</time></trkpt><trkpt lat="41.0662433" lon="13.9248233"><ele>1.0</ele><time>2026-04-11T07:01:34.859Z</time></trkpt><trkpt lat="41.0663117" lon="13.92478"><ele>0.9999999999999999</ele><time>2026-04-11T07:01:35.858Z</time></trkpt><trkpt lat="41.0663783" lon="13.9247367"><ele>1.0</ele><time>2026-04-11T07:01:36.86Z</time></trkpt><trkpt lat="41.0664483" lon="13.924695"><ele>0.9999999999999999</ele><time>2026-04-11T07:01:37.86Z</time></trkpt><trkpt lat="41.0665167" lon="13.9246533"><ele>1.0</ele><time>2026-04-11T07:01:38.86Z</time></trkpt><trkpt lat="41.0665867" lon="13.92461"><ele>1.0</ele><time>2026-04-11T07:01:39.858Z</time></trkpt><trkpt lat="41.0666567" lon="13.9245683"><ele>1.0</ele><time>2026-04-11T07:01:40.858Z</time></trkpt><trkpt lat="41.0667267" lon="13.92453"><ele>0.9999999999999999</ele><time>2026-04-11T07:01:41.86Z</time></trkpt><trkpt lat="41.0667967" lon="13.9244917"><ele>1.0</ele><time>2026-04-11T07:01:42.86Z</time></trkpt><trkpt lat="41.0668683" lon="13.924455"><ele>0.9999999999999999</ele><time>2026-04-11T07:01:43.859Z</time></trkpt><trkpt lat="41.0669383" lon="13.9244167"><ele>1.0</ele><time>2026-04-11T07:01:44.86Z</time></trkpt><trkpt lat="41.06701" lon="13.92438"><ele>1.0</ele><time>2026-04-11T07:01:45.858Z</time></trkpt><trkpt lat="41.06708" lon="13.9243417"><ele>1.0</ele><time>2026-04-11T07:01:46.859Z</time></trkpt><trkpt lat="41.0671533" lon="13.9243"><ele>0.9999999999999999</ele><time>2026-04-11T07:01:47.859Z</time></trkpt><trkpt lat="41.0672283" lon="13.9242583"><ele>1.0</ele><time>2026-04-11T07:01:48.86Z</time></trkpt><trkpt lat="41.0673033" lon="13.92422"><ele>0.9999999999999999</ele><time>2026-04-11T07:01:49.859Z</time></trkpt><trkpt lat="41.0673783" lon="13.9241817"><ele>1.0</ele><time>2026-04-11T07:01:50.86Z</time></trkpt><trkpt lat="41.067455" lon="13.92414"><ele>1.0</ele><time>2026-04-11T07:01:51.859Z</time></trkpt><trkpt lat="41.0675283" lon="13.9241"><ele>1.0</ele><time>2026-04-11T07:01:52.86Z</time></trkpt><trkpt lat="41.0676" lon="13.92406"><ele>0.9999999999999999</ele><time>2026-04-11T07:01:53.86Z</time></trkpt><trkpt lat="41.06767" lon="13.92402"><ele>1.0</ele><time>2026-04-11T07:01:54.86Z</time></trkpt><trkpt lat="41.0677417" lon="13.923985"><ele>0.9999999999999999</ele><time>2026-04-11T07:01:55.858Z</time></trkpt><trkpt lat="41.0678117" lon="13.9239517"><ele>1.0</ele><time>2026-04-11T07:01:56.859Z</time></trkpt><trkpt lat="41.06789" lon="13.923915"><ele>1.0</ele><time>2026-04-11T07:01:57.859Z</time></trkpt><trkpt lat="41.0679667" lon="13.9238767"><ele>1.0</ele><time>2026-04-11T07:01:58.858Z</time></trkpt><trkpt lat="41.06804" lon="13.9238417"><ele>0.9999999999999999</ele><time>2026-04-11T07:01:59.858Z</time></trkpt><trkpt lat="41.0681133" lon="13.9238083"><ele>1.0</ele><time>2026-04-11T07:02:00.86Z</time></trkpt><trkpt lat="41.0681883" lon="13.9237733"><ele>0.9999999999999999</ele><time>2026-04-11T07:02:01.858Z</time></trkpt><trkpt lat="41.068265" lon="13.9237367"><ele>1.0</ele><time>2026-04-11T07:02:02.86Z</time></trkpt><trkpt lat="41.06834" lon="13.9237017"><ele>1.0</ele><time>2026-04-11T07:02:03.858Z</time></trkpt><trkpt lat="41.0684167" lon="13.923665"><ele>1.0</ele><time>2026-04-11T07:02:04.859Z</time></trkpt><trkpt lat="41.0684933" lon="13.92363"><ele>0.9999999999999999</ele><time>2026-04-11T07:02:05.86Z</time></trkpt><trkpt lat="41.06857" lon="13.923595"><ele>1.0</ele><time>2026-04-11T07:02:06.858Z</time></trkpt><trkpt lat="41.0686467" lon="13.9235633"><ele>0.6666666666666666</ele><time>2026-04-11T07:02:07.86Z</time></trkpt><trkpt lat="41.0687233" lon="13.92353"><ele>0.3333333333333333</ele><time>2026-04-11T07:02:08.858Z</time></trkpt><trkpt lat="41.0688" lon="13.923495"><ele>0.0</ele><time>2026-04-11T07:02:09.858Z</time></trkpt><trkpt lat="41.0688783" lon="13.92346"><ele>-0.3333333333333333</ele><time>2026-04-11T07:02:10.859Z</time></trkpt><trkpt lat="41.068955" lon="13.9234267"><ele>-0.6666666666666666</ele><time>2026-04-11T07:02:11.858Z</time></trkpt><trkpt lat="41.069035" lon="13.9233933"><ele>-1.0</ele><time>2026-04-11T07:02:12.86Z</time></trkpt><trkpt lat="41.0691133" lon="13.9233583"><ele>-0.9999999999999999</ele><time>2026-04-11T07:02:13.859Z</time></trkpt><trkpt lat="41.0691917" lon="13.9233267"><ele>-1.0</ele><time>2026-04-11T07:02:14.858Z</time></trkpt><trkpt lat="41.0692717" lon="13.9232917"><ele>-1.0</ele><time>2026-04-11T07:02:15.86Z</time></trkpt><trkpt lat="41.06935" lon="13.9232533"><ele>-1.0</ele><time>2026-04-11T07:02:16.858Z</time></trkpt><trkpt lat="41.0694283" lon="13.9232167"><ele>-0.9999999999999999</ele><time>2026-04-11T07:02:17.859Z</time></trkpt><trkpt lat="41.0695067" lon="13.9231817"><ele>-1.0</ele><time>2026-04-11T07:02:18.86Z</time></trkpt><trkpt lat="41.069585" lon="13.9231467"><ele>-0.9999999999999999</ele><time>2026-04-11T07:02:19.86Z</time></trkpt><trkpt lat="41.0696617" lon="13.92311"><ele>-1.0</ele><time>2026-04-11T07:02:20.86Z</time></trkpt><trkpt lat="41.0697383" lon="13.923075"><ele>-1.0</ele><time>2026-04-11T07:02:21.859Z</time></trkpt><trkpt lat="41.0698133" lon="13.9230417"><ele>-1.0</ele><time>2026-04-11T07:02:22.86Z</time></trkpt><trkpt lat="41.06989" lon="13.9230083"><ele>-0.9999999999999999</ele><time>2026-04-11T07:02:23.858Z</time></trkpt><trkpt lat="41.0699667" lon="13.9229767"><ele>-1.0</ele><time>2026-04-11T07:02:24.86Z</time></trkpt><trkpt lat="41.07004" lon="13.922945"><ele>-0.8333333333333333</ele><time>2026-04-11T07:02:25.859Z</time></trkpt><trkpt lat="41.0701133" lon="13.9229133"><ele>-0.6666666666666666</ele><time>2026-04-11T07:02:26.859Z</time></trkpt><trkpt lat="41.07019" lon="13.9228783"><ele>-0.5</ele><time>2026-04-11T07:02:27.859Z</time></trkpt><trkpt lat="41.0702667" lon="13.922845"><ele>-0.3333333333333333</ele><time>2026-04-11T07:02:28.86Z</time></trkpt><trkpt lat="41.0703433" lon="13.9228117"><ele>-0.16666666666666666</ele><time>2026-04-11T07:02:29.858Z</time></trkpt><trkpt lat="41.0704167" lon="13.9227767"><ele>0.0</ele><time>2026-04-11T07:02:30.859Z</time></trkpt><trkpt lat="41.07049" lon="13.9227417"><ele>0.0</ele><time>2026-04-11T07:02:31.859Z</time></trkpt><trkpt lat="41.070565" lon="13.9227033"><ele>0.0</ele><time>2026-04-11T07:02:32.86Z</time></trkpt><trkpt lat="41.0706383" lon="13.9226667"><ele>0.0</ele><time>2026-04-11T07:02:33.859Z</time></trkpt><trkpt lat="41.0707133" lon="13.922635"><ele>0.0</ele><time>2026-04-11T07:02:34.858Z</time></trkpt><trkpt lat="41.0707883" lon="13.9225983"><ele>0.0</ele><time>2026-04-11T07:02:35.858Z</time></trkpt><trkpt lat="41.070865" lon="13.9225617"><ele>0.0</ele><time>2026-04-11T07:02:36.859Z</time></trkpt><trkpt lat="41.0709433" lon="13.92252"><ele>0.3333333333333333</ele><time>2026-04-11T07:02:37.86Z</time></trkpt><trkpt lat="41.0710233" lon="13.9224833"><ele>0.6666666666666666</ele><time>2026-04-11T07:02:38.858Z</time></trkpt><trkpt lat="41.0711" lon="13.92245"><ele>1.0</ele><time>2026-04-11T07:02:39.857Z</time></trkpt><trkpt lat="41.0711783" lon="13.9224083"><ele>1.3333333333333333</ele><time>2026-04-11T07:02:40.859Z</time></trkpt><trkpt lat="41.07126" lon="13.9223717"><ele>1.6666666666666665</ele><time>2026-04-11T07:02:41.858Z</time></trkpt><trkpt lat="41.0713383" lon="13.9223317"><ele>2.0</ele><time>2026-04-11T07:02:42.859Z</time></trkpt><trkpt lat="41.0714183" lon="13.922295"><ele>1.9999999999999998</ele><time>2026-04-11T07:02:43.859Z</time></trkpt><trkpt lat="41.0714967" lon="13.9222567"><ele>2.0</ele><time>2026-04-11T07:02:44.86Z</time></trkpt><trkpt lat="41.0715767" lon="13.92222"><ele>2.0</ele><time>2026-04-11T07:02:45.858Z</time></trkpt><trkpt lat="41.071655" lon="13.9221833"><ele>2.0</ele><time>2026-04-11T07:02:46.86Z</time></trkpt><trkpt lat="41.071735" lon="13.92215"><ele>1.9999999999999998</ele><time>2026-04-11T07:02:47.858Z</time></trkpt><trkpt lat="41.071815" lon="13.9221183"><ele>2.0</ele><time>2026-04-11T07:02:48.86Z</time></trkpt><trkpt lat="41.0718917" lon="13.9220883"><ele>1.6666666666666665</ele><time>2026-04-11T07:02:49.859Z</time></trkpt><trkpt lat="41.0719667" lon="13.922055"><ele>1.3333333333333333</ele><time>2026-04-11T07:02:50.857Z</time></trkpt><trkpt lat="41.0720433" lon="13.92202"><ele>1.0</ele><time>2026-04-11T07:02:51.859Z</time></trkpt><trkpt lat="41.0721183" lon="13.9219867"><ele>0.6666666666666666</ele><time>2026-04-11T07:02:52.857Z</time></trkpt><trkpt lat="41.072195" lon="13.9219517"><ele>0.3333333333333333</ele><time>2026-04-11T07:02:53.86Z</time></trkpt><trkpt lat="41.0722717" lon="13.9219167"><ele>0.0</ele><time>2026-04-11T07:02:54.86Z</time></trkpt><trkpt lat="41.0723467" lon="13.921875"><ele>0.0</ele><time>2026-04-11T07:02:55.86Z</time></trkpt><trkpt lat="41.0724217" lon="13.9218383"><ele>0.0</ele><time>2026-04-11T07:02:56.86Z</time></trkpt><trkpt lat="41.0724983" lon="13.9217983"><ele>0.0</ele><time>2026-04-11T07:02:57.859Z</time></trkpt><trkpt lat="41.072575" lon="13.9217567"><ele>0.0</ele><time>2026-04-11T07:02:58.858Z</time></trkpt><trkpt lat="41.0726533" lon="13.921715"><ele>0.0</ele><time>2026-04-11T07:02:59.859Z</time></trkpt><trkpt lat="41.0727317" lon="13.921675"><ele>0.0</ele><time>2026-04-11T07:03:00.858Z</time></trkpt><trkpt lat="41.0728067" lon="13.9216333"><ele>0.16666666666666666</ele><time>2026-04-11T07:03:01.859Z</time></trkpt><trkpt lat="41.0728817" lon="13.9215933"><ele>0.3333333333333333</ele><time>2026-04-11T07:03:02.858Z</time></trkpt><trkpt lat="41.0729567" lon="13.92155"><ele>0.5</ele><time>2026-04-11T07:03:03.858Z</time></trkpt><trkpt lat="41.0730283" lon="13.9215033"><ele>0.6666666666666666</ele><time>2026-04-11T07:03:04.856Z</time></trkpt><trkpt lat="41.0731033" lon="13.9214583"><ele>0.8333333333333333</ele><time>2026-04-11T07:03:05.859Z</time></trkpt><trkpt lat="41.07318" lon="13.9214117"><ele>1.0</ele><time>2026-04-11T07:03:06.857Z</time></trkpt><trkpt lat="41.0732567" lon="13.9213667"><ele>0.9999999999999999</ele><time>2026-04-11T07:03:07.858Z</time></trkpt><trkpt lat="41.073335" lon="13.921325"><ele>1.0</ele><time>2026-04-11T07:03:08.859Z</time></trkpt><trkpt lat="41.073415" lon="13.9212817"><ele>1.0</ele><time>2026-04-11T07:03:09.858Z</time></trkpt><trkpt lat="41.0734967" lon="13.9212417"><ele>1.0</ele><time>2026-04-11T07:03:10.858Z</time></trkpt><trkpt lat="41.073575" lon="13.9211983"><ele>0.9999999999999999</ele><time>2026-04-11T07:03:11.858Z</time></trkpt><trkpt lat="41.073655" lon="13.9211567"><ele>1.0</ele><time>2026-04-11T07:03:12.858Z</time></trkpt><trkpt lat="41.0737317" lon="13.9211183"><ele>0.9999999999999999</ele><time>2026-04-11T07:03:13.859Z</time></trkpt><trkpt lat="41.0738083" lon="13.9210833"><ele>1.0</ele><time>2026-04-11T07:03:14.859Z</time></trkpt><trkpt lat="41.0738833" lon="13.9210467"><ele>1.0</ele><time>2026-04-11T07:03:15.858Z</time></trkpt><trkpt lat="41.073955" lon="13.9210067"><ele>1.0</ele><time>2026-04-11T07:03:16.858Z</time></trkpt><trkpt lat="41.074025" lon="13.9209667"><ele>0.9999999999999999</ele><time>2026-04-11T07:03:17.857Z</time></trkpt><trkpt lat="41.0740883" lon="13.920935"><ele>1.0</ele><time>2026-04-11T07:03:18.858Z</time></trkpt><trkpt lat="41.07418" lon="13.9209017"><ele>0.9999999999999999</ele><time>2026-04-11T07:03:20.858Z</time></trkpt><trkpt lat="41.0742683" lon="13.9208633"><ele>1.0</ele><time>2026-04-11T07:04:31.858Z</time></trkpt><trkpt lat="41.074325" lon="13.920815"><ele>1.0</ele><time>2026-04-11T07:04:33.859Z</time></trkpt><trkpt lat="41.0743883" lon="13.920775"><ele>1.0</ele><time>2026-04-11T07:04:35.862Z</time></trkpt><trkpt lat="41.07446" lon="13.9207283"><ele>0.9999999999999999</ele><time>2026-04-11T07:04:37.858Z</time></trkpt><trkpt lat="41.074545" lon="13.9206767"><ele>1.0</ele><time>2026-04-11T07:04:39.859Z</time></trkpt><trkpt lat="41.0746383" lon="13.9206217"><ele>1.0</ele><time>2026-04-11T07:04:41.859Z</time></trkpt><trkpt lat="41.0747383" lon="13.9205633"><ele>1.0</ele><time>2026-04-11T07:04:43.858Z</time></trkpt><trkpt lat="41.0748467" lon="13.9205083"><ele>1.0</ele><time>2026-04-11T07:04:45.859Z</time></trkpt><trkpt lat="41.0749533" lon="13.9204467"><ele>1.0</ele><time>2026-04-11T07:04:47.859Z</time></trkpt><trkpt lat="41.075065" lon="13.920385"><ele>1.0</ele><time>2026-04-11T07:04:49.86Z</time></trkpt><trkpt lat="41.075125" lon="13.9203517"><ele>0.9999999999999999</ele><time>2026-04-11T07:04:50.859Z</time></trkpt><trkpt lat="41.0751833" lon="13.9203167"><ele>1.0</ele><time>2026-04-11T07:04:51.859Z</time></trkpt><trkpt lat="41.0752417" lon="13.9202833"><ele>1.0</ele><time>2026-04-11T07:04:52.859Z</time></trkpt><trkpt lat="41.0753017" lon="13.9202517"><ele>0.9999999999999999</ele><time>2026-04-11T07:04:53.86Z</time></trkpt><trkpt lat="41.075365" lon="13.9202183"><ele>1.0</ele><time>2026-04-11T07:04:54.859Z</time></trkpt><trkpt lat="41.0754267" lon="13.9201867"><ele>1.0</ele><time>2026-04-11T07:04:55.859Z</time></trkpt><trkpt lat="41.07549" lon="13.9201533"><ele>1.0</ele><time>2026-04-11T07:04:56.86Z</time></trkpt><trkpt lat="41.0755533" lon="13.92012"><ele>0.9999999999999999</ele><time>2026-04-11T07:04:57.858Z</time></trkpt><trkpt lat="41.0756167" lon="13.9200867"><ele>1.0</ele><time>2026-04-11T07:04:58.859Z</time></trkpt><trkpt lat="41.0756817" lon="13.920055"><ele>1.0</ele><time>2026-04-11T07:04:59.86Z</time></trkpt><trkpt lat="41.0757467" lon="13.92002"><ele>0.9999999999999999</ele><time>2026-04-11T07:05:00.86Z</time></trkpt><trkpt lat="41.075815" lon="13.9199867"><ele>1.0</ele><time>2026-04-11T07:05:01.859Z</time></trkpt><trkpt lat="41.0758833" lon="13.9199533"><ele>1.0</ele><time>2026-04-11T07:05:02.86Z</time></trkpt><trkpt lat="41.0759533" lon="13.91992"><ele>1.1428571428571428</ele><time>2026-04-11T07:05:03.859Z</time></trkpt><trkpt lat="41.07602" lon="13.919885"><ele>1.2857142857142856</ele><time>2026-04-11T07:05:04.859Z</time></trkpt><trkpt lat="41.0760833" lon="13.9198483"><ele>1.4285714285714284</ele><time>2026-04-11T07:05:05.86Z</time></trkpt><trkpt lat="41.0761483" lon="13.9198183"><ele>1.5714285714285714</ele><time>2026-04-11T07:05:06.858Z</time></trkpt><trkpt lat="41.076215" lon="13.9197867"><ele>1.714285714285714</ele><time>2026-04-11T07:05:07.859Z</time></trkpt><trkpt lat="41.0762817" lon="13.91975"><ele>1.857142857142857</ele><time>2026-04-11T07:05:08.858Z</time></trkpt><trkpt lat="41.0763483" lon="13.919715"><ele>2.0</ele><time>2026-04-11T07:05:09.857Z</time></trkpt><trkpt lat="41.076415" lon="13.9196833"><ele>2.0</ele><time>2026-04-11T07:05:10.862Z</time></trkpt><trkpt lat="41.0764817" lon="13.9196567"><ele>1.9999999999999998</ele><time>2026-04-11T07:05:11.861Z</time></trkpt><trkpt lat="41.0765467" lon="13.9196217"><ele>2.0</ele><time>2026-04-11T07:05:12.861Z</time></trkpt><trkpt lat="41.076615" lon="13.9195867"><ele>2.0</ele><time>2026-04-11T07:05:13.861Z</time></trkpt><trkpt lat="41.076685" lon="13.9195517"><ele>1.9999999999999998</ele><time>2026-04-11T07:05:14.86Z</time></trkpt><trkpt lat="41.076755" lon="13.9195217"><ele>2.0</ele><time>2026-04-11T07:05:15.859Z</time></trkpt><trkpt lat="41.0768267" lon="13.9194917"><ele>2.0</ele><time>2026-04-11T07:05:16.858Z</time></trkpt><trkpt lat="41.0769" lon="13.9194717"><ele>1.9999999999999998</ele><time>2026-04-11T07:05:17.858Z</time></trkpt><trkpt lat="41.0769767" lon="13.9194683"><ele>2.0</ele><time>2026-04-11T07:05:18.86Z</time></trkpt><trkpt lat="41.0770517" lon="13.9194767"><ele>2.0</ele><time>2026-04-11T07:05:19.858Z</time></trkpt><trkpt lat="41.0771233" lon="13.9194917"><ele>2.0</ele><time>2026-04-11T07:05:20.859Z</time></trkpt><trkpt lat="41.0772" lon="13.9195033"><ele>1.9999999999999998</ele><time>2026-04-11T07:05:21.858Z</time></trkpt><trkpt lat="41.0772767" lon="13.9194967"><ele>2.0</ele><time>2026-04-11T07:05:22.86Z</time></trkpt><trkpt lat="41.07735" lon="13.9194683"><ele>1.9999999999999998</ele><time>2026-04-11T07:05:23.859Z</time></trkpt><trkpt lat="41.0774133" lon="13.91941"><ele>2.0</ele><time>2026-04-11T07:05:24.86Z</time></trkpt><trkpt lat="41.0774667" lon="13.9193283"><ele>2.0</ele><time>2026-04-11T07:05:25.86Z</time></trkpt><trkpt lat="41.07751" lon="13.9192367"><ele>2.0</ele><time>2026-04-11T07:05:26.859Z</time></trkpt><trkpt lat="41.077555" lon="13.9191467"><ele>1.9999999999999998</ele><time>2026-04-11T07:05:27.858Z</time></trkpt><trkpt lat="41.0776083" lon="13.9190717"><ele>2.0</ele><time>2026-04-11T07:05:28.859Z</time></trkpt><trkpt lat="41.077675" lon="13.91902"><ele>1.9999999999999998</ele><time>2026-04-11T07:05:29.859Z</time></trkpt><trkpt lat="41.0777467" lon="13.9189833"><ele>2.0</ele><time>2026-04-11T07:05:30.857Z</time></trkpt><trkpt lat="41.0778183" lon="13.9189467"><ele>2.0</ele><time>2026-04-11T07:05:31.86Z</time></trkpt><trkpt lat="41.0778883" lon="13.9189067"><ele>2.0</ele><time>2026-04-11T07:05:32.86Z</time></trkpt><trkpt lat="41.0779617" lon="13.918865"><ele>1.9999999999999998</ele><time>2026-04-11T07:05:33.858Z</time></trkpt><trkpt lat="41.0780383" lon="13.918825"><ele>2.0</ele><time>2026-04-11T07:05:34.857Z</time></trkpt><trkpt lat="41.0781133" lon="13.9187833"><ele>1.9999999999999998</ele><time>2026-04-11T07:05:35.86Z</time></trkpt><trkpt lat="41.0781833" lon="13.9187417"><ele>2.0</ele><time>2026-04-11T07:05:36.857Z</time></trkpt><trkpt lat="41.0782567" lon="13.9186983"><ele>2.0</ele><time>2026-04-11T07:05:37.858Z</time></trkpt><trkpt lat="41.0783267" lon="13.918655"><ele>2.0</ele><time>2026-04-11T07:05:38.859Z</time></trkpt><trkpt lat="41.0783967" lon="13.9186117"><ele>1.9999999999999998</ele><time>2026-04-11T07:05:39.858Z</time></trkpt><trkpt lat="41.0784683" lon="13.91857"><ele>2.0</ele><time>2026-04-11T07:05:40.858Z</time></trkpt><trkpt lat="41.0785383" lon="13.918525"><ele>1.9999999999999998</ele><time>2026-04-11T07:05:41.86Z</time></trkpt><trkpt lat="41.07861" lon="13.91848"><ele>2.0</ele><time>2026-04-11T07:05:42.857Z</time></trkpt><trkpt lat="41.07868" lon="13.918435"><ele>2.0</ele><time>2026-04-11T07:05:43.859Z</time></trkpt><trkpt lat="41.0787483" lon="13.9183867"><ele>2.0</ele><time>2026-04-11T07:05:44.858Z</time></trkpt><trkpt lat="41.07882" lon="13.9183367"><ele>1.9999999999999998</ele><time>2026-04-11T07:05:45.858Z</time></trkpt><trkpt lat="41.07889" lon="13.91829"><ele>2.0</ele><time>2026-04-11T07:05:46.86Z</time></trkpt><trkpt lat="41.07896" lon="13.91824"><ele>1.9999999999999998</ele><time>2026-04-11T07:05:47.86Z</time></trkpt><trkpt lat="41.0790283" lon="13.9181867"><ele>2.0</ele><time>2026-04-11T07:05:48.86Z</time></trkpt><trkpt lat="41.0790967" lon="13.91813"><ele>2.0</ele><time>2026-04-11T07:05:49.86Z</time></trkpt><trkpt lat="41.0791633" lon="13.91807"><ele>2.0</ele><time>2026-04-11T07:05:50.859Z</time></trkpt><trkpt lat="41.0792317" lon="13.9180117"><ele>1.9999999999999998</ele><time>2026-04-11T07:05:51.859Z</time></trkpt><trkpt lat="41.0793" lon="13.9179533"><ele>2.0</ele><time>2026-04-11T07:05:52.86Z</time></trkpt><trkpt lat="41.0793667" lon="13.9178967"><ele>1.9999999999999998</ele><time>2026-04-11T07:05:53.86Z</time></trkpt><trkpt lat="41.0794333" lon="13.9178383"><ele>2.0</ele><time>2026-04-11T07:05:54.86Z</time></trkpt><trkpt lat="41.0794983" lon="13.9177733"><ele>2.0</ele><time>2026-04-11T07:05:55.86Z</time></trkpt><trkpt lat="41.0795633" lon="13.91771"><ele>2.0</ele><time>2026-04-11T07:05:56.861Z</time></trkpt><trkpt lat="41.0796283" lon="13.9176467"><ele>1.9999999999999998</ele><time>2026-04-11T07:05:57.86Z</time></trkpt><trkpt lat="41.0796883" lon="13.91758"><ele>2.0</ele><time>2026-04-11T07:05:58.857Z</time></trkpt><trkpt lat="41.0797483" lon="13.917515"><ele>1.9999999999999998</ele><time>2026-04-11T07:05:59.86Z</time></trkpt><trkpt lat="41.0798067" lon="13.9174467"><ele>2.0</ele><time>2026-04-11T07:06:00.86Z</time></trkpt><trkpt lat="41.079865" lon="13.91738"><ele>2.0</ele><time>2026-04-11T07:06:01.86Z</time></trkpt><trkpt lat="41.0799233" lon="13.91731"><ele>2.0</ele><time>2026-04-11T07:06:02.86Z</time></trkpt><trkpt lat="41.0799817" lon="13.917235"><ele>1.9999999999999998</ele><time>2026-04-11T07:06:03.861Z</time></trkpt><trkpt lat="41.0800383" lon="13.9171633"><ele>2.0</ele><time>2026-04-11T07:06:04.858Z</time></trkpt><trkpt lat="41.0800933" lon="13.91709"><ele>1.9999999999999998</ele><time>2026-04-11T07:06:05.86Z</time></trkpt><trkpt lat="41.0801467" lon="13.9170183"><ele>2.0</ele><time>2026-04-11T07:06:06.859Z</time></trkpt><trkpt lat="41.0802017" lon="13.9169433"><ele>2.0</ele><time>2026-04-11T07:06:07.859Z</time></trkpt><trkpt lat="41.0802583" lon="13.91687"><ele>2.0</ele><time>2026-04-11T07:06:08.861Z</time></trkpt><trkpt lat="41.0803167" lon="13.9167967"><ele>1.9999999999999998</ele><time>2026-04-11T07:06:09.858Z</time></trkpt><trkpt lat="41.0803733" lon="13.9167217"><ele>2.0</ele><time>2026-04-11T07:06:10.859Z</time></trkpt><trkpt lat="41.08043" lon="13.916645"><ele>1.9999999999999998</ele><time>2026-04-11T07:06:11.86Z</time></trkpt><trkpt lat="41.0804883" lon="13.91657"><ele>2.0</ele><time>2026-04-11T07:06:12.86Z</time></trkpt><trkpt lat="41.0805483" lon="13.9164983"><ele>2.0</ele><time>2026-04-11T07:06:13.86Z</time></trkpt><trkpt lat="41.0806067" lon="13.916425"><ele>2.0</ele><time>2026-04-11T07:06:14.86Z</time></trkpt><trkpt lat="41.080665" lon="13.9163483"><ele>1.9999999999999998</ele><time>2026-04-11T07:06:15.86Z</time></trkpt><trkpt lat="41.0807233" lon="13.9162733"><ele>2.0</ele><time>2026-04-11T07:06:16.86Z</time></trkpt><trkpt lat="41.0807867" lon="13.9161983"><ele>1.9999999999999998</ele><time>2026-04-11T07:06:17.86Z</time></trkpt><trkpt lat="41.0808483" lon="13.9161233"><ele>2.0</ele><time>2026-04-11T07:06:18.857Z</time></trkpt><trkpt lat="41.0809067" lon="13.9160483"><ele>2.0</ele><time>2026-04-11T07:06:19.859Z</time></trkpt><trkpt lat="41.0809683" lon="13.91597"><ele>2.0</ele><time>2026-04-11T07:06:20.86Z</time></trkpt><trkpt lat="41.08103" lon="13.9158933"><ele>1.9999999999999998</ele><time>2026-04-11T07:06:21.86Z</time></trkpt><trkpt lat="41.0810933" lon="13.9158167"><ele>2.0</ele><time>2026-04-11T07:06:22.86Z</time></trkpt><trkpt lat="41.0811567" lon="13.9157433"><ele>2.1666666666666665</ele><time>2026-04-11T07:06:23.86Z</time></trkpt><trkpt lat="41.0812183" lon="13.9156717"><ele>2.333333333333333</ele><time>2026-04-11T07:06:24.86Z</time></trkpt><trkpt lat="41.08128" lon="13.9156017"><ele>2.5</ele><time>2026-04-11T07:06:25.86Z</time></trkpt><trkpt lat="41.08134" lon="13.91553"><ele>2.6666666666666665</ele><time>2026-04-11T07:06:26.86Z</time></trkpt><trkpt lat="41.0814" lon="13.9154617"><ele>2.8333333333333335</ele><time>2026-04-11T07:06:27.858Z</time></trkpt><trkpt lat="41.0814633" lon="13.9153917"><ele>3.0</ele><time>2026-04-11T07:06:28.858Z</time></trkpt><trkpt lat="41.0815267" lon="13.9153233"><ele>3.0</ele><time>2026-04-11T07:06:29.86Z</time></trkpt><trkpt lat="41.0815883" lon="13.9152583"><ele>3.0</ele><time>2026-04-11T07:06:30.859Z</time></trkpt><trkpt lat="41.0816517" lon="13.9151933"><ele>3.0</ele><time>2026-04-11T07:06:31.86Z</time></trkpt><trkpt lat="41.081715" lon="13.9151333"><ele>3.0</ele><time>2026-04-11T07:06:32.859Z</time></trkpt><trkpt lat="41.08178" lon="13.91507"><ele>3.0</ele><time>2026-04-11T07:06:33.857Z</time></trkpt><trkpt lat="41.0818433" lon="13.9150083"><ele>3.0</ele><time>2026-04-11T07:06:34.858Z</time></trkpt><trkpt lat="41.0819083" lon="13.9149417"><ele>2.6666666666666665</ele><time>2026-04-11T07:06:35.859Z</time></trkpt><trkpt lat="41.0819767" lon="13.9148767"><ele>2.3333333333333335</ele><time>2026-04-11T07:06:36.864Z</time></trkpt><trkpt lat="41.082045" lon="13.914815"><ele>2.0</ele><time>2026-04-11T07:06:37.861Z</time></trkpt><trkpt lat="41.0821133" lon="13.914755"><ele>1.6666666666666665</ele><time>2026-04-11T07:06:38.859Z</time></trkpt><trkpt lat="41.08218" lon="13.9146967"><ele>1.3333333333333333</ele><time>2026-04-11T07:06:39.861Z</time></trkpt><trkpt lat="41.0822467" lon="13.9146383"><ele>1.0</ele><time>2026-04-11T07:06:40.861Z</time></trkpt><trkpt lat="41.0823117" lon="13.91458"><ele>0.9999999999999999</ele><time>2026-04-11T07:06:41.858Z</time></trkpt><trkpt lat="41.0823783" lon="13.9145233"><ele>1.0</ele><time>2026-04-11T07:06:42.862Z</time></trkpt><trkpt lat="41.0824467" lon="13.9144717"><ele>1.0</ele><time>2026-04-11T07:06:43.861Z</time></trkpt><trkpt lat="41.0825133" lon="13.9144167"><ele>1.0</ele><time>2026-04-11T07:06:44.861Z</time></trkpt><trkpt lat="41.0825767" lon="13.914365"><ele>0.9999999999999999</ele><time>2026-04-11T07:06:45.861Z</time></trkpt><trkpt lat="41.0826417" lon="13.9143117"><ele>1.0</ele><time>2026-04-11T07:06:46.86Z</time></trkpt><trkpt lat="41.0827083" lon="13.91426"><ele>1.1666666666666665</ele><time>2026-04-11T07:06:47.861Z</time></trkpt><trkpt lat="41.082775" lon="13.9142067"><ele>1.3333333333333333</ele><time>2026-04-11T07:06:48.858Z</time></trkpt><trkpt lat="41.0828417" lon="13.9141533"><ele>1.5</ele><time>2026-04-11T07:06:49.861Z</time></trkpt><trkpt lat="41.0829083" lon="13.9141033"><ele>1.6666666666666665</ele><time>2026-04-11T07:06:50.857Z</time></trkpt><trkpt lat="41.0829733" lon="13.9140517"><ele>1.8333333333333333</ele><time>2026-04-11T07:06:51.86Z</time></trkpt><trkpt lat="41.0830383" lon="13.9139983"><ele>2.0</ele><time>2026-04-11T07:06:52.857Z</time></trkpt><trkpt lat="41.083105" lon="13.9139483"><ele>1.9999999999999998</ele><time>2026-04-11T07:06:53.86Z</time></trkpt><trkpt lat="41.0831683" lon="13.9138967"><ele>2.0</ele><time>2026-04-11T07:06:54.859Z</time></trkpt><trkpt lat="41.0832317" lon="13.9138483"><ele>2.0</ele><time>2026-04-11T07:06:55.86Z</time></trkpt><trkpt lat="41.0832967" lon="13.9137983"><ele>2.0</ele><time>2026-04-11T07:06:56.86Z</time></trkpt><trkpt lat="41.0833633" lon="13.9137467"><ele>1.9999999999999998</ele><time>2026-04-11T07:06:57.859Z</time></trkpt><trkpt lat="41.08343" lon="13.913695"><ele>2.0</ele><time>2026-04-11T07:06:58.859Z</time></trkpt><trkpt lat="41.0834967" lon="13.913645"><ele>1.8333333333333333</ele><time>2026-04-11T07:06:59.86Z</time></trkpt><trkpt lat="41.0835633" lon="13.913595"><ele>1.6666666666666665</ele><time>2026-04-11T07:07:00.86Z</time></trkpt><trkpt lat="41.08363" lon="13.9135433"><ele>1.5</ele><time>2026-04-11T07:07:01.862Z</time></trkpt><trkpt lat="41.0836967" lon="13.9134917"><ele>1.3333333333333333</ele><time>2026-04-11T07:07:02.86Z</time></trkpt><trkpt lat="41.0837617" lon="13.9134383"><ele>1.1666666666666665</ele><time>2026-04-11T07:07:03.86Z</time></trkpt><trkpt lat="41.0838267" lon="13.9133883"><ele>1.0</ele><time>2026-04-11T07:07:04.858Z</time></trkpt><trkpt lat="41.08389" lon="13.9133367"><ele>0.9999999999999999</ele><time>2026-04-11T07:07:05.858Z</time></trkpt><trkpt lat="41.083955" lon="13.9132867"><ele>1.0</ele><time>2026-04-11T07:07:06.86Z</time></trkpt><trkpt lat="41.0840217" lon="13.9132333"><ele>1.0</ele><time>2026-04-11T07:07:07.861Z</time></trkpt><trkpt lat="41.0840883" lon="13.9131783"><ele>1.0</ele><time>2026-04-11T07:07:08.861Z</time></trkpt><trkpt lat="41.0841533" lon="13.9131267"><ele>0.9999999999999999</ele><time>2026-04-11T07:07:09.861Z</time></trkpt><trkpt lat="41.08422" lon="13.913075"><ele>1.0</ele><time>2026-04-11T07:07:10.861Z</time></trkpt><trkpt lat="41.0842867" lon="13.9130183"><ele>1.3333333333333333</ele><time>2026-04-11T07:07:11.857Z</time></trkpt><trkpt lat="41.0843517" lon="13.91296"><ele>1.6666666666666665</ele><time>2026-04-11T07:07:12.859Z</time></trkpt><trkpt lat="41.08442" lon="13.9129067"><ele>2.0</ele><time>2026-04-11T07:07:13.86Z</time></trkpt><trkpt lat="41.0844867" lon="13.912855"><ele>2.3333333333333335</ele><time>2026-04-11T07:07:14.859Z</time></trkpt><trkpt lat="41.0845517" lon="13.9127967"><ele>2.6666666666666665</ele><time>2026-04-11T07:07:15.859Z</time></trkpt><trkpt lat="41.0846183" lon="13.91274"><ele>3.0</ele><time>2026-04-11T07:07:16.857Z</time></trkpt><trkpt lat="41.0846833" lon="13.912685"><ele>3.0</ele><time>2026-04-11T07:07:17.86Z</time></trkpt><trkpt lat="41.0847517" lon="13.9126317"><ele>3.0</ele><time>2026-04-11T07:07:18.86Z</time></trkpt><trkpt lat="41.0848183" lon="13.9125817"><ele>3.0</ele><time>2026-04-11T07:07:19.859Z</time></trkpt><trkpt lat="41.0848833" lon="13.9125283"><ele>3.0</ele><time>2026-04-11T07:07:20.858Z</time></trkpt><trkpt lat="41.08495" lon="13.9124767"><ele>3.0</ele><time>2026-04-11T07:07:21.859Z</time></trkpt><trkpt lat="41.085015" lon="13.912425"><ele>3.0</ele><time>2026-04-11T07:07:22.859Z</time></trkpt><trkpt lat="41.08508" lon="13.912375"><ele>2.8333333333333335</ele><time>2026-04-11T07:07:23.86Z</time></trkpt><trkpt lat="41.085145" lon="13.912325"><ele>2.6666666666666665</ele><time>2026-04-11T07:07:24.861Z</time></trkpt><trkpt lat="41.0852117" lon="13.9122767"><ele>2.5</ele><time>2026-04-11T07:07:25.86Z</time></trkpt><trkpt lat="41.0852783" lon="13.912225"><ele>2.333333333333333</ele><time>2026-04-11T07:07:26.859Z</time></trkpt><trkpt lat="41.0853467" lon="13.9121717"><ele>2.1666666666666665</ele><time>2026-04-11T07:07:27.858Z</time></trkpt><trkpt lat="41.0854167" lon="13.9121183"><ele>2.0</ele><time>2026-04-11T07:07:28.861Z</time></trkpt><trkpt lat="41.0854867" lon="13.9120667"><ele>1.9999999999999998</ele><time>2026-04-11T07:07:29.858Z</time></trkpt><trkpt lat="41.08555" lon="13.9120133"><ele>2.0</ele><time>2026-04-11T07:07:30.861Z</time></trkpt><trkpt lat="41.0856183" lon="13.9119617"><ele>2.0</ele><time>2026-04-11T07:07:31.861Z</time></trkpt><trkpt lat="41.0856867" lon="13.9119067"><ele>2.0</ele><time>2026-04-11T07:07:32.86Z</time></trkpt><trkpt lat="41.0857517" lon="13.9118517"><ele>1.9999999999999998</ele><time>2026-04-11T07:07:33.859Z</time></trkpt><trkpt lat="41.0858183" lon="13.9117983"><ele>2.0</ele><time>2026-04-11T07:07:34.859Z</time></trkpt><trkpt lat="41.0858833" lon="13.9117433"><ele>1.9999999999999998</ele><time>2026-04-11T07:07:35.859Z</time></trkpt><trkpt lat="41.085945" lon="13.9116833"><ele>2.0</ele><time>2026-04-11T07:07:36.859Z</time></trkpt><trkpt lat="41.0860083" lon="13.9116233"><ele>2.0</ele><time>2026-04-11T07:07:37.86Z</time></trkpt><trkpt lat="41.0860733" lon="13.9115733"><ele>2.0</ele><time>2026-04-11T07:07:38.86Z</time></trkpt><trkpt lat="41.0861383" lon="13.911525"><ele>1.9999999999999998</ele><time>2026-04-11T07:07:39.858Z</time></trkpt><trkpt lat="41.0862033" lon="13.911475"><ele>2.0</ele><time>2026-04-11T07:07:40.86Z</time></trkpt><trkpt lat="41.0862683" lon="13.9114233"><ele>1.9999999999999998</ele><time>2026-04-11T07:07:41.86Z</time></trkpt><trkpt lat="41.086335" lon="13.911375"><ele>2.0</ele><time>2026-04-11T07:07:42.859Z</time></trkpt><trkpt lat="41.0864" lon="13.911325"><ele>2.0</ele><time>2026-04-11T07:07:43.86Z</time></trkpt><trkpt lat="41.0864667" lon="13.911275"><ele>2.0</ele><time>2026-04-11T07:07:44.86Z</time></trkpt><trkpt lat="41.0865333" lon="13.911225"><ele>1.9999999999999998</ele><time>2026-04-11T07:07:45.859Z</time></trkpt><trkpt lat="41.0866" lon="13.911175"><ele>2.0</ele><time>2026-04-11T07:07:46.86Z</time></trkpt><trkpt lat="41.0866667" lon="13.9111233"><ele>1.8333333333333333</ele><time>2026-04-11T07:07:47.86Z</time></trkpt><trkpt lat="41.0867333" lon="13.9110717"><ele>1.6666666666666665</ele><time>2026-04-11T07:07:48.86Z</time></trkpt><trkpt lat="41.0868" lon="13.9110233"><ele>1.5</ele><time>2026-04-11T07:07:49.859Z</time></trkpt><trkpt lat="41.086865" lon="13.9109717"><ele>1.3333333333333333</ele><time>2026-04-11T07:07:50.86Z</time></trkpt><trkpt lat="41.0869317" lon="13.91092"><ele>1.1666666666666665</ele><time>2026-04-11T07:07:51.859Z</time></trkpt><trkpt lat="41.086995" lon="13.9108683"><ele>1.0</ele><time>2026-04-11T07:07:52.86Z</time></trkpt><trkpt lat="41.08706" lon="13.9108183"><ele>0.9999999999999999</ele><time>2026-04-11T07:07:53.861Z</time></trkpt><trkpt lat="41.0871267" lon="13.9107667"><ele>1.0</ele><time>2026-04-11T07:07:54.86Z</time></trkpt><trkpt lat="41.0871917" lon="13.9107167"><ele>1.0</ele><time>2026-04-11T07:07:55.86Z</time></trkpt><trkpt lat="41.0872567" lon="13.910665"><ele>1.0</ele><time>2026-04-11T07:07:56.859Z</time></trkpt><trkpt lat="41.0873233" lon="13.9106133"><ele>0.9999999999999999</ele><time>2026-04-11T07:07:57.859Z</time></trkpt><trkpt lat="41.08739" lon="13.9105617"><ele>1.0</ele><time>2026-04-11T07:07:58.86Z</time></trkpt><trkpt lat="41.0874583" lon="13.9105067"><ele>1.3333333333333333</ele><time>2026-04-11T07:07:59.86Z</time></trkpt><trkpt lat="41.0875233" lon="13.910455"><ele>1.6666666666666665</ele><time>2026-04-11T07:08:00.86Z</time></trkpt><trkpt lat="41.08759" lon="13.9104033"><ele>2.0</ele><time>2026-04-11T07:08:01.861Z</time></trkpt><trkpt lat="41.0876567" lon="13.9103533"><ele>2.3333333333333335</ele><time>2026-04-11T07:08:02.86Z</time></trkpt><trkpt lat="41.0877217" lon="13.9103017"><ele>2.6666666666666665</ele><time>2026-04-11T07:08:03.86Z</time></trkpt><trkpt lat="41.0877867" lon="13.9102533"><ele>3.0</ele><time>2026-04-11T07:08:04.861Z</time></trkpt><trkpt lat="41.0878533" lon="13.910205"><ele>3.0</ele><time>2026-04-11T07:08:05.859Z</time></trkpt><trkpt lat="41.08792" lon="13.9101567"><ele>3.0</ele><time>2026-04-11T07:08:06.86Z</time></trkpt><trkpt lat="41.0879867" lon="13.9101067"><ele>3.0</ele><time>2026-04-11T07:08:07.859Z</time></trkpt><trkpt lat="41.088055" lon="13.9100583"><ele>3.0</ele><time>2026-04-11T07:08:08.86Z</time></trkpt><trkpt lat="41.088125" lon="13.91001"><ele>3.0</ele><time>2026-04-11T07:08:09.858Z</time></trkpt><trkpt lat="41.088195" lon="13.9099633"><ele>3.0</ele><time>2026-04-11T07:08:10.859Z</time></trkpt><trkpt lat="41.0882633" lon="13.9099183"><ele>3.0</ele><time>2026-04-11T07:08:11.86Z</time></trkpt><trkpt lat="41.0883317" lon="13.909875"><ele>3.0</ele><time>2026-04-11T07:08:12.86Z</time></trkpt><trkpt lat="41.0884017" lon="13.909835"><ele>3.0</ele><time>2026-04-11T07:08:13.862Z</time></trkpt><trkpt lat="41.0884717" lon="13.9097933"><ele>3.0</ele><time>2026-04-11T07:08:14.861Z</time></trkpt><trkpt lat="41.0885417" lon="13.9097517"><ele>3.0</ele><time>2026-04-11T07:08:15.858Z</time></trkpt><trkpt lat="41.08861" lon="13.9097117"><ele>3.0</ele><time>2026-04-11T07:08:16.859Z</time></trkpt><trkpt lat="41.08868" lon="13.9096717"><ele>2.9999999999999996</ele><time>2026-04-11T07:08:17.859Z</time></trkpt><trkpt lat="41.0887483" lon="13.9096317"><ele>3.0</ele><time>2026-04-11T07:08:18.86Z</time></trkpt><trkpt lat="41.088815" lon="13.909595"><ele>3.0</ele><time>2026-04-11T07:08:19.859Z</time></trkpt><trkpt lat="41.0888833" lon="13.9095583"><ele>3.0</ele><time>2026-04-11T07:08:20.858Z</time></trkpt><trkpt lat="41.088955" lon="13.9095217"><ele>3.0</ele><time>2026-04-11T07:08:21.862Z</time></trkpt><trkpt lat="41.089025" lon="13.9094867"><ele>2.9999999999999996</ele><time>2026-04-11T07:08:22.858Z</time></trkpt><trkpt lat="41.089095" lon="13.9094533"><ele>3.0</ele><time>2026-04-11T07:08:23.861Z</time></trkpt><trkpt lat="41.0891633" lon="13.9094217"><ele>2.714285714285714</ele><time>2026-04-11T07:08:24.86Z</time></trkpt><trkpt lat="41.08923" lon="13.90939"><ele>2.4285714285714284</ele><time>2026-04-11T07:08:25.861Z</time></trkpt><trkpt lat="41.0892983" lon="13.9093583"><ele>2.142857142857143</ele><time>2026-04-11T07:08:26.861Z</time></trkpt><trkpt lat="41.0893667" lon="13.90933"><ele>1.857142857142857</ele><time>2026-04-11T07:08:27.858Z</time></trkpt><trkpt lat="41.0894367" lon="13.9093"><ele>1.5714285714285712</ele><time>2026-04-11T07:08:28.859Z</time></trkpt><trkpt lat="41.089505" lon="13.90927"><ele>1.2857142857142856</ele><time>2026-04-11T07:08:29.859Z</time></trkpt><trkpt lat="41.0895733" lon="13.9092383"><ele>1.0</ele><time>2026-04-11T07:08:30.86Z</time></trkpt><trkpt lat="41.089645" lon="13.909205"><ele>1.0</ele><time>2026-04-11T07:08:31.859Z</time></trkpt><trkpt lat="41.089715" lon="13.909175"><ele>0.9999999999999999</ele><time>2026-04-11T07:08:32.86Z</time></trkpt><trkpt lat="41.0897867" lon="13.9091483"><ele>1.0</ele><time>2026-04-11T07:08:33.858Z</time></trkpt><trkpt lat="41.0898567" lon="13.9091217"><ele>1.0</ele><time>2026-04-11T07:08:34.86Z</time></trkpt><trkpt lat="41.0899267" lon="13.9090933"><ele>0.9999999999999999</ele><time>2026-04-11T07:08:35.859Z</time></trkpt><trkpt lat="41.0899983" lon="13.9090683"><ele>1.0</ele><time>2026-04-11T07:08:36.857Z</time></trkpt><trkpt lat="41.09007" lon="13.90904"><ele>1.0</ele><time>2026-04-11T07:08:37.858Z</time></trkpt><trkpt lat="41.0901433" lon="13.90901"><ele>0.9999999999999999</ele><time>2026-04-11T07:08:38.859Z</time></trkpt><trkpt lat="41.0902167" lon="13.908975"><ele>1.0</ele><time>2026-04-11T07:08:39.858Z</time></trkpt><trkpt lat="41.0902883" lon="13.908945"><ele>1.0</ele><time>2026-04-11T07:08:40.86Z</time></trkpt><trkpt lat="41.09036" lon="13.9089167"><ele>1.0</ele><time>2026-04-11T07:08:41.859Z</time></trkpt><trkpt lat="41.09043" lon="13.9088867"><ele>0.9999999999999999</ele><time>2026-04-11T07:08:42.859Z</time></trkpt><trkpt lat="41.0905033" lon="13.9088583"><ele>1.0</ele><time>2026-04-11T07:08:43.857Z</time></trkpt><trkpt lat="41.0905733" lon="13.90883"><ele>1.0</ele><time>2026-04-11T07:08:44.86Z</time></trkpt><trkpt lat="41.0906433" lon="13.9088033"><ele>0.9999999999999999</ele><time>2026-04-11T07:08:45.859Z</time></trkpt><trkpt lat="41.090715" lon="13.908775"><ele>1.0</ele><time>2026-04-11T07:08:46.859Z</time></trkpt><trkpt lat="41.0907833" lon="13.908745"><ele>1.0</ele><time>2026-04-11T07:08:47.86Z</time></trkpt><trkpt lat="41.0908517" lon="13.9087133"><ele>0.9999999999999999</ele><time>2026-04-11T07:08:48.86Z</time></trkpt><trkpt lat="41.09092" lon="13.9086817"><ele>1.0</ele><time>2026-04-11T07:08:49.86Z</time></trkpt><trkpt lat="41.0909883" lon="13.9086467"><ele>1.0</ele><time>2026-04-11T07:08:50.86Z</time></trkpt><trkpt lat="41.091055" lon="13.90861"><ele>1.1428571428571428</ele><time>2026-04-11T07:08:51.862Z</time></trkpt><trkpt lat="41.0911233" lon="13.908575"><ele>1.2857142857142856</ele><time>2026-04-11T07:08:52.859Z</time></trkpt><trkpt lat="41.09119" lon="13.9085367"><ele>1.4285714285714284</ele><time>2026-04-11T07:08:53.861Z</time></trkpt><trkpt lat="41.091255" lon="13.9084967"><ele>1.5714285714285714</ele><time>2026-04-11T07:08:54.859Z</time></trkpt><trkpt lat="41.091325" lon="13.9084567"><ele>1.714285714285714</ele><time>2026-04-11T07:08:55.86Z</time></trkpt><trkpt lat="41.0913917" lon="13.908415"><ele>1.857142857142857</ele><time>2026-04-11T07:08:56.86Z</time></trkpt><trkpt lat="41.09146" lon="13.9083717"><ele>2.0</ele><time>2026-04-11T07:08:57.86Z</time></trkpt><trkpt lat="41.091525" lon="13.908325"><ele>1.6666666666666665</ele><time>2026-04-11T07:08:58.861Z</time></trkpt><trkpt lat="41.0915917" lon="13.9082783"><ele>1.3333333333333333</ele><time>2026-04-11T07:08:59.862Z</time></trkpt><trkpt lat="41.09166" lon="13.9082333"><ele>1.0</ele><time>2026-04-11T07:09:00.859Z</time></trkpt><trkpt lat="41.0917267" lon="13.9081867"><ele>0.6666666666666666</ele><time>2026-04-11T07:09:01.86Z</time></trkpt><trkpt lat="41.09179" lon="13.9081367"><ele>0.3333333333333333</ele><time>2026-04-11T07:09:02.86Z</time></trkpt><trkpt lat="41.0918533" lon="13.908085"><ele>0.0</ele><time>2026-04-11T07:09:03.861Z</time></trkpt><trkpt lat="41.09192" lon="13.908035"><ele>0.0</ele><time>2026-04-11T07:09:04.862Z</time></trkpt><trkpt lat="41.0919883" lon="13.9079967"><ele>0.0</ele><time>2026-04-11T07:09:05.861Z</time></trkpt><trkpt lat="41.0920667" lon="13.9079733"><ele>0.0</ele><time>2026-04-11T07:09:06.861Z</time></trkpt><trkpt lat="41.092145" lon="13.9079517"><ele>0.0</ele><time>2026-04-11T07:09:07.86Z</time></trkpt><trkpt lat="41.0922167" lon="13.90792"><ele>0.0</ele><time>2026-04-11T07:09:08.86Z</time></trkpt><trkpt lat="41.092275" lon="13.9078717"><ele>0.0</ele><time>2026-04-11T07:09:09.86Z</time></trkpt><trkpt lat="41.0923267" lon="13.90781"><ele>0.0</ele><time>2026-04-11T07:09:10.86Z</time></trkpt><trkpt lat="41.0923717" lon="13.907735"><ele>0.0</ele><time>2026-04-11T07:09:11.861Z</time></trkpt><trkpt lat="41.09242" lon="13.9076583"><ele>0.0</ele><time>2026-04-11T07:09:12.858Z</time></trkpt><trkpt lat="41.0924717" lon="13.90759"><ele>0.0</ele><time>2026-04-11T07:09:13.859Z</time></trkpt><trkpt lat="41.0925317" lon="13.9075283"><ele>0.0</ele><time>2026-04-11T07:09:14.86Z</time></trkpt><trkpt lat="41.092595" lon="13.9074683"><ele>0.0</ele><time>2026-04-11T07:09:15.862Z</time></trkpt><trkpt lat="41.09266" lon="13.9074083"><ele>0.0</ele><time>2026-04-11T07:09:16.857Z</time></trkpt><trkpt lat="41.0927233" lon="13.90735"><ele>0.0</ele><time>2026-04-11T07:09:17.862Z</time></trkpt><trkpt lat="41.0927833" lon="13.9072933"><ele>0.0</ele><time>2026-04-11T07:09:18.86Z</time></trkpt><trkpt lat="41.092845" lon="13.9072317"><ele>0.0</ele><time>2026-04-11T07:09:19.859Z</time></trkpt><trkpt lat="41.0929067" lon="13.90717"><ele>0.0</ele><time>2026-04-11T07:09:20.86Z</time></trkpt><trkpt lat="41.0929683" lon="13.9071067"><ele>0.0</ele><time>2026-04-11T07:09:21.859Z</time></trkpt><trkpt lat="41.09303" lon="13.907045"><ele>0.0</ele><time>2026-04-11T07:09:22.862Z</time></trkpt><trkpt lat="41.0930933" lon="13.9069867"><ele>0.0</ele><time>2026-04-11T07:09:23.858Z</time></trkpt><trkpt lat="41.093155" lon="13.9069283"><ele>0.0</ele><time>2026-04-11T07:09:24.859Z</time></trkpt><trkpt lat="41.0932167" lon="13.9068633"><ele>0.0</ele><time>2026-04-11T07:09:25.862Z</time></trkpt><trkpt lat="41.0932783" lon="13.9068017"><ele>0.0</ele><time>2026-04-11T07:09:26.86Z</time></trkpt><trkpt lat="41.0933367" lon="13.9067417"><ele>0.0</ele><time>2026-04-11T07:09:27.858Z</time></trkpt><trkpt lat="41.0933917" lon="13.9066817"><ele>0.0</ele><time>2026-04-11T07:09:28.86Z</time></trkpt><trkpt lat="41.0934483" lon="13.906625"><ele>0.0</ele><time>2026-04-11T07:09:29.86Z</time></trkpt><trkpt lat="41.093505" lon="13.9065633"><ele>0.42857142857142855</ele><time>2026-04-11T07:09:30.86Z</time></trkpt><trkpt lat="41.09356" lon="13.9064983"><ele>0.8571428571428571</ele><time>2026-04-11T07:09:31.862Z</time></trkpt><trkpt lat="41.093615" lon="13.9064333"><ele>1.2857142857142856</ele><time>2026-04-11T07:09:32.858Z</time></trkpt><trkpt lat="41.09367" lon="13.9063683"><ele>1.7142857142857142</ele><time>2026-04-11T07:09:33.859Z</time></trkpt><trkpt lat="41.093725" lon="13.9063017"><ele>2.142857142857143</ele><time>2026-04-11T07:09:34.86Z</time></trkpt><trkpt lat="41.09378" lon="13.9062333"><ele>2.571428571428571</ele><time>2026-04-11T07:09:35.86Z</time></trkpt><trkpt lat="41.0938383" lon="13.906165"><ele>3.0</ele><time>2026-04-11T07:09:36.859Z</time></trkpt><trkpt lat="41.0938933" lon="13.906095"><ele>2.9999999999999996</ele><time>2026-04-11T07:09:37.859Z</time></trkpt><trkpt lat="41.0939467" lon="13.9060283"><ele>3.0</ele><time>2026-04-11T07:09:38.86Z</time></trkpt><trkpt lat="41.0940017" lon="13.9059617"><ele>3.0</ele><time>2026-04-11T07:09:39.86Z</time></trkpt><trkpt lat="41.0940567" lon="13.905895"><ele>3.0</ele><time>2026-04-11T07:09:40.86Z</time></trkpt><trkpt lat="41.09411" lon="13.90583"><ele>3.0</ele><time>2026-04-11T07:09:41.859Z</time></trkpt><trkpt lat="41.0941667" lon="13.9057633"><ele>2.9999999999999996</ele><time>2026-04-11T07:09:42.859Z</time></trkpt><trkpt lat="41.094225" lon="13.9056967"><ele>3.0</ele><time>2026-04-11T07:09:43.86Z</time></trkpt><trkpt lat="41.0942833" lon="13.90563"><ele>2.8333333333333335</ele><time>2026-04-11T07:09:44.86Z</time></trkpt><trkpt lat="41.0943367" lon="13.9055567"><ele>2.6666666666666665</ele><time>2026-04-11T07:09:45.857Z</time></trkpt><trkpt lat="41.0943917" lon="13.9054883"><ele>2.5</ele><time>2026-04-11T07:09:46.861Z</time></trkpt><trkpt lat="41.0944483" lon="13.90542"><ele>2.333333333333333</ele><time>2026-04-11T07:09:47.861Z</time></trkpt><trkpt lat="41.094505" lon="13.9053533"><ele>2.1666666666666665</ele><time>2026-04-11T07:09:48.861Z</time></trkpt><trkpt lat="41.0945583" lon="13.9052833"><ele>2.0</ele><time>2026-04-11T07:09:49.859Z</time></trkpt><trkpt lat="41.0946083" lon="13.9052133"><ele>2.0</ele><time>2026-04-11T07:09:50.859Z</time></trkpt><trkpt lat="41.0946617" lon="13.9051483"><ele>1.9999999999999998</ele><time>2026-04-11T07:09:51.857Z</time></trkpt><trkpt lat="41.09472" lon="13.9050867"><ele>2.0</ele><time>2026-04-11T07:09:52.862Z</time></trkpt><trkpt lat="41.0947817" lon="13.9050283"><ele>2.0</ele><time>2026-04-11T07:09:53.86Z</time></trkpt><trkpt lat="41.0948417" lon="13.9049683"><ele>1.9999999999999998</ele><time>2026-04-11T07:09:54.86Z</time></trkpt><trkpt lat="41.0948983" lon="13.9049033"><ele>2.0</ele><time>2026-04-11T07:09:55.86Z</time></trkpt><trkpt lat="41.0949533" lon="13.904835"><ele>2.0</ele><time>2026-04-11T07:09:56.86Z</time></trkpt><trkpt lat="41.0950083" lon="13.9047667"><ele>1.857142857142857</ele><time>2026-04-11T07:09:57.86Z</time></trkpt><trkpt lat="41.095065" lon="13.9047"><ele>1.714285714285714</ele><time>2026-04-11T07:09:58.86Z</time></trkpt><trkpt lat="41.0951217" lon="13.9046367"><ele>1.5714285714285714</ele><time>2026-04-11T07:09:59.859Z</time></trkpt><trkpt lat="41.0951767" lon="13.9045733"><ele>1.4285714285714284</ele><time>2026-04-11T07:10:00.861Z</time></trkpt><trkpt lat="41.09523" lon="13.9045083"><ele>1.2857142857142856</ele><time>2026-04-11T07:10:01.861Z</time></trkpt><trkpt lat="41.0952833" lon="13.9044433"><ele>1.1428571428571428</ele><time>2026-04-11T07:10:02.86Z</time></trkpt><trkpt lat="41.095335" lon="13.9043783"><ele>1.0</ele><time>2026-04-11T07:10:03.858Z</time></trkpt><trkpt lat="41.0953867" lon="13.9043133"><ele>1.1666666666666665</ele><time>2026-04-11T07:10:04.86Z</time></trkpt><trkpt lat="41.09544" lon="13.904245"><ele>1.3333333333333333</ele><time>2026-04-11T07:10:05.858Z</time></trkpt><trkpt lat="41.095495" lon="13.9041767"><ele>1.5</ele><time>2026-04-11T07:10:06.86Z</time></trkpt><trkpt lat="41.0955517" lon="13.90411"><ele>1.6666666666666665</ele><time>2026-04-11T07:10:07.86Z</time></trkpt><trkpt lat="41.0956083" lon="13.9040433"><ele>1.8333333333333333</ele><time>2026-04-11T07:10:08.859Z</time></trkpt><trkpt lat="41.0956633" lon="13.9039767"><ele>2.0</ele><time>2026-04-11T07:10:09.862Z</time></trkpt><trkpt lat="41.0957183" lon="13.9039067"><ele>1.8333333333333333</ele><time>2026-04-11T07:10:10.859Z</time></trkpt><trkpt lat="41.095775" lon="13.90384"><ele>1.6666666666666665</ele><time>2026-04-11T07:10:11.859Z</time></trkpt><trkpt lat="41.0958333" lon="13.9037717"><ele>1.5</ele><time>2026-04-11T07:10:12.86Z</time></trkpt><trkpt lat="41.0958917" lon="13.9037017"><ele>1.3333333333333333</ele><time>2026-04-11T07:10:13.86Z</time></trkpt><trkpt lat="41.0959433" lon="13.9036333"><ele>1.1666666666666665</ele><time>2026-04-11T07:10:14.859Z</time></trkpt><trkpt lat="41.0960017" lon="13.9035617"><ele>1.0</ele><time>2026-04-11T07:10:15.859Z</time></trkpt><trkpt lat="41.0960583" lon="13.903495"><ele>0.9999999999999999</ele><time>2026-04-11T07:10:16.858Z</time></trkpt><trkpt lat="41.0961133" lon="13.9034283"><ele>1.0</ele><time>2026-04-11T07:10:17.858Z</time></trkpt><trkpt lat="41.09617" lon="13.90336"><ele>1.0</ele><time>2026-04-11T07:10:18.861Z</time></trkpt><trkpt lat="41.0962267" lon="13.9032917"><ele>1.0</ele><time>2026-04-11T07:10:19.86Z</time></trkpt><trkpt lat="41.0962833" lon="13.903225"><ele>0.9999999999999999</ele><time>2026-04-11T07:10:20.86Z</time></trkpt><trkpt lat="41.0963383" lon="13.9031567"><ele>1.0</ele><time>2026-04-11T07:10:21.86Z</time></trkpt><trkpt lat="41.096395" lon="13.9030883"><ele>0.9999999999999999</ele><time>2026-04-11T07:10:22.858Z</time></trkpt><trkpt lat="41.096455" lon="13.9030183"><ele>1.0</ele><time>2026-04-11T07:10:23.858Z</time></trkpt><trkpt lat="41.096515" lon="13.902945"><ele>1.0</ele><time>2026-04-11T07:10:24.86Z</time></trkpt><trkpt lat="41.096575" lon="13.902875"><ele>1.0</ele><time>2026-04-11T07:10:25.86Z</time></trkpt><trkpt lat="41.09663" lon="13.902805"><ele>0.9999999999999999</ele><time>2026-04-11T07:10:26.86Z</time></trkpt><trkpt lat="41.0966867" lon="13.902735"><ele>1.0</ele><time>2026-04-11T07:10:27.86Z</time></trkpt><trkpt lat="41.0967433" lon="13.9026617"><ele>1.1666666666666665</ele><time>2026-04-11T07:10:28.86Z</time></trkpt><trkpt lat="41.0968" lon="13.9025883"><ele>1.3333333333333333</ele><time>2026-04-11T07:10:29.86Z</time></trkpt><trkpt lat="41.09686" lon="13.90252"><ele>1.5</ele><time>2026-04-11T07:10:30.86Z</time></trkpt><trkpt lat="41.0969183" lon="13.90245"><ele>1.6666666666666665</ele><time>2026-04-11T07:10:31.86Z</time></trkpt><trkpt lat="41.0969783" lon="13.9023783"><ele>1.8333333333333333</ele><time>2026-04-11T07:10:32.86Z</time></trkpt><trkpt lat="41.0970367" lon="13.9023117"><ele>2.0</ele><time>2026-04-11T07:10:33.86Z</time></trkpt><trkpt lat="41.097095" lon="13.902245"><ele>2.1666666666666665</ele><time>2026-04-11T07:10:34.861Z</time></trkpt><trkpt lat="41.0971533" lon="13.90218"><ele>2.333333333333333</ele><time>2026-04-11T07:10:35.86Z</time></trkpt><trkpt lat="41.09721" lon="13.902115"><ele>2.5</ele><time>2026-04-11T07:10:36.86Z</time></trkpt><trkpt lat="41.097265" lon="13.9020483"><ele>2.6666666666666665</ele><time>2026-04-11T07:10:37.861Z</time></trkpt><trkpt lat="41.0973233" lon="13.9019833"><ele>2.8333333333333335</ele><time>2026-04-11T07:10:38.86Z</time></trkpt><trkpt lat="41.09738" lon="13.9019167"><ele>3.0</ele><time>2026-04-11T07:10:39.859Z</time></trkpt><trkpt lat="41.0974367" lon="13.90185"><ele>2.6666666666666665</ele><time>2026-04-11T07:10:40.86Z</time></trkpt><trkpt lat="41.097495" lon="13.90178"><ele>2.3333333333333335</ele><time>2026-04-11T07:10:41.86Z</time></trkpt><trkpt lat="41.0975567" lon="13.9017067"><ele>2.0</ele><time>2026-04-11T07:10:42.862Z</time></trkpt><trkpt lat="41.0976167" lon="13.9016367"><ele>1.6666666666666665</ele><time>2026-04-11T07:10:43.86Z</time></trkpt><trkpt lat="41.097675" lon="13.9015667"><ele>1.3333333333333333</ele><time>2026-04-11T07:10:44.86Z</time></trkpt><trkpt lat="41.0977317" lon="13.9014967"><ele>1.0</ele><time>2026-04-11T07:10:45.86Z</time></trkpt><trkpt lat="41.0977883" lon="13.901425"><ele>0.9999999999999999</ele><time>2026-04-11T07:10:46.858Z</time></trkpt><trkpt lat="41.0978467" lon="13.9013533"><ele>1.0</ele><time>2026-04-11T07:10:47.86Z</time></trkpt><trkpt lat="41.097905" lon="13.9012833"><ele>1.0</ele><time>2026-04-11T07:10:48.86Z</time></trkpt><trkpt lat="41.0979617" lon="13.9012183"><ele>1.0</ele><time>2026-04-11T07:10:49.86Z</time></trkpt><trkpt lat="41.0980217" lon="13.9011467"><ele>0.9999999999999999</ele><time>2026-04-11T07:10:50.862Z</time></trkpt><trkpt lat="41.0980783" lon="13.901075"><ele>1.0</ele><time>2026-04-11T07:10:51.858Z</time></trkpt><trkpt lat="41.0981383" lon="13.9010017"><ele>0.9999999999999999</ele><time>2026-04-11T07:10:52.86Z</time></trkpt><trkpt lat="41.0981983" lon="13.90093"><ele>1.0</ele><time>2026-04-11T07:10:53.86Z</time></trkpt><trkpt lat="41.0982567" lon="13.9008567"><ele>1.0</ele><time>2026-04-11T07:10:54.859Z</time></trkpt><trkpt lat="41.098315" lon="13.9007833"><ele>1.0</ele><time>2026-04-11T07:10:55.862Z</time></trkpt><trkpt lat="41.0983717" lon="13.9007117"><ele>0.9999999999999999</ele><time>2026-04-11T07:10:56.858Z</time></trkpt><trkpt lat="41.0984267" lon="13.9006417"><ele>1.0</ele><time>2026-04-11T07:10:57.86Z</time></trkpt><trkpt lat="41.0984817" lon="13.90057"><ele>1.3333333333333333</ele><time>2026-04-11T07:10:58.86Z</time></trkpt><trkpt lat="41.0985367" lon="13.9005017"><ele>1.6666666666666665</ele><time>2026-04-11T07:10:59.859Z</time></trkpt><trkpt lat="41.0985917" lon="13.9004333"><ele>2.0</ele><time>2026-04-11T07:11:00.859Z</time></trkpt><trkpt lat="41.0986467" lon="13.900365"><ele>2.3333333333333335</ele><time>2026-04-11T07:11:01.859Z</time></trkpt><trkpt lat="41.0987017" lon="13.9002983"><ele>2.6666666666666665</ele><time>2026-04-11T07:11:02.862Z</time></trkpt><trkpt lat="41.0987583" lon="13.90023"><ele>3.0</ele><time>2026-04-11T07:11:03.86Z</time></trkpt><trkpt lat="41.098815" lon="13.9001633"><ele>2.9999999999999996</ele><time>2026-04-11T07:11:04.86Z</time></trkpt><trkpt lat="41.0988717" lon="13.9001"><ele>3.0</ele><time>2026-04-11T07:11:05.86Z</time></trkpt><trkpt lat="41.0989283" lon="13.900035"><ele>3.0</ele><time>2026-04-11T07:11:06.86Z</time></trkpt><trkpt lat="41.0989817" lon="13.8999717"><ele>3.0</ele><time>2026-04-11T07:11:07.862Z</time></trkpt><trkpt lat="41.099035" lon="13.8999033"><ele>3.0</ele><time>2026-04-11T07:11:08.86Z</time></trkpt><trkpt lat="41.0990883" lon="13.8998383"><ele>2.9999999999999996</ele><time>2026-04-11T07:11:09.859Z</time></trkpt><trkpt lat="41.0991433" lon="13.8997683"><ele>3.0</ele><time>2026-04-11T07:11:10.858Z</time></trkpt><trkpt lat="41.0992" lon="13.8997033"><ele>2.8333333333333335</ele><time>2026-04-11T07:11:11.863Z</time></trkpt><trkpt lat="41.099255" lon="13.8996333"><ele>2.6666666666666665</ele><time>2026-04-11T07:11:12.862Z</time></trkpt><trkpt lat="41.0993117" lon="13.8995667"><ele>2.5</ele><time>2026-04-11T07:11:13.86Z</time></trkpt><trkpt lat="41.0993683" lon="13.8994967"><ele>2.333333333333333</ele><time>2026-04-11T07:11:14.858Z</time></trkpt><trkpt lat="41.099425" lon="13.8994283"><ele>2.1666666666666665</ele><time>2026-04-11T07:11:15.861Z</time></trkpt><trkpt lat="41.09948" lon="13.8993633"><ele>2.0</ele><time>2026-04-11T07:11:16.859Z</time></trkpt><trkpt lat="41.0995333" lon="13.8993"><ele>1.9999999999999998</ele><time>2026-04-11T07:11:17.861Z</time></trkpt><trkpt lat="41.0995883" lon="13.8992317"><ele>2.0</ele><time>2026-04-11T07:11:18.859Z</time></trkpt><trkpt lat="41.0996433" lon="13.8991617"><ele>2.0</ele><time>2026-04-11T07:11:19.86Z</time></trkpt><trkpt lat="41.0997017" lon="13.899095"><ele>2.0</ele><time>2026-04-11T07:11:20.859Z</time></trkpt><trkpt lat="41.09976" lon="13.8990283"><ele>1.9999999999999998</ele><time>2026-04-11T07:11:21.86Z</time></trkpt><trkpt lat="41.09982" lon="13.898965"><ele>2.0</ele><time>2026-04-11T07:11:22.86Z</time></trkpt><trkpt lat="41.0998783" lon="13.8988983"><ele>1.9999999999999998</ele><time>2026-04-11T07:11:23.862Z</time></trkpt><trkpt lat="41.0999367" lon="13.89883"><ele>2.0</ele><time>2026-04-11T07:11:24.858Z</time></trkpt><trkpt lat="41.099995" lon="13.898765"><ele>2.0</ele><time>2026-04-11T07:11:25.862Z</time></trkpt><trkpt lat="41.1000533" lon="13.8986967"><ele>2.0</ele><time>2026-04-11T07:11:26.86Z</time></trkpt><trkpt lat="41.1001083" lon="13.8986267"><ele>1.9999999999999998</ele><time>2026-04-11T07:11:27.862Z</time></trkpt><trkpt lat="41.1001633" lon="13.8985533"><ele>2.0</ele><time>2026-04-11T07:11:28.858Z</time></trkpt><trkpt lat="41.1002217" lon="13.8984833"><ele>2.1666666666666665</ele><time>2026-04-11T07:11:29.86Z</time></trkpt><trkpt lat="41.1002783" lon="13.898415"><ele>2.333333333333333</ele><time>2026-04-11T07:11:30.862Z</time></trkpt><trkpt lat="41.1003383" lon="13.8983467"><ele>2.5</ele><time>2026-04-11T07:11:31.858Z</time></trkpt><trkpt lat="41.1003967" lon="13.8982783"><ele>2.6666666666666665</ele><time>2026-04-11T07:11:32.86Z</time></trkpt><trkpt lat="41.100455" lon="13.8982117"><ele>2.8333333333333335</ele><time>2026-04-11T07:11:33.86Z</time></trkpt><trkpt lat="41.1005133" lon="13.8981483"><ele>3.0</ele><time>2026-04-11T07:11:34.86Z</time></trkpt><trkpt lat="41.1005733" lon="13.8980833"><ele>3.0</ele><time>2026-04-11T07:11:35.86Z</time></trkpt><trkpt lat="41.1006333" lon="13.898015"><ele>3.0</ele><time>2026-04-11T07:11:36.86Z</time></trkpt><trkpt lat="41.10069" lon="13.8979417"><ele>3.0</ele><time>2026-04-11T07:11:37.86Z</time></trkpt><trkpt lat="41.100745" lon="13.8978683"><ele>3.0</ele><time>2026-04-11T07:11:38.86Z</time></trkpt><trkpt lat="41.1008" lon="13.8977967"><ele>3.0</ele><time>2026-04-11T07:11:39.86Z</time></trkpt><trkpt lat="41.1008567" lon="13.89773"><ele>3.0</ele><time>2026-04-11T07:11:40.861Z</time></trkpt><trkpt lat="41.1009133" lon="13.8976617"><ele>2.6666666666666665</ele><time>2026-04-11T07:11:41.86Z</time></trkpt><trkpt lat="41.1009717" lon="13.8975933"><ele>2.3333333333333335</ele><time>2026-04-11T07:11:42.86Z</time></trkpt><trkpt lat="41.1010283" lon="13.897525"><ele>2.0</ele><time>2026-04-11T07:11:43.86Z</time></trkpt><trkpt lat="41.1010833" lon="13.897455"><ele>1.6666666666666665</ele><time>2026-04-11T07:11:44.86Z</time></trkpt><trkpt lat="41.10114" lon="13.8973883"><ele>1.3333333333333333</ele><time>2026-04-11T07:11:45.859Z</time></trkpt><trkpt lat="41.1011967" lon="13.8973233"><ele>1.0</ele><time>2026-04-11T07:11:46.86Z</time></trkpt><trkpt lat="41.1012517" lon="13.8972583"><ele>0.9999999999999999</ele><time>2026-04-11T07:11:47.86Z</time></trkpt><trkpt lat="41.1013083" lon="13.89719"><ele>1.0</ele><time>2026-04-11T07:11:48.86Z</time></trkpt><trkpt lat="41.101365" lon="13.89712"><ele>1.0</ele><time>2026-04-11T07:11:49.86Z</time></trkpt><trkpt lat="41.1014233" lon="13.8970483"><ele>1.0</ele><time>2026-04-11T07:11:50.859Z</time></trkpt><trkpt lat="41.1014817" lon="13.8969783"><ele>0.9999999999999999</ele><time>2026-04-11T07:11:51.858Z</time></trkpt><trkpt lat="41.10154" lon="13.8969067"><ele>1.0</ele><time>2026-04-11T07:11:52.86Z</time></trkpt><trkpt lat="41.1015983" lon="13.8968333"><ele>1.1666666666666665</ele><time>2026-04-11T07:11:53.86Z</time></trkpt><trkpt lat="41.1016567" lon="13.8967617"><ele>1.3333333333333333</ele><time>2026-04-11T07:11:54.86Z</time></trkpt><trkpt lat="41.1017117" lon="13.8966933"><ele>1.5</ele><time>2026-04-11T07:11:55.861Z</time></trkpt><trkpt lat="41.1017717" lon="13.8966233"><ele>1.6666666666666665</ele><time>2026-04-11T07:11:56.863Z</time></trkpt><trkpt lat="41.1018317" lon="13.89655"><ele>1.8333333333333333</ele><time>2026-04-11T07:11:57.862Z</time></trkpt><trkpt lat="41.10189" lon="13.8964767"><ele>2.0</ele><time>2026-04-11T07:11:58.859Z</time></trkpt><trkpt lat="41.10195" lon="13.8964083"><ele>1.9999999999999998</ele><time>2026-04-11T07:11:59.861Z</time></trkpt><trkpt lat="41.1020083" lon="13.8963383"><ele>2.0</ele><time>2026-04-11T07:12:00.86Z</time></trkpt><trkpt lat="41.1020617" lon="13.8962667"><ele>2.0</ele><time>2026-04-11T07:12:01.86Z</time></trkpt><trkpt lat="41.10212" lon="13.8961967"><ele>2.0</ele><time>2026-04-11T07:12:02.86Z</time></trkpt><trkpt lat="41.10218" lon="13.8961283"><ele>1.9999999999999998</ele><time>2026-04-11T07:12:03.858Z</time></trkpt><trkpt lat="41.10224" lon="13.8960567"><ele>2.0</ele><time>2026-04-11T07:12:04.859Z</time></trkpt><trkpt lat="41.1023017" lon="13.895985"><ele>1.8333333333333333</ele><time>2026-04-11T07:12:05.859Z</time></trkpt><trkpt lat="41.1023633" lon="13.895915"><ele>1.6666666666666665</ele><time>2026-04-11T07:12:06.861Z</time></trkpt><trkpt lat="41.1024217" lon="13.895845"><ele>1.5</ele><time>2026-04-11T07:12:07.859Z</time></trkpt><trkpt lat="41.10248" lon="13.8957767"><ele>1.3333333333333333</ele><time>2026-04-11T07:12:08.86Z</time></trkpt><trkpt lat="41.1025367" lon="13.89571"><ele>1.1666666666666665</ele><time>2026-04-11T07:12:09.86Z</time></trkpt><trkpt lat="41.1025933" lon="13.89564"><ele>1.0</ele><time>2026-04-11T07:12:10.86Z</time></trkpt><trkpt lat="41.10265" lon="13.8955683"><ele>0.9999999999999999</ele><time>2026-04-11T07:12:11.861Z</time></trkpt><trkpt lat="41.10271" lon="13.895495"><ele>1.0</ele><time>2026-04-11T07:12:12.86Z</time></trkpt><trkpt lat="41.1027667" lon="13.8954233"><ele>1.0</ele><time>2026-04-11T07:12:13.861Z</time></trkpt><trkpt lat="41.1028267" lon="13.8953517"><ele>1.0</ele><time>2026-04-11T07:12:14.86Z</time></trkpt><trkpt lat="41.1028867" lon="13.8952783"><ele>0.9999999999999999</ele><time>2026-04-11T07:12:15.86Z</time></trkpt><trkpt lat="41.102945" lon="13.8952017"><ele>1.0</ele><time>2026-04-11T07:12:16.86Z</time></trkpt><trkpt lat="41.103005" lon="13.8951283"><ele>1.1666666666666665</ele><time>2026-04-11T07:12:17.86Z</time></trkpt><trkpt lat="41.103065" lon="13.895055"><ele>1.3333333333333333</ele><time>2026-04-11T07:12:18.86Z</time></trkpt><trkpt lat="41.1031233" lon="13.8949817"><ele>1.5</ele><time>2026-04-11T07:12:19.859Z</time></trkpt><trkpt lat="41.1031817" lon="13.89491"><ele>1.6666666666666665</ele><time>2026-04-11T07:12:20.86Z</time></trkpt><trkpt lat="41.103245" lon="13.8948383"><ele>1.8333333333333333</ele><time>2026-04-11T07:12:21.859Z</time></trkpt><trkpt lat="41.10331" lon="13.894765"><ele>2.0</ele><time>2026-04-11T07:12:22.86Z</time></trkpt><trkpt lat="41.1033733" lon="13.8946917"><ele>1.9999999999999998</ele><time>2026-04-11T07:12:23.86Z</time></trkpt><trkpt lat="41.1034367" lon="13.89462"><ele>2.0</ele><time>2026-04-11T07:12:24.859Z</time></trkpt><trkpt lat="41.1034983" lon="13.8945467"><ele>2.0</ele><time>2026-04-11T07:12:25.86Z</time></trkpt><trkpt lat="41.1035567" lon="13.89447"><ele>2.0</ele><time>2026-04-11T07:12:26.858Z</time></trkpt><trkpt lat="41.1036183" lon="13.8943967"><ele>1.9999999999999998</ele><time>2026-04-11T07:12:27.86Z</time></trkpt><trkpt lat="41.10368" lon="13.8943267"><ele>2.0</ele><time>2026-04-11T07:12:28.859Z</time></trkpt><trkpt lat="41.10374" lon="13.8942583"><ele>1.6666666666666665</ele><time>2026-04-11T07:12:29.86Z</time></trkpt><trkpt lat="41.1038" lon="13.8941883"><ele>1.3333333333333333</ele><time>2026-04-11T07:12:30.859Z</time></trkpt><trkpt lat="41.1038617" lon="13.8941183"><ele>1.0</ele><time>2026-04-11T07:12:31.861Z</time></trkpt><trkpt lat="41.1039233" lon="13.894045"><ele>0.6666666666666666</ele><time>2026-04-11T07:12:32.86Z</time></trkpt><trkpt lat="41.103985" lon="13.8939717"><ele>0.3333333333333333</ele><time>2026-04-11T07:12:33.86Z</time></trkpt><trkpt lat="41.104045" lon="13.8938983"><ele>0.0</ele><time>2026-04-11T07:12:34.86Z</time></trkpt><trkpt lat="41.104105" lon="13.893825"><ele>0.0</ele><time>2026-04-11T07:12:35.86Z</time></trkpt><trkpt lat="41.1041667" lon="13.8937517"><ele>0.0</ele><time>2026-04-11T07:12:36.859Z</time></trkpt><trkpt lat="41.1042283" lon="13.8936817"><ele>0.0</ele><time>2026-04-11T07:12:37.86Z</time></trkpt><trkpt lat="41.1042883" lon="13.89361"><ele>0.0</ele><time>2026-04-11T07:12:38.859Z</time></trkpt><trkpt lat="41.1043517" lon="13.89354"><ele>0.0</ele><time>2026-04-11T07:12:39.858Z</time></trkpt><trkpt lat="41.1044117" lon="13.89347"><ele>0.0</ele><time>2026-04-11T07:12:40.859Z</time></trkpt><trkpt lat="41.1044733" lon="13.8933967"><ele>0.16666666666666666</ele><time>2026-04-11T07:12:41.86Z</time></trkpt><trkpt lat="41.1045367" lon="13.8933217"><ele>0.3333333333333333</ele><time>2026-04-11T07:12:42.86Z</time></trkpt><trkpt lat="41.1046017" lon="13.89325"><ele>0.5</ele><time>2026-04-11T07:12:43.862Z</time></trkpt><trkpt lat="41.1046667" lon="13.8931817"><ele>0.6666666666666666</ele><time>2026-04-11T07:12:44.86Z</time></trkpt><trkpt lat="41.1047283" lon="13.8931117"><ele>0.8333333333333333</ele><time>2026-04-11T07:12:45.86Z</time></trkpt><trkpt lat="41.104785" lon="13.8930383"><ele>1.0</ele><time>2026-04-11T07:12:46.861Z</time></trkpt><trkpt lat="41.10484" lon="13.89297"><ele>1.0</ele><time>2026-04-11T07:12:47.86Z</time></trkpt><trkpt lat="41.1048933" lon="13.8929017"><ele>0.9999999999999999</ele><time>2026-04-11T07:12:48.86Z</time></trkpt><trkpt lat="41.10495" lon="13.8928367"><ele>1.0</ele><time>2026-04-11T07:12:49.86Z</time></trkpt><trkpt lat="41.1050067" lon="13.8927733"><ele>1.0</ele><time>2026-04-11T07:12:50.86Z</time></trkpt><trkpt lat="41.1050617" lon="13.89271"><ele>0.9999999999999999</ele><time>2026-04-11T07:12:51.858Z</time></trkpt><trkpt lat="41.105115" lon="13.8926467"><ele>1.0</ele><time>2026-04-11T07:12:52.86Z</time></trkpt><trkpt lat="41.1051667" lon="13.8925867"><ele>1.0</ele><time>2026-04-11T07:12:53.86Z</time></trkpt><trkpt lat="41.1052133" lon="13.892525"><ele>1.2000000000000002</ele><time>2026-04-11T07:12:54.86Z</time></trkpt><trkpt lat="41.10526" lon="13.89246"><ele>1.4000000000000001</ele><time>2026-04-11T07:12:55.861Z</time></trkpt><trkpt lat="41.105305" lon="13.8923983"><ele>1.6</ele><time>2026-04-11T07:12:56.86Z</time></trkpt><trkpt lat="41.10538" lon="13.8923033"><ele>1.8</ele><time>2026-04-11T07:12:58.859Z</time></trkpt><trkpt lat="41.1054567" lon="13.8922133"><ele>2.0</ele><time>2026-04-11T07:13:00.858Z</time></trkpt><trkpt lat="41.1055467" lon="13.8921217"><ele>2.0</ele><time>2026-04-11T07:13:02.86Z</time></trkpt><trkpt lat="41.105645" lon="13.89203"><ele>2.0</ele><time>2026-04-11T07:13:04.861Z</time></trkpt><trkpt lat="41.10574" lon="13.891925"><ele>2.0</ele><time>2026-04-11T07:13:06.86Z</time></trkpt><trkpt lat="41.10583" lon="13.89181"><ele>2.0</ele><time>2026-04-11T07:13:08.862Z</time></trkpt><trkpt lat="41.1058783" lon="13.8917517"><ele>2.0</ele><time>2026-04-11T07:13:09.861Z</time></trkpt><trkpt lat="41.1059267" lon="13.8916967"><ele>2.0</ele><time>2026-04-11T07:13:10.859Z</time></trkpt><trkpt lat="41.1060217" lon="13.8915883"><ele>2.0</ele><time>2026-04-11T07:13:12.86Z</time></trkpt><trkpt lat="41.1061167" lon="13.8914767"><ele>2.0</ele><time>2026-04-11T07:13:14.861Z</time></trkpt><trkpt lat="41.106165" lon="13.8914183"><ele>2.0</ele><time>2026-04-11T07:13:15.861Z</time></trkpt><trkpt lat="41.10621" lon="13.8913533"><ele>2.0</ele><time>2026-04-11T07:13:16.859Z</time></trkpt><trkpt lat="41.106255" lon="13.89129"><ele>2.0</ele><time>2026-04-11T07:13:17.86Z</time></trkpt><trkpt lat="41.106305" lon="13.891225"><ele>1.9999999999999998</ele><time>2026-04-11T07:13:18.861Z</time></trkpt><trkpt lat="41.1063583" lon="13.8911633"><ele>2.0</ele><time>2026-04-11T07:13:19.86Z</time></trkpt><trkpt lat="41.1064117" lon="13.8910967"><ele>2.0</ele><time>2026-04-11T07:13:20.859Z</time></trkpt><trkpt lat="41.106465" lon="13.89103"><ele>1.9999999999999998</ele><time>2026-04-11T07:13:21.86Z</time></trkpt><trkpt lat="41.10652" lon="13.890965"><ele>2.0</ele><time>2026-04-11T07:13:22.858Z</time></trkpt><trkpt lat="41.1065717" lon="13.8909"><ele>2.0</ele><time>2026-04-11T07:13:23.86Z</time></trkpt><trkpt lat="41.1066267" lon="13.89084"><ele>1.857142857142857</ele><time>2026-04-11T07:13:24.861Z</time></trkpt><trkpt lat="41.10668" lon="13.8907733"><ele>1.714285714285714</ele><time>2026-04-11T07:13:25.86Z</time></trkpt><trkpt lat="41.1067333" lon="13.8907083"><ele>1.5714285714285714</ele><time>2026-04-11T07:13:26.861Z</time></trkpt><trkpt lat="41.10679" lon="13.8906433"><ele>1.4285714285714284</ele><time>2026-04-11T07:13:27.86Z</time></trkpt><trkpt lat="41.1068467" lon="13.8905783"><ele>1.2857142857142856</ele><time>2026-04-11T07:13:28.859Z</time></trkpt><trkpt lat="41.1068967" lon="13.89051"><ele>1.1428571428571428</ele><time>2026-04-11T07:13:29.86Z</time></trkpt><trkpt lat="41.106945" lon="13.8904433"><ele>1.0</ele><time>2026-04-11T07:13:30.859Z</time></trkpt><trkpt lat="41.1069967" lon="13.8903767"><ele>1.0</ele><time>2026-04-11T07:13:31.861Z</time></trkpt><trkpt lat="41.1070483" lon="13.8903117"><ele>0.9999999999999999</ele><time>2026-04-11T07:13:32.858Z</time></trkpt><trkpt lat="41.1070983" lon="13.8902483"><ele>1.0</ele><time>2026-04-11T07:13:33.86Z</time></trkpt><trkpt lat="41.1071533" lon="13.8901833"><ele>1.0</ele><time>2026-04-11T07:13:34.861Z</time></trkpt><trkpt lat="41.1072067" lon="13.8901217"><ele>0.9999999999999999</ele><time>2026-04-11T07:13:35.859Z</time></trkpt><trkpt lat="41.10726" lon="13.8900567"><ele>1.0</ele><time>2026-04-11T07:13:36.86Z</time></trkpt><trkpt lat="41.107315" lon="13.8899883"><ele>1.0</ele><time>2026-04-11T07:13:37.86Z</time></trkpt><trkpt lat="41.10737" lon="13.8899183"><ele>0.9999999999999999</ele><time>2026-04-11T07:13:38.86Z</time></trkpt><trkpt lat="41.107425" lon="13.8898483"><ele>1.0</ele><time>2026-04-11T07:13:39.859Z</time></trkpt><trkpt lat="41.1074833" lon="13.8897783"><ele>1.0</ele><time>2026-04-11T07:13:40.86Z</time></trkpt><trkpt lat="41.1075433" lon="13.88971"><ele>1.0</ele><time>2026-04-11T07:13:41.86Z</time></trkpt><trkpt lat="41.1076033" lon="13.8896417"><ele>0.9999999999999999</ele><time>2026-04-11T07:13:42.86Z</time></trkpt><trkpt lat="41.10766" lon="13.8895717"><ele>1.0</ele><time>2026-04-11T07:13:43.862Z</time></trkpt><trkpt lat="41.1077183" lon="13.8895"><ele>0.9999999999999999</ele><time>2026-04-11T07:13:44.86Z</time></trkpt><trkpt lat="41.1077767" lon="13.88943"><ele>1.0</ele><time>2026-04-11T07:13:45.86Z</time></trkpt><trkpt lat="41.107835" lon="13.8893583"><ele>1.0</ele><time>2026-04-11T07:13:46.86Z</time></trkpt><trkpt lat="41.1078933" lon="13.8892867"><ele>1.0</ele><time>2026-04-11T07:13:47.86Z</time></trkpt><trkpt lat="41.1079517" lon="13.8892133"><ele>0.9999999999999999</ele><time>2026-04-11T07:13:48.859Z</time></trkpt><trkpt lat="41.1080117" lon="13.8891417"><ele>1.0</ele><time>2026-04-11T07:13:49.859Z</time></trkpt><trkpt lat="41.108075" lon="13.8890683"><ele>1.1666666666666665</ele><time>2026-04-11T07:13:50.861Z</time></trkpt><trkpt lat="41.108135" lon="13.888995"><ele>1.3333333333333333</ele><time>2026-04-11T07:13:51.858Z</time></trkpt><trkpt lat="41.108195" lon="13.8889233"><ele>1.5</ele><time>2026-04-11T07:13:52.859Z</time></trkpt><trkpt lat="41.1082583" lon="13.8888533"><ele>1.6666666666666665</ele><time>2026-04-11T07:13:53.86Z</time></trkpt><trkpt lat="41.1083183" lon="13.8887783"><ele>1.8333333333333333</ele><time>2026-04-11T07:13:54.861Z</time></trkpt><trkpt lat="41.1083767" lon="13.888705"><ele>2.0</ele><time>2026-04-11T07:13:55.858Z</time></trkpt><trkpt lat="41.1084383" lon="13.888635"><ele>1.9999999999999998</ele><time>2026-04-11T07:13:56.86Z</time></trkpt><trkpt lat="41.1084983" lon="13.8885633"><ele>2.0</ele><time>2026-04-11T07:13:57.86Z</time></trkpt><trkpt lat="41.1085567" lon="13.8884917"><ele>2.0</ele><time>2026-04-11T07:13:58.86Z</time></trkpt><trkpt lat="41.1086133" lon="13.88842"><ele>2.0</ele><time>2026-04-11T07:13:59.862Z</time></trkpt><trkpt lat="41.10867" lon="13.8883517"><ele>1.9999999999999998</ele><time>2026-04-11T07:14:00.858Z</time></trkpt><trkpt lat="41.108725" lon="13.8882783"><ele>2.0</ele><time>2026-04-11T07:14:01.859Z</time></trkpt><trkpt lat="41.1087817" lon="13.88821"><ele>2.1666666666666665</ele><time>2026-04-11T07:14:02.861Z</time></trkpt><trkpt lat="41.1088383" lon="13.8881417"><ele>2.333333333333333</ele><time>2026-04-11T07:14:03.859Z</time></trkpt><trkpt lat="41.1088967" lon="13.88807"><ele>2.5</ele><time>2026-04-11T07:14:04.862Z</time></trkpt><trkpt lat="41.1089567" lon="13.887995"><ele>2.6666666666666665</ele><time>2026-04-11T07:14:05.862Z</time></trkpt><trkpt lat="41.1090133" lon="13.887925"><ele>2.8333333333333335</ele><time>2026-04-11T07:14:06.862Z</time></trkpt><trkpt lat="41.10907" lon="13.8878583"><ele>3.0</ele><time>2026-04-11T07:14:07.861Z</time></trkpt><trkpt lat="41.10913" lon="13.8877917"><ele>3.0</ele><time>2026-04-11T07:14:08.859Z</time></trkpt><trkpt lat="41.10919" lon="13.8877233"><ele>3.0</ele><time>2026-04-11T07:14:09.858Z</time></trkpt><trkpt lat="41.1092483" lon="13.88765"><ele>3.0</ele><time>2026-04-11T07:14:10.861Z</time></trkpt><trkpt lat="41.1093067" lon="13.8875767"><ele>3.0</ele><time>2026-04-11T07:14:11.859Z</time></trkpt><trkpt lat="41.1093667" lon="13.88751"><ele>3.0</ele><time>2026-04-11T07:14:12.859Z</time></trkpt><trkpt lat="41.109425" lon="13.8874433"><ele>3.0</ele><time>2026-04-11T07:14:13.859Z</time></trkpt><trkpt lat="41.1094833" lon="13.8873783"><ele>3.1666666666666665</ele><time>2026-04-11T07:14:14.858Z</time></trkpt><trkpt lat="41.1095417" lon="13.8873133"><ele>3.333333333333333</ele><time>2026-04-11T07:14:15.858Z</time></trkpt><trkpt lat="41.109595" lon="13.8872483"><ele>3.5</ele><time>2026-04-11T07:14:16.859Z</time></trkpt><trkpt lat="41.1096467" lon="13.8871833"><ele>3.6666666666666665</ele><time>2026-04-11T07:14:17.858Z</time></trkpt><trkpt lat="41.1096967" lon="13.88712"><ele>3.833333333333333</ele><time>2026-04-11T07:14:18.86Z</time></trkpt><trkpt lat="41.10974" lon="13.8870533"><ele>4.0</ele><time>2026-04-11T07:14:19.86Z</time></trkpt><trkpt lat="41.1098083" lon="13.88693"><ele>4.0</ele><time>2026-04-11T07:14:21.859Z</time></trkpt><trkpt lat="41.1098917" lon="13.8868233"><ele>4.0</ele><time>2026-04-11T07:14:23.86Z</time></trkpt><trkpt lat="41.109975" lon="13.88673"><ele>4.0</ele><time>2026-04-11T07:14:25.859Z</time></trkpt><trkpt lat="41.1100583" lon="13.886625"><ele>4.0</ele><time>2026-04-11T07:14:27.859Z</time></trkpt><trkpt lat="41.11014" lon="13.8865133"><ele>3.8000000000000003</ele><time>2026-04-11T07:14:29.859Z</time></trkpt><trkpt lat="41.11023" lon="13.8864183"><ele>3.6000000000000005</ele><time>2026-04-11T07:14:31.86Z</time></trkpt><trkpt lat="41.1103217" lon="13.88632"><ele>3.4</ele><time>2026-04-11T07:14:33.858Z</time></trkpt><trkpt lat="41.1104217" lon="13.88622"><ele>3.2</ele><time>2026-04-11T07:14:35.86Z</time></trkpt><trkpt lat="41.110475" lon="13.886175"><ele>3.0</ele><time>2026-04-11T07:14:36.858Z</time></trkpt><trkpt lat="41.11053" lon="13.88613"><ele>2.9999999999999996</ele><time>2026-04-11T07:14:37.858Z</time></trkpt><trkpt lat="41.1105833" lon="13.8860767"><ele>3.0</ele><time>2026-04-11T07:14:38.859Z</time></trkpt><trkpt lat="41.1106333" lon="13.8860183"><ele>3.0</ele><time>2026-04-11T07:14:39.859Z</time></trkpt><trkpt lat="41.1106817" lon="13.8859583"><ele>3.0</ele><time>2026-04-11T07:14:40.859Z</time></trkpt><trkpt lat="41.1107267" lon="13.885895"><ele>3.0</ele><time>2026-04-11T07:14:41.859Z</time></trkpt><trkpt lat="41.1107733" lon="13.8858317"><ele>2.9999999999999996</ele><time>2026-04-11T07:14:42.859Z</time></trkpt><trkpt lat="41.1108217" lon="13.8857633"><ele>3.0</ele><time>2026-04-11T07:14:43.86Z</time></trkpt><trkpt lat="41.1108683" lon="13.8857"><ele>2.9999999999999996</ele><time>2026-04-11T07:14:44.858Z</time></trkpt><trkpt lat="41.1109167" lon="13.8856383"><ele>3.0</ele><time>2026-04-11T07:14:45.858Z</time></trkpt><trkpt lat="41.1109667" lon="13.885575"><ele>3.0</ele><time>2026-04-11T07:14:46.858Z</time></trkpt><trkpt lat="41.1110167" lon="13.8855117"><ele>3.0</ele><time>2026-04-11T07:14:47.859Z</time></trkpt><trkpt lat="41.111065" lon="13.885445"><ele>3.0</ele><time>2026-04-11T07:14:48.859Z</time></trkpt><trkpt lat="41.1111117" lon="13.8853817"><ele>2.9999999999999996</ele><time>2026-04-11T07:14:49.861Z</time></trkpt><trkpt lat="41.1111617" lon="13.8853217"><ele>3.0</ele><time>2026-04-11T07:14:50.858Z</time></trkpt><trkpt lat="41.111215" lon="13.8852583"><ele>2.9999999999999996</ele><time>2026-04-11T07:14:51.858Z</time></trkpt><trkpt lat="41.1112667" lon="13.885195"><ele>3.0</ele><time>2026-04-11T07:14:52.859Z</time></trkpt><trkpt lat="41.11132" lon="13.8851317"><ele>3.0</ele><time>2026-04-11T07:14:53.858Z</time></trkpt><trkpt lat="41.111375" lon="13.8850733"><ele>3.0</ele><time>2026-04-11T07:14:54.86Z</time></trkpt><trkpt lat="41.1114283" lon="13.8850133"><ele>3.0</ele><time>2026-04-11T07:14:55.859Z</time></trkpt><trkpt lat="41.1114783" lon="13.8849533"><ele>2.9999999999999996</ele><time>2026-04-11T07:14:56.859Z</time></trkpt><trkpt lat="41.1115283" lon="13.88489"><ele>3.0</ele><time>2026-04-11T07:14:57.859Z</time></trkpt><trkpt lat="41.11158" lon="13.884825"><ele>3.1428571428571423</ele><time>2026-04-11T07:14:58.86Z</time></trkpt><trkpt lat="41.1116317" lon="13.884765"><ele>3.2857142857142856</ele><time>2026-04-11T07:14:59.86Z</time></trkpt><trkpt lat="41.111685" lon="13.8847033"><ele>3.4285714285714284</ele><time>2026-04-11T07:15:00.86Z</time></trkpt><trkpt lat="41.1117333" lon="13.8846417"><ele>3.571428571428571</ele><time>2026-04-11T07:15:01.861Z</time></trkpt><trkpt lat="41.1117817" lon="13.8845783"><ele>3.714285714285714</ele><time>2026-04-11T07:15:02.86Z</time></trkpt><trkpt lat="41.11183" lon="13.8845167"><ele>3.8571428571428568</ele><time>2026-04-11T07:15:03.86Z</time></trkpt><trkpt lat="41.1118817" lon="13.884455"><ele>4.0</ele><time>2026-04-11T07:15:04.861Z</time></trkpt><trkpt lat="41.1119333" lon="13.8843933"><ele>4.0</ele><time>2026-04-11T07:15:05.858Z</time></trkpt><trkpt lat="41.1119883" lon="13.8843333"><ele>3.9999999999999996</ele><time>2026-04-11T07:15:06.858Z</time></trkpt><trkpt lat="41.11204" lon="13.8842717"><ele>4.0</ele><time>2026-04-11T07:15:07.859Z</time></trkpt><trkpt lat="41.11209" lon="13.88421"><ele>4.0</ele><time>2026-04-11T07:15:08.858Z</time></trkpt><trkpt lat="41.11214" lon="13.8841483"><ele>3.9999999999999996</ele><time>2026-04-11T07:15:09.858Z</time></trkpt><trkpt lat="41.11219" lon="13.8840833"><ele>4.0</ele><time>2026-04-11T07:15:10.86Z</time></trkpt><trkpt lat="41.11224" lon="13.8840217"><ele>4.0</ele><time>2026-04-11T07:15:11.86Z</time></trkpt><trkpt lat="41.1122933" lon="13.8839583"><ele>4.142857142857142</ele><time>2026-04-11T07:15:12.857Z</time></trkpt><trkpt lat="41.11235" lon="13.8838933"><ele>4.285714285714286</ele><time>2026-04-11T07:15:13.859Z</time></trkpt><trkpt lat="41.1124067" lon="13.88383"><ele>4.428571428571429</ele><time>2026-04-11T07:15:14.859Z</time></trkpt><trkpt lat="41.1124617" lon="13.8837683"><ele>4.571428571428571</ele><time>2026-04-11T07:15:15.859Z</time></trkpt><trkpt lat="41.1125167" lon="13.8837083"><ele>4.714285714285714</ele><time>2026-04-11T07:15:16.859Z</time></trkpt><trkpt lat="41.11257" lon="13.8836467"><ele>4.857142857142857</ele><time>2026-04-11T07:15:17.86Z</time></trkpt><trkpt lat="41.1126183" lon="13.883585"><ele>5.0</ele><time>2026-04-11T07:15:18.859Z</time></trkpt><trkpt lat="41.112665" lon="13.88352"><ele>5.0</ele><time>2026-04-11T07:15:19.86Z</time></trkpt><trkpt lat="41.112715" lon="13.883455"><ele>5.0</ele><time>2026-04-11T07:15:20.858Z</time></trkpt><trkpt lat="41.1127667" lon="13.8833833"><ele>5.0</ele><time>2026-04-11T07:15:21.858Z</time></trkpt><trkpt lat="41.1128217" lon="13.8833117"><ele>5.0</ele><time>2026-04-11T07:15:22.86Z</time></trkpt><trkpt lat="41.1128767" lon="13.8832433"><ele>5.0</ele><time>2026-04-11T07:15:23.859Z</time></trkpt><trkpt lat="41.1129333" lon="13.88318"><ele>5.0</ele><time>2026-04-11T07:15:24.859Z</time></trkpt><trkpt lat="41.11299" lon="13.883115"><ele>5.0</ele><time>2026-04-11T07:15:25.859Z</time></trkpt><trkpt lat="41.113045" lon="13.8830517"><ele>5.0</ele><time>2026-04-11T07:15:26.86Z</time></trkpt><trkpt lat="41.1130967" lon="13.8829883"><ele>5.0</ele><time>2026-04-11T07:15:27.859Z</time></trkpt><trkpt lat="41.11315" lon="13.8829267"><ele>5.0</ele><time>2026-04-11T07:15:28.859Z</time></trkpt><trkpt lat="41.1132017" lon="13.8828717"><ele>5.0</ele><time>2026-04-11T07:15:29.86Z</time></trkpt><trkpt lat="41.1132533" lon="13.8828233"><ele>5.0</ele><time>2026-04-11T07:15:30.859Z</time></trkpt><trkpt lat="41.1133583" lon="13.8827433"><ele>5.0</ele><time>2026-04-11T07:15:32.859Z</time></trkpt><trkpt lat="41.113465" lon="13.8826667"><ele>5.0</ele><time>2026-04-11T07:15:34.859Z</time></trkpt><trkpt lat="41.11352" lon="13.8826217"><ele>5.0</ele><time>2026-04-11T07:15:35.859Z</time></trkpt><trkpt lat="41.1135717" lon="13.8825683"><ele>5.0</ele><time>2026-04-11T07:15:36.858Z</time></trkpt><trkpt lat="41.1136167" lon="13.8825033"><ele>5.0</ele><time>2026-04-11T07:15:37.859Z</time></trkpt><trkpt lat="41.1136533" lon="13.88243"><ele>5.0</ele><time>2026-04-11T07:15:38.859Z</time></trkpt><trkpt lat="41.1136883" lon="13.8823517"><ele>5.0</ele><time>2026-04-11T07:15:39.861Z</time></trkpt><trkpt lat="41.1137233" lon="13.8822767"><ele>5.0</ele><time>2026-04-11T07:15:40.861Z</time></trkpt><trkpt lat="41.11376" lon="13.8822067"><ele>5.0</ele><time>2026-04-11T07:15:41.859Z</time></trkpt><trkpt lat="41.1138" lon="13.8821383"><ele>5.0</ele><time>2026-04-11T07:15:42.86Z</time></trkpt><trkpt lat="41.11384" lon="13.8820733"><ele>5.0</ele><time>2026-04-11T07:15:43.857Z</time></trkpt><trkpt lat="41.1139283" lon="13.8819533"><ele>5.0</ele><time>2026-04-11T07:15:45.857Z</time></trkpt><trkpt lat="41.114015" lon="13.881835"><ele>5.0</ele><time>2026-04-11T07:15:47.859Z</time></trkpt><trkpt lat="41.1141083" lon="13.881735"><ele>5.142857142857142</ele><time>2026-04-11T07:15:49.859Z</time></trkpt><trkpt lat="41.11416" lon="13.8816867"><ele>5.285714285714286</ele><time>2026-04-11T07:15:50.858Z</time></trkpt><trkpt lat="41.11421" lon="13.8816317"><ele>5.428571428571429</ele><time>2026-04-11T07:15:51.858Z</time></trkpt><trkpt lat="41.1142617" lon="13.8815783"><ele>5.571428571428571</ele><time>2026-04-11T07:15:52.858Z</time></trkpt><trkpt lat="41.1143083" lon="13.8815167"><ele>5.714285714285714</ele><time>2026-04-11T07:15:53.858Z</time></trkpt><trkpt lat="41.114355" lon="13.8814567"><ele>5.857142857142857</ele><time>2026-04-11T07:15:54.86Z</time></trkpt><trkpt lat="41.1144017" lon="13.8813983"><ele>6.0</ele><time>2026-04-11T07:15:55.858Z</time></trkpt><trkpt lat="41.1144867" lon="13.8812817"><ele>6.0</ele><time>2026-04-11T07:15:57.859Z</time></trkpt><trkpt lat="41.1145317" lon="13.88122"><ele>6.0</ele><time>2026-04-11T07:15:58.859Z</time></trkpt><trkpt lat="41.114575" lon="13.8811583"><ele>6.0</ele><time>2026-04-11T07:15:59.86Z</time></trkpt><trkpt lat="41.1146617" lon="13.88105"><ele>6.0</ele><time>2026-04-11T07:16:01.859Z</time></trkpt><trkpt lat="41.1147583" lon="13.8809517"><ele>6.0</ele><time>2026-04-11T07:16:03.859Z</time></trkpt><trkpt lat="41.1148567" lon="13.88084"><ele>6.199999999999999</ele><time>2026-04-11T07:16:05.86Z</time></trkpt><trkpt lat="41.1149033" lon="13.8807733"><ele>6.3999999999999995</ele><time>2026-04-11T07:16:06.86Z</time></trkpt><trkpt lat="41.1149467" lon="13.880705"><ele>6.6</ele><time>2026-04-11T07:16:07.86Z</time></trkpt><trkpt lat="41.11499" lon="13.8806383"><ele>6.8</ele><time>2026-04-11T07:16:08.859Z</time></trkpt><trkpt lat="41.1150767" lon="13.8805233"><ele>7.0</ele><time>2026-04-11T07:16:10.86Z</time></trkpt><trkpt lat="41.1151683" lon="13.88041"><ele>7.285714285714286</ele><time>2026-04-11T07:16:12.859Z</time></trkpt><trkpt lat="41.115215" lon="13.88035"><ele>7.571428571428571</ele><time>2026-04-11T07:16:13.858Z</time></trkpt><trkpt lat="41.1152617" lon="13.8802883"><ele>7.857142857142858</ele><time>2026-04-11T07:16:14.858Z</time></trkpt><trkpt lat="41.1153083" lon="13.8802267"><ele>8.142857142857142</ele><time>2026-04-11T07:16:15.86Z</time></trkpt><trkpt lat="41.1153533" lon="13.8801633"><ele>8.428571428571429</ele><time>2026-04-11T07:16:16.859Z</time></trkpt><trkpt lat="41.1154017" lon="13.8801"><ele>8.714285714285715</ele><time>2026-04-11T07:16:17.86Z</time></trkpt><trkpt lat="41.1154467" lon="13.8800333"><ele>9.0</ele><time>2026-04-11T07:16:18.859Z</time></trkpt><trkpt lat="41.11549" lon="13.8799667"><ele>9.0</ele><time>2026-04-11T07:16:19.859Z</time></trkpt><trkpt lat="41.1155333" lon="13.8799033"><ele>9.0</ele><time>2026-04-11T07:16:20.859Z</time></trkpt><trkpt lat="41.1156117" lon="13.8797867"><ele>9.0</ele><time>2026-04-11T07:16:22.86Z</time></trkpt><trkpt lat="41.1156917" lon="13.8796833"><ele>9.0</ele><time>2026-04-11T07:16:24.858Z</time></trkpt><trkpt lat="41.1157617" lon="13.8795817"><ele>9.0</ele><time>2026-04-11T07:16:26.86Z</time></trkpt><trkpt lat="41.1158333" lon="13.8794833"><ele>8.833333333333334</ele><time>2026-04-11T07:16:28.858Z</time></trkpt><trkpt lat="41.1159033" lon="13.879395"><ele>8.666666666666666</ele><time>2026-04-11T07:16:30.86Z</time></trkpt><trkpt lat="41.11596" lon="13.8793"><ele>8.5</ele><time>2026-04-11T07:16:32.859Z</time></trkpt><trkpt lat="41.1160183" lon="13.8792233"><ele>8.333333333333332</ele><time>2026-04-11T07:16:34.859Z</time></trkpt><trkpt lat="41.116075" lon="13.8791517"><ele>8.166666666666666</ele><time>2026-04-11T07:16:36.859Z</time></trkpt><trkpt lat="41.1161283" lon="13.8790833"><ele>8.0</ele><time>2026-04-11T07:16:38.86Z</time></trkpt><trkpt lat="41.1161767" lon="13.8790133"><ele>7.999999999999999</ele><time>2026-04-11T07:16:40.858Z</time></trkpt><trkpt lat="41.1162233" lon="13.87895"><ele>8.0</ele><time>2026-04-11T07:16:42.856Z</time></trkpt><trkpt lat="41.1162833" lon="13.878865"><ele>8.0</ele><time>2026-04-11T07:16:45.859Z</time></trkpt><trkpt lat="41.1163317" lon="13.878805"><ele>8.0</ele><time>2026-04-11T07:16:47.858Z</time></trkpt><trkpt lat="41.1163933" lon="13.878725"><ele>7.999999999999999</ele><time>2026-04-11T07:16:49.858Z</time></trkpt><trkpt lat="41.1164633" lon="13.8786217"><ele>8.0</ele><time>2026-04-11T07:16:51.859Z</time></trkpt><trkpt lat="41.11653" lon="13.878505"><ele>8.25</ele><time>2026-04-11T07:16:53.858Z</time></trkpt><trkpt lat="41.1166117" lon="13.878395"><ele>8.5</ele><time>2026-04-11T07:16:55.859Z</time></trkpt><trkpt lat="41.1166967" lon="13.8782833"><ele>8.75</ele><time>2026-04-11T07:16:57.859Z</time></trkpt><trkpt lat="41.116775" lon="13.8781567"><ele>9.0</ele><time>2026-04-11T07:16:59.86Z</time></trkpt><trkpt lat="41.1168483" lon="13.87803"><ele>9.0</ele><time>2026-04-11T07:17:01.857Z</time></trkpt><trkpt lat="41.11693" lon="13.877905"><ele>9.0</ele><time>2026-04-11T07:17:03.859Z</time></trkpt><trkpt lat="41.116975" lon="13.877845"><ele>9.0</ele><time>2026-04-11T07:17:04.86Z</time></trkpt><trkpt lat="41.1170717" lon="13.877735"><ele>9.0</ele><time>2026-04-11T07:17:06.858Z</time></trkpt><trkpt lat="41.1171183" lon="13.8776717"><ele>9.0</ele><time>2026-04-11T07:17:07.859Z</time></trkpt><trkpt lat="41.1171667" lon="13.8776033"><ele>9.000000000000002</ele><time>2026-04-11T07:17:08.86Z</time></trkpt><trkpt lat="41.1172133" lon="13.8775317"><ele>9.0</ele><time>2026-04-11T07:17:09.858Z</time></trkpt><trkpt lat="41.1172567" lon="13.8774583"><ele>9.0</ele><time>2026-04-11T07:17:10.859Z</time></trkpt><trkpt lat="41.1173033" lon="13.8773883"><ele>9.0</ele><time>2026-04-11T07:17:11.86Z</time></trkpt><trkpt lat="41.1173517" lon="13.87732"><ele>9.0</ele><time>2026-04-11T07:17:12.859Z</time></trkpt><trkpt lat="41.1174017" lon="13.877255"><ele>9.000000000000002</ele><time>2026-04-11T07:17:13.858Z</time></trkpt><trkpt lat="41.1174533" lon="13.8771883"><ele>9.0</ele><time>2026-04-11T07:17:14.86Z</time></trkpt><trkpt lat="41.1175017" lon="13.8771283"><ele>9.142857142857144</ele><time>2026-04-11T07:17:15.857Z</time></trkpt><trkpt lat="41.11755" lon="13.8770667"><ele>9.285714285714286</ele><time>2026-04-11T07:17:16.859Z</time></trkpt><trkpt lat="41.1176" lon="13.8770033"><ele>9.428571428571429</ele><time>2026-04-11T07:17:17.859Z</time></trkpt><trkpt lat="41.1176483" lon="13.8769367"><ele>9.571428571428573</ele><time>2026-04-11T07:17:18.86Z</time></trkpt><trkpt lat="41.117695" lon="13.8768667"><ele>9.714285714285715</ele><time>2026-04-11T07:17:19.858Z</time></trkpt><trkpt lat="41.1177383" lon="13.8767933"><ele>9.857142857142858</ele><time>2026-04-11T07:17:20.858Z</time></trkpt><trkpt lat="41.11778" lon="13.8767183"><ele>10.0</ele><time>2026-04-11T07:17:21.859Z</time></trkpt><trkpt lat="41.1178233" lon="13.8766517"><ele>10.0</ele><time>2026-04-11T07:17:22.86Z</time></trkpt><trkpt lat="41.11787" lon="13.876585"><ele>10.0</ele><time>2026-04-11T07:17:23.859Z</time></trkpt><trkpt lat="41.117915" lon="13.87652"><ele>10.0</ele><time>2026-04-11T07:17:24.86Z</time></trkpt><trkpt lat="41.1179633" lon="13.876455"><ele>10.0</ele><time>2026-04-11T07:17:25.859Z</time></trkpt><trkpt lat="41.1180117" lon="13.8763883"><ele>10.0</ele><time>2026-04-11T07:17:26.859Z</time></trkpt><trkpt lat="41.1180567" lon="13.876315"><ele>10.0</ele><time>2026-04-11T07:17:27.857Z</time></trkpt><trkpt lat="41.118105" lon="13.8762367"><ele>10.0</ele><time>2026-04-11T07:17:28.859Z</time></trkpt><trkpt lat="41.1181533" lon="13.8761633"><ele>10.0</ele><time>2026-04-11T07:17:29.86Z</time></trkpt><trkpt lat="41.1182017" lon="13.8760917"><ele>10.0</ele><time>2026-04-11T07:17:30.86Z</time></trkpt><trkpt lat="41.118255" lon="13.876015"><ele>10.0</ele><time>2026-04-11T07:17:31.86Z</time></trkpt><trkpt lat="41.11831" lon="13.87594"><ele>10.0</ele><time>2026-04-11T07:17:32.86Z</time></trkpt><trkpt lat="41.1183633" lon="13.8758667"><ele>10.0</ele><time>2026-04-11T07:17:33.859Z</time></trkpt><trkpt lat="41.1184117" lon="13.8757917"><ele>10.0</ele><time>2026-04-11T07:17:34.857Z</time></trkpt><trkpt lat="41.118465" lon="13.8757183"><ele>9.714285714285714</ele><time>2026-04-11T07:17:35.86Z</time></trkpt><trkpt lat="41.11852" lon="13.8756467"><ele>9.428571428571429</ele><time>2026-04-11T07:17:36.859Z</time></trkpt><trkpt lat="41.1185783" lon="13.8755783"><ele>9.142857142857142</ele><time>2026-04-11T07:17:37.857Z</time></trkpt><trkpt lat="41.1186333" lon="13.8755117"><ele>8.857142857142858</ele><time>2026-04-11T07:17:38.859Z</time></trkpt><trkpt lat="41.1186883" lon="13.8754417"><ele>8.571428571428571</ele><time>2026-04-11T07:17:39.858Z</time></trkpt><trkpt lat="41.11874" lon="13.8753767"><ele>8.285714285714285</ele><time>2026-04-11T07:17:40.86Z</time></trkpt><trkpt lat="41.11879" lon="13.87531"><ele>8.0</ele><time>2026-04-11T07:17:41.859Z</time></trkpt><trkpt lat="41.1188417" lon="13.8752383"><ele>8.0</ele><time>2026-04-11T07:17:42.857Z</time></trkpt><trkpt lat="41.1188933" lon="13.87517"><ele>7.999999999999999</ele><time>2026-04-11T07:17:43.86Z</time></trkpt><trkpt lat="41.1189483" lon="13.875105"><ele>8.0</ele><time>2026-04-11T07:17:44.858Z</time></trkpt><trkpt lat="41.1189983" lon="13.875035"><ele>8.0</ele><time>2026-04-11T07:17:45.858Z</time></trkpt><trkpt lat="41.119045" lon="13.8749667"><ele>7.999999999999999</ele><time>2026-04-11T07:17:46.859Z</time></trkpt><trkpt lat="41.1190967" lon="13.8748983"><ele>8.0</ele><time>2026-04-11T07:17:47.86Z</time></trkpt><trkpt lat="41.11914" lon="13.8748283"><ele>8.0</ele><time>2026-04-11T07:17:48.859Z</time></trkpt><trkpt lat="41.1191833" lon="13.8747617"><ele>7.6000000000000005</ele><time>2026-04-11T07:17:49.859Z</time></trkpt><trkpt lat="41.1192267" lon="13.8746967"><ele>7.200000000000001</ele><time>2026-04-11T07:17:50.86Z</time></trkpt><trkpt lat="41.1193083" lon="13.87458"><ele>6.8</ele><time>2026-04-11T07:17:52.858Z</time></trkpt><trkpt lat="41.1193717" lon="13.874475"><ele>6.4</ele><time>2026-04-11T07:17:54.86Z</time></trkpt><trkpt lat="41.119435" lon="13.8743733"><ele>6.0</ele><time>2026-04-11T07:17:56.859Z</time></trkpt><trkpt lat="41.1194967" lon="13.87426"><ele>6.0</ele><time>2026-04-11T07:17:58.86Z</time></trkpt><trkpt lat="41.1195733" lon="13.8741533"><ele>6.0</ele><time>2026-04-11T07:18:00.857Z</time></trkpt><trkpt lat="41.1196567" lon="13.87404"><ele>6.0</ele><time>2026-04-11T07:18:02.858Z</time></trkpt><trkpt lat="41.119745" lon="13.8739233"><ele>6.0</ele><time>2026-04-11T07:18:04.859Z</time></trkpt><trkpt lat="41.11979" lon="13.8738617"><ele>6.0</ele><time>2026-04-11T07:18:05.86Z</time></trkpt><trkpt lat="41.1198383" lon="13.8738"><ele>6.0</ele><time>2026-04-11T07:18:06.858Z</time></trkpt><trkpt lat="41.119885" lon="13.87374"><ele>6.0</ele><time>2026-04-11T07:18:07.859Z</time></trkpt><trkpt lat="41.11997" lon="13.8736233"><ele>6.0</ele><time>2026-04-11T07:18:09.859Z</time></trkpt><trkpt lat="41.1200517" lon="13.8735117"><ele>6.0</ele><time>2026-04-11T07:18:11.86Z</time></trkpt><trkpt lat="41.1201283" lon="13.8733983"><ele>6.0</ele><time>2026-04-11T07:18:13.86Z</time></trkpt><trkpt lat="41.1202" lon="13.873285"><ele>6.4</ele><time>2026-04-11T07:18:15.859Z</time></trkpt><trkpt lat="41.1202817" lon="13.8731833"><ele>6.8</ele><time>2026-04-11T07:18:17.86Z</time></trkpt><trkpt lat="41.1203517" lon="13.87309"><ele>7.200000000000001</ele><time>2026-04-11T07:18:19.86Z</time></trkpt><trkpt lat="41.1204133" lon="13.8729967"><ele>7.6000000000000005</ele><time>2026-04-11T07:18:21.857Z</time></trkpt><trkpt lat="41.1204783" lon="13.8728983"><ele>8.0</ele><time>2026-04-11T07:18:23.86Z</time></trkpt><trkpt lat="41.1205517" lon="13.8727933"><ele>8.0</ele><time>2026-04-11T07:18:25.859Z</time></trkpt><trkpt lat="41.120625" lon="13.87268"><ele>8.0</ele><time>2026-04-11T07:18:27.859Z</time></trkpt><trkpt lat="41.1206983" lon="13.872565"><ele>8.0</ele><time>2026-04-11T07:18:29.86Z</time></trkpt><trkpt lat="41.120785" lon="13.8724567"><ele>8.0</ele><time>2026-04-11T07:18:31.86Z</time></trkpt><trkpt lat="41.1208717" lon="13.8723433"><ele>7.5</ele><time>2026-04-11T07:18:33.859Z</time></trkpt><trkpt lat="41.12096" lon="13.87223"><ele>7.0</ele><time>2026-04-11T07:18:35.86Z</time></trkpt><trkpt lat="41.1210483" lon="13.8721217"><ele>6.5</ele><time>2026-04-11T07:18:37.86Z</time></trkpt><trkpt lat="41.1211383" lon="13.8720167"><ele>6.0</ele><time>2026-04-11T07:18:39.858Z</time></trkpt><trkpt lat="41.1212033" lon="13.8719033"><ele>5.999999999999999</ele><time>2026-04-11T07:18:41.859Z</time></trkpt><trkpt lat="41.1212467" lon="13.8718283"><ele>6.0</ele><time>2026-04-11T07:18:43.859Z</time></trkpt><trkpt lat="41.1213" lon="13.8717833"><ele>6.0</ele><time>2026-04-11T07:18:45.86Z</time></trkpt><trkpt lat="41.1213617" lon="13.8717433"><ele>6.0</ele><time>2026-04-11T07:18:47.86Z</time></trkpt><trkpt lat="41.12143" lon="13.871705"><ele>6.0</ele><time>2026-04-11T07:18:49.859Z</time></trkpt><trkpt lat="41.1215017" lon="13.8717233"><ele>5.999999999999999</ele><time>2026-04-11T07:18:51.857Z</time></trkpt><trkpt lat="41.1215517" lon="13.8717967"><ele>6.0</ele><time>2026-04-11T07:18:53.857Z</time></trkpt><trkpt lat="41.12157" lon="13.871895"><ele>6.0</ele><time>2026-04-11T07:18:55.86Z</time></trkpt><trkpt lat="41.1215667" lon="13.872005"><ele>6.0</ele><time>2026-04-11T07:18:57.862Z</time></trkpt><trkpt lat="41.1215733" lon="13.87211"><ele>6.0</ele><time>2026-04-11T07:18:59.86Z</time></trkpt><trkpt lat="41.12158" lon="13.8722133"><ele>6.0</ele><time>2026-04-11T07:19:01.859Z</time></trkpt><trkpt lat="41.12157" lon="13.8723117"><ele>6.0</ele><time>2026-04-11T07:19:03.858Z</time></trkpt><trkpt lat="41.12156" lon="13.8724017"><ele>6.0</ele><time>2026-04-11T07:19:05.86Z</time></trkpt><trkpt lat="41.1215967" lon="13.8723183"><ele>5.999999999999999</ele><time>2026-04-11T07:19:12.858Z</time></trkpt><trkpt lat="41.1216117" lon="13.8722333"><ele>6.0</ele><time>2026-04-11T07:19:14.857Z</time></trkpt><trkpt lat="41.121625" lon="13.8721483"><ele>6.0</ele><time>2026-04-11T07:19:16.859Z</time></trkpt><trkpt lat="41.1216183" lon="13.8720583"><ele>6.0</ele><time>2026-04-11T07:19:18.857Z</time></trkpt><trkpt lat="41.1216167" lon="13.8719417"><ele>6.0</ele><time>2026-04-11T07:19:21.861Z</time></trkpt><trkpt lat="41.1216233" lon="13.87183"><ele>5.999999999999999</ele><time>2026-04-11T07:19:24.858Z</time></trkpt><trkpt lat="41.1215617" lon="13.8718617"><ele>6.0</ele><time>2026-04-11T07:19:34.861Z</time></trkpt><trkpt lat="41.1215033" lon="13.8719217"><ele>6.0</ele><time>2026-04-11T07:19:38.86Z</time></trkpt><trkpt lat="41.1214533" lon="13.8718667"><ele>6.0</ele><time>2026-04-11T07:19:40.86Z</time></trkpt><trkpt lat="41.1213733" lon="13.87184"><ele>6.0</ele><time>2026-04-11T07:19:43.859Z</time></trkpt><trkpt lat="41.121465" lon="13.8718783"><ele>6.0</ele><time>2026-04-11T07:20:30.861Z</time></trkpt><trkpt lat="41.121535" lon="13.8719667"><ele>6.0</ele><time>2026-04-11T07:20:33.859Z</time></trkpt><trkpt lat="41.1215633" lon="13.8720667"><ele>6.0</ele><time>2026-04-11T07:20:35.859Z</time></trkpt><trkpt lat="41.121565" lon="13.8721933"><ele>6.0</ele><time>2026-04-11T07:20:37.861Z</time></trkpt><trkpt lat="41.1215583" lon="13.8723267"><ele>6.0</ele><time>2026-04-11T07:20:39.859Z</time></trkpt><trkpt lat="41.1215467" lon="13.872465"><ele>6.0</ele><time>2026-04-11T07:20:41.86Z</time></trkpt><trkpt lat="41.1215267" lon="13.872615"><ele>6.0</ele><time>2026-04-11T07:20:43.86Z</time></trkpt><trkpt lat="41.1214983" lon="13.8727583"><ele>6.0</ele><time>2026-04-11T07:20:45.86Z</time></trkpt><trkpt lat="41.12147" lon="13.8729133"><ele>5.75</ele><time>2026-04-11T07:20:47.861Z</time></trkpt><trkpt lat="41.1214417" lon="13.873065"><ele>5.5</ele><time>2026-04-11T07:20:49.861Z</time></trkpt><trkpt lat="41.1214083" lon="13.873205"><ele>5.25</ele><time>2026-04-11T07:20:51.859Z</time></trkpt><trkpt lat="41.12136" lon="13.8733417"><ele>5.0</ele><time>2026-04-11T07:20:53.861Z</time></trkpt><trkpt lat="41.1213117" lon="13.8734783"><ele>5.0</ele><time>2026-04-11T07:20:55.859Z</time></trkpt><trkpt lat="41.1212617" lon="13.8736117"><ele>5.0</ele><time>2026-04-11T07:20:57.862Z</time></trkpt><trkpt lat="41.12121" lon="13.8737467"><ele>5.0</ele><time>2026-04-11T07:20:59.86Z</time></trkpt><trkpt lat="41.1211717" lon="13.873885"><ele>5.0</ele><time>2026-04-11T07:21:01.86Z</time></trkpt><trkpt lat="41.1211267" lon="13.874025"><ele>5.0</ele><time>2026-04-11T07:21:03.861Z</time></trkpt><trkpt lat="41.1210833" lon="13.8741717"><ele>5.0</ele><time>2026-04-11T07:21:05.861Z</time></trkpt><trkpt lat="41.12104" lon="13.8743133"><ele>5.0</ele><time>2026-04-11T07:21:07.861Z</time></trkpt><trkpt lat="41.1209983" lon="13.87446"><ele>5.0</ele><time>2026-04-11T07:21:09.86Z</time></trkpt><trkpt lat="41.1209583" lon="13.8746083"><ele>4.75</ele><time>2026-04-11T07:21:11.861Z</time></trkpt><trkpt lat="41.1209183" lon="13.8747583"><ele>4.5</ele><time>2026-04-11T07:21:13.859Z</time></trkpt><trkpt lat="41.1208733" lon="13.8749033"><ele>4.25</ele><time>2026-04-11T07:21:15.861Z</time></trkpt><trkpt lat="41.1208317" lon="13.8750517"><ele>4.0</ele><time>2026-04-11T07:21:17.861Z</time></trkpt><trkpt lat="41.1207833" lon="13.8751933"><ele>4.25</ele><time>2026-04-11T07:21:19.862Z</time></trkpt><trkpt lat="41.12073" lon="13.8753367"><ele>4.5</ele><time>2026-04-11T07:21:21.86Z</time></trkpt><trkpt lat="41.1206633" lon="13.875475"><ele>4.75</ele><time>2026-04-11T07:21:23.862Z</time></trkpt><trkpt lat="41.12062" lon="13.8756233"><ele>5.0</ele><time>2026-04-11T07:21:25.862Z</time></trkpt><trkpt lat="41.12059" lon="13.8757817"><ele>5.25</ele><time>2026-04-11T07:21:27.86Z</time></trkpt><trkpt lat="41.120565" lon="13.87594"><ele>5.5</ele><time>2026-04-11T07:21:29.86Z</time></trkpt><trkpt lat="41.12053" lon="13.876095"><ele>5.75</ele><time>2026-04-11T07:21:31.86Z</time></trkpt><trkpt lat="41.1204967" lon="13.8762567"><ele>6.0</ele><time>2026-04-11T07:21:33.859Z</time></trkpt><trkpt lat="41.12046" lon="13.8764117"><ele>6.0</ele><time>2026-04-11T07:21:35.861Z</time></trkpt><trkpt lat="41.1204217" lon="13.8765667"><ele>6.0</ele><time>2026-04-11T07:21:37.862Z</time></trkpt><trkpt lat="41.1203833" lon="13.8767217"><ele>6.0</ele><time>2026-04-11T07:21:39.86Z</time></trkpt><trkpt lat="41.1203483" lon="13.8768833"><ele>6.0</ele><time>2026-04-11T07:21:41.858Z</time></trkpt><trkpt lat="41.1203267" lon="13.8769633"><ele>6.0</ele><time>2026-04-11T07:21:42.862Z</time></trkpt><trkpt lat="41.120285" lon="13.8771183"><ele>5.833333333333333</ele><time>2026-04-11T07:21:44.86Z</time></trkpt><trkpt lat="41.1202383" lon="13.877275"><ele>5.666666666666667</ele><time>2026-04-11T07:21:46.859Z</time></trkpt><trkpt lat="41.12022" lon="13.877355"><ele>5.5</ele><time>2026-04-11T07:21:47.861Z</time></trkpt><trkpt lat="41.120185" lon="13.8775167"><ele>5.333333333333334</ele><time>2026-04-11T07:21:49.86Z</time></trkpt><trkpt lat="41.1201733" lon="13.8776017"><ele>5.166666666666667</ele><time>2026-04-11T07:21:50.862Z</time></trkpt><trkpt lat="41.1201617" lon="13.877685"><ele>5.0</ele><time>2026-04-11T07:21:51.86Z</time></trkpt><trkpt lat="41.1201483" lon="13.8777667"><ele>5.0</ele><time>2026-04-11T07:21:52.86Z</time></trkpt><trkpt lat="41.1201233" lon="13.8779267"><ele>5.0</ele><time>2026-04-11T07:21:54.859Z</time></trkpt><trkpt lat="41.1201117" lon="13.87801"><ele>5.0</ele><time>2026-04-11T07:21:55.862Z</time></trkpt><trkpt lat="41.1201017" lon="13.8781767"><ele>5.0</ele><time>2026-04-11T07:21:57.861Z</time></trkpt><trkpt lat="41.1200983" lon="13.8782617"><ele>5.0</ele><time>2026-04-11T07:21:58.86Z</time></trkpt><trkpt lat="41.1200917" lon="13.8783467"><ele>5.0</ele><time>2026-04-11T07:21:59.862Z</time></trkpt><trkpt lat="41.1200933" lon="13.8784317"><ele>5.333333333333334</ele><time>2026-04-11T07:22:00.859Z</time></trkpt><trkpt lat="41.1201017" lon="13.8785183"><ele>5.666666666666667</ele><time>2026-04-11T07:22:01.86Z</time></trkpt><trkpt lat="41.12011" lon="13.8786017"><ele>6.0</ele><time>2026-04-11T07:22:02.862Z</time></trkpt><trkpt lat="41.12012" lon="13.878765"><ele>6.333333333333334</ele><time>2026-04-11T07:22:04.86Z</time></trkpt><trkpt lat="41.1201317" lon="13.8789317"><ele>6.666666666666667</ele><time>2026-04-11T07:22:06.859Z</time></trkpt><trkpt lat="41.1201433" lon="13.8790167"><ele>7.0</ele><time>2026-04-11T07:22:07.86Z</time></trkpt><trkpt lat="41.1201533" lon="13.8791"><ele>7.000000000000001</ele><time>2026-04-11T07:22:08.86Z</time></trkpt><trkpt lat="41.1201733" lon="13.8791817"><ele>7.0</ele><time>2026-04-11T07:22:09.86Z</time></trkpt><trkpt lat="41.1201983" lon="13.8792617"><ele>7.0</ele><time>2026-04-11T07:22:10.86Z</time></trkpt><trkpt lat="41.1202133" lon="13.879345"><ele>7.0</ele><time>2026-04-11T07:22:11.861Z</time></trkpt><trkpt lat="41.1202367" lon="13.8794267"><ele>7.000000000000001</ele><time>2026-04-11T07:22:12.859Z</time></trkpt><trkpt lat="41.120285" lon="13.87958"><ele>7.0</ele><time>2026-04-11T07:22:14.86Z</time></trkpt><trkpt lat="41.12031" lon="13.8796583"><ele>7.000000000000001</ele><time>2026-04-11T07:22:15.86Z</time></trkpt><trkpt lat="41.1203317" lon="13.8797383"><ele>7.0</ele><time>2026-04-11T07:22:16.86Z</time></trkpt><trkpt lat="41.12038" lon="13.8798917"><ele>7.0</ele><time>2026-04-11T07:22:18.86Z</time></trkpt><trkpt lat="41.120405" lon="13.87997"><ele>7.0</ele><time>2026-04-11T07:22:19.859Z</time></trkpt><trkpt lat="41.1204333" lon="13.8800467"><ele>7.000000000000001</ele><time>2026-04-11T07:22:20.86Z</time></trkpt><trkpt lat="41.1204833" lon="13.8801983"><ele>7.0</ele><time>2026-04-11T07:22:22.862Z</time></trkpt><trkpt lat="41.1205233" lon="13.8803583"><ele>7.0</ele><time>2026-04-11T07:22:24.86Z</time></trkpt><trkpt lat="41.120545" lon="13.88044"><ele>7.0</ele><time>2026-04-11T07:22:25.86Z</time></trkpt><trkpt lat="41.120565" lon="13.8805233"><ele>7.0</ele><time>2026-04-11T07:22:26.862Z</time></trkpt><trkpt lat="41.1205833" lon="13.8806067"><ele>7.0</ele><time>2026-04-11T07:22:27.861Z</time></trkpt><trkpt lat="41.1206033" lon="13.88069"><ele>7.0</ele><time>2026-04-11T07:22:28.861Z</time></trkpt><trkpt lat="41.120625" lon="13.8807767"><ele>7.0</ele><time>2026-04-11T07:22:29.858Z</time></trkpt><trkpt lat="41.1206433" lon="13.88086"><ele>7.0</ele><time>2026-04-11T07:22:30.86Z</time></trkpt><trkpt lat="41.1206617" lon="13.8809433"><ele>7.285714285714286</ele><time>2026-04-11T07:22:31.861Z</time></trkpt><trkpt lat="41.12068" lon="13.8810283"><ele>7.571428571428571</ele><time>2026-04-11T07:22:32.861Z</time></trkpt><trkpt lat="41.1206983" lon="13.8811167"><ele>7.857142857142858</ele><time>2026-04-11T07:22:33.861Z</time></trkpt><trkpt lat="41.120715" lon="13.8812017"><ele>8.142857142857142</ele><time>2026-04-11T07:22:34.86Z</time></trkpt><trkpt lat="41.1207317" lon="13.88129"><ele>8.428571428571429</ele><time>2026-04-11T07:22:35.86Z</time></trkpt><trkpt lat="41.12075" lon="13.8813783"><ele>8.714285714285715</ele><time>2026-04-11T07:22:36.86Z</time></trkpt><trkpt lat="41.12077" lon="13.8814683"><ele>9.0</ele><time>2026-04-11T07:22:37.859Z</time></trkpt><trkpt lat="41.1207917" lon="13.8815567"><ele>8.571428571428573</ele><time>2026-04-11T07:22:38.86Z</time></trkpt><trkpt lat="41.1208117" lon="13.8816467"><ele>8.142857142857142</ele><time>2026-04-11T07:22:39.858Z</time></trkpt><trkpt lat="41.1208267" lon="13.881735"><ele>7.714285714285714</ele><time>2026-04-11T07:22:40.86Z</time></trkpt><trkpt lat="41.1208417" lon="13.8818267"><ele>7.2857142857142865</ele><time>2026-04-11T07:22:41.859Z</time></trkpt><trkpt lat="41.1208533" lon="13.8819183"><ele>6.857142857142858</ele><time>2026-04-11T07:22:42.861Z</time></trkpt><trkpt lat="41.1208633" lon="13.882005"><ele>6.428571428571428</ele><time>2026-04-11T07:22:43.86Z</time></trkpt><trkpt lat="41.120875" lon="13.882095"><ele>6.0</ele><time>2026-04-11T07:22:44.861Z</time></trkpt><trkpt lat="41.1208833" lon="13.8821867"><ele>5.999999999999999</ele><time>2026-04-11T07:22:45.86Z</time></trkpt><trkpt lat="41.1208867" lon="13.8822767"><ele>6.0</ele><time>2026-04-11T07:22:46.86Z</time></trkpt><trkpt lat="41.1208867" lon="13.8823633"><ele>6.0</ele><time>2026-04-11T07:22:47.86Z</time></trkpt><trkpt lat="41.1208867" lon="13.88245"><ele>6.0</ele><time>2026-04-11T07:22:48.86Z</time></trkpt><trkpt lat="41.12089" lon="13.8825383"><ele>6.0</ele><time>2026-04-11T07:22:49.858Z</time></trkpt><trkpt lat="41.1208933" lon="13.8826267"><ele>5.999999999999999</ele><time>2026-04-11T07:22:50.86Z</time></trkpt><trkpt lat="41.1208967" lon="13.8827117"><ele>6.0</ele><time>2026-04-11T07:22:51.858Z</time></trkpt><trkpt lat="41.120905" lon="13.8828817"><ele>5.857142857142857</ele><time>2026-04-11T07:22:53.86Z</time></trkpt><trkpt lat="41.120905" lon="13.88297"><ele>5.714285714285714</ele><time>2026-04-11T07:22:54.858Z</time></trkpt><trkpt lat="41.1209083" lon="13.883055"><ele>5.571428571428571</ele><time>2026-04-11T07:22:55.859Z</time></trkpt><trkpt lat="41.1209133" lon="13.8831433"><ele>5.428571428571429</ele><time>2026-04-11T07:22:56.86Z</time></trkpt><trkpt lat="41.1209183" lon="13.8832283"><ele>5.285714285714286</ele><time>2026-04-11T07:22:57.862Z</time></trkpt><trkpt lat="41.1209233" lon="13.883315"><ele>5.142857142857142</ele><time>2026-04-11T07:22:58.859Z</time></trkpt><trkpt lat="41.120925" lon="13.883405"><ele>5.0</ele><time>2026-04-11T07:22:59.862Z</time></trkpt><trkpt lat="41.1209267" lon="13.8834933"><ele>5.0</ele><time>2026-04-11T07:23:00.86Z</time></trkpt><trkpt lat="41.120925" lon="13.8835817"><ele>5.0</ele><time>2026-04-11T07:23:01.858Z</time></trkpt><trkpt lat="41.1209167" lon="13.88367"><ele>5.0</ele><time>2026-04-11T07:23:02.858Z</time></trkpt><trkpt lat="41.12091" lon="13.8837583"><ele>5.0</ele><time>2026-04-11T07:23:03.858Z</time></trkpt><trkpt lat="41.1209033" lon="13.883845"><ele>5.0</ele><time>2026-04-11T07:23:04.861Z</time></trkpt><trkpt lat="41.1208917" lon="13.883935"><ele>5.0</ele><time>2026-04-11T07:23:05.862Z</time></trkpt><trkpt lat="41.1208783" lon="13.8840217"><ele>5.0</ele><time>2026-04-11T07:23:06.861Z</time></trkpt><trkpt lat="41.12086" lon="13.884105"><ele>5.0</ele><time>2026-04-11T07:23:07.861Z</time></trkpt><trkpt lat="41.1208433" lon="13.8841933"><ele>5.0</ele><time>2026-04-11T07:23:08.861Z</time></trkpt><trkpt lat="41.12083" lon="13.88428"><ele>5.0</ele><time>2026-04-11T07:23:09.859Z</time></trkpt><trkpt lat="41.1208133" lon="13.884365"><ele>5.0</ele><time>2026-04-11T07:23:10.86Z</time></trkpt><trkpt lat="41.1208" lon="13.88445"><ele>5.0</ele><time>2026-04-11T07:23:11.86Z</time></trkpt><trkpt lat="41.1207883" lon="13.8845367"><ele>5.0</ele><time>2026-04-11T07:23:12.862Z</time></trkpt><trkpt lat="41.1207783" lon="13.884625"><ele>5.0</ele><time>2026-04-11T07:23:13.859Z</time></trkpt><trkpt lat="41.12076" lon="13.8847117"><ele>5.0</ele><time>2026-04-11T07:23:14.86Z</time></trkpt><trkpt lat="41.1207383" lon="13.8847983"><ele>5.0</ele><time>2026-04-11T07:23:15.858Z</time></trkpt><trkpt lat="41.1207133" lon="13.8848817"><ele>5.0</ele><time>2026-04-11T07:23:16.86Z</time></trkpt><trkpt lat="41.1206883" lon="13.8849633"><ele>5.0</ele><time>2026-04-11T07:23:17.86Z</time></trkpt><trkpt lat="41.1206667" lon="13.8850483"><ele>5.0</ele><time>2026-04-11T07:23:18.86Z</time></trkpt><trkpt lat="41.1206467" lon="13.8851367"><ele>5.0</ele><time>2026-04-11T07:23:19.859Z</time></trkpt><trkpt lat="41.1206267" lon="13.8852217"><ele>5.0</ele><time>2026-04-11T07:23:20.861Z</time></trkpt><trkpt lat="41.1206017" lon="13.885305"><ele>5.285714285714286</ele><time>2026-04-11T07:23:21.86Z</time></trkpt><trkpt lat="41.1205783" lon="13.8853883"><ele>5.571428571428571</ele><time>2026-04-11T07:23:22.86Z</time></trkpt><trkpt lat="41.1205533" lon="13.88547"><ele>5.857142857142858</ele><time>2026-04-11T07:23:23.861Z</time></trkpt><trkpt lat="41.1205233" lon="13.8855517"><ele>6.142857142857142</ele><time>2026-04-11T07:23:24.861Z</time></trkpt><trkpt lat="41.1204983" lon="13.885635"><ele>6.428571428571429</ele><time>2026-04-11T07:23:25.861Z</time></trkpt><trkpt lat="41.1204717" lon="13.8857167"><ele>6.714285714285714</ele><time>2026-04-11T07:23:26.861Z</time></trkpt><trkpt lat="41.120435" lon="13.8857917"><ele>7.0</ele><time>2026-04-11T07:23:27.861Z</time></trkpt><trkpt lat="41.1203983" lon="13.885865"><ele>6.714285714285714</ele><time>2026-04-11T07:23:28.862Z</time></trkpt><trkpt lat="41.1203633" lon="13.8859417"><ele>6.428571428571429</ele><time>2026-04-11T07:23:29.86Z</time></trkpt><trkpt lat="41.120325" lon="13.886015"><ele>6.142857142857142</ele><time>2026-04-11T07:23:30.859Z</time></trkpt><trkpt lat="41.1202917" lon="13.88609"><ele>5.857142857142858</ele><time>2026-04-11T07:23:31.862Z</time></trkpt><trkpt lat="41.1202583" lon="13.8861667"><ele>5.571428571428571</ele><time>2026-04-11T07:23:32.858Z</time></trkpt><trkpt lat="41.1202267" lon="13.886245"><ele>5.285714285714286</ele><time>2026-04-11T07:23:33.858Z</time></trkpt><trkpt lat="41.1202033" lon="13.886325"><ele>5.0</ele><time>2026-04-11T07:23:34.858Z</time></trkpt><trkpt lat="41.12018" lon="13.8864067"><ele>5.0</ele><time>2026-04-11T07:23:35.859Z</time></trkpt><trkpt lat="41.1201583" lon="13.8864867"><ele>5.0</ele><time>2026-04-11T07:23:36.858Z</time></trkpt><trkpt lat="41.1201333" lon="13.886565"><ele>5.0</ele><time>2026-04-11T07:23:37.859Z</time></trkpt><trkpt lat="41.1201083" lon="13.88665"><ele>5.0</ele><time>2026-04-11T07:23:38.858Z</time></trkpt><trkpt lat="41.1200867" lon="13.8867333"><ele>5.0</ele><time>2026-04-11T07:23:39.858Z</time></trkpt><trkpt lat="41.1200683" lon="13.8868217"><ele>5.0</ele><time>2026-04-11T07:23:40.858Z</time></trkpt><trkpt lat="41.1200517" lon="13.8869067"><ele>5.0</ele><time>2026-04-11T07:23:41.86Z</time></trkpt><trkpt lat="41.1200367" lon="13.8869917"><ele>4.857142857142857</ele><time>2026-04-11T07:23:42.859Z</time></trkpt><trkpt lat="41.1200183" lon="13.8870783"><ele>4.714285714285714</ele><time>2026-04-11T07:23:43.86Z</time></trkpt><trkpt lat="41.1200033" lon="13.8871617"><ele>4.571428571428571</ele><time>2026-04-11T07:23:44.859Z</time></trkpt><trkpt lat="41.1199917" lon="13.8872483"><ele>4.428571428571429</ele><time>2026-04-11T07:23:45.86Z</time></trkpt><trkpt lat="41.1199783" lon="13.887335"><ele>4.285714285714286</ele><time>2026-04-11T07:23:46.859Z</time></trkpt><trkpt lat="41.119965" lon="13.88742"><ele>4.142857142857142</ele><time>2026-04-11T07:23:47.86Z</time></trkpt><trkpt lat="41.1199483" lon="13.8875067"><ele>4.0</ele><time>2026-04-11T07:23:48.858Z</time></trkpt><trkpt lat="41.11993" lon="13.8875917"><ele>4.0</ele><time>2026-04-11T07:23:49.86Z</time></trkpt><trkpt lat="41.1199067" lon="13.88767"><ele>3.9999999999999996</ele><time>2026-04-11T07:23:50.86Z</time></trkpt><trkpt lat="41.119885" lon="13.88775"><ele>4.0</ele><time>2026-04-11T07:23:51.86Z</time></trkpt><trkpt lat="41.119865" lon="13.88783"><ele>4.0</ele><time>2026-04-11T07:23:52.859Z</time></trkpt><trkpt lat="41.1198483" lon="13.8879117"><ele>3.9999999999999996</ele><time>2026-04-11T07:23:53.862Z</time></trkpt><trkpt lat="41.119815" lon="13.888075"><ele>4.0</ele><time>2026-04-11T07:23:55.859Z</time></trkpt><trkpt lat="41.1198017" lon="13.88816"><ele>4.0</ele><time>2026-04-11T07:23:56.859Z</time></trkpt><trkpt lat="41.11979" lon="13.8882433"><ele>4.5</ele><time>2026-04-11T07:23:57.858Z</time></trkpt><trkpt lat="41.119775" lon="13.8883267"><ele>5.0</ele><time>2026-04-11T07:23:58.86Z</time></trkpt><trkpt lat="41.1197617" lon="13.88841"><ele>5.5</ele><time>2026-04-11T07:23:59.86Z</time></trkpt><trkpt lat="41.1197433" lon="13.88849"><ele>6.0</ele><time>2026-04-11T07:24:00.859Z</time></trkpt><trkpt lat="41.119695" lon="13.8886433"><ele>6.500000000000001</ele><time>2026-04-11T07:24:02.86Z</time></trkpt><trkpt lat="41.1196417" lon="13.888785"><ele>7.0</ele><time>2026-04-11T07:24:04.86Z</time></trkpt><trkpt lat="41.1196" lon="13.8889333"><ele>7.0</ele><time>2026-04-11T07:24:06.86Z</time></trkpt><trkpt lat="41.1195533" lon="13.8890817"><ele>7.0</ele><time>2026-04-11T07:24:08.86Z</time></trkpt><trkpt lat="41.11951" lon="13.88923"><ele>7.0</ele><time>2026-04-11T07:24:10.858Z</time></trkpt><trkpt lat="41.1194667" lon="13.8893833"><ele>7.0</ele><time>2026-04-11T07:24:12.858Z</time></trkpt><trkpt lat="41.1194367" lon="13.8895417"><ele>7.0</ele><time>2026-04-11T07:24:14.86Z</time></trkpt><trkpt lat="41.1193933" lon="13.8896917"><ele>7.0</ele><time>2026-04-11T07:24:16.859Z</time></trkpt><trkpt lat="41.1193433" lon="13.8898417"><ele>7.0</ele><time>2026-04-11T07:24:18.86Z</time></trkpt><trkpt lat="41.1192817" lon="13.8899867"><ele>7.0</ele><time>2026-04-11T07:24:20.86Z</time></trkpt><trkpt lat="41.11923" lon="13.8901383"><ele>7.0</ele><time>2026-04-11T07:24:22.859Z</time></trkpt><trkpt lat="41.1191733" lon="13.8902817"><ele>7.0</ele><time>2026-04-11T07:24:24.86Z</time></trkpt><trkpt lat="41.1191133" lon="13.89042"><ele>7.0</ele><time>2026-04-11T07:24:26.86Z</time></trkpt><trkpt lat="41.11906" lon="13.89056"><ele>7.0</ele><time>2026-04-11T07:24:28.861Z</time></trkpt><trkpt lat="41.11899" lon="13.8906967"><ele>7.25</ele><time>2026-04-11T07:24:30.86Z</time></trkpt><trkpt lat="41.1189217" lon="13.8908317"><ele>7.5</ele><time>2026-04-11T07:24:32.859Z</time></trkpt><trkpt lat="41.1188783" lon="13.8909733"><ele>7.75</ele><time>2026-04-11T07:24:34.863Z</time></trkpt><trkpt lat="41.1188333" lon="13.8911117"><ele>8.0</ele><time>2026-04-11T07:24:36.862Z</time></trkpt><trkpt lat="41.1187683" lon="13.8912483"><ele>7.999999999999999</ele><time>2026-04-11T07:24:38.859Z</time></trkpt><trkpt lat="41.1186967" lon="13.89138"><ele>8.0</ele><time>2026-04-11T07:24:40.86Z</time></trkpt><trkpt lat="41.11863" lon="13.8915017"><ele>8.0</ele><time>2026-04-11T07:24:42.86Z</time></trkpt><trkpt lat="41.11859" lon="13.8915667"><ele>8.0</ele><time>2026-04-11T07:24:43.863Z</time></trkpt><trkpt lat="41.1185517" lon="13.8916333"><ele>7.999999999999999</ele><time>2026-04-11T07:24:44.86Z</time></trkpt><trkpt lat="41.118515" lon="13.891705"><ele>8.0</ele><time>2026-04-11T07:24:45.861Z</time></trkpt><trkpt lat="41.1184833" lon="13.8917783"><ele>7.999999999999999</ele><time>2026-04-11T07:24:46.86Z</time></trkpt><trkpt lat="41.118445" lon="13.8918467"><ele>8.0</ele><time>2026-04-11T07:24:47.86Z</time></trkpt><trkpt lat="41.1184067" lon="13.8919133"><ele>8.0</ele><time>2026-04-11T07:24:48.86Z</time></trkpt><trkpt lat="41.11837" lon="13.891985"><ele>8.0</ele><time>2026-04-11T07:24:49.861Z</time></trkpt><trkpt lat="41.1183367" lon="13.8920567"><ele>7.999999999999999</ele><time>2026-04-11T07:24:50.86Z</time></trkpt><trkpt lat="41.1182667" lon="13.8921933"><ele>8.0</ele><time>2026-04-11T07:24:52.861Z</time></trkpt><trkpt lat="41.1182017" lon="13.8923317"><ele>8.200000000000001</ele><time>2026-04-11T07:24:54.86Z</time></trkpt><trkpt lat="41.1181283" lon="13.8924633"><ele>8.4</ele><time>2026-04-11T07:24:56.861Z</time></trkpt><trkpt lat="41.1180683" lon="13.8925933"><ele>8.600000000000001</ele><time>2026-04-11T07:24:58.861Z</time></trkpt><trkpt lat="41.118025" lon="13.8927083"><ele>8.8</ele><time>2026-04-11T07:25:00.86Z</time></trkpt><trkpt lat="41.11799" lon="13.8928083"><ele>9.0</ele><time>2026-04-11T07:25:02.862Z</time></trkpt><trkpt lat="41.117955" lon="13.8928867"><ele>9.142857142857144</ele><time>2026-04-11T07:25:04.86Z</time></trkpt><trkpt lat="41.11798" lon="13.8929767"><ele>9.285714285714286</ele><time>2026-04-11T07:25:09.864Z</time></trkpt><trkpt lat="41.118035" lon="13.89291"><ele>9.428571428571429</ele><time>2026-04-11T07:25:12.86Z</time></trkpt><trkpt lat="41.11806" lon="13.8928117"><ele>9.571428571428573</ele><time>2026-04-11T07:25:15.86Z</time></trkpt><trkpt lat="41.1180117" lon="13.89287"><ele>9.714285714285715</ele><time>2026-04-11T07:25:21.862Z</time></trkpt><trkpt lat="41.1179933" lon="13.8929617"><ele>9.857142857142858</ele><time>2026-04-11T07:25:23.862Z</time></trkpt><trkpt lat="41.1179833" lon="13.893055"><ele>10.0</ele><time>2026-04-11T07:25:25.862Z</time></trkpt><trkpt lat="41.11801" lon="13.8931583"><ele>10.0</ele><time>2026-04-11T07:25:27.858Z</time></trkpt><trkpt lat="41.1180617" lon="13.893255"><ele>10.0</ele><time>2026-04-11T07:25:29.86Z</time></trkpt><trkpt lat="41.1181167" lon="13.8933633"><ele>10.0</ele><time>2026-04-11T07:25:31.861Z</time></trkpt><trkpt lat="41.118175" lon="13.89348"><ele>10.0</ele><time>2026-04-11T07:25:33.86Z</time></trkpt><trkpt lat="41.1182417" lon="13.8936"><ele>10.0</ele><time>2026-04-11T07:25:35.86Z</time></trkpt><trkpt lat="41.1183083" lon="13.8937317"><ele>10.0</ele><time>2026-04-11T07:25:37.862Z</time></trkpt><trkpt lat="41.1183817" lon="13.8938567"><ele>10.0</ele><time>2026-04-11T07:25:39.861Z</time></trkpt><trkpt lat="41.11848" lon="13.8939633"><ele>10.0</ele><time>2026-04-11T07:25:41.863Z</time></trkpt><trkpt lat="41.1185433" lon="13.8941"><ele>10.0</ele><time>2026-04-11T07:25:43.862Z</time></trkpt><trkpt lat="41.118615" lon="13.8942317"><ele>10.2</ele><time>2026-04-11T07:25:45.862Z</time></trkpt><trkpt lat="41.11868" lon="13.8943683"><ele>10.4</ele><time>2026-04-11T07:25:47.862Z</time></trkpt><trkpt lat="41.1187383" lon="13.894505"><ele>10.600000000000001</ele><time>2026-04-11T07:25:49.863Z</time></trkpt><trkpt lat="41.1187667" lon="13.8945817"><ele>10.8</ele><time>2026-04-11T07:25:50.861Z</time></trkpt><trkpt lat="41.11882" lon="13.8947233"><ele>11.0</ele><time>2026-04-11T07:25:52.86Z</time></trkpt><trkpt lat="41.11887" lon="13.8948667"><ele>11.0</ele><time>2026-04-11T07:25:54.86Z</time></trkpt><trkpt lat="41.1189183" lon="13.89502"><ele>11.0</ele><time>2026-04-11T07:25:56.86Z</time></trkpt><trkpt lat="41.118955" lon="13.8951767"><ele>11.0</ele><time>2026-04-11T07:25:58.86Z</time></trkpt><trkpt lat="41.11897" lon="13.8952583"><ele>11.0</ele><time>2026-04-11T07:25:59.86Z</time></trkpt><trkpt lat="41.119005" lon="13.8954133"><ele>11.0</ele><time>2026-04-11T07:26:01.859Z</time></trkpt><trkpt lat="41.1190183" lon="13.895495"><ele>11.5</ele><time>2026-04-11T07:26:02.861Z</time></trkpt><trkpt lat="41.1190433" lon="13.8956417"><ele>12.0</ele><time>2026-04-11T07:26:04.861Z</time></trkpt><trkpt lat="41.11906" lon="13.8957867"><ele>12.5</ele><time>2026-04-11T07:26:06.861Z</time></trkpt><trkpt lat="41.1190783" lon="13.8959367"><ele>13.0</ele><time>2026-04-11T07:26:08.86Z</time></trkpt><trkpt lat="41.1191033" lon="13.89609"><ele>12.166666666666666</ele><time>2026-04-11T07:26:10.859Z</time></trkpt><trkpt lat="41.1191283" lon="13.8962483"><ele>11.333333333333332</ele><time>2026-04-11T07:26:12.862Z</time></trkpt><trkpt lat="41.1191617" lon="13.8964"><ele>10.5</ele><time>2026-04-11T07:26:14.861Z</time></trkpt><trkpt lat="41.119185" lon="13.8964833"><ele>9.666666666666666</ele><time>2026-04-11T07:26:15.859Z</time></trkpt><trkpt lat="41.1192133" lon="13.896565"><ele>8.833333333333332</ele><time>2026-04-11T07:26:16.861Z</time></trkpt><trkpt lat="41.1192367" lon="13.8966467"><ele>8.0</ele><time>2026-04-11T07:26:17.862Z</time></trkpt><trkpt lat="41.11926" lon="13.8967283"><ele>8.285714285714285</ele><time>2026-04-11T07:26:18.861Z</time></trkpt><trkpt lat="41.11928" lon="13.89681"><ele>8.571428571428571</ele><time>2026-04-11T07:26:19.861Z</time></trkpt><trkpt lat="41.1192967" lon="13.896895"><ele>8.857142857142858</ele><time>2026-04-11T07:26:20.86Z</time></trkpt><trkpt lat="41.1193167" lon="13.8969783"><ele>9.142857142857142</ele><time>2026-04-11T07:26:21.86Z</time></trkpt><trkpt lat="41.1193367" lon="13.8970617"><ele>9.428571428571429</ele><time>2026-04-11T07:26:22.861Z</time></trkpt><trkpt lat="41.119355" lon="13.8971417"><ele>9.714285714285714</ele><time>2026-04-11T07:26:23.861Z</time></trkpt><trkpt lat="41.1193733" lon="13.8972233"><ele>10.0</ele><time>2026-04-11T07:26:24.862Z</time></trkpt><trkpt lat="41.119385" lon="13.89731"><ele>10.0</ele><time>2026-04-11T07:26:25.861Z</time></trkpt><trkpt lat="41.1193983" lon="13.8973933"><ele>10.0</ele><time>2026-04-11T07:26:26.861Z</time></trkpt><trkpt lat="41.119415" lon="13.8974767"><ele>10.0</ele><time>2026-04-11T07:26:27.862Z</time></trkpt><trkpt lat="41.1194317" lon="13.8975583"><ele>10.0</ele><time>2026-04-11T07:26:28.862Z</time></trkpt><trkpt lat="41.119455" lon="13.89764"><ele>10.0</ele><time>2026-04-11T07:26:29.86Z</time></trkpt><trkpt lat="41.1194783" lon="13.8977217"><ele>10.0</ele><time>2026-04-11T07:26:30.863Z</time></trkpt><trkpt lat="41.1194983" lon="13.8978017"><ele>10.0</ele><time>2026-04-11T07:26:31.863Z</time></trkpt><trkpt lat="41.11954" lon="13.89796"><ele>10.0</ele><time>2026-04-11T07:26:33.86Z</time></trkpt><trkpt lat="41.1195583" lon="13.89804"><ele>10.0</ele><time>2026-04-11T07:26:34.861Z</time></trkpt><trkpt lat="41.1195767" lon="13.8981217"><ele>10.0</ele><time>2026-04-11T07:26:35.86Z</time></trkpt><trkpt lat="41.1196283" lon="13.898275"><ele>10.0</ele><time>2026-04-11T07:26:37.859Z</time></trkpt><trkpt lat="41.1196533" lon="13.8983533"><ele>10.0</ele><time>2026-04-11T07:26:38.859Z</time></trkpt><trkpt lat="41.1197017" lon="13.8985033"><ele>10.0</ele><time>2026-04-11T07:26:40.858Z</time></trkpt><trkpt lat="41.1197267" lon="13.89858"><ele>10.0</ele><time>2026-04-11T07:26:41.859Z</time></trkpt><trkpt lat="41.1197517" lon="13.8986567"><ele>10.0</ele><time>2026-04-11T07:26:42.859Z</time></trkpt><trkpt lat="41.1198033" lon="13.8988067"><ele>10.0</ele><time>2026-04-11T07:26:44.861Z</time></trkpt><trkpt lat="41.1198567" lon="13.8989467"><ele>10.0</ele><time>2026-04-11T07:26:46.859Z</time></trkpt><trkpt lat="41.1199083" lon="13.8990917"><ele>10.0</ele><time>2026-04-11T07:26:48.861Z</time></trkpt><trkpt lat="41.1199667" lon="13.899235"><ele>10.0</ele><time>2026-04-11T07:26:50.858Z</time></trkpt><trkpt lat="41.1200183" lon="13.8993767"><ele>10.0</ele><time>2026-04-11T07:26:52.86Z</time></trkpt><trkpt lat="41.1200633" lon="13.8995217"><ele>10.0</ele><time>2026-04-11T07:26:54.86Z</time></trkpt><trkpt lat="41.120105" lon="13.89967"><ele>10.0</ele><time>2026-04-11T07:26:56.86Z</time></trkpt><trkpt lat="41.1201483" lon="13.8997967"><ele>10.0</ele><time>2026-04-11T07:26:58.859Z</time></trkpt><trkpt lat="41.1201883" lon="13.8998983"><ele>10.0</ele><time>2026-04-11T07:27:00.86Z</time></trkpt><trkpt lat="41.1202167" lon="13.8999767"><ele>10.0</ele><time>2026-04-11T07:27:03.859Z</time></trkpt><trkpt lat="41.12022" lon="13.9000633"><ele>10.0</ele><time>2026-04-11T07:27:19.859Z</time></trkpt><trkpt lat="41.1202667" lon="13.9001667"><ele>10.0</ele><time>2026-04-11T07:27:22.86Z</time></trkpt><trkpt lat="41.1202933" lon="13.9002617"><ele>10.0</ele><time>2026-04-11T07:27:24.86Z</time></trkpt><trkpt lat="41.1203283" lon="13.9003633"><ele>10.2</ele><time>2026-04-11T07:27:26.861Z</time></trkpt><trkpt lat="41.120355" lon="13.9004683"><ele>10.4</ele><time>2026-04-11T07:27:28.858Z</time></trkpt><trkpt lat="41.1203833" lon="13.90058"><ele>10.600000000000001</ele><time>2026-04-11T07:27:30.86Z</time></trkpt><trkpt lat="41.120405" lon="13.9007"><ele>10.8</ele><time>2026-04-11T07:27:32.859Z</time></trkpt><trkpt lat="41.1204317" lon="13.9008217"><ele>11.0</ele><time>2026-04-11T07:27:34.859Z</time></trkpt><trkpt lat="41.1204617" lon="13.9009467"><ele>11.4</ele><time>2026-04-11T07:27:36.859Z</time></trkpt><trkpt lat="41.12049" lon="13.90106"><ele>11.8</ele><time>2026-04-11T07:27:38.86Z</time></trkpt><trkpt lat="41.1205217" lon="13.9011717"><ele>12.200000000000001</ele><time>2026-04-11T07:27:40.862Z</time></trkpt><trkpt lat="41.12055" lon="13.90129"><ele>12.600000000000001</ele><time>2026-04-11T07:27:42.86Z</time></trkpt><trkpt lat="41.1205767" lon="13.90141"><ele>13.0</ele><time>2026-04-11T07:27:44.86Z</time></trkpt><trkpt lat="41.12061" lon="13.9015383"><ele>13.0</ele><time>2026-04-11T07:27:46.861Z</time></trkpt><trkpt lat="41.120645" lon="13.9016683"><ele>13.0</ele><time>2026-04-11T07:27:48.861Z</time></trkpt><trkpt lat="41.1206767" lon="13.9017967"><ele>13.0</ele><time>2026-04-11T07:27:50.861Z</time></trkpt><trkpt lat="41.1207167" lon="13.90193"><ele>13.0</ele><time>2026-04-11T07:27:52.86Z</time></trkpt><trkpt lat="41.1207467" lon="13.90206"><ele>13.0</ele><time>2026-04-11T07:27:54.86Z</time></trkpt><trkpt lat="41.12078" lon="13.90219"><ele>13.0</ele><time>2026-04-11T07:27:56.862Z</time></trkpt><trkpt lat="41.1208217" lon="13.9023217"><ele>13.0</ele><time>2026-04-11T07:27:58.862Z</time></trkpt><trkpt lat="41.1208617" lon="13.9024517"><ele>13.0</ele><time>2026-04-11T07:28:00.862Z</time></trkpt><trkpt lat="41.1209217" lon="13.9025767"><ele>13.0</ele><time>2026-04-11T07:28:02.862Z</time></trkpt><trkpt lat="41.120965" lon="13.9027167"><ele>13.0</ele><time>2026-04-11T07:28:04.861Z</time></trkpt><trkpt lat="41.12102" lon="13.902845"><ele>13.0</ele><time>2026-04-11T07:28:06.862Z</time></trkpt><trkpt lat="41.121065" lon="13.902985"><ele>13.0</ele><time>2026-04-11T07:28:08.862Z</time></trkpt><trkpt lat="41.1211033" lon="13.90313"><ele>13.0</ele><time>2026-04-11T07:28:10.862Z</time></trkpt><trkpt lat="41.12115" lon="13.9032667"><ele>13.0</ele><time>2026-04-11T07:28:12.862Z</time></trkpt><trkpt lat="41.1211867" lon="13.90341"><ele>13.4</ele><time>2026-04-11T07:28:14.861Z</time></trkpt><trkpt lat="41.1212317" lon="13.9035467"><ele>13.8</ele><time>2026-04-11T07:28:16.859Z</time></trkpt><trkpt lat="41.1212717" lon="13.9036817"><ele>14.2</ele><time>2026-04-11T07:28:18.861Z</time></trkpt><trkpt lat="41.1213133" lon="13.9038183"><ele>14.6</ele><time>2026-04-11T07:28:20.861Z</time></trkpt><trkpt lat="41.12136" lon="13.90395"><ele>15.0</ele><time>2026-04-11T07:28:22.86Z</time></trkpt><trkpt lat="41.1214067" lon="13.9040717"><ele>15.0</ele><time>2026-04-11T07:28:24.859Z</time></trkpt><trkpt lat="41.1214533" lon="13.90418"><ele>15.0</ele><time>2026-04-11T07:28:26.861Z</time></trkpt><trkpt lat="41.1215033" lon="13.904275"><ele>15.0</ele><time>2026-04-11T07:28:28.861Z</time></trkpt><trkpt lat="41.1215383" lon="13.904355"><ele>15.0</ele><time>2026-04-11T07:28:31.86Z</time></trkpt><trkpt lat="41.1214733" lon="13.9043617"><ele>15.0</ele><time>2026-04-11T07:28:42.86Z</time></trkpt><trkpt lat="41.1213967" lon="13.9043967"><ele>15.0</ele><time>2026-04-11T07:28:45.86Z</time></trkpt><trkpt lat="41.1213333" lon="13.9044117"><ele>15.666666666666666</ele><time>2026-04-11T07:28:47.86Z</time></trkpt><trkpt lat="41.1212667" lon="13.9044317"><ele>16.333333333333332</ele><time>2026-04-11T07:28:49.861Z</time></trkpt><trkpt lat="41.1211817" lon="13.9044517"><ele>17.0</ele><time>2026-04-11T07:28:51.859Z</time></trkpt><trkpt lat="41.1211117" lon="13.9044733"><ele>17.666666666666664</ele><time>2026-04-11T07:28:53.859Z</time></trkpt><trkpt lat="41.1210267" lon="13.9044917"><ele>18.333333333333332</ele><time>2026-04-11T07:28:55.861Z</time></trkpt><trkpt lat="41.12094" lon="13.9045067"><ele>19.0</ele><time>2026-04-11T07:28:57.86Z</time></trkpt><trkpt lat="41.1208567" lon="13.9045367"><ele>19.0</ele><time>2026-04-11T07:28:59.859Z</time></trkpt><trkpt lat="41.120775" lon="13.9045667"><ele>19.0</ele><time>2026-04-11T07:29:01.857Z</time></trkpt><trkpt lat="41.12069" lon="13.904575"><ele>19.0</ele><time>2026-04-11T07:29:03.859Z</time></trkpt><trkpt lat="41.1206033" lon="13.90459"><ele>19.0</ele><time>2026-04-11T07:29:05.86Z</time></trkpt><trkpt lat="41.1205133" lon="13.9046167"><ele>19.0</ele><time>2026-04-11T07:29:07.859Z</time></trkpt><trkpt lat="41.1204317" lon="13.9046483"><ele>19.0</ele><time>2026-04-11T07:29:09.86Z</time></trkpt><trkpt lat="41.1203483" lon="13.9046767"><ele>19.333333333333332</ele><time>2026-04-11T07:29:11.859Z</time></trkpt><trkpt lat="41.1202683" lon="13.9047017"><ele>19.666666666666664</ele><time>2026-04-11T07:29:13.86Z</time></trkpt><trkpt lat="41.120185" lon="13.90473"><ele>20.0</ele><time>2026-04-11T07:29:15.858Z</time></trkpt><trkpt lat="41.1201067" lon="13.90475"><ele>20.333333333333332</ele><time>2026-04-11T07:29:17.86Z</time></trkpt><trkpt lat="41.1200417" lon="13.9047733"><ele>20.666666666666668</ele><time>2026-04-11T07:29:19.86Z</time></trkpt><trkpt lat="41.1199567" lon="13.9047883"><ele>21.0</ele><time>2026-04-11T07:29:22.86Z</time></trkpt><trkpt lat="41.1198883" lon="13.904805"><ele>21.166666666666668</ele><time>2026-04-11T07:29:24.859Z</time></trkpt><trkpt lat="41.1198133" lon="13.9048167"><ele>21.333333333333332</ele><time>2026-04-11T07:29:26.859Z</time></trkpt><trkpt lat="41.1197317" lon="13.90485"><ele>21.5</ele><time>2026-04-11T07:29:28.86Z</time></trkpt><trkpt lat="41.1196833" lon="13.904915"><ele>21.666666666666664</ele><time>2026-04-11T07:29:30.861Z</time></trkpt><trkpt lat="41.119685" lon="13.9050033"><ele>21.833333333333332</ele><time>2026-04-11T07:29:32.858Z</time></trkpt><trkpt lat="41.119705" lon="13.905115"><ele>22.0</ele><time>2026-04-11T07:29:34.859Z</time></trkpt><trkpt lat="41.11974" lon="13.90523"><ele>22.0</ele><time>2026-04-11T07:29:36.859Z</time></trkpt><trkpt lat="41.1197717" lon="13.90535"><ele>22.0</ele><time>2026-04-11T07:29:38.859Z</time></trkpt><trkpt lat="41.1198017" lon="13.9054733"><ele>22.0</ele><time>2026-04-11T07:29:40.859Z</time></trkpt><trkpt lat="41.11984" lon="13.905605"><ele>22.0</ele><time>2026-04-11T07:29:42.861Z</time></trkpt><trkpt lat="41.1198883" lon="13.9057283"><ele>22.0</ele><time>2026-04-11T07:29:44.86Z</time></trkpt><trkpt lat="41.1199183" lon="13.9058617"><ele>22.200000000000003</ele><time>2026-04-11T07:29:46.86Z</time></trkpt><trkpt lat="41.1199483" lon="13.905995"><ele>22.4</ele><time>2026-04-11T07:29:48.858Z</time></trkpt><trkpt lat="41.119985" lon="13.90613"><ele>22.6</ele><time>2026-04-11T07:29:50.858Z</time></trkpt><trkpt lat="41.1200217" lon="13.90627"><ele>22.799999999999997</ele><time>2026-04-11T07:29:52.858Z</time></trkpt><trkpt lat="41.1200567" lon="13.9064083"><ele>23.0</ele><time>2026-04-11T07:29:54.859Z</time></trkpt><trkpt lat="41.1201033" lon="13.9065467"><ele>23.0</ele><time>2026-04-11T07:29:56.859Z</time></trkpt><trkpt lat="41.12015" lon="13.906685"><ele>23.0</ele><time>2026-04-11T07:29:58.858Z</time></trkpt><trkpt lat="41.1202" lon="13.9068217"><ele>23.0</ele><time>2026-04-11T07:30:00.861Z</time></trkpt><trkpt lat="41.1202483" lon="13.90696"><ele>23.0</ele><time>2026-04-11T07:30:02.86Z</time></trkpt><trkpt lat="41.1203033" lon="13.90709"><ele>23.0</ele><time>2026-04-11T07:30:04.859Z</time></trkpt><trkpt lat="41.1203517" lon="13.9072117"><ele>23.0</ele><time>2026-04-11T07:30:06.859Z</time></trkpt><trkpt lat="41.1204" lon="13.90733"><ele>23.0</ele><time>2026-04-11T07:30:08.858Z</time></trkpt><trkpt lat="41.12045" lon="13.9074533"><ele>23.0</ele><time>2026-04-11T07:30:10.861Z</time></trkpt><trkpt lat="41.120495" lon="13.9075717"><ele>23.0</ele><time>2026-04-11T07:30:12.86Z</time></trkpt><trkpt lat="41.1205483" lon="13.9076867"><ele>23.0</ele><time>2026-04-11T07:30:14.859Z</time></trkpt><trkpt lat="41.1205983" lon="13.9078033"><ele>23.0</ele><time>2026-04-11T07:30:16.86Z</time></trkpt><trkpt lat="41.12065" lon="13.9079183"><ele>23.0</ele><time>2026-04-11T07:30:18.859Z</time></trkpt><trkpt lat="41.1206983" lon="13.9080367"><ele>23.0</ele><time>2026-04-11T07:30:20.86Z</time></trkpt><trkpt lat="41.120745" lon="13.908155"><ele>23.0</ele><time>2026-04-11T07:30:22.858Z</time></trkpt><trkpt lat="41.1207933" lon="13.908265"><ele>23.599999999999998</ele><time>2026-04-11T07:30:24.861Z</time></trkpt><trkpt lat="41.1208417" lon="13.90838"><ele>24.2</ele><time>2026-04-11T07:30:26.859Z</time></trkpt><trkpt lat="41.120885" lon="13.9084933"><ele>24.8</ele><time>2026-04-11T07:30:28.859Z</time></trkpt><trkpt lat="41.1209367" lon="13.9086117"><ele>25.4</ele><time>2026-04-11T07:30:30.859Z</time></trkpt><trkpt lat="41.1209817" lon="13.908725"><ele>26.0</ele><time>2026-04-11T07:30:32.861Z</time></trkpt><trkpt lat="41.12102" lon="13.9088233"><ele>25.999999999999996</ele><time>2026-04-11T07:30:34.861Z</time></trkpt><trkpt lat="41.1210467" lon="13.9089133"><ele>26.0</ele><time>2026-04-11T07:30:36.859Z</time></trkpt><trkpt lat="41.12107" lon="13.9089967"><ele>26.0</ele><time>2026-04-11T07:30:38.859Z</time></trkpt><trkpt lat="41.1211117" lon="13.9090733"><ele>26.0</ele><time>2026-04-11T07:30:40.858Z</time></trkpt><trkpt lat="41.1211633" lon="13.9091533"><ele>25.999999999999996</ele><time>2026-04-11T07:30:42.858Z</time></trkpt><trkpt lat="41.121205" lon="13.9092583"><ele>26.0</ele><time>2026-04-11T07:30:44.859Z</time></trkpt><trkpt lat="41.12125" lon="13.9093717"><ele>25.8</ele><time>2026-04-11T07:30:46.86Z</time></trkpt><trkpt lat="41.1213" lon="13.9094867"><ele>25.6</ele><time>2026-04-11T07:30:48.855Z</time></trkpt><trkpt lat="41.12135" lon="13.90961"><ele>25.4</ele><time>2026-04-11T07:30:50.859Z</time></trkpt><trkpt lat="41.1214017" lon="13.9097267"><ele>25.2</ele><time>2026-04-11T07:30:52.859Z</time></trkpt><trkpt lat="41.1214517" lon="13.9098467"><ele>25.0</ele><time>2026-04-11T07:30:54.859Z</time></trkpt><trkpt lat="41.121505" lon="13.9099683"><ele>25.4</ele><time>2026-04-11T07:30:56.858Z</time></trkpt><trkpt lat="41.1215567" lon="13.91009"><ele>25.8</ele><time>2026-04-11T07:30:58.86Z</time></trkpt><trkpt lat="41.1216067" lon="13.9102067"><ele>26.200000000000003</ele><time>2026-04-11T07:31:00.859Z</time></trkpt><trkpt lat="41.1216567" lon="13.9103233"><ele>26.6</ele><time>2026-04-11T07:31:02.859Z</time></trkpt><trkpt lat="41.1216983" lon="13.91044"><ele>27.0</ele><time>2026-04-11T07:31:04.86Z</time></trkpt><trkpt lat="41.121745" lon="13.9105583"><ele>27.400000000000002</ele><time>2026-04-11T07:31:06.861Z</time></trkpt><trkpt lat="41.1218" lon="13.91068"><ele>27.800000000000004</ele><time>2026-04-11T07:31:08.858Z</time></trkpt><trkpt lat="41.121855" lon="13.9107917"><ele>28.2</ele><time>2026-04-11T07:31:10.858Z</time></trkpt><trkpt lat="41.1219067" lon="13.91091"><ele>28.6</ele><time>2026-04-11T07:31:12.858Z</time></trkpt><trkpt lat="41.1219567" lon="13.9110333"><ele>29.0</ele><time>2026-04-11T07:31:14.86Z</time></trkpt><trkpt lat="41.1220167" lon="13.91116"><ele>29.25</ele><time>2026-04-11T07:31:16.859Z</time></trkpt><trkpt lat="41.1220667" lon="13.9112967"><ele>29.5</ele><time>2026-04-11T07:31:18.86Z</time></trkpt><trkpt lat="41.1221283" lon="13.9114233"><ele>29.75</ele><time>2026-04-11T07:31:20.858Z</time></trkpt><trkpt lat="41.1221917" lon="13.9115467"><ele>30.0</ele><time>2026-04-11T07:31:22.859Z</time></trkpt><trkpt lat="41.1222517" lon="13.9116767"><ele>29.75</ele><time>2026-04-11T07:31:24.859Z</time></trkpt><trkpt lat="41.122315" lon="13.9118067"><ele>29.5</ele><time>2026-04-11T07:31:26.861Z</time></trkpt><trkpt lat="41.12237" lon="13.9119467"><ele>29.25</ele><time>2026-04-11T07:31:28.857Z</time></trkpt><trkpt lat="41.1224133" lon="13.91209"><ele>29.0</ele><time>2026-04-11T07:31:30.859Z</time></trkpt><trkpt lat="41.1224467" lon="13.9122367"><ele>29.4</ele><time>2026-04-11T07:31:32.858Z</time></trkpt><trkpt lat="41.12249" lon="13.9123717"><ele>29.799999999999997</ele><time>2026-04-11T07:31:34.861Z</time></trkpt><trkpt lat="41.1225317" lon="13.9125083"><ele>30.200000000000003</ele><time>2026-04-11T07:31:36.859Z</time></trkpt><trkpt lat="41.1225667" lon="13.9126367"><ele>30.6</ele><time>2026-04-11T07:31:38.86Z</time></trkpt><trkpt lat="41.1226067" lon="13.91277"><ele>31.0</ele><time>2026-04-11T07:31:40.862Z</time></trkpt><trkpt lat="41.1226633" lon="13.9128867"><ele>31.0</ele><time>2026-04-11T07:31:42.857Z</time></trkpt><trkpt lat="41.122745" lon="13.912965"><ele>31.0</ele><time>2026-04-11T07:31:44.859Z</time></trkpt><trkpt lat="41.12285" lon="13.9129917"><ele>31.0</ele><time>2026-04-11T07:31:46.861Z</time></trkpt><trkpt lat="41.122955" lon="13.9129567"><ele>31.0</ele><time>2026-04-11T07:31:48.858Z</time></trkpt><trkpt lat="41.1230533" lon="13.9129167"><ele>31.0</ele><time>2026-04-11T07:31:50.859Z</time></trkpt><trkpt lat="41.1231233" lon="13.9128667"><ele>31.000000000000004</ele><time>2026-04-11T07:31:52.858Z</time></trkpt><trkpt lat="41.1231333" lon="13.9127617"><ele>31.0</ele><time>2026-04-11T07:31:55.86Z</time></trkpt><trkpt lat="41.1231233" lon="13.9126467"><ele>31.0</ele><time>2026-04-11T07:36:19.857Z</time></trkpt><trkpt lat="41.1231967" lon="13.9126083"><ele>31.0</ele><time>2026-04-11T07:36:23.857Z</time></trkpt><trkpt lat="41.12325" lon="13.9126583"><ele>31.000000000000004</ele><time>2026-04-11T07:36:26.857Z</time></trkpt><trkpt lat="41.123205" lon="13.91275"><ele>31.0</ele><time>2026-04-11T07:36:29.857Z</time></trkpt><trkpt lat="41.123165" lon="13.9128217"><ele>31.000000000000004</ele><time>2026-04-11T07:36:32.856Z</time></trkpt><trkpt lat="41.12323" lon="13.9128817"><ele>31.0</ele><time>2026-04-11T07:36:36.856Z</time></trkpt><trkpt lat="41.1233233" lon="13.9128733"><ele>31.0</ele><time>2026-04-11T07:36:39.857Z</time></trkpt><trkpt lat="41.123395" lon="13.9128633"><ele>31.0</ele><time>2026-04-11T07:36:41.857Z</time></trkpt><trkpt lat="41.12347" lon="13.9128583"><ele>31.000000000000004</ele><time>2026-04-11T07:36:43.856Z</time></trkpt><trkpt lat="41.1235417" lon="13.91285"><ele>31.0</ele><time>2026-04-11T07:36:45.857Z</time></trkpt><trkpt lat="41.12362" lon="13.9128317"><ele>31.8</ele><time>2026-04-11T07:36:47.856Z</time></trkpt><trkpt lat="41.1237083" lon="13.9128"><ele>32.6</ele><time>2026-04-11T07:36:49.859Z</time></trkpt><trkpt lat="41.1237967" lon="13.91278"><ele>33.4</ele><time>2026-04-11T07:36:51.858Z</time></trkpt><trkpt lat="41.12389" lon="13.9127683"><ele>34.2</ele><time>2026-04-11T07:36:53.857Z</time></trkpt><trkpt lat="41.1239833" lon="13.912755"><ele>35.0</ele><time>2026-04-11T07:36:55.858Z</time></trkpt><trkpt lat="41.12408" lon="13.9127333"><ele>35.4</ele><time>2026-04-11T07:36:57.856Z</time></trkpt><trkpt lat="41.1241717" lon="13.9127133"><ele>35.8</ele><time>2026-04-11T07:36:59.856Z</time></trkpt><trkpt lat="41.1242717" lon="13.91269"><ele>36.2</ele><time>2026-04-11T07:37:01.859Z</time></trkpt><trkpt lat="41.1243667" lon="13.9126717"><ele>36.6</ele><time>2026-04-11T07:37:03.858Z</time></trkpt><trkpt lat="41.1244633" lon="13.9126517"><ele>37.0</ele><time>2026-04-11T07:37:05.859Z</time></trkpt><trkpt lat="41.1245567" lon="13.9126283"><ele>37.0</ele><time>2026-04-11T07:37:07.859Z</time></trkpt><trkpt lat="41.1246483" lon="13.912605"><ele>37.0</ele><time>2026-04-11T07:37:09.858Z</time></trkpt><trkpt lat="41.1247417" lon="13.91259"><ele>37.0</ele><time>2026-04-11T07:37:11.859Z</time></trkpt><trkpt lat="41.12484" lon="13.9125733"><ele>37.0</ele><time>2026-04-11T07:37:13.859Z</time></trkpt><trkpt lat="41.1249383" lon="13.912545"><ele>37.0</ele><time>2026-04-11T07:37:15.858Z</time></trkpt><trkpt lat="41.1250333" lon="13.9125217"><ele>36.4</ele><time>2026-04-11T07:37:17.859Z</time></trkpt><trkpt lat="41.12513" lon="13.9124983"><ele>35.800000000000004</ele><time>2026-04-11T07:37:19.859Z</time></trkpt><trkpt lat="41.1252167" lon="13.9124783"><ele>35.2</ele><time>2026-04-11T07:37:21.859Z</time></trkpt><trkpt lat="41.1253133" lon="13.91246"><ele>34.6</ele><time>2026-04-11T07:37:23.859Z</time></trkpt><trkpt lat="41.1254117" lon="13.912435"><ele>34.0</ele><time>2026-04-11T07:37:25.858Z</time></trkpt><trkpt lat="41.125515" lon="13.9124117"><ele>34.0</ele><time>2026-04-11T07:37:27.858Z</time></trkpt><trkpt lat="41.125615" lon="13.9123883"><ele>34.0</ele><time>2026-04-11T07:37:29.858Z</time></trkpt><trkpt lat="41.1257083" lon="13.9123633"><ele>34.0</ele><time>2026-04-11T07:37:31.862Z</time></trkpt><trkpt lat="41.1258017" lon="13.91234"><ele>34.0</ele><time>2026-04-11T07:37:33.859Z</time></trkpt><trkpt lat="41.1258983" lon="13.9123183"><ele>34.0</ele><time>2026-04-11T07:37:35.858Z</time></trkpt><trkpt lat="41.125995" lon="13.912305"><ele>34.8</ele><time>2026-04-11T07:37:37.858Z</time></trkpt><trkpt lat="41.12609" lon="13.9122933"><ele>35.599999999999994</ele><time>2026-04-11T07:37:39.858Z</time></trkpt><trkpt lat="41.1261883" lon="13.9122867"><ele>36.4</ele><time>2026-04-11T07:37:41.86Z</time></trkpt><trkpt lat="41.126285" lon="13.9122817"><ele>37.199999999999996</ele><time>2026-04-11T07:37:43.859Z</time></trkpt><trkpt lat="41.1263783" lon="13.91228"><ele>38.0</ele><time>2026-04-11T07:37:45.858Z</time></trkpt><trkpt lat="41.1264767" lon="13.9122833"><ele>38.199999999999996</ele><time>2026-04-11T07:37:47.858Z</time></trkpt><trkpt lat="41.1265767" lon="13.9122983"><ele>38.4</ele><time>2026-04-11T07:37:49.858Z</time></trkpt><trkpt lat="41.1266767" lon="13.9123333"><ele>38.599999999999994</ele><time>2026-04-11T07:37:51.858Z</time></trkpt><trkpt lat="41.1267717" lon="13.9123833"><ele>38.8</ele><time>2026-04-11T07:37:53.859Z</time></trkpt><trkpt lat="41.1268583" lon="13.9124233"><ele>39.0</ele><time>2026-04-11T07:37:55.858Z</time></trkpt><trkpt lat="41.1269417" lon="13.9124617"><ele>39.0</ele><time>2026-04-11T07:37:57.858Z</time></trkpt><trkpt lat="41.1270233" lon="13.9125067"><ele>39.0</ele><time>2026-04-11T07:37:59.858Z</time></trkpt><trkpt lat="41.1271117" lon="13.9125733"><ele>39.0</ele><time>2026-04-11T07:38:01.859Z</time></trkpt><trkpt lat="41.1271933" lon="13.9126467"><ele>39.0</ele><time>2026-04-11T07:38:03.859Z</time></trkpt><trkpt lat="41.1272767" lon="13.9127183"><ele>39.0</ele><time>2026-04-11T07:38:05.858Z</time></trkpt><trkpt lat="41.12736" lon="13.912785"><ele>39.4</ele><time>2026-04-11T07:38:07.86Z</time></trkpt><trkpt lat="41.1274367" lon="13.9128533"><ele>39.8</ele><time>2026-04-11T07:38:09.857Z</time></trkpt><trkpt lat="41.127515" lon="13.9129183"><ele>40.199999999999996</ele><time>2026-04-11T07:38:11.857Z</time></trkpt><trkpt lat="41.1275983" lon="13.9129883"><ele>40.599999999999994</ele><time>2026-04-11T07:38:13.858Z</time></trkpt><trkpt lat="41.1276817" lon="13.91307"><ele>41.0</ele><time>2026-04-11T07:38:15.857Z</time></trkpt><trkpt lat="41.127765" lon="13.9131433"><ele>41.0</ele><time>2026-04-11T07:38:17.857Z</time></trkpt><trkpt lat="41.127835" lon="13.9132167"><ele>41.0</ele><time>2026-04-11T07:38:19.858Z</time></trkpt><trkpt lat="41.1279217" lon="13.9132933"><ele>41.0</ele><time>2026-04-11T07:38:21.857Z</time></trkpt><trkpt lat="41.1279983" lon="13.9133633"><ele>41.0</ele><time>2026-04-11T07:38:23.857Z</time></trkpt><trkpt lat="41.1280733" lon="13.9134433"><ele>41.0</ele><time>2026-04-11T07:38:25.858Z</time></trkpt><trkpt lat="41.1281517" lon="13.9135383"><ele>40.8</ele><time>2026-04-11T07:38:27.856Z</time></trkpt><trkpt lat="41.1282283" lon="13.9136267"><ele>40.599999999999994</ele><time>2026-04-11T07:38:29.858Z</time></trkpt><trkpt lat="41.128305" lon="13.9137267"><ele>40.4</ele><time>2026-04-11T07:38:31.857Z</time></trkpt><trkpt lat="41.1283883" lon="13.9138233"><ele>40.2</ele><time>2026-04-11T07:38:33.857Z</time></trkpt><trkpt lat="41.128455" lon="13.9139317"><ele>40.0</ele><time>2026-04-11T07:38:35.857Z</time></trkpt><trkpt lat="41.1285233" lon="13.91406"><ele>40.0</ele><time>2026-04-11T07:38:37.858Z</time></trkpt><trkpt lat="41.1285867" lon="13.9141967"><ele>40.0</ele><time>2026-04-11T07:38:39.857Z</time></trkpt><trkpt lat="41.128645" lon="13.9143367"><ele>40.0</ele><time>2026-04-11T07:38:41.858Z</time></trkpt><trkpt lat="41.1287033" lon="13.91448"><ele>40.0</ele><time>2026-04-11T07:38:43.861Z</time></trkpt><trkpt lat="41.128735" lon="13.9145567"><ele>40.0</ele><time>2026-04-11T07:38:44.857Z</time></trkpt><trkpt lat="41.1287667" lon="13.91463"><ele>39.5</ele><time>2026-04-11T07:38:45.856Z</time></trkpt><trkpt lat="41.1288167" lon="13.9147783"><ele>39.0</ele><time>2026-04-11T07:38:47.86Z</time></trkpt><trkpt lat="41.1288633" lon="13.91492"><ele>38.5</ele><time>2026-04-11T07:38:49.858Z</time></trkpt><trkpt lat="41.1289067" lon="13.915065"><ele>38.0</ele><time>2026-04-11T07:38:51.857Z</time></trkpt><trkpt lat="41.128965" lon="13.9152083"><ele>37.8</ele><time>2026-04-11T07:38:53.857Z</time></trkpt><trkpt lat="41.12904" lon="13.91535"><ele>37.599999999999994</ele><time>2026-04-11T07:38:55.857Z</time></trkpt><trkpt lat="41.1291167" lon="13.9154833"><ele>37.400000000000006</ele><time>2026-04-11T07:38:57.857Z</time></trkpt><trkpt lat="41.1291583" lon="13.9155517"><ele>37.2</ele><time>2026-04-11T07:38:58.859Z</time></trkpt><trkpt lat="41.1292017" lon="13.91562"><ele>37.0</ele><time>2026-04-11T07:38:59.859Z</time></trkpt><trkpt lat="41.1292517" lon="13.91569"><ele>37.285714285714285</ele><time>2026-04-11T07:39:00.859Z</time></trkpt><trkpt lat="41.1292967" lon="13.9157567"><ele>37.57142857142857</ele><time>2026-04-11T07:39:01.859Z</time></trkpt><trkpt lat="41.12934" lon="13.9158233"><ele>37.85714285714286</ele><time>2026-04-11T07:39:02.859Z</time></trkpt><trkpt lat="41.129385" lon="13.91589"><ele>38.14285714285714</ele><time>2026-04-11T07:39:03.858Z</time></trkpt><trkpt lat="41.1294317" lon="13.915955"><ele>38.42857142857142</ele><time>2026-04-11T07:39:04.858Z</time></trkpt><trkpt lat="41.1294767" lon="13.9160183"><ele>38.714285714285715</ele><time>2026-04-11T07:39:05.857Z</time></trkpt><trkpt lat="41.129525" lon="13.9160817"><ele>39.0</ele><time>2026-04-11T07:39:06.859Z</time></trkpt><trkpt lat="41.1295733" lon="13.9161467"><ele>39.0</ele><time>2026-04-11T07:39:07.857Z</time></trkpt><trkpt lat="41.1296233" lon="13.9162083"><ele>39.0</ele><time>2026-04-11T07:39:08.858Z</time></trkpt><trkpt lat="41.129675" lon="13.91627"><ele>39.0</ele><time>2026-04-11T07:39:09.858Z</time></trkpt><trkpt lat="41.1297283" lon="13.9163333"><ele>39.0</ele><time>2026-04-11T07:39:10.858Z</time></trkpt><trkpt lat="41.129785" lon="13.9163967"><ele>39.0</ele><time>2026-04-11T07:39:11.858Z</time></trkpt><trkpt lat="41.1298467" lon="13.91646"><ele>39.0</ele><time>2026-04-11T07:39:12.859Z</time></trkpt><trkpt lat="41.1299083" lon="13.91652"><ele>39.0</ele><time>2026-04-11T07:39:13.858Z</time></trkpt><trkpt lat="41.1299733" lon="13.91658"><ele>39.0</ele><time>2026-04-11T07:39:14.86Z</time></trkpt><trkpt lat="41.1300383" lon="13.9166367"><ele>39.0</ele><time>2026-04-11T07:39:15.86Z</time></trkpt><trkpt lat="41.1301" lon="13.9166883"><ele>39.0</ele><time>2026-04-11T07:39:16.86Z</time></trkpt><trkpt lat="41.1301617" lon="13.9167417"><ele>39.0</ele><time>2026-04-11T07:39:17.859Z</time></trkpt><trkpt lat="41.1302233" lon="13.9167983"><ele>39.0</ele><time>2026-04-11T07:39:18.858Z</time></trkpt><trkpt lat="41.1302833" lon="13.9168483"><ele>39.0</ele><time>2026-04-11T07:39:19.859Z</time></trkpt><trkpt lat="41.1303417" lon="13.9168967"><ele>39.0</ele><time>2026-04-11T07:39:20.859Z</time></trkpt><trkpt lat="41.1303983" lon="13.9169483"><ele>39.0</ele><time>2026-04-11T07:39:21.859Z</time></trkpt><trkpt lat="41.1304533" lon="13.9169933"><ele>39.0</ele><time>2026-04-11T07:39:22.859Z</time></trkpt><trkpt lat="41.1305133" lon="13.9170383"><ele>39.0</ele><time>2026-04-11T07:39:23.857Z</time></trkpt><trkpt lat="41.1305717" lon="13.91708"><ele>39.0</ele><time>2026-04-11T07:39:24.859Z</time></trkpt><trkpt lat="41.13063" lon="13.9171217"><ele>39.0</ele><time>2026-04-11T07:39:25.858Z</time></trkpt><trkpt lat="41.1306883" lon="13.91717"><ele>39.0</ele><time>2026-04-11T07:39:26.858Z</time></trkpt><trkpt lat="41.13074" lon="13.9172183"><ele>39.0</ele><time>2026-04-11T07:39:27.857Z</time></trkpt><trkpt lat="41.13084" lon="13.9173"><ele>39.75</ele><time>2026-04-11T07:39:29.858Z</time></trkpt><trkpt lat="41.1309417" lon="13.9173717"><ele>40.5</ele><time>2026-04-11T07:39:31.858Z</time></trkpt><trkpt lat="41.1310417" lon="13.9174517"><ele>41.25</ele><time>2026-04-11T07:39:33.858Z</time></trkpt><trkpt lat="41.1311383" lon="13.917525"><ele>42.0</ele><time>2026-04-11T07:39:35.857Z</time></trkpt><trkpt lat="41.131235" lon="13.9175983"><ele>42.2</ele><time>2026-04-11T07:39:37.858Z</time></trkpt><trkpt lat="41.1313267" lon="13.917675"><ele>42.400000000000006</ele><time>2026-04-11T07:39:39.858Z</time></trkpt><trkpt lat="41.1314183" lon="13.9177517"><ele>42.599999999999994</ele><time>2026-04-11T07:39:41.858Z</time></trkpt><trkpt lat="41.13151" lon="13.91783"><ele>42.8</ele><time>2026-04-11T07:39:43.862Z</time></trkpt><trkpt lat="41.1315983" lon="13.91791"><ele>43.0</ele><time>2026-04-11T07:39:45.86Z</time></trkpt><trkpt lat="41.131685" lon="13.91799"><ele>43.599999999999994</ele><time>2026-04-11T07:39:47.858Z</time></trkpt><trkpt lat="41.1317683" lon="13.91807"><ele>44.199999999999996</ele><time>2026-04-11T07:39:49.857Z</time></trkpt><trkpt lat="41.13185" lon="13.9181383"><ele>44.8</ele><time>2026-04-11T07:39:51.857Z</time></trkpt><trkpt lat="41.13193" lon="13.9182083"><ele>45.4</ele><time>2026-04-11T07:39:53.859Z</time></trkpt><trkpt lat="41.13201" lon="13.9182783"><ele>46.0</ele><time>2026-04-11T07:39:55.857Z</time></trkpt><trkpt lat="41.1320883" lon="13.9183467"><ele>45.8</ele><time>2026-04-11T07:39:57.86Z</time></trkpt><trkpt lat="41.1321633" lon="13.9184083"><ele>45.599999999999994</ele><time>2026-04-11T07:39:59.857Z</time></trkpt><trkpt lat="41.1322467" lon="13.9184733"><ele>45.4</ele><time>2026-04-11T07:40:01.858Z</time></trkpt><trkpt lat="41.13233" lon="13.9185483"><ele>45.2</ele><time>2026-04-11T07:40:03.857Z</time></trkpt><trkpt lat="41.1324167" lon="13.9186217"><ele>45.0</ele><time>2026-04-11T07:40:05.858Z</time></trkpt><trkpt lat="41.132505" lon="13.9186983"><ele>46.0</ele><time>2026-04-11T07:40:07.857Z</time></trkpt><trkpt lat="41.1325917" lon="13.9187717"><ele>47.0</ele><time>2026-04-11T07:40:09.865Z</time></trkpt><trkpt lat="41.1326733" lon="13.9188433"><ele>48.0</ele><time>2026-04-11T07:40:11.858Z</time></trkpt><trkpt lat="41.1327533" lon="13.9189133"><ele>49.0</ele><time>2026-04-11T07:40:13.86Z</time></trkpt><trkpt lat="41.13284" lon="13.9189867"><ele>50.0</ele><time>2026-04-11T07:40:15.859Z</time></trkpt><trkpt lat="41.1329217" lon="13.91906"><ele>50.0</ele><time>2026-04-11T07:40:17.858Z</time></trkpt><trkpt lat="41.133005" lon="13.919125"><ele>50.0</ele><time>2026-04-11T07:40:19.859Z</time></trkpt><trkpt lat="41.1330867" lon="13.9192"><ele>50.0</ele><time>2026-04-11T07:40:21.859Z</time></trkpt><trkpt lat="41.13317" lon="13.919275"><ele>50.0</ele><time>2026-04-11T07:40:23.862Z</time></trkpt><trkpt lat="41.1332533" lon="13.9193567"><ele>50.0</ele><time>2026-04-11T07:40:25.858Z</time></trkpt><trkpt lat="41.1333367" lon="13.9194367"><ele>50.2</ele><time>2026-04-11T07:40:27.856Z</time></trkpt><trkpt lat="41.1334233" lon="13.919515"><ele>50.4</ele><time>2026-04-11T07:40:29.857Z</time></trkpt><trkpt lat="41.13351" lon="13.9195833"><ele>50.599999999999994</ele><time>2026-04-11T07:40:31.856Z</time></trkpt><trkpt lat="41.1335967" lon="13.91965"><ele>50.8</ele><time>2026-04-11T07:40:33.857Z</time></trkpt><trkpt lat="41.1336783" lon="13.9197233"><ele>51.0</ele><time>2026-04-11T07:40:35.858Z</time></trkpt><trkpt lat="41.1337633" lon="13.9198033"><ele>51.0</ele><time>2026-04-11T07:40:37.857Z</time></trkpt><trkpt lat="41.1338433" lon="13.91988"><ele>51.0</ele><time>2026-04-11T07:40:39.857Z</time></trkpt><trkpt lat="41.1339267" lon="13.919955"><ele>51.0</ele><time>2026-04-11T07:40:41.858Z</time></trkpt><trkpt lat="41.1340083" lon="13.9200183"><ele>51.0</ele><time>2026-04-11T07:40:43.858Z</time></trkpt><trkpt lat="41.1340867" lon="13.9200833"><ele>51.0</ele><time>2026-04-11T07:40:45.858Z</time></trkpt><trkpt lat="41.1341683" lon="13.9201517"><ele>52.199999999999996</ele><time>2026-04-11T07:40:47.858Z</time></trkpt><trkpt lat="41.1342483" lon="13.9202183"><ele>53.4</ele><time>2026-04-11T07:40:49.858Z</time></trkpt><trkpt lat="41.1343267" lon="13.9202867"><ele>54.6</ele><time>2026-04-11T07:40:51.857Z</time></trkpt><trkpt lat="41.1344117" lon="13.9203483"><ele>55.8</ele><time>2026-04-11T07:40:53.858Z</time></trkpt><trkpt lat="41.134495" lon="13.92042"><ele>57.0</ele><time>2026-04-11T07:40:55.857Z</time></trkpt><trkpt lat="41.1345783" lon="13.9204933"><ele>57.0</ele><time>2026-04-11T07:40:57.857Z</time></trkpt><trkpt lat="41.13466" lon="13.9205533"><ele>57.0</ele><time>2026-04-11T07:40:59.859Z</time></trkpt><trkpt lat="41.134745" lon="13.920615"><ele>57.0</ele><time>2026-04-11T07:41:01.858Z</time></trkpt><trkpt lat="41.1348217" lon="13.9206833"><ele>57.0</ele><time>2026-04-11T07:41:03.856Z</time></trkpt><trkpt lat="41.13491" lon="13.9207467"><ele>57.0</ele><time>2026-04-11T07:41:05.858Z</time></trkpt><trkpt lat="41.135" lon="13.9208233"><ele>57.2</ele><time>2026-04-11T07:41:07.858Z</time></trkpt><trkpt lat="41.13509" lon="13.9209017"><ele>57.400000000000006</ele><time>2026-04-11T07:41:09.857Z</time></trkpt><trkpt lat="41.135175" lon="13.920985"><ele>57.599999999999994</ele><time>2026-04-11T07:41:11.861Z</time></trkpt><trkpt lat="41.1352667" lon="13.921065"><ele>57.8</ele><time>2026-04-11T07:41:13.858Z</time></trkpt><trkpt lat="41.135365" lon="13.9211517"><ele>58.0</ele><time>2026-04-11T07:41:15.859Z</time></trkpt><trkpt lat="41.1354617" lon="13.9212367"><ele>57.99999999999999</ele><time>2026-04-11T07:41:17.858Z</time></trkpt><trkpt lat="41.13556" lon="13.9213267"><ele>58.0</ele><time>2026-04-11T07:41:19.862Z</time></trkpt><trkpt lat="41.1356567" lon="13.9214233"><ele>58.0</ele><time>2026-04-11T07:41:21.857Z</time></trkpt><trkpt lat="41.13571" lon="13.92147"><ele>58.0</ele><time>2026-04-11T07:41:22.858Z</time></trkpt><trkpt lat="41.1357683" lon="13.921515"><ele>57.99999999999999</ele><time>2026-04-11T07:41:23.857Z</time></trkpt><trkpt lat="41.1358283" lon="13.92156"><ele>58.0</ele><time>2026-04-11T07:41:24.858Z</time></trkpt><trkpt lat="41.135885" lon="13.92161"><ele>57.71428571428572</ele><time>2026-04-11T07:41:25.857Z</time></trkpt><trkpt lat="41.1359433" lon="13.9216583"><ele>57.42857142857143</ele><time>2026-04-11T07:41:26.858Z</time></trkpt><trkpt lat="41.136" lon="13.9217083"><ele>57.142857142857146</ele><time>2026-04-11T07:41:27.857Z</time></trkpt><trkpt lat="41.1360583" lon="13.921755"><ele>56.85714285714286</ele><time>2026-04-11T07:41:28.859Z</time></trkpt><trkpt lat="41.136115" lon="13.921805"><ele>56.57142857142857</ele><time>2026-04-11T07:41:29.858Z</time></trkpt><trkpt lat="41.1361717" lon="13.9218567"><ele>56.285714285714285</ele><time>2026-04-11T07:41:30.857Z</time></trkpt><trkpt lat="41.13623" lon="13.921905"><ele>56.0</ele><time>2026-04-11T07:41:31.858Z</time></trkpt><trkpt lat="41.136285" lon="13.9219517"><ele>56.199999999999996</ele><time>2026-04-11T07:41:32.857Z</time></trkpt><trkpt lat="41.1363383" lon="13.9219983"><ele>56.39999999999999</ele><time>2026-04-11T07:41:33.857Z</time></trkpt><trkpt lat="41.1364417" lon="13.922085"><ele>56.6</ele><time>2026-04-11T07:41:35.857Z</time></trkpt><trkpt lat="41.1365417" lon="13.92217"><ele>56.8</ele><time>2026-04-11T07:41:37.857Z</time></trkpt><trkpt lat="41.1366317" lon="13.9222517"><ele>57.0</ele><time>2026-04-11T07:41:39.857Z</time></trkpt><trkpt lat="41.1367217" lon="13.9223267"><ele>57.0</ele><time>2026-04-11T07:41:41.857Z</time></trkpt><trkpt lat="41.1368117" lon="13.9223917"><ele>57.0</ele><time>2026-04-11T07:41:43.859Z</time></trkpt><trkpt lat="41.1368917" lon="13.922475"><ele>57.0</ele><time>2026-04-11T07:41:45.857Z</time></trkpt><trkpt lat="41.1369717" lon="13.92256"><ele>57.0</ele><time>2026-04-11T07:41:47.857Z</time></trkpt><trkpt lat="41.1370583" lon="13.9226367"><ele>57.0</ele><time>2026-04-11T07:41:49.858Z</time></trkpt><trkpt lat="41.1371617" lon="13.92272"><ele>56.833333333333336</ele><time>2026-04-11T07:41:51.857Z</time></trkpt><trkpt lat="41.1372617" lon="13.9228133"><ele>56.66666666666667</ele><time>2026-04-11T07:41:53.858Z</time></trkpt><trkpt lat="41.1373167" lon="13.9228633"><ele>56.5</ele><time>2026-04-11T07:41:54.856Z</time></trkpt><trkpt lat="41.13737" lon="13.9229117"><ele>56.333333333333336</ele><time>2026-04-11T07:41:55.858Z</time></trkpt><trkpt lat="41.1374233" lon="13.9229583"><ele>56.16666666666667</ele><time>2026-04-11T07:41:56.858Z</time></trkpt><trkpt lat="41.1375267" lon="13.9230533"><ele>56.0</ele><time>2026-04-11T07:41:58.858Z</time></trkpt><trkpt lat="41.1376267" lon="13.9231483"><ele>56.5</ele><time>2026-04-11T07:42:00.858Z</time></trkpt><trkpt lat="41.1377283" lon="13.9232317"><ele>57.0</ele><time>2026-04-11T07:42:02.857Z</time></trkpt><trkpt lat="41.1378333" lon="13.9233217"><ele>57.5</ele><time>2026-04-11T07:42:04.856Z</time></trkpt><trkpt lat="41.13793" lon="13.9234083"><ele>58.0</ele><time>2026-04-11T07:42:06.858Z</time></trkpt><trkpt lat="41.13803" lon="13.9234967"><ele>58.0</ele><time>2026-04-11T07:42:08.858Z</time></trkpt><trkpt lat="41.1380833" lon="13.9235433"><ele>58.0</ele><time>2026-04-11T07:42:09.858Z</time></trkpt><trkpt lat="41.13818" lon="13.9236267"><ele>58.0</ele><time>2026-04-11T07:42:11.856Z</time></trkpt><trkpt lat="41.1382733" lon="13.9237167"><ele>58.0</ele><time>2026-04-11T07:42:13.857Z</time></trkpt><trkpt lat="41.1383683" lon="13.9238083"><ele>58.0</ele><time>2026-04-11T07:42:15.857Z</time></trkpt><trkpt lat="41.1384633" lon="13.92389"><ele>59.0</ele><time>2026-04-11T07:42:17.857Z</time></trkpt><trkpt lat="41.1385633" lon="13.9239683"><ele>60.0</ele><time>2026-04-11T07:42:19.858Z</time></trkpt><trkpt lat="41.1386583" lon="13.92405"><ele>61.0</ele><time>2026-04-11T07:42:21.858Z</time></trkpt><trkpt lat="41.1387517" lon="13.924135"><ele>62.0</ele><time>2026-04-11T07:42:23.857Z</time></trkpt><trkpt lat="41.138845" lon="13.92422"><ele>61.75</ele><time>2026-04-11T07:42:25.857Z</time></trkpt><trkpt lat="41.1389433" lon="13.9243"><ele>61.5</ele><time>2026-04-11T07:42:27.855Z</time></trkpt><trkpt lat="41.1390433" lon="13.924385"><ele>61.25</ele><time>2026-04-11T07:42:29.857Z</time></trkpt><trkpt lat="41.1391433" lon="13.9244767"><ele>61.0</ele><time>2026-04-11T07:42:31.856Z</time></trkpt><trkpt lat="41.1392433" lon="13.924565"><ele>62.0</ele><time>2026-04-11T07:42:33.857Z</time></trkpt><trkpt lat="41.1393433" lon="13.9246467"><ele>63.0</ele><time>2026-04-11T07:42:35.859Z</time></trkpt><trkpt lat="41.139445" lon="13.92473"><ele>64.0</ele><time>2026-04-11T07:42:37.858Z</time></trkpt><trkpt lat="41.139545" lon="13.9248083"><ele>65.0</ele><time>2026-04-11T07:42:39.858Z</time></trkpt><trkpt lat="41.1396367" lon="13.9248783"><ele>65.0</ele><time>2026-04-11T07:42:41.856Z</time></trkpt><trkpt lat="41.1397333" lon="13.9249583"><ele>65.0</ele><time>2026-04-11T07:42:43.859Z</time></trkpt><trkpt lat="41.13983" lon="13.9250467"><ele>65.0</ele><time>2026-04-11T07:42:45.86Z</time></trkpt><trkpt lat="41.1399367" lon="13.9251283"><ele>65.0</ele><time>2026-04-11T07:42:47.857Z</time></trkpt><trkpt lat="41.1399917" lon="13.925175"><ele>65.0</ele><time>2026-04-11T07:42:48.857Z</time></trkpt><trkpt lat="41.140095" lon="13.9252633"><ele>64.8</ele><time>2026-04-11T07:42:50.86Z</time></trkpt><trkpt lat="41.1401983" lon="13.9253533"><ele>64.6</ele><time>2026-04-11T07:42:52.857Z</time></trkpt><trkpt lat="41.140305" lon="13.9254417"><ele>64.4</ele><time>2026-04-11T07:42:54.857Z</time></trkpt><trkpt lat="41.1404083" lon="13.9255367"><ele>64.2</ele><time>2026-04-11T07:42:56.857Z</time></trkpt><trkpt lat="41.1404617" lon="13.9255817"><ele>64.0</ele><time>2026-04-11T07:42:57.857Z</time></trkpt><trkpt lat="41.1405167" lon="13.9256267"><ele>64.0</ele><time>2026-04-11T07:42:58.858Z</time></trkpt><trkpt lat="41.140615" lon="13.925725"><ele>64.0</ele><time>2026-04-11T07:43:00.857Z</time></trkpt><trkpt lat="41.1407033" lon="13.9258383"><ele>64.0</ele><time>2026-04-11T07:43:02.858Z</time></trkpt><trkpt lat="41.1407517" lon="13.925895"><ele>64.0</ele><time>2026-04-11T07:43:03.858Z</time></trkpt><trkpt lat="41.1407967" lon="13.925955"><ele>64.0</ele><time>2026-04-11T07:43:04.858Z</time></trkpt><trkpt lat="41.140885" lon="13.9260733"><ele>64.2</ele><time>2026-04-11T07:43:06.857Z</time></trkpt><trkpt lat="41.1409317" lon="13.9261333"><ele>64.4</ele><time>2026-04-11T07:43:07.858Z</time></trkpt><trkpt lat="41.1410283" lon="13.9262433"><ele>64.6</ele><time>2026-04-11T07:43:09.856Z</time></trkpt><trkpt lat="41.1411183" lon="13.92636"><ele>64.8</ele><time>2026-04-11T07:43:11.857Z</time></trkpt><trkpt lat="41.141205" lon="13.9264833"><ele>65.0</ele><time>2026-04-11T07:43:13.857Z</time></trkpt><trkpt lat="41.1412467" lon="13.9265483"><ele>65.0</ele><time>2026-04-11T07:43:14.856Z</time></trkpt><trkpt lat="41.14129" lon="13.9266117"><ele>65.0</ele><time>2026-04-11T07:43:15.858Z</time></trkpt><trkpt lat="41.1413817" lon="13.92673"><ele>65.0</ele><time>2026-04-11T07:43:17.857Z</time></trkpt><trkpt lat="41.1414267" lon="13.9267933"><ele>65.0</ele><time>2026-04-11T07:43:18.857Z</time></trkpt><trkpt lat="41.1414733" lon="13.926855"><ele>65.0</ele><time>2026-04-11T07:43:19.856Z</time></trkpt><trkpt lat="41.1415233" lon="13.9269183"><ele>65.0</ele><time>2026-04-11T07:43:20.858Z</time></trkpt><trkpt lat="41.14157" lon="13.9269833"><ele>65.4</ele><time>2026-04-11T07:43:21.859Z</time></trkpt><trkpt lat="41.1416533" lon="13.9271083"><ele>65.8</ele><time>2026-04-11T07:43:23.858Z</time></trkpt><trkpt lat="41.1416967" lon="13.9271767"><ele>66.2</ele><time>2026-04-11T07:43:24.859Z</time></trkpt><trkpt lat="41.1417417" lon="13.9272433"><ele>66.6</ele><time>2026-04-11T07:43:25.861Z</time></trkpt><trkpt lat="41.14179" lon="13.9273083"><ele>67.0</ele><time>2026-04-11T07:43:26.857Z</time></trkpt><trkpt lat="41.14187" lon="13.9274333"><ele>67.0</ele><time>2026-04-11T07:43:28.859Z</time></trkpt><trkpt lat="41.1419117" lon="13.9275"><ele>67.0</ele><time>2026-04-11T07:43:29.86Z</time></trkpt><trkpt lat="41.1419533" lon="13.9275633"><ele>67.0</ele><time>2026-04-11T07:43:30.858Z</time></trkpt><trkpt lat="41.1419983" lon="13.9276283"><ele>67.0</ele><time>2026-04-11T07:43:31.859Z</time></trkpt><trkpt lat="41.1420433" lon="13.9276933"><ele>67.0</ele><time>2026-04-11T07:43:32.858Z</time></trkpt><trkpt lat="41.1420883" lon="13.9277617"><ele>67.0</ele><time>2026-04-11T07:43:33.857Z</time></trkpt><trkpt lat="41.1421333" lon="13.92783"><ele>67.0</ele><time>2026-04-11T07:43:34.86Z</time></trkpt><trkpt lat="41.14218" lon="13.9278967"><ele>67.0</ele><time>2026-04-11T07:43:35.859Z</time></trkpt><trkpt lat="41.1422217" lon="13.9279617"><ele>67.0</ele><time>2026-04-11T07:43:36.86Z</time></trkpt><trkpt lat="41.142265" lon="13.9280233"><ele>67.0</ele><time>2026-04-11T07:43:37.86Z</time></trkpt><trkpt lat="41.1423067" lon="13.9280883"><ele>67.0</ele><time>2026-04-11T07:43:38.859Z</time></trkpt><trkpt lat="41.1423483" lon="13.9281567"><ele>67.0</ele><time>2026-04-11T07:43:39.859Z</time></trkpt><trkpt lat="41.1423933" lon="13.928225"><ele>67.0</ele><time>2026-04-11T07:43:40.862Z</time></trkpt><trkpt lat="41.1424417" lon="13.9282933"><ele>67.0</ele><time>2026-04-11T07:43:41.859Z</time></trkpt><trkpt lat="41.1424883" lon="13.9283617"><ele>66.57142857142857</ele><time>2026-04-11T07:43:42.86Z</time></trkpt><trkpt lat="41.142535" lon="13.9284333"><ele>66.14285714285714</ele><time>2026-04-11T07:43:43.861Z</time></trkpt><trkpt lat="41.14258" lon="13.928505"><ele>65.71428571428571</ele><time>2026-04-11T07:43:44.861Z</time></trkpt><trkpt lat="41.142625" lon="13.928575"><ele>65.28571428571428</ele><time>2026-04-11T07:43:45.861Z</time></trkpt><trkpt lat="41.1426717" lon="13.9286467"><ele>64.85714285714285</ele><time>2026-04-11T07:43:46.861Z</time></trkpt><trkpt lat="41.1427183" lon="13.9287167"><ele>64.42857142857143</ele><time>2026-04-11T07:43:47.86Z</time></trkpt><trkpt lat="41.142765" lon="13.9287883"><ele>64.0</ele><time>2026-04-11T07:43:48.857Z</time></trkpt><trkpt lat="41.1428117" lon="13.9288567"><ele>64.0</ele><time>2026-04-11T07:43:49.86Z</time></trkpt><trkpt lat="41.1428583" lon="13.9289267"><ele>63.99999999999999</ele><time>2026-04-11T07:43:50.859Z</time></trkpt><trkpt lat="41.1429083" lon="13.9289983"><ele>64.0</ele><time>2026-04-11T07:43:51.858Z</time></trkpt><trkpt lat="41.1429583" lon="13.9290683"><ele>64.0</ele><time>2026-04-11T07:43:52.86Z</time></trkpt><trkpt lat="41.1430083" lon="13.929135"><ele>63.99999999999999</ele><time>2026-04-11T07:43:53.861Z</time></trkpt><trkpt lat="41.1430583" lon="13.9292017"><ele>64.0</ele><time>2026-04-11T07:43:54.861Z</time></trkpt><trkpt lat="41.143105" lon="13.9292617"><ele>64.0</ele><time>2026-04-11T07:43:55.861Z</time></trkpt><trkpt lat="41.1431517" lon="13.92933"><ele>63.857142857142854</ele><time>2026-04-11T07:43:56.861Z</time></trkpt><trkpt lat="41.1432" lon="13.9293933"><ele>63.71428571428571</ele><time>2026-04-11T07:43:57.861Z</time></trkpt><trkpt lat="41.143245" lon="13.9294583"><ele>63.57142857142857</ele><time>2026-04-11T07:43:58.861Z</time></trkpt><trkpt lat="41.14329" lon="13.9295233"><ele>63.42857142857143</ele><time>2026-04-11T07:43:59.86Z</time></trkpt><trkpt lat="41.1433367" lon="13.929585"><ele>63.285714285714285</ele><time>2026-04-11T07:44:00.861Z</time></trkpt><trkpt lat="41.143385" lon="13.929645"><ele>63.14285714285714</ele><time>2026-04-11T07:44:01.861Z</time></trkpt><trkpt lat="41.1434333" lon="13.9297033"><ele>63.0</ele><time>2026-04-11T07:44:02.862Z</time></trkpt><trkpt lat="41.1434817" lon="13.9297617"><ele>63.285714285714285</ele><time>2026-04-11T07:44:03.862Z</time></trkpt><trkpt lat="41.143525" lon="13.9298267"><ele>63.57142857142857</ele><time>2026-04-11T07:44:04.86Z</time></trkpt><trkpt lat="41.14357" lon="13.9298917"><ele>63.85714285714286</ele><time>2026-04-11T07:44:05.859Z</time></trkpt><trkpt lat="41.1436217" lon="13.9299617"><ele>64.14285714285714</ele><time>2026-04-11T07:44:06.861Z</time></trkpt><trkpt lat="41.1436717" lon="13.9300267"><ele>64.42857142857143</ele><time>2026-04-11T07:44:07.861Z</time></trkpt><trkpt lat="41.14372" lon="13.930095"><ele>64.71428571428572</ele><time>2026-04-11T07:44:08.859Z</time></trkpt><trkpt lat="41.14377" lon="13.930165"><ele>65.0</ele><time>2026-04-11T07:44:09.858Z</time></trkpt><trkpt lat="41.1438183" lon="13.9302383"><ele>65.00000000000001</ele><time>2026-04-11T07:44:10.859Z</time></trkpt><trkpt lat="41.1438633" lon="13.93031"><ele>65.0</ele><time>2026-04-11T07:44:11.858Z</time></trkpt><trkpt lat="41.1439133" lon="13.9303833"><ele>65.0</ele><time>2026-04-11T07:44:12.859Z</time></trkpt><trkpt lat="41.1439583" lon="13.9304567"><ele>65.0</ele><time>2026-04-11T07:44:13.859Z</time></trkpt><trkpt lat="41.1440017" lon="13.93053"><ele>65.0</ele><time>2026-04-11T07:44:14.857Z</time></trkpt><trkpt lat="41.1440483" lon="13.9306033"><ele>65.00000000000001</ele><time>2026-04-11T07:44:15.86Z</time></trkpt><trkpt lat="41.1440967" lon="13.930675"><ele>65.0</ele><time>2026-04-11T07:44:16.861Z</time></trkpt><trkpt lat="41.1441467" lon="13.9307467"><ele>65.33333333333334</ele><time>2026-04-11T07:44:17.858Z</time></trkpt><trkpt lat="41.1441967" lon="13.9308167"><ele>65.66666666666667</ele><time>2026-04-11T07:44:18.859Z</time></trkpt><trkpt lat="41.1442467" lon="13.9308883"><ele>66.0</ele><time>2026-04-11T07:44:19.861Z</time></trkpt><trkpt lat="41.1442983" lon="13.930965"><ele>66.33333333333333</ele><time>2026-04-11T07:44:20.862Z</time></trkpt><trkpt lat="41.1443467" lon="13.9310417"><ele>66.66666666666666</ele><time>2026-04-11T07:44:21.861Z</time></trkpt><trkpt lat="41.1443967" lon="13.9311167"><ele>67.0</ele><time>2026-04-11T07:44:22.86Z</time></trkpt><trkpt lat="41.144445" lon="13.931195"><ele>66.33333333333333</ele><time>2026-04-11T07:44:23.86Z</time></trkpt><trkpt lat="41.1444933" lon="13.9312717"><ele>65.66666666666666</ele><time>2026-04-11T07:44:24.86Z</time></trkpt><trkpt lat="41.1445383" lon="13.9313467"><ele>65.0</ele><time>2026-04-11T07:44:25.86Z</time></trkpt><trkpt lat="41.1445883" lon="13.9314217"><ele>64.33333333333333</ele><time>2026-04-11T07:44:26.86Z</time></trkpt><trkpt lat="41.1446383" lon="13.9315"><ele>63.666666666666664</ele><time>2026-04-11T07:44:27.859Z</time></trkpt><trkpt lat="41.144685" lon="13.931575"><ele>63.0</ele><time>2026-04-11T07:44:28.859Z</time></trkpt><trkpt lat="41.1447317" lon="13.931655"><ele>62.57142857142857</ele><time>2026-04-11T07:44:29.86Z</time></trkpt><trkpt lat="41.1447783" lon="13.9317317"><ele>62.14285714285714</ele><time>2026-04-11T07:44:30.861Z</time></trkpt><trkpt lat="41.14483" lon="13.9318033"><ele>61.714285714285715</ele><time>2026-04-11T07:44:31.859Z</time></trkpt><trkpt lat="41.14488" lon="13.9318767"><ele>61.285714285714285</ele><time>2026-04-11T07:44:32.86Z</time></trkpt><trkpt lat="41.14493" lon="13.93195"><ele>60.857142857142854</ele><time>2026-04-11T07:44:33.86Z</time></trkpt><trkpt lat="41.14498" lon="13.9320233"><ele>60.42857142857143</ele><time>2026-04-11T07:44:34.858Z</time></trkpt><trkpt lat="41.1450333" lon="13.932095"><ele>60.0</ele><time>2026-04-11T07:44:35.859Z</time></trkpt><trkpt lat="41.1450833" lon="13.93217"><ele>60.0</ele><time>2026-04-11T07:44:36.859Z</time></trkpt><trkpt lat="41.1451333" lon="13.9322417"><ele>60.0</ele><time>2026-04-11T07:44:37.859Z</time></trkpt><trkpt lat="41.1451833" lon="13.9323167"><ele>60.0</ele><time>2026-04-11T07:44:38.861Z</time></trkpt><trkpt lat="41.14524" lon="13.93239"><ele>60.0</ele><time>2026-04-11T07:44:39.859Z</time></trkpt><trkpt lat="41.145295" lon="13.932465"><ele>60.0</ele><time>2026-04-11T07:44:40.861Z</time></trkpt><trkpt lat="41.1453483" lon="13.932545"><ele>60.0</ele><time>2026-04-11T07:44:41.859Z</time></trkpt><trkpt lat="41.1454067" lon="13.93262"><ele>59.833333333333336</ele><time>2026-04-11T07:44:42.862Z</time></trkpt><trkpt lat="41.1454633" lon="13.9326933"><ele>59.66666666666667</ele><time>2026-04-11T07:44:43.861Z</time></trkpt><trkpt lat="41.1455183" lon="13.9327717"><ele>59.5</ele><time>2026-04-11T07:44:44.857Z</time></trkpt><trkpt lat="41.1455717" lon="13.932855"><ele>59.333333333333336</ele><time>2026-04-11T07:44:45.859Z</time></trkpt><trkpt lat="41.1456267" lon="13.9329333"><ele>59.16666666666667</ele><time>2026-04-11T07:44:46.859Z</time></trkpt><trkpt lat="41.1456817" lon="13.9330117"><ele>59.0</ele><time>2026-04-11T07:44:47.859Z</time></trkpt><trkpt lat="41.1457367" lon="13.93309"><ele>59.333333333333336</ele><time>2026-04-11T07:44:48.858Z</time></trkpt><trkpt lat="41.1457867" lon="13.933165"><ele>59.66666666666667</ele><time>2026-04-11T07:44:49.858Z</time></trkpt><trkpt lat="41.1458383" lon="13.93324"><ele>60.0</ele><time>2026-04-11T07:44:50.859Z</time></trkpt><trkpt lat="41.1458917" lon="13.9333133"><ele>60.33333333333333</ele><time>2026-04-11T07:44:51.859Z</time></trkpt><trkpt lat="41.145945" lon="13.93339"><ele>60.666666666666664</ele><time>2026-04-11T07:44:52.859Z</time></trkpt><trkpt lat="41.1459983" lon="13.9334683"><ele>61.0</ele><time>2026-04-11T07:44:53.859Z</time></trkpt><trkpt lat="41.1460533" lon="13.933545"><ele>60.99999999999999</ele><time>2026-04-11T07:44:54.858Z</time></trkpt><trkpt lat="41.1461117" lon="13.93362"><ele>61.0</ele><time>2026-04-11T07:44:55.858Z</time></trkpt><trkpt lat="41.1461667" lon="13.9336917"><ele>61.0</ele><time>2026-04-11T07:44:56.859Z</time></trkpt><trkpt lat="41.1462233" lon="13.9337617"><ele>61.0</ele><time>2026-04-11T07:44:57.859Z</time></trkpt><trkpt lat="41.14628" lon="13.9338333"><ele>60.99999999999999</ele><time>2026-04-11T07:44:58.859Z</time></trkpt><trkpt lat="41.1463367" lon="13.9339083"><ele>61.0</ele><time>2026-04-11T07:44:59.859Z</time></trkpt><trkpt lat="41.1463933" lon="13.9339783"><ele>60.99999999999999</ele><time>2026-04-11T07:45:00.858Z</time></trkpt><trkpt lat="41.1464517" lon="13.93405"><ele>61.0</ele><time>2026-04-11T07:45:01.858Z</time></trkpt><trkpt lat="41.14651" lon="13.93412"><ele>61.0</ele><time>2026-04-11T07:45:02.859Z</time></trkpt><trkpt lat="41.1465717" lon="13.934185"><ele>61.0</ele><time>2026-04-11T07:45:03.857Z</time></trkpt><trkpt lat="41.146635" lon="13.9342533"><ele>60.99999999999999</ele><time>2026-04-11T07:45:04.857Z</time></trkpt><trkpt lat="41.1467" lon="13.9343183"><ele>61.0</ele><time>2026-04-11T07:45:05.859Z</time></trkpt><trkpt lat="41.1467617" lon="13.9343867"><ele>60.666666666666664</ele><time>2026-04-11T07:45:06.86Z</time></trkpt><trkpt lat="41.146825" lon="13.9344533"><ele>60.33333333333333</ele><time>2026-04-11T07:45:07.857Z</time></trkpt><trkpt lat="41.14689" lon="13.93452"><ele>60.0</ele><time>2026-04-11T07:45:08.857Z</time></trkpt><trkpt lat="41.146955" lon="13.934585"><ele>59.66666666666667</ele><time>2026-04-11T07:45:09.858Z</time></trkpt><trkpt lat="41.1470183" lon="13.93465"><ele>59.333333333333336</ele><time>2026-04-11T07:45:10.859Z</time></trkpt><trkpt lat="41.14708" lon="13.9347167"><ele>59.0</ele><time>2026-04-11T07:45:11.861Z</time></trkpt><trkpt lat="41.1471417" lon="13.9347783"><ele>59.00000000000001</ele><time>2026-04-11T07:45:12.86Z</time></trkpt><trkpt lat="41.1472033" lon="13.9348383"><ele>59.0</ele><time>2026-04-11T07:45:13.862Z</time></trkpt><trkpt lat="41.1472667" lon="13.9348933"><ele>59.0</ele><time>2026-04-11T07:45:14.859Z</time></trkpt><trkpt lat="41.14733" lon="13.93495"><ele>59.0</ele><time>2026-04-11T07:45:15.858Z</time></trkpt><trkpt lat="41.14739" lon="13.93501"><ele>59.00000000000001</ele><time>2026-04-11T07:45:16.861Z</time></trkpt><trkpt lat="41.1474467" lon="13.9350683"><ele>59.0</ele><time>2026-04-11T07:45:17.862Z</time></trkpt><trkpt lat="41.1475067" lon="13.93513"><ele>59.14285714285714</ele><time>2026-04-11T07:45:18.86Z</time></trkpt><trkpt lat="41.147565" lon="13.9351883"><ele>59.28571428571429</ele><time>2026-04-11T07:45:19.857Z</time></trkpt><trkpt lat="41.1476217" lon="13.9352467"><ele>59.42857142857143</ele><time>2026-04-11T07:45:20.86Z</time></trkpt><trkpt lat="41.1476767" lon="13.935305"><ele>59.57142857142857</ele><time>2026-04-11T07:45:21.861Z</time></trkpt><trkpt lat="41.1477333" lon="13.93536"><ele>59.71428571428571</ele><time>2026-04-11T07:45:22.861Z</time></trkpt><trkpt lat="41.1477933" lon="13.9354117"><ele>59.85714285714286</ele><time>2026-04-11T07:45:23.86Z</time></trkpt><trkpt lat="41.14785" lon="13.935465"><ele>60.0</ele><time>2026-04-11T07:45:24.861Z</time></trkpt><trkpt lat="41.147905" lon="13.9355183"><ele>60.0</ele><time>2026-04-11T07:45:25.861Z</time></trkpt><trkpt lat="41.1479617" lon="13.935575"><ele>60.0</ele><time>2026-04-11T07:45:26.858Z</time></trkpt><trkpt lat="41.14802" lon="13.9356333"><ele>60.0</ele><time>2026-04-11T07:45:27.861Z</time></trkpt><trkpt lat="41.148075" lon="13.9356883"><ele>60.0</ele><time>2026-04-11T07:45:28.86Z</time></trkpt><trkpt lat="41.14813" lon="13.9357417"><ele>60.0</ele><time>2026-04-11T07:45:29.858Z</time></trkpt><trkpt lat="41.1481817" lon="13.935795"><ele>60.0</ele><time>2026-04-11T07:45:30.861Z</time></trkpt><trkpt lat="41.148235" lon="13.9358467"><ele>60.0</ele><time>2026-04-11T07:45:31.862Z</time></trkpt><trkpt lat="41.1482883" lon="13.9358983"><ele>60.0</ele><time>2026-04-11T07:45:32.861Z</time></trkpt><trkpt lat="41.14834" lon="13.9359517"><ele>60.0</ele><time>2026-04-11T07:45:33.86Z</time></trkpt><trkpt lat="41.1483933" lon="13.936"><ele>60.0</ele><time>2026-04-11T07:45:34.859Z</time></trkpt><trkpt lat="41.1484467" lon="13.9360483"><ele>60.0</ele><time>2026-04-11T07:45:35.862Z</time></trkpt><trkpt lat="41.1485" lon="13.9360983"><ele>60.0</ele><time>2026-04-11T07:45:36.861Z</time></trkpt><trkpt lat="41.1485517" lon="13.9361467"><ele>60.0</ele><time>2026-04-11T07:45:37.86Z</time></trkpt><trkpt lat="41.1486533" lon="13.9362433"><ele>60.0</ele><time>2026-04-11T07:45:39.86Z</time></trkpt><trkpt lat="41.148705" lon="13.936295"><ele>60.0</ele><time>2026-04-11T07:45:40.859Z</time></trkpt><trkpt lat="41.1487567" lon="13.936345"><ele>60.0</ele><time>2026-04-11T07:45:41.86Z</time></trkpt><trkpt lat="41.1488117" lon="13.9363933"><ele>60.0</ele><time>2026-04-11T07:45:42.86Z</time></trkpt><trkpt lat="41.1488683" lon="13.9364383"><ele>60.0</ele><time>2026-04-11T07:45:43.861Z</time></trkpt><trkpt lat="41.1489233" lon="13.9364817"><ele>60.0</ele><time>2026-04-11T07:45:44.86Z</time></trkpt><trkpt lat="41.1490283" lon="13.9365717"><ele>60.0</ele><time>2026-04-11T07:45:46.858Z</time></trkpt><trkpt lat="41.1490817" lon="13.9366233"><ele>60.28571428571429</ele><time>2026-04-11T07:45:47.862Z</time></trkpt><trkpt lat="41.149135" lon="13.9366733"><ele>60.57142857142857</ele><time>2026-04-11T07:45:48.86Z</time></trkpt><trkpt lat="41.14919" lon="13.9367217"><ele>60.85714285714286</ele><time>2026-04-11T07:45:49.861Z</time></trkpt><trkpt lat="41.1492433" lon="13.93677"><ele>61.142857142857146</ele><time>2026-04-11T07:45:50.861Z</time></trkpt><trkpt lat="41.1492983" lon="13.93682"><ele>61.42857142857143</ele><time>2026-04-11T07:45:51.862Z</time></trkpt><trkpt lat="41.14935" lon="13.93687"><ele>61.714285714285715</ele><time>2026-04-11T07:45:52.859Z</time></trkpt><trkpt lat="41.149405" lon="13.9369183"><ele>62.0</ele><time>2026-04-11T07:45:53.86Z</time></trkpt><trkpt lat="41.14946" lon="13.9369667"><ele>62.0</ele><time>2026-04-11T07:45:54.859Z</time></trkpt><trkpt lat="41.149515" lon="13.9370167"><ele>62.00000000000001</ele><time>2026-04-11T07:45:55.859Z</time></trkpt><trkpt lat="41.1495717" lon="13.937065"><ele>62.0</ele><time>2026-04-11T07:45:56.862Z</time></trkpt><trkpt lat="41.1496267" lon="13.937115"><ele>62.0</ele><time>2026-04-11T07:45:57.861Z</time></trkpt><trkpt lat="41.14968" lon="13.9371667"><ele>62.00000000000001</ele><time>2026-04-11T07:45:58.861Z</time></trkpt><trkpt lat="41.1497367" lon="13.9372167"><ele>62.0</ele><time>2026-04-11T07:45:59.857Z</time></trkpt><trkpt lat="41.1497917" lon="13.9372583"><ele>62.0</ele><time>2026-04-11T07:46:00.86Z</time></trkpt><trkpt lat="41.1499017" lon="13.9373417"><ele>62.0</ele><time>2026-04-11T07:46:02.861Z</time></trkpt><trkpt lat="41.1499583" lon="13.9373817"><ele>62.00000000000001</ele><time>2026-04-11T07:46:03.861Z</time></trkpt><trkpt lat="41.150015" lon="13.9374283"><ele>62.0</ele><time>2026-04-11T07:46:04.859Z</time></trkpt><trkpt lat="41.1500683" lon="13.937475"><ele>62.0</ele><time>2026-04-11T07:46:05.862Z</time></trkpt><trkpt lat="41.1501233" lon="13.93752"><ele>62.00000000000001</ele><time>2026-04-11T07:46:06.86Z</time></trkpt><trkpt lat="41.15018" lon="13.9375617"><ele>62.0</ele><time>2026-04-11T07:46:07.861Z</time></trkpt><trkpt lat="41.150235" lon="13.9376033"><ele>62.0</ele><time>2026-04-11T07:46:08.861Z</time></trkpt><trkpt lat="41.1502883" lon="13.9376483"><ele>62.00000000000001</ele><time>2026-04-11T07:46:09.861Z</time></trkpt><trkpt lat="41.1503433" lon="13.9376917"><ele>62.0</ele><time>2026-04-11T07:46:10.859Z</time></trkpt><trkpt lat="41.1503983" lon="13.9377333"><ele>62.0</ele><time>2026-04-11T07:46:11.861Z</time></trkpt><trkpt lat="41.150455" lon="13.937775"><ele>62.0</ele><time>2026-04-11T07:46:12.861Z</time></trkpt><trkpt lat="41.15056" lon="13.9378583"><ele>62.00000000000001</ele><time>2026-04-11T07:46:14.86Z</time></trkpt><trkpt lat="41.1506133" lon="13.9379033"><ele>62.0</ele><time>2026-04-11T07:46:15.859Z</time></trkpt><trkpt lat="41.1507233" lon="13.937985"><ele>62.400000000000006</ele><time>2026-04-11T07:46:17.86Z</time></trkpt><trkpt lat="41.15078" lon="13.9380267"><ele>62.800000000000004</ele><time>2026-04-11T07:46:18.859Z</time></trkpt><trkpt lat="41.150885" lon="13.9381067"><ele>63.2</ele><time>2026-04-11T07:46:20.861Z</time></trkpt><trkpt lat="41.15099" lon="13.9381833"><ele>63.6</ele><time>2026-04-11T07:46:22.861Z</time></trkpt><trkpt lat="41.1510967" lon="13.9382633"><ele>64.0</ele><time>2026-04-11T07:46:24.857Z</time></trkpt><trkpt lat="41.1512017" lon="13.9383483"><ele>64.0</ele><time>2026-04-11T07:46:26.861Z</time></trkpt><trkpt lat="41.1513033" lon="13.9384283"><ele>64.0</ele><time>2026-04-11T07:46:28.859Z</time></trkpt><trkpt lat="41.1514033" lon="13.9385067"><ele>64.0</ele><time>2026-04-11T07:46:30.861Z</time></trkpt><trkpt lat="41.1515017" lon="13.938585"><ele>64.0</ele><time>2026-04-11T07:46:32.861Z</time></trkpt><trkpt lat="41.1515917" lon="13.9386633"><ele>64.0</ele><time>2026-04-11T07:46:34.858Z</time></trkpt><trkpt lat="41.1516833" lon="13.9387433"><ele>64.0</ele><time>2026-04-11T07:46:36.858Z</time></trkpt><trkpt lat="41.151765" lon="13.9388133"><ele>64.0</ele><time>2026-04-11T07:46:38.859Z</time></trkpt><trkpt lat="41.1518467" lon="13.9388717"><ele>64.0</ele><time>2026-04-11T07:46:40.857Z</time></trkpt><trkpt lat="41.1519333" lon="13.93893"><ele>64.0</ele><time>2026-04-11T07:46:42.859Z</time></trkpt><trkpt lat="41.1520183" lon="13.9389967"><ele>64.0</ele><time>2026-04-11T07:46:44.858Z</time></trkpt><trkpt lat="41.15211" lon="13.939065"><ele>64.0</ele><time>2026-04-11T07:46:46.858Z</time></trkpt><trkpt lat="41.1521983" lon="13.9391383"><ele>64.0</ele><time>2026-04-11T07:46:48.86Z</time></trkpt><trkpt lat="41.1522933" lon="13.9392117"><ele>64.0</ele><time>2026-04-11T07:46:50.859Z</time></trkpt><trkpt lat="41.152385" lon="13.9392967"><ele>64.0</ele><time>2026-04-11T07:46:52.86Z</time></trkpt><trkpt lat="41.1524667" lon="13.9393783"><ele>64.8</ele><time>2026-04-11T07:46:54.86Z</time></trkpt><trkpt lat="41.1525533" lon="13.9394583"><ele>65.60000000000001</ele><time>2026-04-11T07:46:56.857Z</time></trkpt><trkpt lat="41.1526417" lon="13.9395417"><ele>66.4</ele><time>2026-04-11T07:46:58.859Z</time></trkpt><trkpt lat="41.15274" lon="13.939625"><ele>67.2</ele><time>2026-04-11T07:47:00.861Z</time></trkpt><trkpt lat="41.152835" lon="13.9397133"><ele>68.0</ele><time>2026-04-11T07:47:02.861Z</time></trkpt><trkpt lat="41.1529367" lon="13.9397967"><ele>68.0</ele><time>2026-04-11T07:47:04.861Z</time></trkpt><trkpt lat="41.1530383" lon="13.9398883"><ele>68.0</ele><time>2026-04-11T07:47:06.86Z</time></trkpt><trkpt lat="41.15314" lon="13.9399683"><ele>68.0</ele><time>2026-04-11T07:47:08.861Z</time></trkpt><trkpt lat="41.1532433" lon="13.9400617"><ele>68.0</ele><time>2026-04-11T07:47:10.861Z</time></trkpt><trkpt lat="41.153345" lon="13.9401567"><ele>67.625</ele><time>2026-04-11T07:47:12.86Z</time></trkpt><trkpt lat="41.1533967" lon="13.940205"><ele>67.25</ele><time>2026-04-11T07:47:13.86Z</time></trkpt><trkpt lat="41.1534483" lon="13.9402533"><ele>66.875</ele><time>2026-04-11T07:47:14.862Z</time></trkpt><trkpt lat="41.1535017" lon="13.9403"><ele>66.5</ele><time>2026-04-11T07:47:15.861Z</time></trkpt><trkpt lat="41.1535567" lon="13.940345"><ele>66.125</ele><time>2026-04-11T07:47:16.859Z</time></trkpt><trkpt lat="41.15361" lon="13.9403917"><ele>65.75</ele><time>2026-04-11T07:47:17.86Z</time></trkpt><trkpt lat="41.1536633" lon="13.9404367"><ele>65.375</ele><time>2026-04-11T07:47:18.859Z</time></trkpt><trkpt lat="41.15372" lon="13.94048"><ele>65.0</ele><time>2026-04-11T07:47:19.86Z</time></trkpt><trkpt lat="41.1538233" lon="13.9405683"><ele>65.0</ele><time>2026-04-11T07:47:21.86Z</time></trkpt><trkpt lat="41.153925" lon="13.94066"><ele>65.0</ele><time>2026-04-11T07:47:23.861Z</time></trkpt><trkpt lat="41.154025" lon="13.9407517"><ele>65.0</ele><time>2026-04-11T07:47:25.861Z</time></trkpt><trkpt lat="41.154125" lon="13.9408333"><ele>65.0</ele><time>2026-04-11T07:47:27.858Z</time></trkpt><trkpt lat="41.15423" lon="13.9409267"><ele>65.28571428571429</ele><time>2026-04-11T07:47:29.862Z</time></trkpt><trkpt lat="41.1542883" lon="13.9409717"><ele>65.57142857142857</ele><time>2026-04-11T07:47:30.861Z</time></trkpt><trkpt lat="41.1543467" lon="13.9410183"><ele>65.85714285714286</ele><time>2026-04-11T07:47:31.859Z</time></trkpt><trkpt lat="41.1544067" lon="13.9410633"><ele>66.14285714285714</ele><time>2026-04-11T07:47:32.861Z</time></trkpt><trkpt lat="41.1544667" lon="13.9411133"><ele>66.42857142857143</ele><time>2026-04-11T07:47:33.858Z</time></trkpt><trkpt lat="41.15453" lon="13.9411617"><ele>66.71428571428572</ele><time>2026-04-11T07:47:34.86Z</time></trkpt><trkpt lat="41.1545917" lon="13.9412083"><ele>67.0</ele><time>2026-04-11T07:47:35.859Z</time></trkpt><trkpt lat="41.154655" lon="13.9412583"><ele>67.0</ele><time>2026-04-11T07:47:36.858Z</time></trkpt><trkpt lat="41.1547167" lon="13.941315"><ele>67.0</ele><time>2026-04-11T07:47:37.859Z</time></trkpt><trkpt lat="41.1547817" lon="13.9413683"><ele>67.0</ele><time>2026-04-11T07:47:38.861Z</time></trkpt><trkpt lat="41.1548467" lon="13.9414217"><ele>67.0</ele><time>2026-04-11T07:47:39.86Z</time></trkpt><trkpt lat="41.1549133" lon="13.9414783"><ele>67.0</ele><time>2026-04-11T07:47:40.858Z</time></trkpt><trkpt lat="41.15498" lon="13.9415317"><ele>67.0</ele><time>2026-04-11T07:47:41.862Z</time></trkpt><trkpt lat="41.1550517" lon="13.9415867"><ele>67.16666666666666</ele><time>2026-04-11T07:47:42.86Z</time></trkpt><trkpt lat="41.1551217" lon="13.94164"><ele>67.33333333333333</ele><time>2026-04-11T07:47:43.859Z</time></trkpt><trkpt lat="41.155195" lon="13.9416967"><ele>67.5</ele><time>2026-04-11T07:47:44.86Z</time></trkpt><trkpt lat="41.1552683" lon="13.941755"><ele>67.66666666666667</ele><time>2026-04-11T07:47:45.859Z</time></trkpt><trkpt lat="41.1553433" lon="13.94181"><ele>67.83333333333334</ele><time>2026-04-11T07:47:46.858Z</time></trkpt><trkpt lat="41.1554183" lon="13.9418683"><ele>68.0</ele><time>2026-04-11T07:47:47.858Z</time></trkpt><trkpt lat="41.1554917" lon="13.9419283"><ele>67.2</ele><time>2026-04-11T07:47:48.858Z</time></trkpt><trkpt lat="41.1555683" lon="13.94199"><ele>66.4</ele><time>2026-04-11T07:47:49.859Z</time></trkpt><trkpt lat="41.155645" lon="13.9420517"><ele>65.60000000000001</ele><time>2026-04-11T07:47:50.859Z</time></trkpt><trkpt lat="41.1557217" lon="13.9421133"><ele>64.8</ele><time>2026-04-11T07:47:51.859Z</time></trkpt><trkpt lat="41.1557983" lon="13.9421783"><ele>64.0</ele><time>2026-04-11T07:47:52.858Z</time></trkpt><trkpt lat="41.155875" lon="13.9422483"><ele>63.800000000000004</ele><time>2026-04-11T07:47:53.862Z</time></trkpt><trkpt lat="41.1559533" lon="13.942315"><ele>63.60000000000001</ele><time>2026-04-11T07:47:54.858Z</time></trkpt><trkpt lat="41.1560333" lon="13.94238"><ele>63.4</ele><time>2026-04-11T07:47:55.861Z</time></trkpt><trkpt lat="41.1561117" lon="13.942445"><ele>63.2</ele><time>2026-04-11T07:47:56.861Z</time></trkpt><trkpt lat="41.15619" lon="13.9425117"><ele>63.0</ele><time>2026-04-11T07:47:57.858Z</time></trkpt><trkpt lat="41.15627" lon="13.94258"><ele>62.599999999999994</ele><time>2026-04-11T07:47:58.862Z</time></trkpt><trkpt lat="41.156345" lon="13.942645"><ele>62.199999999999996</ele><time>2026-04-11T07:47:59.861Z</time></trkpt><trkpt lat="41.1564233" lon="13.9427117"><ele>61.8</ele><time>2026-04-11T07:48:00.859Z</time></trkpt><trkpt lat="41.1565" lon="13.9427767"><ele>61.4</ele><time>2026-04-11T07:48:01.86Z</time></trkpt><trkpt lat="41.1565767" lon="13.94284"><ele>61.0</ele><time>2026-04-11T07:48:02.86Z</time></trkpt><trkpt lat="41.1566533" lon="13.9429033"><ele>60.99999999999999</ele><time>2026-04-11T07:48:03.861Z</time></trkpt><trkpt lat="41.1567283" lon="13.942965"><ele>61.0</ele><time>2026-04-11T07:48:04.861Z</time></trkpt><trkpt lat="41.1568033" lon="13.9430283"><ele>61.0</ele><time>2026-04-11T07:48:05.861Z</time></trkpt><trkpt lat="41.1568783" lon="13.9430867"><ele>61.0</ele><time>2026-04-11T07:48:06.859Z</time></trkpt><trkpt lat="41.1569533" lon="13.9431467"><ele>60.99999999999999</ele><time>2026-04-11T07:48:07.859Z</time></trkpt><trkpt lat="41.1570283" lon="13.9432067"><ele>61.0</ele><time>2026-04-11T07:48:08.862Z</time></trkpt><trkpt lat="41.1570983" lon="13.9432667"><ele>60.99999999999999</ele><time>2026-04-11T07:48:09.862Z</time></trkpt><trkpt lat="41.1571717" lon="13.943325"><ele>61.0</ele><time>2026-04-11T07:48:10.86Z</time></trkpt><trkpt lat="41.1572433" lon="13.9433817"><ele>61.0</ele><time>2026-04-11T07:48:11.861Z</time></trkpt><trkpt lat="41.157315" lon="13.94344"><ele>61.0</ele><time>2026-04-11T07:48:12.858Z</time></trkpt><trkpt lat="41.1573883" lon="13.943495"><ele>60.99999999999999</ele><time>2026-04-11T07:48:13.858Z</time></trkpt><trkpt lat="41.1574633" lon="13.9435483"><ele>61.0</ele><time>2026-04-11T07:48:14.858Z</time></trkpt><trkpt lat="41.1575367" lon="13.9436017"><ele>61.166666666666664</ele><time>2026-04-11T07:48:15.858Z</time></trkpt><trkpt lat="41.1576117" lon="13.9436533"><ele>61.33333333333333</ele><time>2026-04-11T07:48:16.86Z</time></trkpt><trkpt lat="41.1576833" lon="13.943705"><ele>61.5</ele><time>2026-04-11T07:48:17.86Z</time></trkpt><trkpt lat="41.157755" lon="13.94376"><ele>61.66666666666667</ele><time>2026-04-11T07:48:18.859Z</time></trkpt><trkpt lat="41.1578267" lon="13.9438083"><ele>61.833333333333336</ele><time>2026-04-11T07:48:19.857Z</time></trkpt><trkpt lat="41.1578967" lon="13.94386"><ele>62.0</ele><time>2026-04-11T07:48:20.858Z</time></trkpt><trkpt lat="41.157965" lon="13.9439117"><ele>62.00000000000001</ele><time>2026-04-11T07:48:21.858Z</time></trkpt><trkpt lat="41.158035" lon="13.9439633"><ele>62.0</ele><time>2026-04-11T07:48:22.858Z</time></trkpt><trkpt lat="41.1581017" lon="13.944015"><ele>62.0</ele><time>2026-04-11T07:48:23.86Z</time></trkpt><trkpt lat="41.15817" lon="13.9440633"><ele>62.0</ele><time>2026-04-11T07:48:24.86Z</time></trkpt><trkpt lat="41.158235" lon="13.9441117"><ele>62.00000000000001</ele><time>2026-04-11T07:48:25.861Z</time></trkpt><trkpt lat="41.1582967" lon="13.944165"><ele>62.0</ele><time>2026-04-11T07:48:26.86Z</time></trkpt><trkpt lat="41.1583567" lon="13.9442167"><ele>62.28571428571429</ele><time>2026-04-11T07:48:27.861Z</time></trkpt><trkpt lat="41.1584167" lon="13.94426"><ele>62.57142857142858</ele><time>2026-04-11T07:48:28.859Z</time></trkpt><trkpt lat="41.1584767" lon="13.9443083"><ele>62.85714285714286</ele><time>2026-04-11T07:48:29.86Z</time></trkpt><trkpt lat="41.1585333" lon="13.9443533"><ele>63.14285714285714</ele><time>2026-04-11T07:48:30.86Z</time></trkpt><trkpt lat="41.1585933" lon="13.94439"><ele>63.42857142857142</ele><time>2026-04-11T07:48:31.862Z</time></trkpt><trkpt lat="41.1586533" lon="13.9444333"><ele>63.71428571428571</ele><time>2026-04-11T07:48:32.859Z</time></trkpt><trkpt lat="41.15871" lon="13.9444767"><ele>64.0</ele><time>2026-04-11T07:48:33.858Z</time></trkpt><trkpt lat="41.1587633" lon="13.944525"><ele>64.0</ele><time>2026-04-11T07:48:34.86Z</time></trkpt><trkpt lat="41.1588683" lon="13.9446117"><ele>64.0</ele><time>2026-04-11T07:48:36.858Z</time></trkpt><trkpt lat="41.1589233" lon="13.944655"><ele>64.0</ele><time>2026-04-11T07:48:37.86Z</time></trkpt><trkpt lat="41.1590333" lon="13.9447417"><ele>64.0</ele><time>2026-04-11T07:48:39.861Z</time></trkpt><trkpt lat="41.1591283" lon="13.94483"><ele>64.0</ele><time>2026-04-11T07:48:41.862Z</time></trkpt><trkpt lat="41.1592233" lon="13.944915"><ele>64.60000000000001</ele><time>2026-04-11T07:48:43.858Z</time></trkpt><trkpt lat="41.1593183" lon="13.945"><ele>65.2</ele><time>2026-04-11T07:48:45.858Z</time></trkpt><trkpt lat="41.1594083" lon="13.9450783"><ele>65.80000000000001</ele><time>2026-04-11T07:48:47.859Z</time></trkpt><trkpt lat="41.1594983" lon="13.9451567"><ele>66.4</ele><time>2026-04-11T07:48:49.859Z</time></trkpt><trkpt lat="41.1595917" lon="13.9452433"><ele>67.0</ele><time>2026-04-11T07:48:51.861Z</time></trkpt><trkpt lat="41.1596883" lon="13.9453317"><ele>67.0</ele><time>2026-04-11T07:48:53.858Z</time></trkpt><trkpt lat="41.1597867" lon="13.9454217"><ele>67.0</ele><time>2026-04-11T07:48:55.861Z</time></trkpt><trkpt lat="41.159885" lon="13.94551"><ele>67.0</ele><time>2026-04-11T07:48:57.858Z</time></trkpt><trkpt lat="41.1599883" lon="13.94559"><ele>67.0</ele><time>2026-04-11T07:48:59.861Z</time></trkpt><trkpt lat="41.1600917" lon="13.9456633"><ele>67.0</ele><time>2026-04-11T07:49:01.862Z</time></trkpt><trkpt lat="41.1601933" lon="13.94574"><ele>67.0</ele><time>2026-04-11T07:49:03.861Z</time></trkpt><trkpt lat="41.1602933" lon="13.9458267"><ele>67.0</ele><time>2026-04-11T07:49:05.86Z</time></trkpt><trkpt lat="41.1603917" lon="13.9459133"><ele>67.0</ele><time>2026-04-11T07:49:07.86Z</time></trkpt><trkpt lat="41.1604933" lon="13.9459933"><ele>67.0</ele><time>2026-04-11T07:49:09.86Z</time></trkpt><trkpt lat="41.1605917" lon="13.946085"><ele>67.0</ele><time>2026-04-11T07:49:11.86Z</time></trkpt><trkpt lat="41.1606467" lon="13.9461267"><ele>67.0</ele><time>2026-04-11T07:49:12.86Z</time></trkpt><trkpt lat="41.1607017" lon="13.9461717"><ele>67.0</ele><time>2026-04-11T07:49:13.859Z</time></trkpt><trkpt lat="41.1607583" lon="13.9462133"><ele>67.0</ele><time>2026-04-11T07:49:14.86Z</time></trkpt><trkpt lat="41.1608183" lon="13.9462567"><ele>67.0</ele><time>2026-04-11T07:49:15.86Z</time></trkpt><trkpt lat="41.1608767" lon="13.9463017"><ele>67.0</ele><time>2026-04-11T07:49:16.859Z</time></trkpt><trkpt lat="41.16093" lon="13.9463467"><ele>66.66666666666666</ele><time>2026-04-11T07:49:17.86Z</time></trkpt><trkpt lat="41.160985" lon="13.9463883"><ele>66.33333333333333</ele><time>2026-04-11T07:49:18.86Z</time></trkpt><trkpt lat="41.1610667" lon="13.9464567"><ele>66.0</ele><time>2026-04-11T07:49:20.86Z</time></trkpt><trkpt lat="41.161105" lon="13.94653"><ele>65.66666666666667</ele><time>2026-04-11T07:49:22.86Z</time></trkpt><trkpt lat="41.161105" lon="13.946635"><ele>65.33333333333334</ele><time>2026-04-11T07:49:24.86Z</time></trkpt><trkpt lat="41.1611533" lon="13.9467233"><ele>65.0</ele><time>2026-04-11T07:49:26.861Z</time></trkpt><trkpt lat="41.1612367" lon="13.9467883"><ele>65.0</ele><time>2026-04-11T07:49:28.86Z</time></trkpt><trkpt lat="41.1613333" lon="13.94686"><ele>65.0</ele><time>2026-04-11T07:49:30.86Z</time></trkpt><trkpt lat="41.1614333" lon="13.9469133"><ele>65.0</ele><time>2026-04-11T07:49:32.86Z</time></trkpt><trkpt lat="41.1615233" lon="13.9469833"><ele>65.0</ele><time>2026-04-11T07:49:34.861Z</time></trkpt><trkpt lat="41.1616117" lon="13.9470733"><ele>65.0</ele><time>2026-04-11T07:49:36.86Z</time></trkpt><trkpt lat="41.1616983" lon="13.947165"><ele>65.0</ele><time>2026-04-11T07:49:38.86Z</time></trkpt><trkpt lat="41.1617933" lon="13.9472483"><ele>65.0</ele><time>2026-04-11T07:49:40.86Z</time></trkpt><trkpt lat="41.16188" lon="13.947335"><ele>65.0</ele><time>2026-04-11T07:49:42.86Z</time></trkpt><trkpt lat="41.16198" lon="13.9474167"><ele>65.0</ele><time>2026-04-11T07:49:44.861Z</time></trkpt><trkpt lat="41.16208" lon="13.9474983"><ele>65.0</ele><time>2026-04-11T07:49:46.859Z</time></trkpt><trkpt lat="41.162175" lon="13.9475783"><ele>65.0</ele><time>2026-04-11T07:49:48.86Z</time></trkpt><trkpt lat="41.16226" lon="13.9476517"><ele>65.0</ele><time>2026-04-11T07:49:50.861Z</time></trkpt><trkpt lat="41.1623383" lon="13.9477167"><ele>65.0</ele><time>2026-04-11T07:49:52.86Z</time></trkpt><trkpt lat="41.16242" lon="13.947785"><ele>65.0</ele><time>2026-04-11T07:49:54.86Z</time></trkpt><trkpt lat="41.16251" lon="13.9478633"><ele>65.0</ele><time>2026-04-11T07:49:56.859Z</time></trkpt><trkpt lat="41.1626033" lon="13.9479467"><ele>65.0</ele><time>2026-04-11T07:49:58.86Z</time></trkpt><trkpt lat="41.1627067" lon="13.9480317"><ele>65.0</ele><time>2026-04-11T07:50:00.859Z</time></trkpt><trkpt lat="41.1628067" lon="13.94812"><ele>65.0</ele><time>2026-04-11T07:50:02.86Z</time></trkpt><trkpt lat="41.1629133" lon="13.9482017"><ele>65.0</ele><time>2026-04-11T07:50:04.86Z</time></trkpt><trkpt lat="41.1630167" lon="13.9482783"><ele>65.0</ele><time>2026-04-11T07:50:06.86Z</time></trkpt><trkpt lat="41.1631167" lon="13.9483567"><ele>65.0</ele><time>2026-04-11T07:50:08.86Z</time></trkpt><trkpt lat="41.1632117" lon="13.9484367"><ele>65.0</ele><time>2026-04-11T07:50:10.859Z</time></trkpt><trkpt lat="41.16331" lon="13.94851"><ele>65.5</ele><time>2026-04-11T07:50:12.86Z</time></trkpt><trkpt lat="41.1634117" lon="13.9485867"><ele>66.0</ele><time>2026-04-11T07:50:14.858Z</time></trkpt><trkpt lat="41.16352" lon="13.9486517"><ele>66.5</ele><time>2026-04-11T07:50:16.86Z</time></trkpt><trkpt lat="41.1636233" lon="13.948735"><ele>67.0</ele><time>2026-04-11T07:50:18.863Z</time></trkpt><trkpt lat="41.1637317" lon="13.948805"><ele>67.0</ele><time>2026-04-11T07:50:20.863Z</time></trkpt><trkpt lat="41.16384" lon="13.948885"><ele>67.0</ele><time>2026-04-11T07:50:22.863Z</time></trkpt><trkpt lat="41.16394" lon="13.9489717"><ele>67.0</ele><time>2026-04-11T07:50:24.86Z</time></trkpt><trkpt lat="41.1640367" lon="13.94905"><ele>67.0</ele><time>2026-04-11T07:50:26.86Z</time></trkpt><trkpt lat="41.1641367" lon="13.9491267"><ele>67.25</ele><time>2026-04-11T07:50:28.86Z</time></trkpt><trkpt lat="41.1642333" lon="13.9492217"><ele>67.5</ele><time>2026-04-11T07:50:30.86Z</time></trkpt><trkpt lat="41.1643317" lon="13.9493067"><ele>67.75</ele><time>2026-04-11T07:50:32.86Z</time></trkpt><trkpt lat="41.1644283" lon="13.9493933"><ele>68.0</ele><time>2026-04-11T07:50:34.86Z</time></trkpt><trkpt lat="41.1645217" lon="13.94948"><ele>68.0</ele><time>2026-04-11T07:50:36.86Z</time></trkpt><trkpt lat="41.1646183" lon="13.9495533"><ele>68.0</ele><time>2026-04-11T07:50:38.859Z</time></trkpt><trkpt lat="41.1647133" lon="13.9496367"><ele>68.0</ele><time>2026-04-11T07:50:40.86Z</time></trkpt><trkpt lat="41.164805" lon="13.949715"><ele>68.0</ele><time>2026-04-11T07:50:42.859Z</time></trkpt><trkpt lat="41.1648933" lon="13.9497833"><ele>68.0</ele><time>2026-04-11T07:50:44.86Z</time></trkpt><trkpt lat="41.1649817" lon="13.9498533"><ele>68.4</ele><time>2026-04-11T07:50:46.86Z</time></trkpt><trkpt lat="41.1650717" lon="13.94992"><ele>68.8</ele><time>2026-04-11T07:50:48.859Z</time></trkpt><trkpt lat="41.1651633" lon="13.94999"><ele>69.2</ele><time>2026-04-11T07:50:50.86Z</time></trkpt><trkpt lat="41.165255" lon="13.95006"><ele>69.6</ele><time>2026-04-11T07:50:52.86Z</time></trkpt><trkpt lat="41.1653467" lon="13.9501333"><ele>70.0</ele><time>2026-04-11T07:50:54.86Z</time></trkpt><trkpt lat="41.1654367" lon="13.95021"><ele>70.0</ele><time>2026-04-11T07:50:56.86Z</time></trkpt><trkpt lat="41.1655283" lon="13.950285"><ele>70.0</ele><time>2026-04-11T07:50:58.86Z</time></trkpt><trkpt lat="41.1656183" lon="13.9503667"><ele>70.0</ele><time>2026-04-11T07:51:00.86Z</time></trkpt><trkpt lat="41.165715" lon="13.9504417"><ele>70.0</ele><time>2026-04-11T07:51:02.86Z</time></trkpt><trkpt lat="41.16581" lon="13.9505183"><ele>70.0</ele><time>2026-04-11T07:51:04.861Z</time></trkpt><trkpt lat="41.1659067" lon="13.9505917"><ele>69.8</ele><time>2026-04-11T07:51:06.86Z</time></trkpt><trkpt lat="41.16599" lon="13.9506633"><ele>69.6</ele><time>2026-04-11T07:51:08.86Z</time></trkpt><trkpt lat="41.1660817" lon="13.9507433"><ele>69.4</ele><time>2026-04-11T07:51:10.86Z</time></trkpt><trkpt lat="41.1661783" lon="13.9508183"><ele>69.2</ele><time>2026-04-11T07:51:12.862Z</time></trkpt><trkpt lat="41.166285" lon="13.95087"><ele>69.0</ele><time>2026-04-11T07:51:14.86Z</time></trkpt><trkpt lat="41.1663717" lon="13.95094"><ele>69.0</ele><time>2026-04-11T07:51:16.857Z</time></trkpt><trkpt lat="41.1664683" lon="13.9510117"><ele>69.0</ele><time>2026-04-11T07:51:18.858Z</time></trkpt><trkpt lat="41.1665583" lon="13.95109"><ele>69.0</ele><time>2026-04-11T07:51:20.858Z</time></trkpt><trkpt lat="41.1666417" lon="13.9511583"><ele>69.0</ele><time>2026-04-11T07:51:22.857Z</time></trkpt><trkpt lat="41.1667117" lon="13.95124"><ele>69.0</ele><time>2026-04-11T07:51:24.858Z</time></trkpt><trkpt lat="41.166795" lon="13.95133"><ele>69.5</ele><time>2026-04-11T07:51:26.859Z</time></trkpt><trkpt lat="41.1669" lon="13.9514233"><ele>70.0</ele><time>2026-04-11T07:51:28.858Z</time></trkpt><trkpt lat="41.1669633" lon="13.951475"><ele>70.5</ele><time>2026-04-11T07:51:29.859Z</time></trkpt><trkpt lat="41.1670217" lon="13.951525"><ele>71.0</ele><time>2026-04-11T07:51:30.858Z</time></trkpt><trkpt lat="41.16708" lon="13.9515767"><ele>71.5</ele><time>2026-04-11T07:51:31.86Z</time></trkpt><trkpt lat="41.1671367" lon="13.9516283"><ele>72.0</ele><time>2026-04-11T07:51:32.86Z</time></trkpt><trkpt lat="41.1672" lon="13.9516783"><ele>71.28571428571429</ele><time>2026-04-11T07:51:33.86Z</time></trkpt><trkpt lat="41.1672567" lon="13.9517267"><ele>70.57142857142857</ele><time>2026-04-11T07:51:34.859Z</time></trkpt><trkpt lat="41.1673133" lon="13.9517733"><ele>69.85714285714286</ele><time>2026-04-11T07:51:35.866Z</time></trkpt><trkpt lat="41.1673717" lon="13.9518217"><ele>69.14285714285714</ele><time>2026-04-11T07:51:36.862Z</time></trkpt><trkpt lat="41.167435" lon="13.9518733"><ele>68.42857142857143</ele><time>2026-04-11T07:51:37.859Z</time></trkpt><trkpt lat="41.1674967" lon="13.9519283"><ele>67.71428571428572</ele><time>2026-04-11T07:51:38.859Z</time></trkpt><trkpt lat="41.1675583" lon="13.9519817"><ele>67.0</ele><time>2026-04-11T07:51:39.858Z</time></trkpt><trkpt lat="41.1676217" lon="13.9520317"><ele>67.0</ele><time>2026-04-11T07:51:40.859Z</time></trkpt><trkpt lat="41.1676817" lon="13.9520867"><ele>67.0</ele><time>2026-04-11T07:51:41.857Z</time></trkpt><trkpt lat="41.1677433" lon="13.9521383"><ele>67.0</ele><time>2026-04-11T07:51:42.858Z</time></trkpt><trkpt lat="41.1678133" lon="13.95219"><ele>67.0</ele><time>2026-04-11T07:51:43.859Z</time></trkpt><trkpt lat="41.16788" lon="13.9522417"><ele>67.0</ele><time>2026-04-11T07:51:44.859Z</time></trkpt><trkpt lat="41.167945" lon="13.9522917"><ele>67.0</ele><time>2026-04-11T07:51:45.859Z</time></trkpt><trkpt lat="41.16801" lon="13.9523433"><ele>67.0</ele><time>2026-04-11T07:51:46.859Z</time></trkpt><trkpt lat="41.1680717" lon="13.9523917"><ele>67.0</ele><time>2026-04-11T07:51:47.86Z</time></trkpt><trkpt lat="41.1681383" lon="13.9524433"><ele>67.0</ele><time>2026-04-11T07:51:48.859Z</time></trkpt><trkpt lat="41.1682017" lon="13.9524933"><ele>67.0</ele><time>2026-04-11T07:51:49.86Z</time></trkpt><trkpt lat="41.1682733" lon="13.9525417"><ele>67.0</ele><time>2026-04-11T07:51:50.859Z</time></trkpt><trkpt lat="41.1683367" lon="13.95259"><ele>67.0</ele><time>2026-04-11T07:51:51.859Z</time></trkpt><trkpt lat="41.1684017" lon="13.9526383"><ele>66.71428571428572</ele><time>2026-04-11T07:51:52.858Z</time></trkpt><trkpt lat="41.1684667" lon="13.9526867"><ele>66.42857142857143</ele><time>2026-04-11T07:51:53.859Z</time></trkpt><trkpt lat="41.1685317" lon="13.9527283"><ele>66.14285714285714</ele><time>2026-04-11T07:51:54.859Z</time></trkpt><trkpt lat="41.1685967" lon="13.9527817"><ele>65.85714285714286</ele><time>2026-04-11T07:51:55.859Z</time></trkpt><trkpt lat="41.1686567" lon="13.95283"><ele>65.57142857142857</ele><time>2026-04-11T07:51:56.857Z</time></trkpt><trkpt lat="41.168715" lon="13.952885"><ele>65.28571428571429</ele><time>2026-04-11T07:51:57.859Z</time></trkpt><trkpt lat="41.1687767" lon="13.95294"><ele>65.0</ele><time>2026-04-11T07:51:58.858Z</time></trkpt><trkpt lat="41.168835" lon="13.9529883"><ele>65.00000000000001</ele><time>2026-04-11T07:51:59.858Z</time></trkpt><trkpt lat="41.1688883" lon="13.9530383"><ele>65.0</ele><time>2026-04-11T07:52:00.858Z</time></trkpt><trkpt lat="41.1689433" lon="13.9530833"><ele>65.0</ele><time>2026-04-11T07:52:01.86Z</time></trkpt><trkpt lat="41.169005" lon="13.9531333"><ele>65.0</ele><time>2026-04-11T07:52:02.862Z</time></trkpt><trkpt lat="41.169065" lon="13.9531867"><ele>65.0</ele><time>2026-04-11T07:52:03.86Z</time></trkpt><trkpt lat="41.169125" lon="13.9532417"><ele>65.00000000000001</ele><time>2026-04-11T07:52:04.858Z</time></trkpt><trkpt lat="41.1691867" lon="13.95329"><ele>65.0</ele><time>2026-04-11T07:52:05.858Z</time></trkpt><trkpt lat="41.1692467" lon="13.9533417"><ele>65.00000000000001</ele><time>2026-04-11T07:52:06.858Z</time></trkpt><trkpt lat="41.1693067" lon="13.953385"><ele>65.0</ele><time>2026-04-11T07:52:07.858Z</time></trkpt><trkpt lat="41.1693667" lon="13.9534317"><ele>65.0</ele><time>2026-04-11T07:52:08.859Z</time></trkpt><trkpt lat="41.1694267" lon="13.9534817"><ele>65.0</ele><time>2026-04-11T07:52:09.857Z</time></trkpt><trkpt lat="41.1694867" lon="13.95353"><ele>65.0</ele><time>2026-04-11T07:52:10.858Z</time></trkpt><trkpt lat="41.1695467" lon="13.9535783"><ele>65.00000000000001</ele><time>2026-04-11T07:52:11.859Z</time></trkpt><trkpt lat="41.169605" lon="13.953625"><ele>65.0</ele><time>2026-04-11T07:52:12.858Z</time></trkpt><trkpt lat="41.1696633" lon="13.9536683"><ele>65.00000000000001</ele><time>2026-04-11T07:52:13.859Z</time></trkpt><trkpt lat="41.16972" lon="13.9537117"><ele>65.0</ele><time>2026-04-11T07:52:14.858Z</time></trkpt><trkpt lat="41.1697783" lon="13.9537583"><ele>65.0</ele><time>2026-04-11T07:52:15.857Z</time></trkpt><trkpt lat="41.1698383" lon="13.953805"><ele>65.0</ele><time>2026-04-11T07:52:16.858Z</time></trkpt><trkpt lat="41.169895" lon="13.95385"><ele>65.0</ele><time>2026-04-11T07:52:17.858Z</time></trkpt><trkpt lat="41.1699517" lon="13.953895"><ele>65.00000000000001</ele><time>2026-04-11T07:52:18.858Z</time></trkpt><trkpt lat="41.1700067" lon="13.9539417"><ele>65.0</ele><time>2026-04-11T07:52:19.859Z</time></trkpt><trkpt lat="41.1700633" lon="13.9539883"><ele>65.28571428571429</ele><time>2026-04-11T07:52:20.858Z</time></trkpt><trkpt lat="41.1701167" lon="13.954035"><ele>65.57142857142857</ele><time>2026-04-11T07:52:21.857Z</time></trkpt><trkpt lat="41.1701733" lon="13.95408"><ele>65.85714285714286</ele><time>2026-04-11T07:52:22.858Z</time></trkpt><trkpt lat="41.1702283" lon="13.954125"><ele>66.14285714285714</ele><time>2026-04-11T07:52:23.858Z</time></trkpt><trkpt lat="41.1702833" lon="13.9541767"><ele>66.42857142857143</ele><time>2026-04-11T07:52:24.857Z</time></trkpt><trkpt lat="41.1703383" lon="13.9542233"><ele>66.71428571428572</ele><time>2026-04-11T07:52:25.859Z</time></trkpt><trkpt lat="41.1703933" lon="13.9542667"><ele>67.0</ele><time>2026-04-11T07:52:26.858Z</time></trkpt><trkpt lat="41.1705" lon="13.954355"><ele>67.25</ele><time>2026-04-11T07:52:28.858Z</time></trkpt><trkpt lat="41.170605" lon="13.954445"><ele>67.5</ele><time>2026-04-11T07:52:30.857Z</time></trkpt><trkpt lat="41.1707067" lon="13.95453"><ele>67.75</ele><time>2026-04-11T07:52:32.858Z</time></trkpt><trkpt lat="41.1708083" lon="13.9546167"><ele>68.0</ele><time>2026-04-11T07:52:34.858Z</time></trkpt><trkpt lat="41.1709133" lon="13.9547033"><ele>68.5</ele><time>2026-04-11T07:52:36.858Z</time></trkpt><trkpt lat="41.171015" lon="13.9547883"><ele>69.0</ele><time>2026-04-11T07:52:38.858Z</time></trkpt><trkpt lat="41.171115" lon="13.9548783"><ele>69.5</ele><time>2026-04-11T07:52:40.858Z</time></trkpt><trkpt lat="41.171215" lon="13.9549567"><ele>70.0</ele><time>2026-04-11T07:52:42.858Z</time></trkpt><trkpt lat="41.1713117" lon="13.9550333"><ele>70.0</ele><time>2026-04-11T07:52:44.858Z</time></trkpt><trkpt lat="41.17141" lon="13.9551117"><ele>70.0</ele><time>2026-04-11T07:52:46.859Z</time></trkpt><trkpt lat="41.1715067" lon="13.9551883"><ele>70.0</ele><time>2026-04-11T07:52:48.86Z</time></trkpt><trkpt lat="41.1715983" lon="13.95527"><ele>70.0</ele><time>2026-04-11T07:52:50.858Z</time></trkpt><trkpt lat="41.1716917" lon="13.9553567"><ele>70.0</ele><time>2026-04-11T07:52:52.857Z</time></trkpt><trkpt lat="41.1717883" lon="13.9554417"><ele>70.0</ele><time>2026-04-11T07:52:54.857Z</time></trkpt><trkpt lat="41.171885" lon="13.955525"><ele>70.0</ele><time>2026-04-11T07:52:56.857Z</time></trkpt><trkpt lat="41.17198" lon="13.9556083"><ele>70.0</ele><time>2026-04-11T07:52:58.858Z</time></trkpt><trkpt lat="41.1720333" lon="13.9556583"><ele>70.0</ele><time>2026-04-11T07:52:59.859Z</time></trkpt><trkpt lat="41.1721333" lon="13.9557383"><ele>70.0</ele><time>2026-04-11T07:53:01.858Z</time></trkpt><trkpt lat="41.1722317" lon="13.955815"><ele>70.0</ele><time>2026-04-11T07:53:03.858Z</time></trkpt><trkpt lat="41.172315" lon="13.955875"><ele>70.0</ele><time>2026-04-11T07:53:05.858Z</time></trkpt><trkpt lat="41.1723933" lon="13.9559367"><ele>70.0</ele><time>2026-04-11T07:53:07.858Z</time></trkpt><trkpt lat="41.17248" lon="13.956005"><ele>70.0</ele><time>2026-04-11T07:53:09.858Z</time></trkpt><trkpt lat="41.1725717" lon="13.95608"><ele>70.25</ele><time>2026-04-11T07:53:11.858Z</time></trkpt><trkpt lat="41.1726633" lon="13.9561567"><ele>70.5</ele><time>2026-04-11T07:53:13.859Z</time></trkpt><trkpt lat="41.1727633" lon="13.95624"><ele>70.75</ele><time>2026-04-11T07:53:15.869Z</time></trkpt><trkpt lat="41.1728667" lon="13.9563267"><ele>71.0</ele><time>2026-04-11T07:53:17.861Z</time></trkpt><trkpt lat="41.1729717" lon="13.9564033"><ele>71.0</ele><time>2026-04-11T07:53:19.861Z</time></trkpt><trkpt lat="41.17308" lon="13.9564833"><ele>71.0</ele><time>2026-04-11T07:53:21.859Z</time></trkpt><trkpt lat="41.1731333" lon="13.9565283"><ele>71.0</ele><time>2026-04-11T07:53:22.861Z</time></trkpt><trkpt lat="41.173235" lon="13.9566133"><ele>71.0</ele><time>2026-04-11T07:53:24.861Z</time></trkpt><trkpt lat="41.1733383" lon="13.9567"><ele>71.0</ele><time>2026-04-11T07:53:26.862Z</time></trkpt><trkpt lat="41.1734417" lon="13.9567833"><ele>71.0</ele><time>2026-04-11T07:53:28.859Z</time></trkpt><trkpt lat="41.1735483" lon="13.9568683"><ele>71.0</ele><time>2026-04-11T07:53:30.862Z</time></trkpt><trkpt lat="41.173645" lon="13.9569567"><ele>71.0</ele><time>2026-04-11T07:53:32.862Z</time></trkpt><trkpt lat="41.1737467" lon="13.9570467"><ele>71.0</ele><time>2026-04-11T07:53:34.862Z</time></trkpt><trkpt lat="41.1738433" lon="13.957135"><ele>71.0</ele><time>2026-04-11T07:53:36.86Z</time></trkpt><trkpt lat="41.173945" lon="13.9572183"><ele>71.0</ele><time>2026-04-11T07:53:38.862Z</time></trkpt><trkpt lat="41.174045" lon="13.9573067"><ele>71.0</ele><time>2026-04-11T07:53:40.861Z</time></trkpt><trkpt lat="41.1741483" lon="13.957395"><ele>71.0</ele><time>2026-04-11T07:53:42.862Z</time></trkpt><trkpt lat="41.1742533" lon="13.9574817"><ele>71.0</ele><time>2026-04-11T07:53:44.862Z</time></trkpt><trkpt lat="41.1743567" lon="13.9575683"><ele>71.0</ele><time>2026-04-11T07:53:46.859Z</time></trkpt><trkpt lat="41.17441" lon="13.957615"><ele>71.0</ele><time>2026-04-11T07:53:47.86Z</time></trkpt><trkpt lat="41.1744633" lon="13.95766"><ele>71.0</ele><time>2026-04-11T07:53:48.86Z</time></trkpt><trkpt lat="41.1745183" lon="13.9577033"><ele>71.0</ele><time>2026-04-11T07:53:49.859Z</time></trkpt><trkpt lat="41.1745733" lon="13.9577483"><ele>71.0</ele><time>2026-04-11T07:53:50.86Z</time></trkpt><trkpt lat="41.1746283" lon="13.9577917"><ele>71.0</ele><time>2026-04-11T07:53:51.86Z</time></trkpt><trkpt lat="41.1747283" lon="13.9578867"><ele>71.0</ele><time>2026-04-11T07:53:53.86Z</time></trkpt><trkpt lat="41.17483" lon="13.9579767"><ele>71.0</ele><time>2026-04-11T07:53:55.862Z</time></trkpt><trkpt lat="41.1749283" lon="13.95807"><ele>71.0</ele><time>2026-04-11T07:53:57.859Z</time></trkpt><trkpt lat="41.17503" lon="13.958155"><ele>71.0</ele><time>2026-04-11T07:53:59.862Z</time></trkpt><trkpt lat="41.175135" lon="13.9582367"><ele>71.0</ele><time>2026-04-11T07:54:01.86Z</time></trkpt><trkpt lat="41.17524" lon="13.958315"><ele>71.0</ele><time>2026-04-11T07:54:03.861Z</time></trkpt><trkpt lat="41.17534" lon="13.9584"><ele>71.0</ele><time>2026-04-11T07:54:05.861Z</time></trkpt><trkpt lat="41.1754433" lon="13.95848"><ele>71.0</ele><time>2026-04-11T07:54:07.86Z</time></trkpt><trkpt lat="41.1755417" lon="13.9585633"><ele>71.0</ele><time>2026-04-11T07:54:09.86Z</time></trkpt><trkpt lat="41.17565" lon="13.9586417"><ele>71.0</ele><time>2026-04-11T07:54:11.861Z</time></trkpt><trkpt lat="41.1757533" lon="13.9587267"><ele>71.0</ele><time>2026-04-11T07:54:13.863Z</time></trkpt><trkpt lat="41.17585" lon="13.95881"><ele>71.0</ele><time>2026-04-11T07:54:15.86Z</time></trkpt><trkpt lat="41.1759467" lon="13.9588917"><ele>71.75</ele><time>2026-04-11T07:54:17.859Z</time></trkpt><trkpt lat="41.1760467" lon="13.958965"><ele>72.5</ele><time>2026-04-11T07:54:19.86Z</time></trkpt><trkpt lat="41.1761517" lon="13.9590467"><ele>73.25</ele><time>2026-04-11T07:54:21.859Z</time></trkpt><trkpt lat="41.1762533" lon="13.95913"><ele>74.0</ele><time>2026-04-11T07:54:23.861Z</time></trkpt><trkpt lat="41.1763533" lon="13.95921"><ele>74.25</ele><time>2026-04-11T07:54:25.86Z</time></trkpt><trkpt lat="41.17646" lon="13.9592933"><ele>74.5</ele><time>2026-04-11T07:54:27.861Z</time></trkpt><trkpt lat="41.176555" lon="13.959385"><ele>74.75</ele><time>2026-04-11T07:54:29.857Z</time></trkpt><trkpt lat="41.1766517" lon="13.9594783"><ele>75.0</ele><time>2026-04-11T07:54:31.862Z</time></trkpt><trkpt lat="41.1767483" lon="13.95957"><ele>75.5</ele><time>2026-04-11T07:54:33.86Z</time></trkpt><trkpt lat="41.1768433" lon="13.9596567"><ele>76.0</ele><time>2026-04-11T07:54:35.86Z</time></trkpt><trkpt lat="41.17694" lon="13.9597367"><ele>76.5</ele><time>2026-04-11T07:54:37.859Z</time></trkpt><trkpt lat="41.177045" lon="13.9598117"><ele>77.0</ele><time>2026-04-11T07:54:39.862Z</time></trkpt><trkpt lat="41.177145" lon="13.9598867"><ele>77.0</ele><time>2026-04-11T07:54:41.86Z</time></trkpt><trkpt lat="41.1772433" lon="13.9599567"><ele>77.0</ele><time>2026-04-11T07:54:43.858Z</time></trkpt><trkpt lat="41.17734" lon="13.96004"><ele>77.0</ele><time>2026-04-11T07:54:45.862Z</time></trkpt><trkpt lat="41.1774383" lon="13.9601267"><ele>77.0</ele><time>2026-04-11T07:54:47.862Z</time></trkpt><trkpt lat="41.1775383" lon="13.9602083"><ele>77.25</ele><time>2026-04-11T07:54:49.859Z</time></trkpt><trkpt lat="41.1776317" lon="13.96029"><ele>77.5</ele><time>2026-04-11T07:54:51.862Z</time></trkpt><trkpt lat="41.1777333" lon="13.96037"><ele>77.75</ele><time>2026-04-11T07:54:53.86Z</time></trkpt><trkpt lat="41.177835" lon="13.96046"><ele>78.0</ele><time>2026-04-11T07:54:55.861Z</time></trkpt><trkpt lat="41.177935" lon="13.96054"><ele>78.0</ele><time>2026-04-11T07:54:57.862Z</time></trkpt><trkpt lat="41.1780333" lon="13.96062"><ele>78.0</ele><time>2026-04-11T07:54:59.859Z</time></trkpt><trkpt lat="41.17813" lon="13.960695"><ele>78.0</ele><time>2026-04-11T07:55:01.86Z</time></trkpt><trkpt lat="41.1782267" lon="13.9607683"><ele>78.0</ele><time>2026-04-11T07:55:03.861Z</time></trkpt><trkpt lat="41.1783267" lon="13.9608467"><ele>78.25</ele><time>2026-04-11T07:55:05.862Z</time></trkpt><trkpt lat="41.1784267" lon="13.9609333"><ele>78.5</ele><time>2026-04-11T07:55:07.862Z</time></trkpt><trkpt lat="41.1785317" lon="13.9610117"><ele>78.75</ele><time>2026-04-11T07:55:09.858Z</time></trkpt><trkpt lat="41.1786367" lon="13.9610867"><ele>79.0</ele><time>2026-04-11T07:55:11.858Z</time></trkpt><trkpt lat="41.1787267" lon="13.9611667"><ele>79.0</ele><time>2026-04-11T07:55:13.863Z</time></trkpt><trkpt lat="41.17882" lon="13.9612533"><ele>79.0</ele><time>2026-04-11T07:55:15.862Z</time></trkpt><trkpt lat="41.178925" lon="13.961335"><ele>79.0</ele><time>2026-04-11T07:55:17.862Z</time></trkpt><trkpt lat="41.1789817" lon="13.9613817"><ele>79.0</ele><time>2026-04-11T07:55:18.862Z</time></trkpt><trkpt lat="41.1790383" lon="13.9614317"><ele>79.0</ele><time>2026-04-11T07:55:19.862Z</time></trkpt><trkpt lat="41.1790933" lon="13.9614817"><ele>79.0</ele><time>2026-04-11T07:55:20.86Z</time></trkpt><trkpt lat="41.17915" lon="13.9615317"><ele>79.14285714285715</ele><time>2026-04-11T07:55:21.862Z</time></trkpt><trkpt lat="41.1792083" lon="13.96158"><ele>79.28571428571429</ele><time>2026-04-11T07:55:22.86Z</time></trkpt><trkpt lat="41.1792683" lon="13.9616317"><ele>79.42857142857143</ele><time>2026-04-11T07:55:23.861Z</time></trkpt><trkpt lat="41.1793283" lon="13.9616817"><ele>79.57142857142858</ele><time>2026-04-11T07:55:24.859Z</time></trkpt><trkpt lat="41.17939" lon="13.9617317"><ele>79.71428571428572</ele><time>2026-04-11T07:55:25.863Z</time></trkpt><trkpt lat="41.17945" lon="13.96178"><ele>79.85714285714286</ele><time>2026-04-11T07:55:26.861Z</time></trkpt><trkpt lat="41.179515" lon="13.9618283"><ele>80.0</ele><time>2026-04-11T07:55:27.861Z</time></trkpt><trkpt lat="41.1795817" lon="13.9618733"><ele>79.71428571428571</ele><time>2026-04-11T07:55:28.862Z</time></trkpt><trkpt lat="41.179645" lon="13.9619233"><ele>79.42857142857143</ele><time>2026-04-11T07:55:29.861Z</time></trkpt><trkpt lat="41.1797067" lon="13.961975"><ele>79.14285714285714</ele><time>2026-04-11T07:55:30.862Z</time></trkpt><trkpt lat="41.17977" lon="13.9620233"><ele>78.85714285714286</ele><time>2026-04-11T07:55:31.862Z</time></trkpt><trkpt lat="41.1798333" lon="13.9620683"><ele>78.57142857142857</ele><time>2026-04-11T07:55:32.862Z</time></trkpt><trkpt lat="41.179895" lon="13.9621183"><ele>78.28571428571429</ele><time>2026-04-11T07:55:33.862Z</time></trkpt><trkpt lat="41.1799567" lon="13.96217"><ele>78.0</ele><time>2026-04-11T07:55:34.861Z</time></trkpt><trkpt lat="41.1800183" lon="13.9622233"><ele>78.0</ele><time>2026-04-11T07:55:35.86Z</time></trkpt><trkpt lat="41.1800817" lon="13.9622733"><ele>78.0</ele><time>2026-04-11T07:55:36.857Z</time></trkpt><trkpt lat="41.1801417" lon="13.9623233"><ele>78.0</ele><time>2026-04-11T07:55:37.862Z</time></trkpt><trkpt lat="41.1802" lon="13.9623733"><ele>78.0</ele><time>2026-04-11T07:55:38.859Z</time></trkpt><trkpt lat="41.18026" lon="13.962425"><ele>78.0</ele><time>2026-04-11T07:55:39.86Z</time></trkpt><trkpt lat="41.1803217" lon="13.9624783"><ele>78.0</ele><time>2026-04-11T07:55:40.861Z</time></trkpt><trkpt lat="41.1803833" lon="13.962535"><ele>78.0</ele><time>2026-04-11T07:55:41.858Z</time></trkpt><trkpt lat="41.1804467" lon="13.9625867"><ele>78.0</ele><time>2026-04-11T07:55:42.859Z</time></trkpt><trkpt lat="41.18051" lon="13.96264"><ele>78.0</ele><time>2026-04-11T07:55:43.862Z</time></trkpt><trkpt lat="41.1805717" lon="13.9626917"><ele>78.0</ele><time>2026-04-11T07:55:44.86Z</time></trkpt><trkpt lat="41.1806333" lon="13.96274"><ele>78.0</ele><time>2026-04-11T07:55:45.861Z</time></trkpt><trkpt lat="41.1806967" lon="13.96279"><ele>78.0</ele><time>2026-04-11T07:55:46.862Z</time></trkpt><trkpt lat="41.1807583" lon="13.9628433"><ele>78.0</ele><time>2026-04-11T07:55:47.862Z</time></trkpt><trkpt lat="41.18082" lon="13.9629"><ele>78.0</ele><time>2026-04-11T07:55:48.861Z</time></trkpt><trkpt lat="41.1808817" lon="13.9629533"><ele>78.0</ele><time>2026-04-11T07:55:49.862Z</time></trkpt><trkpt lat="41.180945" lon="13.963005"><ele>78.0</ele><time>2026-04-11T07:55:50.86Z</time></trkpt><trkpt lat="41.1810067" lon="13.963055"><ele>78.0</ele><time>2026-04-11T07:55:51.86Z</time></trkpt><trkpt lat="41.1810683" lon="13.9631"><ele>78.0</ele><time>2026-04-11T07:55:52.862Z</time></trkpt><trkpt lat="41.18113" lon="13.963145"><ele>78.0</ele><time>2026-04-11T07:55:53.858Z</time></trkpt><trkpt lat="41.1811883" lon="13.96319"><ele>78.0</ele><time>2026-04-11T07:55:54.857Z</time></trkpt><trkpt lat="41.1812467" lon="13.9632367"><ele>78.0</ele><time>2026-04-11T07:55:55.859Z</time></trkpt><trkpt lat="41.1813017" lon="13.963285"><ele>78.0</ele><time>2026-04-11T07:55:56.859Z</time></trkpt><trkpt lat="41.18136" lon="13.9633317"><ele>78.0</ele><time>2026-04-11T07:55:57.858Z</time></trkpt><trkpt lat="41.1814167" lon="13.9633817"><ele>78.0</ele><time>2026-04-11T07:55:58.861Z</time></trkpt><trkpt lat="41.1814717" lon="13.96343"><ele>78.0</ele><time>2026-04-11T07:55:59.861Z</time></trkpt><trkpt lat="41.18153" lon="13.9634783"><ele>78.0</ele><time>2026-04-11T07:56:00.861Z</time></trkpt><trkpt lat="41.181595" lon="13.9635267"><ele>78.0</ele><time>2026-04-11T07:56:01.861Z</time></trkpt><trkpt lat="41.1816583" lon="13.963575"><ele>78.0</ele><time>2026-04-11T07:56:02.859Z</time></trkpt><trkpt lat="41.1817217" lon="13.963625"><ele>77.71428571428572</ele><time>2026-04-11T07:56:03.858Z</time></trkpt><trkpt lat="41.1817817" lon="13.9636783"><ele>77.42857142857142</ele><time>2026-04-11T07:56:04.861Z</time></trkpt><trkpt lat="41.18184" lon="13.963725"><ele>77.14285714285714</ele><time>2026-04-11T07:56:05.859Z</time></trkpt><trkpt lat="41.1818983" lon="13.9637667"><ele>76.85714285714286</ele><time>2026-04-11T07:56:06.859Z</time></trkpt><trkpt lat="41.1819617" lon="13.9638133"><ele>76.57142857142858</ele><time>2026-04-11T07:56:07.862Z</time></trkpt><trkpt lat="41.1820283" lon="13.9638533"><ele>76.28571428571428</ele><time>2026-04-11T07:56:08.862Z</time></trkpt><trkpt lat="41.1820967" lon="13.96389"><ele>76.0</ele><time>2026-04-11T07:56:09.861Z</time></trkpt><trkpt lat="41.1821617" lon="13.9639233"><ele>76.0</ele><time>2026-04-11T07:56:10.862Z</time></trkpt><trkpt lat="41.1822267" lon="13.963955"><ele>76.0</ele><time>2026-04-11T07:56:11.861Z</time></trkpt><trkpt lat="41.182295" lon="13.9639833"><ele>76.0</ele><time>2026-04-11T07:56:12.862Z</time></trkpt><trkpt lat="41.1823667" lon="13.964005"><ele>76.0</ele><time>2026-04-11T07:56:13.861Z</time></trkpt><trkpt lat="41.1824383" lon="13.9640167"><ele>76.0</ele><time>2026-04-11T07:56:14.862Z</time></trkpt><trkpt lat="41.1825083" lon="13.9640217"><ele>76.0</ele><time>2026-04-11T07:56:15.86Z</time></trkpt><trkpt lat="41.1825783" lon="13.9640267"><ele>76.0</ele><time>2026-04-11T07:56:16.86Z</time></trkpt><trkpt lat="41.18265" lon="13.96403"><ele>76.42857142857143</ele><time>2026-04-11T07:56:17.86Z</time></trkpt><trkpt lat="41.1827217" lon="13.9640233"><ele>76.85714285714286</ele><time>2026-04-11T07:56:18.861Z</time></trkpt><trkpt lat="41.1827933" lon="13.9640183"><ele>77.28571428571429</ele><time>2026-04-11T07:56:19.86Z</time></trkpt><trkpt lat="41.1828667" lon="13.964005"><ele>77.71428571428572</ele><time>2026-04-11T07:56:20.86Z</time></trkpt><trkpt lat="41.18294" lon="13.9639883"><ele>78.14285714285714</ele><time>2026-04-11T07:56:21.86Z</time></trkpt><trkpt lat="41.1830133" lon="13.9639733"><ele>78.57142857142858</ele><time>2026-04-11T07:56:22.859Z</time></trkpt><trkpt lat="41.1830867" lon="13.963965"><ele>79.0</ele><time>2026-04-11T07:56:23.859Z</time></trkpt><trkpt lat="41.1831583" lon="13.9639617"><ele>79.28571428571429</ele><time>2026-04-11T07:56:24.858Z</time></trkpt><trkpt lat="41.1832283" lon="13.9639633"><ele>79.57142857142857</ele><time>2026-04-11T07:56:25.862Z</time></trkpt><trkpt lat="41.1833" lon="13.9639633"><ele>79.85714285714286</ele><time>2026-04-11T07:56:26.86Z</time></trkpt><trkpt lat="41.1833717" lon="13.96396"><ele>80.14285714285714</ele><time>2026-04-11T07:56:27.86Z</time></trkpt><trkpt lat="41.1834417" lon="13.96395"><ele>80.42857142857143</ele><time>2026-04-11T07:56:28.86Z</time></trkpt><trkpt lat="41.1835067" lon="13.9639383"><ele>80.71428571428572</ele><time>2026-04-11T07:56:29.859Z</time></trkpt><trkpt lat="41.183575" lon="13.963925"><ele>81.0</ele><time>2026-04-11T07:56:30.859Z</time></trkpt><trkpt lat="41.18364" lon="13.9639183"><ele>81.0</ele><time>2026-04-11T07:56:31.859Z</time></trkpt><trkpt lat="41.1837067" lon="13.9639083"><ele>81.0</ele><time>2026-04-11T07:56:32.858Z</time></trkpt><trkpt lat="41.1837733" lon="13.96391"><ele>81.0</ele><time>2026-04-11T07:56:33.861Z</time></trkpt><trkpt lat="41.1838383" lon="13.9639117"><ele>81.0</ele><time>2026-04-11T07:56:34.862Z</time></trkpt><trkpt lat="41.18396" lon="13.9639"><ele>81.0</ele><time>2026-04-11T07:56:36.86Z</time></trkpt><trkpt lat="41.18408" lon="13.9638817"><ele>81.0</ele><time>2026-04-11T07:56:38.86Z</time></trkpt><trkpt lat="41.1841917" lon="13.9638733"><ele>81.25</ele><time>2026-04-11T07:56:40.859Z</time></trkpt><trkpt lat="41.1843067" lon="13.9638683"><ele>81.5</ele><time>2026-04-11T07:56:42.858Z</time></trkpt><trkpt lat="41.184425" lon="13.9638517"><ele>81.75</ele><time>2026-04-11T07:56:44.862Z</time></trkpt><trkpt lat="41.1845383" lon="13.96385"><ele>82.0</ele><time>2026-04-11T07:56:46.862Z</time></trkpt><trkpt lat="41.1846533" lon="13.9638517"><ele>82.0</ele><time>2026-04-11T07:56:48.862Z</time></trkpt><trkpt lat="41.1847667" lon="13.9638467"><ele>82.0</ele><time>2026-04-11T07:56:50.861Z</time></trkpt><trkpt lat="41.1848833" lon="13.9638417"><ele>82.0</ele><time>2026-04-11T07:56:52.862Z</time></trkpt><trkpt lat="41.1850033" lon="13.9638383"><ele>82.0</ele><time>2026-04-11T07:56:54.86Z</time></trkpt><trkpt lat="41.1851183" lon="13.9638317"><ele>82.5</ele><time>2026-04-11T07:56:56.86Z</time></trkpt><trkpt lat="41.18524" lon="13.963835"><ele>83.0</ele><time>2026-04-11T07:56:58.861Z</time></trkpt><trkpt lat="41.1853617" lon="13.96384"><ele>83.5</ele><time>2026-04-11T07:57:00.86Z</time></trkpt><trkpt lat="41.1854783" lon="13.9638383"><ele>84.0</ele><time>2026-04-11T07:57:02.86Z</time></trkpt><trkpt lat="41.1855933" lon="13.9638233"><ele>84.0</ele><time>2026-04-11T07:57:04.86Z</time></trkpt><trkpt lat="41.18571" lon="13.9638033"><ele>84.0</ele><time>2026-04-11T07:57:06.859Z</time></trkpt><trkpt lat="41.1858267" lon="13.9637767"><ele>84.0</ele><time>2026-04-11T07:57:08.857Z</time></trkpt><trkpt lat="41.1859483" lon="13.963755"><ele>84.0</ele><time>2026-04-11T07:57:10.86Z</time></trkpt><trkpt lat="41.1860633" lon="13.96375"><ele>84.0</ele><time>2026-04-11T07:57:12.862Z</time></trkpt><trkpt lat="41.1861767" lon="13.9637483"><ele>84.0</ele><time>2026-04-11T07:57:14.859Z</time></trkpt><trkpt lat="41.1862783" lon="13.9637417"><ele>84.0</ele><time>2026-04-11T07:57:16.857Z</time></trkpt><trkpt lat="41.1863733" lon="13.963725"><ele>84.0</ele><time>2026-04-11T07:57:18.858Z</time></trkpt><trkpt lat="41.1864617" lon="13.9637183"><ele>84.0</ele><time>2026-04-11T07:57:20.859Z</time></trkpt><trkpt lat="41.186545" lon="13.9637267"><ele>84.16666666666667</ele><time>2026-04-11T07:57:22.858Z</time></trkpt><trkpt lat="41.1866233" lon="13.9637167"><ele>84.33333333333333</ele><time>2026-04-11T07:57:24.86Z</time></trkpt><trkpt lat="41.1866983" lon="13.963715"><ele>84.5</ele><time>2026-04-11T07:57:26.859Z</time></trkpt><trkpt lat="41.18677" lon="13.96372"><ele>84.66666666666666</ele><time>2026-04-11T07:57:28.859Z</time></trkpt><trkpt lat="41.18685" lon="13.9636883"><ele>84.83333333333333</ele><time>2026-04-11T07:57:31.859Z</time></trkpt><trkpt lat="41.1869133" lon="13.963675"><ele>85.0</ele><time>2026-04-11T07:57:34.858Z</time></trkpt><trkpt lat="41.1870167" lon="13.963715"><ele>85.0</ele><time>2026-04-11T07:57:43.859Z</time></trkpt><trkpt lat="41.187085" lon="13.963705"><ele>85.0</ele><time>2026-04-11T07:57:46.858Z</time></trkpt><trkpt lat="41.187165" lon="13.9636967"><ele>85.0</ele><time>2026-04-11T07:57:49.86Z</time></trkpt><trkpt lat="41.1872483" lon="13.9636867"><ele>85.0</ele><time>2026-04-11T07:57:52.859Z</time></trkpt><trkpt lat="41.187325" lon="13.96365"><ele>85.0</ele><time>2026-04-11T07:57:55.858Z</time></trkpt><trkpt lat="41.187415" lon="13.96363"><ele>85.0</ele><time>2026-04-11T07:57:58.857Z</time></trkpt><trkpt lat="41.1874883" lon="13.9636233"><ele>85.2</ele><time>2026-04-11T07:58:00.857Z</time></trkpt><trkpt lat="41.18757" lon="13.9636283"><ele>85.4</ele><time>2026-04-11T07:58:02.858Z</time></trkpt><trkpt lat="41.1876583" lon="13.9636167"><ele>85.6</ele><time>2026-04-11T07:58:04.858Z</time></trkpt><trkpt lat="41.187745" lon="13.9635967"><ele>85.8</ele><time>2026-04-11T07:58:06.857Z</time></trkpt><trkpt lat="41.1878433" lon="13.963595"><ele>86.0</ele><time>2026-04-11T07:58:08.858Z</time></trkpt><trkpt lat="41.1879483" lon="13.9635983"><ele>86.0</ele><time>2026-04-11T07:58:10.86Z</time></trkpt><trkpt lat="41.1880517" lon="13.96359"><ele>86.0</ele><time>2026-04-11T07:58:12.86Z</time></trkpt><trkpt lat="41.1881633" lon="13.9635883"><ele>86.0</ele><time>2026-04-11T07:58:14.86Z</time></trkpt><trkpt lat="41.18827" lon="13.96358"><ele>86.0</ele><time>2026-04-11T07:58:16.857Z</time></trkpt><trkpt lat="41.1883783" lon="13.9635717"><ele>86.0</ele><time>2026-04-11T07:58:18.858Z</time></trkpt><trkpt lat="41.1884867" lon="13.9635617"><ele>86.19999999999999</ele><time>2026-04-11T07:58:20.859Z</time></trkpt><trkpt lat="41.1885933" lon="13.963555"><ele>86.39999999999999</ele><time>2026-04-11T07:58:22.858Z</time></trkpt><trkpt lat="41.1887067" lon="13.9635483"><ele>86.6</ele><time>2026-04-11T07:58:24.859Z</time></trkpt><trkpt lat="41.1888133" lon="13.9635433"><ele>86.8</ele><time>2026-04-11T07:58:26.86Z</time></trkpt><trkpt lat="41.1889133" lon="13.9635283"><ele>87.0</ele><time>2026-04-11T07:58:28.858Z</time></trkpt><trkpt lat="41.1890167" lon="13.9635217"><ele>87.39999999999999</ele><time>2026-04-11T07:58:30.857Z</time></trkpt><trkpt lat="41.1891183" lon="13.9635133"><ele>87.8</ele><time>2026-04-11T07:58:32.858Z</time></trkpt><trkpt lat="41.1892267" lon="13.9635067"><ele>88.2</ele><time>2026-04-11T07:58:34.861Z</time></trkpt><trkpt lat="41.1893367" lon="13.9635083"><ele>88.6</ele><time>2026-04-11T07:58:36.859Z</time></trkpt><trkpt lat="41.189435" lon="13.9635083"><ele>89.0</ele><time>2026-04-11T07:58:38.859Z</time></trkpt><trkpt lat="41.18953" lon="13.9635033"><ele>89.0</ele><time>2026-04-11T07:58:40.859Z</time></trkpt><trkpt lat="41.1896217" lon="13.9634917"><ele>89.0</ele><time>2026-04-11T07:58:42.857Z</time></trkpt><trkpt lat="41.18972" lon="13.9634833"><ele>89.0</ele><time>2026-04-11T07:58:44.858Z</time></trkpt><trkpt lat="41.1898217" lon="13.96347"><ele>89.0</ele><time>2026-04-11T07:58:46.858Z</time></trkpt><trkpt lat="41.1899183" lon="13.963455"><ele>89.0</ele><time>2026-04-11T07:58:48.858Z</time></trkpt><trkpt lat="41.190015" lon="13.9634367"><ele>89.2</ele><time>2026-04-11T07:58:50.857Z</time></trkpt><trkpt lat="41.1901183" lon="13.9634133"><ele>89.4</ele><time>2026-04-11T07:58:52.857Z</time></trkpt><trkpt lat="41.1902167" lon="13.9634067"><ele>89.6</ele><time>2026-04-11T07:58:54.86Z</time></trkpt><trkpt lat="41.1903233" lon="13.9633983"><ele>89.8</ele><time>2026-04-11T07:58:56.859Z</time></trkpt><trkpt lat="41.19043" lon="13.9633833"><ele>90.0</ele><time>2026-04-11T07:58:58.858Z</time></trkpt><trkpt lat="41.190535" lon="13.96338"><ele>90.0</ele><time>2026-04-11T07:59:00.858Z</time></trkpt><trkpt lat="41.1906367" lon="13.9633817"><ele>90.0</ele><time>2026-04-11T07:59:02.86Z</time></trkpt><trkpt lat="41.1907367" lon="13.96338"><ele>90.0</ele><time>2026-04-11T07:59:04.857Z</time></trkpt><trkpt lat="41.1908367" lon="13.9633767"><ele>90.0</ele><time>2026-04-11T07:59:06.86Z</time></trkpt><trkpt lat="41.1909367" lon="13.963365"><ele>90.0</ele><time>2026-04-11T07:59:08.859Z</time></trkpt><trkpt lat="41.1910367" lon="13.96335"><ele>91.0</ele><time>2026-04-11T07:59:10.857Z</time></trkpt><trkpt lat="41.19113" lon="13.963345"><ele>92.0</ele><time>2026-04-11T07:59:12.858Z</time></trkpt><trkpt lat="41.19122" lon="13.9633583"><ele>93.0</ele><time>2026-04-11T07:59:14.859Z</time></trkpt><trkpt lat="41.1913133" lon="13.9633483"><ele>94.0</ele><time>2026-04-11T07:59:16.857Z</time></trkpt><trkpt lat="41.1914033" lon="13.963345"><ele>95.0</ele><time>2026-04-11T07:59:18.86Z</time></trkpt><trkpt lat="41.1914967" lon="13.963345"><ele>95.4</ele><time>2026-04-11T07:59:20.859Z</time></trkpt><trkpt lat="41.1915883" lon="13.963345"><ele>95.8</ele><time>2026-04-11T07:59:22.86Z</time></trkpt><trkpt lat="41.1916783" lon="13.9633533"><ele>96.19999999999999</ele><time>2026-04-11T07:59:24.857Z</time></trkpt><trkpt lat="41.19178" lon="13.9633367"><ele>96.6</ele><time>2026-04-11T07:59:26.859Z</time></trkpt><trkpt lat="41.191875" lon="13.9633333"><ele>97.0</ele><time>2026-04-11T07:59:28.859Z</time></trkpt><trkpt lat="41.1919667" lon="13.96332"><ele>97.0</ele><time>2026-04-11T07:59:30.859Z</time></trkpt><trkpt lat="41.1920683" lon="13.963305"><ele>97.0</ele><time>2026-04-11T07:59:32.858Z</time></trkpt><trkpt lat="41.1921683" lon="13.9633033"><ele>97.0</ele><time>2026-04-11T07:59:34.859Z</time></trkpt><trkpt lat="41.192265" lon="13.9632933"><ele>97.0</ele><time>2026-04-11T07:59:36.859Z</time></trkpt><trkpt lat="41.1923567" lon="13.9632767"><ele>97.0</ele><time>2026-04-11T07:59:38.859Z</time></trkpt><trkpt lat="41.192445" lon="13.96327"><ele>98.0</ele><time>2026-04-11T07:59:40.858Z</time></trkpt><trkpt lat="41.1925417" lon="13.9632617"><ele>99.0</ele><time>2026-04-11T07:59:42.86Z</time></trkpt><trkpt lat="41.192635" lon="13.96326"><ele>100.0</ele><time>2026-04-11T07:59:44.86Z</time></trkpt><trkpt lat="41.1927417" lon="13.96326"><ele>101.0</ele><time>2026-04-11T07:59:46.863Z</time></trkpt><trkpt lat="41.1928383" lon="13.9632417"><ele>102.0</ele><time>2026-04-11T07:59:48.859Z</time></trkpt><trkpt lat="41.19294" lon="13.96324"><ele>102.0</ele><time>2026-04-11T07:59:50.86Z</time></trkpt><trkpt lat="41.1930333" lon="13.9632467"><ele>102.0</ele><time>2026-04-11T07:59:52.86Z</time></trkpt><trkpt lat="41.1931383" lon="13.9632317"><ele>102.0</ele><time>2026-04-11T07:59:54.862Z</time></trkpt><trkpt lat="41.1932383" lon="13.9632167"><ele>102.0</ele><time>2026-04-11T07:59:56.859Z</time></trkpt><trkpt lat="41.193325" lon="13.9632083"><ele>102.0</ele><time>2026-04-11T07:59:58.86Z</time></trkpt><trkpt lat="41.1934133" lon="13.9631817"><ele>102.8</ele><time>2026-04-11T08:00:00.858Z</time></trkpt><trkpt lat="41.193505" lon="13.9631567"><ele>103.6</ele><time>2026-04-11T08:00:02.859Z</time></trkpt><trkpt lat="41.193605" lon="13.9631467"><ele>104.39999999999999</ele><time>2026-04-11T08:00:04.858Z</time></trkpt><trkpt lat="41.1937183" lon="13.9631317"><ele>105.19999999999999</ele><time>2026-04-11T08:00:06.857Z</time></trkpt><trkpt lat="41.1938333" lon="13.963115"><ele>106.0</ele><time>2026-04-11T08:00:08.857Z</time></trkpt><trkpt lat="41.1939433" lon="13.96308"><ele>105.6</ele><time>2026-04-11T08:00:10.86Z</time></trkpt><trkpt lat="41.1940583" lon="13.9630433"><ele>105.19999999999999</ele><time>2026-04-11T08:00:12.859Z</time></trkpt><trkpt lat="41.1941833" lon="13.9630167"><ele>104.80000000000001</ele><time>2026-04-11T08:00:14.86Z</time></trkpt><trkpt lat="41.1943033" lon="13.9629833"><ele>104.4</ele><time>2026-04-11T08:00:16.859Z</time></trkpt><trkpt lat="41.194375" lon="13.9629633"><ele>104.0</ele><time>2026-04-11T08:00:17.86Z</time></trkpt><trkpt lat="41.1944467" lon="13.9629533"><ele>104.0</ele><time>2026-04-11T08:00:18.86Z</time></trkpt><trkpt lat="41.19456" lon="13.96294"><ele>104.0</ele><time>2026-04-11T08:00:20.86Z</time></trkpt><trkpt lat="41.19467" lon="13.96293"><ele>104.0</ele><time>2026-04-11T08:00:22.859Z</time></trkpt><trkpt lat="41.1947867" lon="13.96294"><ele>104.0</ele><time>2026-04-11T08:00:24.858Z</time></trkpt><trkpt lat="41.1948517" lon="13.962955"><ele>104.0</ele><time>2026-04-11T08:00:25.859Z</time></trkpt><trkpt lat="41.194915" lon="13.9629733"><ele>103.71428571428571</ele><time>2026-04-11T08:00:26.86Z</time></trkpt><trkpt lat="41.19498" lon="13.9629933"><ele>103.42857142857143</ele><time>2026-04-11T08:00:27.859Z</time></trkpt><trkpt lat="41.195045" lon="13.96301"><ele>103.14285714285714</ele><time>2026-04-11T08:00:28.859Z</time></trkpt><trkpt lat="41.1951167" lon="13.9630233"><ele>102.85714285714286</ele><time>2026-04-11T08:00:29.86Z</time></trkpt><trkpt lat="41.1951883" lon="13.96303"><ele>102.57142857142858</ele><time>2026-04-11T08:00:30.859Z</time></trkpt><trkpt lat="41.1952667" lon="13.9630417"><ele>102.28571428571429</ele><time>2026-04-11T08:00:31.859Z</time></trkpt><trkpt lat="41.19534" lon="13.9630483"><ele>102.0</ele><time>2026-04-11T08:00:32.86Z</time></trkpt><trkpt lat="41.1954083" lon="13.9630583"><ele>102.0</ele><time>2026-04-11T08:00:33.858Z</time></trkpt><trkpt lat="41.195525" lon="13.963085"><ele>102.0</ele><time>2026-04-11T08:00:35.86Z</time></trkpt><trkpt lat="41.1955883" lon="13.9630867"><ele>102.0</ele><time>2026-04-11T08:00:36.859Z</time></trkpt><trkpt lat="41.1956533" lon="13.9630817"><ele>102.0</ele><time>2026-04-11T08:00:37.86Z</time></trkpt><trkpt lat="41.1957283" lon="13.963075"><ele>102.0</ele><time>2026-04-11T08:00:38.86Z</time></trkpt><trkpt lat="41.1957967" lon="13.9630817"><ele>102.0</ele><time>2026-04-11T08:00:39.859Z</time></trkpt><trkpt lat="41.19587" lon="13.963085"><ele>101.28571428571429</ele><time>2026-04-11T08:00:40.859Z</time></trkpt><trkpt lat="41.1959433" lon="13.963095"><ele>100.57142857142858</ele><time>2026-04-11T08:00:41.86Z</time></trkpt><trkpt lat="41.1960167" lon="13.9631067"><ele>99.85714285714286</ele><time>2026-04-11T08:00:42.859Z</time></trkpt><trkpt lat="41.19609" lon="13.96311"><ele>99.14285714285714</ele><time>2026-04-11T08:00:43.859Z</time></trkpt><trkpt lat="41.1961667" lon="13.96311"><ele>98.42857142857143</ele><time>2026-04-11T08:00:44.86Z</time></trkpt><trkpt lat="41.1962417" lon="13.9631133"><ele>97.71428571428571</ele><time>2026-04-11T08:00:45.86Z</time></trkpt><trkpt lat="41.1963167" lon="13.96312"><ele>97.0</ele><time>2026-04-11T08:00:46.859Z</time></trkpt><trkpt lat="41.1963917" lon="13.96313"><ele>97.00000000000001</ele><time>2026-04-11T08:00:47.86Z</time></trkpt><trkpt lat="41.1964633" lon="13.96314"><ele>97.0</ele><time>2026-04-11T08:00:48.859Z</time></trkpt><trkpt lat="41.1965317" lon="13.9631483"><ele>97.0</ele><time>2026-04-11T08:00:49.859Z</time></trkpt><trkpt lat="41.1966" lon="13.96316"><ele>97.0</ele><time>2026-04-11T08:00:50.858Z</time></trkpt><trkpt lat="41.1966683" lon="13.963165"><ele>97.00000000000001</ele><time>2026-04-11T08:00:51.86Z</time></trkpt><trkpt lat="41.1967767" lon="13.9631733"><ele>97.0</ele><time>2026-04-11T08:00:53.86Z</time></trkpt><trkpt lat="41.1968767" lon="13.9631783"><ele>97.19999999999999</ele><time>2026-04-11T08:00:55.858Z</time></trkpt><trkpt lat="41.1969867" lon="13.9631883"><ele>97.4</ele><time>2026-04-11T08:00:57.858Z</time></trkpt><trkpt lat="41.1970917" lon="13.9632233"><ele>97.6</ele><time>2026-04-11T08:00:59.859Z</time></trkpt><trkpt lat="41.1971933" lon="13.9632667"><ele>97.80000000000001</ele><time>2026-04-11T08:01:01.859Z</time></trkpt><trkpt lat="41.1972833" lon="13.96334"><ele>98.0</ele><time>2026-04-11T08:01:03.859Z</time></trkpt><trkpt lat="41.19738" lon="13.96343"><ele>99.60000000000001</ele><time>2026-04-11T08:01:05.859Z</time></trkpt><trkpt lat="41.1974517" lon="13.9635467"><ele>101.2</ele><time>2026-04-11T08:01:07.859Z</time></trkpt><trkpt lat="41.197495" lon="13.9636783"><ele>102.8</ele><time>2026-04-11T08:01:09.859Z</time></trkpt><trkpt lat="41.1975133" lon="13.9638283"><ele>104.4</ele><time>2026-04-11T08:01:11.86Z</time></trkpt><trkpt lat="41.197515" lon="13.963915"><ele>106.0</ele><time>2026-04-11T08:01:12.86Z</time></trkpt><trkpt lat="41.197525" lon="13.964005"><ele>106.00000000000001</ele><time>2026-04-11T08:01:13.859Z</time></trkpt><trkpt lat="41.1975433" lon="13.9640867"><ele>106.0</ele><time>2026-04-11T08:01:14.859Z</time></trkpt><trkpt lat="41.1975667" lon="13.9641717"><ele>106.0</ele><time>2026-04-11T08:01:15.86Z</time></trkpt><trkpt lat="41.1975983" lon="13.9643233"><ele>106.0</ele><time>2026-04-11T08:01:17.86Z</time></trkpt><trkpt lat="41.1976217" lon="13.9644017"><ele>106.00000000000001</ele><time>2026-04-11T08:01:18.86Z</time></trkpt><trkpt lat="41.1976317" lon="13.9645367"><ele>106.0</ele><time>2026-04-11T08:01:20.859Z</time></trkpt><trkpt lat="41.1976817" lon="13.964655"><ele>105.75</ele><time>2026-04-11T08:01:22.86Z</time></trkpt><trkpt lat="41.1977483" lon="13.9647683"><ele>105.5</ele><time>2026-04-11T08:01:24.86Z</time></trkpt><trkpt lat="41.1978133" lon="13.9648933"><ele>105.25</ele><time>2026-04-11T08:01:26.86Z</time></trkpt><trkpt lat="41.1978867" lon="13.9650167"><ele>105.0</ele><time>2026-04-11T08:01:28.859Z</time></trkpt><trkpt lat="41.1979617" lon="13.965155"><ele>104.8</ele><time>2026-04-11T08:01:30.86Z</time></trkpt><trkpt lat="41.198" lon="13.9652267"><ele>104.6</ele><time>2026-04-11T08:01:31.859Z</time></trkpt><trkpt lat="41.19807" lon="13.965355"><ele>104.4</ele><time>2026-04-11T08:01:33.859Z</time></trkpt><trkpt lat="41.198145" lon="13.965485"><ele>104.2</ele><time>2026-04-11T08:01:35.86Z</time></trkpt><trkpt lat="41.1982233" lon="13.9656217"><ele>104.0</ele><time>2026-04-11T08:01:37.86Z</time></trkpt><trkpt lat="41.198265" lon="13.9656917"><ele>104.0</ele><time>2026-04-11T08:01:38.859Z</time></trkpt><trkpt lat="41.198305" lon="13.9657617"><ele>104.0</ele><time>2026-04-11T08:01:39.859Z</time></trkpt><trkpt lat="41.1983417" lon="13.965835"><ele>104.0</ele><time>2026-04-11T08:01:40.861Z</time></trkpt><trkpt lat="41.1983833" lon="13.9659083"><ele>104.0</ele><time>2026-04-11T08:01:41.859Z</time></trkpt><trkpt lat="41.1984233" lon="13.96598"><ele>104.0</ele><time>2026-04-11T08:01:42.861Z</time></trkpt><trkpt lat="41.1984667" lon="13.96605"><ele>104.0</ele><time>2026-04-11T08:01:43.861Z</time></trkpt><trkpt lat="41.1985117" lon="13.9661183"><ele>104.0</ele><time>2026-04-11T08:01:44.858Z</time></trkpt><trkpt lat="41.19856" lon="13.9661883"><ele>103.28571428571428</ele><time>2026-04-11T08:01:45.859Z</time></trkpt><trkpt lat="41.198605" lon="13.9662617"><ele>102.57142857142858</ele><time>2026-04-11T08:01:46.859Z</time></trkpt><trkpt lat="41.19865" lon="13.966335"><ele>101.85714285714286</ele><time>2026-04-11T08:01:47.859Z</time></trkpt><trkpt lat="41.1986917" lon="13.9664117"><ele>101.14285714285714</ele><time>2026-04-11T08:01:48.858Z</time></trkpt><trkpt lat="41.1987333" lon="13.9664883"><ele>100.42857142857142</ele><time>2026-04-11T08:01:49.86Z</time></trkpt><trkpt lat="41.19878" lon="13.96656"><ele>99.71428571428572</ele><time>2026-04-11T08:01:50.858Z</time></trkpt><trkpt lat="41.1988233" lon="13.96663"><ele>99.0</ele><time>2026-04-11T08:01:51.858Z</time></trkpt><trkpt lat="41.1988667" lon="13.9667"><ele>98.71428571428572</ele><time>2026-04-11T08:01:52.859Z</time></trkpt><trkpt lat="41.1989133" lon="13.96677"><ele>98.42857142857142</ele><time>2026-04-11T08:01:53.859Z</time></trkpt><trkpt lat="41.1989533" lon="13.9668433"><ele>98.14285714285714</ele><time>2026-04-11T08:01:54.859Z</time></trkpt><trkpt lat="41.1989933" lon="13.9669133"><ele>97.85714285714286</ele><time>2026-04-11T08:01:55.859Z</time></trkpt><trkpt lat="41.1990383" lon="13.966985"><ele>97.57142857142858</ele><time>2026-04-11T08:01:56.858Z</time></trkpt><trkpt lat="41.199085" lon="13.967055"><ele>97.28571428571428</ele><time>2026-04-11T08:01:57.857Z</time></trkpt><trkpt lat="41.199125" lon="13.9671283"><ele>97.0</ele><time>2026-04-11T08:01:58.86Z</time></trkpt><trkpt lat="41.199165" lon="13.967195"><ele>97.66666666666667</ele><time>2026-04-11T08:01:59.859Z</time></trkpt><trkpt lat="41.1992067" lon="13.96726"><ele>98.33333333333334</ele><time>2026-04-11T08:02:00.858Z</time></trkpt><trkpt lat="41.1992483" lon="13.967325"><ele>99.0</ele><time>2026-04-11T08:02:01.859Z</time></trkpt><trkpt lat="41.199285" lon="13.9673933"><ele>99.66666666666666</ele><time>2026-04-11T08:02:02.86Z</time></trkpt><trkpt lat="41.199325" lon="13.9674583"><ele>100.33333333333333</ele><time>2026-04-11T08:02:03.859Z</time></trkpt><trkpt lat="41.1994033" lon="13.9675833"><ele>101.0</ele><time>2026-04-11T08:02:05.86Z</time></trkpt><trkpt lat="41.1994833" lon="13.9677067"><ele>101.0</ele><time>2026-04-11T08:02:07.859Z</time></trkpt><trkpt lat="41.199555" lon="13.9678267"><ele>101.0</ele><time>2026-04-11T08:02:09.859Z</time></trkpt><trkpt lat="41.1996283" lon="13.9679467"><ele>101.0</ele><time>2026-04-11T08:02:11.859Z</time></trkpt><trkpt lat="41.1997067" lon="13.9680633"><ele>101.0</ele><time>2026-04-11T08:02:13.86Z</time></trkpt><trkpt lat="41.1997833" lon="13.968185"><ele>101.0</ele><time>2026-04-11T08:02:15.859Z</time></trkpt><trkpt lat="41.199825" lon="13.9682483"><ele>101.0</ele><time>2026-04-11T08:02:16.859Z</time></trkpt><trkpt lat="41.1998967" lon="13.9683767"><ele>101.0</ele><time>2026-04-11T08:02:18.859Z</time></trkpt><trkpt lat="41.1999633" lon="13.9685017"><ele>101.0</ele><time>2026-04-11T08:02:20.859Z</time></trkpt><trkpt lat="41.2000317" lon="13.9686267"><ele>101.0</ele><time>2026-04-11T08:02:22.859Z</time></trkpt><trkpt lat="41.2001083" lon="13.9687467"><ele>102.0</ele><time>2026-04-11T08:02:24.859Z</time></trkpt><trkpt lat="41.2001733" lon="13.9688733"><ele>103.0</ele><time>2026-04-11T08:02:26.859Z</time></trkpt><trkpt lat="41.2002333" lon="13.9690033"><ele>104.0</ele><time>2026-04-11T08:02:28.858Z</time></trkpt><trkpt lat="41.2003067" lon="13.9691233"><ele>105.0</ele><time>2026-04-11T08:02:30.857Z</time></trkpt><trkpt lat="41.2003783" lon="13.9692467"><ele>105.4</ele><time>2026-04-11T08:02:32.859Z</time></trkpt><trkpt lat="41.2004467" lon="13.9693617"><ele>105.8</ele><time>2026-04-11T08:02:34.86Z</time></trkpt><trkpt lat="41.2005133" lon="13.96947"><ele>106.19999999999999</ele><time>2026-04-11T08:02:36.859Z</time></trkpt><trkpt lat="41.2005767" lon="13.969585"><ele>106.6</ele><time>2026-04-11T08:02:38.86Z</time></trkpt><trkpt lat="41.2006467" lon="13.96969"><ele>107.0</ele><time>2026-04-11T08:02:40.859Z</time></trkpt><trkpt lat="41.2007233" lon="13.9698017"><ele>107.19999999999999</ele><time>2026-04-11T08:02:42.858Z</time></trkpt><trkpt lat="41.2008" lon="13.9699183"><ele>107.39999999999999</ele><time>2026-04-11T08:02:44.859Z</time></trkpt><trkpt lat="41.2008683" lon="13.970035"><ele>107.60000000000001</ele><time>2026-04-11T08:02:46.859Z</time></trkpt><trkpt lat="41.2009317" lon="13.9701517"><ele>107.80000000000001</ele><time>2026-04-11T08:02:48.859Z</time></trkpt><trkpt lat="41.20099" lon="13.9702617"><ele>108.0</ele><time>2026-04-11T08:02:50.86Z</time></trkpt><trkpt lat="41.201045" lon="13.970365"><ele>108.0</ele><time>2026-04-11T08:02:52.858Z</time></trkpt><trkpt lat="41.2011183" lon="13.9704283"><ele>108.00000000000001</ele><time>2026-04-11T08:02:54.861Z</time></trkpt><trkpt lat="41.2012183" lon="13.9704167"><ele>108.00000000000001</ele><time>2026-04-11T08:02:56.859Z</time></trkpt><trkpt lat="41.2013117" lon="13.9703867"><ele>108.0</ele><time>2026-04-11T08:02:58.859Z</time></trkpt><trkpt lat="41.2014033" lon="13.97035"><ele>108.0</ele><time>2026-04-11T08:03:00.857Z</time></trkpt><trkpt lat="41.2014883" lon="13.9703283"><ele>108.66666666666667</ele><time>2026-04-11T08:03:02.858Z</time></trkpt><trkpt lat="41.20157" lon="13.9703167"><ele>109.33333333333334</ele><time>2026-04-11T08:03:04.857Z</time></trkpt><trkpt lat="41.2016533" lon="13.9703083"><ele>110.0</ele><time>2026-04-11T08:03:06.857Z</time></trkpt><trkpt lat="41.201735" lon="13.9703267"><ele>110.66666666666667</ele><time>2026-04-11T08:03:08.857Z</time></trkpt><trkpt lat="41.20182" lon="13.9703483"><ele>111.33333333333334</ele><time>2026-04-11T08:03:10.858Z</time></trkpt><trkpt lat="41.2019033" lon="13.9703817"><ele>112.0</ele><time>2026-04-11T08:03:12.86Z</time></trkpt><trkpt lat="41.201985" lon="13.9704117"><ele>112.00000000000001</ele><time>2026-04-11T08:03:14.861Z</time></trkpt><trkpt lat="41.2020633" lon="13.9704517"><ele>112.0</ele><time>2026-04-11T08:03:16.859Z</time></trkpt><trkpt lat="41.2021383" lon="13.9705067"><ele>112.0</ele><time>2026-04-11T08:03:18.859Z</time></trkpt><trkpt lat="41.2022083" lon="13.9705533"><ele>112.0</ele><time>2026-04-11T08:03:20.858Z</time></trkpt><trkpt lat="41.2022817" lon="13.9705967"><ele>112.00000000000001</ele><time>2026-04-11T08:03:22.859Z</time></trkpt><trkpt lat="41.2023583" lon="13.9706383"><ele>112.0</ele><time>2026-04-11T08:03:24.859Z</time></trkpt><trkpt lat="41.2024333" lon="13.9706867"><ele>112.16666666666667</ele><time>2026-04-11T08:03:26.86Z</time></trkpt><trkpt lat="41.20251" lon="13.97075"><ele>112.33333333333334</ele><time>2026-04-11T08:03:28.859Z</time></trkpt><trkpt lat="41.2025933" lon="13.9707967"><ele>112.5</ele><time>2026-04-11T08:03:30.859Z</time></trkpt><trkpt lat="41.2026717" lon="13.970835"><ele>112.66666666666666</ele><time>2026-04-11T08:03:32.861Z</time></trkpt><trkpt lat="41.20275" lon="13.9708767"><ele>112.83333333333333</ele><time>2026-04-11T08:03:34.86Z</time></trkpt><trkpt lat="41.20283" lon="13.9709217"><ele>113.0</ele><time>2026-04-11T08:03:36.86Z</time></trkpt><trkpt lat="41.2029167" lon="13.9709783"><ele>113.0</ele><time>2026-04-11T08:03:38.86Z</time></trkpt><trkpt lat="41.2029983" lon="13.971025"><ele>113.00000000000001</ele><time>2026-04-11T08:03:40.86Z</time></trkpt><trkpt lat="41.2030883" lon="13.9710683"><ele>113.00000000000001</ele><time>2026-04-11T08:03:42.858Z</time></trkpt><trkpt lat="41.2031717" lon="13.9711183"><ele>113.0</ele><time>2026-04-11T08:03:44.861Z</time></trkpt><trkpt lat="41.2032583" lon="13.9711683"><ele>113.0</ele><time>2026-04-11T08:03:46.859Z</time></trkpt><trkpt lat="41.2033483" lon="13.9712133"><ele>113.2</ele><time>2026-04-11T08:03:48.859Z</time></trkpt><trkpt lat="41.2034383" lon="13.9712517"><ele>113.4</ele><time>2026-04-11T08:03:50.859Z</time></trkpt><trkpt lat="41.203535" lon="13.971275"><ele>113.60000000000001</ele><time>2026-04-11T08:03:52.857Z</time></trkpt><trkpt lat="41.2036233" lon="13.9713183"><ele>113.80000000000001</ele><time>2026-04-11T08:03:54.859Z</time></trkpt><trkpt lat="41.2037117" lon="13.9713683"><ele>114.0</ele><time>2026-04-11T08:03:56.858Z</time></trkpt><trkpt lat="41.2038" lon="13.97142"><ele>114.0</ele><time>2026-04-11T08:03:58.859Z</time></trkpt><trkpt lat="41.2038817" lon="13.9714833"><ele>114.0</ele><time>2026-04-11T08:04:00.86Z</time></trkpt><trkpt lat="41.20396" lon="13.9715317"><ele>114.0</ele><time>2026-04-11T08:04:02.858Z</time></trkpt><trkpt lat="41.2040433" lon="13.9715767"><ele>114.0</ele><time>2026-04-11T08:04:04.858Z</time></trkpt><trkpt lat="41.20413" lon="13.9716167"><ele>114.0</ele><time>2026-04-11T08:04:06.859Z</time></trkpt><trkpt lat="41.204215" lon="13.97166"><ele>113.6</ele><time>2026-04-11T08:04:08.858Z</time></trkpt><trkpt lat="41.2043033" lon="13.9716967"><ele>113.2</ele><time>2026-04-11T08:04:10.858Z</time></trkpt><trkpt lat="41.2043983" lon="13.9717233"><ele>112.79999999999998</ele><time>2026-04-11T08:04:12.861Z</time></trkpt><trkpt lat="41.20449" lon="13.9717433"><ele>112.39999999999999</ele><time>2026-04-11T08:04:14.86Z</time></trkpt><trkpt lat="41.2045783" lon="13.9717567"><ele>112.0</ele><time>2026-04-11T08:04:16.86Z</time></trkpt><trkpt lat="41.204665" lon="13.9717567"><ele>112.0</ele><time>2026-04-11T08:04:18.859Z</time></trkpt><trkpt lat="41.20476" lon="13.9717417"><ele>111.99999999999999</ele><time>2026-04-11T08:04:20.859Z</time></trkpt><trkpt lat="41.2048517" lon="13.9717183"><ele>111.99999999999999</ele><time>2026-04-11T08:04:22.858Z</time></trkpt><trkpt lat="41.204945" lon="13.97168"><ele>112.0</ele><time>2026-04-11T08:04:24.859Z</time></trkpt><trkpt lat="41.2050417" lon="13.97164"><ele>112.0</ele><time>2026-04-11T08:04:26.858Z</time></trkpt><trkpt lat="41.2051367" lon="13.9716067"><ele>113.6</ele><time>2026-04-11T08:04:28.86Z</time></trkpt><trkpt lat="41.20523" lon="13.9715533"><ele>115.19999999999999</ele><time>2026-04-11T08:04:30.858Z</time></trkpt><trkpt lat="41.2053233" lon="13.971505"><ele>116.8</ele><time>2026-04-11T08:04:32.859Z</time></trkpt><trkpt lat="41.2054217" lon="13.9714583"><ele>118.4</ele><time>2026-04-11T08:04:34.857Z</time></trkpt><trkpt lat="41.2055133" lon="13.971415"><ele>120.0</ele><time>2026-04-11T08:04:36.859Z</time></trkpt><trkpt lat="41.2056033" lon="13.97136"><ele>120.2</ele><time>2026-04-11T08:04:38.859Z</time></trkpt><trkpt lat="41.2056917" lon="13.9713"><ele>120.4</ele><time>2026-04-11T08:04:40.858Z</time></trkpt><trkpt lat="41.2057767" lon="13.971245"><ele>120.6</ele><time>2026-04-11T08:04:42.858Z</time></trkpt><trkpt lat="41.20587" lon="13.9712017"><ele>120.8</ele><time>2026-04-11T08:04:44.86Z</time></trkpt><trkpt lat="41.2059633" lon="13.9711617"><ele>121.0</ele><time>2026-04-11T08:04:46.858Z</time></trkpt><trkpt lat="41.206055" lon="13.9711133"><ele>121.0</ele><time>2026-04-11T08:04:48.859Z</time></trkpt><trkpt lat="41.206145" lon="13.9710767"><ele>121.0</ele><time>2026-04-11T08:04:50.859Z</time></trkpt><trkpt lat="41.20624" lon="13.9710317"><ele>121.0</ele><time>2026-04-11T08:04:52.858Z</time></trkpt><trkpt lat="41.2063367" lon="13.970975"><ele>121.0</ele><time>2026-04-11T08:04:54.859Z</time></trkpt><trkpt lat="41.2064333" lon="13.9709267"><ele>121.0</ele><time>2026-04-11T08:04:56.858Z</time></trkpt><trkpt lat="41.206525" lon="13.970885"><ele>122.0</ele><time>2026-04-11T08:04:58.859Z</time></trkpt><trkpt lat="41.2066167" lon="13.9708433"><ele>123.0</ele><time>2026-04-11T08:05:00.859Z</time></trkpt><trkpt lat="41.2067117" lon="13.97079"><ele>124.0</ele><time>2026-04-11T08:05:02.858Z</time></trkpt><trkpt lat="41.206805" lon="13.9707483"><ele>125.0</ele><time>2026-04-11T08:05:04.858Z</time></trkpt><trkpt lat="41.2068983" lon="13.9707033"><ele>126.0</ele><time>2026-04-11T08:05:06.86Z</time></trkpt><trkpt lat="41.20699" lon="13.970665"><ele>126.0</ele><time>2026-04-11T08:05:08.857Z</time></trkpt><trkpt lat="41.2070883" lon="13.9706217"><ele>126.0</ele><time>2026-04-11T08:05:10.861Z</time></trkpt><trkpt lat="41.2071783" lon="13.970585"><ele>126.0</ele><time>2026-04-11T08:05:12.858Z</time></trkpt><trkpt lat="41.2072767" lon="13.9705417"><ele>126.0</ele><time>2026-04-11T08:05:14.859Z</time></trkpt><trkpt lat="41.207375" lon="13.9704883"><ele>126.0</ele><time>2026-04-11T08:05:16.858Z</time></trkpt><trkpt lat="41.2074683" lon="13.970435"><ele>126.0</ele><time>2026-04-11T08:05:18.859Z</time></trkpt><trkpt lat="41.2075633" lon="13.9703767"><ele>126.0</ele><time>2026-04-11T08:05:20.86Z</time></trkpt><trkpt lat="41.207665" lon="13.9703167"><ele>126.0</ele><time>2026-04-11T08:05:22.858Z</time></trkpt><trkpt lat="41.2077433" lon="13.9702633"><ele>126.0</ele><time>2026-04-11T08:05:24.857Z</time></trkpt><trkpt lat="41.20783" lon="13.9701967"><ele>126.0</ele><time>2026-04-11T08:05:26.859Z</time></trkpt><trkpt lat="41.2079217" lon="13.97012"><ele>126.0</ele><time>2026-04-11T08:05:28.857Z</time></trkpt><trkpt lat="41.2080017" lon="13.97004"><ele>126.0</ele><time>2026-04-11T08:05:30.86Z</time></trkpt><trkpt lat="41.208075" lon="13.9699533"><ele>126.0</ele><time>2026-04-11T08:05:32.859Z</time></trkpt><trkpt lat="41.208135" lon="13.9698733"><ele>126.0</ele><time>2026-04-11T08:05:34.861Z</time></trkpt><trkpt lat="41.2082083" lon="13.9697817"><ele>126.0</ele><time>2026-04-11T08:05:36.861Z</time></trkpt><trkpt lat="41.2082667" lon="13.9696833"><ele>126.6</ele><time>2026-04-11T08:05:38.861Z</time></trkpt><trkpt lat="41.208325" lon="13.96958"><ele>127.19999999999999</ele><time>2026-04-11T08:05:40.857Z</time></trkpt><trkpt lat="41.208375" lon="13.96947"><ele>127.80000000000001</ele><time>2026-04-11T08:05:42.859Z</time></trkpt><trkpt lat="41.2084217" lon="13.9693567"><ele>128.4</ele><time>2026-04-11T08:05:44.858Z</time></trkpt><trkpt lat="41.2084633" lon="13.9692467"><ele>129.0</ele><time>2026-04-11T08:05:46.858Z</time></trkpt><trkpt lat="41.208505" lon="13.969135"><ele>130.6</ele><time>2026-04-11T08:05:48.86Z</time></trkpt><trkpt lat="41.2085333" lon="13.9690167"><ele>132.2</ele><time>2026-04-11T08:05:50.858Z</time></trkpt><trkpt lat="41.2085683" lon="13.968905"><ele>133.79999999999998</ele><time>2026-04-11T08:05:52.858Z</time></trkpt><trkpt lat="41.2086017" lon="13.9687983"><ele>135.4</ele><time>2026-04-11T08:05:54.858Z</time></trkpt><trkpt lat="41.2086417" lon="13.9686933"><ele>137.0</ele><time>2026-04-11T08:05:56.859Z</time></trkpt><trkpt lat="41.20868" lon="13.968585"><ele>137.0</ele><time>2026-04-11T08:05:58.86Z</time></trkpt><trkpt lat="41.2087283" lon="13.968485"><ele>137.0</ele><time>2026-04-11T08:06:00.861Z</time></trkpt><trkpt lat="41.208785" lon="13.9683917"><ele>137.0</ele><time>2026-04-11T08:06:02.859Z</time></trkpt><trkpt lat="41.2088433" lon="13.9682967"><ele>137.0</ele><time>2026-04-11T08:06:04.857Z</time></trkpt><trkpt lat="41.2089067" lon="13.968215"><ele>137.0</ele><time>2026-04-11T08:06:06.858Z</time></trkpt><trkpt lat="41.2089733" lon="13.9681383"><ele>137.0</ele><time>2026-04-11T08:06:08.859Z</time></trkpt><trkpt lat="41.2090517" lon="13.9680617"><ele>136.33333333333331</ele><time>2026-04-11T08:06:10.859Z</time></trkpt><trkpt lat="41.2091283" lon="13.9679933"><ele>135.66666666666666</ele><time>2026-04-11T08:06:12.859Z</time></trkpt><trkpt lat="41.2092067" lon="13.9679367"><ele>135.0</ele><time>2026-04-11T08:06:14.859Z</time></trkpt><trkpt lat="41.2092867" lon="13.9678833"><ele>134.33333333333334</ele><time>2026-04-11T08:06:16.858Z</time></trkpt><trkpt lat="41.2093683" lon="13.9678217"><ele>133.66666666666669</ele><time>2026-04-11T08:06:18.858Z</time></trkpt><trkpt lat="41.2094333" lon="13.96776"><ele>133.0</ele><time>2026-04-11T08:06:20.859Z</time></trkpt><trkpt lat="41.2094867" lon="13.967695"><ele>133.0</ele><time>2026-04-11T08:06:22.86Z</time></trkpt><trkpt lat="41.2095667" lon="13.967665"><ele>133.0</ele><time>2026-04-11T08:06:25.86Z</time></trkpt><trkpt lat="41.2096333" lon="13.96765"><ele>133.0</ele><time>2026-04-11T08:06:27.859Z</time></trkpt><trkpt lat="41.2096983" lon="13.9676033"><ele>133.0</ele><time>2026-04-11T08:06:29.86Z</time></trkpt><trkpt lat="41.2097617" lon="13.9675283"><ele>133.0</ele><time>2026-04-11T08:06:31.86Z</time></trkpt><trkpt lat="41.2098167" lon="13.9674383"><ele>133.0</ele><time>2026-04-11T08:06:33.861Z</time></trkpt><trkpt lat="41.2098667" lon="13.967345"><ele>133.83333333333334</ele><time>2026-04-11T08:06:35.861Z</time></trkpt><trkpt lat="41.2099183" lon="13.9672467"><ele>134.66666666666669</ele><time>2026-04-11T08:06:37.861Z</time></trkpt><trkpt lat="41.2099717" lon="13.9671567"><ele>135.5</ele><time>2026-04-11T08:06:39.857Z</time></trkpt><trkpt lat="41.2100217" lon="13.96706"><ele>136.33333333333334</ele><time>2026-04-11T08:06:41.86Z</time></trkpt><trkpt lat="41.2100633" lon="13.96696"><ele>137.16666666666666</ele><time>2026-04-11T08:06:43.86Z</time></trkpt><trkpt lat="41.21012" lon="13.966865"><ele>138.0</ele><time>2026-04-11T08:06:45.859Z</time></trkpt><trkpt lat="41.2101833" lon="13.9667867"><ele>138.0</ele><time>2026-04-11T08:06:47.861Z</time></trkpt><trkpt lat="41.2102417" lon="13.9666983"><ele>138.0</ele><time>2026-04-11T08:06:49.859Z</time></trkpt><trkpt lat="41.2103033" lon="13.9666067"><ele>138.0</ele><time>2026-04-11T08:06:51.858Z</time></trkpt><trkpt lat="41.2103633" lon="13.9665217"><ele>138.0</ele><time>2026-04-11T08:06:53.858Z</time></trkpt><trkpt lat="41.21044" lon="13.9664483"><ele>138.0</ele><time>2026-04-11T08:06:55.86Z</time></trkpt><trkpt lat="41.2105167" lon="13.966385"><ele>138.66666666666666</ele><time>2026-04-11T08:06:57.858Z</time></trkpt><trkpt lat="41.2105983" lon="13.96634"><ele>139.33333333333334</ele><time>2026-04-11T08:06:59.858Z</time></trkpt><trkpt lat="41.2106783" lon="13.966305"><ele>140.0</ele><time>2026-04-11T08:07:01.86Z</time></trkpt><trkpt lat="41.21076" lon="13.9662867"><ele>140.66666666666669</ele><time>2026-04-11T08:07:03.859Z</time></trkpt><trkpt lat="41.2108467" lon="13.9662717"><ele>141.33333333333334</ele><time>2026-04-11T08:07:05.861Z</time></trkpt><trkpt lat="41.210935" lon="13.9662567"><ele>142.0</ele><time>2026-04-11T08:07:07.858Z</time></trkpt><trkpt lat="41.2110233" lon="13.9662567"><ele>142.0</ele><time>2026-04-11T08:07:09.858Z</time></trkpt><trkpt lat="41.21111" lon="13.966265"><ele>142.0</ele><time>2026-04-11T08:07:11.859Z</time></trkpt><trkpt lat="41.2111933" lon="13.96628"><ele>142.0</ele><time>2026-04-11T08:07:13.859Z</time></trkpt><trkpt lat="41.2112733" lon="13.9663083"><ele>142.0</ele><time>2026-04-11T08:07:15.86Z</time></trkpt><trkpt lat="41.2113517" lon="13.9663417"><ele>142.0</ele><time>2026-04-11T08:07:17.859Z</time></trkpt><trkpt lat="41.21142" lon="13.9663867"><ele>142.0</ele><time>2026-04-11T08:07:19.859Z</time></trkpt><trkpt lat="41.211485" lon="13.9664533"><ele>143.33333333333334</ele><time>2026-04-11T08:07:21.859Z</time></trkpt><trkpt lat="41.2115483" lon="13.96654"><ele>144.66666666666669</ele><time>2026-04-11T08:07:23.86Z</time></trkpt><trkpt lat="41.21158" lon="13.9666517"><ele>146.0</ele><time>2026-04-11T08:07:25.859Z</time></trkpt><trkpt lat="41.2115967" lon="13.966765"><ele>147.33333333333334</ele><time>2026-04-11T08:07:27.858Z</time></trkpt><trkpt lat="41.2115917" lon="13.9668717"><ele>148.66666666666666</ele><time>2026-04-11T08:07:29.859Z</time></trkpt><trkpt lat="41.2115583" lon="13.9669683"><ele>150.0</ele><time>2026-04-11T08:07:31.86Z</time></trkpt><trkpt lat="41.21151" lon="13.9670567"><ele>148.83333333333334</ele><time>2026-04-11T08:07:33.859Z</time></trkpt><trkpt lat="41.2114683" lon="13.9671417"><ele>147.66666666666666</ele><time>2026-04-11T08:07:35.86Z</time></trkpt><trkpt lat="41.2114283" lon="13.9672383"><ele>146.5</ele><time>2026-04-11T08:07:37.858Z</time></trkpt><trkpt lat="41.2114067" lon="13.9673483"><ele>145.33333333333331</ele><time>2026-04-11T08:07:39.858Z</time></trkpt><trkpt lat="41.2114133" lon="13.96746"><ele>144.16666666666666</ele><time>2026-04-11T08:07:41.856Z</time></trkpt><trkpt lat="41.2114517" lon="13.9675617"><ele>143.0</ele><time>2026-04-11T08:07:43.862Z</time></trkpt><trkpt lat="41.2115183" lon="13.9676517"><ele>143.0</ele><time>2026-04-11T08:07:45.858Z</time></trkpt><trkpt lat="41.2115983" lon="13.9677133"><ele>143.0</ele><time>2026-04-11T08:07:47.86Z</time></trkpt><trkpt lat="41.2116833" lon="13.9677667"><ele>143.0</ele><time>2026-04-11T08:07:49.862Z</time></trkpt><trkpt lat="41.211765" lon="13.96783"><ele>143.0</ele><time>2026-04-11T08:07:51.858Z</time></trkpt><trkpt lat="41.2118467" lon="13.9678667"><ele>143.0</ele><time>2026-04-11T08:07:53.859Z</time></trkpt><trkpt lat="41.21193" lon="13.9679017"><ele>143.0</ele><time>2026-04-11T08:07:55.857Z</time></trkpt><trkpt lat="41.2120133" lon="13.967925"><ele>143.0</ele><time>2026-04-11T08:07:57.859Z</time></trkpt><trkpt lat="41.2120933" lon="13.9679333"><ele>143.0</ele><time>2026-04-11T08:07:59.86Z</time></trkpt><trkpt lat="41.2121817" lon="13.96792"><ele>143.0</ele><time>2026-04-11T08:08:01.859Z</time></trkpt><trkpt lat="41.2122767" lon="13.967905"><ele>143.0</ele><time>2026-04-11T08:08:03.859Z</time></trkpt><trkpt lat="41.2123817" lon="13.9678633"><ele>144.20000000000002</ele><time>2026-04-11T08:08:05.859Z</time></trkpt><trkpt lat="41.2124733" lon="13.967785"><ele>145.4</ele><time>2026-04-11T08:08:07.86Z</time></trkpt><trkpt lat="41.21255" lon="13.9677017"><ele>146.60000000000002</ele><time>2026-04-11T08:08:09.862Z</time></trkpt><trkpt lat="41.2126167" lon="13.9676033"><ele>147.8</ele><time>2026-04-11T08:08:11.86Z</time></trkpt><trkpt lat="41.2126817" lon="13.9674933"><ele>149.0</ele><time>2026-04-11T08:08:13.859Z</time></trkpt><trkpt lat="41.2127483" lon="13.9673867"><ele>150.6</ele><time>2026-04-11T08:08:15.862Z</time></trkpt><trkpt lat="41.21281" lon="13.96728"><ele>152.2</ele><time>2026-04-11T08:08:17.858Z</time></trkpt><trkpt lat="41.2128617" lon="13.9671767"><ele>153.79999999999998</ele><time>2026-04-11T08:08:19.861Z</time></trkpt><trkpt lat="41.2129133" lon="13.96708"><ele>155.4</ele><time>2026-04-11T08:08:21.859Z</time></trkpt><trkpt lat="41.2129733" lon="13.9669933"><ele>157.0</ele><time>2026-04-11T08:08:23.862Z</time></trkpt><trkpt lat="41.2130367" lon="13.966915"><ele>157.0</ele><time>2026-04-11T08:08:25.86Z</time></trkpt><trkpt lat="41.2131" lon="13.9668567"><ele>157.0</ele><time>2026-04-11T08:08:27.858Z</time></trkpt><trkpt lat="41.21318" lon="13.9668033"><ele>157.0</ele><time>2026-04-11T08:08:29.859Z</time></trkpt><trkpt lat="41.21326" lon="13.96676"><ele>157.0</ele><time>2026-04-11T08:08:31.86Z</time></trkpt><trkpt lat="41.213345" lon="13.9667117"><ele>157.0</ele><time>2026-04-11T08:08:33.858Z</time></trkpt><trkpt lat="41.2134433" lon="13.966675"><ele>157.0</ele><time>2026-04-11T08:08:35.86Z</time></trkpt><trkpt lat="41.2135367" lon="13.9666583"><ele>157.4</ele><time>2026-04-11T08:08:37.86Z</time></trkpt><trkpt lat="41.213625" lon="13.9666683"><ele>157.79999999999998</ele><time>2026-04-11T08:08:39.858Z</time></trkpt><trkpt lat="41.213715" lon="13.9667"><ele>158.2</ele><time>2026-04-11T08:08:41.861Z</time></trkpt><trkpt lat="41.2138033" lon="13.9667333"><ele>158.6</ele><time>2026-04-11T08:08:43.857Z</time></trkpt><trkpt lat="41.213885" lon="13.9667817"><ele>159.0</ele><time>2026-04-11T08:08:45.861Z</time></trkpt><trkpt lat="41.2139633" lon="13.966835"><ele>159.0</ele><time>2026-04-11T08:08:47.858Z</time></trkpt><trkpt lat="41.2140417" lon="13.9668983"><ele>159.0</ele><time>2026-04-11T08:08:49.861Z</time></trkpt><trkpt lat="41.21412" lon="13.966965"><ele>159.0</ele><time>2026-04-11T08:08:51.858Z</time></trkpt><trkpt lat="41.2142" lon="13.96703"><ele>159.0</ele><time>2026-04-11T08:08:53.86Z</time></trkpt><trkpt lat="41.2142783" lon="13.9671033"><ele>159.0</ele><time>2026-04-11T08:08:55.861Z</time></trkpt><trkpt lat="41.2143617" lon="13.9671567"><ele>159.0</ele><time>2026-04-11T08:08:57.858Z</time></trkpt><trkpt lat="41.2144467" lon="13.967215"><ele>159.0</ele><time>2026-04-11T08:08:59.859Z</time></trkpt><trkpt lat="41.2145333" lon="13.9672733"><ele>159.0</ele><time>2026-04-11T08:09:01.862Z</time></trkpt><trkpt lat="41.214615" lon="13.9673367"><ele>159.0</ele><time>2026-04-11T08:09:03.86Z</time></trkpt><trkpt lat="41.2147017" lon="13.967405"><ele>159.0</ele><time>2026-04-11T08:09:05.861Z</time></trkpt><trkpt lat="41.2147883" lon="13.9674667"><ele>159.0</ele><time>2026-04-11T08:09:07.861Z</time></trkpt><trkpt lat="41.2148733" lon="13.9675333"><ele>159.0</ele><time>2026-04-11T08:09:09.861Z</time></trkpt><trkpt lat="41.2149583" lon="13.9676"><ele>159.0</ele><time>2026-04-11T08:09:11.862Z</time></trkpt><trkpt lat="41.2150433" lon="13.9676733"><ele>159.0</ele><time>2026-04-11T08:09:13.862Z</time></trkpt><trkpt lat="41.2151317" lon="13.9677433"><ele>159.0</ele><time>2026-04-11T08:09:15.858Z</time></trkpt><trkpt lat="41.2152167" lon="13.96782"><ele>159.0</ele><time>2026-04-11T08:09:17.861Z</time></trkpt><trkpt lat="41.2152983" lon="13.9678933"><ele>159.0</ele><time>2026-04-11T08:09:19.86Z</time></trkpt><trkpt lat="41.21538" lon="13.96798"><ele>159.0</ele><time>2026-04-11T08:09:21.86Z</time></trkpt><trkpt lat="41.2154517" lon="13.96808"><ele>159.0</ele><time>2026-04-11T08:09:23.862Z</time></trkpt><trkpt lat="41.2155267" lon="13.9681817"><ele>159.0</ele><time>2026-04-11T08:09:25.859Z</time></trkpt><trkpt lat="41.21559" lon="13.968285"><ele>160.0</ele><time>2026-04-11T08:09:27.858Z</time></trkpt><trkpt lat="41.2156567" lon="13.9683917"><ele>161.0</ele><time>2026-04-11T08:09:29.86Z</time></trkpt><trkpt lat="41.2157117" lon="13.9685067"><ele>162.0</ele><time>2026-04-11T08:09:31.859Z</time></trkpt><trkpt lat="41.2157617" lon="13.96862"><ele>163.0</ele><time>2026-04-11T08:09:33.857Z</time></trkpt><trkpt lat="41.2158167" lon="13.9687283"><ele>164.0</ele><time>2026-04-11T08:09:35.859Z</time></trkpt><trkpt lat="41.215875" lon="13.9688317"><ele>164.0</ele><time>2026-04-11T08:09:37.859Z</time></trkpt><trkpt lat="41.2159433" lon="13.9689317"><ele>164.0</ele><time>2026-04-11T08:09:39.859Z</time></trkpt><trkpt lat="41.216025" lon="13.969"><ele>164.0</ele><time>2026-04-11T08:09:41.861Z</time></trkpt><trkpt lat="41.2161083" lon="13.9690567"><ele>164.0</ele><time>2026-04-11T08:09:43.859Z</time></trkpt><trkpt lat="41.216195" lon="13.969115"><ele>164.0</ele><time>2026-04-11T08:09:45.858Z</time></trkpt><trkpt lat="41.2162833" lon="13.9691533"><ele>164.0</ele><time>2026-04-11T08:09:47.858Z</time></trkpt><trkpt lat="41.21638" lon="13.969175"><ele>164.0</ele><time>2026-04-11T08:09:49.86Z</time></trkpt><trkpt lat="41.2164783" lon="13.9691767"><ele>164.0</ele><time>2026-04-11T08:09:51.858Z</time></trkpt><trkpt lat="41.21657" lon="13.969165"><ele>164.0</ele><time>2026-04-11T08:09:53.857Z</time></trkpt><trkpt lat="41.2166633" lon="13.9691333"><ele>164.0</ele><time>2026-04-11T08:09:55.86Z</time></trkpt><trkpt lat="41.216755" lon="13.9690917"><ele>165.2</ele><time>2026-04-11T08:09:57.861Z</time></trkpt><trkpt lat="41.2168433" lon="13.9690417"><ele>166.39999999999998</ele><time>2026-04-11T08:09:59.858Z</time></trkpt><trkpt lat="41.2169267" lon="13.9689867"><ele>167.6</ele><time>2026-04-11T08:10:01.86Z</time></trkpt><trkpt lat="41.2170167" lon="13.968945"><ele>168.8</ele><time>2026-04-11T08:10:03.859Z</time></trkpt><trkpt lat="41.2171217" lon="13.968925"><ele>170.0</ele><time>2026-04-11T08:10:05.862Z</time></trkpt><trkpt lat="41.2172283" lon="13.9689183"><ele>170.4</ele><time>2026-04-11T08:10:07.86Z</time></trkpt><trkpt lat="41.21733" lon="13.9689367"><ele>170.8</ele><time>2026-04-11T08:10:09.859Z</time></trkpt><trkpt lat="41.2174217" lon="13.9689533"><ele>171.2</ele><time>2026-04-11T08:10:11.858Z</time></trkpt><trkpt lat="41.217515" lon="13.9689517"><ele>171.6</ele><time>2026-04-11T08:10:13.861Z</time></trkpt><trkpt lat="41.2176083" lon="13.9689317"><ele>172.0</ele><time>2026-04-11T08:10:15.86Z</time></trkpt><trkpt lat="41.2177033" lon="13.9689083"><ele>172.0</ele><time>2026-04-11T08:10:17.862Z</time></trkpt><trkpt lat="41.2178017" lon="13.968875"><ele>172.0</ele><time>2026-04-11T08:10:19.861Z</time></trkpt><trkpt lat="41.2179033" lon="13.9688567"><ele>172.0</ele><time>2026-04-11T08:10:21.858Z</time></trkpt><trkpt lat="41.2180067" lon="13.968835"><ele>172.0</ele><time>2026-04-11T08:10:23.859Z</time></trkpt><trkpt lat="41.2181017" lon="13.9688167"><ele>172.0</ele><time>2026-04-11T08:10:25.861Z</time></trkpt><trkpt lat="41.2181933" lon="13.9687867"><ele>173.0</ele><time>2026-04-11T08:10:27.858Z</time></trkpt><trkpt lat="41.2182883" lon="13.9687633"><ele>174.0</ele><time>2026-04-11T08:10:29.859Z</time></trkpt><trkpt lat="41.2183817" lon="13.9687533"><ele>175.0</ele><time>2026-04-11T08:10:31.862Z</time></trkpt><trkpt lat="41.2184733" lon="13.96876"><ele>176.0</ele><time>2026-04-11T08:10:33.861Z</time></trkpt><trkpt lat="41.218565" lon="13.968785"><ele>177.0</ele><time>2026-04-11T08:10:35.859Z</time></trkpt><trkpt lat="41.21865" lon="13.968835"><ele>177.0</ele><time>2026-04-11T08:10:37.86Z</time></trkpt><trkpt lat="41.218725" lon="13.9688917"><ele>177.0</ele><time>2026-04-11T08:10:39.861Z</time></trkpt><trkpt lat="41.2188017" lon="13.9689633"><ele>177.0</ele><time>2026-04-11T08:10:41.858Z</time></trkpt><trkpt lat="41.2188583" lon="13.9690617"><ele>177.0</ele><time>2026-04-11T08:10:43.859Z</time></trkpt><trkpt lat="41.2188983" lon="13.9691633"><ele>177.0</ele><time>2026-04-11T08:10:45.857Z</time></trkpt><trkpt lat="41.218915" lon="13.9692817"><ele>176.33333333333334</ele><time>2026-04-11T08:10:47.859Z</time></trkpt><trkpt lat="41.2189117" lon="13.9693983"><ele>175.66666666666666</ele><time>2026-04-11T08:10:49.861Z</time></trkpt><trkpt lat="41.2188933" lon="13.969505"><ele>175.0</ele><time>2026-04-11T08:10:51.858Z</time></trkpt><trkpt lat="41.2188633" lon="13.9696083"><ele>174.33333333333331</ele><time>2026-04-11T08:10:53.862Z</time></trkpt><trkpt lat="41.218825" lon="13.9697067"><ele>173.66666666666666</ele><time>2026-04-11T08:10:55.859Z</time></trkpt><trkpt lat="41.2187933" lon="13.969805"><ele>173.0</ele><time>2026-04-11T08:10:57.861Z</time></trkpt><trkpt lat="41.2187717" lon="13.9699133"><ele>173.0</ele><time>2026-04-11T08:10:59.859Z</time></trkpt><trkpt lat="41.2187717" lon="13.9700317"><ele>173.0</ele><time>2026-04-11T08:11:01.86Z</time></trkpt><trkpt lat="41.218805" lon="13.970145"><ele>173.0</ele><time>2026-04-11T08:11:03.857Z</time></trkpt><trkpt lat="41.2188617" lon="13.970245"><ele>173.0</ele><time>2026-04-11T08:11:05.861Z</time></trkpt><trkpt lat="41.2189367" lon="13.970305"><ele>173.0</ele><time>2026-04-11T08:11:07.86Z</time></trkpt><trkpt lat="41.2190233" lon="13.9703417"><ele>173.0</ele><time>2026-04-11T08:11:09.856Z</time></trkpt><trkpt lat="41.21911" lon="13.9703617"><ele>173.0</ele><time>2026-04-11T08:11:11.861Z</time></trkpt><trkpt lat="41.2192" lon="13.9703717"><ele>173.0</ele><time>2026-04-11T08:11:13.86Z</time></trkpt><trkpt lat="41.2192883" lon="13.97039"><ele>173.0</ele><time>2026-04-11T08:11:15.86Z</time></trkpt><trkpt lat="41.219375" lon="13.9704117"><ele>173.0</ele><time>2026-04-11T08:11:17.86Z</time></trkpt><trkpt lat="41.2194617" lon="13.970445"><ele>173.0</ele><time>2026-04-11T08:11:19.858Z</time></trkpt><trkpt lat="41.2195417" lon="13.970495"><ele>173.0</ele><time>2026-04-11T08:11:21.859Z</time></trkpt><trkpt lat="41.2196183" lon="13.9705483"><ele>173.0</ele><time>2026-04-11T08:11:23.862Z</time></trkpt><trkpt lat="41.2196983" lon="13.9706017"><ele>173.0</ele><time>2026-04-11T08:11:25.86Z</time></trkpt><trkpt lat="41.2197733" lon="13.97065"><ele>173.0</ele><time>2026-04-11T08:11:27.857Z</time></trkpt><trkpt lat="41.2198483" lon="13.9707017"><ele>173.0</ele><time>2026-04-11T08:11:29.857Z</time></trkpt><trkpt lat="41.2199217" lon="13.97075"><ele>173.0</ele><time>2026-04-11T08:11:31.862Z</time></trkpt><trkpt lat="41.22" lon="13.970805"><ele>173.4</ele><time>2026-04-11T08:11:33.857Z</time></trkpt><trkpt lat="41.2200817" lon="13.9708567"><ele>173.8</ele><time>2026-04-11T08:11:35.861Z</time></trkpt><trkpt lat="41.220165" lon="13.9709067"><ele>174.2</ele><time>2026-04-11T08:11:37.861Z</time></trkpt><trkpt lat="41.220255" lon="13.9709633"><ele>174.6</ele><time>2026-04-11T08:11:39.858Z</time></trkpt><trkpt lat="41.2203433" lon="13.971025"><ele>175.0</ele><time>2026-04-11T08:11:41.861Z</time></trkpt><trkpt lat="41.220435" lon="13.97108"><ele>175.0</ele><time>2026-04-11T08:11:43.862Z</time></trkpt><trkpt lat="41.22052" lon="13.9711417"><ele>175.0</ele><time>2026-04-11T08:11:45.859Z</time></trkpt><trkpt lat="41.220605" lon="13.9712"><ele>175.0</ele><time>2026-04-11T08:11:47.859Z</time></trkpt><trkpt lat="41.220685" lon="13.9712583"><ele>175.0</ele><time>2026-04-11T08:11:49.86Z</time></trkpt><trkpt lat="41.22076" lon="13.97132"><ele>175.0</ele><time>2026-04-11T08:11:51.858Z</time></trkpt><trkpt lat="41.2208383" lon="13.9713667"><ele>177.4</ele><time>2026-04-11T08:11:53.859Z</time></trkpt><trkpt lat="41.2209217" lon="13.971415"><ele>179.8</ele><time>2026-04-11T08:11:55.86Z</time></trkpt><trkpt lat="41.2210133" lon="13.9714667"><ele>182.2</ele><time>2026-04-11T08:11:57.858Z</time></trkpt><trkpt lat="41.2211033" lon="13.9715333"><ele>184.6</ele><time>2026-04-11T08:11:59.86Z</time></trkpt><trkpt lat="41.22119" lon="13.9715983"><ele>187.0</ele><time>2026-04-11T08:12:01.862Z</time></trkpt><trkpt lat="41.2212733" lon="13.97166"><ele>187.8</ele><time>2026-04-11T08:12:03.861Z</time></trkpt><trkpt lat="41.2213533" lon="13.9717317"><ele>188.6</ele><time>2026-04-11T08:12:05.859Z</time></trkpt><trkpt lat="41.22142" lon="13.9718"><ele>189.4</ele><time>2026-04-11T08:12:07.86Z</time></trkpt><trkpt lat="41.22149" lon="13.9718733"><ele>190.20000000000002</ele><time>2026-04-11T08:12:09.858Z</time></trkpt><trkpt lat="41.2215567" lon="13.9719567"><ele>191.0</ele><time>2026-04-11T08:12:11.86Z</time></trkpt><trkpt lat="41.2216217" lon="13.9720383"><ele>192.33333333333331</ele><time>2026-04-11T08:12:13.862Z</time></trkpt><trkpt lat="41.2216867" lon="13.97212"><ele>193.66666666666666</ele><time>2026-04-11T08:12:15.859Z</time></trkpt><trkpt lat="41.2217483" lon="13.9722033"><ele>195.0</ele><time>2026-04-11T08:12:17.86Z</time></trkpt><trkpt lat="41.2218117" lon="13.9722783"><ele>196.33333333333331</ele><time>2026-04-11T08:12:19.858Z</time></trkpt><trkpt lat="41.22187" lon="13.9723533"><ele>197.66666666666666</ele><time>2026-04-11T08:12:21.859Z</time></trkpt><trkpt lat="41.22193" lon="13.972425"><ele>199.0</ele><time>2026-04-11T08:12:23.862Z</time></trkpt><trkpt lat="41.221995" lon="13.9725"><ele>199.99999999999997</ele><time>2026-04-11T08:12:25.86Z</time></trkpt><trkpt lat="41.2220567" lon="13.9725783"><ele>201.0</ele><time>2026-04-11T08:12:27.86Z</time></trkpt><trkpt lat="41.2221133" lon="13.9726567"><ele>202.0</ele><time>2026-04-11T08:12:29.86Z</time></trkpt><trkpt lat="41.222175" lon="13.9727383"><ele>203.0</ele><time>2026-04-11T08:12:31.86Z</time></trkpt><trkpt lat="41.22224" lon="13.9728133"><ele>203.99999999999997</ele><time>2026-04-11T08:12:33.858Z</time></trkpt><trkpt lat="41.2223133" lon="13.972885"><ele>205.0</ele><time>2026-04-11T08:12:35.86Z</time></trkpt><trkpt lat="41.2223817" lon="13.9729583"><ele>204.99999999999997</ele><time>2026-04-11T08:12:37.859Z</time></trkpt><trkpt lat="41.22245" lon="13.9730367"><ele>205.0</ele><time>2026-04-11T08:12:39.86Z</time></trkpt><trkpt lat="41.2225233" lon="13.9731117"><ele>205.0</ele><time>2026-04-11T08:12:41.86Z</time></trkpt><trkpt lat="41.222595" lon="13.9731833"><ele>205.0</ele><time>2026-04-11T08:12:43.858Z</time></trkpt><trkpt lat="41.2226683" lon="13.97325"><ele>204.99999999999997</ele><time>2026-04-11T08:12:45.86Z</time></trkpt><trkpt lat="41.22274" lon="13.9733067"><ele>205.0</ele><time>2026-04-11T08:12:47.858Z</time></trkpt><trkpt lat="41.2228167" lon="13.9733617"><ele>205.0</ele><time>2026-04-11T08:12:49.86Z</time></trkpt><trkpt lat="41.222905" lon="13.9734133"><ele>205.0</ele><time>2026-04-11T08:12:51.857Z</time></trkpt><trkpt lat="41.2229917" lon="13.9734567"><ele>205.0</ele><time>2026-04-11T08:12:53.858Z</time></trkpt><trkpt lat="41.2230767" lon="13.9735"><ele>205.0</ele><time>2026-04-11T08:12:55.859Z</time></trkpt><trkpt lat="41.223165" lon="13.9735333"><ele>205.0</ele><time>2026-04-11T08:12:57.859Z</time></trkpt><trkpt lat="41.2232567" lon="13.9735567"><ele>203.4</ele><time>2026-04-11T08:12:59.86Z</time></trkpt><trkpt lat="41.2233467" lon="13.9735817"><ele>201.8</ele><time>2026-04-11T08:13:01.859Z</time></trkpt><trkpt lat="41.2234467" lon="13.9736117"><ele>200.2</ele><time>2026-04-11T08:13:03.859Z</time></trkpt><trkpt lat="41.2235433" lon="13.97363"><ele>198.6</ele><time>2026-04-11T08:13:05.862Z</time></trkpt><trkpt lat="41.22364" lon="13.973645"><ele>197.0</ele><time>2026-04-11T08:13:07.857Z</time></trkpt><trkpt lat="41.22373" lon="13.9736467"><ele>197.0</ele><time>2026-04-11T08:13:09.859Z</time></trkpt><trkpt lat="41.2238167" lon="13.973635"><ele>197.0</ele><time>2026-04-11T08:13:11.858Z</time></trkpt><trkpt lat="41.22391" lon="13.9736083"><ele>197.0</ele><time>2026-04-11T08:13:13.859Z</time></trkpt><trkpt lat="41.22401" lon="13.9735567"><ele>197.0</ele><time>2026-04-11T08:13:15.858Z</time></trkpt><trkpt lat="41.224105" lon="13.9734967"><ele>197.0</ele><time>2026-04-11T08:13:17.858Z</time></trkpt><trkpt lat="41.224195" lon="13.9734317"><ele>197.0</ele><time>2026-04-11T08:13:19.861Z</time></trkpt><trkpt lat="41.2242783" lon="13.9733633"><ele>197.0</ele><time>2026-04-11T08:13:21.858Z</time></trkpt><trkpt lat="41.2243567" lon="13.9732883"><ele>197.0</ele><time>2026-04-11T08:13:23.859Z</time></trkpt><trkpt lat="41.224435" lon="13.9732033"><ele>197.0</ele><time>2026-04-11T08:13:25.86Z</time></trkpt><trkpt lat="41.22451" lon="13.973115"><ele>197.0</ele><time>2026-04-11T08:13:27.858Z</time></trkpt><trkpt lat="41.2245767" lon="13.9730283"><ele>197.2</ele><time>2026-04-11T08:13:29.86Z</time></trkpt><trkpt lat="41.224645" lon="13.9729417"><ele>197.39999999999998</ele><time>2026-04-11T08:13:31.862Z</time></trkpt><trkpt lat="41.2247167" lon="13.9728533"><ele>197.60000000000002</ele><time>2026-04-11T08:13:33.857Z</time></trkpt><trkpt lat="41.22478" lon="13.9727467"><ele>197.8</ele><time>2026-04-11T08:13:35.859Z</time></trkpt><trkpt lat="41.224835" lon="13.9726333"><ele>198.0</ele><time>2026-04-11T08:13:37.859Z</time></trkpt><trkpt lat="41.2248817" lon="13.9725133"><ele>199.60000000000002</ele><time>2026-04-11T08:13:39.862Z</time></trkpt><trkpt lat="41.2249233" lon="13.9723883"><ele>201.20000000000002</ele><time>2026-04-11T08:13:41.86Z</time></trkpt><trkpt lat="41.224955" lon="13.9722633"><ele>202.8</ele><time>2026-04-11T08:13:43.862Z</time></trkpt><trkpt lat="41.224975" lon="13.97214"><ele>204.4</ele><time>2026-04-11T08:13:45.858Z</time></trkpt><trkpt lat="41.225" lon="13.972015"><ele>206.0</ele><time>2026-04-11T08:13:47.858Z</time></trkpt><trkpt lat="41.2250217" lon="13.9718867"><ele>206.0</ele><time>2026-04-11T08:13:49.862Z</time></trkpt><trkpt lat="41.225045" lon="13.9717567"><ele>206.0</ele><time>2026-04-11T08:13:51.858Z</time></trkpt><trkpt lat="41.225075" lon="13.971635"><ele>206.0</ele><time>2026-04-11T08:13:53.861Z</time></trkpt><trkpt lat="41.2251017" lon="13.9715167"><ele>206.0</ele><time>2026-04-11T08:13:55.86Z</time></trkpt><trkpt lat="41.2251267" lon="13.9714"><ele>206.0</ele><time>2026-04-11T08:13:57.859Z</time></trkpt><trkpt lat="41.2251583" lon="13.9712817"><ele>207.8</ele><time>2026-04-11T08:13:59.86Z</time></trkpt><trkpt lat="41.22519" lon="13.9711667"><ele>209.60000000000002</ele><time>2026-04-11T08:14:01.862Z</time></trkpt><trkpt lat="41.225235" lon="13.971055"><ele>211.4</ele><time>2026-04-11T08:14:03.858Z</time></trkpt><trkpt lat="41.225295" lon="13.97096"><ele>213.2</ele><time>2026-04-11T08:14:05.861Z</time></trkpt><trkpt lat="41.2253833" lon="13.97088"><ele>215.0</ele><time>2026-04-11T08:14:07.86Z</time></trkpt><trkpt lat="41.22548" lon="13.9708333"><ele>215.4</ele><time>2026-04-11T08:14:09.858Z</time></trkpt><trkpt lat="41.22558" lon="13.9708233"><ele>215.8</ele><time>2026-04-11T08:14:11.86Z</time></trkpt><trkpt lat="41.225675" lon="13.97086"><ele>216.2</ele><time>2026-04-11T08:14:13.859Z</time></trkpt><trkpt lat="41.22576" lon="13.9709283"><ele>216.6</ele><time>2026-04-11T08:14:15.861Z</time></trkpt><trkpt lat="41.2258367" lon="13.9710117"><ele>217.0</ele><time>2026-04-11T08:14:17.863Z</time></trkpt><trkpt lat="41.2259067" lon="13.9711067"><ele>216.16666666666666</ele><time>2026-04-11T08:14:19.859Z</time></trkpt><trkpt lat="41.2259633" lon="13.9711967"><ele>215.33333333333331</ele><time>2026-04-11T08:14:21.859Z</time></trkpt><trkpt lat="41.22602" lon="13.9712717"><ele>214.5</ele><time>2026-04-11T08:14:23.86Z</time></trkpt><trkpt lat="41.2260683" lon="13.971355"><ele>213.66666666666669</ele><time>2026-04-11T08:14:25.858Z</time></trkpt><trkpt lat="41.2261267" lon="13.97144"><ele>212.83333333333334</ele><time>2026-04-11T08:14:27.86Z</time></trkpt><trkpt lat="41.2261783" lon="13.971525"><ele>212.0</ele><time>2026-04-11T08:14:29.86Z</time></trkpt><trkpt lat="41.2262417" lon="13.9716317"><ele>211.8</ele><time>2026-04-11T08:14:31.86Z</time></trkpt><trkpt lat="41.226305" lon="13.9717367"><ele>211.6</ele><time>2026-04-11T08:14:33.86Z</time></trkpt><trkpt lat="41.226355" lon="13.9718533"><ele>211.4</ele><time>2026-04-11T08:14:35.86Z</time></trkpt><trkpt lat="41.2263683" lon="13.972"><ele>211.20000000000002</ele><time>2026-04-11T08:14:37.861Z</time></trkpt><trkpt lat="41.226345" lon="13.9721367"><ele>211.0</ele><time>2026-04-11T08:14:39.858Z</time></trkpt><trkpt lat="41.2262967" lon="13.97225"><ele>210.99999999999997</ele><time>2026-04-11T08:14:41.859Z</time></trkpt><trkpt lat="41.2262383" lon="13.9723433"><ele>211.0</ele><time>2026-04-11T08:14:43.86Z</time></trkpt><trkpt lat="41.2261883" lon="13.9724317"><ele>211.0</ele><time>2026-04-11T08:14:45.862Z</time></trkpt><trkpt lat="41.2261417" lon="13.972525"><ele>211.0</ele><time>2026-04-11T08:14:47.86Z</time></trkpt><trkpt lat="41.2261067" lon="13.9726267"><ele>210.99999999999997</ele><time>2026-04-11T08:14:49.859Z</time></trkpt><trkpt lat="41.2260967" lon="13.9727317"><ele>211.0</ele><time>2026-04-11T08:14:51.859Z</time></trkpt><trkpt lat="41.226125" lon="13.972825"><ele>211.83333333333331</ele><time>2026-04-11T08:14:53.858Z</time></trkpt><trkpt lat="41.226185" lon="13.972885"><ele>212.66666666666666</ele><time>2026-04-11T08:14:55.86Z</time></trkpt><trkpt lat="41.2262483" lon="13.9729367"><ele>213.5</ele><time>2026-04-11T08:14:57.859Z</time></trkpt><trkpt lat="41.22632" lon="13.9729783"><ele>214.33333333333331</ele><time>2026-04-11T08:14:59.86Z</time></trkpt><trkpt lat="41.2263983" lon="13.973015"><ele>215.16666666666666</ele><time>2026-04-11T08:15:01.858Z</time></trkpt><trkpt lat="41.2264817" lon="13.9730467"><ele>216.0</ele><time>2026-04-11T08:15:03.858Z</time></trkpt><trkpt lat="41.2265717" lon="13.9730683"><ele>216.0</ele><time>2026-04-11T08:15:05.859Z</time></trkpt><trkpt lat="41.2266667" lon="13.97309"><ele>216.00000000000003</ele><time>2026-04-11T08:15:07.858Z</time></trkpt><trkpt lat="41.22676" lon="13.9731017"><ele>216.00000000000003</ele><time>2026-04-11T08:15:09.857Z</time></trkpt><trkpt lat="41.2268533" lon="13.9731033"><ele>216.0</ele><time>2026-04-11T08:15:11.86Z</time></trkpt><trkpt lat="41.2269467" lon="13.9730933"><ele>216.0</ele><time>2026-04-11T08:15:13.861Z</time></trkpt><trkpt lat="41.2270367" lon="13.9730667"><ele>216.0</ele><time>2026-04-11T08:15:15.858Z</time></trkpt><trkpt lat="41.2271183" lon="13.9730267"><ele>216.00000000000003</ele><time>2026-04-11T08:15:17.86Z</time></trkpt><trkpt lat="41.2272367" lon="13.9729817"><ele>216.00000000000003</ele><time>2026-04-11T08:15:19.858Z</time></trkpt><trkpt lat="41.2273383" lon="13.9729217"><ele>216.0</ele><time>2026-04-11T08:15:21.858Z</time></trkpt><trkpt lat="41.2274267" lon="13.9728633"><ele>216.0</ele><time>2026-04-11T08:15:23.86Z</time></trkpt><trkpt lat="41.2275183" lon="13.9728117"><ele>215.0</ele><time>2026-04-11T08:15:25.859Z</time></trkpt><trkpt lat="41.2276117" lon="13.9727383"><ele>214.00000000000003</ele><time>2026-04-11T08:15:27.859Z</time></trkpt><trkpt lat="41.2277067" lon="13.97265"><ele>213.0</ele><time>2026-04-11T08:15:29.859Z</time></trkpt><trkpt lat="41.2277983" lon="13.9725733"><ele>212.0</ele><time>2026-04-11T08:15:31.859Z</time></trkpt><trkpt lat="41.2278883" lon="13.9724883"><ele>211.0</ele><time>2026-04-11T08:15:33.859Z</time></trkpt><trkpt lat="41.2279817" lon="13.9724067"><ele>211.8</ele><time>2026-04-11T08:15:35.86Z</time></trkpt><trkpt lat="41.228075" lon="13.97233"><ele>212.60000000000002</ele><time>2026-04-11T08:15:37.86Z</time></trkpt><trkpt lat="41.2281683" lon="13.9722633"><ele>213.4</ele><time>2026-04-11T08:15:39.858Z</time></trkpt><trkpt lat="41.22827" lon="13.9722167"><ele>214.2</ele><time>2026-04-11T08:15:41.858Z</time></trkpt><trkpt lat="41.2283833" lon="13.9721867"><ele>215.0</ele><time>2026-04-11T08:15:43.862Z</time></trkpt><trkpt lat="41.2284967" lon="13.97218"><ele>215.0</ele><time>2026-04-11T08:15:45.858Z</time></trkpt><trkpt lat="41.2286117" lon="13.9721833"><ele>215.0</ele><time>2026-04-11T08:15:47.858Z</time></trkpt><trkpt lat="41.2287283" lon="13.9721967"><ele>215.0</ele><time>2026-04-11T08:15:49.858Z</time></trkpt><trkpt lat="41.2288383" lon="13.9722233"><ele>215.0</ele><time>2026-04-11T08:15:51.858Z</time></trkpt><trkpt lat="41.2289483" lon="13.9722633"><ele>216.5</ele><time>2026-04-11T08:15:53.858Z</time></trkpt><trkpt lat="41.229055" lon="13.972315"><ele>218.0</ele><time>2026-04-11T08:15:55.859Z</time></trkpt><trkpt lat="41.229155" lon="13.9723833"><ele>219.5</ele><time>2026-04-11T08:15:57.86Z</time></trkpt><trkpt lat="41.22925" lon="13.9724617"><ele>221.0</ele><time>2026-04-11T08:15:59.862Z</time></trkpt><trkpt lat="41.2293533" lon="13.972545"><ele>218.0</ele><time>2026-04-11T08:16:01.859Z</time></trkpt><trkpt lat="41.2294583" lon="13.9726183"><ele>215.0</ele><time>2026-04-11T08:16:03.86Z</time></trkpt><trkpt lat="41.2295667" lon="13.9726833"><ele>212.0</ele><time>2026-04-11T08:16:05.859Z</time></trkpt><trkpt lat="41.22968" lon="13.9727433"><ele>209.0</ele><time>2026-04-11T08:16:07.86Z</time></trkpt><trkpt lat="41.229795" lon="13.9727717"><ele>209.39999999999998</ele><time>2026-04-11T08:16:09.859Z</time></trkpt><trkpt lat="41.2299217" lon="13.97275"><ele>209.8</ele><time>2026-04-11T08:16:11.859Z</time></trkpt><trkpt lat="41.2299817" lon="13.9727233"><ele>210.2</ele><time>2026-04-11T08:16:12.857Z</time></trkpt><trkpt lat="41.2300933" lon="13.97266"><ele>210.60000000000002</ele><time>2026-04-11T08:16:14.858Z</time></trkpt><trkpt lat="41.2301967" lon="13.9725767"><ele>211.0</ele><time>2026-04-11T08:16:16.859Z</time></trkpt><trkpt lat="41.2302483" lon="13.972525"><ele>214.5</ele><time>2026-04-11T08:16:17.859Z</time></trkpt><trkpt lat="41.23034" lon="13.9724133"><ele>218.0</ele><time>2026-04-11T08:16:19.859Z</time></trkpt><trkpt lat="41.2304233" lon="13.97229"><ele>221.5</ele><time>2026-04-11T08:16:21.857Z</time></trkpt><trkpt lat="41.2304917" lon="13.972155"><ele>225.0</ele><time>2026-04-11T08:16:23.857Z</time></trkpt><trkpt lat="41.2305517" lon="13.9720083"><ele>225.0</ele><time>2026-04-11T08:16:25.859Z</time></trkpt><trkpt lat="41.2305833" lon="13.9719333"><ele>225.0</ele><time>2026-04-11T08:16:26.857Z</time></trkpt><trkpt lat="41.2306117" lon="13.9718567"><ele>225.0</ele><time>2026-04-11T08:16:27.857Z</time></trkpt><trkpt lat="41.2306367" lon="13.9717783"><ele>225.0</ele><time>2026-04-11T08:16:28.859Z</time></trkpt><trkpt lat="41.23068" lon="13.9716367"><ele>225.0</ele><time>2026-04-11T08:16:30.857Z</time></trkpt><trkpt lat="41.2307233" lon="13.971505"><ele>225.0</ele><time>2026-04-11T08:16:32.858Z</time></trkpt><trkpt lat="41.230755" lon="13.9713767"><ele>225.66666666666666</ele><time>2026-04-11T08:16:34.857Z</time></trkpt><trkpt lat="41.230785" lon="13.9712583"><ele>226.33333333333331</ele><time>2026-04-11T08:16:36.859Z</time></trkpt><trkpt lat="41.2308267" lon="13.971155"><ele>227.0</ele><time>2026-04-11T08:16:38.857Z</time></trkpt><trkpt lat="41.23087" lon="13.971055"><ele>227.66666666666666</ele><time>2026-04-11T08:16:40.859Z</time></trkpt><trkpt lat="41.230895" lon="13.9709483"><ele>228.33333333333331</ele><time>2026-04-11T08:16:42.862Z</time></trkpt><trkpt lat="41.23092" lon="13.97083"><ele>229.0</ele><time>2026-04-11T08:16:44.859Z</time></trkpt><trkpt lat="41.2309417" lon="13.9706967"><ele>229.0</ele><time>2026-04-11T08:16:46.859Z</time></trkpt><trkpt lat="41.2309417" lon="13.9705567"><ele>229.0</ele><time>2026-04-11T08:16:48.858Z</time></trkpt><trkpt lat="41.2309383" lon="13.9704067"><ele>229.0</ele><time>2026-04-11T08:16:50.858Z</time></trkpt><trkpt lat="41.23094" lon="13.9702483"><ele>229.0</ele><time>2026-04-11T08:16:52.859Z</time></trkpt><trkpt lat="41.23095" lon="13.9700867"><ele>228.0</ele><time>2026-04-11T08:16:54.859Z</time></trkpt><trkpt lat="41.2309417" lon="13.9699183"><ele>226.99999999999997</ele><time>2026-04-11T08:16:56.859Z</time></trkpt><trkpt lat="41.230935" lon="13.9698317"><ele>225.99999999999997</ele><time>2026-04-11T08:16:57.859Z</time></trkpt><trkpt lat="41.2309333" lon="13.969675"><ele>225.0</ele><time>2026-04-11T08:16:59.859Z</time></trkpt><trkpt lat="41.2309117" lon="13.9695583"><ele>224.0</ele><time>2026-04-11T08:17:01.859Z</time></trkpt><trkpt lat="41.2309233" lon="13.9694667"><ele>224.0</ele><time>2026-04-11T08:17:03.859Z</time></trkpt><trkpt lat="41.230955" lon="13.9693867"><ele>224.0</ele><time>2026-04-11T08:17:06.859Z</time></trkpt><trkpt lat="41.2309583" lon="13.9692483"><ele>224.0</ele><time>2026-04-11T08:20:52.858Z</time></trkpt><trkpt lat="41.231015" lon="13.969205"><ele>224.0</ele><time>2026-04-11T08:20:56.859Z</time></trkpt><trkpt lat="41.2310133" lon="13.9692917"><ele>224.0</ele><time>2026-04-11T08:21:00.858Z</time></trkpt><trkpt lat="41.2309517" lon="13.9693117"><ele>224.0</ele><time>2026-04-11T08:21:03.857Z</time></trkpt><trkpt lat="41.2309933" lon="13.9693833"><ele>224.0</ele><time>2026-04-11T08:21:09.858Z</time></trkpt><trkpt lat="41.23106" lon="13.969355"><ele>224.00000000000003</ele><time>2026-04-11T08:21:11.858Z</time></trkpt><trkpt lat="41.2311333" lon="13.9693017"><ele>224.0</ele><time>2026-04-11T08:21:13.859Z</time></trkpt><trkpt lat="41.2312083" lon="13.969255"><ele>224.0</ele><time>2026-04-11T08:21:15.859Z</time></trkpt><trkpt lat="41.23128" lon="13.969205"><ele>224.0</ele><time>2026-04-11T08:21:17.859Z</time></trkpt><trkpt lat="41.2313517" lon="13.9691467"><ele>224.00000000000003</ele><time>2026-04-11T08:21:19.859Z</time></trkpt><trkpt lat="41.23143" lon="13.9690817"><ele>224.0</ele><time>2026-04-11T08:21:21.859Z</time></trkpt><trkpt lat="41.2315217" lon="13.969045"><ele>223.16666666666669</ele><time>2026-04-11T08:21:23.859Z</time></trkpt><trkpt lat="41.2316067" lon="13.9690417"><ele>222.33333333333334</ele><time>2026-04-11T08:21:25.858Z</time></trkpt><trkpt lat="41.2316783" lon="13.9690417"><ele>221.5</ele><time>2026-04-11T08:21:27.86Z</time></trkpt><trkpt lat="41.2317483" lon="13.969045"><ele>220.66666666666669</ele><time>2026-04-11T08:21:29.86Z</time></trkpt><trkpt lat="41.2318117" lon="13.969035"><ele>219.83333333333334</ele><time>2026-04-11T08:21:31.866Z</time></trkpt><trkpt lat="41.2319033" lon="13.9690233"><ele>219.0</ele><time>2026-04-11T08:21:34.856Z</time></trkpt><trkpt lat="41.231985" lon="13.9690067"><ele>219.0</ele><time>2026-04-11T08:21:38.857Z</time></trkpt><trkpt lat="41.2320583" lon="13.9689733"><ele>219.0</ele><time>2026-04-11T08:21:41.857Z</time></trkpt><trkpt lat="41.2321233" lon="13.9689283"><ele>219.0</ele><time>2026-04-11T08:21:44.857Z</time></trkpt><trkpt lat="41.23218" lon="13.9688883"><ele>219.0</ele><time>2026-04-11T08:21:47.857Z</time></trkpt><trkpt lat="41.2322633" lon="13.968865"><ele>219.0</ele><time>2026-04-11T08:21:50.857Z</time></trkpt><trkpt lat="41.2323367" lon="13.96884"><ele>219.0</ele><time>2026-04-11T08:21:52.857Z</time></trkpt><trkpt lat="41.2324283" lon="13.968825"><ele>218.6</ele><time>2026-04-11T08:21:54.856Z</time></trkpt><trkpt lat="41.232545" lon="13.9688183"><ele>218.2</ele><time>2026-04-11T08:21:56.857Z</time></trkpt><trkpt lat="41.2326067" lon="13.9688433"><ele>217.79999999999998</ele><time>2026-04-11T08:21:57.856Z</time></trkpt><trkpt lat="41.2326683" lon="13.968885"><ele>217.39999999999998</ele><time>2026-04-11T08:21:58.86Z</time></trkpt><trkpt lat="41.2327667" lon="13.9689783"><ele>217.0</ele><time>2026-04-11T08:22:00.858Z</time></trkpt><trkpt lat="41.2328367" lon="13.9690767"><ele>217.0</ele><time>2026-04-11T08:22:02.857Z</time></trkpt><trkpt lat="41.23291" lon="13.969165"><ele>217.0</ele><time>2026-04-11T08:22:04.857Z</time></trkpt><trkpt lat="41.2329917" lon="13.969255"><ele>217.0</ele><time>2026-04-11T08:22:06.855Z</time></trkpt><trkpt lat="41.23307" lon="13.9693433"><ele>217.0</ele><time>2026-04-11T08:22:08.856Z</time></trkpt><trkpt lat="41.2331483" lon="13.9694383"><ele>217.0</ele><time>2026-04-11T08:22:10.856Z</time></trkpt><trkpt lat="41.2332283" lon="13.969545"><ele>216.75</ele><time>2026-04-11T08:22:12.857Z</time></trkpt><trkpt lat="41.23331" lon="13.9696483"><ele>216.5</ele><time>2026-04-11T08:22:14.856Z</time></trkpt><trkpt lat="41.2333867" lon="13.9697583"><ele>216.25</ele><time>2026-04-11T08:22:16.857Z</time></trkpt><trkpt lat="41.233475" lon="13.9698633"><ele>216.0</ele><time>2026-04-11T08:22:18.856Z</time></trkpt><trkpt lat="41.23357" lon="13.9699767"><ele>217.0</ele><time>2026-04-11T08:22:20.857Z</time></trkpt><trkpt lat="41.2336167" lon="13.9700333"><ele>218.00000000000003</ele><time>2026-04-11T08:22:21.856Z</time></trkpt><trkpt lat="41.2336883" lon="13.970145"><ele>219.00000000000003</ele><time>2026-04-11T08:22:23.857Z</time></trkpt><trkpt lat="41.2337733" lon="13.9702583"><ele>220.0</ele><time>2026-04-11T08:22:25.857Z</time></trkpt><trkpt lat="41.2338567" lon="13.97037"><ele>221.0</ele><time>2026-04-11T08:22:27.858Z</time></trkpt><trkpt lat="41.2339033" lon="13.9704267"><ele>219.8</ele><time>2026-04-11T08:22:28.858Z</time></trkpt><trkpt lat="41.2339967" lon="13.9705333"><ele>218.60000000000002</ele><time>2026-04-11T08:22:30.857Z</time></trkpt><trkpt lat="41.2340867" lon="13.9706433"><ele>217.4</ele><time>2026-04-11T08:22:32.857Z</time></trkpt><trkpt lat="41.234185" lon="13.9707483"><ele>216.2</ele><time>2026-04-11T08:22:34.857Z</time></trkpt><trkpt lat="41.2342367" lon="13.9708"><ele>215.0</ele><time>2026-04-11T08:22:35.86Z</time></trkpt><trkpt lat="41.2342883" lon="13.9708483"><ele>216.25</ele><time>2026-04-11T08:22:36.857Z</time></trkpt><trkpt lat="41.23439" lon="13.9709383"><ele>217.5</ele><time>2026-04-11T08:22:38.858Z</time></trkpt><trkpt lat="41.2344933" lon="13.9710217"><ele>218.75</ele><time>2026-04-11T08:22:40.858Z</time></trkpt><trkpt lat="41.234595" lon="13.971095"><ele>220.0</ele><time>2026-04-11T08:22:42.858Z</time></trkpt><trkpt lat="41.2346883" lon="13.9711833"><ele>220.0</ele><time>2026-04-11T08:22:44.858Z</time></trkpt><trkpt lat="41.2347767" lon="13.9712683"><ele>220.0</ele><time>2026-04-11T08:22:46.857Z</time></trkpt><trkpt lat="41.2348633" lon="13.9713467"><ele>220.0</ele><time>2026-04-11T08:22:48.861Z</time></trkpt><trkpt lat="41.234955" lon="13.971425"><ele>220.0</ele><time>2026-04-11T08:22:50.857Z</time></trkpt><trkpt lat="41.2350467" lon="13.9715017"><ele>220.0</ele><time>2026-04-11T08:22:52.858Z</time></trkpt><trkpt lat="41.2351367" lon="13.9715633"><ele>220.0</ele><time>2026-04-11T08:22:54.858Z</time></trkpt><trkpt lat="41.2352267" lon="13.9716333"><ele>220.0</ele><time>2026-04-11T08:22:56.859Z</time></trkpt><trkpt lat="41.2353167" lon="13.9717083"><ele>220.0</ele><time>2026-04-11T08:22:58.86Z</time></trkpt><trkpt lat="41.235385" lon="13.9717917"><ele>220.0</ele><time>2026-04-11T08:23:00.857Z</time></trkpt><trkpt lat="41.2354433" lon="13.97189"><ele>220.0</ele><time>2026-04-11T08:23:02.858Z</time></trkpt><trkpt lat="41.2354883" lon="13.971995"><ele>219.99999999999997</ele><time>2026-04-11T08:23:04.858Z</time></trkpt><trkpt lat="41.2355233" lon="13.9720933"><ele>220.0</ele><time>2026-04-11T08:23:06.857Z</time></trkpt><trkpt lat="41.23555" lon="13.9721933"><ele>220.0</ele><time>2026-04-11T08:23:08.857Z</time></trkpt><trkpt lat="41.2356183" lon="13.9722483"><ele>220.0</ele><time>2026-04-11T08:23:11.857Z</time></trkpt><trkpt lat="41.235675" lon="13.9722017"><ele>219.99999999999997</ele><time>2026-04-11T08:23:13.857Z</time></trkpt><trkpt lat="41.23574" lon="13.97209"><ele>220.0</ele><time>2026-04-11T08:23:15.856Z</time></trkpt><trkpt lat="41.2357767" lon="13.9720183"><ele>219.66666666666666</ele><time>2026-04-11T08:23:16.857Z</time></trkpt><trkpt lat="41.235815" lon="13.97194"><ele>219.33333333333331</ele><time>2026-04-11T08:23:17.856Z</time></trkpt><trkpt lat="41.235855" lon="13.9718517"><ele>219.0</ele><time>2026-04-11T08:23:18.856Z</time></trkpt><trkpt lat="41.2358967" lon="13.9717583"><ele>218.66666666666669</ele><time>2026-04-11T08:23:19.856Z</time></trkpt><trkpt lat="41.2359417" lon="13.9716583"><ele>218.33333333333334</ele><time>2026-04-11T08:23:20.857Z</time></trkpt><trkpt lat="41.2359883" lon="13.971555"><ele>218.0</ele><time>2026-04-11T08:23:21.857Z</time></trkpt><trkpt lat="41.2360367" lon="13.9714433"><ele>217.4</ele><time>2026-04-11T08:23:22.858Z</time></trkpt><trkpt lat="41.2360883" lon="13.9713333"><ele>216.8</ele><time>2026-04-11T08:23:23.857Z</time></trkpt><trkpt lat="41.2361383" lon="13.9712217"><ele>216.2</ele><time>2026-04-11T08:23:24.856Z</time></trkpt><trkpt lat="41.23619" lon="13.9711117"><ele>215.6</ele><time>2026-04-11T08:23:25.858Z</time></trkpt><trkpt lat="41.236235" lon="13.970995"><ele>215.0</ele><time>2026-04-11T08:23:26.858Z</time></trkpt><trkpt lat="41.2362817" lon="13.9708783"><ele>214.16666666666669</ele><time>2026-04-11T08:23:27.857Z</time></trkpt><trkpt lat="41.2363183" lon="13.97076"><ele>213.33333333333334</ele><time>2026-04-11T08:23:28.856Z</time></trkpt><trkpt lat="41.2363467" lon="13.9706433"><ele>212.5</ele><time>2026-04-11T08:23:29.857Z</time></trkpt><trkpt lat="41.2363683" lon="13.9705267"><ele>211.66666666666669</ele><time>2026-04-11T08:23:30.857Z</time></trkpt><trkpt lat="41.2363867" lon="13.970415"><ele>210.83333333333334</ele><time>2026-04-11T08:23:31.857Z</time></trkpt><trkpt lat="41.236405" lon="13.9703083"><ele>210.0</ele><time>2026-04-11T08:23:32.858Z</time></trkpt><trkpt lat="41.23642" lon="13.9702067"><ele>210.0</ele><time>2026-04-11T08:23:33.856Z</time></trkpt><trkpt lat="41.2364367" lon="13.9701117"><ele>210.0</ele><time>2026-04-11T08:23:34.856Z</time></trkpt><trkpt lat="41.23645" lon="13.9700217"><ele>210.0</ele><time>2026-04-11T08:23:35.858Z</time></trkpt><trkpt lat="41.236465" lon="13.9699367"><ele>210.0</ele><time>2026-04-11T08:23:36.855Z</time></trkpt><trkpt lat="41.2364917" lon="13.9697733"><ele>210.0</ele><time>2026-04-11T08:23:38.857Z</time></trkpt><trkpt lat="41.2365083" lon="13.9696917"><ele>210.0</ele><time>2026-04-11T08:23:39.865Z</time></trkpt><trkpt lat="41.2365417" lon="13.9695383"><ele>210.75</ele><time>2026-04-11T08:23:41.857Z</time></trkpt><trkpt lat="41.236585" lon="13.9693933"><ele>211.5</ele><time>2026-04-11T08:23:43.857Z</time></trkpt><trkpt lat="41.2366367" lon="13.96926"><ele>212.25</ele><time>2026-04-11T08:23:45.857Z</time></trkpt><trkpt lat="41.2366933" lon="13.9691217"><ele>213.0</ele><time>2026-04-11T08:23:47.858Z</time></trkpt><trkpt lat="41.236755" lon="13.96899"><ele>213.0</ele><time>2026-04-11T08:23:49.858Z</time></trkpt><trkpt lat="41.2368033" lon="13.9688517"><ele>213.0</ele><time>2026-04-11T08:23:51.858Z</time></trkpt><trkpt lat="41.2368417" lon="13.968695"><ele>213.0</ele><time>2026-04-11T08:23:53.857Z</time></trkpt><trkpt lat="41.2368617" lon="13.9686117"><ele>213.0</ele><time>2026-04-11T08:23:54.857Z</time></trkpt><trkpt lat="41.2368817" lon="13.9685233"><ele>213.0</ele><time>2026-04-11T08:23:55.856Z</time></trkpt><trkpt lat="41.2369017" lon="13.9684317"><ele>213.0</ele><time>2026-04-11T08:23:56.857Z</time></trkpt><trkpt lat="41.2369217" lon="13.9683367"><ele>212.16666666666666</ele><time>2026-04-11T08:23:57.857Z</time></trkpt><trkpt lat="41.236945" lon="13.9682417"><ele>211.33333333333331</ele><time>2026-04-11T08:23:58.857Z</time></trkpt><trkpt lat="41.2369633" lon="13.9681417"><ele>210.5</ele><time>2026-04-11T08:23:59.857Z</time></trkpt><trkpt lat="41.2369867" lon="13.9680467"><ele>209.66666666666666</ele><time>2026-04-11T08:24:00.856Z</time></trkpt><trkpt lat="41.2370167" lon="13.9679517"><ele>208.83333333333331</ele><time>2026-04-11T08:24:01.857Z</time></trkpt><trkpt lat="41.2370517" lon="13.96786"><ele>208.0</ele><time>2026-04-11T08:24:02.858Z</time></trkpt><trkpt lat="41.2370917" lon="13.9677767"><ele>208.0</ele><time>2026-04-11T08:24:03.857Z</time></trkpt><trkpt lat="41.23714" lon="13.967705"><ele>208.0</ele><time>2026-04-11T08:24:04.857Z</time></trkpt><trkpt lat="41.237195" lon="13.967645"><ele>208.0</ele><time>2026-04-11T08:24:05.857Z</time></trkpt><trkpt lat="41.2372533" lon="13.9675933"><ele>208.0</ele><time>2026-04-11T08:24:06.857Z</time></trkpt><trkpt lat="41.2373133" lon="13.9675467"><ele>208.0</ele><time>2026-04-11T08:24:07.856Z</time></trkpt><trkpt lat="41.2373767" lon="13.96751"><ele>208.0</ele><time>2026-04-11T08:24:08.857Z</time></trkpt><trkpt lat="41.2374383" lon="13.967485"><ele>208.0</ele><time>2026-04-11T08:24:09.857Z</time></trkpt><trkpt lat="41.2375533" lon="13.967455"><ele>208.16666666666666</ele><time>2026-04-11T08:24:11.856Z</time></trkpt><trkpt lat="41.237655" lon="13.9674583"><ele>208.33333333333331</ele><time>2026-04-11T08:24:13.857Z</time></trkpt><trkpt lat="41.2377433" lon="13.9674733"><ele>208.5</ele><time>2026-04-11T08:24:15.856Z</time></trkpt><trkpt lat="41.23782" lon="13.9674883"><ele>208.66666666666669</ele><time>2026-04-11T08:24:17.857Z</time></trkpt><trkpt lat="41.23789" lon="13.9675083"><ele>208.83333333333334</ele><time>2026-04-11T08:24:19.858Z</time></trkpt><trkpt lat="41.23796" lon="13.9675267"><ele>209.0</ele><time>2026-04-11T08:24:21.857Z</time></trkpt><trkpt lat="41.2380367" lon="13.96753"><ele>211.83333333333334</ele><time>2026-04-11T08:24:23.857Z</time></trkpt><trkpt lat="41.2381133" lon="13.9675333"><ele>214.66666666666669</ele><time>2026-04-11T08:24:25.857Z</time></trkpt><trkpt lat="41.2381783" lon="13.96755"><ele>217.5</ele><time>2026-04-11T08:24:27.857Z</time></trkpt><trkpt lat="41.2382567" lon="13.967565"><ele>220.33333333333331</ele><time>2026-04-11T08:24:30.857Z</time></trkpt><trkpt lat="41.23835" lon="13.9675933"><ele>223.16666666666666</ele><time>2026-04-11T08:24:33.856Z</time></trkpt><trkpt lat="41.2384133" lon="13.967605"><ele>226.0</ele><time>2026-04-11T08:24:35.858Z</time></trkpt><trkpt lat="41.2385083" lon="13.9676317"><ele>228.16666666666666</ele><time>2026-04-11T08:24:38.857Z</time></trkpt><trkpt lat="41.2385767" lon="13.9676533"><ele>230.33333333333331</ele><time>2026-04-11T08:24:40.857Z</time></trkpt><trkpt lat="41.2386467" lon="13.9676733"><ele>232.5</ele><time>2026-04-11T08:24:42.856Z</time></trkpt><trkpt lat="41.2387167" lon="13.96769"><ele>234.66666666666669</ele><time>2026-04-11T08:24:44.858Z</time></trkpt><trkpt lat="41.238795" lon="13.967705"><ele>236.83333333333334</ele><time>2026-04-11T08:24:46.858Z</time></trkpt><trkpt lat="41.2388767" lon="13.96772"><ele>239.0</ele><time>2026-04-11T08:24:48.857Z</time></trkpt><trkpt lat="41.2389533" lon="13.9677333"><ele>239.33333333333334</ele><time>2026-04-11T08:24:50.861Z</time></trkpt><trkpt lat="41.2390317" lon="13.9677517"><ele>239.66666666666669</ele><time>2026-04-11T08:24:52.859Z</time></trkpt><trkpt lat="41.2391117" lon="13.9677717"><ele>240.0</ele><time>2026-04-11T08:24:54.857Z</time></trkpt><trkpt lat="41.2391917" lon="13.9678017"><ele>240.33333333333331</ele><time>2026-04-11T08:24:56.857Z</time></trkpt><trkpt lat="41.2392667" lon="13.9678267"><ele>240.66666666666666</ele><time>2026-04-11T08:24:58.858Z</time></trkpt><trkpt lat="41.239345" lon="13.96786"><ele>241.0</ele><time>2026-04-11T08:25:00.858Z</time></trkpt><trkpt lat="41.2394267" lon="13.967885"><ele>240.99999999999997</ele><time>2026-04-11T08:25:02.857Z</time></trkpt><trkpt lat="41.2395067" lon="13.9679167"><ele>241.0</ele><time>2026-04-11T08:25:04.856Z</time></trkpt><trkpt lat="41.2395967" lon="13.9679583"><ele>241.0</ele><time>2026-04-11T08:25:06.858Z</time></trkpt><trkpt lat="41.2396783" lon="13.9679967"><ele>241.0</ele><time>2026-04-11T08:25:08.858Z</time></trkpt><trkpt lat="41.2397533" lon="13.9680333"><ele>240.99999999999997</ele><time>2026-04-11T08:25:10.858Z</time></trkpt><trkpt lat="41.2398233" lon="13.9680683"><ele>241.0</ele><time>2026-04-11T08:25:12.857Z</time></trkpt><trkpt lat="41.2398967" lon="13.9681167"><ele>241.49999999999997</ele><time>2026-04-11T08:25:14.858Z</time></trkpt><trkpt lat="41.2399683" lon="13.9681633"><ele>242.0</ele><time>2026-04-11T08:25:16.861Z</time></trkpt><trkpt lat="41.24003" lon="13.968215"><ele>242.5</ele><time>2026-04-11T08:25:18.857Z</time></trkpt><trkpt lat="41.2400983" lon="13.9682867"><ele>243.0</ele><time>2026-04-11T08:25:20.858Z</time></trkpt><trkpt lat="41.2401533" lon="13.9683383"><ele>243.49999999999997</ele><time>2026-04-11T08:25:22.858Z</time></trkpt><trkpt lat="41.2402183" lon="13.9683933"><ele>244.0</ele><time>2026-04-11T08:25:24.857Z</time></trkpt><trkpt lat="41.2402883" lon="13.9684633"><ele>244.0</ele><time>2026-04-11T08:25:26.857Z</time></trkpt><trkpt lat="41.2403617" lon="13.968535"><ele>243.99999999999997</ele><time>2026-04-11T08:25:28.857Z</time></trkpt><trkpt lat="41.2404367" lon="13.9686117"><ele>243.99999999999997</ele><time>2026-04-11T08:25:30.857Z</time></trkpt><trkpt lat="41.2405133" lon="13.9687017"><ele>244.0</ele><time>2026-04-11T08:25:32.857Z</time></trkpt><trkpt lat="41.2405767" lon="13.968795"><ele>244.0</ele><time>2026-04-11T08:25:34.858Z</time></trkpt><trkpt lat="41.2406433" lon="13.9688983"><ele>243.49999999999997</ele><time>2026-04-11T08:25:36.858Z</time></trkpt><trkpt lat="41.2406933" lon="13.9689967"><ele>243.0</ele><time>2026-04-11T08:25:38.858Z</time></trkpt><trkpt lat="41.24074" lon="13.9690967"><ele>242.5</ele><time>2026-04-11T08:25:40.858Z</time></trkpt><trkpt lat="41.2407867" lon="13.9691883"><ele>242.0</ele><time>2026-04-11T08:25:42.858Z</time></trkpt><trkpt lat="41.24084" lon="13.9692917"><ele>241.49999999999997</ele><time>2026-04-11T08:25:44.857Z</time></trkpt><trkpt lat="41.2408883" lon="13.9693883"><ele>241.0</ele><time>2026-04-11T08:25:46.857Z</time></trkpt><trkpt lat="41.2409383" lon="13.9694883"><ele>240.99999999999997</ele><time>2026-04-11T08:25:48.857Z</time></trkpt><trkpt lat="41.2409933" lon="13.9695817"><ele>241.0</ele><time>2026-04-11T08:25:50.857Z</time></trkpt><trkpt lat="41.241055" lon="13.969645"><ele>241.0</ele><time>2026-04-11T08:25:52.857Z</time></trkpt><trkpt lat="41.2411267" lon="13.969705"><ele>241.0</ele><time>2026-04-11T08:25:54.858Z</time></trkpt><trkpt lat="41.24121" lon="13.96976"><ele>240.99999999999997</ele><time>2026-04-11T08:25:56.858Z</time></trkpt><trkpt lat="41.241285" lon="13.9698183"><ele>241.0</ele><time>2026-04-11T08:25:58.858Z</time></trkpt><trkpt lat="41.2413517" lon="13.969855"><ele>240.99999999999997</ele><time>2026-04-11T08:26:00.858Z</time></trkpt><trkpt lat="41.2414217" lon="13.9698933"><ele>241.0</ele><time>2026-04-11T08:26:02.858Z</time></trkpt><trkpt lat="41.24149" lon="13.9699433"><ele>241.0</ele><time>2026-04-11T08:26:04.858Z</time></trkpt><trkpt lat="41.241565" lon="13.97001"><ele>241.0</ele><time>2026-04-11T08:26:06.858Z</time></trkpt><trkpt lat="41.2416417" lon="13.9700717"><ele>240.99999999999997</ele><time>2026-04-11T08:26:08.858Z</time></trkpt><trkpt lat="41.2417217" lon="13.9701433"><ele>241.0</ele><time>2026-04-11T08:26:10.858Z</time></trkpt><trkpt lat="41.241805" lon="13.9702"><ele>242.16666666666666</ele><time>2026-04-11T08:26:12.858Z</time></trkpt><trkpt lat="41.241875" lon="13.970255"><ele>243.33333333333331</ele><time>2026-04-11T08:26:14.857Z</time></trkpt><trkpt lat="41.2419483" lon="13.9702883"><ele>244.5</ele><time>2026-04-11T08:26:16.856Z</time></trkpt><trkpt lat="41.2420283" lon="13.97031"><ele>245.66666666666669</ele><time>2026-04-11T08:26:18.857Z</time></trkpt><trkpt lat="41.2421017" lon="13.970325"><ele>246.83333333333334</ele><time>2026-04-11T08:26:20.857Z</time></trkpt><trkpt lat="41.24218" lon="13.970335"><ele>248.0</ele><time>2026-04-11T08:26:22.857Z</time></trkpt><trkpt lat="41.2422467" lon="13.970345"><ele>248.00000000000003</ele><time>2026-04-11T08:26:24.859Z</time></trkpt><trkpt lat="41.2423233" lon="13.97036"><ele>248.0</ele><time>2026-04-11T08:26:26.858Z</time></trkpt><trkpt lat="41.2424017" lon="13.9703683"><ele>248.0</ele><time>2026-04-11T08:26:28.857Z</time></trkpt><trkpt lat="41.2424767" lon="13.97037"><ele>248.0</ele><time>2026-04-11T08:26:30.859Z</time></trkpt><trkpt lat="41.242555" lon="13.9703667"><ele>248.00000000000003</ele><time>2026-04-11T08:26:32.86Z</time></trkpt><trkpt lat="41.2426267" lon="13.9703567"><ele>248.0</ele><time>2026-04-11T08:26:34.859Z</time></trkpt><trkpt lat="41.242705" lon="13.9703667"><ele>248.00000000000003</ele><time>2026-04-11T08:26:36.857Z</time></trkpt><trkpt lat="41.24279" lon="13.970385"><ele>248.0</ele><time>2026-04-11T08:26:38.857Z</time></trkpt><trkpt lat="41.2428767" lon="13.9704233"><ele>248.0</ele><time>2026-04-11T08:26:40.859Z</time></trkpt><trkpt lat="41.2429517" lon="13.9704833"><ele>248.0</ele><time>2026-04-11T08:26:42.856Z</time></trkpt><trkpt lat="41.2430283" lon="13.970535"><ele>248.00000000000003</ele><time>2026-04-11T08:26:44.857Z</time></trkpt><trkpt lat="41.2430933" lon="13.9705883"><ele>248.0</ele><time>2026-04-11T08:26:46.858Z</time></trkpt><trkpt lat="41.243155" lon="13.97063"><ele>247.16666666666669</ele><time>2026-04-11T08:26:48.859Z</time></trkpt><trkpt lat="41.2432183" lon="13.9706717"><ele>246.33333333333334</ele><time>2026-04-11T08:26:50.857Z</time></trkpt><trkpt lat="41.2432867" lon="13.9707283"><ele>245.5</ele><time>2026-04-11T08:26:53.858Z</time></trkpt><trkpt lat="41.2433617" lon="13.9707767"><ele>244.66666666666669</ele><time>2026-04-11T08:26:56.857Z</time></trkpt><trkpt lat="41.24345" lon="13.970815"><ele>243.83333333333334</ele><time>2026-04-11T08:26:59.858Z</time></trkpt><trkpt lat="41.2435367" lon="13.9708683"><ele>243.0</ele><time>2026-04-11T08:27:02.858Z</time></trkpt><trkpt lat="41.2436033" lon="13.9708967"><ele>245.5</ele><time>2026-04-11T08:27:04.857Z</time></trkpt><trkpt lat="41.2436667" lon="13.97092"><ele>248.0</ele><time>2026-04-11T08:27:06.858Z</time></trkpt><trkpt lat="41.24375" lon="13.9709317"><ele>250.5</ele><time>2026-04-11T08:27:09.858Z</time></trkpt><trkpt lat="41.2438183" lon="13.9709283"><ele>253.0</ele><time>2026-04-11T08:27:12.859Z</time></trkpt><trkpt lat="41.2439033" lon="13.9709333"><ele>255.5</ele><time>2026-04-11T08:27:16.86Z</time></trkpt><trkpt lat="41.2439933" lon="13.9709517"><ele>258.0</ele><time>2026-04-11T08:27:19.858Z</time></trkpt><trkpt lat="41.2440817" lon="13.9709833"><ele>259.0</ele><time>2026-04-11T08:27:22.857Z</time></trkpt><trkpt lat="41.2441517" lon="13.9710083"><ele>260.0</ele><time>2026-04-11T08:27:24.856Z</time></trkpt><trkpt lat="41.2442267" lon="13.9710267"><ele>261.0</ele><time>2026-04-11T08:27:26.857Z</time></trkpt><trkpt lat="41.2443" lon="13.9710533"><ele>262.0</ele><time>2026-04-11T08:27:28.858Z</time></trkpt><trkpt lat="41.24437" lon="13.9710867"><ele>263.0</ele><time>2026-04-11T08:27:30.857Z</time></trkpt><trkpt lat="41.2444417" lon="13.9711167"><ele>264.0</ele><time>2026-04-11T08:27:32.858Z</time></trkpt><trkpt lat="41.244515" lon="13.97115"><ele>264.0</ele><time>2026-04-11T08:27:34.857Z</time></trkpt><trkpt lat="41.2445767" lon="13.9711883"><ele>264.0</ele><time>2026-04-11T08:27:36.857Z</time></trkpt><trkpt lat="41.24466" lon="13.97125"><ele>264.0</ele><time>2026-04-11T08:27:39.857Z</time></trkpt><trkpt lat="41.24472" lon="13.9712883"><ele>264.0</ele><time>2026-04-11T08:27:41.857Z</time></trkpt><trkpt lat="41.2448017" lon="13.9713433"><ele>264.0</ele><time>2026-04-11T08:27:44.857Z</time></trkpt><trkpt lat="41.244855" lon="13.9713883"><ele>264.0</ele><time>2026-04-11T08:27:46.858Z</time></trkpt><trkpt lat="41.2449133" lon="13.97143"><ele>262.8333333333333</ele><time>2026-04-11T08:27:48.857Z</time></trkpt><trkpt lat="41.2449933" lon="13.9714833"><ele>261.6666666666667</ele><time>2026-04-11T08:27:51.856Z</time></trkpt><trkpt lat="41.2450733" lon="13.9715467"><ele>260.5</ele><time>2026-04-11T08:27:54.857Z</time></trkpt><trkpt lat="41.2451333" lon="13.9715833"><ele>259.33333333333337</ele><time>2026-04-11T08:27:56.857Z</time></trkpt><trkpt lat="41.24521" lon="13.9716383"><ele>258.1666666666667</ele><time>2026-04-11T08:27:59.857Z</time></trkpt><trkpt lat="41.2452967" lon="13.97167"><ele>257.0</ele><time>2026-04-11T08:28:02.857Z</time></trkpt><trkpt lat="41.24536" lon="13.9716817"><ele>259.83333333333337</ele><time>2026-04-11T08:28:04.856Z</time></trkpt><trkpt lat="41.2454267" lon="13.971695"><ele>262.6666666666667</ele><time>2026-04-11T08:28:06.859Z</time></trkpt><trkpt lat="41.245515" lon="13.9716933"><ele>265.5</ele><time>2026-04-11T08:28:09.856Z</time></trkpt><trkpt lat="41.245595" lon="13.9717067"><ele>268.3333333333333</ele><time>2026-04-11T08:28:12.857Z</time></trkpt><trkpt lat="41.2456767" lon="13.97172"><ele>271.16666666666663</ele><time>2026-04-11T08:28:15.855Z</time></trkpt><trkpt lat="41.2457717" lon="13.9717317"><ele>274.0</ele><time>2026-04-11T08:28:18.856Z</time></trkpt><trkpt lat="41.2458517" lon="13.9717217"><ele>274.0</ele><time>2026-04-11T08:28:21.857Z</time></trkpt><trkpt lat="41.24593" lon="13.9717333"><ele>274.0</ele><time>2026-04-11T08:28:24.857Z</time></trkpt><trkpt lat="41.24602" lon="13.9717417"><ele>274.0</ele><time>2026-04-11T08:28:27.857Z</time></trkpt><trkpt lat="41.2461017" lon="13.9717333"><ele>274.0</ele><time>2026-04-11T08:28:30.856Z</time></trkpt><trkpt lat="41.2461733" lon="13.9717433"><ele>274.0</ele><time>2026-04-11T08:28:32.857Z</time></trkpt><trkpt lat="41.2462517" lon="13.97174"><ele>274.0</ele><time>2026-04-11T08:28:35.857Z</time></trkpt><trkpt lat="41.246315" lon="13.9717317"><ele>274.0</ele><time>2026-04-11T08:28:37.857Z</time></trkpt><trkpt lat="41.24641" lon="13.971705"><ele>274.0</ele><time>2026-04-11T08:28:40.857Z</time></trkpt><trkpt lat="41.2464667" lon="13.97166"><ele>274.0</ele><time>2026-04-11T08:28:42.858Z</time></trkpt><trkpt lat="41.2465383" lon="13.9715867"><ele>274.0</ele><time>2026-04-11T08:28:45.855Z</time></trkpt><trkpt lat="41.2466133" lon="13.9715117"><ele>274.0</ele><time>2026-04-11T08:28:48.857Z</time></trkpt><trkpt lat="41.24669" lon="13.9714667"><ele>274.0</ele><time>2026-04-11T08:28:51.856Z</time></trkpt><trkpt lat="41.2467833" lon="13.97144"><ele>241.0</ele><time>2026-04-11T08:28:54.857Z</time></trkpt><trkpt lat="41.2391117" lon="13.9677717"><ele>240.99999999999997</ele><time>2026-04-11T08:24:54.857Z</time></trkpt><trkpt lat="41.2391917" lon="13.9678017"><ele>241.0</ele><time>2026-04-11T08:24:56.857Z</time></trkpt><trkpt lat="41.2392667" lon="13.9678267"><ele>241.0</ele><time>2026-04-11T08:24:58.858Z</time></trkpt><trkpt lat="41.239345" lon="13.96786"><ele>241.0</ele><time>2026-04-11T08:25:00.858Z</time></trkpt><trkpt lat="41.2394267" lon="13.967885"><ele>240.99999999999997</ele><time>2026-04-11T08:25:02.857Z</time></trkpt><trkpt lat="41.2395067" lon="13.9679167"><ele>241.0</ele><time>2026-04-11T08:25:04.856Z</time></trkpt><trkpt lat="41.2395967" lon="13.9679583"><ele>240.99999999999997</ele><time>2026-04-11T08:25:06.858Z</time></trkpt><trkpt lat="41.2396783" lon="13.9679967"><ele>241.0</ele><time>2026-04-11T08:25:08.858Z</time></trkpt><trkpt lat="41.2397533" lon="13.9680333"><ele>241.0</ele><time>2026-04-11T08:25:10.858Z</time></trkpt><trkpt lat="41.2398233" lon="13.9680683"><ele>241.0</ele><time>2026-04-11T08:25:12.857Z</time></trkpt><trkpt lat="41.2398967" lon="13.9681167"><ele>240.99999999999997</ele><time>2026-04-11T08:25:14.858Z</time></trkpt><trkpt lat="41.2399683" lon="13.9681633"><ele>241.0</ele><time>2026-04-11T08:25:16.861Z</time></trkpt><trkpt lat="41.24003" lon="13.968215"><ele>241.49999999999997</ele><time>2026-04-11T08:25:18.857Z</time></trkpt><trkpt lat="41.2400983" lon="13.9682867"><ele>242.0</ele><time>2026-04-11T08:25:20.858Z</time></trkpt><trkpt lat="41.2401533" lon="13.9683383"><ele>242.5</ele><time>2026-04-11T08:25:22.858Z</time></trkpt><trkpt lat="41.2402183" lon="13.9683933"><ele>243.0</ele><time>2026-04-11T08:25:24.857Z</time></trkpt><trkpt lat="41.2402883" lon="13.9684633"><ele>243.49999999999997</ele><time>2026-04-11T08:25:26.857Z</time></trkpt><trkpt lat="41.2403617" lon="13.968535"><ele>244.0</ele><time>2026-04-11T08:25:28.857Z</time></trkpt><trkpt lat="41.2404367" lon="13.9686117"><ele>244.0</ele><time>2026-04-11T08:25:30.857Z</time></trkpt><trkpt lat="41.2405133" lon="13.9687017"><ele>243.99999999999997</ele><time>2026-04-11T08:25:32.857Z</time></trkpt><trkpt lat="41.2405767" lon="13.968795"><ele>243.99999999999997</ele><time>2026-04-11T08:25:34.858Z</time></trkpt><trkpt lat="41.2406433" lon="13.9688983"><ele>244.0</ele><time>2026-04-11T08:25:36.858Z</time></trkpt><trkpt lat="41.2406933" lon="13.9689967"><ele>244.0</ele><time>2026-04-11T08:25:38.858Z</time></trkpt><trkpt lat="41.24074" lon="13.9690967"><ele>243.49999999999997</ele><time>2026-04-11T08:25:40.858Z</time></trkpt><trkpt lat="41.2407867" lon="13.9691883"><ele>243.0</ele><time>2026-04-11T08:25:42.858Z</time></trkpt><trkpt lat="41.24084" lon="13.9692917"><ele>242.5</ele><time>2026-04-11T08:25:44.857Z</time></trkpt><trkpt lat="41.2408883" lon="13.9693883"><ele>242.0</ele><time>2026-04-11T08:25:46.857Z</time></trkpt><trkpt lat="41.2409383" lon="13.9694883"><ele>241.49999999999997</ele><time>2026-04-11T08:25:48.857Z</time></trkpt><trkpt lat="41.2409933" lon="13.9695817"><ele>241.0</ele><time>2026-04-11T08:25:50.857Z</time></trkpt><trkpt lat="41.241055" lon="13.969645"><ele>240.99999999999997</ele><time>2026-04-11T08:25:52.857Z</time></trkpt><trkpt lat="41.2411267" lon="13.969705"><ele>241.0</ele><time>2026-04-11T08:25:54.858Z</time></trkpt><trkpt lat="41.24121" lon="13.96976"><ele>241.0</ele><time>2026-04-11T08:25:56.858Z</time></trkpt><trkpt lat="41.241285" lon="13.9698183"><ele>241.0</ele><time>2026-04-11T08:25:58.858Z</time></trkpt><trkpt lat="41.2413517" lon="13.969855"><ele>240.99999999999997</ele><time>2026-04-11T08:26:00.858Z</time></trkpt><trkpt lat="41.2414217" lon="13.9698933"><ele>241.0</ele><time>2026-04-11T08:26:02.858Z</time></trkpt><trkpt lat="41.24149" lon="13.9699433"><ele>239.8</ele><time>2026-04-11T08:26:04.858Z</time></trkpt><trkpt lat="41.241565" lon="13.97001"><ele>238.60000000000002</ele><time>2026-04-11T08:26:06.858Z</time></trkpt><trkpt lat="41.2416417" lon="13.9700717"><ele>237.4</ele><time>2026-04-11T08:26:08.858Z</time></trkpt><trkpt lat="41.2417217" lon="13.9701433"><ele>236.2</ele><time>2026-04-11T08:26:10.858Z</time></trkpt><trkpt lat="41.241805" lon="13.9702"><ele>235.0</ele><time>2026-04-11T08:26:12.858Z</time></trkpt><trkpt lat="41.241875" lon="13.970255"><ele>237.16666666666666</ele><time>2026-04-11T08:26:14.857Z</time></trkpt><trkpt lat="41.2419483" lon="13.9702883"><ele>239.33333333333331</ele><time>2026-04-11T08:26:16.856Z</time></trkpt><trkpt lat="41.2420283" lon="13.97031"><ele>241.5</ele><time>2026-04-11T08:26:18.857Z</time></trkpt><trkpt lat="41.2421017" lon="13.970325"><ele>243.66666666666669</ele><time>2026-04-11T08:26:20.857Z</time></trkpt><trkpt lat="41.24218" lon="13.970335"><ele>245.83333333333334</ele><time>2026-04-11T08:26:22.857Z</time></trkpt><trkpt lat="41.2422467" lon="13.970345"><ele>248.0</ele><time>2026-04-11T08:26:24.859Z</time></trkpt><trkpt lat="41.2423233" lon="13.97036"><ele>248.00000000000003</ele><time>2026-04-11T08:26:26.858Z</time></trkpt><trkpt lat="41.2424017" lon="13.9703683"><ele>248.0</ele><time>2026-04-11T08:26:28.857Z</time></trkpt><trkpt lat="41.2424767" lon="13.97037"><ele>248.0</ele><time>2026-04-11T08:26:30.859Z</time></trkpt><trkpt lat="41.242555" lon="13.9703667"><ele>248.0</ele><time>2026-04-11T08:26:32.86Z</time></trkpt><trkpt lat="41.2426267" lon="13.9703567"><ele>248.00000000000003</ele><time>2026-04-11T08:26:34.859Z</time></trkpt><trkpt lat="41.242705" lon="13.9703667"><ele>248.0</ele><time>2026-04-11T08:26:36.857Z</time></trkpt><trkpt lat="41.24279" lon="13.970385"><ele>248.00000000000003</ele><time>2026-04-11T08:26:38.857Z</time></trkpt><trkpt lat="41.2428767" lon="13.9704233"><ele>248.0</ele><time>2026-04-11T08:26:40.859Z</time></trkpt><trkpt lat="41.2429517" lon="13.9704833"><ele>248.0</ele><time>2026-04-11T08:26:42.856Z</time></trkpt><trkpt lat="41.2430283" lon="13.970535"><ele>248.0</ele><time>2026-04-11T08:26:44.857Z</time></trkpt><trkpt lat="41.2430933" lon="13.9705883"><ele>248.00000000000003</ele><time>2026-04-11T08:26:46.858Z</time></trkpt><trkpt lat="41.243155" lon="13.97063"><ele>248.0</ele><time>2026-04-11T08:26:48.859Z</time></trkpt><trkpt lat="41.2432183" lon="13.9706717"><ele>247.16666666666669</ele><time>2026-04-11T08:26:50.857Z</time></trkpt><trkpt lat="41.2432867" lon="13.9707283"><ele>246.33333333333334</ele><time>2026-04-11T08:26:53.858Z</time></trkpt><trkpt lat="41.2433617" lon="13.9707767"><ele>245.5</ele><time>2026-04-11T08:26:56.857Z</time></trkpt><trkpt lat="41.24345" lon="13.970815"><ele>244.66666666666669</ele><time>2026-04-11T08:26:59.858Z</time></trkpt><trkpt lat="41.2435367" lon="13.9708683"><ele>243.83333333333334</ele><time>2026-04-11T08:27:02.858Z</time></trkpt><trkpt lat="41.2436033" lon="13.9708967"><ele>243.0</ele><time>2026-04-11T08:27:04.857Z</time></trkpt><trkpt lat="41.2436667" lon="13.97092"><ele>245.5</ele><time>2026-04-11T08:27:06.858Z</time></trkpt><trkpt lat="41.24375" lon="13.9709317"><ele>248.0</ele><time>2026-04-11T08:27:09.858Z</time></trkpt><trkpt lat="41.2438183" lon="13.9709283"><ele>250.5</ele><time>2026-04-11T08:27:12.859Z</time></trkpt><trkpt lat="41.2439033" lon="13.9709333"><ele>253.0</ele><time>2026-04-11T08:27:16.86Z</time></trkpt><trkpt lat="41.2439933" lon="13.9709517"><ele>255.5</ele><time>2026-04-11T08:27:19.858Z</time></trkpt><trkpt lat="41.2440817" lon="13.9709833"><ele>258.0</ele><time>2026-04-11T08:27:22.857Z</time></trkpt><trkpt lat="41.2441517" lon="13.9710083"><ele>258.85714285714283</ele><time>2026-04-11T08:27:24.856Z</time></trkpt><trkpt lat="41.2442267" lon="13.9710267"><ele>259.7142857142857</ele><time>2026-04-11T08:27:26.857Z</time></trkpt><trkpt lat="41.2443" lon="13.9710533"><ele>260.57142857142856</ele><time>2026-04-11T08:27:28.858Z</time></trkpt><trkpt lat="41.24437" lon="13.9710867"><ele>261.42857142857144</ele><time>2026-04-11T08:27:30.857Z</time></trkpt><trkpt lat="41.2444417" lon="13.9711167"><ele>262.2857142857143</ele><time>2026-04-11T08:27:32.858Z</time></trkpt><trkpt lat="41.244515" lon="13.97115"><ele>263.1428571428571</ele><time>2026-04-11T08:27:34.857Z</time></trkpt><trkpt lat="41.2445767" lon="13.9711883"><ele>264.0</ele><time>2026-04-11T08:27:36.857Z</time></trkpt><trkpt lat="41.24466" lon="13.97125"><ele>264.0</ele><time>2026-04-11T08:27:39.857Z</time></trkpt><trkpt lat="41.24472" lon="13.9712883"><ele>264.0</ele><time>2026-04-11T08:27:41.857Z</time></trkpt><trkpt lat="41.2448017" lon="13.9713433"><ele>264.0</ele><time>2026-04-11T08:27:44.857Z</time></trkpt><trkpt lat="41.244855" lon="13.9713883"><ele>264.0</ele><time>2026-04-11T08:27:46.858Z</time></trkpt><trkpt lat="41.2449133" lon="13.97143"><ele>264.0</ele><time>2026-04-11T08:27:48.857Z</time></trkpt><trkpt lat="41.2449933" lon="13.9714833"><ele>264.0</ele><time>2026-04-11T08:27:51.856Z</time></trkpt><trkpt lat="41.2450733" lon="13.9715467"><ele>262.8333333333333</ele><time>2026-04-11T08:27:54.857Z</time></trkpt><trkpt lat="41.2451333" lon="13.9715833"><ele>261.6666666666667</ele><time>2026-04-11T08:27:56.857Z</time></trkpt><trkpt lat="41.24521" lon="13.9716383"><ele>260.5</ele><time>2026-04-11T08:27:59.857Z</time></trkpt><trkpt lat="41.2452967" lon="13.97167"><ele>259.33333333333337</ele><time>2026-04-11T08:28:02.857Z</time></trkpt><trkpt lat="41.24536" lon="13.9716817"><ele>258.1666666666667</ele><time>2026-04-11T08:28:04.856Z</time></trkpt><trkpt lat="41.2454267" lon="13.971695"><ele>257.0</ele><time>2026-04-11T08:28:06.859Z</time></trkpt><trkpt lat="41.245515" lon="13.9716933"><ele>259.83333333333337</ele><time>2026-04-11T08:28:09.856Z</time></trkpt><trkpt lat="41.245595" lon="13.9717067"><ele>262.6666666666667</ele><time>2026-04-11T08:28:12.857Z</time></trkpt><trkpt lat="41.2456767" lon="13.97172"><ele>265.5</ele><time>2026-04-11T08:28:15.855Z</time></trkpt><trkpt lat="41.2457717" lon="13.9717317"><ele>268.3333333333333</ele><time>2026-04-11T08:28:18.856Z</time></trkpt><trkpt lat="41.2458517" lon="13.9717217"><ele>271.16666666666663</ele><time>2026-04-11T08:28:21.857Z</time></trkpt><trkpt lat="41.24593" lon="13.9717333"><ele>274.0</ele><time>2026-04-11T08:28:24.857Z</time></trkpt><trkpt lat="41.24602" lon="13.9717417"><ele>274.0</ele><time>2026-04-11T08:28:27.857Z</time></trkpt><trkpt lat="41.2461017" lon="13.9717333"><ele>274.0</ele><time>2026-04-11T08:28:30.856Z</time></trkpt><trkpt lat="41.2461733" lon="13.9717433"><ele>274.0</ele><time>2026-04-11T08:28:32.857Z</time></trkpt><trkpt lat="41.2462517" lon="13.97174"><ele>274.0</ele><time>2026-04-11T08:28:35.857Z</time></trkpt><trkpt lat="41.246315" lon="13.9717317"><ele>274.0</ele><time>2026-04-11T08:28:37.857Z</time></trkpt><trkpt lat="41.24641" lon="13.971705"><ele>274.0</ele><time>2026-04-11T08:28:40.857Z</time></trkpt><trkpt lat="41.2464667" lon="13.97166"><ele>273.16666666666663</ele><time>2026-04-11T08:28:42.858Z</time></trkpt><trkpt lat="41.2465383" lon="13.9715867"><ele>272.3333333333333</ele><time>2026-04-11T08:28:45.855Z</time></trkpt><trkpt lat="41.2466133" lon="13.9715117"><ele>271.5</ele><time>2026-04-11T08:28:48.857Z</time></trkpt><trkpt lat="41.24669" lon="13.9714667"><ele>270.6666666666667</ele><time>2026-04-11T08:28:51.856Z</time></trkpt><trkpt lat="41.2467833" lon="13.97144"><ele>269.83333333333337</ele><time>2026-04-11T08:28:54.857Z</time></trkpt><trkpt lat="41.24685" lon="13.9714333"><ele>269.0</ele><time>2026-04-11T08:28:56.856Z</time></trkpt><trkpt lat="41.246945" lon="13.97144"><ele>269.0</ele><time>2026-04-11T08:28:59.856Z</time></trkpt><trkpt lat="41.2470117" lon="13.9714633"><ele>269.0</ele><time>2026-04-11T08:29:01.859Z</time></trkpt><trkpt lat="41.2470983" lon="13.9715083"><ele>269.0</ele><time>2026-04-11T08:29:04.856Z</time></trkpt><trkpt lat="41.2471717" lon="13.971555"><ele>269.0</ele><time>2026-04-11T08:29:07.858Z</time></trkpt><trkpt lat="41.2472567" lon="13.9715817"><ele>269.0</ele><time>2026-04-11T08:29:10.856Z</time></trkpt><trkpt lat="41.2473367" lon="13.971595"><ele>269.0</ele><time>2026-04-11T08:29:13.857Z</time></trkpt><trkpt lat="41.247415" lon="13.9716167"><ele>270.0</ele><time>2026-04-11T08:29:16.855Z</time></trkpt><trkpt lat="41.2475017" lon="13.9716367"><ele>271.0</ele><time>2026-04-11T08:29:19.857Z</time></trkpt><trkpt lat="41.247585" lon="13.9716583"><ele>272.0</ele><time>2026-04-11T08:29:22.856Z</time></trkpt><trkpt lat="41.247665" lon="13.9717033"><ele>273.0</ele><time>2026-04-11T08:29:25.857Z</time></trkpt><trkpt lat="41.247745" lon="13.971745"><ele>274.0</ele><time>2026-04-11T08:29:28.856Z</time></trkpt><trkpt lat="41.247825" lon="13.9717883"><ele>275.0</ele><time>2026-04-11T08:29:31.857Z</time></trkpt><trkpt lat="41.247895" lon="13.9718567"><ele>279.33333333333337</ele><time>2026-04-11T08:29:34.857Z</time></trkpt><trkpt lat="41.2479717" lon="13.9719033"><ele>283.6666666666667</ele><time>2026-04-11T08:29:37.858Z</time></trkpt><trkpt lat="41.2480367" lon="13.9719467"><ele>288.0</ele><time>2026-04-11T08:29:40.857Z</time></trkpt><trkpt lat="41.2481017" lon="13.9719833"><ele>292.3333333333333</ele><time>2026-04-11T08:29:43.857Z</time></trkpt><trkpt lat="41.2481717" lon="13.9720183"><ele>296.66666666666663</ele><time>2026-04-11T08:29:46.857Z</time></trkpt><trkpt lat="41.2482633" lon="13.9720733"><ele>301.0</ele><time>2026-04-11T08:29:49.856Z</time></trkpt><trkpt lat="41.2483267" lon="13.972115"><ele>301.0</ele><time>2026-04-11T08:29:51.858Z</time></trkpt><trkpt lat="41.2484083" lon="13.9721617"><ele>301.0</ele><time>2026-04-11T08:29:54.856Z</time></trkpt><trkpt lat="41.248485" lon="13.9722"><ele>301.0</ele><time>2026-04-11T08:29:57.856Z</time></trkpt><trkpt lat="41.248565" lon="13.9722417"><ele>301.0</ele><time>2026-04-11T08:30:00.856Z</time></trkpt><trkpt lat="41.2486417" lon="13.9722917"><ele>301.0</ele><time>2026-04-11T08:30:03.856Z</time></trkpt><trkpt lat="41.248715" lon="13.9723567"><ele>301.0</ele><time>2026-04-11T08:30:06.858Z</time></trkpt><trkpt lat="41.2487833" lon="13.972395"><ele>301.0</ele><time>2026-04-11T08:30:09.857Z</time></trkpt><trkpt lat="41.2488467" lon="13.9724183"><ele>301.0</ele><time>2026-04-11T08:30:11.858Z</time></trkpt><trkpt lat="41.24891" lon="13.9724367"><ele>301.0</ele><time>2026-04-11T08:30:13.857Z</time></trkpt><trkpt lat="41.2489733" lon="13.97244"><ele>301.0</ele><time>2026-04-11T08:30:15.856Z</time></trkpt><trkpt lat="41.2490517" lon="13.9724283"><ele>301.0</ele><time>2026-04-11T08:30:17.858Z</time></trkpt><trkpt lat="41.2491167" lon="13.9723933"><ele>301.0</ele><time>2026-04-11T08:30:19.858Z</time></trkpt><trkpt lat="41.24918" lon="13.9723517"><ele>301.0</ele><time>2026-04-11T08:30:21.857Z</time></trkpt><trkpt lat="41.24927" lon="13.9723333"><ele>300.0</ele><time>2026-04-11T08:30:24.857Z</time></trkpt><trkpt lat="41.24932" lon="13.9724"><ele>299.0</ele><time>2026-04-11T08:30:27.857Z</time></trkpt><trkpt lat="41.2492733" lon="13.9724583"><ele>298.0</ele><time>2026-04-11T08:30:32.857Z</time></trkpt><trkpt lat="41.249205" lon="13.972485"><ele>297.0</ele><time>2026-04-11T08:30:36.858Z</time></trkpt><trkpt lat="41.2491433" lon="13.97251"><ele>296.0</ele><time>2026-04-11T08:30:39.859Z</time></trkpt><trkpt lat="41.2490817" lon="13.972535"><ele>295.0</ele><time>2026-04-11T08:30:42.857Z</time></trkpt><trkpt lat="41.2490133" lon="13.9725533"><ele>294.0</ele><time>2026-04-11T08:30:45.858Z</time></trkpt><trkpt lat="41.2489417" lon="13.97255"><ele>295.0</ele><time>2026-04-11T08:30:48.859Z</time></trkpt><trkpt lat="41.248875" lon="13.9725383"><ele>296.0</ele><time>2026-04-11T08:30:51.858Z</time></trkpt><trkpt lat="41.2487983" lon="13.97253"><ele>297.0</ele><time>2026-04-11T08:30:55.858Z</time></trkpt><trkpt lat="41.2487367" lon="13.9725"><ele>298.0</ele><time>2026-04-11T08:30:59.858Z</time></trkpt><trkpt lat="41.248675" lon="13.9724783"><ele>299.0</ele><time>2026-04-11T08:31:02.859Z</time></trkpt><trkpt lat="41.2486117" lon="13.9724517"><ele>300.0</ele><time>2026-04-11T08:31:05.859Z</time></trkpt><trkpt lat="41.248525" lon="13.9724117"><ele>301.0</ele><time>2026-04-11T08:31:08.859Z</time></trkpt><trkpt lat="41.2484567" lon="13.9723983"><ele>301.0</ele><time>2026-04-11T08:31:10.858Z</time></trkpt><trkpt lat="41.2483667" lon="13.9723833"><ele>301.0</ele><time>2026-04-11T08:31:13.859Z</time></trkpt><trkpt lat="41.2482817" lon="13.9723633"><ele>301.0</ele><time>2026-04-11T08:31:16.858Z</time></trkpt><trkpt lat="41.2482167" lon="13.9723583"><ele>301.0</ele><time>2026-04-11T08:31:18.858Z</time></trkpt><trkpt lat="41.2481317" lon="13.97234"><ele>301.0</ele><time>2026-04-11T08:31:21.857Z</time></trkpt><trkpt lat="41.2480417" lon="13.9723267"><ele>301.0</ele><time>2026-04-11T08:31:24.859Z</time></trkpt><trkpt lat="41.247945" lon="13.9723533"><ele>301.3333333333333</ele><time>2026-04-11T08:31:27.858Z</time></trkpt><trkpt lat="41.24787" lon="13.9723867"><ele>301.66666666666663</ele><time>2026-04-11T08:31:29.858Z</time></trkpt><trkpt lat="41.247865" lon="13.972495"><ele>302.0</ele><time>2026-04-11T08:31:32.857Z</time></trkpt><trkpt lat="41.2479217" lon="13.97257"><ele>302.3333333333333</ele><time>2026-04-11T08:31:35.857Z</time></trkpt><trkpt lat="41.2480083" lon="13.9725883"><ele>302.6666666666667</ele><time>2026-04-11T08:31:38.857Z</time></trkpt><trkpt lat="41.2480867" lon="13.9726133"><ele>303.0</ele><time>2026-04-11T08:31:41.857Z</time></trkpt><trkpt lat="41.248155" lon="13.9726467"><ele>307.6666666666667</ele><time>2026-04-11T08:31:44.856Z</time></trkpt><trkpt lat="41.2482283" lon="13.9726867"><ele>312.3333333333333</ele><time>2026-04-11T08:31:47.857Z</time></trkpt><trkpt lat="41.248295" lon="13.972705"><ele>317.0</ele><time>2026-04-11T08:31:50.857Z</time></trkpt><trkpt lat="41.2483667" lon="13.972705"><ele>321.66666666666663</ele><time>2026-04-11T08:31:53.858Z</time></trkpt><trkpt lat="41.2484567" lon="13.9727233"><ele>326.3333333333333</ele><time>2026-04-11T08:31:56.858Z</time></trkpt><trkpt lat="41.248545" lon="13.9727617"><ele>331.0</ele><time>2026-04-11T08:31:59.859Z</time></trkpt><trkpt lat="41.2486283" lon="13.972805"><ele>331.0</ele><time>2026-04-11T08:32:02.857Z</time></trkpt><trkpt lat="41.2486983" lon="13.9728533"><ele>331.0</ele><time>2026-04-11T08:32:05.856Z</time></trkpt><trkpt lat="41.248785" lon="13.9729017"><ele>331.0</ele><time>2026-04-11T08:32:08.858Z</time></trkpt><trkpt lat="41.2488633" lon="13.9729417"><ele>331.0</ele><time>2026-04-11T08:32:11.857Z</time></trkpt><trkpt lat="41.2489333" lon="13.9729883"><ele>331.0</ele><time>2026-04-11T08:32:14.859Z</time></trkpt><trkpt lat="41.2489933" lon="13.9730433"><ele>331.0</ele><time>2026-04-11T08:32:17.858Z</time></trkpt><trkpt lat="41.2490533" lon="13.9731233"><ele>329.16666666666663</ele><time>2026-04-11T08:32:20.859Z</time></trkpt><trkpt lat="41.2491133" lon="13.9732133"><ele>327.3333333333333</ele><time>2026-04-11T08:32:23.858Z</time></trkpt><trkpt lat="41.249155" lon="13.97329"><ele>325.5</ele><time>2026-04-11T08:32:26.858Z</time></trkpt><trkpt lat="41.2491717" lon="13.9733817"><ele>323.6666666666667</ele><time>2026-04-11T08:32:29.858Z</time></trkpt><trkpt lat="41.249195" lon="13.9734883"><ele>321.83333333333337</ele><time>2026-04-11T08:32:32.857Z</time></trkpt><trkpt lat="41.2491783" lon="13.9735817"><ele>320.0</ele><time>2026-04-11T08:32:35.858Z</time></trkpt><trkpt lat="41.24916" lon="13.973685"><ele>320.0</ele><time>2026-04-11T08:32:39.858Z</time></trkpt><trkpt lat="41.249145" lon="13.97378"><ele>320.0</ele><time>2026-04-11T08:32:43.859Z</time></trkpt><trkpt lat="41.2491183" lon="13.9738667"><ele>320.0</ele><time>2026-04-11T08:32:47.857Z</time></trkpt><trkpt lat="41.2490783" lon="13.9739433"><ele>320.0</ele><time>2026-04-11T08:32:51.858Z</time></trkpt><trkpt lat="41.249025" lon="13.9739967"><ele>320.0</ele><time>2026-04-11T08:32:54.857Z</time></trkpt><trkpt lat="41.2489767" lon="13.974085"><ele>320.0</ele><time>2026-04-11T08:32:58.856Z</time></trkpt><trkpt lat="41.248945" lon="13.97417"><ele>320.0</ele><time>2026-04-11T08:33:02.857Z</time></trkpt><trkpt lat="41.2489083" lon="13.97425"><ele>322.1666666666667</ele><time>2026-04-11T08:33:05.857Z</time></trkpt><trkpt lat="41.2488917" lon="13.9743467"><ele>324.33333333333337</ele><time>2026-04-11T08:33:08.857Z</time></trkpt><trkpt lat="41.2488933" lon="13.9744617"><ele>326.5</ele><time>2026-04-11T08:33:11.857Z</time></trkpt><trkpt lat="41.248885" lon="13.9745717"><ele>328.6666666666667</ele><time>2026-04-11T08:33:14.857Z</time></trkpt><trkpt lat="41.248875" lon="13.974675"><ele>330.8333333333333</ele><time>2026-04-11T08:33:17.858Z</time></trkpt><trkpt lat="41.2488467" lon="13.9747817"><ele>333.0</ele><time>2026-04-11T08:33:20.857Z</time></trkpt><trkpt lat="41.248825" lon="13.9749017"><ele>333.0</ele><time>2026-04-11T08:33:23.858Z</time></trkpt><trkpt lat="41.2487983" lon="13.9749933"><ele>333.0</ele><time>2026-04-11T08:33:25.858Z</time></trkpt><trkpt lat="41.2487833" lon="13.9750867"><ele>333.0</ele><time>2026-04-11T08:33:27.857Z</time></trkpt><trkpt lat="41.2487717" lon="13.9751833"><ele>333.0</ele><time>2026-04-11T08:33:29.857Z</time></trkpt><trkpt lat="41.248765" lon="13.9752667"><ele>333.0</ele><time>2026-04-11T08:33:31.859Z</time></trkpt><trkpt lat="41.2487533" lon="13.9753783"><ele>333.0</ele><time>2026-04-11T08:33:34.856Z</time></trkpt><trkpt lat="41.2487733" lon="13.9754867"><ele>333.5</ele><time>2026-04-11T08:33:37.858Z</time></trkpt><trkpt lat="41.2488" lon="13.9755933"><ele>334.0</ele><time>2026-04-11T08:33:40.857Z</time></trkpt><trkpt lat="41.2488017" lon="13.9757067"><ele>334.5</ele><time>2026-04-11T08:33:43.859Z</time></trkpt><trkpt lat="41.2487683" lon="13.97579"><ele>335.0</ele><time>2026-04-11T08:33:46.857Z</time></trkpt><trkpt lat="41.248705" lon="13.975795"><ele>335.5</ele><time>2026-04-11T08:33:49.857Z</time></trkpt><trkpt lat="41.248665" lon="13.9757283"><ele>336.0</ele><time>2026-04-11T08:33:52.86Z</time></trkpt><trkpt lat="41.2486233" lon="13.9756283"><ele>336.0</ele><time>2026-04-11T08:33:55.858Z</time></trkpt><trkpt lat="41.2485767" lon="13.9755417"><ele>336.0</ele><time>2026-04-11T08:33:58.857Z</time></trkpt><trkpt lat="41.2485417" lon="13.9754533"><ele>336.0</ele><time>2026-04-11T08:34:01.86Z</time></trkpt><trkpt lat="41.2485033" lon="13.97537"><ele>336.0</ele><time>2026-04-11T08:34:04.857Z</time></trkpt><trkpt lat="41.2484467" lon="13.975285"><ele>336.0</ele><time>2026-04-11T08:34:07.857Z</time></trkpt><trkpt lat="41.248405" lon="13.9752133"><ele>336.0</ele><time>2026-04-11T08:34:10.856Z</time></trkpt><trkpt lat="41.248345" lon="13.9751467"><ele>336.0</ele><time>2026-04-11T08:34:13.858Z</time></trkpt><trkpt lat="41.24826" lon="13.9751233"><ele>336.0</ele><time>2026-04-11T08:34:17.86Z</time></trkpt><trkpt lat="41.2481983" lon="13.9751433"><ele>336.0</ele><time>2026-04-11T08:34:19.86Z</time></trkpt><trkpt lat="41.2481383" lon="13.975175"><ele>336.0</ele><time>2026-04-11T08:34:21.857Z</time></trkpt><trkpt lat="41.2480583" lon="13.9752333"><ele>336.0</ele><time>2026-04-11T08:34:24.857Z</time></trkpt><trkpt lat="41.248005" lon="13.9752883"><ele>336.0</ele><time>2026-04-11T08:34:26.858Z</time></trkpt><trkpt lat="41.2479517" lon="13.975345"><ele>336.0</ele><time>2026-04-11T08:34:28.858Z</time></trkpt><trkpt lat="41.2478967" lon="13.9754167"><ele>336.8333333333333</ele><time>2026-04-11T08:34:31.857Z</time></trkpt><trkpt lat="41.24788" lon="13.9755017"><ele>337.6666666666667</ele><time>2026-04-11T08:34:34.856Z</time></trkpt><trkpt lat="41.2479" lon="13.9756233"><ele>338.5</ele><time>2026-04-11T08:34:37.857Z</time></trkpt><trkpt lat="41.247925" lon="13.9757017"><ele>339.33333333333337</ele><time>2026-04-11T08:34:39.857Z</time></trkpt><trkpt lat="41.247975" lon="13.975785"><ele>340.1666666666667</ele><time>2026-04-11T08:34:42.859Z</time></trkpt><trkpt lat="41.2480367" lon="13.9758333"><ele>341.0</ele><time>2026-04-11T08:34:44.857Z</time></trkpt><trkpt lat="41.2481" lon="13.9759017"><ele>343.0</ele><time>2026-04-11T08:34:46.859Z</time></trkpt><trkpt lat="41.2481567" lon="13.9759533"><ele>345.0</ele><time>2026-04-11T08:34:48.859Z</time></trkpt><trkpt lat="41.2482533" lon="13.9760317"><ele>347.0</ele><time>2026-04-11T08:34:51.865Z</time></trkpt><trkpt lat="41.2483183" lon="13.976075"><ele>349.0</ele><time>2026-04-11T08:34:53.861Z</time></trkpt><trkpt lat="41.24841" lon="13.9761133"><ele>351.0</ele><time>2026-04-11T08:34:56.859Z</time></trkpt><trkpt lat="41.2484667" lon="13.9761617"><ele>353.0</ele><time>2026-04-11T08:34:58.858Z</time></trkpt><trkpt lat="41.2485433" lon="13.9762283"><ele>353.0</ele><time>2026-04-11T08:35:01.859Z</time></trkpt><trkpt lat="41.2486017" lon="13.9763117"><ele>353.0</ele><time>2026-04-11T08:35:04.859Z</time></trkpt><trkpt lat="41.248635" lon="13.976385"><ele>353.0</ele><time>2026-04-11T08:35:06.858Z</time></trkpt><trkpt lat="41.24869" lon="13.97648"><ele>353.0</ele><time>2026-04-11T08:35:09.857Z</time></trkpt><trkpt lat="41.2487283" lon="13.9765517"><ele>353.0</ele><time>2026-04-11T08:35:11.863Z</time></trkpt><trkpt lat="41.2487667" lon="13.976665"><ele>353.0</ele><time>2026-04-11T08:35:14.856Z</time></trkpt><trkpt lat="41.2487967" lon="13.9767717"><ele>354.1428571428571</ele><time>2026-04-11T08:35:17.857Z</time></trkpt><trkpt lat="41.2488083" lon="13.9768817"><ele>355.28571428571433</ele><time>2026-04-11T08:35:20.859Z</time></trkpt><trkpt lat="41.2488383" lon="13.9769633"><ele>356.42857142857144</ele><time>2026-04-11T08:35:22.856Z</time></trkpt><trkpt lat="41.2488617" lon="13.9770417"><ele>357.57142857142856</ele><time>2026-04-11T08:35:24.858Z</time></trkpt><trkpt lat="41.2489133" lon="13.9771433"><ele>358.71428571428567</ele><time>2026-04-11T08:35:27.856Z</time></trkpt><trkpt lat="41.2489567" lon="13.9772067"><ele>359.8571428571429</ele><time>2026-04-11T08:35:29.857Z</time></trkpt><trkpt lat="41.2490083" lon="13.9772633"><ele>361.0</ele><time>2026-04-11T08:35:31.856Z</time></trkpt><trkpt lat="41.24907" lon="13.9773117"><ele>360.8571428571429</ele><time>2026-04-11T08:35:33.859Z</time></trkpt><trkpt lat="41.249125" lon="13.9773533"><ele>360.71428571428567</ele><time>2026-04-11T08:35:35.856Z</time></trkpt><trkpt lat="41.24918" lon="13.9774"><ele>360.57142857142856</ele><time>2026-04-11T08:35:37.857Z</time></trkpt><trkpt lat="41.24924" lon="13.9774883"><ele>360.42857142857144</ele><time>2026-04-11T08:35:40.857Z</time></trkpt><trkpt lat="41.2492783" lon="13.97756"><ele>360.28571428571433</ele><time>2026-04-11T08:35:42.856Z</time></trkpt><trkpt lat="41.249325" lon="13.9776317"><ele>360.1428571428571</ele><time>2026-04-11T08:35:44.856Z</time></trkpt><trkpt lat="41.2493667" lon="13.9777417"><ele>360.0</ele><time>2026-04-11T08:35:47.857Z</time></trkpt><trkpt lat="41.2493967" lon="13.9778267"><ele>360.0</ele><time>2026-04-11T08:35:49.857Z</time></trkpt><trkpt lat="41.2494383" lon="13.9779167"><ele>360.0</ele><time>2026-04-11T08:35:51.857Z</time></trkpt><trkpt lat="41.24948" lon="13.978005"><ele>360.0</ele><time>2026-04-11T08:35:53.857Z</time></trkpt><trkpt lat="41.24953" lon="13.97809"><ele>360.0</ele><time>2026-04-11T08:35:55.857Z</time></trkpt><trkpt lat="41.24957" lon="13.9781767"><ele>360.0</ele><time>2026-04-11T08:35:57.857Z</time></trkpt><trkpt lat="41.2496033" lon="13.9782683"><ele>360.0</ele><time>2026-04-11T08:35:59.857Z</time></trkpt><trkpt lat="41.2496367" lon="13.978355"><ele>359.5</ele><time>2026-04-11T08:36:01.858Z</time></trkpt><trkpt lat="41.249675" lon="13.97844"><ele>359.0</ele><time>2026-04-11T08:36:03.858Z</time></trkpt><trkpt lat="41.2497033" lon="13.9785367"><ele>358.5</ele><time>2026-04-11T08:36:05.857Z</time></trkpt><trkpt lat="41.249745" lon="13.97863"><ele>358.0</ele><time>2026-04-11T08:36:07.857Z</time></trkpt><trkpt lat="41.2497867" lon="13.9787233"><ele>357.5</ele><time>2026-04-11T08:36:09.857Z</time></trkpt><trkpt lat="41.2498233" lon="13.9788117"><ele>357.0</ele><time>2026-04-11T08:36:11.858Z</time></trkpt><trkpt lat="41.2498567" lon="13.9788983"><ele>357.0</ele><time>2026-04-11T08:36:13.857Z</time></trkpt><trkpt lat="41.2499067" lon="13.9789717"><ele>357.0</ele><time>2026-04-11T08:36:15.858Z</time></trkpt><trkpt lat="41.2499633" lon="13.9790433"><ele>357.0</ele><time>2026-04-11T08:36:17.857Z</time></trkpt><trkpt lat="41.2500233" lon="13.9791117"><ele>357.0</ele><time>2026-04-11T08:36:19.857Z</time></trkpt><trkpt lat="41.250075" lon="13.979175"><ele>357.0</ele><time>2026-04-11T08:36:21.858Z</time></trkpt><trkpt lat="41.2501567" lon="13.979255"><ele>357.0</ele><time>2026-04-11T08:36:24.856Z</time></trkpt><trkpt lat="41.2502283" lon="13.9793067"><ele>357.8333333333333</ele><time>2026-04-11T08:36:26.857Z</time></trkpt><trkpt lat="41.2503017" lon="13.9793483"><ele>358.6666666666667</ele><time>2026-04-11T08:36:28.86Z</time></trkpt><trkpt lat="41.250365" lon="13.9794"><ele>359.5</ele><time>2026-04-11T08:36:30.857Z</time></trkpt><trkpt lat="41.25043" lon="13.979445"><ele>360.33333333333337</ele><time>2026-04-11T08:36:32.858Z</time></trkpt><trkpt lat="41.250495" lon="13.9794933"><ele>361.1666666666667</ele><time>2026-04-11T08:36:34.861Z</time></trkpt><trkpt lat="41.2505583" lon="13.9795433"><ele>362.0</ele><time>2026-04-11T08:36:36.857Z</time></trkpt><trkpt lat="41.2506283" lon="13.9795883"><ele>362.0</ele><time>2026-04-11T08:36:38.857Z</time></trkpt><trkpt lat="41.2507067" lon="13.9796033"><ele>362.0</ele><time>2026-04-11T08:36:40.858Z</time></trkpt><trkpt lat="41.2507817" lon="13.9795983"><ele>362.0</ele><time>2026-04-11T08:36:42.857Z</time></trkpt><trkpt lat="41.2508467" lon="13.9795567"><ele>362.0</ele><time>2026-04-11T08:36:44.856Z</time></trkpt><trkpt lat="41.2509017" lon="13.9794833"><ele>362.0</ele><time>2026-04-11T08:36:46.856Z</time></trkpt><trkpt lat="41.2509333" lon="13.9793917"><ele>362.0</ele><time>2026-04-11T08:36:48.855Z</time></trkpt><trkpt lat="41.25095" lon="13.9793"><ele>362.0</ele><time>2026-04-11T08:36:50.861Z</time></trkpt><trkpt lat="41.250935" lon="13.97921"><ele>362.0</ele><time>2026-04-11T08:36:52.857Z</time></trkpt><trkpt lat="41.2508967" lon="13.9791267"><ele>362.0</ele><time>2026-04-11T08:36:54.858Z</time></trkpt><trkpt lat="41.25086" lon="13.9790467"><ele>362.0</ele><time>2026-04-11T08:36:56.858Z</time></trkpt><trkpt lat="41.2508133" lon="13.978965"><ele>362.0</ele><time>2026-04-11T08:36:58.857Z</time></trkpt><trkpt lat="41.250775" lon="13.9788667"><ele>362.0</ele><time>2026-04-11T08:37:01.856Z</time></trkpt><trkpt lat="41.2507217" lon="13.9787833"><ele>361.33333333333337</ele><time>2026-04-11T08:37:04.856Z</time></trkpt><trkpt lat="41.2506733" lon="13.9787167"><ele>360.6666666666667</ele><time>2026-04-11T08:37:07.857Z</time></trkpt><trkpt lat="41.2506383" lon="13.9786317"><ele>360.0</ele><time>2026-04-11T08:37:10.857Z</time></trkpt><trkpt lat="41.2506033" lon="13.9785367"><ele>359.3333333333333</ele><time>2026-04-11T08:37:13.857Z</time></trkpt><trkpt lat="41.2505767" lon="13.9784283"><ele>358.66666666666663</ele><time>2026-04-11T08:37:16.858Z</time></trkpt><trkpt lat="41.2505567" lon="13.9782983"><ele>358.0</ele><time>2026-04-11T08:37:19.861Z</time></trkpt><trkpt lat="41.2505533" lon="13.9781883"><ele>358.16666666666663</ele><time>2026-04-11T08:37:21.857Z</time></trkpt><trkpt lat="41.2505583" lon="13.9780917"><ele>358.3333333333333</ele><time>2026-04-11T08:37:23.862Z</time></trkpt><trkpt lat="41.2505667" lon="13.9779983"><ele>358.5</ele><time>2026-04-11T08:37:25.857Z</time></trkpt><trkpt lat="41.2505783" lon="13.97788"><ele>358.6666666666667</ele><time>2026-04-11T08:37:28.856Z</time></trkpt><trkpt lat="41.2506" lon="13.9777617"><ele>358.83333333333337</ele><time>2026-04-11T08:37:31.856Z</time></trkpt><trkpt lat="41.2506183" lon="13.9776683"><ele>359.0</ele><time>2026-04-11T08:37:33.857Z</time></trkpt><trkpt lat="41.2506583" lon="13.9775683"><ele>359.0</ele><time>2026-04-11T08:37:36.861Z</time></trkpt><trkpt lat="41.25073" lon="13.9775183"><ele>359.0</ele><time>2026-04-11T08:37:39.855Z</time></trkpt><trkpt lat="41.25081" lon="13.9775533"><ele>359.0</ele><time>2026-04-11T08:37:42.858Z</time></trkpt><trkpt lat="41.250865" lon="13.9776033"><ele>359.0</ele><time>2026-04-11T08:37:45.859Z</time></trkpt><trkpt lat="41.250935" lon="13.9776533"><ele>359.0</ele><time>2026-04-11T08:37:48.859Z</time></trkpt><trkpt lat="41.2509917" lon="13.9776983"><ele>359.0</ele><time>2026-04-11T08:37:51.856Z</time></trkpt><trkpt lat="41.2510617" lon="13.977725"><ele>359.0</ele><time>2026-04-11T08:37:54.857Z</time></trkpt><trkpt lat="41.251125" lon="13.9777567"><ele>359.0</ele><time>2026-04-11T08:37:57.858Z</time></trkpt><trkpt lat="41.2511883" lon="13.9778067"><ele>359.0</ele><time>2026-04-11T08:38:00.857Z</time></trkpt><trkpt lat="41.2512533" lon="13.97784"><ele>359.0</ele><time>2026-04-11T08:38:03.856Z</time></trkpt><trkpt lat="41.251315" lon="13.9778817"><ele>359.0</ele><time>2026-04-11T08:38:06.857Z</time></trkpt><trkpt lat="41.25138" lon="13.9779183"><ele>359.0</ele><time>2026-04-11T08:38:09.858Z</time></trkpt><trkpt lat="41.2514417" lon="13.9779567"><ele>359.0</ele><time>2026-04-11T08:38:12.858Z</time></trkpt><trkpt lat="41.251515" lon="13.9779967"><ele>361.1666666666667</ele><time>2026-04-11T08:38:15.857Z</time></trkpt><trkpt lat="41.2515783" lon="13.9780433"><ele>363.33333333333337</ele><time>2026-04-11T08:38:18.857Z</time></trkpt><trkpt lat="41.2516483" lon="13.9780833"><ele>365.5</ele><time>2026-04-11T08:38:21.857Z</time></trkpt><trkpt lat="41.2517167" lon="13.9781267"><ele>367.6666666666667</ele><time>2026-04-11T08:38:24.857Z</time></trkpt><trkpt lat="41.2517883" lon="13.9781683"><ele>369.8333333333333</ele><time>2026-04-11T08:38:27.856Z</time></trkpt><trkpt lat="41.2518667" lon="13.9782067"><ele>372.0</ele><time>2026-04-11T08:38:30.857Z</time></trkpt><trkpt lat="41.2519383" lon="13.9782483"><ele>372.0</ele><time>2026-04-11T08:38:33.857Z</time></trkpt><trkpt lat="41.2520067" lon="13.9782933"><ele>372.0</ele><time>2026-04-11T08:38:36.857Z</time></trkpt><trkpt lat="41.2520917" lon="13.9783433"><ele>372.0</ele><time>2026-04-11T08:38:39.857Z</time></trkpt><trkpt lat="41.2521717" lon="13.9783983"><ele>372.0</ele><time>2026-04-11T08:38:42.858Z</time></trkpt><trkpt lat="41.2522533" lon="13.978445"><ele>372.0</ele><time>2026-04-11T08:38:45.858Z</time></trkpt><trkpt lat="41.2523383" lon="13.978495"><ele>372.0</ele><time>2026-04-11T08:38:48.859Z</time></trkpt><trkpt lat="41.2524183" lon="13.9785417"><ele>374.5</ele><time>2026-04-11T08:38:51.857Z</time></trkpt><trkpt lat="41.2524867" lon="13.9785883"><ele>377.0</ele><time>2026-04-11T08:38:54.858Z</time></trkpt><trkpt lat="41.2525567" lon="13.978635"><ele>379.5</ele><time>2026-04-11T08:38:57.858Z</time></trkpt><trkpt lat="41.2526283" lon="13.9786767"><ele>382.0</ele><time>2026-04-11T08:39:00.858Z</time></trkpt><trkpt lat="41.2527" lon="13.9787233"><ele>384.5</ele><time>2026-04-11T08:39:03.858Z</time></trkpt><trkpt lat="41.2527667" lon="13.978755"><ele>387.0</ele><time>2026-04-11T08:39:06.858Z</time></trkpt><trkpt lat="41.25283" lon="13.9787783"><ele>387.0</ele><time>2026-04-11T08:39:09.859Z</time></trkpt><trkpt lat="41.252895" lon="13.9788"><ele>387.0</ele><time>2026-04-11T08:39:12.857Z</time></trkpt><trkpt lat="41.25297" lon="13.9788067"><ele>387.0</ele><time>2026-04-11T08:39:15.858Z</time></trkpt><trkpt lat="41.2530367" lon="13.9788083"><ele>387.0</ele><time>2026-04-11T08:39:17.859Z</time></trkpt><trkpt lat="41.2531017" lon="13.978805"><ele>387.0</ele><time>2026-04-11T08:39:19.859Z</time></trkpt><trkpt lat="41.253165" lon="13.978805"><ele>387.0</ele><time>2026-04-11T08:39:21.858Z</time></trkpt><trkpt lat="41.2532433" lon="13.97881"><ele>387.0</ele><time>2026-04-11T08:39:24.861Z</time></trkpt><trkpt lat="41.2533217" lon="13.978825"><ele>387.2857142857143</ele><time>2026-04-11T08:39:27.859Z</time></trkpt><trkpt lat="41.253395" lon="13.9788367"><ele>387.57142857142856</ele><time>2026-04-11T08:39:30.857Z</time></trkpt><trkpt lat="41.2534733" lon="13.9788433"><ele>387.8571428571429</ele><time>2026-04-11T08:39:33.856Z</time></trkpt><trkpt lat="41.253555" lon="13.9788483"><ele>388.1428571428571</ele><time>2026-04-11T08:39:36.858Z</time></trkpt><trkpt lat="41.2536233" lon="13.97885"><ele>388.4285714285714</ele><time>2026-04-11T08:39:39.859Z</time></trkpt><trkpt lat="41.25369" lon="13.978855"><ele>388.7142857142857</ele><time>2026-04-11T08:39:42.86Z</time></trkpt><trkpt lat="41.2537617" lon="13.9788617"><ele>389.0</ele><time>2026-04-11T08:39:45.858Z</time></trkpt><trkpt lat="41.253845" lon="13.9788667"><ele>388.99999999999994</ele><time>2026-04-11T08:39:48.858Z</time></trkpt><trkpt lat="41.2539267" lon="13.97887"><ele>389.0</ele><time>2026-04-11T08:39:51.857Z</time></trkpt><trkpt lat="41.25401" lon="13.978865"><ele>389.0</ele><time>2026-04-11T08:39:54.858Z</time></trkpt><trkpt lat="41.2540817" lon="13.9788567"><ele>389.0</ele><time>2026-04-11T08:39:57.858Z</time></trkpt><trkpt lat="41.2541533" lon="13.9788483"><ele>388.99999999999994</ele><time>2026-04-11T08:40:00.858Z</time></trkpt><trkpt lat="41.2542217" lon="13.9788533"><ele>389.0</ele><time>2026-04-11T08:40:03.858Z</time></trkpt><trkpt lat="41.2543017" lon="13.978855"><ele>389.66666666666663</ele><time>2026-04-11T08:40:07.858Z</time></trkpt><trkpt lat="41.254375" lon="13.97886"><ele>390.3333333333333</ele><time>2026-04-11T08:40:10.858Z</time></trkpt><trkpt lat="41.2544533" lon="13.9788533"><ele>391.0</ele><time>2026-04-11T08:40:14.858Z</time></trkpt><trkpt lat="41.2545217" lon="13.978855"><ele>391.66666666666663</ele><time>2026-04-11T08:40:17.858Z</time></trkpt><trkpt lat="41.254605" lon="13.9788717"><ele>392.3333333333333</ele><time>2026-04-11T08:40:20.858Z</time></trkpt><trkpt lat="41.254695" lon="13.978905"><ele>393.0</ele><time>2026-04-11T08:40:23.858Z</time></trkpt><trkpt lat="41.2547683" lon="13.9789533"><ele>393.7142857142857</ele><time>2026-04-11T08:40:26.858Z</time></trkpt><trkpt lat="41.2548267" lon="13.978985"><ele>394.42857142857144</ele><time>2026-04-11T08:40:28.858Z</time></trkpt><trkpt lat="41.2548817" lon="13.9790283"><ele>395.1428571428571</ele><time>2026-04-11T08:40:30.858Z</time></trkpt><trkpt lat="41.25494" lon="13.9790733"><ele>395.8571428571429</ele><time>2026-04-11T08:40:32.859Z</time></trkpt><trkpt lat="41.2550133" lon="13.9791283"><ele>396.57142857142856</ele><time>2026-04-11T08:40:35.858Z</time></trkpt><trkpt lat="41.255085" lon="13.9791917"><ele>397.2857142857143</ele><time>2026-04-11T08:40:38.86Z</time></trkpt><trkpt lat="41.2551467" lon="13.9792483"><ele>398.0</ele><time>2026-04-11T08:40:41.859Z</time></trkpt><trkpt lat="41.2552133" lon="13.9793067"><ele>398.71428571428567</ele><time>2026-04-11T08:40:44.859Z</time></trkpt><trkpt lat="41.25527" lon="13.979345"><ele>399.42857142857144</ele><time>2026-04-11T08:40:46.857Z</time></trkpt><trkpt lat="41.255325" lon="13.9793867"><ele>400.1428571428571</ele><time>2026-04-11T08:40:48.858Z</time></trkpt><trkpt lat="41.2553933" lon="13.9794417"><ele>400.85714285714283</ele><time>2026-04-11T08:40:51.857Z</time></trkpt><trkpt lat="41.2554583" lon="13.9794667"><ele>401.57142857142856</ele><time>2026-04-11T08:40:54.858Z</time></trkpt><trkpt lat="41.2555317" lon="13.9795033"><ele>402.2857142857143</ele><time>2026-04-11T08:40:57.859Z</time></trkpt><trkpt lat="41.2556083" lon="13.9794767"><ele>403.0</ele><time>2026-04-11T08:41:00.857Z</time></trkpt><trkpt lat="41.2556817" lon="13.97941"><ele>403.00000000000006</ele><time>2026-04-11T08:41:03.858Z</time></trkpt><trkpt lat="41.25574" lon="13.97932"><ele>403.0</ele><time>2026-04-11T08:41:06.858Z</time></trkpt><trkpt lat="41.2557617" lon="13.9792067"><ele>403.0</ele><time>2026-04-11T08:41:09.859Z</time></trkpt><trkpt lat="41.25576" lon="13.9791"><ele>403.0</ele><time>2026-04-11T08:41:12.857Z</time></trkpt><trkpt lat="41.255735" lon="13.979005"><ele>403.00000000000006</ele><time>2026-04-11T08:41:15.859Z</time></trkpt><trkpt lat="41.255705" lon="13.9789133"><ele>403.0</ele><time>2026-04-11T08:41:18.858Z</time></trkpt><trkpt lat="41.25568" lon="13.9788033"><ele>403.1666666666667</ele><time>2026-04-11T08:41:21.858Z</time></trkpt><trkpt lat="41.2556617" lon="13.978685"><ele>403.33333333333337</ele><time>2026-04-11T08:41:24.859Z</time></trkpt><trkpt lat="41.2556283" lon="13.9785767"><ele>403.5</ele><time>2026-04-11T08:41:27.859Z</time></trkpt><trkpt lat="41.25559" lon="13.978465"><ele>403.66666666666663</ele><time>2026-04-11T08:41:30.858Z</time></trkpt><trkpt lat="41.255565" lon="13.9783867"><ele>403.8333333333333</ele><time>2026-04-11T08:41:32.858Z</time></trkpt><trkpt lat="41.255545" lon="13.9783067"><ele>404.0</ele><time>2026-04-11T08:41:34.857Z</time></trkpt><trkpt lat="41.2555133" lon="13.9782017"><ele>402.85714285714283</ele><time>2026-04-11T08:41:37.858Z</time></trkpt><trkpt lat="41.2554917" lon="13.97812"><ele>401.71428571428567</ele><time>2026-04-11T08:41:39.857Z</time></trkpt><trkpt lat="41.2554517" lon="13.9780483"><ele>400.57142857142856</ele><time>2026-04-11T08:41:41.857Z</time></trkpt><trkpt lat="41.2554133" lon="13.977975"><ele>399.42857142857144</ele><time>2026-04-11T08:41:43.856Z</time></trkpt><trkpt lat="41.2553683" lon="13.9778983"><ele>398.2857142857143</ele><time>2026-04-11T08:41:45.855Z</time></trkpt><trkpt lat="41.2553167" lon="13.9778417"><ele>397.14285714285717</ele><time>2026-04-11T08:41:47.856Z</time></trkpt><trkpt lat="41.25528" lon="13.977765"><ele>396.0</ele><time>2026-04-11T08:41:49.856Z</time></trkpt><trkpt lat="41.25523" lon="13.9777067"><ele>396.0</ele><time>2026-04-11T08:41:51.856Z</time></trkpt><trkpt lat="41.2551917" lon="13.97762"><ele>396.0</ele><time>2026-04-11T08:41:54.856Z</time></trkpt><trkpt lat="41.2552133" lon="13.977535"><ele>396.0</ele><time>2026-04-11T08:41:56.856Z</time></trkpt><trkpt lat="41.2551683" lon="13.9774733"><ele>396.0</ele><time>2026-04-11T08:42:34.858Z</time></trkpt><trkpt lat="41.2551281" lon="13.977538"><ele>396.0</ele><time>2026-04-11T08:42:48.863Z</time></trkpt><trkpt lat="41.2552017" lon="13.9774367"><ele>396.0</ele><time>2026-04-11T08:43:46.857Z</time></trkpt><trkpt lat="41.255265" lon="13.9774"><ele>396.0</ele><time>2026-04-11T08:43:49.857Z</time></trkpt><trkpt lat="41.2553283" lon="13.97736"><ele>397.5714285714286</ele><time>2026-04-11T08:43:53.857Z</time></trkpt><trkpt lat="41.2554033" lon="13.9773933"><ele>399.1428571428571</ele><time>2026-04-11T08:43:57.86Z</time></trkpt><trkpt lat="41.2554867" lon="13.9774033"><ele>400.7142857142857</ele><time>2026-04-11T08:44:01.855Z</time></trkpt><trkpt lat="41.2555367" lon="13.977455"><ele>402.28571428571433</ele><time>2026-04-11T08:44:57.858Z</time></trkpt><trkpt lat="41.2555933" lon="13.9775133"><ele>403.8571428571429</ele><time>2026-04-11T08:45:01.857Z</time></trkpt><trkpt lat="41.25566" lon="13.9775517"><ele>405.42857142857144</ele><time>2026-04-11T08:45:04.858Z</time></trkpt><trkpt lat="41.2557217" lon="13.977595"><ele>407.0</ele><time>2026-04-11T08:45:07.857Z</time></trkpt><trkpt lat="41.255795" lon="13.9776333"><ele>407.66666666666663</ele><time>2026-04-11T08:45:10.856Z</time></trkpt><trkpt lat="41.255865" lon="13.9776867"><ele>408.3333333333333</ele><time>2026-04-11T08:45:13.856Z</time></trkpt><trkpt lat="41.2559383" lon="13.9777283"><ele>409.0</ele><time>2026-04-11T08:45:16.857Z</time></trkpt><trkpt lat="41.256015" lon="13.97778"><ele>409.66666666666663</ele><time>2026-04-11T08:45:19.857Z</time></trkpt><trkpt lat="41.25607" lon="13.9778433"><ele>410.3333333333333</ele><time>2026-04-11T08:45:22.858Z</time></trkpt><trkpt lat="41.2561267" lon="13.9779067"><ele>411.0</ele><time>2026-04-11T08:45:25.857Z</time></trkpt><trkpt lat="41.2561833" lon="13.9779583"><ele>411.0</ele><time>2026-04-11T08:45:28.856Z</time></trkpt><trkpt lat="41.2562367" lon="13.9780417"><ele>411.0</ele><time>2026-04-11T08:45:31.858Z</time></trkpt><trkpt lat="41.2562617" lon="13.9781267"><ele>411.0</ele><time>2026-04-11T08:45:34.857Z</time></trkpt><trkpt lat="41.256275" lon="13.97822"><ele>411.0</ele><time>2026-04-11T08:45:37.856Z</time></trkpt><trkpt lat="41.2562817" lon="13.97832"><ele>411.0</ele><time>2026-04-11T08:45:40.858Z</time></trkpt><trkpt lat="41.25628" lon="13.9784267"><ele>411.0</ele><time>2026-04-11T08:45:43.858Z</time></trkpt><trkpt lat="41.256315" lon="13.9785233"><ele>409.8333333333333</ele><time>2026-04-11T08:45:46.858Z</time></trkpt><trkpt lat="41.256345" lon="13.9786233"><ele>408.66666666666663</ele><time>2026-04-11T08:45:49.859Z</time></trkpt><trkpt lat="41.2563933" lon="13.97872"><ele>407.5</ele><time>2026-04-11T08:45:52.858Z</time></trkpt><trkpt lat="41.2564383" lon="13.978815"><ele>406.3333333333333</ele><time>2026-04-11T08:45:55.858Z</time></trkpt><trkpt lat="41.2564817" lon="13.9789017"><ele>405.16666666666663</ele><time>2026-04-11T08:45:58.859Z</time></trkpt><trkpt lat="41.2565333" lon="13.9789767"><ele>404.0</ele><time>2026-04-11T08:46:01.858Z</time></trkpt><trkpt lat="41.256585" lon="13.9790383"><ele>405.8333333333333</ele><time>2026-04-11T08:46:04.857Z</time></trkpt><trkpt lat="41.2566567" lon="13.97911"><ele>407.66666666666663</ele><time>2026-04-11T08:46:07.858Z</time></trkpt><trkpt lat="41.2567167" lon="13.9791983"><ele>409.5</ele><time>2026-04-11T08:46:10.856Z</time></trkpt><trkpt lat="41.2567633" lon="13.97926"><ele>411.33333333333337</ele><time>2026-04-11T08:46:12.859Z</time></trkpt><trkpt lat="41.2568117" lon="13.9793183"><ele>413.1666666666667</ele><time>2026-04-11T08:46:14.859Z</time></trkpt><trkpt lat="41.25688" lon="13.9793967"><ele>415.0</ele><time>2026-04-11T08:46:17.864Z</time></trkpt><trkpt lat="41.256925" lon="13.9794583"><ele>415.00000000000006</ele><time>2026-04-11T08:46:19.857Z</time></trkpt><trkpt lat="41.2569917" lon="13.9795517"><ele>415.0</ele><time>2026-04-11T08:46:22.858Z</time></trkpt><trkpt lat="41.2570567" lon="13.97963"><ele>415.0</ele><time>2026-04-11T08:46:25.858Z</time></trkpt><trkpt lat="41.257115" lon="13.9797067"><ele>415.0</ele><time>2026-04-11T08:46:28.857Z</time></trkpt><trkpt lat="41.257175" lon="13.97978"><ele>415.00000000000006</ele><time>2026-04-11T08:46:31.858Z</time></trkpt><trkpt lat="41.2572383" lon="13.9798217"><ele>415.0</ele><time>2026-04-11T08:47:52.859Z</time></trkpt><trkpt lat="41.2573" lon="13.9798933"><ele>416.50000000000006</ele><time>2026-04-11T08:47:55.859Z</time></trkpt><trkpt lat="41.2573633" lon="13.9799767"><ele>418.0</ele><time>2026-04-11T08:47:58.858Z</time></trkpt><trkpt lat="41.2574183" lon="13.9800583"><ele>419.5</ele><time>2026-04-11T08:48:01.857Z</time></trkpt><trkpt lat="41.2574783" lon="13.9801333"><ele>421.0</ele><time>2026-04-11T08:48:04.857Z</time></trkpt><trkpt lat="41.2575317" lon="13.98021"><ele>422.50000000000006</ele><time>2026-04-11T08:48:07.857Z</time></trkpt><trkpt lat="41.2575717" lon="13.9802933"><ele>424.0</ele><time>2026-04-11T08:48:10.857Z</time></trkpt><trkpt lat="41.257635" lon="13.9803633"><ele>424.00000000000006</ele><time>2026-04-11T08:48:13.858Z</time></trkpt><trkpt lat="41.25768" lon="13.9804583"><ele>424.0</ele><time>2026-04-11T08:48:16.858Z</time></trkpt><trkpt lat="41.2577317" lon="13.98053"><ele>424.0</ele><time>2026-04-11T08:48:19.858Z</time></trkpt><trkpt lat="41.2577917" lon="13.9805933"><ele>424.0</ele><time>2026-04-11T08:48:22.858Z</time></trkpt><trkpt lat="41.257845" lon="13.980665"><ele>424.00000000000006</ele><time>2026-04-11T08:48:25.858Z</time></trkpt><trkpt lat="41.2579" lon="13.9807167"><ele>424.0</ele><time>2026-04-11T08:48:28.857Z</time></trkpt><trkpt lat="41.25796" lon="13.9807667"><ele>424.0</ele><time>2026-04-11T08:48:31.858Z</time></trkpt><trkpt lat="41.25801" lon="13.9808317"><ele>424.0</ele><time>2026-04-11T08:48:34.857Z</time></trkpt><trkpt lat="41.258065" lon="13.9809033"><ele>424.0</ele><time>2026-04-11T08:48:37.856Z</time></trkpt><trkpt lat="41.2581167" lon="13.98096"><ele>424.0</ele><time>2026-04-11T08:48:40.873Z</time></trkpt><trkpt lat="41.2581683" lon="13.9810167"><ele>424.0</ele><time>2026-04-11T08:48:43.859Z</time></trkpt><trkpt lat="41.2582283" lon="13.9810767"><ele>424.0</ele><time>2026-04-11T08:48:46.859Z</time></trkpt><trkpt lat="41.25829" lon="13.9811417"><ele>424.0</ele><time>2026-04-11T08:48:49.858Z</time></trkpt><trkpt lat="41.2583483" lon="13.9812133"><ele>426.14285714285717</ele><time>2026-04-11T08:48:52.859Z</time></trkpt><trkpt lat="41.2584" lon="13.9812867"><ele>428.2857142857143</ele><time>2026-04-11T08:48:56.858Z</time></trkpt><trkpt lat="41.2584617" lon="13.98133"><ele>430.42857142857144</ele><time>2026-04-11T08:48:59.858Z</time></trkpt><trkpt lat="41.258515" lon="13.9813967"><ele>432.57142857142856</ele><time>2026-04-11T08:49:02.857Z</time></trkpt><trkpt lat="41.2585567" lon="13.98146"><ele>434.71428571428567</ele><time>2026-04-11T08:49:05.859Z</time></trkpt><trkpt lat="41.2586067" lon="13.9815567"><ele>436.85714285714283</ele><time>2026-04-11T08:49:09.858Z</time></trkpt><trkpt lat="41.258665" lon="13.9816217"><ele>439.0</ele><time>2026-04-11T08:49:12.86Z</time></trkpt><trkpt lat="41.258725" lon="13.9816933"><ele>439.83333333333337</ele><time>2026-04-11T08:49:15.858Z</time></trkpt><trkpt lat="41.25879" lon="13.9817667"><ele>440.6666666666667</ele><time>2026-04-11T08:49:19.859Z</time></trkpt><trkpt lat="41.2588367" lon="13.9818317"><ele>441.5</ele><time>2026-04-11T08:49:22.858Z</time></trkpt><trkpt lat="41.2589033" lon="13.9819117"><ele>442.33333333333337</ele><time>2026-04-11T08:49:26.858Z</time></trkpt><trkpt lat="41.2589783" lon="13.98197"><ele>443.1666666666667</ele><time>2026-04-11T08:49:30.857Z</time></trkpt><trkpt lat="41.2590283" lon="13.9820283"><ele>444.0</ele><time>2026-04-11T08:49:33.856Z</time></trkpt><trkpt lat="41.2590883" lon="13.9820683"><ele>444.71428571428567</ele><time>2026-04-11T08:49:36.857Z</time></trkpt><trkpt lat="41.2591467" lon="13.98211"><ele>445.42857142857144</ele><time>2026-04-11T08:49:39.856Z</time></trkpt><trkpt lat="41.2591967" lon="13.9821617"><ele>446.1428571428571</ele><time>2026-04-11T08:49:42.857Z</time></trkpt><trkpt lat="41.2592667" lon="13.98222"><ele>446.85714285714283</ele><time>2026-04-11T08:49:45.856Z</time></trkpt><trkpt lat="41.2593167" lon="13.9822867"><ele>447.57142857142856</ele><time>2026-04-11T08:49:49.858Z</time></trkpt><trkpt lat="41.2593917" lon="13.9823417"><ele>448.2857142857143</ele><time>2026-04-11T08:49:53.857Z</time></trkpt><trkpt lat="41.2594667" lon="13.9823633"><ele>449.0</ele><time>2026-04-11T08:49:57.857Z</time></trkpt><trkpt lat="41.259525" lon="13.9824067"><ele>449.0</ele><time>2026-04-11T08:50:00.856Z</time></trkpt><trkpt lat="41.25959" lon="13.98245"><ele>448.99999999999994</ele><time>2026-04-11T08:50:03.857Z</time></trkpt><trkpt lat="41.2596517" lon="13.9824917"><ele>449.0</ele><time>2026-04-11T08:50:06.857Z</time></trkpt><trkpt lat="41.25971" lon="13.982535"><ele>449.0</ele><time>2026-04-11T08:50:09.856Z</time></trkpt><trkpt lat="41.2597683" lon="13.982575"><ele>448.99999999999994</ele><time>2026-04-11T08:50:12.858Z</time></trkpt><trkpt lat="41.259825" lon="13.9826233"><ele>449.0</ele><time>2026-04-11T08:50:15.856Z</time></trkpt><trkpt lat="41.2598867" lon="13.9826767"><ele>449.0</ele><time>2026-04-11T08:50:18.857Z</time></trkpt><trkpt lat="41.2599533" lon="13.9827183"><ele>451.0</ele><time>2026-04-11T08:50:21.856Z</time></trkpt><trkpt lat="41.26002" lon="13.982755"><ele>452.99999999999994</ele><time>2026-04-11T08:50:24.856Z</time></trkpt><trkpt lat="41.260085" lon="13.98279"><ele>455.0</ele><time>2026-04-11T08:50:27.856Z</time></trkpt><trkpt lat="41.2601433" lon="13.982835"><ele>457.0</ele><time>2026-04-11T08:50:30.858Z</time></trkpt><trkpt lat="41.2602033" lon="13.9828667"><ele>458.99999999999994</ele><time>2026-04-11T08:50:33.857Z</time></trkpt><trkpt lat="41.2602717" lon="13.98291"><ele>461.0</ele><time>2026-04-11T08:50:37.858Z</time></trkpt><trkpt lat="41.26034" lon="13.9829567"><ele>463.0</ele><time>2026-04-11T08:50:41.855Z</time></trkpt><trkpt lat="41.26039" lon="13.9830083"><ele>463.0</ele><time>2026-04-11T08:50:44.857Z</time></trkpt><trkpt lat="41.26045" lon="13.983045"><ele>462.99999999999994</ele><time>2026-04-11T08:50:47.858Z</time></trkpt><trkpt lat="41.26052" lon="13.9830917"><ele>463.0</ele><time>2026-04-11T08:50:51.859Z</time></trkpt><trkpt lat="41.2605767" lon="13.9831367"><ele>463.0</ele><time>2026-04-11T08:50:54.858Z</time></trkpt><trkpt lat="41.2606183" lon="13.9832017"><ele>462.99999999999994</ele><time>2026-04-11T08:50:57.858Z</time></trkpt><trkpt lat="41.2606517" lon="13.9832883"><ele>463.0</ele><time>2026-04-11T08:51:00.858Z</time></trkpt><trkpt lat="41.26067" lon="13.9833767"><ele>463.0</ele><time>2026-04-11T08:51:03.858Z</time></trkpt><trkpt lat="41.260675" lon="13.98347"><ele>464.85714285714283</ele><time>2026-04-11T08:51:06.858Z</time></trkpt><trkpt lat="41.2606467" lon="13.9835683"><ele>466.71428571428567</ele><time>2026-04-11T08:51:10.858Z</time></trkpt><trkpt lat="41.2605933" lon="13.9836367"><ele>468.57142857142856</ele><time>2026-04-11T08:51:14.859Z</time></trkpt><trkpt lat="41.2605417" lon="13.9837017"><ele>470.42857142857144</ele><time>2026-04-11T08:51:18.859Z</time></trkpt><trkpt lat="41.2604883" lon="13.98375"><ele>472.2857142857143</ele><time>2026-04-11T08:51:21.859Z</time></trkpt><trkpt lat="41.260425" lon="13.9837967"><ele>474.1428571428571</ele><time>2026-04-11T08:51:24.858Z</time></trkpt><trkpt lat="41.260375" lon="13.9838667"><ele>476.0</ele><time>2026-04-11T08:51:28.859Z</time></trkpt><trkpt lat="41.2603067" lon="13.9839283"><ele>475.99999999999994</ele><time>2026-04-11T08:51:32.859Z</time></trkpt><trkpt lat="41.2602467" lon="13.98397"><ele>476.0</ele><time>2026-04-11T08:51:35.859Z</time></trkpt><trkpt lat="41.26019" lon="13.9840117"><ele>476.0</ele><time>2026-04-11T08:51:38.858Z</time></trkpt><trkpt lat="41.2601033" lon="13.984045"><ele>476.0</ele><time>2026-04-11T08:51:41.859Z</time></trkpt><trkpt lat="41.2600267" lon="13.9840967"><ele>475.99999999999994</ele><time>2026-04-11T08:51:44.859Z</time></trkpt><trkpt lat="41.25995" lon="13.984115"><ele>476.0</ele><time>2026-04-11T08:51:47.859Z</time></trkpt><trkpt lat="41.25987" lon="13.9841267"><ele>475.99999999999994</ele><time>2026-04-11T08:51:50.857Z</time></trkpt><trkpt lat="41.259785" lon="13.9841317"><ele>476.0</ele><time>2026-04-11T08:51:53.857Z</time></trkpt><trkpt lat="41.2597067" lon="13.9841367"><ele>476.0</ele><time>2026-04-11T08:51:56.857Z</time></trkpt><trkpt lat="41.25963" lon="13.98414"><ele>476.0</ele><time>2026-04-11T08:51:59.857Z</time></trkpt><trkpt lat="41.2595467" lon="13.984145"><ele>475.99999999999994</ele><time>2026-04-11T08:52:02.857Z</time></trkpt><trkpt lat="41.2594733" lon="13.9841733"><ele>476.0</ele><time>2026-04-11T08:52:05.857Z</time></trkpt><trkpt lat="41.2594183" lon="13.9842183"><ele>474.8333333333333</ele><time>2026-04-11T08:52:08.857Z</time></trkpt><trkpt lat="41.2593883" lon="13.9842967"><ele>473.66666666666663</ele><time>2026-04-11T08:52:11.857Z</time></trkpt><trkpt lat="41.259395" lon="13.9844"><ele>472.5</ele><time>2026-04-11T08:52:14.858Z</time></trkpt><trkpt lat="41.259445" lon="13.9844933"><ele>471.33333333333337</ele><time>2026-04-11T08:52:18.856Z</time></trkpt><trkpt lat="41.2594917" lon="13.984555"><ele>470.1666666666667</ele><time>2026-04-11T08:52:20.858Z</time></trkpt><trkpt lat="41.2595667" lon="13.9846133"><ele>469.0</ele><time>2026-04-11T08:52:23.858Z</time></trkpt><trkpt lat="41.259655" lon="13.984635"><ele>469.00000000000006</ele><time>2026-04-11T08:52:26.857Z</time></trkpt><trkpt lat="41.2597233" lon="13.9846767"><ele>469.0</ele><time>2026-04-11T08:52:29.858Z</time></trkpt><trkpt lat="41.2597883" lon="13.9847067"><ele>469.0</ele><time>2026-04-11T08:52:32.862Z</time></trkpt><trkpt lat="41.25986" lon="13.9847283"><ele>469.0</ele><time>2026-04-11T08:52:35.861Z</time></trkpt><trkpt lat="41.25994" lon="13.9847333"><ele>469.00000000000006</ele><time>2026-04-11T08:52:38.858Z</time></trkpt><trkpt lat="41.2600217" lon="13.9847483"><ele>469.0</ele><time>2026-04-11T08:52:41.859Z</time></trkpt><trkpt lat="41.2601033" lon="13.98477"><ele>470.2857142857143</ele><time>2026-04-11T08:52:44.859Z</time></trkpt><trkpt lat="41.2601683" lon="13.98478"><ele>471.57142857142856</ele><time>2026-04-11T08:52:46.858Z</time></trkpt><trkpt lat="41.2602317" lon="13.9847983"><ele>472.8571428571429</ele><time>2026-04-11T08:52:48.858Z</time></trkpt><trkpt lat="41.2602983" lon="13.9848217"><ele>474.14285714285717</ele><time>2026-04-11T08:52:50.857Z</time></trkpt><trkpt lat="41.2603633" lon="13.984835"><ele>475.42857142857144</ele><time>2026-04-11T08:52:52.858Z</time></trkpt><trkpt lat="41.260425" lon="13.9848517"><ele>476.7142857142858</ele><time>2026-04-11T08:52:54.859Z</time></trkpt><trkpt lat="41.26049" lon="13.9848767"><ele>478.00000000000006</ele><time>2026-04-11T08:52:56.858Z</time></trkpt><trkpt lat="41.260555" lon="13.9849"><ele>479.33333333333337</ele><time>2026-04-11T08:52:58.858Z</time></trkpt><trkpt lat="41.26064" lon="13.9849267"><ele>480.6666666666667</ele><time>2026-04-11T08:53:01.859Z</time></trkpt><trkpt lat="41.260725" lon="13.984935"><ele>482.0</ele><time>2026-04-11T08:53:04.859Z</time></trkpt><trkpt lat="41.260805" lon="13.9849383"><ele>483.33333333333337</ele><time>2026-04-11T08:53:07.858Z</time></trkpt><trkpt lat="41.2608933" lon="13.9849367"><ele>484.6666666666667</ele><time>2026-04-11T08:53:10.859Z</time></trkpt><trkpt lat="41.260975" lon="13.9849283"><ele>486.0</ele><time>2026-04-11T08:53:13.859Z</time></trkpt><trkpt lat="41.26106" lon="13.9849233"><ele>486.0</ele><time>2026-04-11T08:53:16.859Z</time></trkpt><trkpt lat="41.2611467" lon="13.9849167"><ele>486.0</ele><time>2026-04-11T08:53:19.859Z</time></trkpt><trkpt lat="41.2612117" lon="13.9849133"><ele>486.0</ele><time>2026-04-11T08:53:21.859Z</time></trkpt><trkpt lat="41.2613017" lon="13.98491"><ele>486.0</ele><time>2026-04-11T08:53:24.857Z</time></trkpt><trkpt lat="41.26138" lon="13.984895"><ele>486.0</ele><time>2026-04-11T08:53:27.857Z</time></trkpt><trkpt lat="41.2614567" lon="13.9848783"><ele>486.0</ele><time>2026-04-11T08:53:30.856Z</time></trkpt><trkpt lat="41.2615317" lon="13.9848233"><ele>487.3333333333333</ele><time>2026-04-11T08:53:33.856Z</time></trkpt><trkpt lat="41.2615817" lon="13.9847367"><ele>488.66666666666663</ele><time>2026-04-11T08:53:36.857Z</time></trkpt><trkpt lat="41.2616233" lon="13.984635"><ele>490.0</ele><time>2026-04-11T08:53:39.856Z</time></trkpt><trkpt lat="41.261665" lon="13.9845683"><ele>491.3333333333333</ele><time>2026-04-11T08:53:41.858Z</time></trkpt><trkpt lat="41.26172" lon="13.9844783"><ele>492.66666666666663</ele><time>2026-04-11T08:53:44.857Z</time></trkpt><trkpt lat="41.2617817" lon="13.9844017"><ele>494.0</ele><time>2026-04-11T08:53:47.857Z</time></trkpt><trkpt lat="41.2618433" lon="13.9843383"><ele>493.99999999999994</ele><time>2026-04-11T08:53:50.858Z</time></trkpt><trkpt lat="41.2619167" lon="13.9843017"><ele>494.0</ele><time>2026-04-11T08:53:53.859Z</time></trkpt><trkpt lat="41.2619933" lon="13.9842667"><ele>494.0</ele><time>2026-04-11T08:53:56.858Z</time></trkpt><trkpt lat="41.2620817" lon="13.9842267"><ele>494.0</ele><time>2026-04-11T08:53:59.861Z</time></trkpt><trkpt lat="41.2621633" lon="13.984175"><ele>493.99999999999994</ele><time>2026-04-11T08:54:02.858Z</time></trkpt><trkpt lat="41.2622417" lon="13.9841317"><ele>494.0</ele><time>2026-04-11T08:54:05.856Z</time></trkpt><trkpt lat="41.2623133" lon="13.9840967"><ele>496.66666666666663</ele><time>2026-04-11T08:54:08.858Z</time></trkpt><trkpt lat="41.2623717" lon="13.98406"><ele>499.3333333333333</ele><time>2026-04-11T08:54:11.86Z</time></trkpt><trkpt lat="41.2624567" lon="13.984015"><ele>502.0</ele><time>2026-04-11T08:54:14.856Z</time></trkpt><trkpt lat="41.2625383" lon="13.9839583"><ele>504.66666666666663</ele><time>2026-04-11T08:54:17.86Z</time></trkpt><trkpt lat="41.2626183" lon="13.983895"><ele>507.3333333333333</ele><time>2026-04-11T08:54:20.859Z</time></trkpt><trkpt lat="41.262675" lon="13.983815"><ele>510.0</ele><time>2026-04-11T08:54:23.857Z</time></trkpt><trkpt lat="41.2627067" lon="13.9837117"><ele>510.0</ele><time>2026-04-11T08:54:26.858Z</time></trkpt><trkpt lat="41.2627" lon="13.9835933"><ele>510.0</ele><time>2026-04-11T08:54:29.856Z</time></trkpt><trkpt lat="41.2626767" lon="13.9834767"><ele>510.0</ele><time>2026-04-11T08:54:32.858Z</time></trkpt><trkpt lat="41.262625" lon="13.983375"><ele>510.0</ele><time>2026-04-11T08:54:35.857Z</time></trkpt><trkpt lat="41.2625817" lon="13.9833117"><ele>510.0</ele><time>2026-04-11T08:54:37.857Z</time></trkpt><trkpt lat="41.2625467" lon="13.9832383"><ele>510.0</ele><time>2026-04-11T08:54:39.857Z</time></trkpt><trkpt lat="41.2625167" lon="13.9831583"><ele>510.0</ele><time>2026-04-11T08:54:41.859Z</time></trkpt><trkpt lat="41.262485" lon="13.9830817"><ele>510.0</ele><time>2026-04-11T08:54:43.857Z</time></trkpt><trkpt lat="41.26246" lon="13.9829683"><ele>510.0</ele><time>2026-04-11T08:54:46.856Z</time></trkpt><trkpt lat="41.262455" lon="13.98285"><ele>510.0</ele><time>2026-04-11T08:54:49.857Z</time></trkpt><trkpt lat="41.262455" lon="13.9827267"><ele>510.0</ele><time>2026-04-11T08:54:52.856Z</time></trkpt><trkpt lat="41.2624667" lon="13.9826333"><ele>510.0</ele><time>2026-04-11T08:54:54.856Z</time></trkpt><trkpt lat="41.2624767" lon="13.982535"><ele>510.5714285714286</ele><time>2026-04-11T08:54:56.857Z</time></trkpt><trkpt lat="41.2624733" lon="13.9824383"><ele>511.1428571428572</ele><time>2026-04-11T08:54:58.856Z</time></trkpt><trkpt lat="41.26246" lon="13.9823517"><ele>511.7142857142857</ele><time>2026-04-11T08:55:00.856Z</time></trkpt><trkpt lat="41.26243" lon="13.982245"><ele>512.2857142857143</ele><time>2026-04-11T08:55:03.857Z</time></trkpt><trkpt lat="41.2623883" lon="13.9821667"><ele>512.8571428571429</ele><time>2026-04-11T08:55:05.859Z</time></trkpt><trkpt lat="41.2623417" lon="13.9821017"><ele>513.4285714285714</ele><time>2026-04-11T08:55:07.861Z</time></trkpt><trkpt lat="41.262285" lon="13.982045"><ele>514.0</ele><time>2026-04-11T08:55:09.858Z</time></trkpt><trkpt lat="41.2622267" lon="13.9819933"><ele>514.0</ele><time>2026-04-11T08:55:11.857Z</time></trkpt><trkpt lat="41.2621717" lon="13.9819467"><ele>514.0</ele><time>2026-04-11T08:55:13.858Z</time></trkpt><trkpt lat="41.262105" lon="13.9818783"><ele>514.0</ele><time>2026-04-11T08:55:16.857Z</time></trkpt><trkpt lat="41.262025" lon="13.98182"><ele>514.0</ele><time>2026-04-11T08:55:19.857Z</time></trkpt><trkpt lat="41.2619667" lon="13.9817783"><ele>514.0</ele><time>2026-04-11T08:55:21.857Z</time></trkpt><trkpt lat="41.2618883" lon="13.9817183"><ele>514.0</ele><time>2026-04-11T08:55:24.857Z</time></trkpt><trkpt lat="41.2618167" lon="13.981675"><ele>514.0</ele><time>2026-04-11T08:55:27.857Z</time></trkpt><trkpt lat="41.261745" lon="13.9815967"><ele>514.0</ele><time>2026-04-11T08:55:30.857Z</time></trkpt><trkpt lat="41.261705" lon="13.9815317"><ele>514.0</ele><time>2026-04-11T08:55:32.858Z</time></trkpt><trkpt lat="41.26169" lon="13.981445"><ele>514.0</ele><time>2026-04-11T08:55:34.858Z</time></trkpt><trkpt lat="41.2617133" lon="13.9813617"><ele>514.0</ele><time>2026-04-11T08:55:36.858Z</time></trkpt><trkpt lat="41.2617767" lon="13.9812983"><ele>514.0</ele><time>2026-04-11T08:55:39.857Z</time></trkpt><trkpt lat="41.2618417" lon="13.98129"><ele>514.0</ele><time>2026-04-11T08:55:42.857Z</time></trkpt><trkpt lat="41.2619117" lon="13.981325"><ele>514.0</ele><time>2026-04-11T08:55:46.858Z</time></trkpt><trkpt lat="41.26197" lon="13.9813717"><ele>514.0</ele><time>2026-04-11T08:55:49.858Z</time></trkpt><trkpt lat="41.2620383" lon="13.9814117"><ele>514.0</ele><time>2026-04-11T08:55:52.857Z</time></trkpt><trkpt lat="41.2621133" lon="13.981455"><ele>514.0</ele><time>2026-04-11T08:55:55.858Z</time></trkpt><trkpt lat="41.26219" lon="13.9814967"><ele>514.0</ele><time>2026-04-11T08:55:58.859Z</time></trkpt><trkpt lat="41.2622617" lon="13.9815267"><ele>514.0</ele><time>2026-04-11T08:56:01.857Z</time></trkpt><trkpt lat="41.2623233" lon="13.9815567"><ele>514.0</ele><time>2026-04-11T08:56:04.858Z</time></trkpt><trkpt lat="41.262395" lon="13.9815917"><ele>515.8571428571429</ele><time>2026-04-11T08:56:08.858Z</time></trkpt><trkpt lat="41.2624567" lon="13.981615"><ele>517.7142857142858</ele><time>2026-04-11T08:56:11.858Z</time></trkpt><trkpt lat="41.2625367" lon="13.9816417"><ele>519.5714285714287</ele><time>2026-04-11T08:56:15.856Z</time></trkpt><trkpt lat="41.2626067" lon="13.9816483"><ele>521.4285714285714</ele><time>2026-04-11T08:56:18.858Z</time></trkpt><trkpt lat="41.2626767" lon="13.9816317"><ele>523.2857142857143</ele><time>2026-04-11T08:56:21.857Z</time></trkpt><trkpt lat="41.26275" lon="13.9816183"><ele>525.1428571428572</ele><time>2026-04-11T08:56:24.858Z</time></trkpt><trkpt lat="41.2628267" lon="13.9816083"><ele>527.0</ele><time>2026-04-11T08:56:27.859Z</time></trkpt><trkpt lat="41.2628917" lon="13.98159"><ele>527.0000000000001</ele><time>2026-04-11T08:56:30.857Z</time></trkpt><trkpt lat="41.2629717" lon="13.98157"><ele>527.0</ele><time>2026-04-11T08:56:34.857Z</time></trkpt><trkpt lat="41.2630333" lon="13.9815367"><ele>527.0</ele><time>2026-04-11T08:56:37.858Z</time></trkpt><trkpt lat="41.2630917" lon="13.9814917"><ele>527.0</ele><time>2026-04-11T08:56:40.856Z</time></trkpt><trkpt lat="41.2631483" lon="13.9814433"><ele>527.0</ele><time>2026-04-11T08:56:43.858Z</time></trkpt><trkpt lat="41.26321" lon="13.9814067"><ele>527.0000000000001</ele><time>2026-04-11T08:56:46.859Z</time></trkpt><trkpt lat="41.263275" lon="13.9813517"><ele>527.0</ele><time>2026-04-11T08:56:49.859Z</time></trkpt><trkpt lat="41.2633317" lon="13.9813"><ele>528.5714285714287</ele><time>2026-04-11T08:56:52.858Z</time></trkpt><trkpt lat="41.26339" lon="13.98124"><ele>530.1428571428571</ele><time>2026-04-11T08:56:55.857Z</time></trkpt><trkpt lat="41.263445" lon="13.98119"><ele>531.7142857142858</ele><time>2026-04-11T08:56:58.858Z</time></trkpt><trkpt lat="41.263495" lon="13.9811383"><ele>533.2857142857143</ele><time>2026-04-11T08:57:01.859Z</time></trkpt><trkpt lat="41.2635583" lon="13.9810933"><ele>534.8571428571429</ele><time>2026-04-11T08:57:04.858Z</time></trkpt><trkpt lat="41.26361" lon="13.981045"><ele>536.4285714285714</ele><time>2026-04-11T08:57:07.858Z</time></trkpt><trkpt lat="41.2636583" lon="13.9809867"><ele>538.0</ele><time>2026-04-11T08:57:10.857Z</time></trkpt><trkpt lat="41.263715" lon="13.98093"><ele>538.0</ele><time>2026-04-11T08:57:13.859Z</time></trkpt><trkpt lat="41.2637867" lon="13.9808783"><ele>538.0</ele><time>2026-04-11T08:57:16.859Z</time></trkpt><trkpt lat="41.263855" lon="13.9808233"><ele>538.0</ele><time>2026-04-11T08:57:19.859Z</time></trkpt><trkpt lat="41.263925" lon="13.9807633"><ele>538.0</ele><time>2026-04-11T08:57:22.858Z</time></trkpt><trkpt lat="41.263985" lon="13.9807033"><ele>538.0</ele><time>2026-04-11T08:57:25.858Z</time></trkpt><trkpt lat="41.2640483" lon="13.9806533"><ele>538.0</ele><time>2026-04-11T08:57:28.858Z</time></trkpt><trkpt lat="41.2641167" lon="13.9806"><ele>539.7142857142858</ele><time>2026-04-11T08:57:31.857Z</time></trkpt><trkpt lat="41.26417" lon="13.9805433"><ele>541.4285714285714</ele><time>2026-04-11T08:57:34.859Z</time></trkpt><trkpt lat="41.2642383" lon="13.9805133"><ele>543.1428571428571</ele><time>2026-04-11T08:57:37.858Z</time></trkpt><trkpt lat="41.2642983" lon="13.9804383"><ele>544.8571428571429</ele><time>2026-04-11T08:57:40.857Z</time></trkpt><trkpt lat="41.2643517" lon="13.9803867"><ele>546.5714285714286</ele><time>2026-04-11T08:57:43.858Z</time></trkpt><trkpt lat="41.264415" lon="13.9803367"><ele>548.2857142857143</ele><time>2026-04-11T08:57:47.856Z</time></trkpt><trkpt lat="41.264475" lon="13.9803067"><ele>550.0</ele><time>2026-04-11T08:57:50.857Z</time></trkpt><trkpt lat="41.2645417" lon="13.9802833"><ele>550.0</ele><time>2026-04-11T08:57:53.857Z</time></trkpt><trkpt lat="41.2646117" lon="13.98027"><ele>550.0</ele><time>2026-04-11T08:57:56.857Z</time></trkpt><trkpt lat="41.2646967" lon="13.9802517"><ele>550.0</ele><time>2026-04-11T08:57:59.858Z</time></trkpt><trkpt lat="41.2647817" lon="13.9802433"><ele>550.0</ele><time>2026-04-11T08:58:02.859Z</time></trkpt><trkpt lat="41.264875" lon="13.980225"><ele>550.0</ele><time>2026-04-11T08:58:05.859Z</time></trkpt><trkpt lat="41.2649517" lon="13.9802233"><ele>550.0</ele><time>2026-04-11T08:58:08.859Z</time></trkpt><trkpt lat="41.2650217" lon="13.9802183"><ele>552.5</ele><time>2026-04-11T08:58:11.859Z</time></trkpt><trkpt lat="41.265085" lon="13.9802233"><ele>555.0</ele><time>2026-04-11T08:58:13.86Z</time></trkpt><trkpt lat="41.26517" lon="13.9802283"><ele>557.5</ele><time>2026-04-11T08:58:16.859Z</time></trkpt><trkpt lat="41.265255" lon="13.98023"><ele>560.0</ele><time>2026-04-11T08:58:19.857Z</time></trkpt><trkpt lat="41.2653367" lon="13.9802117"><ele>562.5</ele><time>2026-04-11T08:58:22.857Z</time></trkpt><trkpt lat="41.2654233" lon="13.9802167"><ele>565.0</ele><time>2026-04-11T08:58:25.858Z</time></trkpt><trkpt lat="41.2655183" lon="13.98019"><ele>565.0</ele><time>2026-04-11T08:58:28.859Z</time></trkpt><trkpt lat="41.2655817" lon="13.9801467"><ele>565.0</ele><time>2026-04-11T08:58:30.858Z</time></trkpt><trkpt lat="41.2656333" lon="13.9800917"><ele>565.0</ele><time>2026-04-11T08:58:32.858Z</time></trkpt><trkpt lat="41.2656867" lon="13.9800233"><ele>565.0</ele><time>2026-04-11T08:58:34.858Z</time></trkpt><trkpt lat="41.2657317" lon="13.9799383"><ele>565.0</ele><time>2026-04-11T08:58:36.857Z</time></trkpt><trkpt lat="41.2657633" lon="13.9798417"><ele>565.0</ele><time>2026-04-11T08:58:38.858Z</time></trkpt><trkpt lat="41.265785" lon="13.9797283"><ele>564.3333333333334</ele><time>2026-04-11T08:58:40.858Z</time></trkpt><trkpt lat="41.2658083" lon="13.9796183"><ele>563.6666666666667</ele><time>2026-04-11T08:58:42.859Z</time></trkpt><trkpt lat="41.26584" lon="13.9795117"><ele>563.0</ele><time>2026-04-11T08:58:44.859Z</time></trkpt><trkpt lat="41.26586" lon="13.979385"><ele>562.3333333333334</ele><time>2026-04-11T08:58:46.857Z</time></trkpt><trkpt lat="41.265875" lon="13.9792683"><ele>561.6666666666666</ele><time>2026-04-11T08:58:48.857Z</time></trkpt><trkpt lat="41.26589" lon="13.9791567"><ele>561.0</ele><time>2026-04-11T08:58:50.858Z</time></trkpt><trkpt lat="41.2659017" lon="13.9790333"><ele>560.8333333333334</ele><time>2026-04-11T08:58:52.856Z</time></trkpt><trkpt lat="41.265905" lon="13.9789017"><ele>560.6666666666666</ele><time>2026-04-11T08:58:54.858Z</time></trkpt><trkpt lat="41.2659017" lon="13.9787917"><ele>560.5</ele><time>2026-04-11T08:58:56.856Z</time></trkpt><trkpt lat="41.2658883" lon="13.9786883"><ele>560.3333333333333</ele><time>2026-04-11T08:58:58.857Z</time></trkpt><trkpt lat="41.265865" lon="13.9785967"><ele>560.1666666666666</ele><time>2026-04-11T08:59:00.857Z</time></trkpt><trkpt lat="41.26584" lon="13.9785033"><ele>560.0</ele><time>2026-04-11T08:59:02.857Z</time></trkpt><trkpt lat="41.2658233" lon="13.9784117"><ele>560.7142857142857</ele><time>2026-04-11T08:59:04.857Z</time></trkpt><trkpt lat="41.2657883" lon="13.9783017"><ele>561.4285714285714</ele><time>2026-04-11T08:59:07.857Z</time></trkpt><trkpt lat="41.2657683" lon="13.9782167"><ele>562.1428571428571</ele><time>2026-04-11T08:59:09.857Z</time></trkpt><trkpt lat="41.2657533" lon="13.9781283"><ele>562.8571428571429</ele><time>2026-04-11T08:59:11.857Z</time></trkpt><trkpt lat="41.2657483" lon="13.9780383"><ele>563.5714285714286</ele><time>2026-04-11T08:59:13.857Z</time></trkpt><trkpt lat="41.2657533" lon="13.97795"><ele>564.2857142857142</ele><time>2026-04-11T08:59:15.857Z</time></trkpt><trkpt lat="41.2657733" lon="13.9778567"><ele>565.0</ele><time>2026-04-11T08:59:17.857Z</time></trkpt><trkpt lat="41.2657917" lon="13.9777667"><ele>565.0</ele><time>2026-04-11T08:59:19.857Z</time></trkpt><trkpt lat="41.26581" lon="13.9776733"><ele>565.0</ele><time>2026-04-11T08:59:21.857Z</time></trkpt><trkpt lat="41.265825" lon="13.97758"><ele>565.0</ele><time>2026-04-11T08:59:23.857Z</time></trkpt><trkpt lat="41.2658483" lon="13.9774933"><ele>565.0</ele><time>2026-04-11T08:59:25.857Z</time></trkpt><trkpt lat="41.26588" lon="13.9773783"><ele>565.0</ele><time>2026-04-11T08:59:28.857Z</time></trkpt><trkpt lat="41.2659167" lon="13.9772683"><ele>565.0</ele><time>2026-04-11T08:59:31.856Z</time></trkpt><trkpt lat="41.2659383" lon="13.9771867"><ele>565.1428571428571</ele><time>2026-04-11T08:59:33.857Z</time></trkpt><trkpt lat="41.2659683" lon="13.9771117"><ele>565.2857142857142</ele><time>2026-04-11T08:59:35.857Z</time></trkpt><trkpt lat="41.266" lon="13.9770333"><ele>565.4285714285714</ele><time>2026-04-11T08:59:37.859Z</time></trkpt><trkpt lat="41.2660333" lon="13.9769617"><ele>565.5714285714286</ele><time>2026-04-11T08:59:39.858Z</time></trkpt><trkpt lat="41.2660667" lon="13.9768833"><ele>565.7142857142858</ele><time>2026-04-11T08:59:41.857Z</time></trkpt><trkpt lat="41.2661083" lon="13.9768117"><ele>565.8571428571429</ele><time>2026-04-11T08:59:43.86Z</time></trkpt><trkpt lat="41.2661783" lon="13.976745"><ele>566.0</ele><time>2026-04-11T08:59:46.857Z</time></trkpt><trkpt lat="41.26623" lon="13.976695"><ele>565.6666666666666</ele><time>2026-04-11T08:59:48.857Z</time></trkpt><trkpt lat="41.2663067" lon="13.9766317"><ele>565.3333333333333</ele><time>2026-04-11T08:59:51.858Z</time></trkpt><trkpt lat="41.2663667" lon="13.976595"><ele>565.0</ele><time>2026-04-11T08:59:53.858Z</time></trkpt><trkpt lat="41.26643" lon="13.976555"><ele>564.6666666666666</ele><time>2026-04-11T08:59:55.857Z</time></trkpt><trkpt lat="41.2665033" lon="13.9764917"><ele>564.3333333333334</ele><time>2026-04-11T08:59:58.857Z</time></trkpt><trkpt lat="41.26659" lon="13.9764483"><ele>564.0</ele><time>2026-04-11T09:00:00.856Z</time></trkpt><trkpt lat="41.2666767" lon="13.9764"><ele>566.0</ele><time>2026-04-11T09:00:02.856Z</time></trkpt><trkpt lat="41.266755" lon="13.9763417"><ele>568.0</ele><time>2026-04-11T09:00:04.856Z</time></trkpt><trkpt lat="41.2668167" lon="13.9762767"><ele>570.0</ele><time>2026-04-11T09:00:06.856Z</time></trkpt><trkpt lat="41.2668917" lon="13.97624"><ele>572.0</ele><time>2026-04-11T09:00:08.857Z</time></trkpt><trkpt lat="41.2669683" lon="13.9761883"><ele>574.0</ele><time>2026-04-11T09:00:10.855Z</time></trkpt><trkpt lat="41.267045" lon="13.976135"><ele>576.0</ele><time>2026-04-11T09:00:12.857Z</time></trkpt><trkpt lat="41.2671217" lon="13.9760867"><ele>576.0000000000001</ele><time>2026-04-11T09:00:14.857Z</time></trkpt><trkpt lat="41.267195" lon="13.9760367"><ele>576.0</ele><time>2026-04-11T09:00:16.856Z</time></trkpt><trkpt lat="41.2672583" lon="13.9759833"><ele>576.0</ele><time>2026-04-11T09:00:18.856Z</time></trkpt><trkpt lat="41.2673133" lon="13.9759267"><ele>576.0</ele><time>2026-04-11T09:00:20.857Z</time></trkpt><trkpt lat="41.267375" lon="13.9758683"><ele>576.0</ele><time>2026-04-11T09:00:22.856Z</time></trkpt><trkpt lat="41.2674283" lon="13.9758083"><ele>576.0000000000001</ele><time>2026-04-11T09:00:24.856Z</time></trkpt><trkpt lat="41.2674783" lon="13.9757483"><ele>576.0</ele><time>2026-04-11T09:00:26.856Z</time></trkpt><trkpt lat="41.2675267" lon="13.9756767"><ele>576.2857142857143</ele><time>2026-04-11T09:00:28.857Z</time></trkpt><trkpt lat="41.2675733" lon="13.97561"><ele>576.5714285714286</ele><time>2026-04-11T09:00:30.856Z</time></trkpt><trkpt lat="41.2676267" lon="13.9755417"><ele>576.8571428571429</ele><time>2026-04-11T09:00:32.857Z</time></trkpt><trkpt lat="41.26767" lon="13.9754783"><ele>577.1428571428571</ele><time>2026-04-11T09:00:34.856Z</time></trkpt><trkpt lat="41.267725" lon="13.9754133"><ele>577.4285714285714</ele><time>2026-04-11T09:00:36.856Z</time></trkpt><trkpt lat="41.2677917" lon="13.9753367"><ele>577.7142857142858</ele><time>2026-04-11T09:00:38.855Z</time></trkpt><trkpt lat="41.2678483" lon="13.9752667"><ele>578.0</ele><time>2026-04-11T09:00:40.856Z</time></trkpt><trkpt lat="41.267895" lon="13.97519"><ele>578.0</ele><time>2026-04-11T09:00:42.857Z</time></trkpt><trkpt lat="41.2679517" lon="13.9751117"><ele>578.0</ele><time>2026-04-11T09:00:44.859Z</time></trkpt><trkpt lat="41.2680033" lon="13.9750483"><ele>578.0</ele><time>2026-04-11T09:00:46.857Z</time></trkpt><trkpt lat="41.26806" lon="13.9749717"><ele>578.0</ele><time>2026-04-11T09:00:48.857Z</time></trkpt><trkpt lat="41.2681167" lon="13.9748983"><ele>578.0</ele><time>2026-04-11T09:00:50.857Z</time></trkpt><trkpt lat="41.2681767" lon="13.9748217"><ele>578.0</ele><time>2026-04-11T09:00:52.857Z</time></trkpt><trkpt lat="41.2682283" lon="13.9747533"><ele>578.0</ele><time>2026-04-11T09:00:54.857Z</time></trkpt><trkpt lat="41.2682917" lon="13.9746567"><ele>578.0</ele><time>2026-04-11T09:00:57.856Z</time></trkpt><trkpt lat="41.2683283" lon="13.9745867"><ele>578.0</ele><time>2026-04-11T09:00:59.858Z</time></trkpt><trkpt lat="41.2683783" lon="13.9745133"><ele>578.0</ele><time>2026-04-11T09:01:01.857Z</time></trkpt><trkpt lat="41.2684317" lon="13.9744383"><ele>578.0</ele><time>2026-04-11T09:01:03.856Z</time></trkpt><trkpt lat="41.2684883" lon="13.9743683"><ele>578.0</ele><time>2026-04-11T09:01:05.858Z</time></trkpt><trkpt lat="41.2685483" lon="13.9742983"><ele>578.0</ele><time>2026-04-11T09:01:07.856Z</time></trkpt><trkpt lat="41.2685983" lon="13.97423"><ele>578.0</ele><time>2026-04-11T09:01:09.856Z</time></trkpt><trkpt lat="41.2686533" lon="13.9741667"><ele>578.0</ele><time>2026-04-11T09:01:11.857Z</time></trkpt><trkpt lat="41.26872" lon="13.9740933"><ele>578.0</ele><time>2026-04-11T09:01:13.857Z</time></trkpt><trkpt lat="41.2687733" lon="13.974025"><ele>578.0</ele><time>2026-04-11T09:01:15.857Z</time></trkpt><trkpt lat="41.2688367" lon="13.973945"><ele>578.0</ele><time>2026-04-11T09:01:17.857Z</time></trkpt><trkpt lat="41.2688967" lon="13.973865"><ele>577.1666666666666</ele><time>2026-04-11T09:01:19.859Z</time></trkpt><trkpt lat="41.2689633" lon="13.9737933"><ele>576.3333333333333</ele><time>2026-04-11T09:01:21.856Z</time></trkpt><trkpt lat="41.2690367" lon="13.97372"><ele>575.5</ele><time>2026-04-11T09:01:23.856Z</time></trkpt><trkpt lat="41.2691117" lon="13.9736483"><ele>574.6666666666666</ele><time>2026-04-11T09:01:25.857Z</time></trkpt><trkpt lat="41.26918" lon="13.9735783"><ele>573.8333333333334</ele><time>2026-04-11T09:01:27.856Z</time></trkpt><trkpt lat="41.269245" lon="13.973515"><ele>573.0</ele><time>2026-04-11T09:01:29.857Z</time></trkpt><trkpt lat="41.26931" lon="13.9734533"><ele>573.0</ele><time>2026-04-11T09:01:31.858Z</time></trkpt><trkpt lat="41.2693733" lon="13.9734"><ele>573.0</ele><time>2026-04-11T09:01:33.857Z</time></trkpt><trkpt lat="41.2694367" lon="13.9733467"><ele>573.0</ele><time>2026-04-11T09:01:35.857Z</time></trkpt><trkpt lat="41.2694917" lon="13.9732867"><ele>573.0</ele><time>2026-04-11T09:01:37.857Z</time></trkpt><trkpt lat="41.2695667" lon="13.973215"><ele>573.0</ele><time>2026-04-11T09:01:40.858Z</time></trkpt><trkpt lat="41.269625" lon="13.9731183"><ele>573.0</ele><time>2026-04-11T09:01:43.857Z</time></trkpt><trkpt lat="41.2696633" lon="13.9730417"><ele>572.5714285714286</ele><time>2026-04-11T09:01:45.858Z</time></trkpt><trkpt lat="41.26972" lon="13.9729767"><ele>572.1428571428572</ele><time>2026-04-11T09:01:47.857Z</time></trkpt><trkpt lat="41.2697733" lon="13.9729167"><ele>571.7142857142858</ele><time>2026-04-11T09:01:49.856Z</time></trkpt><trkpt lat="41.2698317" lon="13.97286"><ele>571.2857142857143</ele><time>2026-04-11T09:01:51.856Z</time></trkpt><trkpt lat="41.2698817" lon="13.972805"><ele>570.8571428571429</ele><time>2026-04-11T09:01:53.857Z</time></trkpt><trkpt lat="41.2699333" lon="13.97275"><ele>570.4285714285714</ele><time>2026-04-11T09:01:55.857Z</time></trkpt><trkpt lat="41.2700083" lon="13.97268"><ele>570.0</ele><time>2026-04-11T09:01:58.856Z</time></trkpt><trkpt lat="41.2701" lon="13.97262"><ele>570.0</ele><time>2026-04-11T09:02:01.858Z</time></trkpt><trkpt lat="41.2701783" lon="13.9725733"><ele>570.0</ele><time>2026-04-11T09:02:04.856Z</time></trkpt><trkpt lat="41.270255" lon="13.97251"><ele>570.0</ele><time>2026-04-11T09:02:07.856Z</time></trkpt><trkpt lat="41.2703117" lon="13.9724733"><ele>570.0</ele><time>2026-04-11T09:02:09.856Z</time></trkpt><trkpt lat="41.2703733" lon="13.9724367"><ele>570.0</ele><time>2026-04-11T09:02:11.857Z</time></trkpt><trkpt lat="41.2704317" lon="13.9724033"><ele>570.0</ele><time>2026-04-11T09:02:13.856Z</time></trkpt><trkpt lat="41.27051" lon="13.9723483"><ele>571.6666666666666</ele><time>2026-04-11T09:02:16.857Z</time></trkpt><trkpt lat="41.2705767" lon="13.9722817"><ele>573.3333333333334</ele><time>2026-04-11T09:02:19.857Z</time></trkpt><trkpt lat="41.2706533" lon="13.9722183"><ele>575.0</ele><time>2026-04-11T09:02:22.857Z</time></trkpt><trkpt lat="41.2707217" lon="13.9721533"><ele>576.6666666666667</ele><time>2026-04-11T09:02:25.856Z</time></trkpt><trkpt lat="41.2707683" lon="13.97209"><ele>578.3333333333334</ele><time>2026-04-11T09:02:27.856Z</time></trkpt><trkpt lat="41.2708167" lon="13.9720133"><ele>580.0</ele><time>2026-04-11T09:02:29.857Z</time></trkpt><trkpt lat="41.2708533" lon="13.9719317"><ele>580.0</ele><time>2026-04-11T09:02:31.857Z</time></trkpt><trkpt lat="41.2708833" lon="13.9718533"><ele>580.0</ele><time>2026-04-11T09:02:33.856Z</time></trkpt><trkpt lat="41.27092" lon="13.971775"><ele>580.0</ele><time>2026-04-11T09:02:35.857Z</time></trkpt><trkpt lat="41.2709583" lon="13.9716733"><ele>580.0</ele><time>2026-04-11T09:02:37.855Z</time></trkpt><trkpt lat="41.2709867" lon="13.9715917"><ele>580.0</ele><time>2026-04-11T09:02:39.857Z</time></trkpt><trkpt lat="41.2710217" lon="13.97152"><ele>580.0</ele><time>2026-04-11T09:02:41.857Z</time></trkpt><trkpt lat="41.2710633" lon="13.97142"><ele>580.0</ele><time>2026-04-11T09:02:44.855Z</time></trkpt><trkpt lat="41.27109" lon="13.9713433"><ele>583.2857142857143</ele><time>2026-04-11T09:02:46.856Z</time></trkpt><trkpt lat="41.2711267" lon="13.9712683"><ele>586.5714285714287</ele><time>2026-04-11T09:02:48.857Z</time></trkpt><trkpt lat="41.27116" lon="13.9711783"><ele>589.8571428571429</ele><time>2026-04-11T09:02:50.857Z</time></trkpt><trkpt lat="41.2711983" lon="13.9710983"><ele>593.1428571428571</ele><time>2026-04-11T09:02:52.856Z</time></trkpt><trkpt lat="41.271225" lon="13.971015"><ele>596.4285714285713</ele><time>2026-04-11T09:02:54.859Z</time></trkpt><trkpt lat="41.27125" lon="13.9709333"><ele>599.7142857142858</ele><time>2026-04-11T09:02:56.858Z</time></trkpt><trkpt lat="41.2712833" lon="13.9708433"><ele>603.0</ele><time>2026-04-11T09:02:58.858Z</time></trkpt><trkpt lat="41.2713283" lon="13.9707583"><ele>601.8333333333334</ele><time>2026-04-11T09:03:00.857Z</time></trkpt><trkpt lat="41.271375" lon="13.9706733"><ele>600.6666666666666</ele><time>2026-04-11T09:03:02.858Z</time></trkpt><trkpt lat="41.2714383" lon="13.970595"><ele>599.5</ele><time>2026-04-11T09:03:04.857Z</time></trkpt><trkpt lat="41.27151" lon="13.970545"><ele>598.3333333333333</ele><time>2026-04-11T09:03:06.857Z</time></trkpt><trkpt lat="41.2715867" lon="13.9705017"><ele>597.1666666666666</ele><time>2026-04-11T09:03:08.859Z</time></trkpt><trkpt lat="41.2716617" lon="13.9704683"><ele>596.0</ele><time>2026-04-11T09:03:10.858Z</time></trkpt><trkpt lat="41.27173" lon="13.97042"><ele>596.0</ele><time>2026-04-11T09:03:12.858Z</time></trkpt><trkpt lat="41.2717933" lon="13.9703533"><ele>596.0</ele><time>2026-04-11T09:03:14.861Z</time></trkpt><trkpt lat="41.27185" lon="13.97027"><ele>596.0</ele><time>2026-04-11T09:03:16.858Z</time></trkpt><trkpt lat="41.2718833" lon="13.9701683"><ele>596.0</ele><time>2026-04-11T09:03:18.859Z</time></trkpt><trkpt lat="41.27191" lon="13.9700567"><ele>596.0</ele><time>2026-04-11T09:03:20.859Z</time></trkpt><trkpt lat="41.271935" lon="13.9699417"><ele>596.0</ele><time>2026-04-11T09:03:22.858Z</time></trkpt><trkpt lat="41.27197" lon="13.969825"><ele>593.8333333333333</ele><time>2026-04-11T09:03:24.858Z</time></trkpt><trkpt lat="41.2720233" lon="13.9697117"><ele>591.6666666666666</ele><time>2026-04-11T09:03:26.858Z</time></trkpt><trkpt lat="41.2721033" lon="13.9695967"><ele>589.5</ele><time>2026-04-11T09:03:28.858Z</time></trkpt><trkpt lat="41.2721483" lon="13.96953"><ele>587.3333333333334</ele><time>2026-04-11T09:03:29.858Z</time></trkpt><trkpt lat="41.272195" lon="13.96946"><ele>585.1666666666667</ele><time>2026-04-11T09:03:30.857Z</time></trkpt><trkpt lat="41.27225" lon="13.9693867"><ele>583.0</ele><time>2026-04-11T09:03:31.857Z</time></trkpt><trkpt lat="41.272305" lon="13.969305"><ele>583.0</ele><time>2026-04-11T09:03:32.858Z</time></trkpt><trkpt lat="41.2723617" lon="13.96922"><ele>583.0</ele><time>2026-04-11T09:03:33.858Z</time></trkpt><trkpt lat="41.27242" lon="13.9691333"><ele>583.0</ele><time>2026-04-11T09:03:34.858Z</time></trkpt><trkpt lat="41.2724783" lon="13.9690483"><ele>583.0</ele><time>2026-04-11T09:03:35.858Z</time></trkpt><trkpt lat="41.2725367" lon="13.96896"><ele>583.0</ele><time>2026-04-11T09:03:36.857Z</time></trkpt><trkpt lat="41.2725933" lon="13.9688733"><ele>583.0</ele><time>2026-04-11T09:03:37.859Z</time></trkpt><trkpt lat="41.2726467" lon="13.968785"><ele>586.0000000000001</ele><time>2026-04-11T09:03:38.858Z</time></trkpt><trkpt lat="41.272695" lon="13.9686983"><ele>589.0</ele><time>2026-04-11T09:03:39.857Z</time></trkpt><trkpt lat="41.272735" lon="13.9686167"><ele>592.0</ele><time>2026-04-11T09:03:40.857Z</time></trkpt><trkpt lat="41.2727683" lon="13.9685417"><ele>595.0</ele><time>2026-04-11T09:03:41.857Z</time></trkpt><trkpt lat="41.2727967" lon="13.9684583"><ele>598.0</ele><time>2026-04-11T09:03:42.857Z</time></trkpt><trkpt lat="41.2728333" lon="13.9683717"><ele>601.0000000000001</ele><time>2026-04-11T09:03:43.856Z</time></trkpt><trkpt lat="41.2728783" lon="13.9682867"><ele>604.0</ele><time>2026-04-11T09:03:44.857Z</time></trkpt><trkpt lat="41.2729333" lon="13.9682083"><ele>602.2</ele><time>2026-04-11T09:03:45.858Z</time></trkpt><trkpt lat="41.2730067" lon="13.9681367"><ele>600.4</ele><time>2026-04-11T09:03:46.857Z</time></trkpt><trkpt lat="41.2731033" lon="13.9681"><ele>598.6</ele><time>2026-04-11T09:03:47.856Z</time></trkpt><trkpt lat="41.2731867" lon="13.9680783"><ele>596.8</ele><time>2026-04-11T09:03:48.858Z</time></trkpt><trkpt lat="41.27328" lon="13.968095"><ele>595.0</ele><time>2026-04-11T09:03:49.858Z</time></trkpt><trkpt lat="41.2733733" lon="13.9681317"><ele>595.0</ele><time>2026-04-11T09:03:50.857Z</time></trkpt><trkpt lat="41.273455" lon="13.9681617"><ele>595.0</ele><time>2026-04-11T09:03:51.858Z</time></trkpt><trkpt lat="41.273555" lon="13.9682183"><ele>595.0</ele><time>2026-04-11T09:03:52.857Z</time></trkpt><trkpt lat="41.2736567" lon="13.968305"><ele>595.0</ele><time>2026-04-11T09:03:53.858Z</time></trkpt><trkpt lat="41.2737583" lon="13.968385"><ele>595.0</ele><time>2026-04-11T09:03:54.857Z</time></trkpt><trkpt lat="41.2738617" lon="13.9684633"><ele>592.5</ele><time>2026-04-11T09:03:55.857Z</time></trkpt><trkpt lat="41.2739633" lon="13.9685317"><ele>590.0</ele><time>2026-04-11T09:03:56.857Z</time></trkpt><trkpt lat="41.2740633" lon="13.9686033"><ele>587.5</ele><time>2026-04-11T09:03:57.857Z</time></trkpt><trkpt lat="41.274165" lon="13.96867"><ele>585.0</ele><time>2026-04-11T09:03:58.857Z</time></trkpt><trkpt lat="41.2742683" lon="13.9687383"><ele>585.0</ele><time>2026-04-11T09:03:59.858Z</time></trkpt><trkpt lat="41.27437" lon="13.9688033"><ele>585.0</ele><time>2026-04-11T09:04:00.857Z</time></trkpt><trkpt lat="41.27447" lon="13.9688717"><ele>585.0</ele><time>2026-04-11T09:04:01.856Z</time></trkpt><trkpt lat="41.27457" lon="13.9689383"><ele>585.0</ele><time>2026-04-11T09:04:02.857Z</time></trkpt><trkpt lat="41.2746683" lon="13.9690067"><ele>585.0</ele><time>2026-04-11T09:04:03.857Z</time></trkpt><trkpt lat="41.2747633" lon="13.96907"><ele>585.6</ele><time>2026-04-11T09:04:04.857Z</time></trkpt><trkpt lat="41.2748567" lon="13.96914"><ele>586.2</ele><time>2026-04-11T09:04:05.858Z</time></trkpt><trkpt lat="41.2749483" lon="13.969215"><ele>586.8</ele><time>2026-04-11T09:04:06.857Z</time></trkpt><trkpt lat="41.27504" lon="13.9692867"><ele>587.4</ele><time>2026-04-11T09:04:07.859Z</time></trkpt><trkpt lat="41.275125" lon="13.969365"><ele>588.0</ele><time>2026-04-11T09:04:08.857Z</time></trkpt><trkpt lat="41.2752067" lon="13.9694417"><ele>588.1999999999999</ele><time>2026-04-11T09:04:09.857Z</time></trkpt><trkpt lat="41.27528" lon="13.9695183"><ele>588.4</ele><time>2026-04-11T09:04:10.856Z</time></trkpt><trkpt lat="41.275355" lon="13.9695933"><ele>588.5999999999999</ele><time>2026-04-11T09:04:11.858Z</time></trkpt><trkpt lat="41.27543" lon="13.9696717"><ele>588.8</ele><time>2026-04-11T09:04:12.856Z</time></trkpt><trkpt lat="41.2755067" lon="13.96975"><ele>589.0</ele><time>2026-04-11T09:04:13.858Z</time></trkpt><trkpt lat="41.27558" lon="13.969835"><ele>588.6</ele><time>2026-04-11T09:04:14.857Z</time></trkpt><trkpt lat="41.275655" lon="13.9699233"><ele>588.2</ele><time>2026-04-11T09:04:15.856Z</time></trkpt><trkpt lat="41.2757267" lon="13.9700117"><ele>587.8000000000001</ele><time>2026-04-11T09:04:16.857Z</time></trkpt><trkpt lat="41.2758" lon="13.9701"><ele>587.4</ele><time>2026-04-11T09:04:17.857Z</time></trkpt><trkpt lat="41.27587" lon="13.970185"><ele>587.0</ele><time>2026-04-11T09:04:18.856Z</time></trkpt><trkpt lat="41.275945" lon="13.9702683"><ele>587.0</ele><time>2026-04-11T09:04:19.857Z</time></trkpt><trkpt lat="41.27602" lon="13.9703533"><ele>587.0</ele><time>2026-04-11T09:04:20.857Z</time></trkpt><trkpt lat="41.2760917" lon="13.9704367"><ele>587.0</ele><time>2026-04-11T09:04:21.857Z</time></trkpt><trkpt lat="41.2761633" lon="13.9705167"><ele>587.0</ele><time>2026-04-11T09:04:22.857Z</time></trkpt><trkpt lat="41.2762317" lon="13.970595"><ele>587.0</ele><time>2026-04-11T09:04:23.856Z</time></trkpt><trkpt lat="41.2763" lon="13.9706733"><ele>587.0</ele><time>2026-04-11T09:04:24.857Z</time></trkpt><trkpt lat="41.27637" lon="13.9707483"><ele>587.0</ele><time>2026-04-11T09:04:25.857Z</time></trkpt><trkpt lat="41.2764367" lon="13.9708267"><ele>587.0</ele><time>2026-04-11T09:04:26.857Z</time></trkpt><trkpt lat="41.2765033" lon="13.9709067"><ele>587.0</ele><time>2026-04-11T09:04:27.857Z</time></trkpt><trkpt lat="41.27657" lon="13.9709833"><ele>587.0</ele><time>2026-04-11T09:04:28.857Z</time></trkpt><trkpt lat="41.2766367" lon="13.9710567"><ele>587.0</ele><time>2026-04-11T09:04:29.856Z</time></trkpt><trkpt lat="41.2767033" lon="13.9711333"><ele>587.5</ele><time>2026-04-11T09:04:30.857Z</time></trkpt><trkpt lat="41.2767717" lon="13.97121"><ele>588.0</ele><time>2026-04-11T09:04:31.857Z</time></trkpt><trkpt lat="41.2768367" lon="13.9712867"><ele>588.5</ele><time>2026-04-11T09:04:32.856Z</time></trkpt><trkpt lat="41.2769" lon="13.971365"><ele>589.0</ele><time>2026-04-11T09:04:33.856Z</time></trkpt><trkpt lat="41.2769667" lon="13.9714367"><ele>589.5</ele><time>2026-04-11T09:04:34.857Z</time></trkpt><trkpt lat="41.2770333" lon="13.9715133"><ele>590.0</ele><time>2026-04-11T09:04:35.857Z</time></trkpt><trkpt lat="41.2770983" lon="13.9715883"><ele>590.0</ele><time>2026-04-11T09:04:36.857Z</time></trkpt><trkpt lat="41.2771617" lon="13.97166"><ele>590.0</ele><time>2026-04-11T09:04:37.858Z</time></trkpt><trkpt lat="41.2772267" lon="13.97173"><ele>590.0</ele><time>2026-04-11T09:04:38.857Z</time></trkpt><trkpt lat="41.2772917" lon="13.971805"><ele>590.0</ele><time>2026-04-11T09:04:39.857Z</time></trkpt><trkpt lat="41.2773617" lon="13.971875"><ele>590.0</ele><time>2026-04-11T09:04:40.859Z</time></trkpt><trkpt lat="41.2774267" lon="13.9719467"><ele>590.0</ele><time>2026-04-11T09:04:41.857Z</time></trkpt><trkpt lat="41.277495" lon="13.9720167"><ele>589.3333333333333</ele><time>2026-04-11T09:04:42.857Z</time></trkpt><trkpt lat="41.2775617" lon="13.9720917"><ele>588.6666666666666</ele><time>2026-04-11T09:04:43.857Z</time></trkpt><trkpt lat="41.277625" lon="13.9721667"><ele>588.0</ele><time>2026-04-11T09:04:44.857Z</time></trkpt><trkpt lat="41.27769" lon="13.97224"><ele>587.3333333333334</ele><time>2026-04-11T09:04:45.857Z</time></trkpt><trkpt lat="41.27776" lon="13.9723133"><ele>586.6666666666667</ele><time>2026-04-11T09:04:46.857Z</time></trkpt><trkpt lat="41.2778267" lon="13.9723833"><ele>586.0</ele><time>2026-04-11T09:04:47.857Z</time></trkpt><trkpt lat="41.277895" lon="13.9724483"><ele>586.0</ele><time>2026-04-11T09:04:48.857Z</time></trkpt><trkpt lat="41.2779667" lon="13.9725067"><ele>586.0</ele><time>2026-04-11T09:04:49.857Z</time></trkpt><trkpt lat="41.2780383" lon="13.9725617"><ele>586.0</ele><time>2026-04-11T09:04:50.858Z</time></trkpt><trkpt lat="41.27811" lon="13.9726117"><ele>586.0</ele><time>2026-04-11T09:04:51.857Z</time></trkpt><trkpt lat="41.2781833" lon="13.97266"><ele>586.0</ele><time>2026-04-11T09:04:52.857Z</time></trkpt><trkpt lat="41.2782517" lon="13.9727017"><ele>586.0</ele><time>2026-04-11T09:04:53.857Z</time></trkpt><trkpt lat="41.2783217" lon="13.9727483"><ele>585.5</ele><time>2026-04-11T09:04:54.857Z</time></trkpt><trkpt lat="41.27839" lon="13.9727933"><ele>585.0</ele><time>2026-04-11T09:04:55.857Z</time></trkpt><trkpt lat="41.27846" lon="13.9728383"><ele>584.5</ele><time>2026-04-11T09:04:56.857Z</time></trkpt><trkpt lat="41.2785267" lon="13.9728933"><ele>584.0</ele><time>2026-04-11T09:04:57.856Z</time></trkpt><trkpt lat="41.27859" lon="13.9729517"><ele>583.5</ele><time>2026-04-11T09:04:58.857Z</time></trkpt><trkpt lat="41.2786533" lon="13.9730183"><ele>583.0</ele><time>2026-04-11T09:04:59.858Z</time></trkpt><trkpt lat="41.2787167" lon="13.9730933"><ele>583.0</ele><time>2026-04-11T09:05:00.857Z</time></trkpt><trkpt lat="41.27878" lon="13.9731717"><ele>583.0</ele><time>2026-04-11T09:05:01.857Z</time></trkpt><trkpt lat="41.2788383" lon="13.9732517"><ele>583.0</ele><time>2026-04-11T09:05:02.857Z</time></trkpt><trkpt lat="41.2788967" lon="13.973335"><ele>583.0</ele><time>2026-04-11T09:05:03.856Z</time></trkpt><trkpt lat="41.2789533" lon="13.97342"><ele>583.0</ele><time>2026-04-11T09:05:04.856Z</time></trkpt><trkpt lat="41.2790117" lon="13.97351"><ele>583.0</ele><time>2026-04-11T09:05:05.859Z</time></trkpt><trkpt lat="41.2790667" lon="13.9736033"><ele>583.0</ele><time>2026-04-11T09:05:06.859Z</time></trkpt><trkpt lat="41.2791233" lon="13.9736983"><ele>583.0</ele><time>2026-04-11T09:05:07.859Z</time></trkpt><trkpt lat="41.279185" lon="13.9737917"><ele>583.0</ele><time>2026-04-11T09:05:08.857Z</time></trkpt><trkpt lat="41.279245" lon="13.973885"><ele>583.0</ele><time>2026-04-11T09:05:09.857Z</time></trkpt><trkpt lat="41.279305" lon="13.9739733"><ele>583.0</ele><time>2026-04-11T09:05:10.857Z</time></trkpt><trkpt lat="41.279365" lon="13.9740733"><ele>583.0</ele><time>2026-04-11T09:05:11.857Z</time></trkpt><trkpt lat="41.2794267" lon="13.9741717"><ele>583.0</ele><time>2026-04-11T09:05:12.857Z</time></trkpt><trkpt lat="41.2794867" lon="13.9742683"><ele>583.0</ele><time>2026-04-11T09:05:13.856Z</time></trkpt><trkpt lat="41.279545" lon="13.9743617"><ele>583.0</ele><time>2026-04-11T09:05:14.856Z</time></trkpt><trkpt lat="41.2796017" lon="13.974455"><ele>583.0</ele><time>2026-04-11T09:05:15.856Z</time></trkpt><trkpt lat="41.2796533" lon="13.9745433"><ele>583.1666666666667</ele><time>2026-04-11T09:05:16.855Z</time></trkpt><trkpt lat="41.2797117" lon="13.9746367"><ele>583.3333333333334</ele><time>2026-04-11T09:05:17.856Z</time></trkpt><trkpt lat="41.2797683" lon="13.974725"><ele>583.5</ele><time>2026-04-11T09:05:18.856Z</time></trkpt><trkpt lat="41.2798283" lon="13.974815"><ele>583.6666666666666</ele><time>2026-04-11T09:05:19.856Z</time></trkpt><trkpt lat="41.2798883" lon="13.9749083"><ele>583.8333333333333</ele><time>2026-04-11T09:05:20.857Z</time></trkpt><trkpt lat="41.2799433" lon="13.9749933"><ele>584.0</ele><time>2026-04-11T09:05:21.856Z</time></trkpt><trkpt lat="41.2799917" lon="13.9750767"><ele>584.4285714285714</ele><time>2026-04-11T09:05:22.858Z</time></trkpt><trkpt lat="41.2800383" lon="13.9751517"><ele>584.8571428571429</ele><time>2026-04-11T09:05:23.856Z</time></trkpt><trkpt lat="41.2800883" lon="13.97523"><ele>585.2857142857143</ele><time>2026-04-11T09:05:24.855Z</time></trkpt><trkpt lat="41.2801383" lon="13.9753067"><ele>585.7142857142858</ele><time>2026-04-11T09:05:25.856Z</time></trkpt><trkpt lat="41.280185" lon="13.97538"><ele>586.1428571428572</ele><time>2026-04-11T09:05:26.856Z</time></trkpt><trkpt lat="41.2802317" lon="13.9754517"><ele>586.5714285714286</ele><time>2026-04-11T09:05:27.856Z</time></trkpt><trkpt lat="41.2802783" lon="13.975525"><ele>587.0</ele><time>2026-04-11T09:05:28.856Z</time></trkpt><trkpt lat="41.28033" lon="13.9755933"><ele>587.0</ele><time>2026-04-11T09:05:29.856Z</time></trkpt><trkpt lat="41.2803817" lon="13.9756617"><ele>587.0</ele><time>2026-04-11T09:05:30.856Z</time></trkpt><trkpt lat="41.2804317" lon="13.97573"><ele>587.0</ele><time>2026-04-11T09:05:31.855Z</time></trkpt><trkpt lat="41.2804817" lon="13.9757967"><ele>587.0</ele><time>2026-04-11T09:05:32.855Z</time></trkpt><trkpt lat="41.2805367" lon="13.9758633"><ele>587.0</ele><time>2026-04-11T09:05:33.856Z</time></trkpt><trkpt lat="41.2805933" lon="13.9759267"><ele>587.0</ele><time>2026-04-11T09:05:34.856Z</time></trkpt><trkpt lat="41.2806467" lon="13.975985"><ele>587.0</ele><time>2026-04-11T09:05:35.856Z</time></trkpt><trkpt lat="41.280705" lon="13.9760383"><ele>587.0</ele><time>2026-04-11T09:05:36.855Z</time></trkpt><trkpt lat="41.2807567" lon="13.97609"><ele>587.0</ele><time>2026-04-11T09:05:37.856Z</time></trkpt><trkpt lat="41.2808117" lon="13.9761333"><ele>587.0</ele><time>2026-04-11T09:05:38.855Z</time></trkpt><trkpt lat="41.2808733" lon="13.9761683"><ele>587.0</ele><time>2026-04-11T09:05:39.856Z</time></trkpt><trkpt lat="41.2809333" lon="13.9762033"><ele>587.0</ele><time>2026-04-11T09:05:40.857Z</time></trkpt><trkpt lat="41.2809967" lon="13.9762317"><ele>587.0</ele><time>2026-04-11T09:05:41.858Z</time></trkpt><trkpt lat="41.28106" lon="13.97625"><ele>587.0</ele><time>2026-04-11T09:05:42.856Z</time></trkpt><trkpt lat="41.281125" lon="13.976265"><ele>587.0</ele><time>2026-04-11T09:05:43.856Z</time></trkpt><trkpt lat="41.28119" lon="13.97628"><ele>587.0</ele><time>2026-04-11T09:05:44.857Z</time></trkpt><trkpt lat="41.281255" lon="13.9762933"><ele>587.0</ele><time>2026-04-11T09:05:45.855Z</time></trkpt><trkpt lat="41.2813183" lon="13.9763017"><ele>587.0</ele><time>2026-04-11T09:05:46.858Z</time></trkpt><trkpt lat="41.2813817" lon="13.9763067"><ele>587.0</ele><time>2026-04-11T09:05:47.857Z</time></trkpt><trkpt lat="41.28145" lon="13.976315"><ele>587.0</ele><time>2026-04-11T09:05:48.858Z</time></trkpt><trkpt lat="41.2815167" lon="13.9763233"><ele>587.0</ele><time>2026-04-11T09:05:49.856Z</time></trkpt><trkpt lat="41.2815817" lon="13.976325"><ele>587.1428571428571</ele><time>2026-04-11T09:05:50.857Z</time></trkpt><trkpt lat="41.2816517" lon="13.9763267"><ele>587.2857142857143</ele><time>2026-04-11T09:05:51.857Z</time></trkpt><trkpt lat="41.2817183" lon="13.9763317"><ele>587.4285714285714</ele><time>2026-04-11T09:05:52.857Z</time></trkpt><trkpt lat="41.2817867" lon="13.9763417"><ele>587.5714285714286</ele><time>2026-04-11T09:05:53.856Z</time></trkpt><trkpt lat="41.2818533" lon="13.9763517"><ele>587.7142857142858</ele><time>2026-04-11T09:05:54.857Z</time></trkpt><trkpt lat="41.2819233" lon="13.9763583"><ele>587.8571428571429</ele><time>2026-04-11T09:05:55.859Z</time></trkpt><trkpt lat="41.2819933" lon="13.976365"><ele>588.0</ele><time>2026-04-11T09:05:56.856Z</time></trkpt><trkpt lat="41.282065" lon="13.97637"><ele>588.0</ele><time>2026-04-11T09:05:57.856Z</time></trkpt><trkpt lat="41.2821383" lon="13.976375"><ele>588.0</ele><time>2026-04-11T09:05:58.856Z</time></trkpt><trkpt lat="41.2822083" lon="13.97638"><ele>588.0</ele><time>2026-04-11T09:05:59.855Z</time></trkpt><trkpt lat="41.2822783" lon="13.9763833"><ele>588.0</ele><time>2026-04-11T09:06:00.856Z</time></trkpt><trkpt lat="41.2823483" lon="13.9763867"><ele>588.0</ele><time>2026-04-11T09:06:01.857Z</time></trkpt><trkpt lat="41.2824167" lon="13.9763917"><ele>588.0</ele><time>2026-04-11T09:06:02.856Z</time></trkpt><trkpt lat="41.282485" lon="13.9764017"><ele>588.0</ele><time>2026-04-11T09:06:03.856Z</time></trkpt><trkpt lat="41.2825533" lon="13.97641"><ele>587.8333333333334</ele><time>2026-04-11T09:06:04.856Z</time></trkpt><trkpt lat="41.2826217" lon="13.9764167"><ele>587.6666666666666</ele><time>2026-04-11T09:06:05.856Z</time></trkpt><trkpt lat="41.28269" lon="13.9764233"><ele>587.5</ele><time>2026-04-11T09:06:06.857Z</time></trkpt><trkpt lat="41.2827567" lon="13.9764317"><ele>587.3333333333333</ele><time>2026-04-11T09:06:07.856Z</time></trkpt><trkpt lat="41.28282" lon="13.9764433"><ele>587.1666666666666</ele><time>2026-04-11T09:06:08.856Z</time></trkpt><trkpt lat="41.282945" lon="13.9764667"><ele>587.0</ele><time>2026-04-11T09:06:10.856Z</time></trkpt><trkpt lat="41.2830083" lon="13.97648"><ele>587.0</ele><time>2026-04-11T09:06:11.857Z</time></trkpt><trkpt lat="41.2830767" lon="13.9764917"><ele>587.0</ele><time>2026-04-11T09:06:12.856Z</time></trkpt><trkpt lat="41.2831983" lon="13.9765283"><ele>587.0</ele><time>2026-04-11T09:06:14.855Z</time></trkpt><trkpt lat="41.2833183" lon="13.9765633"><ele>587.0</ele><time>2026-04-11T09:06:16.856Z</time></trkpt><trkpt lat="41.28344" lon="13.9765983"><ele>587.0</ele><time>2026-04-11T09:06:18.856Z</time></trkpt><trkpt lat="41.2834983" lon="13.97663"><ele>587.0</ele><time>2026-04-11T09:06:19.858Z</time></trkpt><trkpt lat="41.2835583" lon="13.9766617"><ele>587.0</ele><time>2026-04-11T09:06:20.856Z</time></trkpt><trkpt lat="41.2836183" lon="13.9766967"><ele>587.0</ele><time>2026-04-11T09:06:21.856Z</time></trkpt><trkpt lat="41.28368" lon="13.9767267"><ele>587.0</ele><time>2026-04-11T09:06:22.856Z</time></trkpt><trkpt lat="41.28374" lon="13.97676"><ele>587.0</ele><time>2026-04-11T09:06:23.857Z</time></trkpt><trkpt lat="41.283855" lon="13.9768283"><ele>587.0</ele><time>2026-04-11T09:06:25.856Z</time></trkpt><trkpt lat="41.2839133" lon="13.9768633"><ele>587.2</ele><time>2026-04-11T09:06:26.856Z</time></trkpt><trkpt lat="41.28397" lon="13.9769"><ele>587.4000000000001</ele><time>2026-04-11T09:06:27.857Z</time></trkpt><trkpt lat="41.2840767" lon="13.97697"><ele>587.5999999999999</ele><time>2026-04-11T09:06:29.855Z</time></trkpt><trkpt lat="41.2841867" lon="13.9770333"><ele>587.8</ele><time>2026-04-11T09:06:31.859Z</time></trkpt><trkpt lat="41.28429" lon="13.9771017"><ele>588.0</ele><time>2026-04-11T09:06:33.858Z</time></trkpt><trkpt lat="41.284395" lon="13.97717"><ele>588.0</ele><time>2026-04-11T09:06:35.856Z</time></trkpt><trkpt lat="41.284495" lon="13.977235"><ele>588.0</ele><time>2026-04-11T09:06:37.862Z</time></trkpt><trkpt lat="41.2845783" lon="13.9772833"><ele>588.0</ele><time>2026-04-11T09:06:39.856Z</time></trkpt><trkpt lat="41.2846533" lon="13.9772917"><ele>588.0</ele><time>2026-04-11T09:06:41.856Z</time></trkpt><trkpt lat="41.2847167" lon="13.9772683"><ele>588.0</ele><time>2026-04-11T09:06:43.861Z</time></trkpt><trkpt lat="41.2847783" lon="13.97723"><ele>588.0</ele><time>2026-04-11T09:06:45.857Z</time></trkpt><trkpt lat="41.284845" lon="13.9771617"><ele>588.6</ele><time>2026-04-11T09:06:47.857Z</time></trkpt><trkpt lat="41.2849083" lon="13.97708"><ele>589.1999999999999</ele><time>2026-04-11T09:06:49.857Z</time></trkpt><trkpt lat="41.284975" lon="13.9769917"><ele>589.8</ele><time>2026-04-11T09:06:51.86Z</time></trkpt><trkpt lat="41.2850517" lon="13.9768933"><ele>590.4</ele><time>2026-04-11T09:06:53.858Z</time></trkpt><trkpt lat="41.28513" lon="13.9768"><ele>591.0</ele><time>2026-04-11T09:06:55.858Z</time></trkpt><trkpt lat="41.2852183" lon="13.97671"><ele>591.5</ele><time>2026-04-11T09:06:57.855Z</time></trkpt><trkpt lat="41.2853067" lon="13.9766067"><ele>592.0</ele><time>2026-04-11T09:06:59.858Z</time></trkpt><trkpt lat="41.285395" lon="13.9765"><ele>592.5</ele><time>2026-04-11T09:07:01.857Z</time></trkpt><trkpt lat="41.285475" lon="13.9764067"><ele>593.0</ele><time>2026-04-11T09:07:03.857Z</time></trkpt><trkpt lat="41.28556" lon="13.97631"><ele>594.1666666666666</ele><time>2026-04-11T09:07:05.858Z</time></trkpt><trkpt lat="41.28565" lon="13.97622"><ele>595.3333333333333</ele><time>2026-04-11T09:07:07.857Z</time></trkpt><trkpt lat="41.2857367" lon="13.9761733"><ele>596.5</ele><time>2026-04-11T09:07:09.857Z</time></trkpt><trkpt lat="41.2858133" lon="13.9761883"><ele>597.6666666666666</ele><time>2026-04-11T09:07:11.857Z</time></trkpt><trkpt lat="41.2858617" lon="13.9762517"><ele>598.8333333333334</ele><time>2026-04-11T09:07:13.857Z</time></trkpt><trkpt lat="41.285885" lon="13.97634"><ele>600.0</ele><time>2026-04-11T09:07:15.855Z</time></trkpt><trkpt lat="41.285915" lon="13.9764383"><ele>600.0</ele><time>2026-04-11T09:07:17.855Z</time></trkpt><trkpt lat="41.285955" lon="13.9765417"><ele>600.0</ele><time>2026-04-11T09:07:19.858Z</time></trkpt><trkpt lat="41.2859967" lon="13.9766467"><ele>600.0</ele><time>2026-04-11T09:07:21.856Z</time></trkpt><trkpt lat="41.2860283" lon="13.9767583"><ele>600.0</ele><time>2026-04-11T09:07:23.856Z</time></trkpt><trkpt lat="41.2860633" lon="13.9768717"><ele>600.0</ele><time>2026-04-11T09:07:25.856Z</time></trkpt><trkpt lat="41.2861017" lon="13.976995"><ele>599.4</ele><time>2026-04-11T09:07:27.856Z</time></trkpt><trkpt lat="41.2861367" lon="13.9771167"><ele>598.8</ele><time>2026-04-11T09:07:29.858Z</time></trkpt><trkpt lat="41.2861783" lon="13.977245"><ele>598.2</ele><time>2026-04-11T09:07:31.857Z</time></trkpt><trkpt lat="41.286215" lon="13.9773733"><ele>597.6</ele><time>2026-04-11T09:07:33.856Z</time></trkpt><trkpt lat="41.2862633" lon="13.9775033"><ele>597.0</ele><time>2026-04-11T09:07:35.858Z</time></trkpt><trkpt lat="41.2863067" lon="13.977625"><ele>596.8000000000001</ele><time>2026-04-11T09:07:37.857Z</time></trkpt><trkpt lat="41.2863417" lon="13.97775"><ele>596.6</ele><time>2026-04-11T09:07:39.859Z</time></trkpt><trkpt lat="41.2863833" lon="13.9778867"><ele>596.4000000000001</ele><time>2026-04-11T09:07:41.86Z</time></trkpt><trkpt lat="41.2864483" lon="13.9780183"><ele>596.2</ele><time>2026-04-11T09:07:43.857Z</time></trkpt><trkpt lat="41.286515" lon="13.9781467"><ele>596.0</ele><time>2026-04-11T09:07:45.859Z</time></trkpt><trkpt lat="41.2865533" lon="13.9782817"><ele>597.5</ele><time>2026-04-11T09:07:47.859Z</time></trkpt><trkpt lat="41.28659" lon="13.9784217"><ele>599.0</ele><time>2026-04-11T09:07:49.86Z</time></trkpt><trkpt lat="41.286625" lon="13.9785633"><ele>600.5</ele><time>2026-04-11T09:07:51.86Z</time></trkpt><trkpt lat="41.2866767" lon="13.978705"><ele>602.0</ele><time>2026-04-11T09:07:53.859Z</time></trkpt><trkpt lat="41.28673" lon="13.9788467"><ele>602.0</ele><time>2026-04-11T09:07:55.86Z</time></trkpt><trkpt lat="41.2867833" lon="13.97899"><ele>602.0</ele><time>2026-04-11T09:07:57.86Z</time></trkpt><trkpt lat="41.2868383" lon="13.9791283"><ele>602.0</ele><time>2026-04-11T09:07:59.859Z</time></trkpt><trkpt lat="41.2868883" lon="13.97926"><ele>602.0</ele><time>2026-04-11T09:08:01.86Z</time></trkpt><trkpt lat="41.2869433" lon="13.9793883"><ele>601.25</ele><time>2026-04-11T09:08:03.858Z</time></trkpt><trkpt lat="41.2869967" lon="13.9795217"><ele>600.5</ele><time>2026-04-11T09:08:05.859Z</time></trkpt><trkpt lat="41.2870667" lon="13.9796517"><ele>599.75</ele><time>2026-04-11T09:08:07.86Z</time></trkpt><trkpt lat="41.2871233" lon="13.9797817"><ele>599.0</ele><time>2026-04-11T09:08:09.858Z</time></trkpt><trkpt lat="41.2871733" lon="13.9799133"><ele>598.6</ele><time>2026-04-11T09:08:11.858Z</time></trkpt><trkpt lat="41.2872233" lon="13.98006"><ele>598.2</ele><time>2026-04-11T09:08:13.857Z</time></trkpt><trkpt lat="41.2872517" lon="13.980135"><ele>597.8000000000001</ele><time>2026-04-11T09:08:14.859Z</time></trkpt><trkpt lat="41.2873117" lon="13.9802733"><ele>597.4</ele><time>2026-04-11T09:08:16.858Z</time></trkpt><trkpt lat="41.2873617" lon="13.9804167"><ele>597.0</ele><time>2026-04-11T09:08:18.861Z</time></trkpt><trkpt lat="41.2874017" lon="13.9805633"><ele>598.2</ele><time>2026-04-11T09:08:20.86Z</time></trkpt><trkpt lat="41.2874333" lon="13.9806383"><ele>599.4000000000001</ele><time>2026-04-11T09:08:21.862Z</time></trkpt><trkpt lat="41.287465" lon="13.9807133"><ele>600.5999999999999</ele><time>2026-04-11T09:08:22.862Z</time></trkpt><trkpt lat="41.2875267" lon="13.9808617"><ele>601.8</ele><time>2026-04-11T09:08:24.859Z</time></trkpt><trkpt lat="41.28757" lon="13.9810117"><ele>603.0</ele><time>2026-04-11T09:08:26.859Z</time></trkpt><trkpt lat="41.287555" lon="13.9811667"><ele>603.0</ele><time>2026-04-11T09:08:28.859Z</time></trkpt><trkpt lat="41.2875267" lon="13.9812417"><ele>603.0</ele><time>2026-04-11T09:08:29.857Z</time></trkpt><trkpt lat="41.28748" lon="13.981405"><ele>603.0</ele><time>2026-04-11T09:08:31.861Z</time></trkpt><trkpt lat="41.2874733" lon="13.9814917"><ele>603.0</ele><time>2026-04-11T09:08:32.862Z</time></trkpt><trkpt lat="41.28748" lon="13.9815767"><ele>603.0</ele><time>2026-04-11T09:08:33.861Z</time></trkpt><trkpt lat="41.2875383" lon="13.9817267"><ele>602.7142857142858</ele><time>2026-04-11T09:08:35.858Z</time></trkpt><trkpt lat="41.28758" lon="13.9817967"><ele>602.4285714285713</ele><time>2026-04-11T09:08:36.86Z</time></trkpt><trkpt lat="41.2876233" lon="13.9818617"><ele>602.1428571428571</ele><time>2026-04-11T09:08:37.859Z</time></trkpt><trkpt lat="41.28767" lon="13.98193"><ele>601.8571428571429</ele><time>2026-04-11T09:08:38.858Z</time></trkpt><trkpt lat="41.2877117" lon="13.9820017"><ele>601.5714285714287</ele><time>2026-04-11T09:08:39.858Z</time></trkpt><trkpt lat="41.287755" lon="13.9820717"><ele>601.2857142857142</ele><time>2026-04-11T09:08:40.857Z</time></trkpt><trkpt lat="41.2877967" lon="13.98214"><ele>601.0</ele><time>2026-04-11T09:08:41.859Z</time></trkpt><trkpt lat="41.28784" lon="13.9822067"><ele>601.0</ele><time>2026-04-11T09:08:42.858Z</time></trkpt><trkpt lat="41.2878867" lon="13.9822717"><ele>601.0</ele><time>2026-04-11T09:08:43.858Z</time></trkpt><trkpt lat="41.2879717" lon="13.9823917"><ele>601.0</ele><time>2026-04-11T09:08:45.859Z</time></trkpt><trkpt lat="41.2880567" lon="13.9825167"><ele>601.0</ele><time>2026-04-11T09:08:47.86Z</time></trkpt><trkpt lat="41.2881383" lon="13.9826433"><ele>601.0</ele><time>2026-04-11T09:08:49.86Z</time></trkpt><trkpt lat="41.28818" lon="13.9827067"><ele>602.5</ele><time>2026-04-11T09:08:50.859Z</time></trkpt><trkpt lat="41.2882567" lon="13.9828217"><ele>604.0</ele><time>2026-04-11T09:08:52.86Z</time></trkpt><trkpt lat="41.2883133" lon="13.98292"><ele>605.5</ele><time>2026-04-11T09:08:54.859Z</time></trkpt><trkpt lat="41.28836" lon="13.9830067"><ele>607.0</ele><time>2026-04-11T09:08:57.857Z</time></trkpt><trkpt lat="41.2884067" lon="13.9830817"><ele>608.5</ele><time>2026-04-11T09:09:01.86Z</time></trkpt><trkpt lat="41.2883617" lon="13.9831667"><ele>610.0</ele><time>2026-04-11T09:09:05.86Z</time></trkpt><trkpt lat="41.2883083" lon="13.983115"><ele>610.0</ele><time>2026-04-11T09:09:09.858Z</time></trkpt><trkpt lat="41.2883133" lon="13.9830183"><ele>610.0</ele><time>2026-04-11T09:09:13.86Z</time></trkpt><trkpt lat="41.2883667" lon="13.9829654"><ele>610.0</ele><time>2026-04-11T09:16:42.847Z</time></trkpt><trkpt lat="41.2883329" lon="13.9828932"><ele>610.0</ele><time>2026-04-11T09:16:51.999Z</time></trkpt><trkpt lat="41.288418" lon="13.9830719"><ele>610.0</ele><time>2026-04-11T09:17:04.859Z</time></trkpt><trkpt lat="41.288463" lon="13.9831541"><ele>610.0</ele><time>2026-04-11T09:17:06.949Z</time></trkpt><trkpt lat="41.2885336" lon="13.9832613"><ele>610.0</ele><time>2026-04-11T09:17:12.908Z</time></trkpt><trkpt lat="41.288585" lon="13.9833356"><ele>610.0</ele><time>2026-04-11T09:17:14.928Z</time></trkpt><trkpt lat="41.2886432" lon="13.9834018"><ele>610.0</ele><time>2026-04-11T09:17:16.948Z</time></trkpt><trkpt lat="41.2887433" lon="13.9834994"><ele>610.0</ele><time>2026-04-11T09:17:17.952Z</time></trkpt><trkpt lat="41.2888043" lon="13.9835405"><ele>610.0</ele><time>2026-04-11T09:17:18.968Z</time></trkpt><trkpt lat="41.2888828" lon="13.9835179"><ele>610.0</ele><time>2026-04-11T09:17:20.987Z</time></trkpt><trkpt lat="41.2889295" lon="13.983427"><ele>610.0</ele><time>2026-04-11T09:17:23.869Z</time></trkpt><trkpt lat="41.2889106" lon="13.9833426"><ele>610.0</ele><time>2026-04-11T09:17:27.954Z</time></trkpt><trkpt lat="41.2888534" lon="13.9832735"><ele>610.0</ele><time>2026-04-11T09:17:31.995Z</time></trkpt><trkpt lat="41.2888046" lon="13.9832102"><ele>610.0</ele><time>2026-04-11T09:17:34.92Z</time></trkpt><trkpt lat="41.2887496" lon="13.983135"><ele>610.0</ele><time>2026-04-11T09:17:37.871Z</time></trkpt><trkpt lat="41.2887056" lon="13.9830405"><ele>610.0</ele><time>2026-04-11T09:17:40.976Z</time></trkpt><trkpt lat="41.2886515" lon="13.9829476"><ele>610.0</ele><time>2026-04-11T09:17:43.905Z</time></trkpt><trkpt lat="41.288615" lon="13.982875"><ele>610.0</ele><time>2026-04-11T09:17:45.858Z</time></trkpt><trkpt lat="41.2885667" lon="13.9827833"><ele>610.0</ele><time>2026-04-11T09:17:48.859Z</time></trkpt><trkpt lat="41.2885183" lon="13.982695"><ele>610.0</ele><time>2026-04-11T09:17:51.858Z</time></trkpt><trkpt lat="41.2884633" lon="13.9826067"><ele>610.0</ele><time>2026-04-11T09:17:54.858Z</time></trkpt><trkpt lat="41.2884183" lon="13.9825433"><ele>610.0</ele><time>2026-04-11T09:17:56.859Z</time></trkpt><trkpt lat="41.2883783" lon="13.9824733"><ele>610.2857142857143</ele><time>2026-04-11T09:17:58.858Z</time></trkpt><trkpt lat="41.288335" lon="13.982405"><ele>610.5714285714286</ele><time>2026-04-11T09:18:00.859Z</time></trkpt><trkpt lat="41.2882817" lon="13.982315"><ele>610.8571428571429</ele><time>2026-04-11T09:18:03.858Z</time></trkpt><trkpt lat="41.2882367" lon="13.9822367"><ele>611.1428571428571</ele><time>2026-04-11T09:18:06.858Z</time></trkpt><trkpt lat="41.2881933" lon="13.9821567"><ele>611.4285714285714</ele><time>2026-04-11T09:18:09.859Z</time></trkpt><trkpt lat="41.2881483" lon="13.9820867"><ele>611.7142857142857</ele><time>2026-04-11T09:18:12.858Z</time></trkpt><trkpt lat="41.2880881" lon="13.9820595"><ele>612.0</ele><time>2026-04-11T09:23:49.903Z</time></trkpt><trkpt lat="41.2880114" lon="13.9820623"><ele>610.1666666666666</ele><time>2026-04-11T09:24:01.9Z</time></trkpt><trkpt lat="41.2879441" lon="13.9820754"><ele>608.3333333333334</ele><time>2026-04-11T09:24:06.94Z</time></trkpt><trkpt lat="41.2878826" lon="13.9821221"><ele>606.5</ele><time>2026-04-11T09:24:10.971Z</time></trkpt><trkpt lat="41.2878169" lon="13.9821157"><ele>604.6666666666667</ele><time>2026-04-11T09:24:21.96Z</time></trkpt><trkpt lat="41.2877526" lon="13.9820584"><ele>602.8333333333334</ele><time>2026-04-11T09:24:47.966Z</time></trkpt><trkpt lat="41.2878107" lon="13.9819659"><ele>601.0</ele><time>2026-04-11T09:24:57.24Z</time></trkpt><trkpt lat="41.2879199" lon="13.982228"><ele>601.0</ele><time>2026-04-11T09:24:58.413Z</time></trkpt><trkpt lat="41.2878479" lon="13.9821077"><ele>601.0</ele><time>2026-04-11T09:25:07.003Z</time></trkpt><trkpt lat="41.2880109" lon="13.9820972"><ele>601.0</ele><time>2026-04-11T09:25:44.965Z</time></trkpt><trkpt lat="41.2880812" lon="13.9820672"><ele>601.0</ele><time>2026-04-11T09:25:46.88Z</time></trkpt><trkpt lat="41.2880886" lon="13.9821517"><ele>601.0</ele><time>2026-04-11T09:26:32.981Z</time></trkpt><trkpt lat="41.2880301" lon="13.9821086"><ele>601.0</ele><time>2026-04-11T09:27:00.896Z</time></trkpt><trkpt lat="41.2879875" lon="13.9820435"><ele>601.0</ele><time>2026-04-11T09:27:05.935Z</time></trkpt><trkpt lat="41.288" lon="13.9821296"><ele>601.0</ele><time>2026-04-11T09:27:26.924Z</time></trkpt><trkpt lat="41.2880442" lon="13.9820664"><ele>601.0</ele><time>2026-04-11T09:29:45.947Z</time></trkpt><trkpt lat="41.2881077" lon="13.982026"><ele>601.0</ele><time>2026-04-11T09:31:25.983Z</time></trkpt><trkpt lat="41.2878883" lon="13.98149"><ele>601.3333333333334</ele><time>2026-04-11T09:31:33.858Z</time></trkpt><trkpt lat="41.2878517" lon="13.9813917"><ele>601.6666666666667</ele><time>2026-04-11T09:31:35.857Z</time></trkpt><trkpt lat="41.2878133" lon="13.981295"><ele>602.0</ele><time>2026-04-11T09:31:37.858Z</time></trkpt><trkpt lat="41.2877733" lon="13.9812067"><ele>602.3333333333334</ele><time>2026-04-11T09:31:39.858Z</time></trkpt><trkpt lat="41.28774" lon="13.9811033"><ele>602.6666666666666</ele><time>2026-04-11T09:31:41.857Z</time></trkpt><trkpt lat="41.2877" lon="13.9810017"><ele>603.0</ele><time>2026-04-11T09:31:43.858Z</time></trkpt><trkpt lat="41.28766" lon="13.9809"><ele>603.6</ele><time>2026-04-11T09:31:45.858Z</time></trkpt><trkpt lat="41.2876267" lon="13.9807983"><ele>604.1999999999999</ele><time>2026-04-11T09:31:47.859Z</time></trkpt><trkpt lat="41.2875867" lon="13.980695"><ele>604.8</ele><time>2026-04-11T09:31:49.859Z</time></trkpt><trkpt lat="41.2875383" lon="13.98057"><ele>605.4</ele><time>2026-04-11T09:31:51.858Z</time></trkpt><trkpt lat="41.2874967" lon="13.9804283"><ele>606.0</ele><time>2026-04-11T09:31:53.858Z</time></trkpt><trkpt lat="41.2874333" lon="13.9802867"><ele>606.0</ele><time>2026-04-11T09:31:55.858Z</time></trkpt><trkpt lat="41.287375" lon="13.9801467"><ele>606.0</ele><time>2026-04-11T09:31:57.857Z</time></trkpt><trkpt lat="41.2873433" lon="13.9800683"><ele>606.0</ele><time>2026-04-11T09:31:58.856Z</time></trkpt><trkpt lat="41.2873183" lon="13.9799883"><ele>606.0</ele><time>2026-04-11T09:31:59.858Z</time></trkpt><trkpt lat="41.2872867" lon="13.9799067"><ele>606.0</ele><time>2026-04-11T09:32:00.858Z</time></trkpt><trkpt lat="41.2872583" lon="13.979825"><ele>606.0</ele><time>2026-04-11T09:32:01.858Z</time></trkpt><trkpt lat="41.287225" lon="13.97974"><ele>605.4285714285714</ele><time>2026-04-11T09:32:02.86Z</time></trkpt><trkpt lat="41.287195" lon="13.97966"><ele>604.8571428571429</ele><time>2026-04-11T09:32:03.858Z</time></trkpt><trkpt lat="41.28716" lon="13.97958"><ele>604.2857142857142</ele><time>2026-04-11T09:32:04.858Z</time></trkpt><trkpt lat="41.28713" lon="13.979495"><ele>603.7142857142858</ele><time>2026-04-11T09:32:05.858Z</time></trkpt><trkpt lat="41.2870983" lon="13.97941"><ele>603.1428571428571</ele><time>2026-04-11T09:32:06.859Z</time></trkpt><trkpt lat="41.2870617" lon="13.979325"><ele>602.5714285714286</ele><time>2026-04-11T09:32:07.859Z</time></trkpt><trkpt lat="41.2870233" lon="13.9792383"><ele>602.0</ele><time>2026-04-11T09:32:08.859Z</time></trkpt><trkpt lat="41.2869817" lon="13.979155"><ele>602.0</ele><time>2026-04-11T09:32:09.858Z</time></trkpt><trkpt lat="41.2869433" lon="13.9790683"><ele>602.0</ele><time>2026-04-11T09:32:10.857Z</time></trkpt><trkpt lat="41.2869067" lon="13.9789833"><ele>602.0</ele><time>2026-04-11T09:32:11.856Z</time></trkpt><trkpt lat="41.2868667" lon="13.978895"><ele>602.0</ele><time>2026-04-11T09:32:12.857Z</time></trkpt><trkpt lat="41.2868267" lon="13.9788083"><ele>602.0</ele><time>2026-04-11T09:32:13.857Z</time></trkpt><trkpt lat="41.2867917" lon="13.9787233"><ele>602.0</ele><time>2026-04-11T09:32:14.858Z</time></trkpt><trkpt lat="41.2867567" lon="13.9786433"><ele>602.0</ele><time>2026-04-11T09:32:15.858Z</time></trkpt><trkpt lat="41.2867217" lon="13.9785633"><ele>602.0</ele><time>2026-04-11T09:32:16.859Z</time></trkpt><trkpt lat="41.2866867" lon="13.9784833"><ele>602.0</ele><time>2026-04-11T09:32:17.858Z</time></trkpt><trkpt lat="41.28665" lon="13.9784"><ele>602.0</ele><time>2026-04-11T09:32:18.857Z</time></trkpt><trkpt lat="41.286615" lon="13.9783167"><ele>602.0</ele><time>2026-04-11T09:32:19.859Z</time></trkpt><trkpt lat="41.2865833" lon="13.97824"><ele>602.0</ele><time>2026-04-11T09:32:20.858Z</time></trkpt><trkpt lat="41.286555" lon="13.9781617"><ele>602.0</ele><time>2026-04-11T09:32:21.857Z</time></trkpt><trkpt lat="41.2865167" lon="13.97808"><ele>602.0</ele><time>2026-04-11T09:32:22.859Z</time></trkpt><trkpt lat="41.2864783" lon="13.977995"><ele>602.5</ele><time>2026-04-11T09:32:23.858Z</time></trkpt><trkpt lat="41.2864517" lon="13.9779067"><ele>603.0</ele><time>2026-04-11T09:32:24.857Z</time></trkpt><trkpt lat="41.2864183" lon="13.9778133"><ele>603.5</ele><time>2026-04-11T09:32:25.858Z</time></trkpt><trkpt lat="41.2863867" lon="13.97772"><ele>604.0</ele><time>2026-04-11T09:32:26.857Z</time></trkpt><trkpt lat="41.2863533" lon="13.9776283"><ele>604.5</ele><time>2026-04-11T09:32:27.858Z</time></trkpt><trkpt lat="41.2863217" lon="13.977535"><ele>605.0</ele><time>2026-04-11T09:32:28.858Z</time></trkpt><trkpt lat="41.2862867" lon="13.9774483"><ele>603.8571428571429</ele><time>2026-04-11T09:32:29.857Z</time></trkpt><trkpt lat="41.286255" lon="13.97736"><ele>602.7142857142858</ele><time>2026-04-11T09:32:30.859Z</time></trkpt><trkpt lat="41.286225" lon="13.9772717"><ele>601.5714285714287</ele><time>2026-04-11T09:32:31.857Z</time></trkpt><trkpt lat="41.2861983" lon="13.977185"><ele>600.4285714285714</ele><time>2026-04-11T09:32:32.858Z</time></trkpt><trkpt lat="41.2861733" lon="13.9770983"><ele>599.2857142857143</ele><time>2026-04-11T09:32:33.858Z</time></trkpt><trkpt lat="41.2861517" lon="13.97701"><ele>598.1428571428572</ele><time>2026-04-11T09:32:34.858Z</time></trkpt><trkpt lat="41.2861217" lon="13.9769283"><ele>597.0</ele><time>2026-04-11T09:32:35.859Z</time></trkpt><trkpt lat="41.2860917" lon="13.97684"><ele>597.0</ele><time>2026-04-11T09:32:36.857Z</time></trkpt><trkpt lat="41.2860633" lon="13.9767567"><ele>597.0</ele><time>2026-04-11T09:32:37.858Z</time></trkpt><trkpt lat="41.286035" lon="13.9766717"><ele>597.0</ele><time>2026-04-11T09:32:38.858Z</time></trkpt><trkpt lat="41.2860067" lon="13.9765883"><ele>597.0</ele><time>2026-04-11T09:32:39.858Z</time></trkpt><trkpt lat="41.285975" lon="13.9765067"><ele>597.0</ele><time>2026-04-11T09:32:40.858Z</time></trkpt><trkpt lat="41.28594" lon="13.9764283"><ele>597.0</ele><time>2026-04-11T09:32:41.859Z</time></trkpt><trkpt lat="41.2858883" lon="13.9762867"><ele>597.5</ele><time>2026-04-11T09:32:43.858Z</time></trkpt><trkpt lat="41.2858467" lon="13.9761767"><ele>598.0</ele><time>2026-04-11T09:32:45.858Z</time></trkpt><trkpt lat="41.285825" lon="13.9760917"><ele>598.5</ele><time>2026-04-11T09:32:48.858Z</time></trkpt><trkpt lat="41.28573" lon="13.97617"><ele>599.0</ele><time>2026-04-11T09:32:51.858Z</time></trkpt><trkpt lat="41.2856767" lon="13.976215"><ele>599.5</ele><time>2026-04-11T09:32:52.857Z</time></trkpt><trkpt lat="41.2856233" lon="13.9762683"><ele>600.0</ele><time>2026-04-11T09:32:53.858Z</time></trkpt><trkpt lat="41.28553" lon="13.976375"><ele>598.9999999999999</ele><time>2026-04-11T09:32:55.858Z</time></trkpt><trkpt lat="41.28548" lon="13.9764317"><ele>598.0</ele><time>2026-04-11T09:32:56.858Z</time></trkpt><trkpt lat="41.2854333" lon="13.9764883"><ele>597.0</ele><time>2026-04-11T09:32:57.858Z</time></trkpt><trkpt lat="41.285375" lon="13.976555"><ele>596.0</ele><time>2026-04-11T09:32:58.858Z</time></trkpt><trkpt lat="41.2853117" lon="13.9766167"><ele>595.0</ele><time>2026-04-11T09:32:59.858Z</time></trkpt><trkpt lat="41.285255" lon="13.9766733"><ele>593.9999999999999</ele><time>2026-04-11T09:33:00.858Z</time></trkpt><trkpt lat="41.2852" lon="13.9767333"><ele>593.0</ele><time>2026-04-11T09:33:01.859Z</time></trkpt><trkpt lat="41.2851417" lon="13.9768"><ele>592.6666666666666</ele><time>2026-04-11T09:33:02.857Z</time></trkpt><trkpt lat="41.2850783" lon="13.9768683"><ele>592.3333333333333</ele><time>2026-04-11T09:33:03.858Z</time></trkpt><trkpt lat="41.2850117" lon="13.9769383"><ele>592.0</ele><time>2026-04-11T09:33:04.857Z</time></trkpt><trkpt lat="41.2849433" lon="13.97701"><ele>591.6666666666666</ele><time>2026-04-11T09:33:05.857Z</time></trkpt><trkpt lat="41.2848833" lon="13.97708"><ele>591.3333333333334</ele><time>2026-04-11T09:33:06.857Z</time></trkpt><trkpt lat="41.2848267" lon="13.9771367"><ele>591.0</ele><time>2026-04-11T09:33:07.859Z</time></trkpt><trkpt lat="41.284775" lon="13.977185"><ele>590.5</ele><time>2026-04-11T09:33:08.859Z</time></trkpt><trkpt lat="41.2847" lon="13.9772467"><ele>590.0</ele><time>2026-04-11T09:33:10.856Z</time></trkpt><trkpt lat="41.28462" lon="13.97725"><ele>589.5</ele><time>2026-04-11T09:33:12.857Z</time></trkpt><trkpt lat="41.2845133" lon="13.97721"><ele>589.0</ele><time>2026-04-11T09:33:14.858Z</time></trkpt><trkpt lat="41.2844533" lon="13.9771783"><ele>588.5</ele><time>2026-04-11T09:33:15.856Z</time></trkpt><trkpt lat="41.2843917" lon="13.9771383"><ele>588.0</ele><time>2026-04-11T09:33:16.858Z</time></trkpt><trkpt lat="41.2843267" lon="13.9770933"><ele>588.0</ele><time>2026-04-11T09:33:17.86Z</time></trkpt><trkpt lat="41.28426" lon="13.977045"><ele>588.0</ele><time>2026-04-11T09:33:18.857Z</time></trkpt><trkpt lat="41.2841933" lon="13.977"><ele>588.0</ele><time>2026-04-11T09:33:19.857Z</time></trkpt><trkpt lat="41.2841233" lon="13.9769617"><ele>588.0</ele><time>2026-04-11T09:33:20.858Z</time></trkpt><trkpt lat="41.2840567" lon="13.9769167"><ele>588.0</ele><time>2026-04-11T09:33:21.857Z</time></trkpt><trkpt lat="41.2839933" lon="13.9768683"><ele>588.0</ele><time>2026-04-11T09:33:22.858Z</time></trkpt><trkpt lat="41.28393" lon="13.97682"><ele>588.0</ele><time>2026-04-11T09:33:23.858Z</time></trkpt><trkpt lat="41.2838583" lon="13.97678"><ele>587.8333333333334</ele><time>2026-04-11T09:33:24.858Z</time></trkpt><trkpt lat="41.2837867" lon="13.9767383"><ele>587.6666666666666</ele><time>2026-04-11T09:33:25.859Z</time></trkpt><trkpt lat="41.28372" lon="13.976695"><ele>587.5</ele><time>2026-04-11T09:33:26.857Z</time></trkpt><trkpt lat="41.2836517" lon="13.97665"><ele>587.3333333333333</ele><time>2026-04-11T09:33:27.857Z</time></trkpt><trkpt lat="41.28358" lon="13.9766133"><ele>587.1666666666666</ele><time>2026-04-11T09:33:28.858Z</time></trkpt><trkpt lat="41.283505" lon="13.9765817"><ele>587.0</ele><time>2026-04-11T09:33:29.858Z</time></trkpt><trkpt lat="41.2834267" lon="13.976555"><ele>587.0</ele><time>2026-04-11T09:33:30.857Z</time></trkpt><trkpt lat="41.2833433" lon="13.976535"><ele>587.0</ele><time>2026-04-11T09:33:31.858Z</time></trkpt><trkpt lat="41.2832633" lon="13.9765167"><ele>587.0</ele><time>2026-04-11T09:33:32.858Z</time></trkpt><trkpt lat="41.283185" lon="13.9765017"><ele>587.0</ele><time>2026-04-11T09:33:33.857Z</time></trkpt><trkpt lat="41.2831067" lon="13.9764833"><ele>587.0</ele><time>2026-04-11T09:33:34.858Z</time></trkpt><trkpt lat="41.28303" lon="13.9764667"><ele>587.0</ele><time>2026-04-11T09:33:35.858Z</time></trkpt><trkpt lat="41.2829517" lon="13.9764567"><ele>587.0</ele><time>2026-04-11T09:33:36.859Z</time></trkpt><trkpt lat="41.2828717" lon="13.9764417"><ele>587.0</ele><time>2026-04-11T09:33:37.859Z</time></trkpt><trkpt lat="41.2827967" lon="13.976425"><ele>587.0</ele><time>2026-04-11T09:33:38.858Z</time></trkpt><trkpt lat="41.2827183" lon="13.9764083"><ele>587.0</ele><time>2026-04-11T09:33:39.857Z</time></trkpt><trkpt lat="41.2826433" lon="13.9763933"><ele>587.0</ele><time>2026-04-11T09:33:40.856Z</time></trkpt><trkpt lat="41.2825667" lon="13.9763833"><ele>587.0</ele><time>2026-04-11T09:33:41.858Z</time></trkpt><trkpt lat="41.282495" lon="13.9763767"><ele>587.0</ele><time>2026-04-11T09:33:42.857Z</time></trkpt><trkpt lat="41.282415" lon="13.97637"><ele>587.0</ele><time>2026-04-11T09:33:43.862Z</time></trkpt><trkpt lat="41.28234" lon="13.9763633"><ele>587.0</ele><time>2026-04-11T09:33:44.858Z</time></trkpt><trkpt lat="41.2822633" lon="13.97636"><ele>587.0</ele><time>2026-04-11T09:33:45.86Z</time></trkpt><trkpt lat="41.2821883" lon="13.976355"><ele>587.0</ele><time>2026-04-11T09:33:46.857Z</time></trkpt><trkpt lat="41.2821167" lon="13.9763467"><ele>587.0</ele><time>2026-04-11T09:33:47.858Z</time></trkpt><trkpt lat="41.2820433" lon="13.97634"><ele>587.1428571428571</ele><time>2026-04-11T09:33:48.858Z</time></trkpt><trkpt lat="41.2819717" lon="13.97633"><ele>587.2857142857143</ele><time>2026-04-11T09:33:49.858Z</time></trkpt><trkpt lat="41.281905" lon="13.9763167"><ele>587.4285714285714</ele><time>2026-04-11T09:33:50.858Z</time></trkpt><trkpt lat="41.2818317" lon="13.9763117"><ele>587.5714285714286</ele><time>2026-04-11T09:33:51.857Z</time></trkpt><trkpt lat="41.28176" lon="13.9763067"><ele>587.7142857142858</ele><time>2026-04-11T09:33:52.857Z</time></trkpt><trkpt lat="41.2816967" lon="13.9763067"><ele>587.8571428571429</ele><time>2026-04-11T09:33:53.858Z</time></trkpt><trkpt lat="41.2816283" lon="13.976305"><ele>588.0</ele><time>2026-04-11T09:33:54.857Z</time></trkpt><trkpt lat="41.2815583" lon="13.9762983"><ele>588.0</ele><time>2026-04-11T09:33:55.859Z</time></trkpt><trkpt lat="41.2814883" lon="13.97629"><ele>588.0</ele><time>2026-04-11T09:33:56.856Z</time></trkpt><trkpt lat="41.2814217" lon="13.97628"><ele>588.0</ele><time>2026-04-11T09:33:57.857Z</time></trkpt><trkpt lat="41.2813567" lon="13.9762617"><ele>588.0</ele><time>2026-04-11T09:33:58.858Z</time></trkpt><trkpt lat="41.2812833" lon="13.9762467"><ele>588.0</ele><time>2026-04-11T09:33:59.858Z</time></trkpt><trkpt lat="41.281215" lon="13.9762367"><ele>588.0</ele><time>2026-04-11T09:34:00.859Z</time></trkpt><trkpt lat="41.28114" lon="13.9762183"><ele>588.0</ele><time>2026-04-11T09:34:01.858Z</time></trkpt><trkpt lat="41.28107" lon="13.9761967"><ele>587.8333333333334</ele><time>2026-04-11T09:34:02.856Z</time></trkpt><trkpt lat="41.2809983" lon="13.9761683"><ele>587.6666666666666</ele><time>2026-04-11T09:34:03.857Z</time></trkpt><trkpt lat="41.2809267" lon="13.976135"><ele>587.5</ele><time>2026-04-11T09:34:04.857Z</time></trkpt><trkpt lat="41.28086" lon="13.976095"><ele>587.3333333333333</ele><time>2026-04-11T09:34:05.857Z</time></trkpt><trkpt lat="41.2807883" lon="13.97605"><ele>587.1666666666666</ele><time>2026-04-11T09:34:06.86Z</time></trkpt><trkpt lat="41.2807217" lon="13.975995"><ele>587.0</ele><time>2026-04-11T09:34:07.856Z</time></trkpt><trkpt lat="41.280655" lon="13.9759433"><ele>587.0</ele><time>2026-04-11T09:34:08.857Z</time></trkpt><trkpt lat="41.2805967" lon="13.9758833"><ele>587.0</ele><time>2026-04-11T09:34:09.857Z</time></trkpt><trkpt lat="41.28054" lon="13.9758183"><ele>587.0</ele><time>2026-04-11T09:34:10.856Z</time></trkpt><trkpt lat="41.2804883" lon="13.97575"><ele>587.0</ele><time>2026-04-11T09:34:11.857Z</time></trkpt><trkpt lat="41.28044" lon="13.9756783"><ele>587.0</ele><time>2026-04-11T09:34:12.856Z</time></trkpt><trkpt lat="41.2803867" lon="13.9756067"><ele>587.0</ele><time>2026-04-11T09:34:13.857Z</time></trkpt><trkpt lat="41.28033" lon="13.9755383"><ele>587.0</ele><time>2026-04-11T09:34:14.856Z</time></trkpt><trkpt lat="41.28028" lon="13.9754667"><ele>587.0</ele><time>2026-04-11T09:34:15.858Z</time></trkpt><trkpt lat="41.2802283" lon="13.9753933"><ele>587.0</ele><time>2026-04-11T09:34:16.857Z</time></trkpt><trkpt lat="41.2801767" lon="13.97532"><ele>587.0</ele><time>2026-04-11T09:34:17.857Z</time></trkpt><trkpt lat="41.2801267" lon="13.9752467"><ele>587.0</ele><time>2026-04-11T09:34:18.857Z</time></trkpt><trkpt lat="41.28008" lon="13.97517"><ele>587.0</ele><time>2026-04-11T09:34:19.857Z</time></trkpt><trkpt lat="41.2800283" lon="13.975095"><ele>587.0</ele><time>2026-04-11T09:34:20.857Z</time></trkpt><trkpt lat="41.2799767" lon="13.9750183"><ele>586.6666666666666</ele><time>2026-04-11T09:34:21.858Z</time></trkpt><trkpt lat="41.2799267" lon="13.97494"><ele>586.3333333333333</ele><time>2026-04-11T09:34:22.857Z</time></trkpt><trkpt lat="41.2798733" lon="13.9748583"><ele>586.0</ele><time>2026-04-11T09:34:23.856Z</time></trkpt><trkpt lat="41.2798267" lon="13.9747683"><ele>585.6666666666666</ele><time>2026-04-11T09:34:24.855Z</time></trkpt><trkpt lat="41.2797817" lon="13.9746717"><ele>585.3333333333334</ele><time>2026-04-11T09:34:25.857Z</time></trkpt><trkpt lat="41.2797333" lon="13.97458"><ele>585.0</ele><time>2026-04-11T09:34:26.856Z</time></trkpt><trkpt lat="41.2796833" lon="13.97449"><ele>585.0</ele><time>2026-04-11T09:34:27.856Z</time></trkpt><trkpt lat="41.27963" lon="13.9743983"><ele>585.0</ele><time>2026-04-11T09:34:28.857Z</time></trkpt><trkpt lat="41.2795783" lon="13.9743"><ele>585.0</ele><time>2026-04-11T09:34:29.857Z</time></trkpt><trkpt lat="41.2795267" lon="13.9742083"><ele>585.0</ele><time>2026-04-11T09:34:30.857Z</time></trkpt><trkpt lat="41.27947" lon="13.9741183"><ele>585.0</ele><time>2026-04-11T09:34:31.856Z</time></trkpt><trkpt lat="41.2794117" lon="13.9740333"><ele>585.0</ele><time>2026-04-11T09:34:32.856Z</time></trkpt><trkpt lat="41.2793567" lon="13.9739483"><ele>584.6666666666666</ele><time>2026-04-11T09:34:33.857Z</time></trkpt><trkpt lat="41.2793" lon="13.973865"><ele>584.3333333333334</ele><time>2026-04-11T09:34:34.856Z</time></trkpt><trkpt lat="41.279245" lon="13.9737817"><ele>584.0</ele><time>2026-04-11T09:34:35.856Z</time></trkpt><trkpt lat="41.2791917" lon="13.9737"><ele>583.6666666666667</ele><time>2026-04-11T09:34:36.859Z</time></trkpt><trkpt lat="41.279135" lon="13.97362"><ele>583.3333333333334</ele><time>2026-04-11T09:34:37.859Z</time></trkpt><trkpt lat="41.2790817" lon="13.9735433"><ele>583.0</ele><time>2026-04-11T09:34:38.858Z</time></trkpt><trkpt lat="41.27903" lon="13.9734733"><ele>583.0</ele><time>2026-04-11T09:34:39.858Z</time></trkpt><trkpt lat="41.27898" lon="13.9734017"><ele>583.0</ele><time>2026-04-11T09:34:40.857Z</time></trkpt><trkpt lat="41.278925" lon="13.9733317"><ele>583.0</ele><time>2026-04-11T09:34:41.856Z</time></trkpt><trkpt lat="41.2788767" lon="13.9732667"><ele>583.0</ele><time>2026-04-11T09:34:42.857Z</time></trkpt><trkpt lat="41.2788317" lon="13.9732067"><ele>583.0</ele><time>2026-04-11T09:34:43.857Z</time></trkpt><trkpt lat="41.27875" lon="13.97309"><ele>583.0</ele><time>2026-04-11T09:34:45.856Z</time></trkpt><trkpt lat="41.2786783" lon="13.9729883"><ele>583.0</ele><time>2026-04-11T09:34:47.858Z</time></trkpt><trkpt lat="41.2786083" lon="13.9728933"><ele>583.0</ele><time>2026-04-11T09:34:49.857Z</time></trkpt><trkpt lat="41.2785333" lon="13.972815"><ele>583.0</ele><time>2026-04-11T09:34:51.857Z</time></trkpt><trkpt lat="41.278455" lon="13.9727483"><ele>583.0</ele><time>2026-04-11T09:34:53.859Z</time></trkpt><trkpt lat="41.2783717" lon="13.97269"><ele>583.0</ele><time>2026-04-11T09:34:55.856Z</time></trkpt><trkpt lat="41.2782817" lon="13.9726433"><ele>583.0</ele><time>2026-04-11T09:34:57.858Z</time></trkpt><trkpt lat="41.27818" lon="13.972595"><ele>583.0</ele><time>2026-04-11T09:34:59.859Z</time></trkpt><trkpt lat="41.2780783" lon="13.972535"><ele>583.0</ele><time>2026-04-11T09:35:01.858Z</time></trkpt><trkpt lat="41.2779817" lon="13.9724767"><ele>583.0</ele><time>2026-04-11T09:35:03.858Z</time></trkpt><trkpt lat="41.2778867" lon="13.97241"><ele>583.0</ele><time>2026-04-11T09:35:05.858Z</time></trkpt><trkpt lat="41.2777967" lon="13.972315"><ele>583.6</ele><time>2026-04-11T09:35:07.858Z</time></trkpt><trkpt lat="41.2777117" lon="13.9722233"><ele>584.1999999999999</ele><time>2026-04-11T09:35:09.857Z</time></trkpt><trkpt lat="41.2776233" lon="13.9721233"><ele>584.8</ele><time>2026-04-11T09:35:11.858Z</time></trkpt><trkpt lat="41.2775467" lon="13.97203"><ele>585.4</ele><time>2026-04-11T09:35:13.856Z</time></trkpt><trkpt lat="41.2774783" lon="13.97193"><ele>586.0</ele><time>2026-04-11T09:35:15.857Z</time></trkpt><trkpt lat="41.2773933" lon="13.9718317"><ele>586.0</ele><time>2026-04-11T09:35:17.857Z</time></trkpt><trkpt lat="41.2773083" lon="13.9717383"><ele>586.0</ele><time>2026-04-11T09:35:19.857Z</time></trkpt><trkpt lat="41.2772267" lon="13.9716483"><ele>586.0</ele><time>2026-04-11T09:35:21.857Z</time></trkpt><trkpt lat="41.27715" lon="13.971555"><ele>586.0</ele><time>2026-04-11T09:35:23.857Z</time></trkpt><trkpt lat="41.2770717" lon="13.9714633"><ele>586.0</ele><time>2026-04-11T09:35:25.859Z</time></trkpt><trkpt lat="41.276995" lon="13.97136"><ele>586.8</ele><time>2026-04-11T09:35:27.857Z</time></trkpt><trkpt lat="41.2769167" lon="13.9712633"><ele>587.6</ele><time>2026-04-11T09:35:29.857Z</time></trkpt><trkpt lat="41.2768333" lon="13.97117"><ele>588.4</ele><time>2026-04-11T09:35:31.857Z</time></trkpt><trkpt lat="41.2767333" lon="13.9710917"><ele>589.2</ele><time>2026-04-11T09:35:33.856Z</time></trkpt><trkpt lat="41.27664" lon="13.971"><ele>590.0</ele><time>2026-04-11T09:35:35.857Z</time></trkpt><trkpt lat="41.2765467" lon="13.9708933"><ele>589.25</ele><time>2026-04-11T09:35:37.856Z</time></trkpt><trkpt lat="41.276455" lon="13.9707867"><ele>588.5</ele><time>2026-04-11T09:35:39.856Z</time></trkpt><trkpt lat="41.2763633" lon="13.9706867"><ele>587.75</ele><time>2026-04-11T09:35:41.857Z</time></trkpt><trkpt lat="41.2762767" lon="13.9705733"><ele>587.0</ele><time>2026-04-11T09:35:43.856Z</time></trkpt><trkpt lat="41.2761917" lon="13.9704617"><ele>587.0</ele><time>2026-04-11T09:35:45.857Z</time></trkpt><trkpt lat="41.276105" lon="13.97035"><ele>587.0</ele><time>2026-04-11T09:35:47.857Z</time></trkpt><trkpt lat="41.27602" lon="13.9702383"><ele>587.0</ele><time>2026-04-11T09:35:49.857Z</time></trkpt><trkpt lat="41.275975" lon="13.9701783"><ele>587.0</ele><time>2026-04-11T09:35:50.856Z</time></trkpt><trkpt lat="41.2758867" lon="13.9700633"><ele>587.0</ele><time>2026-04-11T09:35:52.856Z</time></trkpt><trkpt lat="41.2758383" lon="13.9700083"><ele>587.0</ele><time>2026-04-11T09:35:53.857Z</time></trkpt><trkpt lat="41.2757867" lon="13.969955"><ele>587.0</ele><time>2026-04-11T09:35:54.856Z</time></trkpt><trkpt lat="41.2756967" lon="13.969845"><ele>587.0</ele><time>2026-04-11T09:35:56.856Z</time></trkpt><trkpt lat="41.275645" lon="13.9697933"><ele>587.0</ele><time>2026-04-11T09:35:57.857Z</time></trkpt><trkpt lat="41.2755917" lon="13.9697383"><ele>587.0</ele><time>2026-04-11T09:35:58.856Z</time></trkpt><trkpt lat="41.2755367" lon="13.969685"><ele>587.0</ele><time>2026-04-11T09:35:59.857Z</time></trkpt><trkpt lat="41.275485" lon="13.9696317"><ele>587.2857142857143</ele><time>2026-04-11T09:36:00.857Z</time></trkpt><trkpt lat="41.2754317" lon="13.9695833"><ele>587.5714285714287</ele><time>2026-04-11T09:36:01.858Z</time></trkpt><trkpt lat="41.2753783" lon="13.969535"><ele>587.8571428571429</ele><time>2026-04-11T09:36:02.857Z</time></trkpt><trkpt lat="41.275325" lon="13.9694867"><ele>588.1428571428571</ele><time>2026-04-11T09:36:03.857Z</time></trkpt><trkpt lat="41.2752717" lon="13.9694333"><ele>588.4285714285713</ele><time>2026-04-11T09:36:04.856Z</time></trkpt><trkpt lat="41.2752167" lon="13.9693783"><ele>588.7142857142857</ele><time>2026-04-11T09:36:05.858Z</time></trkpt><trkpt lat="41.2751617" lon="13.969325"><ele>589.0</ele><time>2026-04-11T09:36:06.857Z</time></trkpt><trkpt lat="41.275105" lon="13.969275"><ele>589.0</ele><time>2026-04-11T09:36:07.858Z</time></trkpt><trkpt lat="41.27505" lon="13.9692267"><ele>589.0</ele><time>2026-04-11T09:36:08.856Z</time></trkpt><trkpt lat="41.274995" lon="13.96918"><ele>589.0</ele><time>2026-04-11T09:36:09.856Z</time></trkpt><trkpt lat="41.27494" lon="13.9691333"><ele>589.0</ele><time>2026-04-11T09:36:10.857Z</time></trkpt><trkpt lat="41.2748367" lon="13.9690467"><ele>589.0</ele><time>2026-04-11T09:36:12.857Z</time></trkpt><trkpt lat="41.27473" lon="13.96897"><ele>589.0</ele><time>2026-04-11T09:36:14.857Z</time></trkpt><trkpt lat="41.2746283" lon="13.9688983"><ele>588.2</ele><time>2026-04-11T09:36:16.856Z</time></trkpt><trkpt lat="41.2745267" lon="13.9688367"><ele>587.4</ele><time>2026-04-11T09:36:18.857Z</time></trkpt><trkpt lat="41.27443" lon="13.96877"><ele>586.6</ele><time>2026-04-11T09:36:20.857Z</time></trkpt><trkpt lat="41.2743383" lon="13.96871"><ele>585.8</ele><time>2026-04-11T09:36:22.857Z</time></trkpt><trkpt lat="41.2742483" lon="13.9686483"><ele>585.0</ele><time>2026-04-11T09:36:24.857Z</time></trkpt><trkpt lat="41.274165" lon="13.9685967"><ele>585.0</ele><time>2026-04-11T09:36:26.857Z</time></trkpt><trkpt lat="41.2740767" lon="13.9685383"><ele>585.0</ele><time>2026-04-11T09:36:28.857Z</time></trkpt><trkpt lat="41.273995" lon="13.968485"><ele>585.0</ele><time>2026-04-11T09:36:30.858Z</time></trkpt><trkpt lat="41.2739183" lon="13.9684317"><ele>585.0</ele><time>2026-04-11T09:36:32.857Z</time></trkpt><trkpt lat="41.2738433" lon="13.96838"><ele>585.0</ele><time>2026-04-11T09:36:34.857Z</time></trkpt><trkpt lat="41.27376" lon="13.9683317"><ele>586.6666666666666</ele><time>2026-04-11T09:36:36.857Z</time></trkpt><trkpt lat="41.2736933" lon="13.9682767"><ele>588.3333333333334</ele><time>2026-04-11T09:36:38.857Z</time></trkpt><trkpt lat="41.27362" lon="13.9682233"><ele>590.0</ele><time>2026-04-11T09:36:40.857Z</time></trkpt><trkpt lat="41.2735467" lon="13.968175"><ele>591.6666666666667</ele><time>2026-04-11T09:36:42.856Z</time></trkpt><trkpt lat="41.2734667" lon="13.9681483"><ele>593.3333333333334</ele><time>2026-04-11T09:36:44.857Z</time></trkpt><trkpt lat="41.2733817" lon="13.9681133"><ele>595.0</ele><time>2026-04-11T09:36:46.857Z</time></trkpt><trkpt lat="41.2733033" lon="13.9680883"><ele>595.0</ele><time>2026-04-11T09:36:48.857Z</time></trkpt><trkpt lat="41.2732333" lon="13.9680533"><ele>595.0</ele><time>2026-04-11T09:36:50.858Z</time></trkpt><trkpt lat="41.2731583" lon="13.9680367"><ele>595.0</ele><time>2026-04-11T09:36:52.857Z</time></trkpt><trkpt lat="41.27308" lon="13.9680367"><ele>595.0</ele><time>2026-04-11T09:36:54.857Z</time></trkpt><trkpt lat="41.2730083" lon="13.9680417"><ele>595.0</ele><time>2026-04-11T09:36:56.857Z</time></trkpt><trkpt lat="41.2729383" lon="13.96807"><ele>595.0</ele><time>2026-04-11T09:36:58.857Z</time></trkpt><trkpt lat="41.2728767" lon="13.968115"><ele>595.0</ele><time>2026-04-11T09:37:00.857Z</time></trkpt><trkpt lat="41.2728133" lon="13.96818"><ele>596.5</ele><time>2026-04-11T09:37:03.857Z</time></trkpt><trkpt lat="41.2727667" lon="13.968265"><ele>598.0</ele><time>2026-04-11T09:37:06.857Z</time></trkpt><trkpt lat="41.2727133" lon="13.9683633"><ele>599.5</ele><time>2026-04-11T09:37:09.857Z</time></trkpt><trkpt lat="41.2726717" lon="13.9684633"><ele>601.0</ele><time>2026-04-11T09:37:12.858Z</time></trkpt><trkpt lat="41.2726483" lon="13.9685483"><ele>602.5</ele><time>2026-04-11T09:37:15.857Z</time></trkpt><trkpt lat="41.27261" lon="13.96863"><ele>604.0</ele><time>2026-04-11T09:37:18.858Z</time></trkpt><trkpt lat="41.2725717" lon="13.9687"><ele>604.0000000000001</ele><time>2026-04-11T09:37:21.857Z</time></trkpt><trkpt lat="41.2725183" lon="13.968785"><ele>604.0</ele><time>2026-04-11T09:37:24.857Z</time></trkpt><trkpt lat="41.2724633" lon="13.9688567"><ele>604.0</ele><time>2026-04-11T09:37:27.857Z</time></trkpt><trkpt lat="41.2724183" lon="13.968935"><ele>604.0</ele><time>2026-04-11T09:37:30.857Z</time></trkpt><trkpt lat="41.2723783" lon="13.9690183"><ele>604.0</ele><time>2026-04-11T09:37:33.856Z</time></trkpt><trkpt lat="41.272335" lon="13.969085"><ele>604.0000000000001</ele><time>2026-04-11T09:37:36.857Z</time></trkpt><trkpt lat="41.2722867" lon="13.969155"><ele>604.0</ele><time>2026-04-11T09:37:39.857Z</time></trkpt><trkpt lat="41.2722317" lon="13.9692283"><ele>605.4285714285714</ele><time>2026-04-11T09:37:42.857Z</time></trkpt><trkpt lat="41.2721817" lon="13.9692883"><ele>606.8571428571429</ele><time>2026-04-11T09:37:45.857Z</time></trkpt><trkpt lat="41.272145" lon="13.969375"><ele>608.2857142857142</ele><time>2026-04-11T09:37:48.857Z</time></trkpt><trkpt lat="41.2721067" lon="13.9694433"><ele>609.7142857142858</ele><time>2026-04-11T09:37:51.857Z</time></trkpt><trkpt lat="41.2720633" lon="13.96954"><ele>611.1428571428571</ele><time>2026-04-11T09:37:54.858Z</time></trkpt><trkpt lat="41.2720233" lon="13.9696067"><ele>612.5714285714286</ele><time>2026-04-11T09:37:56.857Z</time></trkpt><trkpt lat="41.2719917" lon="13.9697133"><ele>614.0</ele><time>2026-04-11T09:37:59.857Z</time></trkpt><trkpt lat="41.2719667" lon="13.9698083"><ele>614.0</ele><time>2026-04-11T09:38:01.857Z</time></trkpt><trkpt lat="41.2719483" lon="13.9698983"><ele>614.0</ele><time>2026-04-11T09:38:03.856Z</time></trkpt><trkpt lat="41.27193" lon="13.97"><ele>614.0</ele><time>2026-04-11T09:38:05.86Z</time></trkpt><trkpt lat="41.27189" lon="13.970115"><ele>614.0</ele><time>2026-04-11T09:38:07.857Z</time></trkpt><trkpt lat="41.271825" lon="13.9702283"><ele>614.0</ele><time>2026-04-11T09:38:09.857Z</time></trkpt><trkpt lat="41.271725" lon="13.9703167"><ele>614.1666666666666</ele><time>2026-04-11T09:38:11.857Z</time></trkpt><trkpt lat="41.27167" lon="13.9703717"><ele>614.3333333333333</ele><time>2026-04-11T09:38:12.856Z</time></trkpt><trkpt lat="41.27161" lon="13.9704317"><ele>614.5</ele><time>2026-04-11T09:38:13.859Z</time></trkpt><trkpt lat="41.27155" lon="13.9704933"><ele>614.6666666666666</ele><time>2026-04-11T09:38:14.857Z</time></trkpt><trkpt lat="41.2714883" lon="13.9705617"><ele>614.8333333333334</ele><time>2026-04-11T09:38:15.857Z</time></trkpt><trkpt lat="41.27143" lon="13.9706333"><ele>615.0</ele><time>2026-04-11T09:38:16.857Z</time></trkpt><trkpt lat="41.2713817" lon="13.97072"><ele>615.0</ele><time>2026-04-11T09:38:17.856Z</time></trkpt><trkpt lat="41.2713417" lon="13.9708067"><ele>615.0</ele><time>2026-04-11T09:38:18.857Z</time></trkpt><trkpt lat="41.27131" lon="13.9708933"><ele>615.0</ele><time>2026-04-11T09:38:19.857Z</time></trkpt><trkpt lat="41.2712767" lon="13.97098"><ele>615.0</ele><time>2026-04-11T09:38:20.857Z</time></trkpt><trkpt lat="41.2712417" lon="13.971075"><ele>615.0</ele><time>2026-04-11T09:38:21.858Z</time></trkpt><trkpt lat="41.2712033" lon="13.9711733"><ele>615.0</ele><time>2026-04-11T09:38:22.857Z</time></trkpt><trkpt lat="41.271165" lon="13.9712733"><ele>612.6</ele><time>2026-04-11T09:38:23.858Z</time></trkpt><trkpt lat="41.271125" lon="13.9713767"><ele>610.2</ele><time>2026-04-11T09:38:24.858Z</time></trkpt><trkpt lat="41.27108" lon="13.971485"><ele>607.8</ele><time>2026-04-11T09:38:25.858Z</time></trkpt><trkpt lat="41.2710233" lon="13.9715967"><ele>605.4</ele><time>2026-04-11T09:38:26.857Z</time></trkpt><trkpt lat="41.270985" lon="13.971705"><ele>603.0</ele><time>2026-04-11T09:38:27.859Z</time></trkpt><trkpt lat="41.2709433" lon="13.971805"><ele>598.4</ele><time>2026-04-11T09:38:28.859Z</time></trkpt><trkpt lat="41.2708867" lon="13.97191"><ele>593.8</ele><time>2026-04-11T09:38:29.858Z</time></trkpt><trkpt lat="41.2708333" lon="13.972005"><ele>589.2</ele><time>2026-04-11T09:38:30.881Z</time></trkpt><trkpt lat="41.2707717" lon="13.9720917"><ele>584.6</ele><time>2026-04-11T09:38:31.856Z</time></trkpt><trkpt lat="41.2707067" lon="13.9721717"><ele>580.0</ele><time>2026-04-11T09:38:32.856Z</time></trkpt><trkpt lat="41.2706367" lon="13.9722467"><ele>578.0</ele><time>2026-04-11T09:38:33.858Z</time></trkpt><trkpt lat="41.2705583" lon="13.9723117"><ele>576.0</ele><time>2026-04-11T09:38:34.858Z</time></trkpt><trkpt lat="41.2704683" lon="13.9723867"><ele>574.0</ele><time>2026-04-11T09:38:35.857Z</time></trkpt><trkpt lat="41.27037" lon="13.9724667"><ele>572.0</ele><time>2026-04-11T09:38:36.857Z</time></trkpt><trkpt lat="41.2702717" lon="13.9725417"><ele>570.0</ele><time>2026-04-11T09:38:37.856Z</time></trkpt><trkpt lat="41.2701667" lon="13.97261"><ele>570.0</ele><time>2026-04-11T09:38:38.857Z</time></trkpt><trkpt lat="41.27007" lon="13.972675"><ele>570.0</ele><time>2026-04-11T09:38:39.857Z</time></trkpt><trkpt lat="41.269975" lon="13.9727567"><ele>570.0</ele><time>2026-04-11T09:38:40.857Z</time></trkpt><trkpt lat="41.269895" lon="13.9728367"><ele>570.0</ele><time>2026-04-11T09:38:41.857Z</time></trkpt><trkpt lat="41.26981" lon="13.9729383"><ele>570.0</ele><time>2026-04-11T09:38:42.857Z</time></trkpt><trkpt lat="41.269725" lon="13.9730417"><ele>570.6</ele><time>2026-04-11T09:38:43.857Z</time></trkpt><trkpt lat="41.2696517" lon="13.9731383"><ele>571.2</ele><time>2026-04-11T09:38:44.857Z</time></trkpt><trkpt lat="41.2695767" lon="13.9732333"><ele>571.8</ele><time>2026-04-11T09:38:45.857Z</time></trkpt><trkpt lat="41.2695" lon="13.9733217"><ele>572.4</ele><time>2026-04-11T09:38:46.857Z</time></trkpt><trkpt lat="41.2694117" lon="13.97341"><ele>573.0</ele><time>2026-04-11T09:38:47.857Z</time></trkpt><trkpt lat="41.2693117" lon="13.9735083"><ele>573.0</ele><time>2026-04-11T09:38:48.858Z</time></trkpt><trkpt lat="41.26921" lon="13.9736083"><ele>573.0</ele><time>2026-04-11T09:38:49.857Z</time></trkpt><trkpt lat="41.2691133" lon="13.9737"><ele>573.0</ele><time>2026-04-11T09:38:50.856Z</time></trkpt><trkpt lat="41.26902" lon="13.9737833"><ele>573.0</ele><time>2026-04-11T09:38:51.856Z</time></trkpt><trkpt lat="41.268935" lon="13.9738733"><ele>574.0</ele><time>2026-04-11T09:38:52.857Z</time></trkpt><trkpt lat="41.2688533" lon="13.973975"><ele>575.0</ele><time>2026-04-11T09:38:53.858Z</time></trkpt><trkpt lat="41.268775" lon="13.9740817"><ele>576.0</ele><time>2026-04-11T09:38:54.857Z</time></trkpt><trkpt lat="41.2687067" lon="13.9741817"><ele>577.0</ele><time>2026-04-11T09:38:55.857Z</time></trkpt><trkpt lat="41.2686383" lon="13.9742833"><ele>578.0</ele><time>2026-04-11T09:38:56.858Z</time></trkpt><trkpt lat="41.26857" lon="13.9743833"><ele>578.0</ele><time>2026-04-11T09:38:57.858Z</time></trkpt><trkpt lat="41.2685033" lon="13.9744833"><ele>578.0</ele><time>2026-04-11T09:38:58.857Z</time></trkpt><trkpt lat="41.2684333" lon="13.9745783"><ele>578.0</ele><time>2026-04-11T09:38:59.858Z</time></trkpt><trkpt lat="41.2683617" lon="13.9746767"><ele>578.0</ele><time>2026-04-11T09:39:00.857Z</time></trkpt><trkpt lat="41.2682867" lon="13.974775"><ele>578.0</ele><time>2026-04-11T09:39:01.858Z</time></trkpt><trkpt lat="41.2682067" lon="13.974875"><ele>578.0</ele><time>2026-04-11T09:39:02.857Z</time></trkpt><trkpt lat="41.26813" lon="13.9749767"><ele>578.0</ele><time>2026-04-11T09:39:03.859Z</time></trkpt><trkpt lat="41.26805" lon="13.9750833"><ele>578.0</ele><time>2026-04-11T09:39:04.858Z</time></trkpt><trkpt lat="41.2679667" lon="13.97519"><ele>578.0</ele><time>2026-04-11T09:39:05.857Z</time></trkpt><trkpt lat="41.267885" lon="13.975295"><ele>578.0</ele><time>2026-04-11T09:39:06.858Z</time></trkpt><trkpt lat="41.2678033" lon="13.975395"><ele>578.0</ele><time>2026-04-11T09:39:07.856Z</time></trkpt><trkpt lat="41.2677167" lon="13.9755017"><ele>578.0</ele><time>2026-04-11T09:39:08.857Z</time></trkpt><trkpt lat="41.2676367" lon="13.97561"><ele>578.0</ele><time>2026-04-11T09:39:09.856Z</time></trkpt><trkpt lat="41.2675517" lon="13.9757167"><ele>578.0</ele><time>2026-04-11T09:39:10.857Z</time></trkpt><trkpt lat="41.2674667" lon="13.97582"><ele>578.0</ele><time>2026-04-11T09:39:11.856Z</time></trkpt><trkpt lat="41.2673733" lon="13.9759117"><ele>578.0</ele><time>2026-04-11T09:39:12.856Z</time></trkpt><trkpt lat="41.2672667" lon="13.975985"><ele>578.0</ele><time>2026-04-11T09:39:13.857Z</time></trkpt><trkpt lat="41.267165" lon="13.97605"><ele>577.5</ele><time>2026-04-11T09:39:14.857Z</time></trkpt><trkpt lat="41.2670617" lon="13.9761183"><ele>577.0</ele><time>2026-04-11T09:39:15.856Z</time></trkpt><trkpt lat="41.2669567" lon="13.976195"><ele>576.5</ele><time>2026-04-11T09:39:16.858Z</time></trkpt><trkpt lat="41.2668583" lon="13.9762683"><ele>576.0</ele><time>2026-04-11T09:39:17.857Z</time></trkpt><trkpt lat="41.2667367" lon="13.976345"><ele>576.0</ele><time>2026-04-11T09:39:18.857Z</time></trkpt><trkpt lat="41.2666183" lon="13.9764117"><ele>576.0</ele><time>2026-04-11T09:39:19.86Z</time></trkpt><trkpt lat="41.26652" lon="13.9764817"><ele>576.0</ele><time>2026-04-11T09:39:20.856Z</time></trkpt><trkpt lat="41.2664283" lon="13.9765533"><ele>576.0</ele><time>2026-04-11T09:39:21.855Z</time></trkpt><trkpt lat="41.2663317" lon="13.976615"><ele>574.0</ele><time>2026-04-11T09:39:22.861Z</time></trkpt><trkpt lat="41.266245" lon="13.976675"><ele>572.0</ele><time>2026-04-11T09:39:23.857Z</time></trkpt><trkpt lat="41.2661583" lon="13.9767567"><ele>570.0</ele><time>2026-04-11T09:39:24.857Z</time></trkpt><trkpt lat="41.2660783" lon="13.97686"><ele>568.0</ele><time>2026-04-11T09:39:25.858Z</time></trkpt><trkpt lat="41.26602" lon="13.97698"><ele>566.0</ele><time>2026-04-11T09:39:26.858Z</time></trkpt><trkpt lat="41.26597" lon="13.9771133"><ele>566.0</ele><time>2026-04-11T09:39:27.856Z</time></trkpt><trkpt lat="41.2659167" lon="13.9772467"><ele>566.0</ele><time>2026-04-11T09:39:28.858Z</time></trkpt><trkpt lat="41.2658717" lon="13.977375"><ele>566.0</ele><time>2026-04-11T09:39:29.86Z</time></trkpt><trkpt lat="41.2658267" lon="13.9775117"><ele>566.0</ele><time>2026-04-11T09:39:30.856Z</time></trkpt><trkpt lat="41.265785" lon="13.9776517"><ele>566.0</ele><time>2026-04-11T09:39:31.856Z</time></trkpt><trkpt lat="41.2657483" lon="13.9777883"><ele>565.8</ele><time>2026-04-11T09:39:32.857Z</time></trkpt><trkpt lat="41.2657233" lon="13.9779183"><ele>565.6</ele><time>2026-04-11T09:39:33.858Z</time></trkpt><trkpt lat="41.2657167" lon="13.978045"><ele>565.4</ele><time>2026-04-11T09:39:34.857Z</time></trkpt><trkpt lat="41.2657283" lon="13.9781733"><ele>565.2</ele><time>2026-04-11T09:39:35.857Z</time></trkpt><trkpt lat="41.26575" lon="13.9783033"><ele>565.0</ele><time>2026-04-11T09:39:36.858Z</time></trkpt><trkpt lat="41.2657833" lon="13.9784367"><ele>564.0</ele><time>2026-04-11T09:39:37.857Z</time></trkpt><trkpt lat="41.2658183" lon="13.978575"><ele>563.0</ele><time>2026-04-11T09:39:38.857Z</time></trkpt><trkpt lat="41.265845" lon="13.9787167"><ele>562.0</ele><time>2026-04-11T09:39:39.857Z</time></trkpt><trkpt lat="41.265865" lon="13.9788633"><ele>561.0</ele><time>2026-04-11T09:39:40.857Z</time></trkpt><trkpt lat="41.265875" lon="13.9790133"><ele>560.0</ele><time>2026-04-11T09:39:41.857Z</time></trkpt><trkpt lat="41.2658683" lon="13.9791617"><ele>560.2</ele><time>2026-04-11T09:39:42.858Z</time></trkpt><trkpt lat="41.2658483" lon="13.9793067"><ele>560.4</ele><time>2026-04-11T09:39:43.857Z</time></trkpt><trkpt lat="41.2658217" lon="13.9794533"><ele>560.6</ele><time>2026-04-11T09:39:44.857Z</time></trkpt><trkpt lat="41.2657917" lon="13.9795917"><ele>560.8</ele><time>2026-04-11T09:39:45.858Z</time></trkpt><trkpt lat="41.2657567" lon="13.9797283"><ele>561.0</ele><time>2026-04-11T09:39:46.857Z</time></trkpt><trkpt lat="41.265715" lon="13.9798533"><ele>561.0</ele><time>2026-04-11T09:39:47.857Z</time></trkpt><trkpt lat="41.265665" lon="13.97996"><ele>561.0</ele><time>2026-04-11T09:39:48.857Z</time></trkpt><trkpt lat="41.265605" lon="13.9800517"><ele>561.0</ele><time>2026-04-11T09:39:49.856Z</time></trkpt><trkpt lat="41.2655317" lon="13.98012"><ele>561.0</ele><time>2026-04-11T09:39:50.856Z</time></trkpt><trkpt lat="41.2654517" lon="13.9801667"><ele>561.0</ele><time>2026-04-11T09:39:51.855Z</time></trkpt><trkpt lat="41.2653683" lon="13.9801983"><ele>561.0</ele><time>2026-04-11T09:39:52.857Z</time></trkpt><trkpt lat="41.265275" lon="13.9802183"><ele>561.8</ele><time>2026-04-11T09:39:53.856Z</time></trkpt><trkpt lat="41.2651733" lon="13.9802167"><ele>562.6</ele><time>2026-04-11T09:39:54.857Z</time></trkpt><trkpt lat="41.2650717" lon="13.9802117"><ele>563.4</ele><time>2026-04-11T09:39:55.857Z</time></trkpt><trkpt lat="41.26497" lon="13.9801967"><ele>564.2</ele><time>2026-04-11T09:39:56.857Z</time></trkpt><trkpt lat="41.264865" lon="13.9801867"><ele>565.0</ele><time>2026-04-11T09:39:57.857Z</time></trkpt><trkpt lat="41.264765" lon="13.9801917"><ele>562.0</ele><time>2026-04-11T09:39:58.858Z</time></trkpt><trkpt lat="41.2646583" lon="13.98021"><ele>559.0</ele><time>2026-04-11T09:39:59.857Z</time></trkpt><trkpt lat="41.2645533" lon="13.9802233"><ele>556.0</ele><time>2026-04-11T09:40:00.857Z</time></trkpt><trkpt lat="41.2644483" lon="13.9802517"><ele>553.0</ele><time>2026-04-11T09:40:01.858Z</time></trkpt><trkpt lat="41.264345" lon="13.9803033"><ele>550.0</ele><time>2026-04-11T09:40:02.858Z</time></trkpt><trkpt lat="41.2642433" lon="13.9803817"><ele>550.0</ele><time>2026-04-11T09:40:03.857Z</time></trkpt><trkpt lat="41.264135" lon="13.9804633"><ele>550.0</ele><time>2026-04-11T09:40:04.856Z</time></trkpt><trkpt lat="41.2640333" lon="13.9805583"><ele>550.0</ele><time>2026-04-11T09:40:05.857Z</time></trkpt><trkpt lat="41.263925" lon="13.9806417"><ele>550.0</ele><time>2026-04-11T09:40:06.86Z</time></trkpt><trkpt lat="41.2638183" lon="13.980735"><ele>547.0</ele><time>2026-04-11T09:40:07.858Z</time></trkpt><trkpt lat="41.2637083" lon="13.980835"><ele>544.0</ele><time>2026-04-11T09:40:08.856Z</time></trkpt><trkpt lat="41.2636" lon="13.98096"><ele>541.0</ele><time>2026-04-11T09:40:09.858Z</time></trkpt><trkpt lat="41.2634883" lon="13.9810633"><ele>538.0</ele><time>2026-04-11T09:40:10.857Z</time></trkpt><trkpt lat="41.26338" lon="13.9811633"><ele>538.0</ele><time>2026-04-11T09:40:11.858Z</time></trkpt><trkpt lat="41.2632733" lon="13.981255"><ele>538.0</ele><time>2026-04-11T09:40:12.857Z</time></trkpt><trkpt lat="41.263175" lon="13.9813383"><ele>538.0</ele><time>2026-04-11T09:40:13.856Z</time></trkpt><trkpt lat="41.263075" lon="13.9814083"><ele>538.0</ele><time>2026-04-11T09:40:14.857Z</time></trkpt><trkpt lat="41.262975" lon="13.98146"><ele>535.25</ele><time>2026-04-11T09:40:15.858Z</time></trkpt><trkpt lat="41.2628683" lon="13.9815017"><ele>532.5</ele><time>2026-04-11T09:40:16.858Z</time></trkpt><trkpt lat="41.2627567" lon="13.9815283"><ele>529.75</ele><time>2026-04-11T09:40:17.858Z</time></trkpt><trkpt lat="41.2626417" lon="13.98154"><ele>527.0</ele><time>2026-04-11T09:40:18.857Z</time></trkpt><trkpt lat="41.262515" lon="13.9815367"><ele>527.0</ele><time>2026-04-11T09:40:19.857Z</time></trkpt><trkpt lat="41.2623967" lon="13.9815083"><ele>527.0</ele><time>2026-04-11T09:40:20.858Z</time></trkpt><trkpt lat="41.2622767" lon="13.9814633"><ele>527.0</ele><time>2026-04-11T09:40:21.858Z</time></trkpt><trkpt lat="41.26215" lon="13.9814133"><ele>527.0</ele><time>2026-04-11T09:40:22.859Z</time></trkpt><trkpt lat="41.2620383" lon="13.98135"><ele>524.4</ele><time>2026-04-11T09:40:23.859Z</time></trkpt><trkpt lat="41.2619367" lon="13.98129"><ele>521.8000000000001</ele><time>2026-04-11T09:40:24.857Z</time></trkpt><trkpt lat="41.26184" lon="13.981245"><ele>519.2</ele><time>2026-04-11T09:40:25.857Z</time></trkpt><trkpt lat="41.2617483" lon="13.9812267"><ele>516.6</ele><time>2026-04-11T09:40:26.858Z</time></trkpt><trkpt lat="41.261665" lon="13.98123"><ele>514.0</ele><time>2026-04-11T09:40:27.857Z</time></trkpt><trkpt lat="41.2616" lon="13.9812583"><ele>514.0</ele><time>2026-04-11T09:40:28.857Z</time></trkpt><trkpt lat="41.26154" lon="13.9812983"><ele>514.0</ele><time>2026-04-11T09:40:29.858Z</time></trkpt><trkpt lat="41.2615017" lon="13.9813683"><ele>514.0</ele><time>2026-04-11T09:40:30.857Z</time></trkpt><trkpt lat="41.2614783" lon="13.9815033"><ele>514.0</ele><time>2026-04-11T09:40:32.857Z</time></trkpt><trkpt lat="41.2615167" lon="13.98161"><ele>514.0</ele><time>2026-04-11T09:40:33.857Z</time></trkpt><trkpt lat="41.2615633" lon="13.981705"><ele>514.0</ele><time>2026-04-11T09:40:34.857Z</time></trkpt><trkpt lat="41.2616733" lon="13.981785"><ele>510.0</ele><time>2026-04-11T09:40:35.857Z</time></trkpt><trkpt lat="41.2618117" lon="13.9818733"><ele>506.0</ele><time>2026-04-11T09:40:36.858Z</time></trkpt><trkpt lat="41.2619283" lon="13.9819367"><ele>502.0</ele><time>2026-04-11T09:40:37.858Z</time></trkpt><trkpt lat="41.2620383" lon="13.9820067"><ele>498.0</ele><time>2026-04-11T09:40:38.856Z</time></trkpt><trkpt lat="41.2621333" lon="13.9820933"><ele>498.0</ele><time>2026-04-11T09:40:39.857Z</time></trkpt><trkpt lat="41.2622217" lon="13.9821933"><ele>497.99999999999994</ele><time>2026-04-11T09:40:40.86Z</time></trkpt><trkpt lat="41.2622933" lon="13.9823183"><ele>497.99999999999994</ele><time>2026-04-11T09:40:41.858Z</time></trkpt><trkpt lat="41.26233" lon="13.9824417"><ele>498.0</ele><time>2026-04-11T09:40:42.856Z</time></trkpt><trkpt lat="41.26235" lon="13.9825767"><ele>498.0</ele><time>2026-04-11T09:40:43.858Z</time></trkpt><trkpt lat="41.262365" lon="13.9827033"><ele>500.4</ele><time>2026-04-11T09:40:44.856Z</time></trkpt><trkpt lat="41.26237" lon="13.9828333"><ele>502.79999999999995</ele><time>2026-04-11T09:40:45.857Z</time></trkpt><trkpt lat="41.2623867" lon="13.982955"><ele>505.2</ele><time>2026-04-11T09:40:46.858Z</time></trkpt><trkpt lat="41.262415" lon="13.9830767"><ele>507.6</ele><time>2026-04-11T09:40:47.857Z</time></trkpt><trkpt lat="41.2624583" lon="13.98319"><ele>510.0</ele><time>2026-04-11T09:40:48.858Z</time></trkpt><trkpt lat="41.2625033" lon="13.9833017"><ele>510.0</ele><time>2026-04-11T09:40:49.857Z</time></trkpt><trkpt lat="41.26255" lon="13.9834083"><ele>510.0</ele><time>2026-04-11T09:40:50.858Z</time></trkpt><trkpt lat="41.262585" lon="13.98352"><ele>510.0</ele><time>2026-04-11T09:40:51.857Z</time></trkpt><trkpt lat="41.2626133" lon="13.98363"><ele>510.0</ele><time>2026-04-11T09:40:52.857Z</time></trkpt><trkpt lat="41.2626233" lon="13.9837333"><ele>510.0</ele><time>2026-04-11T09:40:53.858Z</time></trkpt><trkpt lat="41.2626083" lon="13.98383"><ele>510.0</ele><time>2026-04-11T09:40:54.858Z</time></trkpt><trkpt lat="41.2625783" lon="13.9839217"><ele>510.0</ele><time>2026-04-11T09:40:55.858Z</time></trkpt><trkpt lat="41.26254" lon="13.984"><ele>510.0</ele><time>2026-04-11T09:40:56.858Z</time></trkpt><trkpt lat="41.26249" lon="13.98408"><ele>510.0</ele><time>2026-04-11T09:40:57.858Z</time></trkpt><trkpt lat="41.2624317" lon="13.98415"><ele>510.0</ele><time>2026-04-11T09:40:58.857Z</time></trkpt><trkpt lat="41.26234" lon="13.9841933"><ele>510.0</ele><time>2026-04-11T09:40:59.856Z</time></trkpt><trkpt lat="41.2622533" lon="13.9842467"><ele>510.0</ele><time>2026-04-11T09:41:00.857Z</time></trkpt><trkpt lat="41.262145" lon="13.984295"><ele>506.8</ele><time>2026-04-11T09:41:01.857Z</time></trkpt><trkpt lat="41.2620467" lon="13.9843567"><ele>503.6</ele><time>2026-04-11T09:41:02.857Z</time></trkpt><trkpt lat="41.2619533" lon="13.9844233"><ele>500.4</ele><time>2026-04-11T09:41:03.858Z</time></trkpt><trkpt lat="41.26187" lon="13.98451"><ele>497.2</ele><time>2026-04-11T09:41:04.859Z</time></trkpt><trkpt lat="41.2617767" lon="13.9845867"><ele>494.0</ele><time>2026-04-11T09:41:05.858Z</time></trkpt><trkpt lat="41.2617083" lon="13.9846817"><ele>494.0</ele><time>2026-04-11T09:41:06.86Z</time></trkpt><trkpt lat="41.2616433" lon="13.9847733"><ele>494.0</ele><time>2026-04-11T09:41:07.857Z</time></trkpt><trkpt lat="41.2615867" lon="13.9848617"><ele>494.0</ele><time>2026-04-11T09:41:08.857Z</time></trkpt><trkpt lat="41.2615217" lon="13.9849383"><ele>494.0</ele><time>2026-04-11T09:41:09.857Z</time></trkpt><trkpt lat="41.2614333" lon="13.9849983"><ele>494.0</ele><time>2026-04-11T09:41:10.859Z</time></trkpt><trkpt lat="41.2613433" lon="13.9850417"><ele>491.25</ele><time>2026-04-11T09:41:11.858Z</time></trkpt><trkpt lat="41.2612483" lon="13.9850683"><ele>488.5</ele><time>2026-04-11T09:41:12.859Z</time></trkpt><trkpt lat="41.2611283" lon="13.9850667"><ele>485.75</ele><time>2026-04-11T09:41:13.857Z</time></trkpt><trkpt lat="41.2610117" lon="13.9850617"><ele>483.0</ele><time>2026-04-11T09:41:14.857Z</time></trkpt><trkpt lat="41.2608883" lon="13.9850433"><ele>483.75</ele><time>2026-04-11T09:41:15.856Z</time></trkpt><trkpt lat="41.2607567" lon="13.985005"><ele>484.5</ele><time>2026-04-11T09:41:16.858Z</time></trkpt><trkpt lat="41.260625" lon="13.98497"><ele>485.25</ele><time>2026-04-11T09:41:17.856Z</time></trkpt><trkpt lat="41.26049" lon="13.9849283"><ele>486.0</ele><time>2026-04-11T09:41:18.858Z</time></trkpt><trkpt lat="41.2603633" lon="13.9848983"><ele>484.0</ele><time>2026-04-11T09:41:19.857Z</time></trkpt><trkpt lat="41.2602367" lon="13.98487"><ele>482.0</ele><time>2026-04-11T09:41:20.857Z</time></trkpt><trkpt lat="41.2601117" lon="13.9848383"><ele>480.0</ele><time>2026-04-11T09:41:21.857Z</time></trkpt><trkpt lat="41.25999" lon="13.9848083"><ele>478.0</ele><time>2026-04-11T09:41:22.856Z</time></trkpt><trkpt lat="41.259865" lon="13.9847817"><ele>476.50000000000006</ele><time>2026-04-11T09:41:23.858Z</time></trkpt><trkpt lat="41.25976" lon="13.98474"><ele>475.0</ele><time>2026-04-11T09:41:24.857Z</time></trkpt><trkpt lat="41.2596667" lon="13.9847"><ele>473.5</ele><time>2026-04-11T09:41:25.859Z</time></trkpt><trkpt lat="41.2595833" lon="13.984655"><ele>472.0</ele><time>2026-04-11T09:41:26.857Z</time></trkpt><trkpt lat="41.2595167" lon="13.9846017"><ele>470.50000000000006</ele><time>2026-04-11T09:41:27.856Z</time></trkpt><trkpt lat="41.25946" lon="13.9845433"><ele>469.0</ele><time>2026-04-11T09:41:28.856Z</time></trkpt><trkpt lat="41.2594083" lon="13.98448"><ele>469.0</ele><time>2026-04-11T09:41:29.857Z</time></trkpt><trkpt lat="41.2594017" lon="13.9843417"><ele>469.0</ele><time>2026-04-11T09:41:31.857Z</time></trkpt><trkpt lat="41.2594917" lon="13.9842433"><ele>469.0</ele><time>2026-04-11T09:41:33.858Z</time></trkpt><trkpt lat="41.25955" lon="13.9842117"><ele>469.0</ele><time>2026-04-11T09:41:34.857Z</time></trkpt><trkpt lat="41.2596517" lon="13.9841967"><ele>469.0</ele><time>2026-04-11T09:41:35.857Z</time></trkpt><trkpt lat="41.259775" lon="13.9842033"><ele>470.4</ele><time>2026-04-11T09:41:36.858Z</time></trkpt><trkpt lat="41.2598833" lon="13.98419"><ele>471.79999999999995</ele><time>2026-04-11T09:41:37.857Z</time></trkpt><trkpt lat="41.2599983" lon="13.9841617"><ele>473.20000000000005</ele><time>2026-04-11T09:41:38.858Z</time></trkpt><trkpt lat="41.26009" lon="13.9841117"><ele>474.6</ele><time>2026-04-11T09:41:39.856Z</time></trkpt><trkpt lat="41.2601817" lon="13.98405"><ele>476.0</ele><time>2026-04-11T09:41:40.857Z</time></trkpt><trkpt lat="41.260275" lon="13.9839783"><ele>476.0</ele><time>2026-04-11T09:41:41.856Z</time></trkpt><trkpt lat="41.2603683" lon="13.9839"><ele>476.0</ele><time>2026-04-11T09:41:42.856Z</time></trkpt><trkpt lat="41.2604617" lon="13.9838267"><ele>476.0</ele><time>2026-04-11T09:41:43.857Z</time></trkpt><trkpt lat="41.26054" lon="13.983745"><ele>476.0</ele><time>2026-04-11T09:41:44.858Z</time></trkpt><trkpt lat="41.26061" lon="13.98367"><ele>476.0</ele><time>2026-04-11T09:41:45.859Z</time></trkpt><trkpt lat="41.260665" lon="13.9835833"><ele>475.66666666666663</ele><time>2026-04-11T09:41:46.857Z</time></trkpt><trkpt lat="41.2606983" lon="13.983485"><ele>475.3333333333333</ele><time>2026-04-11T09:41:47.856Z</time></trkpt><trkpt lat="41.2607083" lon="13.98338"><ele>475.0</ele><time>2026-04-11T09:41:48.856Z</time></trkpt><trkpt lat="41.2606917" lon="13.98327"><ele>474.66666666666663</ele><time>2026-04-11T09:41:49.857Z</time></trkpt><trkpt lat="41.2606483" lon="13.9831717"><ele>474.3333333333333</ele><time>2026-04-11T09:41:50.856Z</time></trkpt><trkpt lat="41.2605867" lon="13.9830917"><ele>474.0</ele><time>2026-04-11T09:41:51.856Z</time></trkpt><trkpt lat="41.2605183" lon="13.9830167"><ele>471.79999999999995</ele><time>2026-04-11T09:41:52.856Z</time></trkpt><trkpt lat="41.2604433" lon="13.9829483"><ele>469.59999999999997</ele><time>2026-04-11T09:41:53.856Z</time></trkpt><trkpt lat="41.2603733" lon="13.9828783"><ele>467.4</ele><time>2026-04-11T09:41:54.865Z</time></trkpt><trkpt lat="41.260285" lon="13.9828117"><ele>465.2</ele><time>2026-04-11T09:41:55.856Z</time></trkpt><trkpt lat="41.2601983" lon="13.982745"><ele>463.0</ele><time>2026-04-11T09:41:56.857Z</time></trkpt><trkpt lat="41.2600983" lon="13.982685"><ele>463.0</ele><time>2026-04-11T09:41:57.86Z</time></trkpt><trkpt lat="41.2599683" lon="13.9826333"><ele>463.0</ele><time>2026-04-11T09:41:58.86Z</time></trkpt><trkpt lat="41.259855" lon="13.9825683"><ele>463.0</ele><time>2026-04-11T09:41:59.86Z</time></trkpt><trkpt lat="41.25974" lon="13.9824983"><ele>463.0</ele><time>2026-04-11T09:42:00.859Z</time></trkpt><trkpt lat="41.2596217" lon="13.9824283"><ele>459.5</ele><time>2026-04-11T09:42:01.86Z</time></trkpt><trkpt lat="41.2594833" lon="13.982345"><ele>456.0</ele><time>2026-04-11T09:42:02.86Z</time></trkpt><trkpt lat="41.2593583" lon="13.98226"><ele>452.5</ele><time>2026-04-11T09:42:03.858Z</time></trkpt><trkpt lat="41.2592483" lon="13.9821767"><ele>449.0</ele><time>2026-04-11T09:42:04.859Z</time></trkpt><trkpt lat="41.25914" lon="13.9820733"><ele>449.0</ele><time>2026-04-11T09:42:05.86Z</time></trkpt><trkpt lat="41.2590333" lon="13.9819717"><ele>449.0</ele><time>2026-04-11T09:42:06.859Z</time></trkpt><trkpt lat="41.258935" lon="13.981865"><ele>449.0</ele><time>2026-04-11T09:42:07.86Z</time></trkpt><trkpt lat="41.2588367" lon="13.9817483"><ele>449.0</ele><time>2026-04-11T09:42:08.858Z</time></trkpt><trkpt lat="41.2587317" lon="13.9816217"><ele>446.5</ele><time>2026-04-11T09:42:09.858Z</time></trkpt><trkpt lat="41.258625" lon="13.9815017"><ele>444.0</ele><time>2026-04-11T09:42:10.861Z</time></trkpt><trkpt lat="41.2585183" lon="13.9813733"><ele>441.5</ele><time>2026-04-11T09:42:11.859Z</time></trkpt><trkpt lat="41.258415" lon="13.9812467"><ele>439.0</ele><time>2026-04-11T09:42:12.858Z</time></trkpt><trkpt lat="41.2583083" lon="13.98112"><ele>439.0</ele><time>2026-04-11T09:42:13.859Z</time></trkpt><trkpt lat="41.2582" lon="13.9809933"><ele>439.0</ele><time>2026-04-11T09:42:14.858Z</time></trkpt><trkpt lat="41.2580867" lon="13.9808667"><ele>439.0</ele><time>2026-04-11T09:42:15.859Z</time></trkpt><trkpt lat="41.2579733" lon="13.98073"><ele>439.0</ele><time>2026-04-11T09:42:16.858Z</time></trkpt><trkpt lat="41.25786" lon="13.98059"><ele>434.0</ele><time>2026-04-11T09:42:17.86Z</time></trkpt><trkpt lat="41.2577433" lon="13.9804533"><ele>429.0</ele><time>2026-04-11T09:42:18.858Z</time></trkpt><trkpt lat="41.25763" lon="13.9803083"><ele>424.0</ele><time>2026-04-11T09:42:19.859Z</time></trkpt><trkpt lat="41.25752" lon="13.980165"><ele>424.0</ele><time>2026-04-11T09:42:20.858Z</time></trkpt><trkpt lat="41.2574067" lon="13.9800217"><ele>424.0</ele><time>2026-04-11T09:42:21.858Z</time></trkpt><trkpt lat="41.2572983" lon="13.979875"><ele>424.0</ele><time>2026-04-11T09:42:22.859Z</time></trkpt><trkpt lat="41.25719" lon="13.9797383"><ele>421.75</ele><time>2026-04-11T09:42:23.86Z</time></trkpt><trkpt lat="41.2570867" lon="13.9796"><ele>419.5</ele><time>2026-04-11T09:42:24.859Z</time></trkpt><trkpt lat="41.25698" lon="13.9794733"><ele>417.25</ele><time>2026-04-11T09:42:25.86Z</time></trkpt><trkpt lat="41.2568867" lon="13.979345"><ele>415.0</ele><time>2026-04-11T09:42:26.859Z</time></trkpt><trkpt lat="41.2567933" lon="13.9792167"><ele>417.5</ele><time>2026-04-11T09:42:27.858Z</time></trkpt><trkpt lat="41.2567067" lon="13.9790933"><ele>420.0</ele><time>2026-04-11T09:42:28.86Z</time></trkpt><trkpt lat="41.2566167" lon="13.9789733"><ele>422.5</ele><time>2026-04-11T09:42:29.859Z</time></trkpt><trkpt lat="41.256535" lon="13.9788533"><ele>425.0</ele><time>2026-04-11T09:42:30.859Z</time></trkpt><trkpt lat="41.2564533" lon="13.9787383"><ele>422.2</ele><time>2026-04-11T09:42:31.858Z</time></trkpt><trkpt lat="41.25638" lon="13.9786267"><ele>419.4</ele><time>2026-04-11T09:42:32.858Z</time></trkpt><trkpt lat="41.2563183" lon="13.97852"><ele>416.6</ele><time>2026-04-11T09:42:33.858Z</time></trkpt><trkpt lat="41.256265" lon="13.97841"><ele>413.8</ele><time>2026-04-11T09:42:34.859Z</time></trkpt><trkpt lat="41.25623" lon="13.97829"><ele>411.0</ele><time>2026-04-11T09:42:35.859Z</time></trkpt><trkpt lat="41.2562067" lon="13.9781667"><ele>411.0</ele><time>2026-04-11T09:42:36.859Z</time></trkpt><trkpt lat="41.2561883" lon="13.9780567"><ele>411.0</ele><time>2026-04-11T09:42:37.86Z</time></trkpt><trkpt lat="41.25617" lon="13.9779567"><ele>411.0</ele><time>2026-04-11T09:42:38.859Z</time></trkpt><trkpt lat="41.2561433" lon="13.9778683"><ele>411.0</ele><time>2026-04-11T09:42:39.858Z</time></trkpt><trkpt lat="41.256105" lon="13.97779"><ele>411.0</ele><time>2026-04-11T09:42:40.859Z</time></trkpt><trkpt lat="41.2560533" lon="13.9777267"><ele>411.0</ele><time>2026-04-11T09:42:41.857Z</time></trkpt><trkpt lat="41.2559883" lon="13.9776733"><ele>411.0</ele><time>2026-04-11T09:42:42.859Z</time></trkpt><trkpt lat="41.2559117" lon="13.9776317"><ele>411.0</ele><time>2026-04-11T09:42:43.859Z</time></trkpt><trkpt lat="41.25584" lon="13.977595"><ele>411.0</ele><time>2026-04-11T09:42:44.86Z</time></trkpt><trkpt lat="41.2557817" lon="13.97756"><ele>411.0</ele><time>2026-04-11T09:42:45.86Z</time></trkpt><trkpt lat="41.2556833" lon="13.9775017"><ele>411.0</ele><time>2026-04-11T09:42:47.859Z</time></trkpt><trkpt lat="41.2556233" lon="13.977465"><ele>411.0</ele><time>2026-04-11T09:42:48.859Z</time></trkpt><trkpt lat="41.2555533" lon="13.9774017"><ele>410.20000000000005</ele><time>2026-04-11T09:42:50.86Z</time></trkpt><trkpt lat="41.2554833" lon="13.977355"><ele>409.40000000000003</ele><time>2026-04-11T09:42:53.86Z</time></trkpt><trkpt lat="41.2554083" lon="13.9773317"><ele>408.6</ele><time>2026-04-11T09:42:55.858Z</time></trkpt><trkpt lat="41.2552967" lon="13.9773217"><ele>407.8</ele><time>2026-04-11T09:42:57.858Z</time></trkpt><trkpt lat="41.255175" lon="13.9773633"><ele>407.0</ele><time>2026-04-11T09:42:59.86Z</time></trkpt><trkpt lat="41.2551033" lon="13.9773967"><ele>404.8</ele><time>2026-04-11T09:43:00.858Z</time></trkpt><trkpt lat="41.255095" lon="13.977575"><ele>402.6</ele><time>2026-04-11T09:43:02.86Z</time></trkpt><trkpt lat="41.2551283" lon="13.9776667"><ele>400.40000000000003</ele><time>2026-04-11T09:43:03.859Z</time></trkpt><trkpt lat="41.25518" lon="13.9777633"><ele>398.20000000000005</ele><time>2026-04-11T09:43:04.859Z</time></trkpt><trkpt lat="41.2552433" lon="13.9778483"><ele>396.0</ele><time>2026-04-11T09:43:05.86Z</time></trkpt><trkpt lat="41.255305" lon="13.9779333"><ele>396.0</ele><time>2026-04-11T09:43:06.86Z</time></trkpt><trkpt lat="41.255365" lon="13.9780117"><ele>396.0</ele><time>2026-04-11T09:43:07.86Z</time></trkpt><trkpt lat="41.255415" lon="13.978105"><ele>396.0</ele><time>2026-04-11T09:43:08.859Z</time></trkpt><trkpt lat="41.2554567" lon="13.978195"><ele>396.0</ele><time>2026-04-11T09:43:09.859Z</time></trkpt><trkpt lat="41.25549" lon="13.97828"><ele>396.0</ele><time>2026-04-11T09:43:10.86Z</time></trkpt><trkpt lat="41.2555217" lon="13.97837"><ele>396.0</ele><time>2026-04-11T09:43:11.859Z</time></trkpt><trkpt lat="41.2555533" lon="13.9784833"><ele>396.3333333333333</ele><time>2026-04-11T09:43:12.86Z</time></trkpt><trkpt lat="41.255595" lon="13.9785733"><ele>396.66666666666663</ele><time>2026-04-11T09:43:13.86Z</time></trkpt><trkpt lat="41.2556217" lon="13.978695"><ele>397.0</ele><time>2026-04-11T09:43:14.86Z</time></trkpt><trkpt lat="41.2556483" lon="13.978805"><ele>397.3333333333333</ele><time>2026-04-11T09:43:15.86Z</time></trkpt><trkpt lat="41.2556767" lon="13.9789183"><ele>397.66666666666663</ele><time>2026-04-11T09:43:16.859Z</time></trkpt><trkpt lat="41.2557017" lon="13.979025"><ele>398.0</ele><time>2026-04-11T09:43:17.86Z</time></trkpt><trkpt lat="41.2557183" lon="13.979125"><ele>398.8333333333333</ele><time>2026-04-11T09:43:18.859Z</time></trkpt><trkpt lat="41.25572" lon="13.9792267"><ele>399.66666666666663</ele><time>2026-04-11T09:43:19.86Z</time></trkpt><trkpt lat="41.2557067" lon="13.9793417"><ele>400.5</ele><time>2026-04-11T09:43:20.859Z</time></trkpt><trkpt lat="41.2556783" lon="13.97944"><ele>401.33333333333337</ele><time>2026-04-11T09:43:21.858Z</time></trkpt><trkpt lat="41.2556383" lon="13.9795167"><ele>402.1666666666667</ele><time>2026-04-11T09:43:22.859Z</time></trkpt><trkpt lat="41.2555617" lon="13.9795383"><ele>403.0</ele><time>2026-04-11T09:43:23.86Z</time></trkpt><trkpt lat="41.25546" lon="13.97955"><ele>403.25</ele><time>2026-04-11T09:43:25.86Z</time></trkpt><trkpt lat="41.2553783" lon="13.979465"><ele>403.5</ele><time>2026-04-11T09:43:26.857Z</time></trkpt><trkpt lat="41.2552717" lon="13.9793383"><ele>403.75</ele><time>2026-04-11T09:43:27.858Z</time></trkpt><trkpt lat="41.2551717" lon="13.979235"><ele>404.0</ele><time>2026-04-11T09:43:28.858Z</time></trkpt><trkpt lat="41.255075" lon="13.979155"><ele>402.5</ele><time>2026-04-11T09:43:29.86Z</time></trkpt><trkpt lat="41.2549683" lon="13.9790683"><ele>401.0</ele><time>2026-04-11T09:43:30.858Z</time></trkpt><trkpt lat="41.2548583" lon="13.9789883"><ele>399.5</ele><time>2026-04-11T09:43:31.859Z</time></trkpt><trkpt lat="41.2547383" lon="13.9789283"><ele>398.0</ele><time>2026-04-11T09:43:32.859Z</time></trkpt><trkpt lat="41.2546133" lon="13.978895"><ele>396.75</ele><time>2026-04-11T09:43:33.858Z</time></trkpt><trkpt lat="41.2544833" lon="13.9788767"><ele>395.5</ele><time>2026-04-11T09:43:34.86Z</time></trkpt><trkpt lat="41.2543517" lon="13.9788683"><ele>394.25</ele><time>2026-04-11T09:43:35.86Z</time></trkpt><trkpt lat="41.2542233" lon="13.9788633"><ele>393.0</ele><time>2026-04-11T09:43:36.859Z</time></trkpt><trkpt lat="41.2540917" lon="13.9788617"><ele>393.0</ele><time>2026-04-11T09:43:37.859Z</time></trkpt><trkpt lat="41.25396" lon="13.9788617"><ele>393.0</ele><time>2026-04-11T09:43:38.86Z</time></trkpt><trkpt lat="41.253825" lon="13.9788633"><ele>393.0</ele><time>2026-04-11T09:43:39.858Z</time></trkpt><trkpt lat="41.2536867" lon="13.978855"><ele>393.0</ele><time>2026-04-11T09:43:40.859Z</time></trkpt><trkpt lat="41.2535467" lon="13.9788383"><ele>392.0</ele><time>2026-04-11T09:43:41.86Z</time></trkpt><trkpt lat="41.25341" lon="13.978825"><ele>391.0</ele><time>2026-04-11T09:43:42.86Z</time></trkpt><trkpt lat="41.2532817" lon="13.9788167"><ele>390.0</ele><time>2026-04-11T09:43:43.859Z</time></trkpt><trkpt lat="41.2531517" lon="13.97881"><ele>389.0</ele><time>2026-04-11T09:43:44.86Z</time></trkpt><trkpt lat="41.2530283" lon="13.9787983"><ele>388.5</ele><time>2026-04-11T09:43:45.858Z</time></trkpt><trkpt lat="41.2529" lon="13.9787783"><ele>388.0</ele><time>2026-04-11T09:43:46.857Z</time></trkpt><trkpt lat="41.2527733" lon="13.9787433"><ele>387.5</ele><time>2026-04-11T09:43:47.86Z</time></trkpt><trkpt lat="41.252645" lon="13.9786983"><ele>387.0</ele><time>2026-04-11T09:43:48.86Z</time></trkpt><trkpt lat="41.2525267" lon="13.9786367"><ele>387.0</ele><time>2026-04-11T09:43:49.86Z</time></trkpt><trkpt lat="41.2524133" lon="13.978565"><ele>387.0</ele><time>2026-04-11T09:43:50.859Z</time></trkpt><trkpt lat="41.2522983" lon="13.9784783"><ele>387.0</ele><time>2026-04-11T09:43:51.859Z</time></trkpt><trkpt lat="41.2521817" lon="13.9783967"><ele>387.0</ele><time>2026-04-11T09:43:52.859Z</time></trkpt><trkpt lat="41.2520667" lon="13.978315"><ele>383.25</ele><time>2026-04-11T09:43:53.86Z</time></trkpt><trkpt lat="41.2519517" lon="13.9782317"><ele>379.5</ele><time>2026-04-11T09:43:54.859Z</time></trkpt><trkpt lat="41.25184" lon="13.978155"><ele>375.75</ele><time>2026-04-11T09:43:55.86Z</time></trkpt><trkpt lat="41.25173" lon="13.978085"><ele>372.0</ele><time>2026-04-11T09:43:56.859Z</time></trkpt><trkpt lat="41.251625" lon="13.9780183"><ele>372.0</ele><time>2026-04-11T09:43:57.86Z</time></trkpt><trkpt lat="41.25152" lon="13.9779483"><ele>372.0</ele><time>2026-04-11T09:43:58.86Z</time></trkpt><trkpt lat="41.25141" lon="13.97788"><ele>372.0</ele><time>2026-04-11T09:43:59.859Z</time></trkpt><trkpt lat="41.2513033" lon="13.9778133"><ele>372.0</ele><time>2026-04-11T09:44:00.859Z</time></trkpt><trkpt lat="41.2511967" lon="13.9777383"><ele>369.40000000000003</ele><time>2026-04-11T09:44:01.859Z</time></trkpt><trkpt lat="41.25109" lon="13.97766"><ele>366.8</ele><time>2026-04-11T09:44:02.858Z</time></trkpt><trkpt lat="41.2509883" lon="13.9775867"><ele>364.2</ele><time>2026-04-11T09:44:03.858Z</time></trkpt><trkpt lat="41.25089" lon="13.9775217"><ele>361.6</ele><time>2026-04-11T09:44:04.86Z</time></trkpt><trkpt lat="41.2507967" lon="13.977485"><ele>359.0</ele><time>2026-04-11T09:44:05.86Z</time></trkpt><trkpt lat="41.25071" lon="13.977475"><ele>356.33333333333337</ele><time>2026-04-11T09:44:06.86Z</time></trkpt><trkpt lat="41.2506217" lon="13.9774933"><ele>353.6666666666667</ele><time>2026-04-11T09:44:07.858Z</time></trkpt><trkpt lat="41.2505517" lon="13.9775517"><ele>351.0</ele><time>2026-04-11T09:44:08.858Z</time></trkpt><trkpt lat="41.2504967" lon="13.9776317"><ele>348.3333333333333</ele><time>2026-04-11T09:44:09.86Z</time></trkpt><trkpt lat="41.2504683" lon="13.97775"><ele>345.66666666666663</ele><time>2026-04-11T09:44:10.859Z</time></trkpt><trkpt lat="41.250455" lon="13.977885"><ele>343.0</ele><time>2026-04-11T09:44:11.859Z</time></trkpt><trkpt lat="41.2504567" lon="13.9780367"><ele>343.0</ele><time>2026-04-11T09:44:12.86Z</time></trkpt><trkpt lat="41.2504583" lon="13.9781867"><ele>343.0</ele><time>2026-04-11T09:44:13.86Z</time></trkpt><trkpt lat="41.2504633" lon="13.9783317"><ele>343.0</ele><time>2026-04-11T09:44:14.859Z</time></trkpt><trkpt lat="41.25049" lon="13.9784767"><ele>343.0</ele><time>2026-04-11T09:44:15.858Z</time></trkpt><trkpt lat="41.2505317" lon="13.97862"><ele>346.5</ele><time>2026-04-11T09:44:16.858Z</time></trkpt><trkpt lat="41.2506033" lon="13.97878"><ele>350.0</ele><time>2026-04-11T09:44:17.86Z</time></trkpt><trkpt lat="41.2506683" lon="13.9789083"><ele>353.5</ele><time>2026-04-11T09:44:18.858Z</time></trkpt><trkpt lat="41.2507283" lon="13.9790267"><ele>357.0</ele><time>2026-04-11T09:44:19.859Z</time></trkpt><trkpt lat="41.2507883" lon="13.9791233"><ele>357.8333333333333</ele><time>2026-04-11T09:44:20.857Z</time></trkpt><trkpt lat="41.2508383" lon="13.9792167"><ele>358.6666666666667</ele><time>2026-04-11T09:44:21.859Z</time></trkpt><trkpt lat="41.2508833" lon="13.9793083"><ele>359.5</ele><time>2026-04-11T09:44:22.858Z</time></trkpt><trkpt lat="41.25091" lon="13.9793983"><ele>360.33333333333337</ele><time>2026-04-11T09:44:23.86Z</time></trkpt><trkpt lat="41.2509267" lon="13.9794833"><ele>361.1666666666667</ele><time>2026-04-11T09:44:24.858Z</time></trkpt><trkpt lat="41.2509183" lon="13.9795683"><ele>362.0</ele><time>2026-04-11T09:44:25.859Z</time></trkpt><trkpt lat="41.250875" lon="13.9796933"><ele>362.0</ele><time>2026-04-11T09:44:27.859Z</time></trkpt><trkpt lat="41.2508117" lon="13.9797033"><ele>362.0</ele><time>2026-04-11T09:44:28.859Z</time></trkpt><trkpt lat="41.2507383" lon="13.9796717"><ele>362.0</ele><time>2026-04-11T09:44:29.86Z</time></trkpt><trkpt lat="41.2506383" lon="13.9796217"><ele>362.0</ele><time>2026-04-11T09:44:30.858Z</time></trkpt><trkpt lat="41.2505117" lon="13.9795317"><ele>362.0</ele><time>2026-04-11T09:44:31.859Z</time></trkpt><trkpt lat="41.250415" lon="13.9794733"><ele>361.0</ele><time>2026-04-11T09:44:32.86Z</time></trkpt><trkpt lat="41.25034" lon="13.9794083"><ele>360.0</ele><time>2026-04-11T09:44:33.859Z</time></trkpt><trkpt lat="41.250255" lon="13.9793417"><ele>359.0</ele><time>2026-04-11T09:44:34.861Z</time></trkpt><trkpt lat="41.25017" lon="13.9792667"><ele>358.0</ele><time>2026-04-11T09:44:35.86Z</time></trkpt><trkpt lat="41.2500767" lon="13.979165"><ele>357.0</ele><time>2026-04-11T09:44:36.859Z</time></trkpt><trkpt lat="41.24999" lon="13.97905"><ele>357.0</ele><time>2026-04-11T09:44:37.86Z</time></trkpt><trkpt lat="41.2499183" lon="13.9789383"><ele>357.0</ele><time>2026-04-11T09:44:38.86Z</time></trkpt><trkpt lat="41.2498583" lon="13.9788233"><ele>357.0</ele><time>2026-04-11T09:44:39.857Z</time></trkpt><trkpt lat="41.249805" lon="13.9787083"><ele>357.0</ele><time>2026-04-11T09:44:40.858Z</time></trkpt><trkpt lat="41.2497567" lon="13.97859"><ele>357.0</ele><time>2026-04-11T09:44:41.857Z</time></trkpt><trkpt lat="41.2497133" lon="13.97847"><ele>357.6</ele><time>2026-04-11T09:44:42.859Z</time></trkpt><trkpt lat="41.24967" lon="13.978345"><ele>358.20000000000005</ele><time>2026-04-11T09:44:43.86Z</time></trkpt><trkpt lat="41.2496267" lon="13.978225"><ele>358.8</ele><time>2026-04-11T09:44:44.86Z</time></trkpt><trkpt lat="41.2495833" lon="13.9781017"><ele>359.4</ele><time>2026-04-11T09:44:45.86Z</time></trkpt><trkpt lat="41.2495333" lon="13.9779867"><ele>360.0</ele><time>2026-04-11T09:44:46.858Z</time></trkpt><trkpt lat="41.249485" lon="13.9778717"><ele>360.0</ele><time>2026-04-11T09:44:47.86Z</time></trkpt><trkpt lat="41.2494383" lon="13.97776"><ele>360.0</ele><time>2026-04-11T09:44:48.859Z</time></trkpt><trkpt lat="41.2493867" lon="13.97765"><ele>360.0</ele><time>2026-04-11T09:44:49.857Z</time></trkpt><trkpt lat="41.24933" lon="13.9775433"><ele>360.0</ele><time>2026-04-11T09:44:50.86Z</time></trkpt><trkpt lat="41.249265" lon="13.977445"><ele>360.0</ele><time>2026-04-11T09:44:51.859Z</time></trkpt><trkpt lat="41.24919" lon="13.977355"><ele>360.2</ele><time>2026-04-11T09:44:52.86Z</time></trkpt><trkpt lat="41.249115" lon="13.97727"><ele>360.4</ele><time>2026-04-11T09:44:53.859Z</time></trkpt><trkpt lat="41.2490417" lon="13.9771817"><ele>360.6</ele><time>2026-04-11T09:44:54.86Z</time></trkpt><trkpt lat="41.248975" lon="13.9770833"><ele>360.8</ele><time>2026-04-11T09:44:55.858Z</time></trkpt><trkpt lat="41.2489183" lon="13.9769717"><ele>361.0</ele><time>2026-04-11T09:44:56.86Z</time></trkpt><trkpt lat="41.2488733" lon="13.976855"><ele>361.0</ele><time>2026-04-11T09:44:57.859Z</time></trkpt><trkpt lat="41.2488367" lon="13.9767317"><ele>361.0</ele><time>2026-04-11T09:44:58.86Z</time></trkpt><trkpt lat="41.2488" lon="13.9766083"><ele>361.0</ele><time>2026-04-11T09:44:59.86Z</time></trkpt><trkpt lat="41.2487533" lon="13.9764867"><ele>361.0</ele><time>2026-04-11T09:45:00.859Z</time></trkpt><trkpt lat="41.248695" lon="13.9763733"><ele>361.0</ele><time>2026-04-11T09:45:01.859Z</time></trkpt><trkpt lat="41.248625" lon="13.97627"><ele>359.4</ele><time>2026-04-11T09:45:02.859Z</time></trkpt><trkpt lat="41.2485433" lon="13.9761783"><ele>357.8</ele><time>2026-04-11T09:45:03.857Z</time></trkpt><trkpt lat="41.2484567" lon="13.976095"><ele>356.2</ele><time>2026-04-11T09:45:04.86Z</time></trkpt><trkpt lat="41.2483683" lon="13.9760133"><ele>354.59999999999997</ele><time>2026-04-11T09:45:05.859Z</time></trkpt><trkpt lat="41.24828" lon="13.9759333"><ele>353.0</ele><time>2026-04-11T09:45:06.859Z</time></trkpt><trkpt lat="41.2481867" lon="13.97586"><ele>351.0</ele><time>2026-04-11T09:45:07.86Z</time></trkpt><trkpt lat="41.248095" lon="13.975785"><ele>349.0</ele><time>2026-04-11T09:45:08.859Z</time></trkpt><trkpt lat="41.2480133" lon="13.97571"><ele>347.0</ele><time>2026-04-11T09:45:09.86Z</time></trkpt><trkpt lat="41.2479467" lon="13.975635"><ele>345.0</ele><time>2026-04-11T09:45:10.86Z</time></trkpt><trkpt lat="41.2479" lon="13.975555"><ele>343.0</ele><time>2026-04-11T09:45:11.858Z</time></trkpt><trkpt lat="41.24788" lon="13.9754733"><ele>341.0</ele><time>2026-04-11T09:45:12.86Z</time></trkpt><trkpt lat="41.2479217" lon="13.975325"><ele>341.0</ele><time>2026-04-11T09:45:14.86Z</time></trkpt><trkpt lat="41.2479767" lon="13.9752633"><ele>341.0</ele><time>2026-04-11T09:45:15.859Z</time></trkpt><trkpt lat="41.24804" lon="13.9752033"><ele>341.0</ele><time>2026-04-11T09:45:16.859Z</time></trkpt><trkpt lat="41.2481067" lon="13.9751583"><ele>341.0</ele><time>2026-04-11T09:45:17.859Z</time></trkpt><trkpt lat="41.2481767" lon="13.9751283"><ele>341.0</ele><time>2026-04-11T09:45:18.858Z</time></trkpt><trkpt lat="41.24826" lon="13.9751217"><ele>341.0</ele><time>2026-04-11T09:45:19.86Z</time></trkpt><trkpt lat="41.24833" lon="13.9751383"><ele>339.75</ele><time>2026-04-11T09:45:20.858Z</time></trkpt><trkpt lat="41.2483983" lon="13.9752183"><ele>338.5</ele><time>2026-04-11T09:45:21.859Z</time></trkpt><trkpt lat="41.2484967" lon="13.9753717"><ele>337.25</ele><time>2026-04-11T09:45:22.86Z</time></trkpt><trkpt lat="41.2485517" lon="13.9755367"><ele>336.0</ele><time>2026-04-11T09:45:23.86Z</time></trkpt><trkpt lat="41.24862" lon="13.9756933"><ele>336.0</ele><time>2026-04-11T09:45:24.859Z</time></trkpt><trkpt lat="41.2486783" lon="13.9757967"><ele>336.0</ele><time>2026-04-11T09:45:25.858Z</time></trkpt><trkpt lat="41.2487333" lon="13.975875"><ele>336.0</ele><time>2026-04-11T09:45:26.857Z</time></trkpt><trkpt lat="41.2488333" lon="13.97587"><ele>336.0</ele><time>2026-04-11T09:45:28.858Z</time></trkpt><trkpt lat="41.2488217" lon="13.9756267"><ele>336.0</ele><time>2026-04-11T09:45:30.859Z</time></trkpt><trkpt lat="41.24881" lon="13.9755067"><ele>336.0</ele><time>2026-04-11T09:45:31.86Z</time></trkpt><trkpt lat="41.2487983" lon="13.9753733"><ele>336.0</ele><time>2026-04-11T09:45:32.859Z</time></trkpt><trkpt lat="41.2487983" lon="13.9752317"><ele>336.0</ele><time>2026-04-11T09:45:33.859Z</time></trkpt><trkpt lat="41.2488083" lon="13.9750967"><ele>336.0</ele><time>2026-04-11T09:45:34.858Z</time></trkpt><trkpt lat="41.2488333" lon="13.9749667"><ele>335.4</ele><time>2026-04-11T09:45:35.859Z</time></trkpt><trkpt lat="41.248855" lon="13.9748333"><ele>334.8</ele><time>2026-04-11T09:45:36.858Z</time></trkpt><trkpt lat="41.248875" lon="13.9746933"><ele>334.2</ele><time>2026-04-11T09:45:37.859Z</time></trkpt><trkpt lat="41.2488983" lon="13.9745533"><ele>333.59999999999997</ele><time>2026-04-11T09:45:38.859Z</time></trkpt><trkpt lat="41.24893" lon="13.9744117"><ele>333.0</ele><time>2026-04-11T09:45:39.857Z</time></trkpt><trkpt lat="41.248975" lon="13.9742767"><ele>329.75</ele><time>2026-04-11T09:45:40.857Z</time></trkpt><trkpt lat="41.2490267" lon="13.9741383"><ele>326.5</ele><time>2026-04-11T09:45:41.86Z</time></trkpt><trkpt lat="41.2490833" lon="13.9740033"><ele>323.25</ele><time>2026-04-11T09:45:42.86Z</time></trkpt><trkpt lat="41.2491417" lon="13.9738683"><ele>320.0</ele><time>2026-04-11T09:45:43.859Z</time></trkpt><trkpt lat="41.2491933" lon="13.9737333"><ele>320.0</ele><time>2026-04-11T09:45:44.859Z</time></trkpt><trkpt lat="41.2492317" lon="13.9735983"><ele>320.0</ele><time>2026-04-11T09:45:45.859Z</time></trkpt><trkpt lat="41.24925" lon="13.97346"><ele>320.0</ele><time>2026-04-11T09:45:46.858Z</time></trkpt><trkpt lat="41.2492333" lon="13.9733267"><ele>320.0</ele><time>2026-04-11T09:45:47.86Z</time></trkpt><trkpt lat="41.249195" lon="13.9732067"><ele>320.0</ele><time>2026-04-11T09:45:48.859Z</time></trkpt><trkpt lat="41.2491217" lon="13.9731033"><ele>318.6</ele><time>2026-04-11T09:45:49.859Z</time></trkpt><trkpt lat="41.2490333" lon="13.9730217"><ele>317.2</ele><time>2026-04-11T09:45:50.864Z</time></trkpt><trkpt lat="41.2489417" lon="13.9729417"><ele>315.8</ele><time>2026-04-11T09:45:51.859Z</time></trkpt><trkpt lat="41.2488433" lon="13.9728683"><ele>314.4</ele><time>2026-04-11T09:45:52.86Z</time></trkpt><trkpt lat="41.24874" lon="13.972805"><ele>313.0</ele><time>2026-04-11T09:45:53.858Z</time></trkpt><trkpt lat="41.2486333" lon="13.9727433"><ele>317.5</ele><time>2026-04-11T09:45:54.86Z</time></trkpt><trkpt lat="41.2485217" lon="13.9726833"><ele>322.0</ele><time>2026-04-11T09:45:55.86Z</time></trkpt><trkpt lat="41.2484033" lon="13.972635"><ele>326.5</ele><time>2026-04-11T09:45:56.859Z</time></trkpt><trkpt lat="41.2482817" lon="13.9725917"><ele>331.0</ele><time>2026-04-11T09:45:57.86Z</time></trkpt><trkpt lat="41.2481633" lon="13.97255"><ele>325.40000000000003</ele><time>2026-04-11T09:45:58.859Z</time></trkpt><trkpt lat="41.2480583" lon="13.97252"><ele>319.8</ele><time>2026-04-11T09:45:59.86Z</time></trkpt><trkpt lat="41.2479633" lon="13.9724917"><ele>314.20000000000005</ele><time>2026-04-11T09:46:00.86Z</time></trkpt><trkpt lat="41.247885" lon="13.9724683"><ele>308.6</ele><time>2026-04-11T09:46:01.86Z</time></trkpt><trkpt lat="41.2477867" lon="13.972415"><ele>303.0</ele><time>2026-04-11T09:46:03.859Z</time></trkpt><trkpt lat="41.2478183" lon="13.9723217"><ele>303.0</ele><time>2026-04-11T09:46:06.859Z</time></trkpt><trkpt lat="41.247945" lon="13.9723233"><ele>303.0</ele><time>2026-04-11T09:46:08.86Z</time></trkpt><trkpt lat="41.248075" lon="13.972355"><ele>303.0</ele><time>2026-04-11T09:46:09.86Z</time></trkpt><trkpt lat="41.24818" lon="13.972375"><ele>303.0</ele><time>2026-04-11T09:46:10.857Z</time></trkpt><trkpt lat="41.2482883" lon="13.972405"><ele>302.5</ele><time>2026-04-11T09:46:11.859Z</time></trkpt><trkpt lat="41.2483967" lon="13.9724383"><ele>302.0</ele><time>2026-04-11T09:46:12.859Z</time></trkpt><trkpt lat="41.2485033" lon="13.972465"><ele>301.5</ele><time>2026-04-11T09:46:13.859Z</time></trkpt><trkpt lat="41.2486217" lon="13.972485"><ele>301.0</ele><time>2026-04-11T09:46:14.858Z</time></trkpt><trkpt lat="41.2487333" lon="13.9725117"><ele>304.0</ele><time>2026-04-11T09:46:15.859Z</time></trkpt><trkpt lat="41.2488467" lon="13.9725383"><ele>307.0</ele><time>2026-04-11T09:46:16.86Z</time></trkpt><trkpt lat="41.2489617" lon="13.9725567"><ele>310.0</ele><time>2026-04-11T09:46:17.859Z</time></trkpt><trkpt lat="41.24908" lon="13.9725517"><ele>313.0</ele><time>2026-04-11T09:46:18.86Z</time></trkpt><trkpt lat="41.2491917" lon="13.9725367"><ele>309.8333333333333</ele><time>2026-04-11T09:46:19.86Z</time></trkpt><trkpt lat="41.249285" lon="13.9725067"><ele>306.66666666666663</ele><time>2026-04-11T09:46:20.858Z</time></trkpt><trkpt lat="41.249365" lon="13.9724717"><ele>303.5</ele><time>2026-04-11T09:46:21.859Z</time></trkpt><trkpt lat="41.2494283" lon="13.9724317"><ele>300.3333333333333</ele><time>2026-04-11T09:46:22.86Z</time></trkpt><trkpt lat="41.249485" lon="13.9723383"><ele>297.1666666666667</ele><time>2026-04-11T09:46:24.859Z</time></trkpt><trkpt lat="41.2494433" lon="13.9722733"><ele>294.0</ele><time>2026-04-11T09:46:26.859Z</time></trkpt><trkpt lat="41.2493067" lon="13.9723167"><ele>294.0</ele><time>2026-04-11T09:46:28.861Z</time></trkpt><trkpt lat="41.24921" lon="13.9723667"><ele>294.0</ele><time>2026-04-11T09:46:29.86Z</time></trkpt><trkpt lat="41.2491217" lon="13.972385"><ele>294.0</ele><time>2026-04-11T09:46:30.858Z</time></trkpt><trkpt lat="41.2490417" lon="13.9723733"><ele>294.0</ele><time>2026-04-11T09:46:31.859Z</time></trkpt><trkpt lat="41.2489517" lon="13.9723583"><ele>294.0</ele><time>2026-04-11T09:46:32.859Z</time></trkpt><trkpt lat="41.2488317" lon="13.9723483"><ele>295.75</ele><time>2026-04-11T09:46:33.859Z</time></trkpt><trkpt lat="41.2487167" lon="13.9723033"><ele>297.5</ele><time>2026-04-11T09:46:34.859Z</time></trkpt><trkpt lat="41.2486067" lon="13.9722567"><ele>299.25</ele><time>2026-04-11T09:46:35.859Z</time></trkpt><trkpt lat="41.248485" lon="13.9721883"><ele>301.0</ele><time>2026-04-11T09:46:36.859Z</time></trkpt><trkpt lat="41.248375" lon="13.972125"><ele>301.0</ele><time>2026-04-11T09:46:37.859Z</time></trkpt><trkpt lat="41.2482617" lon="13.9720583"><ele>301.0</ele><time>2026-04-11T09:46:38.859Z</time></trkpt><trkpt lat="41.2481533" lon="13.9719917"><ele>301.0</ele><time>2026-04-11T09:46:39.858Z</time></trkpt><trkpt lat="41.2480333" lon="13.9719167"><ele>301.0</ele><time>2026-04-11T09:46:40.859Z</time></trkpt><trkpt lat="41.24791" lon="13.9718383"><ele>301.5</ele><time>2026-04-11T09:46:41.859Z</time></trkpt><trkpt lat="41.2477917" lon="13.9717783"><ele>302.0</ele><time>2026-04-11T09:46:42.859Z</time></trkpt><trkpt lat="41.2476633" lon="13.97173"><ele>302.5</ele><time>2026-04-11T09:46:43.858Z</time></trkpt><trkpt lat="41.2475367" lon="13.9716833"><ele>303.0</ele><time>2026-04-11T09:46:44.859Z</time></trkpt><trkpt lat="41.2474033" lon="13.9716367"><ele>294.5</ele><time>2026-04-11T09:46:45.859Z</time></trkpt><trkpt lat="41.2472783" lon="13.9715883"><ele>286.0</ele><time>2026-04-11T09:46:46.859Z</time></trkpt><trkpt lat="41.2471633" lon="13.9715483"><ele>277.5</ele><time>2026-04-11T09:46:47.864Z</time></trkpt><trkpt lat="41.2470583" lon="13.9715133"><ele>269.0</ele><time>2026-04-11T09:46:48.858Z</time></trkpt><trkpt lat="41.2469533" lon="13.9714817"><ele>269.0</ele><time>2026-04-11T09:46:49.858Z</time></trkpt><trkpt lat="41.2468433" lon="13.9714717"><ele>269.0</ele><time>2026-04-11T09:46:50.858Z</time></trkpt><trkpt lat="41.246735" lon="13.9714917"><ele>269.0</ele><time>2026-04-11T09:46:51.859Z</time></trkpt><trkpt lat="41.2466283" lon="13.97154"><ele>269.0</ele><time>2026-04-11T09:46:52.859Z</time></trkpt><trkpt lat="41.2465317" lon="13.9716083"><ele>269.0</ele><time>2026-04-11T09:46:53.86Z</time></trkpt><trkpt lat="41.2464417" lon="13.9716717"><ele>270.0</ele><time>2026-04-11T09:46:54.859Z</time></trkpt><trkpt lat="41.2463567" lon="13.9717233"><ele>271.0</ele><time>2026-04-11T09:46:55.86Z</time></trkpt><trkpt lat="41.2462683" lon="13.9717583"><ele>272.0</ele><time>2026-04-11T09:46:56.858Z</time></trkpt><trkpt lat="41.246175" lon="13.9717633"><ele>273.0</ele><time>2026-04-11T09:46:57.859Z</time></trkpt><trkpt lat="41.2460767" lon="13.9717517"><ele>274.0</ele><time>2026-04-11T09:46:58.86Z</time></trkpt><trkpt lat="41.2459783" lon="13.9717333"><ele>274.0</ele><time>2026-04-11T09:46:59.859Z</time></trkpt><trkpt lat="41.24588" lon="13.971715"><ele>274.0</ele><time>2026-04-11T09:47:00.859Z</time></trkpt><trkpt lat="41.2457733" lon="13.9717017"><ele>274.0</ele><time>2026-04-11T09:47:01.859Z</time></trkpt><trkpt lat="41.2456633" lon="13.97169"><ele>274.0</ele><time>2026-04-11T09:47:02.859Z</time></trkpt><trkpt lat="41.2455533" lon="13.9716833"><ele>274.0</ele><time>2026-04-11T09:47:03.859Z</time></trkpt><trkpt lat="41.2454417" lon="13.971675"><ele>269.75</ele><time>2026-04-11T09:47:04.858Z</time></trkpt><trkpt lat="41.245325" lon="13.9716583"><ele>265.5</ele><time>2026-04-11T09:47:05.858Z</time></trkpt><trkpt lat="41.245215" lon="13.9716333"><ele>261.25</ele><time>2026-04-11T09:47:06.859Z</time></trkpt><trkpt lat="41.2451083" lon="13.9715867"><ele>257.0</ele><time>2026-04-11T09:47:07.859Z</time></trkpt><trkpt lat="41.2450067" lon="13.971525"><ele>257.0</ele><time>2026-04-11T09:47:08.858Z</time></trkpt><trkpt lat="41.2449083" lon="13.9714517"><ele>257.0</ele><time>2026-04-11T09:47:09.859Z</time></trkpt><trkpt lat="41.2448067" lon="13.97137"><ele>257.0</ele><time>2026-04-11T09:47:10.859Z</time></trkpt><trkpt lat="41.2447017" lon="13.97129"><ele>257.0</ele><time>2026-04-11T09:47:11.859Z</time></trkpt><trkpt lat="41.2446033" lon="13.97118"><ele>258.75</ele><time>2026-04-11T09:47:12.86Z</time></trkpt><trkpt lat="41.2444933" lon="13.9710917"><ele>260.5</ele><time>2026-04-11T09:47:13.86Z</time></trkpt><trkpt lat="41.2443767" lon="13.97102"><ele>262.25</ele><time>2026-04-11T09:47:14.859Z</time></trkpt><trkpt lat="41.2442533" lon="13.9709683"><ele>264.0</ele><time>2026-04-11T09:47:15.859Z</time></trkpt><trkpt lat="41.244125" lon="13.9709233"><ele>264.0</ele><time>2026-04-11T09:47:16.859Z</time></trkpt><trkpt lat="41.243995" lon="13.9708883"><ele>264.0</ele><time>2026-04-11T09:47:17.86Z</time></trkpt><trkpt lat="41.2438633" lon="13.9708633"><ele>264.0</ele><time>2026-04-11T09:47:18.86Z</time></trkpt><trkpt lat="41.2437417" lon="13.9708283"><ele>264.0</ele><time>2026-04-11T09:47:19.86Z</time></trkpt><trkpt lat="41.2436217" lon="13.9707983"><ele>258.75</ele><time>2026-04-11T09:47:20.86Z</time></trkpt><trkpt lat="41.2435017" lon="13.9707633"><ele>253.5</ele><time>2026-04-11T09:47:21.859Z</time></trkpt><trkpt lat="41.2433833" lon="13.970715"><ele>248.25</ele><time>2026-04-11T09:47:22.858Z</time></trkpt><trkpt lat="41.2432767" lon="13.9706517"><ele>243.0</ele><time>2026-04-11T09:47:23.86Z</time></trkpt><trkpt lat="41.2431733" lon="13.9705867"><ele>244.25</ele><time>2026-04-11T09:47:24.86Z</time></trkpt><trkpt lat="41.243065" lon="13.9705117"><ele>245.5</ele><time>2026-04-11T09:47:25.86Z</time></trkpt><trkpt lat="41.242955" lon="13.970445"><ele>246.75</ele><time>2026-04-11T09:47:26.859Z</time></trkpt><trkpt lat="41.2428417" lon="13.9703883"><ele>248.0</ele><time>2026-04-11T09:47:27.86Z</time></trkpt><trkpt lat="41.2427267" lon="13.97035"><ele>248.0</ele><time>2026-04-11T09:47:28.86Z</time></trkpt><trkpt lat="41.24261" lon="13.9703233"><ele>248.0</ele><time>2026-04-11T09:47:29.86Z</time></trkpt><trkpt lat="41.242495" lon="13.9703033"><ele>248.0</ele><time>2026-04-11T09:47:30.859Z</time></trkpt><trkpt lat="41.2423733" lon="13.97029"><ele>248.0</ele><time>2026-04-11T09:47:31.859Z</time></trkpt><trkpt lat="41.2422567" lon="13.9702767"><ele>248.0</ele><time>2026-04-11T09:47:32.858Z</time></trkpt><trkpt lat="41.2421467" lon="13.970255"><ele>248.0</ele><time>2026-04-11T09:47:33.86Z</time></trkpt><trkpt lat="41.2420367" lon="13.9702267"><ele>248.0</ele><time>2026-04-11T09:47:34.86Z</time></trkpt><trkpt lat="41.2419283" lon="13.9701783"><ele>248.0</ele><time>2026-04-11T09:47:35.86Z</time></trkpt><trkpt lat="41.24182" lon="13.9701233"><ele>248.0</ele><time>2026-04-11T09:47:36.859Z</time></trkpt><trkpt lat="41.2417167" lon="13.970055"><ele>248.0</ele><time>2026-04-11T09:47:37.859Z</time></trkpt><trkpt lat="41.2416133" lon="13.969985"><ele>248.0</ele><time>2026-04-11T09:47:38.859Z</time></trkpt><trkpt lat="41.2415133" lon="13.9699117"><ele>248.0</ele><time>2026-04-11T09:47:39.858Z</time></trkpt><trkpt lat="41.24141" lon="13.9698383"><ele>246.60000000000002</ele><time>2026-04-11T09:47:40.859Z</time></trkpt><trkpt lat="41.24131" lon="13.9697667"><ele>245.20000000000002</ele><time>2026-04-11T09:47:41.86Z</time></trkpt><trkpt lat="41.2412167" lon="13.9697"><ele>243.8</ele><time>2026-04-11T09:47:42.86Z</time></trkpt><trkpt lat="41.241135" lon="13.9696383"><ele>242.4</ele><time>2026-04-11T09:47:43.86Z</time></trkpt><trkpt lat="41.241055" lon="13.9695783"><ele>241.0</ele><time>2026-04-11T09:47:44.859Z</time></trkpt><trkpt lat="41.2409867" lon="13.9695"><ele>241.0</ele><time>2026-04-11T09:47:45.86Z</time></trkpt><trkpt lat="41.2409267" lon="13.9694017"><ele>241.00000000000003</ele><time>2026-04-11T09:47:46.859Z</time></trkpt><trkpt lat="41.2408733" lon="13.969295"><ele>241.00000000000003</ele><time>2026-04-11T09:47:47.86Z</time></trkpt><trkpt lat="41.2408183" lon="13.9691883"><ele>241.0</ele><time>2026-04-11T09:47:48.86Z</time></trkpt><trkpt lat="41.240765" lon="13.9690817"><ele>241.0</ele><time>2026-04-11T09:47:49.86Z</time></trkpt><trkpt lat="41.24071" lon="13.9689783"><ele>241.60000000000002</ele><time>2026-04-11T09:47:50.859Z</time></trkpt><trkpt lat="41.2406533" lon="13.9688717"><ele>242.20000000000002</ele><time>2026-04-11T09:47:51.86Z</time></trkpt><trkpt lat="41.240595" lon="13.9687633"><ele>242.79999999999998</ele><time>2026-04-11T09:47:52.858Z</time></trkpt><trkpt lat="41.2405367" lon="13.9686583"><ele>243.39999999999998</ele><time>2026-04-11T09:47:53.859Z</time></trkpt><trkpt lat="41.24047" lon="13.9685667"><ele>244.0</ele><time>2026-04-11T09:47:54.858Z</time></trkpt><trkpt lat="41.2403883" lon="13.9684883"><ele>244.0</ele><time>2026-04-11T09:47:55.86Z</time></trkpt><trkpt lat="41.2403033" lon="13.96841"><ele>243.99999999999997</ele><time>2026-04-11T09:47:56.859Z</time></trkpt><trkpt lat="41.2402183" lon="13.9683383"><ele>243.99999999999997</ele><time>2026-04-11T09:47:57.858Z</time></trkpt><trkpt lat="41.2401383" lon="13.96826"><ele>244.0</ele><time>2026-04-11T09:47:58.859Z</time></trkpt><trkpt lat="41.2400567" lon="13.9681833"><ele>244.0</ele><time>2026-04-11T09:47:59.86Z</time></trkpt><trkpt lat="41.2399767" lon="13.9681133"><ele>243.39999999999998</ele><time>2026-04-11T09:48:00.858Z</time></trkpt><trkpt lat="41.2398883" lon="13.9680567"><ele>242.79999999999998</ele><time>2026-04-11T09:48:01.859Z</time></trkpt><trkpt lat="41.2398" lon="13.9680033"><ele>242.20000000000002</ele><time>2026-04-11T09:48:02.86Z</time></trkpt><trkpt lat="41.2397033" lon="13.96796"><ele>241.60000000000002</ele><time>2026-04-11T09:48:03.858Z</time></trkpt><trkpt lat="41.2396067" lon="13.96792"><ele>241.0</ele><time>2026-04-11T09:48:04.86Z</time></trkpt><trkpt lat="41.23951" lon="13.9678767"><ele>241.0</ele><time>2026-04-11T09:48:05.859Z</time></trkpt><trkpt lat="41.2394217" lon="13.96783"><ele>241.00000000000003</ele><time>2026-04-11T09:48:06.858Z</time></trkpt><trkpt lat="41.2393283" lon="13.9677867"><ele>241.00000000000003</ele><time>2026-04-11T09:48:07.86Z</time></trkpt><trkpt lat="41.2392317" lon="13.9677467"><ele>241.0</ele><time>2026-04-11T09:48:08.86Z</time></trkpt><trkpt lat="41.2391317" lon="13.96771"><ele>241.0</ele><time>2026-04-11T09:48:09.859Z</time></trkpt><trkpt lat="41.239035" lon="13.967675"><ele>240.60000000000002</ele><time>2026-04-11T09:48:10.86Z</time></trkpt><trkpt lat="41.238935" lon="13.9676433"><ele>240.20000000000002</ele><time>2026-04-11T09:48:11.858Z</time></trkpt><trkpt lat="41.2388417" lon="13.9676167"><ele>239.79999999999998</ele><time>2026-04-11T09:48:12.859Z</time></trkpt><trkpt lat="41.238745" lon="13.9675933"><ele>239.39999999999998</ele><time>2026-04-11T09:48:13.859Z</time></trkpt><trkpt lat="41.238645" lon="13.9675733"><ele>239.0</ele><time>2026-04-11T09:48:14.859Z</time></trkpt><trkpt lat="41.2385467" lon="13.967555"><ele>239.0</ele><time>2026-04-11T09:48:15.859Z</time></trkpt><trkpt lat="41.2384467" lon="13.9675333"><ele>238.99999999999997</ele><time>2026-04-11T09:48:16.86Z</time></trkpt><trkpt lat="41.238345" lon="13.9675133"><ele>238.99999999999997</ele><time>2026-04-11T09:48:17.86Z</time></trkpt><trkpt lat="41.23824" lon="13.9674933"><ele>239.0</ele><time>2026-04-11T09:48:18.858Z</time></trkpt><trkpt lat="41.238135" lon="13.967475"><ele>239.0</ele><time>2026-04-11T09:48:19.86Z</time></trkpt><trkpt lat="41.2380367" lon="13.967465"><ele>233.0</ele><time>2026-04-11T09:48:20.86Z</time></trkpt><trkpt lat="41.2379467" lon="13.967455"><ele>226.99999999999997</ele><time>2026-04-11T09:48:21.858Z</time></trkpt><trkpt lat="41.2378567" lon="13.9674483"><ele>221.0</ele><time>2026-04-11T09:48:22.86Z</time></trkpt><trkpt lat="41.23777" lon="13.9674383"><ele>215.0</ele><time>2026-04-11T09:48:23.861Z</time></trkpt><trkpt lat="41.2376817" lon="13.9674283"><ele>209.0</ele><time>2026-04-11T09:48:24.86Z</time></trkpt><trkpt lat="41.2375867" lon="13.9674267"><ele>209.0</ele><time>2026-04-11T09:48:25.86Z</time></trkpt><trkpt lat="41.23749" lon="13.9674367"><ele>209.0</ele><time>2026-04-11T09:48:26.86Z</time></trkpt><trkpt lat="41.2373967" lon="13.9674617"><ele>209.0</ele><time>2026-04-11T09:48:27.859Z</time></trkpt><trkpt lat="41.2373067" lon="13.9675083"><ele>209.0</ele><time>2026-04-11T09:48:28.86Z</time></trkpt><trkpt lat="41.23722" lon="13.9675667"><ele>209.0</ele><time>2026-04-11T09:48:29.859Z</time></trkpt><trkpt lat="41.2371367" lon="13.9676417"><ele>208.79999999999998</ele><time>2026-04-11T09:48:30.859Z</time></trkpt><trkpt lat="41.23706" lon="13.967725"><ele>208.6</ele><time>2026-04-11T09:48:31.86Z</time></trkpt><trkpt lat="41.2369967" lon="13.9678217"><ele>208.4</ele><time>2026-04-11T09:48:32.858Z</time></trkpt><trkpt lat="41.2369483" lon="13.96793"><ele>208.2</ele><time>2026-04-11T09:48:33.86Z</time></trkpt><trkpt lat="41.2369117" lon="13.9680417"><ele>208.0</ele><time>2026-04-11T09:48:34.86Z</time></trkpt><trkpt lat="41.2368833" lon="13.9681533"><ele>207.99999999999997</ele><time>2026-04-11T09:48:35.86Z</time></trkpt><trkpt lat="41.2368633" lon="13.968265"><ele>208.0</ele><time>2026-04-11T09:48:36.858Z</time></trkpt><trkpt lat="41.236845" lon="13.96837"><ele>208.0</ele><time>2026-04-11T09:48:37.86Z</time></trkpt><trkpt lat="41.2368233" lon="13.9684733"><ele>208.0</ele><time>2026-04-11T09:48:38.858Z</time></trkpt><trkpt lat="41.2368033" lon="13.968575"><ele>207.99999999999997</ele><time>2026-04-11T09:48:39.859Z</time></trkpt><trkpt lat="41.2367833" lon="13.96867"><ele>208.0</ele><time>2026-04-11T09:48:40.86Z</time></trkpt><trkpt lat="41.2367617" lon="13.9687617"><ele>208.83333333333331</ele><time>2026-04-11T09:48:41.86Z</time></trkpt><trkpt lat="41.2367367" lon="13.9688483"><ele>209.66666666666666</ele><time>2026-04-11T09:48:42.859Z</time></trkpt><trkpt lat="41.2367117" lon="13.9689383"><ele>210.5</ele><time>2026-04-11T09:48:43.86Z</time></trkpt><trkpt lat="41.2366767" lon="13.9690317"><ele>211.33333333333331</ele><time>2026-04-11T09:48:44.858Z</time></trkpt><trkpt lat="41.23665" lon="13.9691417"><ele>212.16666666666666</ele><time>2026-04-11T09:48:45.858Z</time></trkpt><trkpt lat="41.236615" lon="13.9692317"><ele>213.0</ele><time>2026-04-11T09:48:46.859Z</time></trkpt><trkpt lat="41.2365667" lon="13.9693183"><ele>213.5</ele><time>2026-04-11T09:48:47.861Z</time></trkpt><trkpt lat="41.2365283" lon="13.9694033"><ele>214.0</ele><time>2026-04-11T09:48:48.857Z</time></trkpt><trkpt lat="41.2364867" lon="13.96949"><ele>214.5</ele><time>2026-04-11T09:48:49.86Z</time></trkpt><trkpt lat="41.2364533" lon="13.9695833"><ele>215.0</ele><time>2026-04-11T09:48:50.859Z</time></trkpt><trkpt lat="41.23643" lon="13.969685"><ele>215.5</ele><time>2026-04-11T09:48:51.86Z</time></trkpt><trkpt lat="41.2364133" lon="13.9697883"><ele>216.0</ele><time>2026-04-11T09:48:52.859Z</time></trkpt><trkpt lat="41.2363967" lon="13.969895"><ele>215.0</ele><time>2026-04-11T09:48:53.86Z</time></trkpt><trkpt lat="41.2363783" lon="13.9700033"><ele>214.0</ele><time>2026-04-11T09:48:54.86Z</time></trkpt><trkpt lat="41.236355" lon="13.9701183"><ele>213.0</ele><time>2026-04-11T09:48:55.86Z</time></trkpt><trkpt lat="41.2363333" lon="13.9702333"><ele>212.0</ele><time>2026-04-11T09:48:56.859Z</time></trkpt><trkpt lat="41.2363133" lon="13.97035"><ele>211.0</ele><time>2026-04-11T09:48:57.86Z</time></trkpt><trkpt lat="41.2362933" lon="13.9704667"><ele>210.0</ele><time>2026-04-11T09:48:58.858Z</time></trkpt><trkpt lat="41.2362717" lon="13.9705833"><ele>210.0</ele><time>2026-04-11T09:48:59.86Z</time></trkpt><trkpt lat="41.23625" lon="13.9707"><ele>210.0</ele><time>2026-04-11T09:49:00.859Z</time></trkpt><trkpt lat="41.2362217" lon="13.9708133"><ele>210.0</ele><time>2026-04-11T09:49:01.859Z</time></trkpt><trkpt lat="41.23619" lon="13.9709267"><ele>210.0</ele><time>2026-04-11T09:49:02.86Z</time></trkpt><trkpt lat="41.23615" lon="13.9710383"><ele>210.0</ele><time>2026-04-11T09:49:03.858Z</time></trkpt><trkpt lat="41.2361117" lon="13.9711433"><ele>210.83333333333334</ele><time>2026-04-11T09:49:04.86Z</time></trkpt><trkpt lat="41.23607" lon="13.9712433"><ele>211.66666666666669</ele><time>2026-04-11T09:49:05.86Z</time></trkpt><trkpt lat="41.23603" lon="13.9713417"><ele>212.5</ele><time>2026-04-11T09:49:06.858Z</time></trkpt><trkpt lat="41.2359867" lon="13.9714333"><ele>213.33333333333334</ele><time>2026-04-11T09:49:07.859Z</time></trkpt><trkpt lat="41.23595" lon="13.971515"><ele>214.16666666666669</ele><time>2026-04-11T09:49:08.859Z</time></trkpt><trkpt lat="41.2359133" lon="13.971595"><ele>215.0</ele><time>2026-04-11T09:49:09.859Z</time></trkpt><trkpt lat="41.23588" lon="13.9716683"><ele>215.6</ele><time>2026-04-11T09:49:10.859Z</time></trkpt><trkpt lat="41.23581" lon="13.9717867"><ele>216.2</ele><time>2026-04-11T09:49:12.861Z</time></trkpt><trkpt lat="41.2357467" lon="13.97189"><ele>216.8</ele><time>2026-04-11T09:49:14.859Z</time></trkpt><trkpt lat="41.2357033" lon="13.9719967"><ele>217.4</ele><time>2026-04-11T09:49:16.859Z</time></trkpt><trkpt lat="41.2356517" lon="13.972065"><ele>218.0</ele><time>2026-04-11T09:49:18.858Z</time></trkpt><trkpt lat="41.2355767" lon="13.9721017"><ele>218.16666666666669</ele><time>2026-04-11T09:49:21.857Z</time></trkpt><trkpt lat="41.23551" lon="13.9721067"><ele>218.33333333333334</ele><time>2026-04-11T09:49:24.859Z</time></trkpt><trkpt lat="41.2354483" lon="13.9720417"><ele>218.5</ele><time>2026-04-11T09:49:28.859Z</time></trkpt><trkpt lat="41.235405" lon="13.9719183"><ele>218.66666666666669</ele><time>2026-04-11T09:49:31.859Z</time></trkpt><trkpt lat="41.2353683" lon="13.9718133"><ele>218.83333333333334</ele><time>2026-04-11T09:49:33.857Z</time></trkpt><trkpt lat="41.2353133" lon="13.97171"><ele>219.0</ele><time>2026-04-11T09:49:35.857Z</time></trkpt><trkpt lat="41.23524" lon="13.971615"><ele>219.0</ele><time>2026-04-11T09:49:37.859Z</time></trkpt><trkpt lat="41.235165" lon="13.9715267"><ele>218.99999999999997</ele><time>2026-04-11T09:49:39.859Z</time></trkpt><trkpt lat="41.23507" lon="13.971445"><ele>218.99999999999997</ele><time>2026-04-11T09:49:41.86Z</time></trkpt><trkpt lat="41.234965" lon="13.971365"><ele>219.0</ele><time>2026-04-11T09:49:43.859Z</time></trkpt><trkpt lat="41.23491" lon="13.9713233"><ele>219.0</ele><time>2026-04-11T09:49:44.859Z</time></trkpt><trkpt lat="41.2348033" lon="13.9712367"><ele>219.25</ele><time>2026-04-11T09:49:46.858Z</time></trkpt><trkpt lat="41.2347017" lon="13.971145"><ele>219.5</ele><time>2026-04-11T09:49:48.858Z</time></trkpt><trkpt lat="41.2345983" lon="13.9710633"><ele>219.75</ele><time>2026-04-11T09:49:50.859Z</time></trkpt><trkpt lat="41.2344883" lon="13.97098"><ele>220.0</ele><time>2026-04-11T09:49:52.858Z</time></trkpt><trkpt lat="41.2343817" lon="13.9708883"><ele>219.28571428571428</ele><time>2026-04-11T09:49:54.857Z</time></trkpt><trkpt lat="41.2343283" lon="13.970835"><ele>218.57142857142856</ele><time>2026-04-11T09:49:55.858Z</time></trkpt><trkpt lat="41.23427" lon="13.9707833"><ele>217.85714285714283</ele><time>2026-04-11T09:49:56.859Z</time></trkpt><trkpt lat="41.2342117" lon="13.970725"><ele>217.14285714285714</ele><time>2026-04-11T09:49:57.858Z</time></trkpt><trkpt lat="41.23416" lon="13.9706583"><ele>216.42857142857144</ele><time>2026-04-11T09:49:58.859Z</time></trkpt><trkpt lat="41.2341117" lon="13.9705933"><ele>215.7142857142857</ele><time>2026-04-11T09:49:59.858Z</time></trkpt><trkpt lat="41.2340617" lon="13.970525"><ele>215.0</ele><time>2026-04-11T09:50:00.859Z</time></trkpt><trkpt lat="41.23401" lon="13.970455"><ele>215.14285714285714</ele><time>2026-04-11T09:50:01.857Z</time></trkpt><trkpt lat="41.2339567" lon="13.9703867"><ele>215.2857142857143</ele><time>2026-04-11T09:50:02.858Z</time></trkpt><trkpt lat="41.2339083" lon="13.9703217"><ele>215.42857142857144</ele><time>2026-04-11T09:50:03.857Z</time></trkpt><trkpt lat="41.2338567" lon="13.9702517"><ele>215.57142857142856</ele><time>2026-04-11T09:50:04.857Z</time></trkpt><trkpt lat="41.233805" lon="13.9701883"><ele>215.71428571428572</ele><time>2026-04-11T09:50:05.858Z</time></trkpt><trkpt lat="41.2337533" lon="13.97012"><ele>215.85714285714286</ele><time>2026-04-11T09:50:06.858Z</time></trkpt><trkpt lat="41.2337083" lon="13.9700467"><ele>216.0</ele><time>2026-04-11T09:50:07.858Z</time></trkpt><trkpt lat="41.23366" lon="13.9699767"><ele>216.0</ele><time>2026-04-11T09:50:08.858Z</time></trkpt><trkpt lat="41.2336133" lon="13.9699083"><ele>216.0</ele><time>2026-04-11T09:50:09.857Z</time></trkpt><trkpt lat="41.2335633" lon="13.9698367"><ele>216.0</ele><time>2026-04-11T09:50:10.86Z</time></trkpt><trkpt lat="41.233515" lon="13.9697717"><ele>216.0</ele><time>2026-04-11T09:50:11.857Z</time></trkpt><trkpt lat="41.233465" lon="13.969705"><ele>216.0</ele><time>2026-04-11T09:50:12.857Z</time></trkpt><trkpt lat="41.2334067" lon="13.9696467"><ele>216.0</ele><time>2026-04-11T09:50:13.859Z</time></trkpt><trkpt lat="41.23335" lon="13.9695883"><ele>216.0</ele><time>2026-04-11T09:50:14.858Z</time></trkpt><trkpt lat="41.233295" lon="13.96953"><ele>216.0</ele><time>2026-04-11T09:50:15.858Z</time></trkpt><trkpt lat="41.2332417" lon="13.9694683"><ele>216.0</ele><time>2026-04-11T09:50:16.857Z</time></trkpt><trkpt lat="41.2331867" lon="13.9694067"><ele>216.0</ele><time>2026-04-11T09:50:17.858Z</time></trkpt><trkpt lat="41.2331367" lon="13.9693417"><ele>216.0</ele><time>2026-04-11T09:50:18.859Z</time></trkpt><trkpt lat="41.2330817" lon="13.96928"><ele>216.0</ele><time>2026-04-11T09:50:19.858Z</time></trkpt><trkpt lat="41.2330267" lon="13.9692167"><ele>216.0</ele><time>2026-04-11T09:50:20.859Z</time></trkpt><trkpt lat="41.23298" lon="13.9691483"><ele>216.0</ele><time>2026-04-11T09:50:21.857Z</time></trkpt><trkpt lat="41.2329317" lon="13.9690817"><ele>216.16666666666666</ele><time>2026-04-11T09:50:22.857Z</time></trkpt><trkpt lat="41.2328867" lon="13.9690117"><ele>216.33333333333331</ele><time>2026-04-11T09:50:23.859Z</time></trkpt><trkpt lat="41.2328283" lon="13.968955"><ele>216.5</ele><time>2026-04-11T09:50:24.859Z</time></trkpt><trkpt lat="41.2327767" lon="13.96889"><ele>216.66666666666666</ele><time>2026-04-11T09:50:25.859Z</time></trkpt><trkpt lat="41.2327233" lon="13.96883"><ele>216.83333333333331</ele><time>2026-04-11T09:50:26.858Z</time></trkpt><trkpt lat="41.23268" lon="13.9687667"><ele>217.0</ele><time>2026-04-11T09:50:27.857Z</time></trkpt><trkpt lat="41.2325783" lon="13.9687017"><ele>216.99999999999997</ele><time>2026-04-11T09:50:29.859Z</time></trkpt><trkpt lat="41.232515" lon="13.9686967"><ele>217.0</ele><time>2026-04-11T09:50:30.859Z</time></trkpt><trkpt lat="41.232445" lon="13.9687067"><ele>217.0</ele><time>2026-04-11T09:50:31.86Z</time></trkpt><trkpt lat="41.23237" lon="13.9687283"><ele>217.0</ele><time>2026-04-11T09:50:32.858Z</time></trkpt><trkpt lat="41.232295" lon="13.9687467"><ele>216.99999999999997</ele><time>2026-04-11T09:50:33.859Z</time></trkpt><trkpt lat="41.232225" lon="13.9687817"><ele>217.0</ele><time>2026-04-11T09:50:34.859Z</time></trkpt><trkpt lat="41.2321133" lon="13.9688283"><ele>217.39999999999998</ele><time>2026-04-11T09:50:36.86Z</time></trkpt><trkpt lat="41.2320067" lon="13.9688633"><ele>217.79999999999998</ele><time>2026-04-11T09:50:38.858Z</time></trkpt><trkpt lat="41.2319017" lon="13.96891"><ele>218.2</ele><time>2026-04-11T09:50:40.858Z</time></trkpt><trkpt lat="41.2317833" lon="13.9689467"><ele>218.6</ele><time>2026-04-11T09:50:42.858Z</time></trkpt><trkpt lat="41.23172" lon="13.96896"><ele>219.0</ele><time>2026-04-11T09:50:43.859Z</time></trkpt><trkpt lat="41.2316567" lon="13.96897"><ele>219.0</ele><time>2026-04-11T09:50:44.859Z</time></trkpt><trkpt lat="41.23155" lon="13.9689883"><ele>219.0</ele><time>2026-04-11T09:50:46.859Z</time></trkpt><trkpt lat="41.23143" lon="13.9690067"><ele>219.0</ele><time>2026-04-11T09:50:48.859Z</time></trkpt><trkpt lat="41.2313233" lon="13.969045"><ele>219.0</ele><time>2026-04-11T09:50:50.858Z</time></trkpt><trkpt lat="41.2312217" lon="13.9691217"><ele>219.83333333333334</ele><time>2026-04-11T09:50:52.859Z</time></trkpt><trkpt lat="41.2311383" lon="13.9691967"><ele>220.66666666666669</ele><time>2026-04-11T09:50:54.859Z</time></trkpt><trkpt lat="41.2310633" lon="13.969265"><ele>221.5</ele><time>2026-04-11T09:50:56.858Z</time></trkpt><trkpt lat="41.2310133" lon="13.96933"><ele>222.33333333333334</ele><time>2026-04-11T09:50:58.858Z</time></trkpt><trkpt lat="41.2309467" lon="13.9693867"><ele>223.16666666666669</ele><time>2026-04-11T09:51:01.859Z</time></trkpt><trkpt lat="41.230885" lon="13.96946"><ele>224.0</ele><time>2026-04-11T09:51:04.859Z</time></trkpt><trkpt lat="41.23086" lon="13.9695717"><ele>224.0</ele><time>2026-04-11T09:51:07.859Z</time></trkpt><trkpt lat="41.2308633" lon="13.969685"><ele>223.99999999999997</ele><time>2026-04-11T09:51:09.858Z</time></trkpt><trkpt lat="41.2308733" lon="13.9697983"><ele>223.99999999999997</ele><time>2026-04-11T09:51:11.859Z</time></trkpt><trkpt lat="41.2308733" lon="13.9699217"><ele>224.0</ele><time>2026-04-11T09:51:13.858Z</time></trkpt><trkpt lat="41.23088" lon="13.9700483"><ele>224.0</ele><time>2026-04-11T09:51:15.859Z</time></trkpt><trkpt lat="41.2308883" lon="13.9701983"><ele>225.0</ele><time>2026-04-11T09:51:17.859Z</time></trkpt><trkpt lat="41.230895" lon="13.9703367"><ele>225.99999999999997</ele><time>2026-04-11T09:51:19.859Z</time></trkpt><trkpt lat="41.2309" lon="13.9704633"><ele>226.99999999999997</ele><time>2026-04-11T09:51:21.859Z</time></trkpt><trkpt lat="41.2309033" lon="13.9706067"><ele>228.0</ele><time>2026-04-11T09:51:23.858Z</time></trkpt><trkpt lat="41.230895" lon="13.9707367"><ele>229.0</ele><time>2026-04-11T09:51:25.859Z</time></trkpt><trkpt lat="41.230895" lon="13.97086"><ele>229.16666666666666</ele><time>2026-04-11T09:51:27.858Z</time></trkpt><trkpt lat="41.2308883" lon="13.9709683"><ele>229.33333333333331</ele><time>2026-04-11T09:51:29.858Z</time></trkpt><trkpt lat="41.2308633" lon="13.9710617"><ele>229.5</ele><time>2026-04-11T09:51:31.859Z</time></trkpt><trkpt lat="41.23082" lon="13.9711517"><ele>229.66666666666669</ele><time>2026-04-11T09:51:33.859Z</time></trkpt><trkpt lat="41.2307833" lon="13.9712533"><ele>229.83333333333334</ele><time>2026-04-11T09:51:35.86Z</time></trkpt><trkpt lat="41.2307367" lon="13.9713583"><ele>230.0</ele><time>2026-04-11T09:51:37.859Z</time></trkpt><trkpt lat="41.230695" lon="13.9714783"><ele>230.0</ele><time>2026-04-11T09:51:39.859Z</time></trkpt><trkpt lat="41.2306567" lon="13.9716033"><ele>230.0</ele><time>2026-04-11T09:51:41.859Z</time></trkpt><trkpt lat="41.230605" lon="13.9717317"><ele>230.0</ele><time>2026-04-11T09:51:43.859Z</time></trkpt><trkpt lat="41.2305583" lon="13.97187"><ele>230.0</ele><time>2026-04-11T09:51:45.859Z</time></trkpt><trkpt lat="41.2305083" lon="13.972005"><ele>230.0</ele><time>2026-04-11T09:51:47.857Z</time></trkpt><trkpt lat="41.23045" lon="13.97213"><ele>228.75</ele><time>2026-04-11T09:51:49.859Z</time></trkpt><trkpt lat="41.2303833" lon="13.9722533"><ele>227.5</ele><time>2026-04-11T09:51:51.858Z</time></trkpt><trkpt lat="41.2303067" lon="13.97237"><ele>226.25</ele><time>2026-04-11T09:51:53.858Z</time></trkpt><trkpt lat="41.23022" lon="13.97247"><ele>225.0</ele><time>2026-04-11T09:51:55.857Z</time></trkpt><trkpt lat="41.2301333" lon="13.9725517"><ele>222.2</ele><time>2026-04-11T09:51:57.86Z</time></trkpt><trkpt lat="41.2300317" lon="13.9726183"><ele>219.4</ele><time>2026-04-11T09:51:59.859Z</time></trkpt><trkpt lat="41.2299267" lon="13.97266"><ele>216.60000000000002</ele><time>2026-04-11T09:52:01.86Z</time></trkpt><trkpt lat="41.22981" lon="13.9726667"><ele>213.8</ele><time>2026-04-11T09:52:03.859Z</time></trkpt><trkpt lat="41.2297383" lon="13.97266"><ele>211.0</ele><time>2026-04-11T09:52:04.86Z</time></trkpt><trkpt lat="41.22967" lon="13.9726417"><ele>210.66666666666666</ele><time>2026-04-11T09:52:05.86Z</time></trkpt><trkpt lat="41.2296017" lon="13.9726233"><ele>210.33333333333331</ele><time>2026-04-11T09:52:06.859Z</time></trkpt><trkpt lat="41.229485" lon="13.9725633"><ele>210.0</ele><time>2026-04-11T09:52:08.859Z</time></trkpt><trkpt lat="41.229425" lon="13.972525"><ele>209.66666666666669</ele><time>2026-04-11T09:52:09.859Z</time></trkpt><trkpt lat="41.2293617" lon="13.972485"><ele>209.33333333333334</ele><time>2026-04-11T09:52:10.857Z</time></trkpt><trkpt lat="41.2293033" lon="13.9724433"><ele>209.0</ele><time>2026-04-11T09:52:11.859Z</time></trkpt><trkpt lat="41.229245" lon="13.9723983"><ele>209.85714285714286</ele><time>2026-04-11T09:52:12.86Z</time></trkpt><trkpt lat="41.2291867" lon="13.9723533"><ele>210.71428571428572</ele><time>2026-04-11T09:52:13.86Z</time></trkpt><trkpt lat="41.2291283" lon="13.97231"><ele>211.57142857142856</ele><time>2026-04-11T09:52:14.859Z</time></trkpt><trkpt lat="41.22907" lon="13.9722667"><ele>212.42857142857144</ele><time>2026-04-11T09:52:15.858Z</time></trkpt><trkpt lat="41.2290117" lon="13.9722283"><ele>213.2857142857143</ele><time>2026-04-11T09:52:16.859Z</time></trkpt><trkpt lat="41.22895" lon="13.9721967"><ele>214.14285714285714</ele><time>2026-04-11T09:52:17.859Z</time></trkpt><trkpt lat="41.2288883" lon="13.9721683"><ele>215.0</ele><time>2026-04-11T09:52:18.859Z</time></trkpt><trkpt lat="41.2288267" lon="13.97215"><ele>215.0</ele><time>2026-04-11T09:52:19.86Z</time></trkpt><trkpt lat="41.2287567" lon="13.9721367"><ele>215.0</ele><time>2026-04-11T09:52:20.859Z</time></trkpt><trkpt lat="41.228685" lon="13.9721233"><ele>215.0</ele><time>2026-04-11T09:52:21.858Z</time></trkpt><trkpt lat="41.2286117" lon="13.972125"><ele>215.0</ele><time>2026-04-11T09:52:22.859Z</time></trkpt><trkpt lat="41.22854" lon="13.972125"><ele>215.0</ele><time>2026-04-11T09:52:23.859Z</time></trkpt><trkpt lat="41.2284717" lon="13.97213"><ele>215.0</ele><time>2026-04-11T09:52:24.859Z</time></trkpt><trkpt lat="41.228405" lon="13.9721317"><ele>215.0</ele><time>2026-04-11T09:52:25.86Z</time></trkpt><trkpt lat="41.2283367" lon="13.9721467"><ele>215.0</ele><time>2026-04-11T09:52:26.859Z</time></trkpt><trkpt lat="41.2282683" lon="13.9721667"><ele>215.0</ele><time>2026-04-11T09:52:27.857Z</time></trkpt><trkpt lat="41.2281983" lon="13.9721917"><ele>215.0</ele><time>2026-04-11T09:52:28.859Z</time></trkpt><trkpt lat="41.2281333" lon="13.9722217"><ele>215.0</ele><time>2026-04-11T09:52:29.859Z</time></trkpt><trkpt lat="41.22807" lon="13.9722667"><ele>215.0</ele><time>2026-04-11T09:52:30.859Z</time></trkpt><trkpt lat="41.2280083" lon="13.9723167"><ele>215.0</ele><time>2026-04-11T09:52:31.859Z</time></trkpt><trkpt lat="41.2279433" lon="13.9723667"><ele>215.0</ele><time>2026-04-11T09:52:32.859Z</time></trkpt><trkpt lat="41.227885" lon="13.97242"><ele>214.42857142857142</ele><time>2026-04-11T09:52:33.859Z</time></trkpt><trkpt lat="41.227825" lon="13.9724717"><ele>213.85714285714286</ele><time>2026-04-11T09:52:34.858Z</time></trkpt><trkpt lat="41.2277633" lon="13.972525"><ele>213.28571428571428</ele><time>2026-04-11T09:52:35.859Z</time></trkpt><trkpt lat="41.227705" lon="13.97258"><ele>212.71428571428572</ele><time>2026-04-11T09:52:36.86Z</time></trkpt><trkpt lat="41.2276433" lon="13.9726283"><ele>212.14285714285717</ele><time>2026-04-11T09:52:37.86Z</time></trkpt><trkpt lat="41.2275833" lon="13.97267"><ele>211.57142857142858</ele><time>2026-04-11T09:52:38.859Z</time></trkpt><trkpt lat="41.2275183" lon="13.9727067"><ele>211.0</ele><time>2026-04-11T09:52:39.859Z</time></trkpt><trkpt lat="41.2274583" lon="13.9727533"><ele>210.99999999999997</ele><time>2026-04-11T09:52:40.859Z</time></trkpt><trkpt lat="41.2274017" lon="13.9728"><ele>211.0</ele><time>2026-04-11T09:52:41.859Z</time></trkpt><trkpt lat="41.227345" lon="13.9728383"><ele>211.0</ele><time>2026-04-11T09:52:42.859Z</time></trkpt><trkpt lat="41.2272417" lon="13.9729067"><ele>211.0</ele><time>2026-04-11T09:52:44.859Z</time></trkpt><trkpt lat="41.2271267" lon="13.972975"><ele>210.99999999999997</ele><time>2026-04-11T09:52:46.858Z</time></trkpt><trkpt lat="41.2270567" lon="13.9730067"><ele>211.0</ele><time>2026-04-11T09:52:47.859Z</time></trkpt><trkpt lat="41.22699" lon="13.9730383"><ele>211.71428571428572</ele><time>2026-04-11T09:52:48.859Z</time></trkpt><trkpt lat="41.2269183" lon="13.9730583"><ele>212.42857142857144</ele><time>2026-04-11T09:52:49.86Z</time></trkpt><trkpt lat="41.226845" lon="13.9730617"><ele>213.14285714285714</ele><time>2026-04-11T09:52:50.86Z</time></trkpt><trkpt lat="41.2267683" lon="13.9730567"><ele>213.85714285714286</ele><time>2026-04-11T09:52:51.859Z</time></trkpt><trkpt lat="41.2266983" lon="13.9730417"><ele>214.57142857142856</ele><time>2026-04-11T09:52:52.859Z</time></trkpt><trkpt lat="41.22663" lon="13.97303"><ele>215.28571428571428</ele><time>2026-04-11T09:52:53.859Z</time></trkpt><trkpt lat="41.22656" lon="13.9730117"><ele>216.0</ele><time>2026-04-11T09:52:54.857Z</time></trkpt><trkpt lat="41.226485" lon="13.9729967"><ele>214.28571428571428</ele><time>2026-04-11T09:52:55.858Z</time></trkpt><trkpt lat="41.226415" lon="13.9729767"><ele>212.57142857142856</ele><time>2026-04-11T09:52:56.859Z</time></trkpt><trkpt lat="41.226345" lon="13.9729467"><ele>210.85714285714286</ele><time>2026-04-11T09:52:57.859Z</time></trkpt><trkpt lat="41.2262683" lon="13.9729167"><ele>209.14285714285714</ele><time>2026-04-11T09:52:58.859Z</time></trkpt><trkpt lat="41.226205" lon="13.97287"><ele>207.42857142857144</ele><time>2026-04-11T09:52:59.859Z</time></trkpt><trkpt lat="41.226155" lon="13.9728183"><ele>205.71428571428572</ele><time>2026-04-11T09:53:00.858Z</time></trkpt><trkpt lat="41.2261167" lon="13.9727517"><ele>204.0</ele><time>2026-04-11T09:53:01.86Z</time></trkpt><trkpt lat="41.2260583" lon="13.9726167"><ele>205.39999999999998</ele><time>2026-04-11T09:53:03.858Z</time></trkpt><trkpt lat="41.22613" lon="13.9724433"><ele>206.8</ele><time>2026-04-11T09:53:05.86Z</time></trkpt><trkpt lat="41.2261817" lon="13.97236"><ele>208.2</ele><time>2026-04-11T09:53:06.858Z</time></trkpt><trkpt lat="41.2262367" lon="13.972275"><ele>209.60000000000002</ele><time>2026-04-11T09:53:07.859Z</time></trkpt><trkpt lat="41.226285" lon="13.97218"><ele>211.0</ele><time>2026-04-11T09:53:08.859Z</time></trkpt><trkpt lat="41.2263233" lon="13.9720767"><ele>211.0</ele><time>2026-04-11T09:53:09.86Z</time></trkpt><trkpt lat="41.2263433" lon="13.9719783"><ele>211.0</ele><time>2026-04-11T09:53:10.859Z</time></trkpt><trkpt lat="41.2263433" lon="13.9718817"><ele>211.0</ele><time>2026-04-11T09:53:11.859Z</time></trkpt><trkpt lat="41.2263283" lon="13.9717867"><ele>211.0</ele><time>2026-04-11T09:53:12.859Z</time></trkpt><trkpt lat="41.22631" lon="13.9716967"><ele>211.0</ele><time>2026-04-11T09:53:13.86Z</time></trkpt><trkpt lat="41.2262683" lon="13.9716167"><ele>211.0</ele><time>2026-04-11T09:53:14.859Z</time></trkpt><trkpt lat="41.2262183" lon="13.9715367"><ele>211.0</ele><time>2026-04-11T09:53:15.858Z</time></trkpt><trkpt lat="41.226165" lon="13.9714567"><ele>211.16666666666666</ele><time>2026-04-11T09:53:16.859Z</time></trkpt><trkpt lat="41.2261133" lon="13.9713767"><ele>211.33333333333331</ele><time>2026-04-11T09:53:17.859Z</time></trkpt><trkpt lat="41.2260633" lon="13.9712933"><ele>211.5</ele><time>2026-04-11T09:53:18.859Z</time></trkpt><trkpt lat="41.2260067" lon="13.97121"><ele>211.66666666666669</ele><time>2026-04-11T09:53:19.86Z</time></trkpt><trkpt lat="41.22594" lon="13.9711267"><ele>211.83333333333334</ele><time>2026-04-11T09:53:20.858Z</time></trkpt><trkpt lat="41.225875" lon="13.971045"><ele>212.0</ele><time>2026-04-11T09:53:21.859Z</time></trkpt><trkpt lat="41.2258083" lon="13.97097"><ele>212.0</ele><time>2026-04-11T09:53:22.86Z</time></trkpt><trkpt lat="41.2257267" lon="13.9708933"><ele>212.0</ele><time>2026-04-11T09:53:23.857Z</time></trkpt><trkpt lat="41.2256367" lon="13.970845"><ele>212.0</ele><time>2026-04-11T09:53:24.859Z</time></trkpt><trkpt lat="41.2255433" lon="13.9708183"><ele>212.0</ele><time>2026-04-11T09:53:25.86Z</time></trkpt><trkpt lat="41.2254433" lon="13.9708183"><ele>212.0</ele><time>2026-04-11T09:53:26.859Z</time></trkpt><trkpt lat="41.225345" lon="13.970855"><ele>212.6</ele><time>2026-04-11T09:53:27.858Z</time></trkpt><trkpt lat="41.22526" lon="13.9709217"><ele>213.2</ele><time>2026-04-11T09:53:28.858Z</time></trkpt><trkpt lat="41.2251917" lon="13.9710117"><ele>213.8</ele><time>2026-04-11T09:53:29.86Z</time></trkpt><trkpt lat="41.2251417" lon="13.9711167"><ele>214.4</ele><time>2026-04-11T09:53:30.859Z</time></trkpt><trkpt lat="41.2251033" lon="13.9712367"><ele>215.0</ele><time>2026-04-11T09:53:31.86Z</time></trkpt><trkpt lat="41.225075" lon="13.9713633"><ele>215.0</ele><time>2026-04-11T09:53:32.859Z</time></trkpt><trkpt lat="41.2250517" lon="13.9714917"><ele>215.0</ele><time>2026-04-11T09:53:33.858Z</time></trkpt><trkpt lat="41.2250283" lon="13.9716217"><ele>215.0</ele><time>2026-04-11T09:53:34.859Z</time></trkpt><trkpt lat="41.225005" lon="13.97175"><ele>215.0</ele><time>2026-04-11T09:53:35.86Z</time></trkpt><trkpt lat="41.22498" lon="13.97188"><ele>215.0</ele><time>2026-04-11T09:53:36.859Z</time></trkpt><trkpt lat="41.2249567" lon="13.9720183"><ele>213.2</ele><time>2026-04-11T09:53:37.859Z</time></trkpt><trkpt lat="41.2249317" lon="13.9721483"><ele>211.4</ele><time>2026-04-11T09:53:38.86Z</time></trkpt><trkpt lat="41.2249" lon="13.9722833"><ele>209.60000000000002</ele><time>2026-04-11T09:53:39.858Z</time></trkpt><trkpt lat="41.2248617" lon="13.972415"><ele>207.8</ele><time>2026-04-11T09:53:40.86Z</time></trkpt><trkpt lat="41.224815" lon="13.97254"><ele>206.0</ele><time>2026-04-11T09:53:41.859Z</time></trkpt><trkpt lat="41.224765" lon="13.97266"><ele>206.0</ele><time>2026-04-11T09:53:42.859Z</time></trkpt><trkpt lat="41.2247067" lon="13.972775"><ele>206.0</ele><time>2026-04-11T09:53:43.86Z</time></trkpt><trkpt lat="41.2246417" lon="13.9728817"><ele>206.0</ele><time>2026-04-11T09:53:44.858Z</time></trkpt><trkpt lat="41.2245667" lon="13.9729833"><ele>206.0</ele><time>2026-04-11T09:53:45.858Z</time></trkpt><trkpt lat="41.2244883" lon="13.9730783"><ele>206.0</ele><time>2026-04-11T09:53:46.858Z</time></trkpt><trkpt lat="41.224405" lon="13.9731717"><ele>206.0</ele><time>2026-04-11T09:53:47.86Z</time></trkpt><trkpt lat="41.2243183" lon="13.97326"><ele>206.0</ele><time>2026-04-11T09:53:48.859Z</time></trkpt><trkpt lat="41.2242267" lon="13.9733483"><ele>206.0</ele><time>2026-04-11T09:53:49.86Z</time></trkpt><trkpt lat="41.224135" lon="13.97343"><ele>206.0</ele><time>2026-04-11T09:53:50.859Z</time></trkpt><trkpt lat="41.22404" lon="13.9734983"><ele>206.0</ele><time>2026-04-11T09:53:51.859Z</time></trkpt><trkpt lat="41.2239467" lon="13.9735533"><ele>204.20000000000002</ele><time>2026-04-11T09:53:52.857Z</time></trkpt><trkpt lat="41.2238483" lon="13.9735917"><ele>202.4</ele><time>2026-04-11T09:53:53.86Z</time></trkpt><trkpt lat="41.2237483" lon="13.9736183"><ele>200.6</ele><time>2026-04-11T09:53:54.86Z</time></trkpt><trkpt lat="41.2236467" lon="13.9736317"><ele>198.8</ele><time>2026-04-11T09:53:55.859Z</time></trkpt><trkpt lat="41.2235467" lon="13.9736267"><ele>197.0</ele><time>2026-04-11T09:53:56.858Z</time></trkpt><trkpt lat="41.223445" lon="13.97361"><ele>197.0</ele><time>2026-04-11T09:53:57.858Z</time></trkpt><trkpt lat="41.223345" lon="13.9735833"><ele>197.0</ele><time>2026-04-11T09:53:58.858Z</time></trkpt><trkpt lat="41.22325" lon="13.973555"><ele>197.0</ele><time>2026-04-11T09:53:59.86Z</time></trkpt><trkpt lat="41.2231517" lon="13.9735167"><ele>197.0</ele><time>2026-04-11T09:54:00.859Z</time></trkpt><trkpt lat="41.223055" lon="13.9734683"><ele>197.0</ele><time>2026-04-11T09:54:01.857Z</time></trkpt><trkpt lat="41.2229583" lon="13.9734167"><ele>198.6</ele><time>2026-04-11T09:54:02.858Z</time></trkpt><trkpt lat="41.222865" lon="13.973355"><ele>200.2</ele><time>2026-04-11T09:54:03.859Z</time></trkpt><trkpt lat="41.22277" lon="13.97329"><ele>201.8</ele><time>2026-04-11T09:54:04.859Z</time></trkpt><trkpt lat="41.2226767" lon="13.9732167"><ele>203.4</ele><time>2026-04-11T09:54:05.859Z</time></trkpt><trkpt lat="41.2225817" lon="13.9731417"><ele>205.0</ele><time>2026-04-11T09:54:06.859Z</time></trkpt><trkpt lat="41.2224917" lon="13.9730667"><ele>205.0</ele><time>2026-04-11T09:54:07.86Z</time></trkpt><trkpt lat="41.2224083" lon="13.97298"><ele>205.0</ele><time>2026-04-11T09:54:08.858Z</time></trkpt><trkpt lat="41.2223283" lon="13.97289"><ele>205.0</ele><time>2026-04-11T09:54:09.859Z</time></trkpt><trkpt lat="41.2222517" lon="13.9727967"><ele>205.0</ele><time>2026-04-11T09:54:10.859Z</time></trkpt><trkpt lat="41.2221833" lon="13.97269"><ele>205.0</ele><time>2026-04-11T09:54:11.86Z</time></trkpt><trkpt lat="41.2221117" lon="13.97258"><ele>203.8</ele><time>2026-04-11T09:54:12.858Z</time></trkpt><trkpt lat="41.222035" lon="13.9724767"><ele>202.6</ele><time>2026-04-11T09:54:13.86Z</time></trkpt><trkpt lat="41.2219583" lon="13.972375"><ele>201.39999999999998</ele><time>2026-04-11T09:54:14.858Z</time></trkpt><trkpt lat="41.2218817" lon="13.972275"><ele>200.2</ele><time>2026-04-11T09:54:15.858Z</time></trkpt><trkpt lat="41.2218067" lon="13.9721717"><ele>199.0</ele><time>2026-04-11T09:54:16.859Z</time></trkpt><trkpt lat="41.22173" lon="13.9720617"><ele>199.0</ele><time>2026-04-11T09:54:17.859Z</time></trkpt><trkpt lat="41.2216533" lon="13.9719583"><ele>199.0</ele><time>2026-04-11T09:54:18.859Z</time></trkpt><trkpt lat="41.2215733" lon="13.9718617"><ele>199.0</ele><time>2026-04-11T09:54:19.86Z</time></trkpt><trkpt lat="41.221495" lon="13.9717667"><ele>199.0</ele><time>2026-04-11T09:54:20.859Z</time></trkpt><trkpt lat="41.2214133" lon="13.9716767"><ele>199.0</ele><time>2026-04-11T09:54:21.859Z</time></trkpt><trkpt lat="41.2213283" lon="13.9715933"><ele>196.6</ele><time>2026-04-11T09:54:22.859Z</time></trkpt><trkpt lat="41.2212383" lon="13.9715167"><ele>194.2</ele><time>2026-04-11T09:54:23.86Z</time></trkpt><trkpt lat="41.221145" lon="13.9714467"><ele>191.79999999999998</ele><time>2026-04-11T09:54:24.859Z</time></trkpt><trkpt lat="41.2210483" lon="13.97138"><ele>189.39999999999998</ele><time>2026-04-11T09:54:25.86Z</time></trkpt><trkpt lat="41.2209483" lon="13.9713167"><ele>187.0</ele><time>2026-04-11T09:54:26.86Z</time></trkpt><trkpt lat="41.2208533" lon="13.9712517"><ele>187.0</ele><time>2026-04-11T09:54:27.858Z</time></trkpt><trkpt lat="41.22076" lon="13.9711883"><ele>187.0</ele><time>2026-04-11T09:54:28.86Z</time></trkpt><trkpt lat="41.220665" lon="13.9711283"><ele>187.0</ele><time>2026-04-11T09:54:29.858Z</time></trkpt><trkpt lat="41.2205717" lon="13.9710683"><ele>187.0</ele><time>2026-04-11T09:54:30.858Z</time></trkpt><trkpt lat="41.2204767" lon="13.9710067"><ele>187.0</ele><time>2026-04-11T09:54:31.86Z</time></trkpt><trkpt lat="41.2203817" lon="13.9709417"><ele>186.0</ele><time>2026-04-11T09:54:32.859Z</time></trkpt><trkpt lat="41.22029" lon="13.9708767"><ele>185.0</ele><time>2026-04-11T09:54:33.859Z</time></trkpt><trkpt lat="41.2201983" lon="13.9708133"><ele>184.0</ele><time>2026-04-11T09:54:34.858Z</time></trkpt><trkpt lat="41.2201033" lon="13.9707517"><ele>183.0</ele><time>2026-04-11T09:54:35.86Z</time></trkpt><trkpt lat="41.22001" lon="13.97069"><ele>182.0</ele><time>2026-04-11T09:54:36.859Z</time></trkpt><trkpt lat="41.219915" lon="13.9706283"><ele>182.0</ele><time>2026-04-11T09:54:37.86Z</time></trkpt><trkpt lat="41.21982" lon="13.9705683"><ele>182.0</ele><time>2026-04-11T09:54:38.859Z</time></trkpt><trkpt lat="41.219725" lon="13.9705083"><ele>182.0</ele><time>2026-04-11T09:54:39.858Z</time></trkpt><trkpt lat="41.21963" lon="13.9704517"><ele>182.0</ele><time>2026-04-11T09:54:40.859Z</time></trkpt><trkpt lat="41.2195333" lon="13.9703967"><ele>182.0</ele><time>2026-04-11T09:54:41.859Z</time></trkpt><trkpt lat="41.2194367" lon="13.97035"><ele>180.2</ele><time>2026-04-11T09:54:42.859Z</time></trkpt><trkpt lat="41.2193367" lon="13.9703133"><ele>178.39999999999998</ele><time>2026-04-11T09:54:43.86Z</time></trkpt><trkpt lat="41.2192383" lon="13.97029"><ele>176.60000000000002</ele><time>2026-04-11T09:54:44.86Z</time></trkpt><trkpt lat="41.2191383" lon="13.970275"><ele>174.8</ele><time>2026-04-11T09:54:45.858Z</time></trkpt><trkpt lat="41.21904" lon="13.97025"><ele>173.0</ele><time>2026-04-11T09:54:46.86Z</time></trkpt><trkpt lat="41.2189483" lon="13.970205"><ele>173.0</ele><time>2026-04-11T09:54:47.86Z</time></trkpt><trkpt lat="41.2188667" lon="13.9701333"><ele>173.0</ele><time>2026-04-11T09:54:48.859Z</time></trkpt><trkpt lat="41.2188067" lon="13.9700367"><ele>173.0</ele><time>2026-04-11T09:54:49.86Z</time></trkpt><trkpt lat="41.21877" lon="13.96993"><ele>173.0</ele><time>2026-04-11T09:54:50.858Z</time></trkpt><trkpt lat="41.2187667" lon="13.9698267"><ele>173.0</ele><time>2026-04-11T09:54:51.858Z</time></trkpt><trkpt lat="41.2188033" lon="13.9697133"><ele>173.0</ele><time>2026-04-11T09:54:52.858Z</time></trkpt><trkpt lat="41.218845" lon="13.9696067"><ele>173.0</ele><time>2026-04-11T09:54:53.86Z</time></trkpt><trkpt lat="41.2188817" lon="13.9694983"><ele>173.0</ele><time>2026-04-11T09:54:54.86Z</time></trkpt><trkpt lat="41.2189067" lon="13.9693833"><ele>173.0</ele><time>2026-04-11T09:54:55.859Z</time></trkpt><trkpt lat="41.218915" lon="13.9692617"><ele>173.0</ele><time>2026-04-11T09:54:56.859Z</time></trkpt><trkpt lat="41.218905" lon="13.96914"><ele>173.8</ele><time>2026-04-11T09:54:57.857Z</time></trkpt><trkpt lat="41.218875" lon="13.9690267"><ele>174.60000000000002</ele><time>2026-04-11T09:54:58.858Z</time></trkpt><trkpt lat="41.218825" lon="13.9689217"><ele>175.39999999999998</ele><time>2026-04-11T09:54:59.86Z</time></trkpt><trkpt lat="41.2187617" lon="13.9688283"><ele>176.2</ele><time>2026-04-11T09:55:00.859Z</time></trkpt><trkpt lat="41.2186833" lon="13.96876"><ele>177.0</ele><time>2026-04-11T09:55:01.857Z</time></trkpt><trkpt lat="41.2185983" lon="13.9687117"><ele>177.0</ele><time>2026-04-11T09:55:02.86Z</time></trkpt><trkpt lat="41.2185067" lon="13.96868"><ele>177.0</ele><time>2026-04-11T09:55:03.858Z</time></trkpt><trkpt lat="41.21841" lon="13.9686683"><ele>177.0</ele><time>2026-04-11T09:55:04.859Z</time></trkpt><trkpt lat="41.2183133" lon="13.96867"><ele>177.0</ele><time>2026-04-11T09:55:05.86Z</time></trkpt><trkpt lat="41.218215" lon="13.9686917"><ele>177.0</ele><time>2026-04-11T09:55:06.858Z</time></trkpt><trkpt lat="41.2181167" lon="13.9687217"><ele>176.0</ele><time>2026-04-11T09:55:07.859Z</time></trkpt><trkpt lat="41.2180167" lon="13.968755"><ele>175.0</ele><time>2026-04-11T09:55:08.859Z</time></trkpt><trkpt lat="41.2179183" lon="13.968785"><ele>174.0</ele><time>2026-04-11T09:55:09.859Z</time></trkpt><trkpt lat="41.2178183" lon="13.9688083"><ele>173.0</ele><time>2026-04-11T09:55:10.86Z</time></trkpt><trkpt lat="41.2177183" lon="13.968835"><ele>172.0</ele><time>2026-04-11T09:55:11.859Z</time></trkpt><trkpt lat="41.2176167" lon="13.9688567"><ele>172.0</ele><time>2026-04-11T09:55:12.859Z</time></trkpt><trkpt lat="41.2175117" lon="13.96887"><ele>172.0</ele><time>2026-04-11T09:55:13.86Z</time></trkpt><trkpt lat="41.2174033" lon="13.9688717"><ele>172.0</ele><time>2026-04-11T09:55:14.86Z</time></trkpt><trkpt lat="41.217295" lon="13.968865"><ele>172.0</ele><time>2026-04-11T09:55:15.859Z</time></trkpt><trkpt lat="41.2171917" lon="13.9688633"><ele>172.0</ele><time>2026-04-11T09:55:16.857Z</time></trkpt><trkpt lat="41.2170817" lon="13.968875"><ele>171.6</ele><time>2026-04-11T09:55:17.859Z</time></trkpt><trkpt lat="41.2169783" lon="13.9688983"><ele>171.2</ele><time>2026-04-11T09:55:18.859Z</time></trkpt><trkpt lat="41.216875" lon="13.968945"><ele>170.8</ele><time>2026-04-11T09:55:19.859Z</time></trkpt><trkpt lat="41.2167733" lon="13.969"><ele>170.4</ele><time>2026-04-11T09:55:20.858Z</time></trkpt><trkpt lat="41.2166733" lon="13.9690483"><ele>170.0</ele><time>2026-04-11T09:55:21.859Z</time></trkpt><trkpt lat="41.2165683" lon="13.9690917"><ele>168.8</ele><time>2026-04-11T09:55:22.859Z</time></trkpt><trkpt lat="41.216465" lon="13.9691117"><ele>167.6</ele><time>2026-04-11T09:55:23.86Z</time></trkpt><trkpt lat="41.2163567" lon="13.96912"><ele>166.39999999999998</ele><time>2026-04-11T09:55:24.859Z</time></trkpt><trkpt lat="41.21625" lon="13.9691083"><ele>165.2</ele><time>2026-04-11T09:55:25.859Z</time></trkpt><trkpt lat="41.216145" lon="13.9690767"><ele>164.0</ele><time>2026-04-11T09:55:26.858Z</time></trkpt><trkpt lat="41.21605" lon="13.9690183"><ele>164.0</ele><time>2026-04-11T09:55:27.858Z</time></trkpt><trkpt lat="41.2159583" lon="13.9689483"><ele>164.0</ele><time>2026-04-11T09:55:28.859Z</time></trkpt><trkpt lat="41.2158733" lon="13.9688667"><ele>164.0</ele><time>2026-04-11T09:55:29.859Z</time></trkpt><trkpt lat="41.215805" lon="13.9687667"><ele>164.0</ele><time>2026-04-11T09:55:30.859Z</time></trkpt><trkpt lat="41.2157433" lon="13.9686583"><ele>164.0</ele><time>2026-04-11T09:55:31.86Z</time></trkpt><trkpt lat="41.2156833" lon="13.968545"><ele>163.0</ele><time>2026-04-11T09:55:32.859Z</time></trkpt><trkpt lat="41.2156217" lon="13.9684383"><ele>162.0</ele><time>2026-04-11T09:55:33.858Z</time></trkpt><trkpt lat="41.2155633" lon="13.96833"><ele>161.0</ele><time>2026-04-11T09:55:34.858Z</time></trkpt><trkpt lat="41.21551" lon="13.9682167"><ele>160.0</ele><time>2026-04-11T09:55:35.858Z</time></trkpt><trkpt lat="41.21545" lon="13.9681167"><ele>159.0</ele><time>2026-04-11T09:55:36.859Z</time></trkpt><trkpt lat="41.2153867" lon="13.9680117"><ele>159.0</ele><time>2026-04-11T09:55:37.859Z</time></trkpt><trkpt lat="41.215315" lon="13.9679167"><ele>159.0</ele><time>2026-04-11T09:55:38.859Z</time></trkpt><trkpt lat="41.215235" lon="13.9678267"><ele>159.0</ele><time>2026-04-11T09:55:39.86Z</time></trkpt><trkpt lat="41.2151483" lon="13.9677467"><ele>159.0</ele><time>2026-04-11T09:55:40.859Z</time></trkpt><trkpt lat="41.21506" lon="13.96767"><ele>159.0</ele><time>2026-04-11T09:55:41.858Z</time></trkpt><trkpt lat="41.21497" lon="13.9675917"><ele>159.0</ele><time>2026-04-11T09:55:42.86Z</time></trkpt><trkpt lat="41.214875" lon="13.967515"><ele>159.0</ele><time>2026-04-11T09:55:43.86Z</time></trkpt><trkpt lat="41.2147817" lon="13.9674367"><ele>159.0</ele><time>2026-04-11T09:55:44.859Z</time></trkpt><trkpt lat="41.214685" lon="13.96736"><ele>159.0</ele><time>2026-04-11T09:55:45.86Z</time></trkpt><trkpt lat="41.214585" lon="13.9672833"><ele>159.0</ele><time>2026-04-11T09:55:46.859Z</time></trkpt><trkpt lat="41.214485" lon="13.9672067"><ele>159.0</ele><time>2026-04-11T09:55:47.86Z</time></trkpt><trkpt lat="41.2143833" lon="13.9671317"><ele>159.0</ele><time>2026-04-11T09:55:48.86Z</time></trkpt><trkpt lat="41.2142833" lon="13.9670567"><ele>159.0</ele><time>2026-04-11T09:55:49.858Z</time></trkpt><trkpt lat="41.21419" lon="13.9669783"><ele>159.0</ele><time>2026-04-11T09:55:50.86Z</time></trkpt><trkpt lat="41.2140917" lon="13.966905"><ele>159.0</ele><time>2026-04-11T09:55:51.859Z</time></trkpt><trkpt lat="41.213995" lon="13.966835"><ele>159.0</ele><time>2026-04-11T09:55:52.859Z</time></trkpt><trkpt lat="41.2138983" lon="13.9667633"><ele>159.0</ele><time>2026-04-11T09:55:53.86Z</time></trkpt><trkpt lat="41.2138" lon="13.9667"><ele>159.0</ele><time>2026-04-11T09:55:54.86Z</time></trkpt><trkpt lat="41.213695" lon="13.9666517"><ele>159.0</ele><time>2026-04-11T09:55:55.86Z</time></trkpt><trkpt lat="41.2135867" lon="13.966625"><ele>159.0</ele><time>2026-04-11T09:55:56.86Z</time></trkpt><trkpt lat="41.2134783" lon="13.9666167"><ele>159.0</ele><time>2026-04-11T09:55:57.858Z</time></trkpt><trkpt lat="41.2133683" lon="13.9666233"><ele>159.0</ele><time>2026-04-11T09:55:58.86Z</time></trkpt><trkpt lat="41.21326" lon="13.9666533"><ele>159.0</ele><time>2026-04-11T09:55:59.86Z</time></trkpt><trkpt lat="41.2131567" lon="13.966705"><ele>158.6</ele><time>2026-04-11T09:56:00.858Z</time></trkpt><trkpt lat="41.21306" lon="13.9667783"><ele>158.2</ele><time>2026-04-11T09:56:01.86Z</time></trkpt><trkpt lat="41.2129733" lon="13.9668633"><ele>157.79999999999998</ele><time>2026-04-11T09:56:02.859Z</time></trkpt><trkpt lat="41.212895" lon="13.96697"><ele>157.4</ele><time>2026-04-11T09:56:03.859Z</time></trkpt><trkpt lat="41.212825" lon="13.9670867"><ele>157.0</ele><time>2026-04-11T09:56:04.86Z</time></trkpt><trkpt lat="41.212755" lon="13.9672083"><ele>157.0</ele><time>2026-04-11T09:56:05.86Z</time></trkpt><trkpt lat="41.21269" lon="13.9673267"><ele>157.0</ele><time>2026-04-11T09:56:06.859Z</time></trkpt><trkpt lat="41.2126233" lon="13.9674417"><ele>157.0</ele><time>2026-04-11T09:56:07.86Z</time></trkpt><trkpt lat="41.2125567" lon="13.967555"><ele>157.0</ele><time>2026-04-11T09:56:08.86Z</time></trkpt><trkpt lat="41.21248" lon="13.96766"><ele>157.0</ele><time>2026-04-11T09:56:09.858Z</time></trkpt><trkpt lat="41.2124017" lon="13.9677533"><ele>154.2</ele><time>2026-04-11T09:56:10.86Z</time></trkpt><trkpt lat="41.21231" lon="13.96782"><ele>151.39999999999998</ele><time>2026-04-11T09:56:11.86Z</time></trkpt><trkpt lat="41.2122133" lon="13.96786"><ele>148.60000000000002</ele><time>2026-04-11T09:56:12.858Z</time></trkpt><trkpt lat="41.21211" lon="13.9678717"><ele>145.8</ele><time>2026-04-11T09:56:13.859Z</time></trkpt><trkpt lat="41.2120133" lon="13.967865"><ele>143.0</ele><time>2026-04-11T09:56:14.859Z</time></trkpt><trkpt lat="41.211905" lon="13.967835"><ele>143.0</ele><time>2026-04-11T09:56:15.859Z</time></trkpt><trkpt lat="41.2118033" lon="13.9677967"><ele>143.0</ele><time>2026-04-11T09:56:16.86Z</time></trkpt><trkpt lat="41.2117" lon="13.9677483"><ele>143.0</ele><time>2026-04-11T09:56:17.86Z</time></trkpt><trkpt lat="41.2116017" lon="13.9676867"><ele>143.0</ele><time>2026-04-11T09:56:18.859Z</time></trkpt><trkpt lat="41.211515" lon="13.967615"><ele>143.0</ele><time>2026-04-11T09:56:19.86Z</time></trkpt><trkpt lat="41.211445" lon="13.9675317"><ele>141.8</ele><time>2026-04-11T09:56:20.86Z</time></trkpt><trkpt lat="41.2113783" lon="13.9674433"><ele>140.60000000000002</ele><time>2026-04-11T09:56:21.858Z</time></trkpt><trkpt lat="41.2113367" lon="13.96734"><ele>139.39999999999998</ele><time>2026-04-11T09:56:22.858Z</time></trkpt><trkpt lat="41.2113517" lon="13.9672133"><ele>138.2</ele><time>2026-04-11T09:56:23.857Z</time></trkpt><trkpt lat="41.211445" lon="13.96707"><ele>137.0</ele><time>2026-04-11T09:56:24.86Z</time></trkpt><trkpt lat="41.2115067" lon="13.9669583"><ele>139.6</ele><time>2026-04-11T09:56:25.859Z</time></trkpt><trkpt lat="41.2115467" lon="13.9668383"><ele>142.2</ele><time>2026-04-11T09:56:26.857Z</time></trkpt><trkpt lat="41.2115717" lon="13.96671"><ele>144.8</ele><time>2026-04-11T09:56:27.86Z</time></trkpt><trkpt lat="41.211575" lon="13.9665733"><ele>147.4</ele><time>2026-04-11T09:56:28.858Z</time></trkpt><trkpt lat="41.2115483" lon="13.9664467"><ele>150.0</ele><time>2026-04-11T09:56:29.86Z</time></trkpt><trkpt lat="41.2114917" lon="13.966345"><ele>148.4</ele><time>2026-04-11T09:56:30.858Z</time></trkpt><trkpt lat="41.2114267" lon="13.9662683"><ele>146.8</ele><time>2026-04-11T09:56:31.86Z</time></trkpt><trkpt lat="41.2113517" lon="13.96621"><ele>145.2</ele><time>2026-04-11T09:56:32.86Z</time></trkpt><trkpt lat="41.211265" lon="13.9661767"><ele>143.6</ele><time>2026-04-11T09:56:33.858Z</time></trkpt><trkpt lat="41.2111667" lon="13.9661583"><ele>142.0</ele><time>2026-04-11T09:56:34.858Z</time></trkpt><trkpt lat="41.2110533" lon="13.9661617"><ele>142.0</ele><time>2026-04-11T09:56:35.86Z</time></trkpt><trkpt lat="41.2109467" lon="13.96617"><ele>142.0</ele><time>2026-04-11T09:56:36.859Z</time></trkpt><trkpt lat="41.21084" lon="13.9661933"><ele>142.0</ele><time>2026-04-11T09:56:37.86Z</time></trkpt><trkpt lat="41.2107367" lon="13.96623"><ele>142.0</ele><time>2026-04-11T09:56:38.86Z</time></trkpt><trkpt lat="41.21063" lon="13.966285"><ele>142.0</ele><time>2026-04-11T09:56:39.858Z</time></trkpt><trkpt lat="41.210525" lon="13.9663417"><ele>142.6</ele><time>2026-04-11T09:56:40.859Z</time></trkpt><trkpt lat="41.21042" lon="13.9664133"><ele>143.2</ele><time>2026-04-11T09:56:41.86Z</time></trkpt><trkpt lat="41.21033" lon="13.9664967"><ele>143.8</ele><time>2026-04-11T09:56:42.858Z</time></trkpt><trkpt lat="41.2102517" lon="13.96659"><ele>144.4</ele><time>2026-04-11T09:56:43.859Z</time></trkpt><trkpt lat="41.21018" lon="13.9666883"><ele>145.0</ele><time>2026-04-11T09:56:44.859Z</time></trkpt><trkpt lat="41.2101217" lon="13.96678"><ele>145.16666666666669</ele><time>2026-04-11T09:56:45.86Z</time></trkpt><trkpt lat="41.2100667" lon="13.9668667"><ele>145.33333333333334</ele><time>2026-04-11T09:56:46.859Z</time></trkpt><trkpt lat="41.2100183" lon="13.9669583"><ele>145.5</ele><time>2026-04-11T09:56:47.86Z</time></trkpt><trkpt lat="41.20997" lon="13.967055"><ele>145.66666666666666</ele><time>2026-04-11T09:56:48.86Z</time></trkpt><trkpt lat="41.20992" lon="13.9671567"><ele>145.83333333333331</ele><time>2026-04-11T09:56:49.86Z</time></trkpt><trkpt lat="41.2098667" lon="13.9672567"><ele>146.0</ele><time>2026-04-11T09:56:50.858Z</time></trkpt><trkpt lat="41.2098067" lon="13.9673567"><ele>146.0</ele><time>2026-04-11T09:56:51.86Z</time></trkpt><trkpt lat="41.2097433" lon="13.9674467"><ele>146.0</ele><time>2026-04-11T09:56:52.86Z</time></trkpt><trkpt lat="41.2096783" lon="13.9675333"><ele>146.0</ele><time>2026-04-11T09:56:53.86Z</time></trkpt><trkpt lat="41.2096233" lon="13.9676117"><ele>146.0</ele><time>2026-04-11T09:56:54.859Z</time></trkpt><trkpt lat="41.2095433" lon="13.9676933"><ele>146.0</ele><time>2026-04-11T09:56:56.857Z</time></trkpt><trkpt lat="41.2094683" lon="13.9677283"><ele>146.0</ele><time>2026-04-11T09:56:59.859Z</time></trkpt><trkpt lat="41.2093917" lon="13.967795"><ele>145.2</ele><time>2026-04-11T09:57:02.859Z</time></trkpt><trkpt lat="41.2093067" lon="13.967855"><ele>144.39999999999998</ele><time>2026-04-11T09:57:04.859Z</time></trkpt><trkpt lat="41.209205" lon="13.9679183"><ele>143.6</ele><time>2026-04-11T09:57:06.86Z</time></trkpt><trkpt lat="41.2090933" lon="13.9679833"><ele>142.79999999999998</ele><time>2026-04-11T09:57:08.86Z</time></trkpt><trkpt lat="41.2090333" lon="13.9680267"><ele>142.0</ele><time>2026-04-11T09:57:09.859Z</time></trkpt><trkpt lat="41.2089733" lon="13.968075"><ele>142.0</ele><time>2026-04-11T09:57:10.859Z</time></trkpt><trkpt lat="41.208915" lon="13.9681317"><ele>142.0</ele><time>2026-04-11T09:57:11.86Z</time></trkpt><trkpt lat="41.2088567" lon="13.9682"><ele>142.0</ele><time>2026-04-11T09:57:12.859Z</time></trkpt><trkpt lat="41.2088017" lon="13.96828"><ele>142.0</ele><time>2026-04-11T09:57:13.859Z</time></trkpt><trkpt lat="41.2087533" lon="13.9683683"><ele>142.0</ele><time>2026-04-11T09:57:14.859Z</time></trkpt><trkpt lat="41.20871" lon="13.9684667"><ele>142.0</ele><time>2026-04-11T09:57:15.859Z</time></trkpt><trkpt lat="41.2086683" lon="13.96857"><ele>141.0</ele><time>2026-04-11T09:57:16.86Z</time></trkpt><trkpt lat="41.2086267" lon="13.9686767"><ele>140.0</ele><time>2026-04-11T09:57:17.86Z</time></trkpt><trkpt lat="41.2085867" lon="13.9687867"><ele>139.0</ele><time>2026-04-11T09:57:18.859Z</time></trkpt><trkpt lat="41.2085483" lon="13.968895"><ele>138.0</ele><time>2026-04-11T09:57:19.859Z</time></trkpt><trkpt lat="41.2085133" lon="13.9690083"><ele>137.0</ele><time>2026-04-11T09:57:20.859Z</time></trkpt><trkpt lat="41.2084767" lon="13.9691267"><ele>135.4</ele><time>2026-04-11T09:57:21.858Z</time></trkpt><trkpt lat="41.208435" lon="13.9692417"><ele>133.79999999999998</ele><time>2026-04-11T09:57:22.859Z</time></trkpt><trkpt lat="41.2083933" lon="13.9693583"><ele>132.2</ele><time>2026-04-11T09:57:23.859Z</time></trkpt><trkpt lat="41.2083417" lon="13.9694633"><ele>130.6</ele><time>2026-04-11T09:57:24.858Z</time></trkpt><trkpt lat="41.208285" lon="13.96957"><ele>129.0</ele><time>2026-04-11T09:57:25.858Z</time></trkpt><trkpt lat="41.208225" lon="13.9696717"><ele>129.0</ele><time>2026-04-11T09:57:26.86Z</time></trkpt><trkpt lat="41.20816" lon="13.9697683"><ele>129.0</ele><time>2026-04-11T09:57:27.858Z</time></trkpt><trkpt lat="41.2080917" lon="13.969865"><ele>129.0</ele><time>2026-04-11T09:57:28.858Z</time></trkpt><trkpt lat="41.2080183" lon="13.9699583"><ele>129.0</ele><time>2026-04-11T09:57:29.86Z</time></trkpt><trkpt lat="41.20794" lon="13.9700483"><ele>129.0</ele><time>2026-04-11T09:57:30.857Z</time></trkpt><trkpt lat="41.2078583" lon="13.97013"><ele>128.4</ele><time>2026-04-11T09:57:31.859Z</time></trkpt><trkpt lat="41.2077717" lon="13.9702033"><ele>127.80000000000001</ele><time>2026-04-11T09:57:32.86Z</time></trkpt><trkpt lat="41.2076783" lon="13.9702583"><ele>127.19999999999999</ele><time>2026-04-11T09:57:33.858Z</time></trkpt><trkpt lat="41.2075833" lon="13.9703167"><ele>126.6</ele><time>2026-04-11T09:57:34.86Z</time></trkpt><trkpt lat="41.207485" lon="13.9703667"><ele>126.0</ele><time>2026-04-11T09:57:35.86Z</time></trkpt><trkpt lat="41.207385" lon="13.9704167"><ele>126.0</ele><time>2026-04-11T09:57:36.86Z</time></trkpt><trkpt lat="41.2072867" lon="13.9704633"><ele>126.0</ele><time>2026-04-11T09:57:37.86Z</time></trkpt><trkpt lat="41.2071867" lon="13.970505"><ele>126.0</ele><time>2026-04-11T09:57:38.86Z</time></trkpt><trkpt lat="41.2070867" lon="13.97055"><ele>126.0</ele><time>2026-04-11T09:57:39.86Z</time></trkpt><trkpt lat="41.2069883" lon="13.9705917"><ele>126.0</ele><time>2026-04-11T09:57:40.859Z</time></trkpt><trkpt lat="41.2068867" lon="13.97064"><ele>126.0</ele><time>2026-04-11T09:57:41.86Z</time></trkpt><trkpt lat="41.2067867" lon="13.9706867"><ele>126.0</ele><time>2026-04-11T09:57:42.86Z</time></trkpt><trkpt lat="41.2066867" lon="13.9707333"><ele>126.0</ele><time>2026-04-11T09:57:43.859Z</time></trkpt><trkpt lat="41.206585" lon="13.970785"><ele>126.0</ele><time>2026-04-11T09:57:44.86Z</time></trkpt><trkpt lat="41.2064817" lon="13.9708367"><ele>126.0</ele><time>2026-04-11T09:57:45.858Z</time></trkpt><trkpt lat="41.20638" lon="13.97089"><ele>125.0</ele><time>2026-04-11T09:57:46.86Z</time></trkpt><trkpt lat="41.20628" lon="13.9709467"><ele>124.0</ele><time>2026-04-11T09:57:47.86Z</time></trkpt><trkpt lat="41.2061817" lon="13.970995"><ele>123.0</ele><time>2026-04-11T09:57:48.86Z</time></trkpt><trkpt lat="41.206085" lon="13.9710417"><ele>122.0</ele><time>2026-04-11T09:57:49.861Z</time></trkpt><trkpt lat="41.2059883" lon="13.97109"><ele>121.0</ele><time>2026-04-11T09:57:50.859Z</time></trkpt><trkpt lat="41.2058917" lon="13.9711383"><ele>121.0</ele><time>2026-04-11T09:57:51.86Z</time></trkpt><trkpt lat="41.2058" lon="13.971185"><ele>121.0</ele><time>2026-04-11T09:57:52.86Z</time></trkpt><trkpt lat="41.2057067" lon="13.9712283"><ele>121.0</ele><time>2026-04-11T09:57:53.859Z</time></trkpt><trkpt lat="41.2056133" lon="13.9712767"><ele>121.0</ele><time>2026-04-11T09:57:54.859Z</time></trkpt><trkpt lat="41.2055217" lon="13.9713233"><ele>121.0</ele><time>2026-04-11T09:57:55.86Z</time></trkpt><trkpt lat="41.2054283" lon="13.97137"><ele>120.8</ele><time>2026-04-11T09:57:56.859Z</time></trkpt><trkpt lat="41.205335" lon="13.9714217"><ele>120.6</ele><time>2026-04-11T09:57:57.858Z</time></trkpt><trkpt lat="41.2052433" lon="13.971465"><ele>120.4</ele><time>2026-04-11T09:57:58.859Z</time></trkpt><trkpt lat="41.20515" lon="13.97151"><ele>120.2</ele><time>2026-04-11T09:57:59.86Z</time></trkpt><trkpt lat="41.205055" lon="13.9715567"><ele>120.0</ele><time>2026-04-11T09:58:00.858Z</time></trkpt><trkpt lat="41.20496" lon="13.9716033"><ele>120.0</ele><time>2026-04-11T09:58:01.859Z</time></trkpt><trkpt lat="41.204865" lon="13.9716433"><ele>120.0</ele><time>2026-04-11T09:58:02.86Z</time></trkpt><trkpt lat="41.20477" lon="13.9716717"><ele>120.0</ele><time>2026-04-11T09:58:03.859Z</time></trkpt><trkpt lat="41.2046717" lon="13.971685"><ele>120.0</ele><time>2026-04-11T09:58:04.86Z</time></trkpt><trkpt lat="41.2045717" lon="13.9716933"><ele>120.0</ele><time>2026-04-11T09:58:05.859Z</time></trkpt><trkpt lat="41.2044717" lon="13.971685"><ele>119.4</ele><time>2026-04-11T09:58:06.859Z</time></trkpt><trkpt lat="41.20437" lon="13.9716667"><ele>118.8</ele><time>2026-04-11T09:58:07.86Z</time></trkpt><trkpt lat="41.204275" lon="13.9716333"><ele>118.19999999999999</ele><time>2026-04-11T09:58:08.861Z</time></trkpt><trkpt lat="41.2041767" lon="13.9715933"><ele>117.6</ele><time>2026-04-11T09:58:09.86Z</time></trkpt><trkpt lat="41.2040833" lon="13.9715467"><ele>117.0</ele><time>2026-04-11T09:58:10.86Z</time></trkpt><trkpt lat="41.2039917" lon="13.9714933"><ele>116.39999999999999</ele><time>2026-04-11T09:58:11.86Z</time></trkpt><trkpt lat="41.2038983" lon="13.9714383"><ele>115.79999999999998</ele><time>2026-04-11T09:58:12.859Z</time></trkpt><trkpt lat="41.2038017" lon="13.9713883"><ele>115.2</ele><time>2026-04-11T09:58:13.86Z</time></trkpt><trkpt lat="41.2037067" lon="13.971335"><ele>114.6</ele><time>2026-04-11T09:58:14.86Z</time></trkpt><trkpt lat="41.203615" lon="13.9712783"><ele>114.0</ele><time>2026-04-11T09:58:15.858Z</time></trkpt><trkpt lat="41.2035217" lon="13.971225"><ele>114.0</ele><time>2026-04-11T09:58:16.859Z</time></trkpt><trkpt lat="41.2034283" lon="13.9711717"><ele>114.0</ele><time>2026-04-11T09:58:17.859Z</time></trkpt><trkpt lat="41.2033367" lon="13.971115"><ele>114.0</ele><time>2026-04-11T09:58:18.86Z</time></trkpt><trkpt lat="41.203245" lon="13.97106"><ele>114.0</ele><time>2026-04-11T09:58:19.859Z</time></trkpt><trkpt lat="41.2031517" lon="13.971005"><ele>114.0</ele><time>2026-04-11T09:58:20.86Z</time></trkpt><trkpt lat="41.2030583" lon="13.97095"><ele>114.0</ele><time>2026-04-11T09:58:21.859Z</time></trkpt><trkpt lat="41.2029683" lon="13.9708933"><ele>114.0</ele><time>2026-04-11T09:58:22.859Z</time></trkpt><trkpt lat="41.2028767" lon="13.9708383"><ele>114.0</ele><time>2026-04-11T09:58:23.86Z</time></trkpt><trkpt lat="41.2027833" lon="13.9707883"><ele>114.0</ele><time>2026-04-11T09:58:24.86Z</time></trkpt><trkpt lat="41.20269" lon="13.9707383"><ele>114.0</ele><time>2026-04-11T09:58:25.86Z</time></trkpt><trkpt lat="41.2025933" lon="13.97069"><ele>114.0</ele><time>2026-04-11T09:58:26.86Z</time></trkpt><trkpt lat="41.2024967" lon="13.9706383"><ele>114.0</ele><time>2026-04-11T09:58:27.86Z</time></trkpt><trkpt lat="41.2024017" lon="13.9705883"><ele>114.0</ele><time>2026-04-11T09:58:28.86Z</time></trkpt><trkpt lat="41.20231" lon="13.97054"><ele>114.0</ele><time>2026-04-11T09:58:29.86Z</time></trkpt><trkpt lat="41.2022233" lon="13.9704983"><ele>114.0</ele><time>2026-04-11T09:58:30.86Z</time></trkpt><trkpt lat="41.20215" lon="13.9704617"><ele>113.71428571428571</ele><time>2026-04-11T09:58:31.86Z</time></trkpt><trkpt lat="41.2020867" lon="13.9704283"><ele>113.42857142857142</ele><time>2026-04-11T09:58:32.859Z</time></trkpt><trkpt lat="41.20202" lon="13.970395"><ele>113.14285714285714</ele><time>2026-04-11T09:58:33.858Z</time></trkpt><trkpt lat="41.2019567" lon="13.970355"><ele>112.85714285714286</ele><time>2026-04-11T09:58:34.859Z</time></trkpt><trkpt lat="41.2018883" lon="13.9703183"><ele>112.57142857142857</ele><time>2026-04-11T09:58:35.858Z</time></trkpt><trkpt lat="41.2018117" lon="13.97029"><ele>112.28571428571428</ele><time>2026-04-11T09:58:36.858Z</time></trkpt><trkpt lat="41.2017283" lon="13.9702733"><ele>112.0</ele><time>2026-04-11T09:58:37.86Z</time></trkpt><trkpt lat="41.201645" lon="13.970265"><ele>112.00000000000001</ele><time>2026-04-11T09:58:38.86Z</time></trkpt><trkpt lat="41.2015617" lon="13.97026"><ele>112.0</ele><time>2026-04-11T09:58:39.859Z</time></trkpt><trkpt lat="41.201485" lon="13.97026"><ele>112.0</ele><time>2026-04-11T09:58:40.86Z</time></trkpt><trkpt lat="41.201415" lon="13.9702667"><ele>112.0</ele><time>2026-04-11T09:58:41.86Z</time></trkpt><trkpt lat="41.2013467" lon="13.97027"><ele>112.00000000000001</ele><time>2026-04-11T09:58:42.86Z</time></trkpt><trkpt lat="41.20128" lon="13.9702833"><ele>112.0</ele><time>2026-04-11T09:58:43.86Z</time></trkpt><trkpt lat="41.201165" lon="13.97031"><ele>111.50000000000001</ele><time>2026-04-11T09:58:45.858Z</time></trkpt><trkpt lat="41.20105" lon="13.970265"><ele>111.0</ele><time>2026-04-11T09:58:47.859Z</time></trkpt><trkpt lat="41.2010033" lon="13.9702083"><ele>110.5</ele><time>2026-04-11T09:58:48.86Z</time></trkpt><trkpt lat="41.2009583" lon="13.9701417"><ele>110.0</ele><time>2026-04-11T09:58:49.86Z</time></trkpt><trkpt lat="41.2009167" lon="13.970065"><ele>109.50000000000001</ele><time>2026-04-11T09:58:50.86Z</time></trkpt><trkpt lat="41.200875" lon="13.9699883"><ele>109.0</ele><time>2026-04-11T09:58:51.859Z</time></trkpt><trkpt lat="41.2008267" lon="13.9699133"><ele>109.00000000000001</ele><time>2026-04-11T09:58:52.86Z</time></trkpt><trkpt lat="41.2007817" lon="13.9698317"><ele>109.0</ele><time>2026-04-11T09:58:53.86Z</time></trkpt><trkpt lat="41.2007383" lon="13.9697467"><ele>109.0</ele><time>2026-04-11T09:58:54.859Z</time></trkpt><trkpt lat="41.200695" lon="13.969665"><ele>109.0</ele><time>2026-04-11T09:58:55.86Z</time></trkpt><trkpt lat="41.2006467" lon="13.9695833"><ele>109.00000000000001</ele><time>2026-04-11T09:58:56.858Z</time></trkpt><trkpt lat="41.2005967" lon="13.969505"><ele>109.0</ele><time>2026-04-11T09:58:57.859Z</time></trkpt><trkpt lat="41.20055" lon="13.96942"><ele>108.66666666666667</ele><time>2026-04-11T09:58:58.859Z</time></trkpt><trkpt lat="41.2004983" lon="13.969335"><ele>108.33333333333334</ele><time>2026-04-11T09:58:59.86Z</time></trkpt><trkpt lat="41.2004517" lon="13.9692483"><ele>108.0</ele><time>2026-04-11T09:59:00.859Z</time></trkpt><trkpt lat="41.200395" lon="13.969165"><ele>107.66666666666666</ele><time>2026-04-11T09:59:01.859Z</time></trkpt><trkpt lat="41.20034" lon="13.9690817"><ele>107.33333333333333</ele><time>2026-04-11T09:59:02.86Z</time></trkpt><trkpt lat="41.20029" lon="13.96899"><ele>107.0</ele><time>2026-04-11T09:59:03.86Z</time></trkpt><trkpt lat="41.20024" lon="13.9689017"><ele>106.66666666666666</ele><time>2026-04-11T09:59:04.861Z</time></trkpt><trkpt lat="41.2001917" lon="13.9688117"><ele>106.33333333333333</ele><time>2026-04-11T09:59:05.858Z</time></trkpt><trkpt lat="41.2001383" lon="13.9687233"><ele>106.0</ele><time>2026-04-11T09:59:06.86Z</time></trkpt><trkpt lat="41.2000867" lon="13.968635"><ele>105.66666666666666</ele><time>2026-04-11T09:59:07.859Z</time></trkpt><trkpt lat="41.2000383" lon="13.9685417"><ele>105.33333333333333</ele><time>2026-04-11T09:59:08.86Z</time></trkpt><trkpt lat="41.1999883" lon="13.9684517"><ele>105.0</ele><time>2026-04-11T09:59:09.858Z</time></trkpt><trkpt lat="41.1999367" lon="13.9683583"><ele>105.0</ele><time>2026-04-11T09:59:10.86Z</time></trkpt><trkpt lat="41.1998883" lon="13.96826"><ele>105.0</ele><time>2026-04-11T09:59:11.86Z</time></trkpt><trkpt lat="41.1998383" lon="13.968165"><ele>105.0</ele><time>2026-04-11T09:59:12.859Z</time></trkpt><trkpt lat="41.1997867" lon="13.9680733"><ele>105.0</ele><time>2026-04-11T09:59:13.86Z</time></trkpt><trkpt lat="41.1997317" lon="13.96798"><ele>105.0</ele><time>2026-04-11T09:59:14.859Z</time></trkpt><trkpt lat="41.1996783" lon="13.9678883"><ele>105.0</ele><time>2026-04-11T09:59:15.858Z</time></trkpt><trkpt lat="41.1996283" lon="13.9678033"><ele>104.66666666666667</ele><time>2026-04-11T09:59:16.86Z</time></trkpt><trkpt lat="41.1995767" lon="13.9677283"><ele>104.33333333333334</ele><time>2026-04-11T09:59:17.861Z</time></trkpt><trkpt lat="41.1995267" lon="13.967655"><ele>104.0</ele><time>2026-04-11T09:59:18.86Z</time></trkpt><trkpt lat="41.199475" lon="13.9675817"><ele>103.66666666666667</ele><time>2026-04-11T09:59:19.86Z</time></trkpt><trkpt lat="41.1994217" lon="13.9675067"><ele>103.33333333333334</ele><time>2026-04-11T09:59:20.859Z</time></trkpt><trkpt lat="41.199375" lon="13.9674267"><ele>103.0</ele><time>2026-04-11T09:59:21.858Z</time></trkpt><trkpt lat="41.1993267" lon="13.9673433"><ele>103.00000000000001</ele><time>2026-04-11T09:59:22.859Z</time></trkpt><trkpt lat="41.1992717" lon="13.9672617"><ele>103.0</ele><time>2026-04-11T09:59:23.859Z</time></trkpt><trkpt lat="41.1992167" lon="13.9671783"><ele>103.0</ele><time>2026-04-11T09:59:24.862Z</time></trkpt><trkpt lat="41.1991683" lon="13.96709"><ele>103.0</ele><time>2026-04-11T09:59:25.86Z</time></trkpt><trkpt lat="41.1991183" lon="13.9669967"><ele>103.00000000000001</ele><time>2026-04-11T09:59:26.86Z</time></trkpt><trkpt lat="41.1990683" lon="13.9669033"><ele>103.0</ele><time>2026-04-11T09:59:27.859Z</time></trkpt><trkpt lat="41.19902" lon="13.9668083"><ele>102.33333333333334</ele><time>2026-04-11T09:59:28.859Z</time></trkpt><trkpt lat="41.1989617" lon="13.9667233"><ele>101.66666666666667</ele><time>2026-04-11T09:59:29.86Z</time></trkpt><trkpt lat="41.1989017" lon="13.9666383"><ele>101.0</ele><time>2026-04-11T09:59:30.858Z</time></trkpt><trkpt lat="41.1988433" lon="13.96655"><ele>100.33333333333334</ele><time>2026-04-11T09:59:31.86Z</time></trkpt><trkpt lat="41.1987883" lon="13.9664617"><ele>99.66666666666667</ele><time>2026-04-11T09:59:32.858Z</time></trkpt><trkpt lat="41.1987317" lon="13.9663733"><ele>99.0</ele><time>2026-04-11T09:59:33.857Z</time></trkpt><trkpt lat="41.1986767" lon="13.96628"><ele>99.0</ele><time>2026-04-11T09:59:34.86Z</time></trkpt><trkpt lat="41.198625" lon="13.9661883"><ele>99.0</ele><time>2026-04-11T09:59:35.862Z</time></trkpt><trkpt lat="41.1985733" lon="13.9660967"><ele>99.0</ele><time>2026-04-11T09:59:36.858Z</time></trkpt><trkpt lat="41.1985217" lon="13.9660067"><ele>99.0</ele><time>2026-04-11T09:59:37.86Z</time></trkpt><trkpt lat="41.1984717" lon="13.96592"><ele>99.0</ele><time>2026-04-11T09:59:38.858Z</time></trkpt><trkpt lat="41.1984217" lon="13.9658333"><ele>99.0</ele><time>2026-04-11T09:59:39.858Z</time></trkpt><trkpt lat="41.1983733" lon="13.965745"><ele>99.5</ele><time>2026-04-11T09:59:40.86Z</time></trkpt><trkpt lat="41.198325" lon="13.96566"><ele>100.0</ele><time>2026-04-11T09:59:41.86Z</time></trkpt><trkpt lat="41.1982767" lon="13.9655767"><ele>100.5</ele><time>2026-04-11T09:59:42.858Z</time></trkpt><trkpt lat="41.19824" lon="13.96549"><ele>101.0</ele><time>2026-04-11T09:59:43.86Z</time></trkpt><trkpt lat="41.1981933" lon="13.9654083"><ele>101.5</ele><time>2026-04-11T09:59:44.859Z</time></trkpt><trkpt lat="41.1981483" lon="13.9653283"><ele>102.0</ele><time>2026-04-11T09:59:45.859Z</time></trkpt><trkpt lat="41.198105" lon="13.9652567"><ele>102.0</ele><time>2026-04-11T09:59:46.86Z</time></trkpt><trkpt lat="41.1980633" lon="13.9651867"><ele>102.0</ele><time>2026-04-11T09:59:47.859Z</time></trkpt><trkpt lat="41.19802" lon="13.9651133"><ele>102.0</ele><time>2026-04-11T09:59:48.86Z</time></trkpt><trkpt lat="41.197975" lon="13.9650383"><ele>102.0</ele><time>2026-04-11T09:59:49.86Z</time></trkpt><trkpt lat="41.1979317" lon="13.9649633"><ele>102.0</ele><time>2026-04-11T09:59:50.86Z</time></trkpt><trkpt lat="41.197895" lon="13.964885"><ele>102.0</ele><time>2026-04-11T09:59:51.859Z</time></trkpt><trkpt lat="41.1978533" lon="13.9648133"><ele>102.0</ele><time>2026-04-11T09:59:52.858Z</time></trkpt><trkpt lat="41.1978133" lon="13.964745"><ele>102.6</ele><time>2026-04-11T09:59:53.859Z</time></trkpt><trkpt lat="41.1977683" lon="13.9646833"><ele>103.19999999999999</ele><time>2026-04-11T09:59:54.858Z</time></trkpt><trkpt lat="41.1977217" lon="13.9646267"><ele>103.8</ele><time>2026-04-11T09:59:55.857Z</time></trkpt><trkpt lat="41.1976483" lon="13.964505"><ele>104.4</ele><time>2026-04-11T09:59:57.859Z</time></trkpt><trkpt lat="41.1975933" lon="13.9643683"><ele>105.0</ele><time>2026-04-11T09:59:59.859Z</time></trkpt><trkpt lat="41.1975667" lon="13.9642117"><ele>105.14285714285714</ele><time>2026-04-11T10:00:01.858Z</time></trkpt><trkpt lat="41.1975483" lon="13.9641283"><ele>105.28571428571428</ele><time>2026-04-11T10:00:02.859Z</time></trkpt><trkpt lat="41.1975317" lon="13.96404"><ele>105.42857142857143</ele><time>2026-04-11T10:00:03.858Z</time></trkpt><trkpt lat="41.1975117" lon="13.9639483"><ele>105.57142857142857</ele><time>2026-04-11T10:00:04.859Z</time></trkpt><trkpt lat="41.1974983" lon="13.9638517"><ele>105.71428571428571</ele><time>2026-04-11T10:00:05.859Z</time></trkpt><trkpt lat="41.1974867" lon="13.9637583"><ele>105.85714285714286</ele><time>2026-04-11T10:00:06.859Z</time></trkpt><trkpt lat="41.1974683" lon="13.9636633"><ele>106.0</ele><time>2026-04-11T10:00:07.859Z</time></trkpt><trkpt lat="41.1974333" lon="13.9635683"><ele>106.00000000000001</ele><time>2026-04-11T10:00:08.858Z</time></trkpt><trkpt lat="41.1974117" lon="13.9634633"><ele>106.0</ele><time>2026-04-11T10:00:09.859Z</time></trkpt><trkpt lat="41.19738" lon="13.963365"><ele>106.0</ele><time>2026-04-11T10:00:10.86Z</time></trkpt><trkpt lat="41.1973267" lon="13.9632817"><ele>106.0</ele><time>2026-04-11T10:00:11.859Z</time></trkpt><trkpt lat="41.1972517" lon="13.9632167"><ele>106.00000000000001</ele><time>2026-04-11T10:00:12.858Z</time></trkpt><trkpt lat="41.1971783" lon="13.9631667"><ele>106.0</ele><time>2026-04-11T10:00:13.86Z</time></trkpt><trkpt lat="41.1971" lon="13.963125"><ele>104.4</ele><time>2026-04-11T10:00:14.86Z</time></trkpt><trkpt lat="41.1970217" lon="13.963095"><ele>102.8</ele><time>2026-04-11T10:00:15.859Z</time></trkpt><trkpt lat="41.1969333" lon="13.9630767"><ele>101.2</ele><time>2026-04-11T10:00:16.858Z</time></trkpt><trkpt lat="41.196825" lon="13.9630533"><ele>99.60000000000001</ele><time>2026-04-11T10:00:17.86Z</time></trkpt><trkpt lat="41.1967133" lon="13.9630517"><ele>98.0</ele><time>2026-04-11T10:00:18.859Z</time></trkpt><trkpt lat="41.1966" lon="13.9630483"><ele>97.80000000000001</ele><time>2026-04-11T10:00:19.858Z</time></trkpt><trkpt lat="41.19649" lon="13.9630417"><ele>97.6</ele><time>2026-04-11T10:00:20.858Z</time></trkpt><trkpt lat="41.1963917" lon="13.96304"><ele>97.4</ele><time>2026-04-11T10:00:21.858Z</time></trkpt><trkpt lat="41.1962967" lon="13.963035"><ele>97.19999999999999</ele><time>2026-04-11T10:00:22.859Z</time></trkpt><trkpt lat="41.1962067" lon="13.9630233"><ele>97.0</ele><time>2026-04-11T10:00:23.86Z</time></trkpt><trkpt lat="41.1961183" lon="13.9630133"><ele>97.00000000000001</ele><time>2026-04-11T10:00:24.86Z</time></trkpt><trkpt lat="41.19603" lon="13.9630017"><ele>97.0</ele><time>2026-04-11T10:00:25.859Z</time></trkpt><trkpt lat="41.195945" lon="13.9629933"><ele>97.0</ele><time>2026-04-11T10:00:26.86Z</time></trkpt><trkpt lat="41.1958617" lon="13.96299"><ele>97.0</ele><time>2026-04-11T10:00:27.858Z</time></trkpt><trkpt lat="41.1957817" lon="13.9629833"><ele>97.00000000000001</ele><time>2026-04-11T10:00:28.86Z</time></trkpt><trkpt lat="41.1957017" lon="13.9629717"><ele>97.0</ele><time>2026-04-11T10:00:29.859Z</time></trkpt><trkpt lat="41.1956217" lon="13.9629683"><ele>97.71428571428571</ele><time>2026-04-11T10:00:30.859Z</time></trkpt><trkpt lat="41.1955433" lon="13.9629533"><ele>98.42857142857143</ele><time>2026-04-11T10:00:31.86Z</time></trkpt><trkpt lat="41.1954667" lon="13.9629467"><ele>99.14285714285714</ele><time>2026-04-11T10:00:32.859Z</time></trkpt><trkpt lat="41.1953933" lon="13.9629367"><ele>99.85714285714286</ele><time>2026-04-11T10:00:33.859Z</time></trkpt><trkpt lat="41.1953283" lon="13.9629167"><ele>100.57142857142858</ele><time>2026-04-11T10:00:34.86Z</time></trkpt><trkpt lat="41.1952617" lon="13.9629"><ele>101.28571428571429</ele><time>2026-04-11T10:00:35.86Z</time></trkpt><trkpt lat="41.195195" lon="13.962885"><ele>102.0</ele><time>2026-04-11T10:00:36.859Z</time></trkpt><trkpt lat="41.1950733" lon="13.9628767"><ele>102.0</ele><time>2026-04-11T10:00:38.86Z</time></trkpt><trkpt lat="41.1949717" lon="13.962875"><ele>102.0</ele><time>2026-04-11T10:00:40.86Z</time></trkpt><trkpt lat="41.1949033" lon="13.9628883"><ele>102.0</ele><time>2026-04-11T10:00:42.86Z</time></trkpt><trkpt lat="41.19484" lon="13.96293"><ele>102.0</ele><time>2026-04-11T10:01:00.858Z</time></trkpt><trkpt lat="41.1947633" lon="13.9629617"><ele>102.0</ele><time>2026-04-11T10:01:06.859Z</time></trkpt><trkpt lat="41.194675" lon="13.96299"><ele>102.0</ele><time>2026-04-11T10:01:09.858Z</time></trkpt><trkpt lat="41.1946" lon="13.9630133"><ele>102.39999999999999</ele><time>2026-04-11T10:01:11.86Z</time></trkpt><trkpt lat="41.194495" lon="13.9630233"><ele>102.8</ele><time>2026-04-11T10:01:13.86Z</time></trkpt><trkpt lat="41.19439" lon="13.9630433"><ele>103.2</ele><time>2026-04-11T10:01:15.859Z</time></trkpt><trkpt lat="41.1942833" lon="13.963065"><ele>103.6</ele><time>2026-04-11T10:01:17.86Z</time></trkpt><trkpt lat="41.1941817" lon="13.9630817"><ele>104.0</ele><time>2026-04-11T10:01:19.859Z</time></trkpt><trkpt lat="41.1940667" lon="13.9631033"><ele>104.4</ele><time>2026-04-11T10:01:21.86Z</time></trkpt><trkpt lat="41.1939617" lon="13.963125"><ele>104.80000000000001</ele><time>2026-04-11T10:01:23.86Z</time></trkpt><trkpt lat="41.1938533" lon="13.9631483"><ele>105.19999999999999</ele><time>2026-04-11T10:01:25.858Z</time></trkpt><trkpt lat="41.1937433" lon="13.9631717"><ele>105.6</ele><time>2026-04-11T10:01:27.859Z</time></trkpt><trkpt lat="41.1936367" lon="13.9631783"><ele>106.0</ele><time>2026-04-11T10:01:29.86Z</time></trkpt><trkpt lat="41.1935467" lon="13.9631867"><ele>106.0</ele><time>2026-04-11T10:01:31.859Z</time></trkpt><trkpt lat="41.1934467" lon="13.9631933"><ele>106.0</ele><time>2026-04-11T10:01:33.859Z</time></trkpt><trkpt lat="41.1933333" lon="13.9631917"><ele>106.0</ele><time>2026-04-11T10:01:35.86Z</time></trkpt><trkpt lat="41.1932167" lon="13.9631933"><ele>106.0</ele><time>2026-04-11T10:01:37.86Z</time></trkpt><trkpt lat="41.19315" lon="13.9631933"><ele>106.0</ele><time>2026-04-11T10:01:38.86Z</time></trkpt><trkpt lat="41.1930267" lon="13.9631983"><ele>105.42857142857143</ele><time>2026-04-11T10:01:40.86Z</time></trkpt><trkpt lat="41.1929633" lon="13.9631983"><ele>104.85714285714285</ele><time>2026-04-11T10:01:41.86Z</time></trkpt><trkpt lat="41.1928917" lon="13.9631933"><ele>104.28571428571428</ele><time>2026-04-11T10:01:42.86Z</time></trkpt><trkpt lat="41.1928183" lon="13.9631967"><ele>103.71428571428572</ele><time>2026-04-11T10:01:43.861Z</time></trkpt><trkpt lat="41.1927417" lon="13.9632"><ele>103.14285714285714</ele><time>2026-04-11T10:01:44.859Z</time></trkpt><trkpt lat="41.1926633" lon="13.96321"><ele>102.57142857142857</ele><time>2026-04-11T10:01:45.86Z</time></trkpt><trkpt lat="41.1925867" lon="13.9632167"><ele>102.0</ele><time>2026-04-11T10:01:46.86Z</time></trkpt><trkpt lat="41.1925017" lon="13.963225"><ele>102.0</ele><time>2026-04-11T10:01:47.859Z</time></trkpt><trkpt lat="41.19241" lon="13.963235"><ele>102.0</ele><time>2026-04-11T10:01:48.859Z</time></trkpt><trkpt lat="41.1923233" lon="13.96324"><ele>102.0</ele><time>2026-04-11T10:01:49.859Z</time></trkpt><trkpt lat="41.1922267" lon="13.9632533"><ele>102.0</ele><time>2026-04-11T10:01:50.86Z</time></trkpt><trkpt lat="41.19213" lon="13.96326"><ele>102.0</ele><time>2026-04-11T10:01:51.857Z</time></trkpt><trkpt lat="41.1920367" lon="13.9632667"><ele>101.0</ele><time>2026-04-11T10:01:52.858Z</time></trkpt><trkpt lat="41.19194" lon="13.9632733"><ele>100.0</ele><time>2026-04-11T10:01:53.859Z</time></trkpt><trkpt lat="41.1918467" lon="13.9632817"><ele>99.0</ele><time>2026-04-11T10:01:54.859Z</time></trkpt><trkpt lat="41.1917467" lon="13.9632883"><ele>98.0</ele><time>2026-04-11T10:01:55.861Z</time></trkpt><trkpt lat="41.191645" lon="13.9632917"><ele>97.0</ele><time>2026-04-11T10:01:56.859Z</time></trkpt><trkpt lat="41.1915433" lon="13.9633033"><ele>96.6</ele><time>2026-04-11T10:01:57.858Z</time></trkpt><trkpt lat="41.1914417" lon="13.96331"><ele>96.19999999999999</ele><time>2026-04-11T10:01:58.859Z</time></trkpt><trkpt lat="41.1913417" lon="13.9633167"><ele>95.8</ele><time>2026-04-11T10:01:59.86Z</time></trkpt><trkpt lat="41.191245" lon="13.9633233"><ele>95.4</ele><time>2026-04-11T10:02:00.86Z</time></trkpt><trkpt lat="41.191145" lon="13.9633283"><ele>95.0</ele><time>2026-04-11T10:02:01.858Z</time></trkpt><trkpt lat="41.1910467" lon="13.96333"><ele>95.0</ele><time>2026-04-11T10:02:02.859Z</time></trkpt><trkpt lat="41.1909483" lon="13.9633267"><ele>95.0</ele><time>2026-04-11T10:02:03.86Z</time></trkpt><trkpt lat="41.1908483" lon="13.9633317"><ele>95.0</ele><time>2026-04-11T10:02:04.858Z</time></trkpt><trkpt lat="41.19075" lon="13.9633333"><ele>95.0</ele><time>2026-04-11T10:02:05.859Z</time></trkpt><trkpt lat="41.1906517" lon="13.9633367"><ele>95.0</ele><time>2026-04-11T10:02:06.859Z</time></trkpt><trkpt lat="41.1905567" lon="13.9633433"><ele>94.6</ele><time>2026-04-11T10:02:07.858Z</time></trkpt><trkpt lat="41.1904683" lon="13.96335"><ele>94.2</ele><time>2026-04-11T10:02:08.859Z</time></trkpt><trkpt lat="41.1903733" lon="13.9633633"><ele>93.80000000000001</ele><time>2026-04-11T10:02:09.858Z</time></trkpt><trkpt lat="41.1902833" lon="13.9633717"><ele>93.4</ele><time>2026-04-11T10:02:10.86Z</time></trkpt><trkpt lat="41.190195" lon="13.96338"><ele>93.0</ele><time>2026-04-11T10:02:11.86Z</time></trkpt><trkpt lat="41.1901083" lon="13.9633883"><ele>92.5</ele><time>2026-04-11T10:02:12.858Z</time></trkpt><trkpt lat="41.1900267" lon="13.9633917"><ele>92.0</ele><time>2026-04-11T10:02:13.86Z</time></trkpt><trkpt lat="41.1899417" lon="13.9634"><ele>91.5</ele><time>2026-04-11T10:02:14.859Z</time></trkpt><trkpt lat="41.18986" lon="13.9634033"><ele>91.0</ele><time>2026-04-11T10:02:15.857Z</time></trkpt><trkpt lat="41.1897667" lon="13.9634117"><ele>90.5</ele><time>2026-04-11T10:02:16.857Z</time></trkpt><trkpt lat="41.18968" lon="13.9634167"><ele>90.0</ele><time>2026-04-11T10:02:17.858Z</time></trkpt><trkpt lat="41.1895917" lon="13.9634183"><ele>89.83333333333333</ele><time>2026-04-11T10:02:18.858Z</time></trkpt><trkpt lat="41.1895067" lon="13.9634217"><ele>89.66666666666667</ele><time>2026-04-11T10:02:19.86Z</time></trkpt><trkpt lat="41.1894217" lon="13.9634267"><ele>89.5</ele><time>2026-04-11T10:02:20.86Z</time></trkpt><trkpt lat="41.189335" lon="13.9634283"><ele>89.33333333333334</ele><time>2026-04-11T10:02:21.858Z</time></trkpt><trkpt lat="41.189245" lon="13.96343"><ele>89.16666666666667</ele><time>2026-04-11T10:02:22.859Z</time></trkpt><trkpt lat="41.1891583" lon="13.9634317"><ele>89.0</ele><time>2026-04-11T10:02:23.859Z</time></trkpt><trkpt lat="41.1890667" lon="13.9634383"><ele>88.66666666666667</ele><time>2026-04-11T10:02:24.858Z</time></trkpt><trkpt lat="41.188975" lon="13.963455"><ele>88.33333333333334</ele><time>2026-04-11T10:02:25.859Z</time></trkpt><trkpt lat="41.1888883" lon="13.963475"><ele>88.0</ele><time>2026-04-11T10:02:26.858Z</time></trkpt><trkpt lat="41.1888017" lon="13.96349"><ele>87.66666666666667</ele><time>2026-04-11T10:02:27.858Z</time></trkpt><trkpt lat="41.18871" lon="13.9634967"><ele>87.33333333333333</ele><time>2026-04-11T10:02:28.86Z</time></trkpt><trkpt lat="41.1886233" lon="13.963505"><ele>87.0</ele><time>2026-04-11T10:02:29.86Z</time></trkpt><trkpt lat="41.18854" lon="13.9635133"><ele>87.0</ele><time>2026-04-11T10:02:30.858Z</time></trkpt><trkpt lat="41.18846" lon="13.9635217"><ele>87.0</ele><time>2026-04-11T10:02:31.859Z</time></trkpt><trkpt lat="41.1883783" lon="13.963525"><ele>87.0</ele><time>2026-04-11T10:02:32.86Z</time></trkpt><trkpt lat="41.1883" lon="13.9635317"><ele>87.0</ele><time>2026-04-11T10:02:33.858Z</time></trkpt><trkpt lat="41.18822" lon="13.9635367"><ele>87.0</ele><time>2026-04-11T10:02:34.859Z</time></trkpt><trkpt lat="41.188145" lon="13.9635433"><ele>87.0</ele><time>2026-04-11T10:02:35.859Z</time></trkpt><trkpt lat="41.1880733" lon="13.9635483"><ele>86.85714285714286</ele><time>2026-04-11T10:02:36.86Z</time></trkpt><trkpt lat="41.1879967" lon="13.9635533"><ele>86.71428571428572</ele><time>2026-04-11T10:02:37.86Z</time></trkpt><trkpt lat="41.18792" lon="13.963555"><ele>86.57142857142858</ele><time>2026-04-11T10:02:38.86Z</time></trkpt><trkpt lat="41.1878483" lon="13.963555"><ele>86.42857142857143</ele><time>2026-04-11T10:02:39.86Z</time></trkpt><trkpt lat="41.1877783" lon="13.96356"><ele>86.28571428571429</ele><time>2026-04-11T10:02:40.86Z</time></trkpt><trkpt lat="41.18771" lon="13.9635633"><ele>86.14285714285715</ele><time>2026-04-11T10:02:41.86Z</time></trkpt><trkpt lat="41.187645" lon="13.9635667"><ele>86.0</ele><time>2026-04-11T10:02:42.859Z</time></trkpt><trkpt lat="41.1875217" lon="13.9635617"><ele>86.0</ele><time>2026-04-11T10:02:44.857Z</time></trkpt><trkpt lat="41.1873983" lon="13.963575"><ele>86.0</ele><time>2026-04-11T10:02:46.858Z</time></trkpt><trkpt lat="41.1872967" lon="13.9635967"><ele>86.0</ele><time>2026-04-11T10:02:48.86Z</time></trkpt><trkpt lat="41.18723" lon="13.9636467"><ele>86.0</ele><time>2026-04-11T10:02:50.857Z</time></trkpt><trkpt lat="41.1871533" lon="13.963695"><ele>86.0</ele><time>2026-04-11T10:02:53.859Z</time></trkpt><trkpt lat="41.187085" lon="13.9637"><ele>85.85714285714286</ele><time>2026-04-11T10:02:55.86Z</time></trkpt><trkpt lat="41.18702" lon="13.96371"><ele>85.71428571428572</ele><time>2026-04-11T10:02:57.859Z</time></trkpt><trkpt lat="41.1869533" lon="13.9637083"><ele>85.57142857142858</ele><time>2026-04-11T10:03:00.858Z</time></trkpt><trkpt lat="41.186885" lon="13.9636767"><ele>85.42857142857143</ele><time>2026-04-11T10:03:03.857Z</time></trkpt><trkpt lat="41.1867967" lon="13.9636867"><ele>85.28571428571428</ele><time>2026-04-11T10:03:06.859Z</time></trkpt><trkpt lat="41.1867333" lon="13.9637083"><ele>85.14285714285715</ele><time>2026-04-11T10:03:08.859Z</time></trkpt><trkpt lat="41.1866633" lon="13.96369"><ele>85.0</ele><time>2026-04-11T10:03:10.859Z</time></trkpt><trkpt lat="41.1865783" lon="13.963675"><ele>84.8</ele><time>2026-04-11T10:03:12.857Z</time></trkpt><trkpt lat="41.1864767" lon="13.9636683"><ele>84.6</ele><time>2026-04-11T10:03:14.859Z</time></trkpt><trkpt lat="41.1863667" lon="13.96368"><ele>84.4</ele><time>2026-04-11T10:03:16.859Z</time></trkpt><trkpt lat="41.1862533" lon="13.96368"><ele>84.2</ele><time>2026-04-11T10:03:18.86Z</time></trkpt><trkpt lat="41.186135" lon="13.9636883"><ele>84.0</ele><time>2026-04-11T10:03:20.859Z</time></trkpt><trkpt lat="41.1860083" lon="13.9637"><ele>84.0</ele><time>2026-04-11T10:03:22.861Z</time></trkpt><trkpt lat="41.1858817" lon="13.9637083"><ele>84.0</ele><time>2026-04-11T10:03:24.86Z</time></trkpt><trkpt lat="41.1858183" lon="13.9637117"><ele>84.0</ele><time>2026-04-11T10:03:25.86Z</time></trkpt><trkpt lat="41.185755" lon="13.9637167"><ele>84.0</ele><time>2026-04-11T10:03:26.858Z</time></trkpt><trkpt lat="41.1856917" lon="13.9637233"><ele>84.0</ele><time>2026-04-11T10:03:27.86Z</time></trkpt><trkpt lat="41.1856217" lon="13.9637317"><ele>84.0</ele><time>2026-04-11T10:03:28.86Z</time></trkpt><trkpt lat="41.1855467" lon="13.9637433"><ele>84.0</ele><time>2026-04-11T10:03:29.86Z</time></trkpt><trkpt lat="41.1854683" lon="13.96376"><ele>84.0</ele><time>2026-04-11T10:03:30.86Z</time></trkpt><trkpt lat="41.18539" lon="13.9637733"><ele>84.0</ele><time>2026-04-11T10:03:31.861Z</time></trkpt><trkpt lat="41.18531" lon="13.9637783"><ele>84.0</ele><time>2026-04-11T10:03:32.86Z</time></trkpt><trkpt lat="41.1852317" lon="13.96377"><ele>84.0</ele><time>2026-04-11T10:03:33.858Z</time></trkpt><trkpt lat="41.1851533" lon="13.9637683"><ele>84.0</ele><time>2026-04-11T10:03:34.86Z</time></trkpt><trkpt lat="41.1850733" lon="13.9637717"><ele>84.0</ele><time>2026-04-11T10:03:35.861Z</time></trkpt><trkpt lat="41.1849917" lon="13.9637783"><ele>84.0</ele><time>2026-04-11T10:03:36.86Z</time></trkpt><trkpt lat="41.18491" lon="13.96379"><ele>84.0</ele><time>2026-04-11T10:03:37.86Z</time></trkpt><trkpt lat="41.18483" lon="13.963795"><ele>84.0</ele><time>2026-04-11T10:03:38.859Z</time></trkpt><trkpt lat="41.1847483" lon="13.9637933"><ele>84.0</ele><time>2026-04-11T10:03:39.86Z</time></trkpt><trkpt lat="41.184665" lon="13.9637967"><ele>84.0</ele><time>2026-04-11T10:03:40.858Z</time></trkpt><trkpt lat="41.18458" lon="13.9638033"><ele>83.66666666666667</ele><time>2026-04-11T10:03:41.86Z</time></trkpt><trkpt lat="41.1844933" lon="13.9638033"><ele>83.33333333333333</ele><time>2026-04-11T10:03:42.859Z</time></trkpt><trkpt lat="41.1844067" lon="13.96381"><ele>83.0</ele><time>2026-04-11T10:03:43.86Z</time></trkpt><trkpt lat="41.1843167" lon="13.9638183"><ele>82.66666666666666</ele><time>2026-04-11T10:03:44.86Z</time></trkpt><trkpt lat="41.1842267" lon="13.9638217"><ele>82.33333333333333</ele><time>2026-04-11T10:03:45.859Z</time></trkpt><trkpt lat="41.1841383" lon="13.96383"><ele>82.0</ele><time>2026-04-11T10:03:46.86Z</time></trkpt><trkpt lat="41.1840483" lon="13.9638383"><ele>81.8</ele><time>2026-04-11T10:03:47.86Z</time></trkpt><trkpt lat="41.1839567" lon="13.96385"><ele>81.6</ele><time>2026-04-11T10:03:48.858Z</time></trkpt><trkpt lat="41.1838683" lon="13.96386"><ele>81.39999999999999</ele><time>2026-04-11T10:03:49.86Z</time></trkpt><trkpt lat="41.1837783" lon="13.963865"><ele>81.19999999999999</ele><time>2026-04-11T10:03:50.858Z</time></trkpt><trkpt lat="41.183685" lon="13.9638783"><ele>81.0</ele><time>2026-04-11T10:03:51.858Z</time></trkpt><trkpt lat="41.1835967" lon="13.9638867"><ele>81.0</ele><time>2026-04-11T10:03:52.86Z</time></trkpt><trkpt lat="41.18351" lon="13.9638933"><ele>81.0</ele><time>2026-04-11T10:03:53.86Z</time></trkpt><trkpt lat="41.1834217" lon="13.9638983"><ele>81.0</ele><time>2026-04-11T10:03:54.86Z</time></trkpt><trkpt lat="41.183335" lon="13.963905"><ele>81.0</ele><time>2026-04-11T10:03:55.858Z</time></trkpt><trkpt lat="41.1832433" lon="13.9639083"><ele>81.0</ele><time>2026-04-11T10:03:56.86Z</time></trkpt><trkpt lat="41.1831533" lon="13.9639133"><ele>81.0</ele><time>2026-04-11T10:03:57.859Z</time></trkpt><trkpt lat="41.183065" lon="13.9639167"><ele>80.66666666666667</ele><time>2026-04-11T10:03:58.86Z</time></trkpt><trkpt lat="41.1829783" lon="13.96392"><ele>80.33333333333333</ele><time>2026-04-11T10:03:59.86Z</time></trkpt><trkpt lat="41.1828883" lon="13.9639267"><ele>80.0</ele><time>2026-04-11T10:04:00.858Z</time></trkpt><trkpt lat="41.1828017" lon="13.963935"><ele>79.66666666666666</ele><time>2026-04-11T10:04:01.86Z</time></trkpt><trkpt lat="41.1827133" lon="13.9639433"><ele>79.33333333333333</ele><time>2026-04-11T10:04:02.86Z</time></trkpt><trkpt lat="41.1826267" lon="13.9639433"><ele>79.0</ele><time>2026-04-11T10:04:03.859Z</time></trkpt><trkpt lat="41.1825367" lon="13.9639417"><ele>79.0</ele><time>2026-04-11T10:04:04.86Z</time></trkpt><trkpt lat="41.1824517" lon="13.9639317"><ele>79.0</ele><time>2026-04-11T10:04:05.86Z</time></trkpt><trkpt lat="41.1823633" lon="13.9639183"><ele>79.0</ele><time>2026-04-11T10:04:06.86Z</time></trkpt><trkpt lat="41.1822767" lon="13.963895"><ele>79.0</ele><time>2026-04-11T10:04:07.859Z</time></trkpt><trkpt lat="41.1821933" lon="13.9638617"><ele>79.0</ele><time>2026-04-11T10:04:08.86Z</time></trkpt><trkpt lat="41.18211" lon="13.96383"><ele>79.0</ele><time>2026-04-11T10:04:09.858Z</time></trkpt><trkpt lat="41.18203" lon="13.96379"><ele>78.5</ele><time>2026-04-11T10:04:10.858Z</time></trkpt><trkpt lat="41.1819517" lon="13.9637417"><ele>78.0</ele><time>2026-04-11T10:04:11.859Z</time></trkpt><trkpt lat="41.181875" lon="13.9636883"><ele>77.5</ele><time>2026-04-11T10:04:12.858Z</time></trkpt><trkpt lat="41.1817967" lon="13.963635"><ele>77.0</ele><time>2026-04-11T10:04:13.86Z</time></trkpt><trkpt lat="41.1817217" lon="13.9635783"><ele>76.5</ele><time>2026-04-11T10:04:14.858Z</time></trkpt><trkpt lat="41.18165" lon="13.9635217"><ele>76.0</ele><time>2026-04-11T10:04:15.857Z</time></trkpt><trkpt lat="41.18158" lon="13.9634617"><ele>75.66666666666666</ele><time>2026-04-11T10:04:16.86Z</time></trkpt><trkpt lat="41.18151" lon="13.9633983"><ele>75.33333333333333</ele><time>2026-04-11T10:04:17.86Z</time></trkpt><trkpt lat="41.18144" lon="13.96334"><ele>75.0</ele><time>2026-04-11T10:04:18.86Z</time></trkpt><trkpt lat="41.1813733" lon="13.9632817"><ele>74.66666666666667</ele><time>2026-04-11T10:04:19.86Z</time></trkpt><trkpt lat="41.1813117" lon="13.9632183"><ele>74.33333333333334</ele><time>2026-04-11T10:04:20.86Z</time></trkpt><trkpt lat="41.1812483" lon="13.963155"><ele>74.0</ele><time>2026-04-11T10:04:21.857Z</time></trkpt><trkpt lat="41.18118" lon="13.9630967"><ele>74.66666666666667</ele><time>2026-04-11T10:04:22.859Z</time></trkpt><trkpt lat="41.1811117" lon="13.9630417"><ele>75.33333333333334</ele><time>2026-04-11T10:04:23.86Z</time></trkpt><trkpt lat="41.1810417" lon="13.9629883"><ele>76.0</ele><time>2026-04-11T10:04:24.859Z</time></trkpt><trkpt lat="41.1809733" lon="13.9629333"><ele>76.66666666666667</ele><time>2026-04-11T10:04:25.86Z</time></trkpt><trkpt lat="41.1809083" lon="13.962875"><ele>77.33333333333333</ele><time>2026-04-11T10:04:26.859Z</time></trkpt><trkpt lat="41.1808417" lon="13.9628167"><ele>78.0</ele><time>2026-04-11T10:04:27.858Z</time></trkpt><trkpt lat="41.180775" lon="13.962755"><ele>78.0</ele><time>2026-04-11T10:04:28.858Z</time></trkpt><trkpt lat="41.180705" lon="13.9627033"><ele>78.0</ele><time>2026-04-11T10:04:29.86Z</time></trkpt><trkpt lat="41.1806317" lon="13.96265"><ele>78.0</ele><time>2026-04-11T10:04:30.858Z</time></trkpt><trkpt lat="41.180565" lon="13.9625933"><ele>78.0</ele><time>2026-04-11T10:04:31.86Z</time></trkpt><trkpt lat="41.1804983" lon="13.96254"><ele>78.0</ele><time>2026-04-11T10:04:32.86Z</time></trkpt><trkpt lat="41.1804333" lon="13.962485"><ele>78.0</ele><time>2026-04-11T10:04:33.857Z</time></trkpt><trkpt lat="41.180365" lon="13.96243"><ele>78.0</ele><time>2026-04-11T10:04:34.86Z</time></trkpt><trkpt lat="41.1802983" lon="13.9623767"><ele>78.0</ele><time>2026-04-11T10:04:35.86Z</time></trkpt><trkpt lat="41.1802333" lon="13.9623217"><ele>78.0</ele><time>2026-04-11T10:04:36.86Z</time></trkpt><trkpt lat="41.1801683" lon="13.96227"><ele>78.0</ele><time>2026-04-11T10:04:37.858Z</time></trkpt><trkpt lat="41.1801017" lon="13.9622183"><ele>78.0</ele><time>2026-04-11T10:04:38.859Z</time></trkpt><trkpt lat="41.18004" lon="13.9621667"><ele>78.0</ele><time>2026-04-11T10:04:39.858Z</time></trkpt><trkpt lat="41.1799733" lon="13.962115"><ele>78.0</ele><time>2026-04-11T10:04:40.859Z</time></trkpt><trkpt lat="41.1799067" lon="13.9620617"><ele>78.0</ele><time>2026-04-11T10:04:41.858Z</time></trkpt><trkpt lat="41.1798433" lon="13.9620067"><ele>78.0</ele><time>2026-04-11T10:04:42.858Z</time></trkpt><trkpt lat="41.17978" lon="13.961955"><ele>78.0</ele><time>2026-04-11T10:04:43.86Z</time></trkpt><trkpt lat="41.1797167" lon="13.961905"><ele>78.0</ele><time>2026-04-11T10:04:44.857Z</time></trkpt><trkpt lat="41.1796517" lon="13.961855"><ele>78.0</ele><time>2026-04-11T10:04:45.858Z</time></trkpt><trkpt lat="41.17959" lon="13.9618017"><ele>77.71428571428572</ele><time>2026-04-11T10:04:46.857Z</time></trkpt><trkpt lat="41.1795267" lon="13.9617467"><ele>77.42857142857142</ele><time>2026-04-11T10:04:47.86Z</time></trkpt><trkpt lat="41.1794617" lon="13.9616933"><ele>77.14285714285714</ele><time>2026-04-11T10:04:48.86Z</time></trkpt><trkpt lat="41.1794" lon="13.961645"><ele>76.85714285714286</ele><time>2026-04-11T10:04:49.86Z</time></trkpt><trkpt lat="41.1793333" lon="13.9615967"><ele>76.57142857142858</ele><time>2026-04-11T10:04:50.86Z</time></trkpt><trkpt lat="41.1792717" lon="13.961545"><ele>76.28571428571428</ele><time>2026-04-11T10:04:51.859Z</time></trkpt><trkpt lat="41.1792067" lon="13.9614917"><ele>76.0</ele><time>2026-04-11T10:04:52.859Z</time></trkpt><trkpt lat="41.179145" lon="13.9614383"><ele>76.5</ele><time>2026-04-11T10:04:53.86Z</time></trkpt><trkpt lat="41.1790817" lon="13.9613783"><ele>77.0</ele><time>2026-04-11T10:04:54.858Z</time></trkpt><trkpt lat="41.1790183" lon="13.9613183"><ele>77.5</ele><time>2026-04-11T10:04:55.86Z</time></trkpt><trkpt lat="41.1789533" lon="13.96126"><ele>78.0</ele><time>2026-04-11T10:04:56.857Z</time></trkpt><trkpt lat="41.1788883" lon="13.9612033"><ele>78.5</ele><time>2026-04-11T10:04:57.86Z</time></trkpt><trkpt lat="41.178825" lon="13.9611467"><ele>79.0</ele><time>2026-04-11T10:04:58.859Z</time></trkpt><trkpt lat="41.17876" lon="13.961095"><ele>79.00000000000001</ele><time>2026-04-11T10:04:59.86Z</time></trkpt><trkpt lat="41.1787" lon="13.9610417"><ele>79.0</ele><time>2026-04-11T10:05:00.86Z</time></trkpt><trkpt lat="41.17864" lon="13.96099"><ele>79.0</ele><time>2026-04-11T10:05:01.859Z</time></trkpt><trkpt lat="41.17858" lon="13.9609417"><ele>79.0</ele><time>2026-04-11T10:05:02.86Z</time></trkpt><trkpt lat="41.1785117" lon="13.9608967"><ele>79.0</ele><time>2026-04-11T10:05:03.86Z</time></trkpt><trkpt lat="41.178445" lon="13.960845"><ele>79.00000000000001</ele><time>2026-04-11T10:05:04.859Z</time></trkpt><trkpt lat="41.178375" lon="13.9607933"><ele>79.0</ele><time>2026-04-11T10:05:05.86Z</time></trkpt><trkpt lat="41.1783033" lon="13.9607417"><ele>78.83333333333333</ele><time>2026-04-11T10:05:06.86Z</time></trkpt><trkpt lat="41.1782333" lon="13.9606867"><ele>78.66666666666666</ele><time>2026-04-11T10:05:07.859Z</time></trkpt><trkpt lat="41.1781683" lon="13.9606283"><ele>78.5</ele><time>2026-04-11T10:05:08.858Z</time></trkpt><trkpt lat="41.1781033" lon="13.9605683"><ele>78.33333333333333</ele><time>2026-04-11T10:05:09.858Z</time></trkpt><trkpt lat="41.178035" lon="13.96051"><ele>78.16666666666667</ele><time>2026-04-11T10:05:10.859Z</time></trkpt><trkpt lat="41.177965" lon="13.960455"><ele>78.0</ele><time>2026-04-11T10:05:11.86Z</time></trkpt><trkpt lat="41.1779" lon="13.9603983"><ele>78.0</ele><time>2026-04-11T10:05:12.86Z</time></trkpt><trkpt lat="41.1778317" lon="13.96034"><ele>78.0</ele><time>2026-04-11T10:05:13.86Z</time></trkpt><trkpt lat="41.177765" lon="13.9602833"><ele>78.0</ele><time>2026-04-11T10:05:14.861Z</time></trkpt><trkpt lat="41.1777" lon="13.96023"><ele>78.0</ele><time>2026-04-11T10:05:15.859Z</time></trkpt><trkpt lat="41.1776317" lon="13.9601717"><ele>78.0</ele><time>2026-04-11T10:05:16.86Z</time></trkpt><trkpt lat="41.17756" lon="13.9601183"><ele>78.0</ele><time>2026-04-11T10:05:17.86Z</time></trkpt><trkpt lat="41.1774883" lon="13.9600617"><ele>77.83333333333333</ele><time>2026-04-11T10:05:18.86Z</time></trkpt><trkpt lat="41.177415" lon="13.9600083"><ele>77.66666666666667</ele><time>2026-04-11T10:05:19.859Z</time></trkpt><trkpt lat="41.17734" lon="13.9599517"><ele>77.5</ele><time>2026-04-11T10:05:20.859Z</time></trkpt><trkpt lat="41.1772617" lon="13.9598933"><ele>77.33333333333334</ele><time>2026-04-11T10:05:21.86Z</time></trkpt><trkpt lat="41.1771883" lon="13.9598333"><ele>77.16666666666667</ele><time>2026-04-11T10:05:22.858Z</time></trkpt><trkpt lat="41.1771117" lon="13.9597717"><ele>77.0</ele><time>2026-04-11T10:05:23.86Z</time></trkpt><trkpt lat="41.1770417" lon="13.959705"><ele>77.0</ele><time>2026-04-11T10:05:24.859Z</time></trkpt><trkpt lat="41.17697" lon="13.9596417"><ele>77.0</ele><time>2026-04-11T10:05:25.861Z</time></trkpt><trkpt lat="41.176895" lon="13.9595783"><ele>77.0</ele><time>2026-04-11T10:05:26.86Z</time></trkpt><trkpt lat="41.17682" lon="13.9595217"><ele>77.0</ele><time>2026-04-11T10:05:27.859Z</time></trkpt><trkpt lat="41.176745" lon="13.95946"><ele>77.0</ele><time>2026-04-11T10:05:28.86Z</time></trkpt><trkpt lat="41.1766683" lon="13.9593967"><ele>77.0</ele><time>2026-04-11T10:05:29.86Z</time></trkpt><trkpt lat="41.1765917" lon="13.959335"><ele>76.66666666666667</ele><time>2026-04-11T10:05:30.86Z</time></trkpt><trkpt lat="41.1765183" lon="13.95927"><ele>76.33333333333334</ele><time>2026-04-11T10:05:31.861Z</time></trkpt><trkpt lat="41.1764433" lon="13.9592033"><ele>76.0</ele><time>2026-04-11T10:05:32.858Z</time></trkpt><trkpt lat="41.1763717" lon="13.9591367"><ele>75.66666666666667</ele><time>2026-04-11T10:05:33.86Z</time></trkpt><trkpt lat="41.1762983" lon="13.9590717"><ele>75.33333333333333</ele><time>2026-04-11T10:05:34.86Z</time></trkpt><trkpt lat="41.1762233" lon="13.9590083"><ele>75.0</ele><time>2026-04-11T10:05:35.859Z</time></trkpt><trkpt lat="41.1761517" lon="13.9589433"><ele>74.8</ele><time>2026-04-11T10:05:36.859Z</time></trkpt><trkpt lat="41.1760767" lon="13.9588767"><ele>74.6</ele><time>2026-04-11T10:05:37.858Z</time></trkpt><trkpt lat="41.1760017" lon="13.9588133"><ele>74.4</ele><time>2026-04-11T10:05:38.859Z</time></trkpt><trkpt lat="41.1759233" lon="13.9587517"><ele>74.2</ele><time>2026-04-11T10:05:39.857Z</time></trkpt><trkpt lat="41.175845" lon="13.9586883"><ele>74.0</ele><time>2026-04-11T10:05:40.86Z</time></trkpt><trkpt lat="41.1757667" lon="13.958625"><ele>74.0</ele><time>2026-04-11T10:05:41.858Z</time></trkpt><trkpt lat="41.17569" lon="13.9585583"><ele>74.0</ele><time>2026-04-11T10:05:42.859Z</time></trkpt><trkpt lat="41.1756133" lon="13.958495"><ele>74.0</ele><time>2026-04-11T10:05:43.859Z</time></trkpt><trkpt lat="41.175535" lon="13.9584333"><ele>74.0</ele><time>2026-04-11T10:05:44.86Z</time></trkpt><trkpt lat="41.1754567" lon="13.9583717"><ele>74.0</ele><time>2026-04-11T10:05:45.858Z</time></trkpt><trkpt lat="41.1753783" lon="13.95831"><ele>73.83333333333334</ele><time>2026-04-11T10:05:46.86Z</time></trkpt><trkpt lat="41.1753017" lon="13.9582483"><ele>73.66666666666667</ele><time>2026-04-11T10:05:47.858Z</time></trkpt><trkpt lat="41.17523" lon="13.958185"><ele>73.5</ele><time>2026-04-11T10:05:48.86Z</time></trkpt><trkpt lat="41.1751567" lon="13.9581233"><ele>73.33333333333333</ele><time>2026-04-11T10:05:49.86Z</time></trkpt><trkpt lat="41.17508" lon="13.9580617"><ele>73.16666666666666</ele><time>2026-04-11T10:05:50.858Z</time></trkpt><trkpt lat="41.1750067" lon="13.9579983"><ele>73.0</ele><time>2026-04-11T10:05:51.859Z</time></trkpt><trkpt lat="41.1749333" lon="13.957935"><ele>73.0</ele><time>2026-04-11T10:05:52.859Z</time></trkpt><trkpt lat="41.17486" lon="13.957875"><ele>73.0</ele><time>2026-04-11T10:05:53.86Z</time></trkpt><trkpt lat="41.174785" lon="13.957815"><ele>73.0</ele><time>2026-04-11T10:05:54.859Z</time></trkpt><trkpt lat="41.174715" lon="13.957755"><ele>73.0</ele><time>2026-04-11T10:05:55.859Z</time></trkpt><trkpt lat="41.1746417" lon="13.957695"><ele>73.0</ele><time>2026-04-11T10:05:56.859Z</time></trkpt><trkpt lat="41.1745683" lon="13.9576367"><ele>73.0</ele><time>2026-04-11T10:05:57.86Z</time></trkpt><trkpt lat="41.1744933" lon="13.95758"><ele>72.66666666666666</ele><time>2026-04-11T10:05:58.86Z</time></trkpt><trkpt lat="41.17442" lon="13.9575233"><ele>72.33333333333333</ele><time>2026-04-11T10:05:59.859Z</time></trkpt><trkpt lat="41.1743483" lon="13.957465"><ele>72.0</ele><time>2026-04-11T10:06:00.859Z</time></trkpt><trkpt lat="41.174275" lon="13.95741"><ele>71.66666666666667</ele><time>2026-04-11T10:06:01.86Z</time></trkpt><trkpt lat="41.1742033" lon="13.957355"><ele>71.33333333333334</ele><time>2026-04-11T10:06:02.86Z</time></trkpt><trkpt lat="41.174135" lon="13.9572967"><ele>71.0</ele><time>2026-04-11T10:06:03.859Z</time></trkpt><trkpt lat="41.174065" lon="13.9572383"><ele>71.0</ele><time>2026-04-11T10:06:04.859Z</time></trkpt><trkpt lat="41.1739933" lon="13.95718"><ele>71.0</ele><time>2026-04-11T10:06:05.859Z</time></trkpt><trkpt lat="41.1739233" lon="13.9571217"><ele>71.0</ele><time>2026-04-11T10:06:06.858Z</time></trkpt><trkpt lat="41.173855" lon="13.9570617"><ele>71.0</ele><time>2026-04-11T10:06:07.86Z</time></trkpt><trkpt lat="41.1737883" lon="13.9570017"><ele>71.0</ele><time>2026-04-11T10:06:08.86Z</time></trkpt><trkpt lat="41.1737183" lon="13.9569433"><ele>71.0</ele><time>2026-04-11T10:06:09.858Z</time></trkpt><trkpt lat="41.1736483" lon="13.956885"><ele>71.0</ele><time>2026-04-11T10:06:10.859Z</time></trkpt><trkpt lat="41.17358" lon="13.95683"><ele>71.0</ele><time>2026-04-11T10:06:11.86Z</time></trkpt><trkpt lat="41.1735133" lon="13.956775"><ele>71.0</ele><time>2026-04-11T10:06:12.859Z</time></trkpt><trkpt lat="41.1734433" lon="13.9567133"><ele>71.0</ele><time>2026-04-11T10:06:13.859Z</time></trkpt><trkpt lat="41.1733767" lon="13.9566533"><ele>71.0</ele><time>2026-04-11T10:06:14.859Z</time></trkpt><trkpt lat="41.1733117" lon="13.956595"><ele>71.0</ele><time>2026-04-11T10:06:15.858Z</time></trkpt><trkpt lat="41.17324" lon="13.95654"><ele>71.0</ele><time>2026-04-11T10:06:16.859Z</time></trkpt><trkpt lat="41.1731717" lon="13.9564817"><ele>71.0</ele><time>2026-04-11T10:06:17.86Z</time></trkpt><trkpt lat="41.1731" lon="13.9564233"><ele>71.0</ele><time>2026-04-11T10:06:18.859Z</time></trkpt><trkpt lat="41.1730267" lon="13.9563667"><ele>71.0</ele><time>2026-04-11T10:06:19.86Z</time></trkpt><trkpt lat="41.1729567" lon="13.9563067"><ele>71.0</ele><time>2026-04-11T10:06:20.86Z</time></trkpt><trkpt lat="41.1728867" lon="13.9562483"><ele>71.0</ele><time>2026-04-11T10:06:21.86Z</time></trkpt><trkpt lat="41.1728167" lon="13.9561917"><ele>71.0</ele><time>2026-04-11T10:06:22.86Z</time></trkpt><trkpt lat="41.17275" lon="13.9561383"><ele>71.0</ele><time>2026-04-11T10:06:23.86Z</time></trkpt><trkpt lat="41.1726833" lon="13.956085"><ele>71.0</ele><time>2026-04-11T10:06:24.858Z</time></trkpt><trkpt lat="41.1726183" lon="13.95603"><ele>71.0</ele><time>2026-04-11T10:06:25.86Z</time></trkpt><trkpt lat="41.1725533" lon="13.9559733"><ele>71.0</ele><time>2026-04-11T10:06:26.86Z</time></trkpt><trkpt lat="41.17249" lon="13.9559167"><ele>71.0</ele><time>2026-04-11T10:06:27.859Z</time></trkpt><trkpt lat="41.1724267" lon="13.9558617"><ele>71.16666666666667</ele><time>2026-04-11T10:06:28.859Z</time></trkpt><trkpt lat="41.1723633" lon="13.955805"><ele>71.33333333333334</ele><time>2026-04-11T10:06:29.86Z</time></trkpt><trkpt lat="41.1722983" lon="13.9557483"><ele>71.5</ele><time>2026-04-11T10:06:30.86Z</time></trkpt><trkpt lat="41.17223" lon="13.9556933"><ele>71.66666666666667</ele><time>2026-04-11T10:06:31.86Z</time></trkpt><trkpt lat="41.1721583" lon="13.9556383"><ele>71.83333333333333</ele><time>2026-04-11T10:06:32.86Z</time></trkpt><trkpt lat="41.172085" lon="13.955585"><ele>72.0</ele><time>2026-04-11T10:06:33.859Z</time></trkpt><trkpt lat="41.172015" lon="13.95553"><ele>71.66666666666667</ele><time>2026-04-11T10:06:34.859Z</time></trkpt><trkpt lat="41.1719433" lon="13.9554717"><ele>71.33333333333333</ele><time>2026-04-11T10:06:35.86Z</time></trkpt><trkpt lat="41.1718717" lon="13.95541"><ele>71.0</ele><time>2026-04-11T10:06:36.86Z</time></trkpt><trkpt lat="41.1718" lon="13.9553467"><ele>70.66666666666666</ele><time>2026-04-11T10:06:37.86Z</time></trkpt><trkpt lat="41.1717267" lon="13.9552867"><ele>70.33333333333333</ele><time>2026-04-11T10:06:38.858Z</time></trkpt><trkpt lat="41.1716517" lon="13.9552217"><ele>70.0</ele><time>2026-04-11T10:06:39.858Z</time></trkpt><trkpt lat="41.1715783" lon="13.9551567"><ele>70.0</ele><time>2026-04-11T10:06:40.86Z</time></trkpt><trkpt lat="41.171505" lon="13.9550917"><ele>70.0</ele><time>2026-04-11T10:06:41.86Z</time></trkpt><trkpt lat="41.1714317" lon="13.95503"><ele>70.0</ele><time>2026-04-11T10:06:42.857Z</time></trkpt><trkpt lat="41.1713583" lon="13.9549667"><ele>70.0</ele><time>2026-04-11T10:06:43.859Z</time></trkpt><trkpt lat="41.1712817" lon="13.9549067"><ele>70.0</ele><time>2026-04-11T10:06:44.86Z</time></trkpt><trkpt lat="41.171205" lon="13.9548433"><ele>70.0</ele><time>2026-04-11T10:06:45.859Z</time></trkpt><trkpt lat="41.1711267" lon="13.95478"><ele>70.0</ele><time>2026-04-11T10:06:46.858Z</time></trkpt><trkpt lat="41.17105" lon="13.954715"><ele>70.0</ele><time>2026-04-11T10:06:47.86Z</time></trkpt><trkpt lat="41.170975" lon="13.9546517"><ele>70.0</ele><time>2026-04-11T10:06:48.86Z</time></trkpt><trkpt lat="41.1708983" lon="13.9545867"><ele>70.0</ele><time>2026-04-11T10:06:49.859Z</time></trkpt><trkpt lat="41.1708233" lon="13.9545233"><ele>70.0</ele><time>2026-04-11T10:06:50.859Z</time></trkpt><trkpt lat="41.17075" lon="13.9544567"><ele>70.0</ele><time>2026-04-11T10:06:51.858Z</time></trkpt><trkpt lat="41.1706733" lon="13.9543917"><ele>69.6</ele><time>2026-04-11T10:06:52.859Z</time></trkpt><trkpt lat="41.1705967" lon="13.9543267"><ele>69.2</ele><time>2026-04-11T10:06:53.858Z</time></trkpt><trkpt lat="41.1705183" lon="13.9542583"><ele>68.8</ele><time>2026-04-11T10:06:54.859Z</time></trkpt><trkpt lat="41.17044" lon="13.9541917"><ele>68.4</ele><time>2026-04-11T10:06:55.858Z</time></trkpt><trkpt lat="41.17036" lon="13.954125"><ele>68.0</ele><time>2026-04-11T10:06:56.859Z</time></trkpt><trkpt lat="41.17028" lon="13.95406"><ele>67.8</ele><time>2026-04-11T10:06:57.859Z</time></trkpt><trkpt lat="41.1701983" lon="13.9539967"><ele>67.6</ele><time>2026-04-11T10:06:58.859Z</time></trkpt><trkpt lat="41.1701167" lon="13.9539317"><ele>67.4</ele><time>2026-04-11T10:06:59.859Z</time></trkpt><trkpt lat="41.1700333" lon="13.953865"><ele>67.2</ele><time>2026-04-11T10:07:00.857Z</time></trkpt><trkpt lat="41.16995" lon="13.9538017"><ele>67.0</ele><time>2026-04-11T10:07:01.859Z</time></trkpt><trkpt lat="41.1698667" lon="13.95374"><ele>66.6</ele><time>2026-04-11T10:07:02.858Z</time></trkpt><trkpt lat="41.1697833" lon="13.9536767"><ele>66.2</ele><time>2026-04-11T10:07:03.857Z</time></trkpt><trkpt lat="41.1697067" lon="13.9536083"><ele>65.8</ele><time>2026-04-11T10:07:04.859Z</time></trkpt><trkpt lat="41.1696267" lon="13.9535433"><ele>65.4</ele><time>2026-04-11T10:07:05.858Z</time></trkpt><trkpt lat="41.1695467" lon="13.9534783"><ele>65.0</ele><time>2026-04-11T10:07:06.858Z</time></trkpt><trkpt lat="41.1694667" lon="13.9534133"><ele>65.2</ele><time>2026-04-11T10:07:07.857Z</time></trkpt><trkpt lat="41.169385" lon="13.9533483"><ele>65.4</ele><time>2026-04-11T10:07:08.858Z</time></trkpt><trkpt lat="41.1693033" lon="13.953285"><ele>65.6</ele><time>2026-04-11T10:07:09.858Z</time></trkpt><trkpt lat="41.1692233" lon="13.9532183"><ele>65.8</ele><time>2026-04-11T10:07:10.858Z</time></trkpt><trkpt lat="41.1691433" lon="13.9531483"><ele>66.0</ele><time>2026-04-11T10:07:11.859Z</time></trkpt><trkpt lat="41.169065" lon="13.95308"><ele>65.8</ele><time>2026-04-11T10:07:12.858Z</time></trkpt><trkpt lat="41.16899" lon="13.9530117"><ele>65.6</ele><time>2026-04-11T10:07:13.859Z</time></trkpt><trkpt lat="41.16891" lon="13.9529467"><ele>65.4</ele><time>2026-04-11T10:07:14.859Z</time></trkpt><trkpt lat="41.1688333" lon="13.95288"><ele>65.2</ele><time>2026-04-11T10:07:15.859Z</time></trkpt><trkpt lat="41.1687567" lon="13.9528133"><ele>65.0</ele><time>2026-04-11T10:07:16.858Z</time></trkpt><trkpt lat="41.1686733" lon="13.9527467"><ele>65.0</ele><time>2026-04-11T10:07:17.859Z</time></trkpt><trkpt lat="41.1685933" lon="13.95268"><ele>65.0</ele><time>2026-04-11T10:07:18.859Z</time></trkpt><trkpt lat="41.1685167" lon="13.9526133"><ele>65.0</ele><time>2026-04-11T10:07:19.859Z</time></trkpt><trkpt lat="41.1684417" lon="13.95255"><ele>65.0</ele><time>2026-04-11T10:07:20.857Z</time></trkpt><trkpt lat="41.1683667" lon="13.95249"><ele>65.0</ele><time>2026-04-11T10:07:21.859Z</time></trkpt><trkpt lat="41.1682917" lon="13.9524317"><ele>65.0</ele><time>2026-04-11T10:07:22.859Z</time></trkpt><trkpt lat="41.168215" lon="13.9523683"><ele>65.33333333333334</ele><time>2026-04-11T10:07:23.859Z</time></trkpt><trkpt lat="41.16814" lon="13.9523067"><ele>65.66666666666667</ele><time>2026-04-11T10:07:24.858Z</time></trkpt><trkpt lat="41.168065" lon="13.952245"><ele>66.0</ele><time>2026-04-11T10:07:25.86Z</time></trkpt><trkpt lat="41.1679883" lon="13.952185"><ele>66.33333333333333</ele><time>2026-04-11T10:07:26.859Z</time></trkpt><trkpt lat="41.16791" lon="13.9521267"><ele>66.66666666666666</ele><time>2026-04-11T10:07:27.856Z</time></trkpt><trkpt lat="41.167835" lon="13.9520683"><ele>67.0</ele><time>2026-04-11T10:07:28.859Z</time></trkpt><trkpt lat="41.16776" lon="13.9520083"><ele>67.0</ele><time>2026-04-11T10:07:29.859Z</time></trkpt><trkpt lat="41.1676883" lon="13.9519467"><ele>67.0</ele><time>2026-04-11T10:07:30.857Z</time></trkpt><trkpt lat="41.1676133" lon="13.9518867"><ele>67.0</ele><time>2026-04-11T10:07:31.86Z</time></trkpt><trkpt lat="41.1675417" lon="13.95183"><ele>67.0</ele><time>2026-04-11T10:07:32.859Z</time></trkpt><trkpt lat="41.1674717" lon="13.95177"><ele>67.0</ele><time>2026-04-11T10:07:33.858Z</time></trkpt><trkpt lat="41.1673983" lon="13.9517083"><ele>67.0</ele><time>2026-04-11T10:07:34.858Z</time></trkpt><trkpt lat="41.1673267" lon="13.9516467"><ele>67.83333333333333</ele><time>2026-04-11T10:07:35.859Z</time></trkpt><trkpt lat="41.1672483" lon="13.9515917"><ele>68.66666666666666</ele><time>2026-04-11T10:07:36.858Z</time></trkpt><trkpt lat="41.167175" lon="13.951535"><ele>69.5</ele><time>2026-04-11T10:07:37.86Z</time></trkpt><trkpt lat="41.1671067" lon="13.9514717"><ele>70.33333333333333</ele><time>2026-04-11T10:07:38.859Z</time></trkpt><trkpt lat="41.1670383" lon="13.951415"><ele>71.16666666666667</ele><time>2026-04-11T10:07:39.857Z</time></trkpt><trkpt lat="41.1669717" lon="13.9513617"><ele>72.0</ele><time>2026-04-11T10:07:40.858Z</time></trkpt><trkpt lat="41.1669133" lon="13.9513133"><ele>72.0</ele><time>2026-04-11T10:07:41.859Z</time></trkpt><trkpt lat="41.1668417" lon="13.9512417"><ele>72.0</ele><time>2026-04-11T10:07:43.859Z</time></trkpt><trkpt lat="41.1668833" lon="13.95116"><ele>72.0</ele><time>2026-04-11T10:09:26.858Z</time></trkpt><trkpt lat="41.166875" lon="13.9512833"><ele>72.0</ele><time>2026-04-11T10:10:07.859Z</time></trkpt><trkpt lat="41.1668817" lon="13.9513767"><ele>72.0</ele><time>2026-04-11T10:10:53.858Z</time></trkpt><trkpt lat="41.166925" lon="13.951315"><ele>72.0</ele><time>2026-04-11T10:11:05.857Z</time></trkpt><trkpt lat="41.166905" lon="13.9512067"><ele>72.0</ele><time>2026-04-11T10:11:15.858Z</time></trkpt><trkpt lat="41.1668867" lon="13.9511167"><ele>72.0</ele><time>2026-04-11T10:11:20.86Z</time></trkpt><trkpt lat="41.1669014" lon="13.9512161"><ele>72.0</ele><time>2026-04-11T10:11:37.924Z</time></trkpt><trkpt lat="41.1668967" lon="13.9513083"><ele>72.0</ele><time>2026-04-11T10:11:40.947Z</time></trkpt><trkpt lat="41.1668473" lon="13.9512496"><ele>72.0</ele><time>2026-04-11T10:11:45.985Z</time></trkpt><trkpt lat="41.1666341" lon="13.9510466"><ele>72.25</ele><time>2026-04-11T10:11:54.859Z</time></trkpt><trkpt lat="41.1664679" lon="13.9509033"><ele>72.5</ele><time>2026-04-11T10:11:55.86Z</time></trkpt><trkpt lat="41.1663517" lon="13.9508183"><ele>72.75</ele><time>2026-04-11T10:11:56.859Z</time></trkpt><trkpt lat="41.166265" lon="13.9507533"><ele>73.0</ele><time>2026-04-11T10:11:58.859Z</time></trkpt><trkpt lat="41.1661783" lon="13.9506917"><ele>73.0</ele><time>2026-04-11T10:12:00.859Z</time></trkpt><trkpt lat="41.166095" lon="13.9506167"><ele>73.0</ele><time>2026-04-11T10:12:02.859Z</time></trkpt><trkpt lat="41.1660117" lon="13.95055"><ele>73.0</ele><time>2026-04-11T10:12:04.859Z</time></trkpt><trkpt lat="41.1659167" lon="13.95048"><ele>73.0</ele><time>2026-04-11T10:12:06.858Z</time></trkpt><trkpt lat="41.1658133" lon="13.950405"><ele>73.0</ele><time>2026-04-11T10:12:08.859Z</time></trkpt><trkpt lat="41.165705" lon="13.9503367"><ele>72.5</ele><time>2026-04-11T10:12:10.859Z</time></trkpt><trkpt lat="41.1656017" lon="13.950255"><ele>72.0</ele><time>2026-04-11T10:12:12.859Z</time></trkpt><trkpt lat="41.165505" lon="13.9501683"><ele>71.5</ele><time>2026-04-11T10:12:14.858Z</time></trkpt><trkpt lat="41.1654167" lon="13.9500867"><ele>71.0</ele><time>2026-04-11T10:12:16.859Z</time></trkpt><trkpt lat="41.165325" lon="13.9500183"><ele>71.0</ele><time>2026-04-11T10:12:18.859Z</time></trkpt><trkpt lat="41.1652417" lon="13.9499217"><ele>71.0</ele><time>2026-04-11T10:12:20.859Z</time></trkpt><trkpt lat="41.1651467" lon="13.9498383"><ele>71.0</ele><time>2026-04-11T10:12:22.859Z</time></trkpt><trkpt lat="41.1650483" lon="13.94975"><ele>71.0</ele><time>2026-04-11T10:12:24.857Z</time></trkpt><trkpt lat="41.16495" lon="13.9496433"><ele>71.0</ele><time>2026-04-11T10:12:26.858Z</time></trkpt><trkpt lat="41.164895" lon="13.94959"><ele>71.0</ele><time>2026-04-11T10:12:27.858Z</time></trkpt><trkpt lat="41.1648333" lon="13.949545"><ele>71.0</ele><time>2026-04-11T10:12:28.859Z</time></trkpt><trkpt lat="41.164775" lon="13.9494967"><ele>71.0</ele><time>2026-04-11T10:12:29.859Z</time></trkpt><trkpt lat="41.1647133" lon="13.94945"><ele>71.0</ele><time>2026-04-11T10:12:30.858Z</time></trkpt><trkpt lat="41.1646533" lon="13.9494"><ele>71.0</ele><time>2026-04-11T10:12:31.859Z</time></trkpt><trkpt lat="41.1645917" lon="13.9493483"><ele>71.0</ele><time>2026-04-11T10:12:32.859Z</time></trkpt><trkpt lat="41.16453" lon="13.9492967"><ele>70.85714285714286</ele><time>2026-04-11T10:12:33.858Z</time></trkpt><trkpt lat="41.16447" lon="13.9492383"><ele>70.71428571428571</ele><time>2026-04-11T10:12:34.858Z</time></trkpt><trkpt lat="41.1644133" lon="13.9491783"><ele>70.57142857142857</ele><time>2026-04-11T10:12:35.859Z</time></trkpt><trkpt lat="41.1643533" lon="13.9491233"><ele>70.42857142857143</ele><time>2026-04-11T10:12:36.86Z</time></trkpt><trkpt lat="41.1642933" lon="13.9490683"><ele>70.28571428571428</ele><time>2026-04-11T10:12:37.86Z</time></trkpt><trkpt lat="41.1642283" lon="13.9490233"><ele>70.14285714285714</ele><time>2026-04-11T10:12:38.858Z</time></trkpt><trkpt lat="41.164165" lon="13.948975"><ele>70.0</ele><time>2026-04-11T10:12:39.858Z</time></trkpt><trkpt lat="41.1640967" lon="13.9489233"><ele>70.0</ele><time>2026-04-11T10:12:40.859Z</time></trkpt><trkpt lat="41.1640317" lon="13.94887"><ele>70.0</ele><time>2026-04-11T10:12:41.859Z</time></trkpt><trkpt lat="41.1639683" lon="13.9488183"><ele>70.0</ele><time>2026-04-11T10:12:42.858Z</time></trkpt><trkpt lat="41.163905" lon="13.94877"><ele>70.0</ele><time>2026-04-11T10:12:43.859Z</time></trkpt><trkpt lat="41.1638433" lon="13.9487267"><ele>70.0</ele><time>2026-04-11T10:12:44.859Z</time></trkpt><trkpt lat="41.16379" lon="13.94868"><ele>70.0</ele><time>2026-04-11T10:12:45.858Z</time></trkpt><trkpt lat="41.1637333" lon="13.9486267"><ele>70.0</ele><time>2026-04-11T10:12:46.859Z</time></trkpt><trkpt lat="41.1636767" lon="13.9485717"><ele>69.5</ele><time>2026-04-11T10:12:47.859Z</time></trkpt><trkpt lat="41.163615" lon="13.9485283"><ele>69.0</ele><time>2026-04-11T10:12:48.86Z</time></trkpt><trkpt lat="41.163555" lon="13.9484817"><ele>68.5</ele><time>2026-04-11T10:12:49.86Z</time></trkpt><trkpt lat="41.1634917" lon="13.9484367"><ele>68.0</ele><time>2026-04-11T10:12:50.859Z</time></trkpt><trkpt lat="41.1634167" lon="13.9484033"><ele>67.5</ele><time>2026-04-11T10:12:51.858Z</time></trkpt><trkpt lat="41.1633433" lon="13.9483617"><ele>67.0</ele><time>2026-04-11T10:12:52.858Z</time></trkpt><trkpt lat="41.163275" lon="13.9483033"><ele>67.0</ele><time>2026-04-11T10:12:53.86Z</time></trkpt><trkpt lat="41.1632067" lon="13.948245"><ele>67.0</ele><time>2026-04-11T10:12:54.86Z</time></trkpt><trkpt lat="41.1631367" lon="13.9481917"><ele>67.0</ele><time>2026-04-11T10:12:55.859Z</time></trkpt><trkpt lat="41.1630617" lon="13.9481383"><ele>67.0</ele><time>2026-04-11T10:12:56.859Z</time></trkpt><trkpt lat="41.1629867" lon="13.9480833"><ele>67.0</ele><time>2026-04-11T10:12:57.858Z</time></trkpt><trkpt lat="41.1629117" lon="13.9480283"><ele>67.0</ele><time>2026-04-11T10:12:58.859Z</time></trkpt><trkpt lat="41.16284" lon="13.94797"><ele>66.66666666666666</ele><time>2026-04-11T10:12:59.859Z</time></trkpt><trkpt lat="41.16277" lon="13.9479117"><ele>66.33333333333333</ele><time>2026-04-11T10:13:00.868Z</time></trkpt><trkpt lat="41.1626983" lon="13.947855"><ele>66.0</ele><time>2026-04-11T10:13:01.859Z</time></trkpt><trkpt lat="41.1626233" lon="13.9478033"><ele>65.66666666666667</ele><time>2026-04-11T10:13:02.857Z</time></trkpt><trkpt lat="41.16255" lon="13.94775"><ele>65.33333333333334</ele><time>2026-04-11T10:13:03.858Z</time></trkpt><trkpt lat="41.16248" lon="13.9477067"><ele>65.0</ele><time>2026-04-11T10:13:04.859Z</time></trkpt><trkpt lat="41.1624183" lon="13.9476483"><ele>65.00000000000001</ele><time>2026-04-11T10:13:05.859Z</time></trkpt><trkpt lat="41.1623533" lon="13.9475967"><ele>65.0</ele><time>2026-04-11T10:13:06.859Z</time></trkpt><trkpt lat="41.1622917" lon="13.947555"><ele>65.0</ele><time>2026-04-11T10:13:07.857Z</time></trkpt><trkpt lat="41.16223" lon="13.9475067"><ele>65.0</ele><time>2026-04-11T10:13:08.858Z</time></trkpt><trkpt lat="41.16217" lon="13.9474533"><ele>65.0</ele><time>2026-04-11T10:13:09.857Z</time></trkpt><trkpt lat="41.16211" lon="13.947395"><ele>65.00000000000001</ele><time>2026-04-11T10:13:10.859Z</time></trkpt><trkpt lat="41.1620483" lon="13.947335"><ele>65.0</ele><time>2026-04-11T10:13:11.858Z</time></trkpt><trkpt lat="41.1619817" lon="13.9472783"><ele>65.0</ele><time>2026-04-11T10:13:12.859Z</time></trkpt><trkpt lat="41.161915" lon="13.9472233"><ele>65.0</ele><time>2026-04-11T10:13:13.858Z</time></trkpt><trkpt lat="41.1618517" lon="13.9471683"><ele>65.0</ele><time>2026-04-11T10:13:14.857Z</time></trkpt><trkpt lat="41.1617783" lon="13.9471167"><ele>65.0</ele><time>2026-04-11T10:13:15.858Z</time></trkpt><trkpt lat="41.1617083" lon="13.9470617"><ele>65.0</ele><time>2026-04-11T10:13:16.86Z</time></trkpt><trkpt lat="41.1616367" lon="13.9470067"><ele>65.0</ele><time>2026-04-11T10:13:17.86Z</time></trkpt><trkpt lat="41.1615617" lon="13.9469567"><ele>65.0</ele><time>2026-04-11T10:13:18.858Z</time></trkpt><trkpt lat="41.16149" lon="13.9469017"><ele>65.0</ele><time>2026-04-11T10:13:19.86Z</time></trkpt><trkpt lat="41.161425" lon="13.9468417"><ele>65.0</ele><time>2026-04-11T10:13:20.858Z</time></trkpt><trkpt lat="41.1613833" lon="13.9467683"><ele>65.0</ele><time>2026-04-11T10:13:21.857Z</time></trkpt><trkpt lat="41.1613483" lon="13.9466967"><ele>65.0</ele><time>2026-04-11T10:13:22.858Z</time></trkpt><trkpt lat="41.1612783" lon="13.946565"><ele>65.0</ele><time>2026-04-11T10:13:24.859Z</time></trkpt><trkpt lat="41.1611967" lon="13.946445"><ele>65.0</ele><time>2026-04-11T10:13:26.859Z</time></trkpt><trkpt lat="41.1611133" lon="13.9463617"><ele>65.0</ele><time>2026-04-11T10:13:28.859Z</time></trkpt><trkpt lat="41.1610317" lon="13.9462967"><ele>65.0</ele><time>2026-04-11T10:13:30.86Z</time></trkpt><trkpt lat="41.1609517" lon="13.94623"><ele>65.0</ele><time>2026-04-11T10:13:32.858Z</time></trkpt><trkpt lat="41.1608533" lon="13.9461683"><ele>65.0</ele><time>2026-04-11T10:13:34.86Z</time></trkpt><trkpt lat="41.1607583" lon="13.94609"><ele>65.4</ele><time>2026-04-11T10:13:36.859Z</time></trkpt><trkpt lat="41.160665" lon="13.946025"><ele>65.8</ele><time>2026-04-11T10:13:38.858Z</time></trkpt><trkpt lat="41.16057" lon="13.9459633"><ele>66.2</ele><time>2026-04-11T10:13:40.859Z</time></trkpt><trkpt lat="41.1604783" lon="13.9458983"><ele>66.6</ele><time>2026-04-11T10:13:42.859Z</time></trkpt><trkpt lat="41.1603817" lon="13.94582"><ele>67.0</ele><time>2026-04-11T10:13:44.858Z</time></trkpt><trkpt lat="41.160285" lon="13.9457433"><ele>67.0</ele><time>2026-04-11T10:13:46.859Z</time></trkpt><trkpt lat="41.16018" lon="13.9456683"><ele>67.0</ele><time>2026-04-11T10:13:48.86Z</time></trkpt><trkpt lat="41.1600783" lon="13.9455833"><ele>67.0</ele><time>2026-04-11T10:13:50.859Z</time></trkpt><trkpt lat="41.1599817" lon="13.945495"><ele>67.0</ele><time>2026-04-11T10:13:52.859Z</time></trkpt><trkpt lat="41.1599233" lon="13.94546"><ele>67.0</ele><time>2026-04-11T10:13:53.86Z</time></trkpt><trkpt lat="41.1598233" lon="13.945365"><ele>67.0</ele><time>2026-04-11T10:13:55.859Z</time></trkpt><trkpt lat="41.1597167" lon="13.9452717"><ele>67.0</ele><time>2026-04-11T10:13:57.859Z</time></trkpt><trkpt lat="41.1596617" lon="13.9452233"><ele>67.0</ele><time>2026-04-11T10:13:58.859Z</time></trkpt><trkpt lat="41.1596083" lon="13.945175"><ele>67.0</ele><time>2026-04-11T10:13:59.86Z</time></trkpt><trkpt lat="41.159555" lon="13.9451267"><ele>67.0</ele><time>2026-04-11T10:14:00.859Z</time></trkpt><trkpt lat="41.1594517" lon="13.9450333"><ele>67.0</ele><time>2026-04-11T10:14:02.859Z</time></trkpt><trkpt lat="41.1593417" lon="13.94495"><ele>67.0</ele><time>2026-04-11T10:14:04.859Z</time></trkpt><trkpt lat="41.159235" lon="13.944855"><ele>67.0</ele><time>2026-04-11T10:14:06.859Z</time></trkpt><trkpt lat="41.1591783" lon="13.9448083"><ele>67.0</ele><time>2026-04-11T10:14:07.86Z</time></trkpt><trkpt lat="41.1591233" lon="13.944755"><ele>67.0</ele><time>2026-04-11T10:14:08.858Z</time></trkpt><trkpt lat="41.15907" lon="13.9446967"><ele>67.0</ele><time>2026-04-11T10:14:09.857Z</time></trkpt><trkpt lat="41.1590133" lon="13.944645"><ele>67.0</ele><time>2026-04-11T10:14:10.859Z</time></trkpt><trkpt lat="41.1589567" lon="13.944595"><ele>66.5</ele><time>2026-04-11T10:14:11.86Z</time></trkpt><trkpt lat="41.1589033" lon="13.9445433"><ele>66.0</ele><time>2026-04-11T10:14:12.858Z</time></trkpt><trkpt lat="41.15884" lon="13.9444933"><ele>65.5</ele><time>2026-04-11T10:14:13.858Z</time></trkpt><trkpt lat="41.1587733" lon="13.9444483"><ele>65.0</ele><time>2026-04-11T10:14:14.859Z</time></trkpt><trkpt lat="41.1587033" lon="13.9444017"><ele>64.5</ele><time>2026-04-11T10:14:15.859Z</time></trkpt><trkpt lat="41.1586383" lon="13.9443467"><ele>64.0</ele><time>2026-04-11T10:14:16.861Z</time></trkpt><trkpt lat="41.15857" lon="13.9442917"><ele>63.99999999999999</ele><time>2026-04-11T10:14:17.859Z</time></trkpt><trkpt lat="41.1585" lon="13.944235"><ele>64.0</ele><time>2026-04-11T10:14:18.859Z</time></trkpt><trkpt lat="41.158425" lon="13.9441767"><ele>64.0</ele><time>2026-04-11T10:14:19.859Z</time></trkpt><trkpt lat="41.15835" lon="13.9441167"><ele>64.0</ele><time>2026-04-11T10:14:20.858Z</time></trkpt><trkpt lat="41.1582767" lon="13.9440517"><ele>63.99999999999999</ele><time>2026-04-11T10:14:21.859Z</time></trkpt><trkpt lat="41.1581967" lon="13.94399"><ele>64.0</ele><time>2026-04-11T10:14:22.859Z</time></trkpt><trkpt lat="41.158115" lon="13.9439283"><ele>63.6</ele><time>2026-04-11T10:14:23.859Z</time></trkpt><trkpt lat="41.1580383" lon="13.9438617"><ele>63.2</ele><time>2026-04-11T10:14:24.859Z</time></trkpt><trkpt lat="41.1579583" lon="13.9437983"><ele>62.800000000000004</ele><time>2026-04-11T10:14:25.859Z</time></trkpt><trkpt lat="41.1578767" lon="13.9437417"><ele>62.400000000000006</ele><time>2026-04-11T10:14:26.858Z</time></trkpt><trkpt lat="41.1577967" lon="13.9436867"><ele>62.0</ele><time>2026-04-11T10:14:27.859Z</time></trkpt><trkpt lat="41.1577167" lon="13.9436333"><ele>62.00000000000001</ele><time>2026-04-11T10:14:28.858Z</time></trkpt><trkpt lat="41.157635" lon="13.9435783"><ele>62.0</ele><time>2026-04-11T10:14:29.857Z</time></trkpt><trkpt lat="41.1575583" lon="13.9435217"><ele>62.0</ele><time>2026-04-11T10:14:30.859Z</time></trkpt><trkpt lat="41.1574817" lon="13.9434633"><ele>62.0</ele><time>2026-04-11T10:14:31.86Z</time></trkpt><trkpt lat="41.157405" lon="13.9434033"><ele>62.00000000000001</ele><time>2026-04-11T10:14:32.858Z</time></trkpt><trkpt lat="41.15733" lon="13.9433467"><ele>62.0</ele><time>2026-04-11T10:14:33.858Z</time></trkpt><trkpt lat="41.1572567" lon="13.9432867"><ele>61.833333333333336</ele><time>2026-04-11T10:14:34.858Z</time></trkpt><trkpt lat="41.1571817" lon="13.9432267"><ele>61.66666666666667</ele><time>2026-04-11T10:14:35.86Z</time></trkpt><trkpt lat="41.1571083" lon="13.9431683"><ele>61.5</ele><time>2026-04-11T10:14:36.859Z</time></trkpt><trkpt lat="41.157035" lon="13.94311"><ele>61.33333333333333</ele><time>2026-04-11T10:14:37.858Z</time></trkpt><trkpt lat="41.1569633" lon="13.9430533"><ele>61.166666666666664</ele><time>2026-04-11T10:14:38.859Z</time></trkpt><trkpt lat="41.15689" lon="13.942995"><ele>61.0</ele><time>2026-04-11T10:14:39.858Z</time></trkpt><trkpt lat="41.1568233" lon="13.942935"><ele>60.99999999999999</ele><time>2026-04-11T10:14:40.859Z</time></trkpt><trkpt lat="41.156755" lon="13.9428783"><ele>61.0</ele><time>2026-04-11T10:14:41.86Z</time></trkpt><trkpt lat="41.1566867" lon="13.9428233"><ele>61.0</ele><time>2026-04-11T10:14:42.859Z</time></trkpt><trkpt lat="41.15662" lon="13.9427683"><ele>61.0</ele><time>2026-04-11T10:14:43.859Z</time></trkpt><trkpt lat="41.156555" lon="13.9427133"><ele>60.99999999999999</ele><time>2026-04-11T10:14:44.86Z</time></trkpt><trkpt lat="41.15649" lon="13.9426617"><ele>61.0</ele><time>2026-04-11T10:14:45.857Z</time></trkpt><trkpt lat="41.156425" lon="13.9426117"><ele>60.71428571428571</ele><time>2026-04-11T10:14:46.859Z</time></trkpt><trkpt lat="41.15636" lon="13.9425633"><ele>60.42857142857143</ele><time>2026-04-11T10:14:47.86Z</time></trkpt><trkpt lat="41.156295" lon="13.942515"><ele>60.14285714285714</ele><time>2026-04-11T10:14:48.858Z</time></trkpt><trkpt lat="41.156235" lon="13.9424633"><ele>59.857142857142854</ele><time>2026-04-11T10:14:49.858Z</time></trkpt><trkpt lat="41.156175" lon="13.9424117"><ele>59.57142857142857</ele><time>2026-04-11T10:14:50.859Z</time></trkpt><trkpt lat="41.1561117" lon="13.9423633"><ele>59.285714285714285</ele><time>2026-04-11T10:14:51.858Z</time></trkpt><trkpt lat="41.1560467" lon="13.942315"><ele>59.0</ele><time>2026-04-11T10:14:52.86Z</time></trkpt><trkpt lat="41.1559817" lon="13.9422667"><ele>59.57142857142857</ele><time>2026-04-11T10:14:53.86Z</time></trkpt><trkpt lat="41.1559217" lon="13.9422183"><ele>60.142857142857146</ele><time>2026-04-11T10:14:54.86Z</time></trkpt><trkpt lat="41.15586" lon="13.9421717"><ele>60.714285714285715</ele><time>2026-04-11T10:14:55.858Z</time></trkpt><trkpt lat="41.1557983" lon="13.942125"><ele>61.285714285714285</ele><time>2026-04-11T10:14:56.859Z</time></trkpt><trkpt lat="41.1557383" lon="13.9420767"><ele>61.85714285714286</ele><time>2026-04-11T10:14:57.857Z</time></trkpt><trkpt lat="41.155675" lon="13.9420317"><ele>62.42857142857143</ele><time>2026-04-11T10:14:58.857Z</time></trkpt><trkpt lat="41.1556167" lon="13.941985"><ele>63.0</ele><time>2026-04-11T10:14:59.858Z</time></trkpt><trkpt lat="41.1555583" lon="13.9419433"><ele>63.166666666666664</ele><time>2026-04-11T10:15:00.859Z</time></trkpt><trkpt lat="41.1555033" lon="13.9419017"><ele>63.33333333333333</ele><time>2026-04-11T10:15:01.858Z</time></trkpt><trkpt lat="41.1554517" lon="13.9418533"><ele>63.5</ele><time>2026-04-11T10:15:02.858Z</time></trkpt><trkpt lat="41.1553983" lon="13.9418083"><ele>63.666666666666664</ele><time>2026-04-11T10:15:03.858Z</time></trkpt><trkpt lat="41.1553033" lon="13.941715"><ele>63.83333333333333</ele><time>2026-04-11T10:15:05.858Z</time></trkpt><trkpt lat="41.1552117" lon="13.9416317"><ele>64.0</ele><time>2026-04-11T10:15:07.859Z</time></trkpt><trkpt lat="41.1551117" lon="13.941555"><ele>64.60000000000001</ele><time>2026-04-11T10:15:09.857Z</time></trkpt><trkpt lat="41.1550183" lon="13.9414733"><ele>65.2</ele><time>2026-04-11T10:15:11.86Z</time></trkpt><trkpt lat="41.1549217" lon="13.9413983"><ele>65.80000000000001</ele><time>2026-04-11T10:15:13.858Z</time></trkpt><trkpt lat="41.1548233" lon="13.941325"><ele>66.4</ele><time>2026-04-11T10:15:15.857Z</time></trkpt><trkpt lat="41.1547333" lon="13.941245"><ele>67.0</ele><time>2026-04-11T10:15:17.86Z</time></trkpt><trkpt lat="41.154645" lon="13.9411683"><ele>67.0</ele><time>2026-04-11T10:15:19.859Z</time></trkpt><trkpt lat="41.15455" lon="13.9411"><ele>67.0</ele><time>2026-04-11T10:15:21.856Z</time></trkpt><trkpt lat="41.15447" lon="13.941025"><ele>67.0</ele><time>2026-04-11T10:15:23.86Z</time></trkpt><trkpt lat="41.1543917" lon="13.9409583"><ele>67.0</ele><time>2026-04-11T10:15:25.858Z</time></trkpt><trkpt lat="41.1543017" lon="13.9408917"><ele>67.0</ele><time>2026-04-11T10:15:27.858Z</time></trkpt><trkpt lat="41.1542083" lon="13.9408267"><ele>66.5</ele><time>2026-04-11T10:15:29.86Z</time></trkpt><trkpt lat="41.154115" lon="13.94075"><ele>66.0</ele><time>2026-04-11T10:15:31.86Z</time></trkpt><trkpt lat="41.15401" lon="13.9406733"><ele>65.5</ele><time>2026-04-11T10:15:33.859Z</time></trkpt><trkpt lat="41.153905" lon="13.9405983"><ele>65.0</ele><time>2026-04-11T10:15:35.86Z</time></trkpt><trkpt lat="41.1538" lon="13.9405117"><ele>65.00000000000001</ele><time>2026-04-11T10:15:37.86Z</time></trkpt><trkpt lat="41.1537433" lon="13.94047"><ele>65.0</ele><time>2026-04-11T10:15:38.858Z</time></trkpt><trkpt lat="41.1536917" lon="13.94042"><ele>65.0</ele><time>2026-04-11T10:15:39.857Z</time></trkpt><trkpt lat="41.1536367" lon="13.94037"><ele>65.0</ele><time>2026-04-11T10:15:40.858Z</time></trkpt><trkpt lat="41.1535867" lon="13.9403167"><ele>65.0</ele><time>2026-04-11T10:15:41.86Z</time></trkpt><trkpt lat="41.153535" lon="13.9402667"><ele>65.00000000000001</ele><time>2026-04-11T10:15:42.858Z</time></trkpt><trkpt lat="41.1534817" lon="13.940215"><ele>65.0</ele><time>2026-04-11T10:15:43.859Z</time></trkpt><trkpt lat="41.1534283" lon="13.9401617"><ele>65.00000000000001</ele><time>2026-04-11T10:15:44.858Z</time></trkpt><trkpt lat="41.15337" lon="13.94011"><ele>65.0</ele><time>2026-04-11T10:15:45.859Z</time></trkpt><trkpt lat="41.1533083" lon="13.9400617"><ele>65.0</ele><time>2026-04-11T10:15:46.858Z</time></trkpt><trkpt lat="41.1532483" lon="13.94001"><ele>65.0</ele><time>2026-04-11T10:15:47.858Z</time></trkpt><trkpt lat="41.1531883" lon="13.9399567"><ele>65.0</ele><time>2026-04-11T10:15:48.86Z</time></trkpt><trkpt lat="41.1531267" lon="13.9399033"><ele>65.00000000000001</ele><time>2026-04-11T10:15:49.86Z</time></trkpt><trkpt lat="41.1530633" lon="13.9398517"><ele>65.0</ele><time>2026-04-11T10:15:50.859Z</time></trkpt><trkpt lat="41.1530017" lon="13.9397967"><ele>65.42857142857143</ele><time>2026-04-11T10:15:51.858Z</time></trkpt><trkpt lat="41.1529417" lon="13.9397433"><ele>65.85714285714286</ele><time>2026-04-11T10:15:52.858Z</time></trkpt><trkpt lat="41.1528833" lon="13.9396833"><ele>66.28571428571428</ele><time>2026-04-11T10:15:53.86Z</time></trkpt><trkpt lat="41.1528283" lon="13.93962"><ele>66.71428571428572</ele><time>2026-04-11T10:15:54.858Z</time></trkpt><trkpt lat="41.15277" lon="13.9395617"><ele>67.14285714285714</ele><time>2026-04-11T10:15:55.859Z</time></trkpt><trkpt lat="41.1527117" lon="13.9395033"><ele>67.57142857142857</ele><time>2026-04-11T10:15:56.86Z</time></trkpt><trkpt lat="41.1526517" lon="13.9394467"><ele>68.0</ele><time>2026-04-11T10:15:57.859Z</time></trkpt><trkpt lat="41.1525917" lon="13.9393917"><ele>68.0</ele><time>2026-04-11T10:15:58.857Z</time></trkpt><trkpt lat="41.15253" lon="13.9393333"><ele>68.0</ele><time>2026-04-11T10:15:59.859Z</time></trkpt><trkpt lat="41.15247" lon="13.9392733"><ele>68.0</ele><time>2026-04-11T10:16:00.862Z</time></trkpt><trkpt lat="41.1524083" lon="13.9392117"><ele>68.0</ele><time>2026-04-11T10:16:01.858Z</time></trkpt><trkpt lat="41.1523417" lon="13.939155"><ele>68.0</ele><time>2026-04-11T10:16:02.857Z</time></trkpt><trkpt lat="41.152275" lon="13.9390983"><ele>68.0</ele><time>2026-04-11T10:16:03.86Z</time></trkpt><trkpt lat="41.15221" lon="13.939045"><ele>67.33333333333334</ele><time>2026-04-11T10:16:04.857Z</time></trkpt><trkpt lat="41.15214" lon="13.93899"><ele>66.66666666666667</ele><time>2026-04-11T10:16:05.857Z</time></trkpt><trkpt lat="41.1520683" lon="13.9389367"><ele>66.0</ele><time>2026-04-11T10:16:06.859Z</time></trkpt><trkpt lat="41.1519933" lon="13.9388817"><ele>65.33333333333333</ele><time>2026-04-11T10:16:07.859Z</time></trkpt><trkpt lat="41.151915" lon="13.9388233"><ele>64.66666666666666</ele><time>2026-04-11T10:16:08.859Z</time></trkpt><trkpt lat="41.1518383" lon="13.93876"><ele>64.0</ele><time>2026-04-11T10:16:09.857Z</time></trkpt><trkpt lat="41.1517583" lon="13.9387"><ele>64.0</ele><time>2026-04-11T10:16:10.86Z</time></trkpt><trkpt lat="41.151675" lon="13.93864"><ele>64.0</ele><time>2026-04-11T10:16:11.859Z</time></trkpt><trkpt lat="41.1515917" lon="13.9385783"><ele>64.0</ele><time>2026-04-11T10:16:12.858Z</time></trkpt><trkpt lat="41.1515067" lon="13.9385167"><ele>64.0</ele><time>2026-04-11T10:16:13.859Z</time></trkpt><trkpt lat="41.1514183" lon="13.938455"><ele>64.0</ele><time>2026-04-11T10:16:14.858Z</time></trkpt><trkpt lat="41.1513333" lon="13.9383917"><ele>64.0</ele><time>2026-04-11T10:16:15.861Z</time></trkpt><trkpt lat="41.1512483" lon="13.9383283"><ele>64.0</ele><time>2026-04-11T10:16:16.859Z</time></trkpt><trkpt lat="41.1511617" lon="13.9382633"><ele>64.0</ele><time>2026-04-11T10:16:17.86Z</time></trkpt><trkpt lat="41.1510717" lon="13.9382"><ele>64.0</ele><time>2026-04-11T10:16:18.859Z</time></trkpt><trkpt lat="41.1509817" lon="13.9381317"><ele>64.0</ele><time>2026-04-11T10:16:19.858Z</time></trkpt><trkpt lat="41.1508917" lon="13.93806"><ele>64.0</ele><time>2026-04-11T10:16:20.858Z</time></trkpt><trkpt lat="41.1508033" lon="13.9379933"><ele>64.0</ele><time>2026-04-11T10:16:21.858Z</time></trkpt><trkpt lat="41.1507133" lon="13.937925"><ele>64.0</ele><time>2026-04-11T10:16:22.858Z</time></trkpt><trkpt lat="41.15063" lon="13.9378517"><ele>64.0</ele><time>2026-04-11T10:16:23.858Z</time></trkpt><trkpt lat="41.1505483" lon="13.9377783"><ele>64.0</ele><time>2026-04-11T10:16:24.857Z</time></trkpt><trkpt lat="41.15047" lon="13.937705"><ele>64.0</ele><time>2026-04-11T10:16:25.86Z</time></trkpt><trkpt lat="41.1503883" lon="13.9376383"><ele>64.0</ele><time>2026-04-11T10:16:26.86Z</time></trkpt><trkpt lat="41.150305" lon="13.937575"><ele>64.0</ele><time>2026-04-11T10:16:27.859Z</time></trkpt><trkpt lat="41.1502233" lon="13.9375117"><ele>64.0</ele><time>2026-04-11T10:16:28.858Z</time></trkpt><trkpt lat="41.15014" lon="13.93745"><ele>64.0</ele><time>2026-04-11T10:16:29.859Z</time></trkpt><trkpt lat="41.150055" lon="13.93739"><ele>64.0</ele><time>2026-04-11T10:16:30.859Z</time></trkpt><trkpt lat="41.149975" lon="13.9373267"><ele>64.0</ele><time>2026-04-11T10:16:31.86Z</time></trkpt><trkpt lat="41.1498967" lon="13.9372667"><ele>64.0</ele><time>2026-04-11T10:16:32.859Z</time></trkpt><trkpt lat="41.1498183" lon="13.9372017"><ele>64.0</ele><time>2026-04-11T10:16:33.858Z</time></trkpt><trkpt lat="41.149745" lon="13.9371333"><ele>64.0</ele><time>2026-04-11T10:16:34.86Z</time></trkpt><trkpt lat="41.1496717" lon="13.93706"><ele>63.666666666666664</ele><time>2026-04-11T10:16:35.859Z</time></trkpt><trkpt lat="41.1496" lon="13.93699"><ele>63.33333333333333</ele><time>2026-04-11T10:16:36.858Z</time></trkpt><trkpt lat="41.149525" lon="13.93693"><ele>63.0</ele><time>2026-04-11T10:16:37.86Z</time></trkpt><trkpt lat="41.14945" lon="13.9368683"><ele>62.66666666666667</ele><time>2026-04-11T10:16:38.859Z</time></trkpt><trkpt lat="41.14938" lon="13.9368017"><ele>62.333333333333336</ele><time>2026-04-11T10:16:39.859Z</time></trkpt><trkpt lat="41.14931" lon="13.9367333"><ele>62.0</ele><time>2026-04-11T10:16:40.859Z</time></trkpt><trkpt lat="41.14924" lon="13.9366667"><ele>62.00000000000001</ele><time>2026-04-11T10:16:41.859Z</time></trkpt><trkpt lat="41.14917" lon="13.9366"><ele>62.0</ele><time>2026-04-11T10:16:42.86Z</time></trkpt><trkpt lat="41.1491017" lon="13.9365267"><ele>62.0</ele><time>2026-04-11T10:16:43.86Z</time></trkpt><trkpt lat="41.1490317" lon="13.9364567"><ele>62.0</ele><time>2026-04-11T10:16:44.857Z</time></trkpt><trkpt lat="41.1489633" lon="13.9363883"><ele>62.00000000000001</ele><time>2026-04-11T10:16:45.858Z</time></trkpt><trkpt lat="41.1488967" lon="13.9363217"><ele>62.0</ele><time>2026-04-11T10:16:46.859Z</time></trkpt><trkpt lat="41.148825" lon="13.936255"><ele>62.16666666666667</ele><time>2026-04-11T10:16:47.86Z</time></trkpt><trkpt lat="41.148755" lon="13.9361917"><ele>62.333333333333336</ele><time>2026-04-11T10:16:48.859Z</time></trkpt><trkpt lat="41.1486833" lon="13.9361283"><ele>62.5</ele><time>2026-04-11T10:16:49.86Z</time></trkpt><trkpt lat="41.14861" lon="13.9360667"><ele>62.66666666666667</ele><time>2026-04-11T10:16:50.86Z</time></trkpt><trkpt lat="41.1485383" lon="13.9360017"><ele>62.833333333333336</ele><time>2026-04-11T10:16:51.858Z</time></trkpt><trkpt lat="41.1484667" lon="13.9359383"><ele>63.0</ele><time>2026-04-11T10:16:52.858Z</time></trkpt><trkpt lat="41.1483967" lon="13.93587"><ele>63.0</ele><time>2026-04-11T10:16:53.86Z</time></trkpt><trkpt lat="41.148325" lon="13.9358017"><ele>63.0</ele><time>2026-04-11T10:16:54.858Z</time></trkpt><trkpt lat="41.148255" lon="13.9357333"><ele>63.0</ele><time>2026-04-11T10:16:55.86Z</time></trkpt><trkpt lat="41.1481833" lon="13.9356633"><ele>63.0</ele><time>2026-04-11T10:16:56.858Z</time></trkpt><trkpt lat="41.1481117" lon="13.935595"><ele>63.0</ele><time>2026-04-11T10:16:57.857Z</time></trkpt><trkpt lat="41.1480417" lon="13.9355283"><ele>63.0</ele><time>2026-04-11T10:16:58.861Z</time></trkpt><trkpt lat="41.1479717" lon="13.9354617"><ele>62.5</ele><time>2026-04-11T10:16:59.859Z</time></trkpt><trkpt lat="41.1479" lon="13.9353967"><ele>62.0</ele><time>2026-04-11T10:17:00.858Z</time></trkpt><trkpt lat="41.1478283" lon="13.9353317"><ele>61.5</ele><time>2026-04-11T10:17:01.859Z</time></trkpt><trkpt lat="41.14776" lon="13.9352667"><ele>61.0</ele><time>2026-04-11T10:17:02.86Z</time></trkpt><trkpt lat="41.1476917" lon="13.9352017"><ele>60.5</ele><time>2026-04-11T10:17:03.858Z</time></trkpt><trkpt lat="41.1476217" lon="13.93514"><ele>60.0</ele><time>2026-04-11T10:17:04.858Z</time></trkpt><trkpt lat="41.147555" lon="13.9350767"><ele>59.833333333333336</ele><time>2026-04-11T10:17:05.859Z</time></trkpt><trkpt lat="41.1474867" lon="13.9350117"><ele>59.66666666666667</ele><time>2026-04-11T10:17:06.86Z</time></trkpt><trkpt lat="41.14742" lon="13.934945"><ele>59.5</ele><time>2026-04-11T10:17:07.86Z</time></trkpt><trkpt lat="41.1473533" lon="13.9348767"><ele>59.333333333333336</ele><time>2026-04-11T10:17:08.859Z</time></trkpt><trkpt lat="41.147285" lon="13.93481"><ele>59.16666666666667</ele><time>2026-04-11T10:17:09.859Z</time></trkpt><trkpt lat="41.1472183" lon="13.9347433"><ele>59.0</ele><time>2026-04-11T10:17:10.859Z</time></trkpt><trkpt lat="41.1471533" lon="13.934675"><ele>59.00000000000001</ele><time>2026-04-11T10:17:11.86Z</time></trkpt><trkpt lat="41.14709" lon="13.9346067"><ele>59.0</ele><time>2026-04-11T10:17:12.86Z</time></trkpt><trkpt lat="41.147025" lon="13.9345383"><ele>59.0</ele><time>2026-04-11T10:17:13.858Z</time></trkpt><trkpt lat="41.1469617" lon="13.93447"><ele>59.0</ele><time>2026-04-11T10:17:14.859Z</time></trkpt><trkpt lat="41.1468967" lon="13.9344033"><ele>59.00000000000001</ele><time>2026-04-11T10:17:15.858Z</time></trkpt><trkpt lat="41.1468333" lon="13.9343367"><ele>59.0</ele><time>2026-04-11T10:17:16.858Z</time></trkpt><trkpt lat="41.1467683" lon="13.9342733"><ele>59.333333333333336</ele><time>2026-04-11T10:17:17.86Z</time></trkpt><trkpt lat="41.1467033" lon="13.9342117"><ele>59.66666666666667</ele><time>2026-04-11T10:17:18.859Z</time></trkpt><trkpt lat="41.146635" lon="13.93415"><ele>60.0</ele><time>2026-04-11T10:17:19.86Z</time></trkpt><trkpt lat="41.1465717" lon="13.9340833"><ele>60.33333333333333</ele><time>2026-04-11T10:17:20.859Z</time></trkpt><trkpt lat="41.1465133" lon="13.934015"><ele>60.666666666666664</ele><time>2026-04-11T10:17:21.859Z</time></trkpt><trkpt lat="41.146455" lon="13.933945"><ele>61.0</ele><time>2026-04-11T10:17:22.858Z</time></trkpt><trkpt lat="41.1464" lon="13.933875"><ele>60.99999999999999</ele><time>2026-04-11T10:17:23.86Z</time></trkpt><trkpt lat="41.1463433" lon="13.933805"><ele>61.0</ele><time>2026-04-11T10:17:24.859Z</time></trkpt><trkpt lat="41.1462867" lon="13.9337317"><ele>61.0</ele><time>2026-04-11T10:17:25.858Z</time></trkpt><trkpt lat="41.146235" lon="13.9336583"><ele>61.0</ele><time>2026-04-11T10:17:26.859Z</time></trkpt><trkpt lat="41.146185" lon="13.9335867"><ele>60.99999999999999</ele><time>2026-04-11T10:17:27.858Z</time></trkpt><trkpt lat="41.1461333" lon="13.9335133"><ele>61.0</ele><time>2026-04-11T10:17:28.859Z</time></trkpt><trkpt lat="41.146085" lon="13.9334367"><ele>61.28571428571428</ele><time>2026-04-11T10:17:29.858Z</time></trkpt><trkpt lat="41.1460383" lon="13.93336"><ele>61.57142857142857</ele><time>2026-04-11T10:17:30.857Z</time></trkpt><trkpt lat="41.1459917" lon="13.9332833"><ele>61.857142857142854</ele><time>2026-04-11T10:17:31.86Z</time></trkpt><trkpt lat="41.1459417" lon="13.9332117"><ele>62.14285714285714</ele><time>2026-04-11T10:17:32.859Z</time></trkpt><trkpt lat="41.1458933" lon="13.93314"><ele>62.42857142857143</ele><time>2026-04-11T10:17:33.86Z</time></trkpt><trkpt lat="41.145845" lon="13.93307"><ele>62.714285714285715</ele><time>2026-04-11T10:17:34.858Z</time></trkpt><trkpt lat="41.1457933" lon="13.9330017"><ele>63.0</ele><time>2026-04-11T10:17:35.859Z</time></trkpt><trkpt lat="41.1457417" lon="13.932935"><ele>62.57142857142857</ele><time>2026-04-11T10:17:36.86Z</time></trkpt><trkpt lat="41.1456933" lon="13.9328633"><ele>62.14285714285714</ele><time>2026-04-11T10:17:37.86Z</time></trkpt><trkpt lat="41.1456483" lon="13.93279"><ele>61.714285714285715</ele><time>2026-04-11T10:17:38.858Z</time></trkpt><trkpt lat="41.1455983" lon="13.9327183"><ele>61.285714285714285</ele><time>2026-04-11T10:17:39.859Z</time></trkpt><trkpt lat="41.1455483" lon="13.9326483"><ele>60.857142857142854</ele><time>2026-04-11T10:17:40.858Z</time></trkpt><trkpt lat="41.145505" lon="13.932575"><ele>60.42857142857143</ele><time>2026-04-11T10:17:41.86Z</time></trkpt><trkpt lat="41.1454567" lon="13.932505"><ele>60.0</ele><time>2026-04-11T10:17:42.86Z</time></trkpt><trkpt lat="41.1454067" lon="13.9324383"><ele>60.0</ele><time>2026-04-11T10:17:43.858Z</time></trkpt><trkpt lat="41.1453567" lon="13.93237"><ele>60.0</ele><time>2026-04-11T10:17:44.858Z</time></trkpt><trkpt lat="41.14531" lon="13.9323033"><ele>60.0</ele><time>2026-04-11T10:17:45.858Z</time></trkpt><trkpt lat="41.14526" lon="13.932235"><ele>60.0</ele><time>2026-04-11T10:17:46.86Z</time></trkpt><trkpt lat="41.1452083" lon="13.93217"><ele>60.0</ele><time>2026-04-11T10:17:47.858Z</time></trkpt><trkpt lat="41.14516" lon="13.9321017"><ele>60.0</ele><time>2026-04-11T10:17:48.86Z</time></trkpt><trkpt lat="41.14511" lon="13.932035"><ele>60.0</ele><time>2026-04-11T10:17:49.86Z</time></trkpt><trkpt lat="41.1450617" lon="13.9319667"><ele>60.0</ele><time>2026-04-11T10:17:50.859Z</time></trkpt><trkpt lat="41.145015" lon="13.931895"><ele>60.0</ele><time>2026-04-11T10:17:51.857Z</time></trkpt><trkpt lat="41.1449633" lon="13.931825"><ele>60.0</ele><time>2026-04-11T10:17:52.86Z</time></trkpt><trkpt lat="41.1449117" lon="13.9317567"><ele>60.0</ele><time>2026-04-11T10:17:53.859Z</time></trkpt><trkpt lat="41.1448633" lon="13.9316867"><ele>60.0</ele><time>2026-04-11T10:17:54.859Z</time></trkpt><trkpt lat="41.144815" lon="13.931615"><ele>60.0</ele><time>2026-04-11T10:17:55.86Z</time></trkpt><trkpt lat="41.1447667" lon="13.9315433"><ele>60.0</ele><time>2026-04-11T10:17:56.858Z</time></trkpt><trkpt lat="41.14472" lon="13.9314717"><ele>60.42857142857143</ele><time>2026-04-11T10:17:57.86Z</time></trkpt><trkpt lat="41.1446717" lon="13.9314"><ele>60.857142857142854</ele><time>2026-04-11T10:17:58.86Z</time></trkpt><trkpt lat="41.1446233" lon="13.93133"><ele>61.285714285714285</ele><time>2026-04-11T10:17:59.858Z</time></trkpt><trkpt lat="41.1445767" lon="13.93126"><ele>61.714285714285715</ele><time>2026-04-11T10:18:00.858Z</time></trkpt><trkpt lat="41.14453" lon="13.9311933"><ele>62.14285714285714</ele><time>2026-04-11T10:18:01.86Z</time></trkpt><trkpt lat="41.1444867" lon="13.9311267"><ele>62.57142857142857</ele><time>2026-04-11T10:18:02.859Z</time></trkpt><trkpt lat="41.1444383" lon="13.9310633"><ele>63.0</ele><time>2026-04-11T10:18:03.859Z</time></trkpt><trkpt lat="41.14439" lon="13.9309983"><ele>63.0</ele><time>2026-04-11T10:18:04.859Z</time></trkpt><trkpt lat="41.144345" lon="13.9309333"><ele>63.0</ele><time>2026-04-11T10:18:05.86Z</time></trkpt><trkpt lat="41.1443" lon="13.930865"><ele>63.0</ele><time>2026-04-11T10:18:06.859Z</time></trkpt><trkpt lat="41.144255" lon="13.930795"><ele>63.0</ele><time>2026-04-11T10:18:07.86Z</time></trkpt><trkpt lat="41.1442133" lon="13.9307233"><ele>63.0</ele><time>2026-04-11T10:18:08.859Z</time></trkpt><trkpt lat="41.1441717" lon="13.9306517"><ele>63.0</ele><time>2026-04-11T10:18:09.858Z</time></trkpt><trkpt lat="41.1441267" lon="13.9305817"><ele>63.0</ele><time>2026-04-11T10:18:10.858Z</time></trkpt><trkpt lat="41.1440817" lon="13.9305133"><ele>63.285714285714285</ele><time>2026-04-11T10:18:11.86Z</time></trkpt><trkpt lat="41.1440367" lon="13.930445"><ele>63.57142857142857</ele><time>2026-04-11T10:18:12.86Z</time></trkpt><trkpt lat="41.1439867" lon="13.93038"><ele>63.85714285714286</ele><time>2026-04-11T10:18:13.86Z</time></trkpt><trkpt lat="41.1439383" lon="13.930315"><ele>64.14285714285714</ele><time>2026-04-11T10:18:14.859Z</time></trkpt><trkpt lat="41.1438933" lon="13.9302467"><ele>64.42857142857143</ele><time>2026-04-11T10:18:15.86Z</time></trkpt><trkpt lat="41.1438533" lon="13.9301767"><ele>64.71428571428572</ele><time>2026-04-11T10:18:16.859Z</time></trkpt><trkpt lat="41.1438133" lon="13.9301067"><ele>65.0</ele><time>2026-04-11T10:18:17.859Z</time></trkpt><trkpt lat="41.1437717" lon="13.9300383"><ele>65.00000000000001</ele><time>2026-04-11T10:18:18.858Z</time></trkpt><trkpt lat="41.1437267" lon="13.9299717"><ele>65.0</ele><time>2026-04-11T10:18:19.86Z</time></trkpt><trkpt lat="41.1436817" lon="13.9299083"><ele>65.0</ele><time>2026-04-11T10:18:20.858Z</time></trkpt><trkpt lat="41.1436367" lon="13.9298467"><ele>65.0</ele><time>2026-04-11T10:18:21.858Z</time></trkpt><trkpt lat="41.143585" lon="13.9297883"><ele>65.0</ele><time>2026-04-11T10:18:22.86Z</time></trkpt><trkpt lat="41.1435333" lon="13.9297317"><ele>65.00000000000001</ele><time>2026-04-11T10:18:23.86Z</time></trkpt><trkpt lat="41.143485" lon="13.929675"><ele>65.0</ele><time>2026-04-11T10:18:24.86Z</time></trkpt><trkpt lat="41.1433917" lon="13.9295633"><ele>65.00000000000001</ele><time>2026-04-11T10:18:26.859Z</time></trkpt><trkpt lat="41.143345" lon="13.9295017"><ele>65.0</ele><time>2026-04-11T10:18:27.857Z</time></trkpt><trkpt lat="41.1433" lon="13.92944"><ele>65.0</ele><time>2026-04-11T10:18:28.86Z</time></trkpt><trkpt lat="41.1432533" lon="13.9293783"><ele>65.0</ele><time>2026-04-11T10:18:29.859Z</time></trkpt><trkpt lat="41.1432067" lon="13.9293133"><ele>65.0</ele><time>2026-04-11T10:18:30.86Z</time></trkpt><trkpt lat="41.1431617" lon="13.929245"><ele>65.00000000000001</ele><time>2026-04-11T10:18:31.86Z</time></trkpt><trkpt lat="41.1431183" lon="13.929175"><ele>65.0</ele><time>2026-04-11T10:18:32.859Z</time></trkpt><trkpt lat="41.143075" lon="13.929105"><ele>64.85714285714286</ele><time>2026-04-11T10:18:33.859Z</time></trkpt><trkpt lat="41.143025" lon="13.92904"><ele>64.71428571428572</ele><time>2026-04-11T10:18:34.86Z</time></trkpt><trkpt lat="41.1429767" lon="13.9289733"><ele>64.57142857142857</ele><time>2026-04-11T10:18:35.86Z</time></trkpt><trkpt lat="41.14293" lon="13.9289067"><ele>64.42857142857143</ele><time>2026-04-11T10:18:36.858Z</time></trkpt><trkpt lat="41.1428817" lon="13.9288367"><ele>64.28571428571428</ele><time>2026-04-11T10:18:37.86Z</time></trkpt><trkpt lat="41.14284" lon="13.9287633"><ele>64.14285714285714</ele><time>2026-04-11T10:18:38.86Z</time></trkpt><trkpt lat="41.142795" lon="13.92869"><ele>64.0</ele><time>2026-04-11T10:18:39.858Z</time></trkpt><trkpt lat="41.1427467" lon="13.928615"><ele>64.0</ele><time>2026-04-11T10:18:40.859Z</time></trkpt><trkpt lat="41.1426983" lon="13.928545"><ele>63.99999999999999</ele><time>2026-04-11T10:18:41.86Z</time></trkpt><trkpt lat="41.14265" lon="13.928475"><ele>64.0</ele><time>2026-04-11T10:18:42.86Z</time></trkpt><trkpt lat="41.1426033" lon="13.928405"><ele>64.0</ele><time>2026-04-11T10:18:43.859Z</time></trkpt><trkpt lat="41.142555" lon="13.92833"><ele>63.99999999999999</ele><time>2026-04-11T10:18:44.86Z</time></trkpt><trkpt lat="41.14251" lon="13.9282567"><ele>64.0</ele><time>2026-04-11T10:18:45.859Z</time></trkpt><trkpt lat="41.1424617" lon="13.9281817"><ele>64.0</ele><time>2026-04-11T10:18:46.857Z</time></trkpt><trkpt lat="41.142415" lon="13.928105"><ele>64.16666666666666</ele><time>2026-04-11T10:18:47.858Z</time></trkpt><trkpt lat="41.142365" lon="13.9280283"><ele>64.33333333333333</ele><time>2026-04-11T10:18:48.86Z</time></trkpt><trkpt lat="41.1423183" lon="13.9279533"><ele>64.5</ele><time>2026-04-11T10:18:49.858Z</time></trkpt><trkpt lat="41.1422733" lon="13.9278767"><ele>64.66666666666667</ele><time>2026-04-11T10:18:50.86Z</time></trkpt><trkpt lat="41.142225" lon="13.9278"><ele>64.83333333333334</ele><time>2026-04-11T10:18:51.859Z</time></trkpt><trkpt lat="41.142175" lon="13.9277233"><ele>65.0</ele><time>2026-04-11T10:18:52.858Z</time></trkpt><trkpt lat="41.1421233" lon="13.92765"><ele>65.00000000000001</ele><time>2026-04-11T10:18:53.86Z</time></trkpt><trkpt lat="41.1420733" lon="13.927575"><ele>65.0</ele><time>2026-04-11T10:18:54.86Z</time></trkpt><trkpt lat="41.14202" lon="13.9275033"><ele>65.0</ele><time>2026-04-11T10:18:55.86Z</time></trkpt><trkpt lat="41.1419683" lon="13.9274333"><ele>65.0</ele><time>2026-04-11T10:18:56.858Z</time></trkpt><trkpt lat="41.1419233" lon="13.9273583"><ele>65.0</ele><time>2026-04-11T10:18:57.859Z</time></trkpt><trkpt lat="41.141875" lon="13.9272817"><ele>65.00000000000001</ele><time>2026-04-11T10:18:58.86Z</time></trkpt><trkpt lat="41.1418283" lon="13.927205"><ele>65.0</ele><time>2026-04-11T10:18:59.86Z</time></trkpt><trkpt lat="41.14178" lon="13.9271317"><ele>65.00000000000001</ele><time>2026-04-11T10:19:00.858Z</time></trkpt><trkpt lat="41.14173" lon="13.9270583"><ele>65.0</ele><time>2026-04-11T10:19:01.859Z</time></trkpt><trkpt lat="41.14168" lon="13.9269917"><ele>65.0</ele><time>2026-04-11T10:19:02.858Z</time></trkpt><trkpt lat="41.1416317" lon="13.9269217"><ele>65.0</ele><time>2026-04-11T10:19:03.859Z</time></trkpt><trkpt lat="41.1415833" lon="13.926855"><ele>65.0</ele><time>2026-04-11T10:19:04.859Z</time></trkpt><trkpt lat="41.14153" lon="13.9267917"><ele>65.00000000000001</ele><time>2026-04-11T10:19:05.859Z</time></trkpt><trkpt lat="41.1414783" lon="13.92673"><ele>65.0</ele><time>2026-04-11T10:19:06.859Z</time></trkpt><trkpt lat="41.14143" lon="13.9266617"><ele>65.00000000000001</ele><time>2026-04-11T10:19:07.86Z</time></trkpt><trkpt lat="41.1413767" lon="13.9265933"><ele>65.0</ele><time>2026-04-11T10:19:08.859Z</time></trkpt><trkpt lat="41.1413267" lon="13.9265267"><ele>65.0</ele><time>2026-04-11T10:19:09.858Z</time></trkpt><trkpt lat="41.1412767" lon="13.92646"><ele>65.0</ele><time>2026-04-11T10:19:10.858Z</time></trkpt><trkpt lat="41.14123" lon="13.9263917"><ele>65.0</ele><time>2026-04-11T10:19:11.861Z</time></trkpt><trkpt lat="41.1411783" lon="13.9263267"><ele>65.00000000000001</ele><time>2026-04-11T10:19:12.86Z</time></trkpt><trkpt lat="41.1411283" lon="13.92626"><ele>65.0</ele><time>2026-04-11T10:19:13.86Z</time></trkpt><trkpt lat="41.1410767" lon="13.926195"><ele>65.00000000000001</ele><time>2026-04-11T10:19:14.859Z</time></trkpt><trkpt lat="41.141025" lon="13.926125"><ele>65.0</ele><time>2026-04-11T10:19:15.86Z</time></trkpt><trkpt lat="41.14097" lon="13.9260617"><ele>65.0</ele><time>2026-04-11T10:19:16.858Z</time></trkpt><trkpt lat="41.140915" lon="13.925995"><ele>65.0</ele><time>2026-04-11T10:19:17.859Z</time></trkpt><trkpt lat="41.1408617" lon="13.9259267"><ele>65.0</ele><time>2026-04-11T10:19:18.859Z</time></trkpt><trkpt lat="41.1408117" lon="13.9258533"><ele>65.00000000000001</ele><time>2026-04-11T10:19:19.859Z</time></trkpt><trkpt lat="41.14076" lon="13.92578"><ele>65.0</ele><time>2026-04-11T10:19:20.858Z</time></trkpt><trkpt lat="41.14071" lon="13.9257083"><ele>64.83333333333334</ele><time>2026-04-11T10:19:21.859Z</time></trkpt><trkpt lat="41.1406567" lon="13.92564"><ele>64.66666666666667</ele><time>2026-04-11T10:19:22.86Z</time></trkpt><trkpt lat="41.1405967" lon="13.9255767"><ele>64.5</ele><time>2026-04-11T10:19:23.859Z</time></trkpt><trkpt lat="41.1405367" lon="13.925515"><ele>64.33333333333333</ele><time>2026-04-11T10:19:24.86Z</time></trkpt><trkpt lat="41.1404717" lon="13.925455"><ele>64.16666666666666</ele><time>2026-04-11T10:19:25.86Z</time></trkpt><trkpt lat="41.1404033" lon="13.9254"><ele>64.0</ele><time>2026-04-11T10:19:26.858Z</time></trkpt><trkpt lat="41.1403367" lon="13.9253467"><ele>63.99999999999999</ele><time>2026-04-11T10:19:27.858Z</time></trkpt><trkpt lat="41.14027" lon="13.9252933"><ele>64.0</ele><time>2026-04-11T10:19:28.859Z</time></trkpt><trkpt lat="41.140205" lon="13.925235"><ele>64.0</ele><time>2026-04-11T10:19:29.859Z</time></trkpt><trkpt lat="41.1401383" lon="13.9251783"><ele>64.0</ele><time>2026-04-11T10:19:30.858Z</time></trkpt><trkpt lat="41.1400667" lon="13.925125"><ele>63.99999999999999</ele><time>2026-04-11T10:19:31.86Z</time></trkpt><trkpt lat="41.1399983" lon="13.925075"><ele>64.0</ele><time>2026-04-11T10:19:32.859Z</time></trkpt><trkpt lat="41.13993" lon="13.9250267"><ele>64.16666666666666</ele><time>2026-04-11T10:19:33.86Z</time></trkpt><trkpt lat="41.1398617" lon="13.9249717"><ele>64.33333333333333</ele><time>2026-04-11T10:19:34.86Z</time></trkpt><trkpt lat="41.13979" lon="13.92492"><ele>64.5</ele><time>2026-04-11T10:19:35.859Z</time></trkpt><trkpt lat="41.1397233" lon="13.9248633"><ele>64.66666666666667</ele><time>2026-04-11T10:19:36.859Z</time></trkpt><trkpt lat="41.1396533" lon="13.9248067"><ele>64.83333333333334</ele><time>2026-04-11T10:19:37.859Z</time></trkpt><trkpt lat="41.139585" lon="13.9247467"><ele>65.0</ele><time>2026-04-11T10:19:38.858Z</time></trkpt><trkpt lat="41.139515" lon="13.924685"><ele>65.0</ele><time>2026-04-11T10:19:39.858Z</time></trkpt><trkpt lat="41.1394433" lon="13.924625"><ele>65.0</ele><time>2026-04-11T10:19:40.858Z</time></trkpt><trkpt lat="41.1393733" lon="13.9245633"><ele>65.0</ele><time>2026-04-11T10:19:41.858Z</time></trkpt><trkpt lat="41.1393033" lon="13.9245017"><ele>65.0</ele><time>2026-04-11T10:19:42.861Z</time></trkpt><trkpt lat="41.1392317" lon="13.92444"><ele>65.0</ele><time>2026-04-11T10:19:43.859Z</time></trkpt><trkpt lat="41.1391583" lon="13.9243817"><ele>65.0</ele><time>2026-04-11T10:19:44.859Z</time></trkpt><trkpt lat="41.139085" lon="13.9243217"><ele>64.5</ele><time>2026-04-11T10:19:45.858Z</time></trkpt><trkpt lat="41.139015" lon="13.9242567"><ele>64.0</ele><time>2026-04-11T10:19:46.86Z</time></trkpt><trkpt lat="41.138945" lon="13.92419"><ele>63.5</ele><time>2026-04-11T10:19:47.861Z</time></trkpt><trkpt lat="41.1388717" lon="13.9241233"><ele>63.0</ele><time>2026-04-11T10:19:48.859Z</time></trkpt><trkpt lat="41.1387967" lon="13.9240567"><ele>62.50000000000001</ele><time>2026-04-11T10:19:49.86Z</time></trkpt><trkpt lat="41.1387183" lon="13.92399"><ele>62.0</ele><time>2026-04-11T10:19:50.86Z</time></trkpt><trkpt lat="41.13864" lon="13.9239217"><ele>62.0</ele><time>2026-04-11T10:19:51.859Z</time></trkpt><trkpt lat="41.1385633" lon="13.9238533"><ele>62.0</ele><time>2026-04-11T10:19:52.859Z</time></trkpt><trkpt lat="41.1384867" lon="13.9237833"><ele>62.0</ele><time>2026-04-11T10:19:53.86Z</time></trkpt><trkpt lat="41.1384083" lon="13.9237133"><ele>62.0</ele><time>2026-04-11T10:19:54.858Z</time></trkpt><trkpt lat="41.1383283" lon="13.9236433"><ele>62.0</ele><time>2026-04-11T10:19:55.86Z</time></trkpt><trkpt lat="41.1382467" lon="13.9235733"><ele>61.6</ele><time>2026-04-11T10:19:56.86Z</time></trkpt><trkpt lat="41.138165" lon="13.9235067"><ele>61.2</ele><time>2026-04-11T10:19:57.858Z</time></trkpt><trkpt lat="41.1380833" lon="13.92344"><ele>60.8</ele><time>2026-04-11T10:19:58.856Z</time></trkpt><trkpt lat="41.1380033" lon="13.923375"><ele>60.4</ele><time>2026-04-11T10:19:59.859Z</time></trkpt><trkpt lat="41.1379267" lon="13.923305"><ele>60.0</ele><time>2026-04-11T10:20:00.86Z</time></trkpt><trkpt lat="41.1378517" lon="13.9232317"><ele>60.0</ele><time>2026-04-11T10:20:01.86Z</time></trkpt><trkpt lat="41.1377717" lon="13.9231583"><ele>60.0</ele><time>2026-04-11T10:20:02.858Z</time></trkpt><trkpt lat="41.1376917" lon="13.9230867"><ele>60.0</ele><time>2026-04-11T10:20:03.86Z</time></trkpt><trkpt lat="41.1376117" lon="13.9230117"><ele>60.0</ele><time>2026-04-11T10:20:04.86Z</time></trkpt><trkpt lat="41.1375317" lon="13.92294"><ele>60.0</ele><time>2026-04-11T10:20:05.86Z</time></trkpt><trkpt lat="41.1374533" lon="13.9228667"><ele>59.4</ele><time>2026-04-11T10:20:06.86Z</time></trkpt><trkpt lat="41.1373717" lon="13.9227917"><ele>58.8</ele><time>2026-04-11T10:20:07.86Z</time></trkpt><trkpt lat="41.13729" lon="13.9227183"><ele>58.2</ele><time>2026-04-11T10:20:08.858Z</time></trkpt><trkpt lat="41.1372083" lon="13.9226433"><ele>57.6</ele><time>2026-04-11T10:20:09.859Z</time></trkpt><trkpt lat="41.1371267" lon="13.9225683"><ele>57.0</ele><time>2026-04-11T10:20:10.858Z</time></trkpt><trkpt lat="41.1370433" lon="13.9224933"><ele>57.0</ele><time>2026-04-11T10:20:11.859Z</time></trkpt><trkpt lat="41.1369583" lon="13.9224183"><ele>57.0</ele><time>2026-04-11T10:20:12.86Z</time></trkpt><trkpt lat="41.1368717" lon="13.922345"><ele>57.0</ele><time>2026-04-11T10:20:13.86Z</time></trkpt><trkpt lat="41.1367817" lon="13.9222717"><ele>57.0</ele><time>2026-04-11T10:20:14.859Z</time></trkpt><trkpt lat="41.1366917" lon="13.9221967"><ele>57.0</ele><time>2026-04-11T10:20:15.858Z</time></trkpt><trkpt lat="41.1366067" lon="13.9221167"><ele>56.400000000000006</ele><time>2026-04-11T10:20:16.858Z</time></trkpt><trkpt lat="41.1365167" lon="13.9220383"><ele>55.800000000000004</ele><time>2026-04-11T10:20:17.858Z</time></trkpt><trkpt lat="41.136425" lon="13.9219617"><ele>55.2</ele><time>2026-04-11T10:20:18.858Z</time></trkpt><trkpt lat="41.136335" lon="13.9218867"><ele>54.6</ele><time>2026-04-11T10:20:19.86Z</time></trkpt><trkpt lat="41.136245" lon="13.9218117"><ele>54.0</ele><time>2026-04-11T10:20:20.858Z</time></trkpt><trkpt lat="41.13616" lon="13.92174"><ele>54.400000000000006</ele><time>2026-04-11T10:20:21.858Z</time></trkpt><trkpt lat="41.1360767" lon="13.9216683"><ele>54.800000000000004</ele><time>2026-04-11T10:20:22.858Z</time></trkpt><trkpt lat="41.135995" lon="13.9216"><ele>55.199999999999996</ele><time>2026-04-11T10:20:23.86Z</time></trkpt><trkpt lat="41.1359133" lon="13.9215317"><ele>55.599999999999994</ele><time>2026-04-11T10:20:24.86Z</time></trkpt><trkpt lat="41.1358317" lon="13.921465"><ele>56.0</ele><time>2026-04-11T10:20:25.859Z</time></trkpt><trkpt lat="41.1357483" lon="13.9213967"><ele>56.4</ele><time>2026-04-11T10:20:26.858Z</time></trkpt><trkpt lat="41.1356667" lon="13.9213267"><ele>56.8</ele><time>2026-04-11T10:20:27.858Z</time></trkpt><trkpt lat="41.1355867" lon="13.921255"><ele>57.199999999999996</ele><time>2026-04-11T10:20:28.86Z</time></trkpt><trkpt lat="41.1355067" lon="13.9211833"><ele>57.599999999999994</ele><time>2026-04-11T10:20:29.859Z</time></trkpt><trkpt lat="41.1354267" lon="13.92111"><ele>58.0</ele><time>2026-04-11T10:20:30.86Z</time></trkpt><trkpt lat="41.1353433" lon="13.9210383"><ele>58.0</ele><time>2026-04-11T10:20:31.86Z</time></trkpt><trkpt lat="41.1352617" lon="13.9209667"><ele>58.0</ele><time>2026-04-11T10:20:32.86Z</time></trkpt><trkpt lat="41.135175" lon="13.920895"><ele>58.0</ele><time>2026-04-11T10:20:33.858Z</time></trkpt><trkpt lat="41.1350933" lon="13.9208217"><ele>58.0</ele><time>2026-04-11T10:20:34.86Z</time></trkpt><trkpt lat="41.135015" lon="13.9207517"><ele>58.0</ele><time>2026-04-11T10:20:35.86Z</time></trkpt><trkpt lat="41.1349333" lon="13.9206817"><ele>57.8</ele><time>2026-04-11T10:20:36.862Z</time></trkpt><trkpt lat="41.1348483" lon="13.9206133"><ele>57.599999999999994</ele><time>2026-04-11T10:20:37.86Z</time></trkpt><trkpt lat="41.134765" lon="13.9205417"><ele>57.400000000000006</ele><time>2026-04-11T10:20:38.858Z</time></trkpt><trkpt lat="41.1346833" lon="13.92047"><ele>57.2</ele><time>2026-04-11T10:20:39.859Z</time></trkpt><trkpt lat="41.1346" lon="13.9203983"><ele>57.0</ele><time>2026-04-11T10:20:40.86Z</time></trkpt><trkpt lat="41.13452" lon="13.9203267"><ele>57.0</ele><time>2026-04-11T10:20:41.86Z</time></trkpt><trkpt lat="41.1344367" lon="13.9202533"><ele>57.0</ele><time>2026-04-11T10:20:42.86Z</time></trkpt><trkpt lat="41.13435" lon="13.9201817"><ele>57.0</ele><time>2026-04-11T10:20:43.859Z</time></trkpt><trkpt lat="41.134265" lon="13.9201083"><ele>57.0</ele><time>2026-04-11T10:20:44.859Z</time></trkpt><trkpt lat="41.1341817" lon="13.920035"><ele>57.0</ele><time>2026-04-11T10:20:45.858Z</time></trkpt><trkpt lat="41.1341" lon="13.9199633"><ele>55.8</ele><time>2026-04-11T10:20:46.859Z</time></trkpt><trkpt lat="41.134015" lon="13.9198933"><ele>54.6</ele><time>2026-04-11T10:20:47.859Z</time></trkpt><trkpt lat="41.1339283" lon="13.9198233"><ele>53.4</ele><time>2026-04-11T10:20:48.858Z</time></trkpt><trkpt lat="41.13384" lon="13.9197517"><ele>52.199999999999996</ele><time>2026-04-11T10:20:49.859Z</time></trkpt><trkpt lat="41.13375" lon="13.9196783"><ele>51.0</ele><time>2026-04-11T10:20:50.86Z</time></trkpt><trkpt lat="41.13366" lon="13.9196033"><ele>51.0</ele><time>2026-04-11T10:20:51.858Z</time></trkpt><trkpt lat="41.133565" lon="13.91953"><ele>51.0</ele><time>2026-04-11T10:20:52.86Z</time></trkpt><trkpt lat="41.133475" lon="13.919455"><ele>51.0</ele><time>2026-04-11T10:20:53.858Z</time></trkpt><trkpt lat="41.133385" lon="13.9193783"><ele>51.0</ele><time>2026-04-11T10:20:54.86Z</time></trkpt><trkpt lat="41.1332967" lon="13.9193"><ele>51.0</ele><time>2026-04-11T10:20:55.859Z</time></trkpt><trkpt lat="41.133205" lon="13.9192217"><ele>50.8</ele><time>2026-04-11T10:20:56.862Z</time></trkpt><trkpt lat="41.1331133" lon="13.9191433"><ele>50.599999999999994</ele><time>2026-04-11T10:20:57.859Z</time></trkpt><trkpt lat="41.1330233" lon="13.919065"><ele>50.4</ele><time>2026-04-11T10:20:58.86Z</time></trkpt><trkpt lat="41.1329333" lon="13.9189833"><ele>50.2</ele><time>2026-04-11T10:20:59.859Z</time></trkpt><trkpt lat="41.1328483" lon="13.9189"><ele>50.0</ele><time>2026-04-11T10:21:00.861Z</time></trkpt><trkpt lat="41.1327633" lon="13.9188183"><ele>50.0</ele><time>2026-04-11T10:21:01.862Z</time></trkpt><trkpt lat="41.132675" lon="13.9187383"><ele>50.0</ele><time>2026-04-11T10:21:02.858Z</time></trkpt><trkpt lat="41.1325867" lon="13.9186633"><ele>50.0</ele><time>2026-04-11T10:21:03.859Z</time></trkpt><trkpt lat="41.1324967" lon="13.91859"><ele>50.0</ele><time>2026-04-11T10:21:04.857Z</time></trkpt><trkpt lat="41.1324067" lon="13.918515"><ele>50.0</ele><time>2026-04-11T10:21:05.858Z</time></trkpt><trkpt lat="41.13232" lon="13.9184383"><ele>49.2</ele><time>2026-04-11T10:21:06.862Z</time></trkpt><trkpt lat="41.132235" lon="13.9183617"><ele>48.4</ele><time>2026-04-11T10:21:07.859Z</time></trkpt><trkpt lat="41.1321483" lon="13.9182867"><ele>47.599999999999994</ele><time>2026-04-11T10:21:08.86Z</time></trkpt><trkpt lat="41.13206" lon="13.918215"><ele>46.8</ele><time>2026-04-11T10:21:09.859Z</time></trkpt><trkpt lat="41.13197" lon="13.9181417"><ele>46.0</ele><time>2026-04-11T10:21:10.86Z</time></trkpt><trkpt lat="41.13188" lon="13.91807"><ele>46.0</ele><time>2026-04-11T10:21:11.86Z</time></trkpt><trkpt lat="41.13179" lon="13.9179967"><ele>46.0</ele><time>2026-04-11T10:21:12.86Z</time></trkpt><trkpt lat="41.1317" lon="13.9179217"><ele>46.0</ele><time>2026-04-11T10:21:13.86Z</time></trkpt><trkpt lat="41.1316083" lon="13.9178467"><ele>46.0</ele><time>2026-04-11T10:21:14.859Z</time></trkpt><trkpt lat="41.1315183" lon="13.9177717"><ele>46.0</ele><time>2026-04-11T10:21:15.862Z</time></trkpt><trkpt lat="41.131425" lon="13.917695"><ele>45.4</ele><time>2026-04-11T10:21:16.86Z</time></trkpt><trkpt lat="41.131335" lon="13.917615"><ele>44.8</ele><time>2026-04-11T10:21:17.859Z</time></trkpt><trkpt lat="41.1312417" lon="13.9175367"><ele>44.199999999999996</ele><time>2026-04-11T10:21:18.858Z</time></trkpt><trkpt lat="41.1311483" lon="13.917455"><ele>43.599999999999994</ele><time>2026-04-11T10:21:19.86Z</time></trkpt><trkpt lat="41.1310533" lon="13.917375"><ele>43.0</ele><time>2026-04-11T10:21:20.86Z</time></trkpt><trkpt lat="41.1309567" lon="13.9172933"><ele>42.75</ele><time>2026-04-11T10:21:21.86Z</time></trkpt><trkpt lat="41.1308617" lon="13.9172117"><ele>42.5</ele><time>2026-04-11T10:21:22.858Z</time></trkpt><trkpt lat="41.130765" lon="13.9171267"><ele>42.25</ele><time>2026-04-11T10:21:23.86Z</time></trkpt><trkpt lat="41.1306683" lon="13.9170433"><ele>42.0</ele><time>2026-04-11T10:21:24.86Z</time></trkpt><trkpt lat="41.1305717" lon="13.9169617"><ele>41.6</ele><time>2026-04-11T10:21:25.86Z</time></trkpt><trkpt lat="41.1304717" lon="13.916885"><ele>41.2</ele><time>2026-04-11T10:21:26.86Z</time></trkpt><trkpt lat="41.130375" lon="13.9168067"><ele>40.8</ele><time>2026-04-11T10:21:27.859Z</time></trkpt><trkpt lat="41.130285" lon="13.91673"><ele>40.4</ele><time>2026-04-11T10:21:28.86Z</time></trkpt><trkpt lat="41.1301983" lon="13.9166517"><ele>40.0</ele><time>2026-04-11T10:21:29.858Z</time></trkpt><trkpt lat="41.1301083" lon="13.9165783"><ele>40.0</ele><time>2026-04-11T10:21:30.861Z</time></trkpt><trkpt lat="41.13002" lon="13.916505"><ele>40.0</ele><time>2026-04-11T10:21:31.86Z</time></trkpt><trkpt lat="41.129935" lon="13.9164233"><ele>40.0</ele><time>2026-04-11T10:21:32.858Z</time></trkpt><trkpt lat="41.1298517" lon="13.9163417"><ele>40.0</ele><time>2026-04-11T10:21:33.86Z</time></trkpt><trkpt lat="41.1297717" lon="13.9162567"><ele>40.0</ele><time>2026-04-11T10:21:34.86Z</time></trkpt><trkpt lat="41.1296967" lon="13.916165"><ele>39.8</ele><time>2026-04-11T10:21:35.86Z</time></trkpt><trkpt lat="41.1296267" lon="13.91607"><ele>39.6</ele><time>2026-04-11T10:21:36.859Z</time></trkpt><trkpt lat="41.1295583" lon="13.9159783"><ele>39.4</ele><time>2026-04-11T10:21:37.86Z</time></trkpt><trkpt lat="41.129495" lon="13.9158833"><ele>39.2</ele><time>2026-04-11T10:21:38.858Z</time></trkpt><trkpt lat="41.1294383" lon="13.9157883"><ele>39.0</ele><time>2026-04-11T10:21:39.858Z</time></trkpt><trkpt lat="41.1293817" lon="13.9156983"><ele>39.333333333333336</ele><time>2026-04-11T10:21:40.86Z</time></trkpt><trkpt lat="41.129325" lon="13.9156083"><ele>39.666666666666664</ele><time>2026-04-11T10:21:41.859Z</time></trkpt><trkpt lat="41.1292717" lon="13.9155183"><ele>40.0</ele><time>2026-04-11T10:21:42.858Z</time></trkpt><trkpt lat="41.1292217" lon="13.9154267"><ele>40.33333333333333</ele><time>2026-04-11T10:21:43.86Z</time></trkpt><trkpt lat="41.1291683" lon="13.91534"><ele>40.666666666666664</ele><time>2026-04-11T10:21:44.857Z</time></trkpt><trkpt lat="41.1291133" lon="13.9152567"><ele>41.0</ele><time>2026-04-11T10:21:45.858Z</time></trkpt><trkpt lat="41.1290633" lon="13.9151733"><ele>40.5</ele><time>2026-04-11T10:21:46.858Z</time></trkpt><trkpt lat="41.1290133" lon="13.9150917"><ele>40.0</ele><time>2026-04-11T10:21:47.859Z</time></trkpt><trkpt lat="41.1289733" lon="13.915005"><ele>39.5</ele><time>2026-04-11T10:21:48.86Z</time></trkpt><trkpt lat="41.128945" lon="13.9149117"><ele>39.0</ele><time>2026-04-11T10:21:49.86Z</time></trkpt><trkpt lat="41.1289167" lon="13.91482"><ele>38.5</ele><time>2026-04-11T10:21:50.859Z</time></trkpt><trkpt lat="41.1288867" lon="13.9147267"><ele>38.0</ele><time>2026-04-11T10:21:51.858Z</time></trkpt><trkpt lat="41.1288567" lon="13.9146333"><ele>38.0</ele><time>2026-04-11T10:21:52.86Z</time></trkpt><trkpt lat="41.1288283" lon="13.9145433"><ele>38.0</ele><time>2026-04-11T10:21:53.86Z</time></trkpt><trkpt lat="41.1287967" lon="13.914455"><ele>38.0</ele><time>2026-04-11T10:21:54.86Z</time></trkpt><trkpt lat="41.1287633" lon="13.9143683"><ele>38.0</ele><time>2026-04-11T10:21:55.861Z</time></trkpt><trkpt lat="41.128725" lon="13.91428"><ele>38.0</ele><time>2026-04-11T10:21:56.859Z</time></trkpt><trkpt lat="41.1286883" lon="13.9141933"><ele>38.0</ele><time>2026-04-11T10:21:57.858Z</time></trkpt><trkpt lat="41.12865" lon="13.9141067"><ele>38.0</ele><time>2026-04-11T10:21:58.858Z</time></trkpt><trkpt lat="41.128605" lon="13.9140233"><ele>38.285714285714285</ele><time>2026-04-11T10:21:59.858Z</time></trkpt><trkpt lat="41.1285567" lon="13.9139383"><ele>38.57142857142858</ele><time>2026-04-11T10:22:00.857Z</time></trkpt><trkpt lat="41.1285117" lon="13.9138567"><ele>38.85714285714286</ele><time>2026-04-11T10:22:01.86Z</time></trkpt><trkpt lat="41.128465" lon="13.9137817"><ele>39.14285714285714</ele><time>2026-04-11T10:22:02.86Z</time></trkpt><trkpt lat="41.1284233" lon="13.9137083"><ele>39.42857142857143</ele><time>2026-04-11T10:22:03.859Z</time></trkpt><trkpt lat="41.1283783" lon="13.91364"><ele>39.714285714285715</ele><time>2026-04-11T10:22:04.859Z</time></trkpt><trkpt lat="41.1283283" lon="13.91358"><ele>40.0</ele><time>2026-04-11T10:22:05.86Z</time></trkpt><trkpt lat="41.128275" lon="13.91352"><ele>39.857142857142854</ele><time>2026-04-11T10:22:06.86Z</time></trkpt><trkpt lat="41.1282183" lon="13.9134617"><ele>39.714285714285715</ele><time>2026-04-11T10:22:07.859Z</time></trkpt><trkpt lat="41.1281667" lon="13.9134017"><ele>39.57142857142857</ele><time>2026-04-11T10:22:08.858Z</time></trkpt><trkpt lat="41.128115" lon="13.913345"><ele>39.42857142857143</ele><time>2026-04-11T10:22:09.858Z</time></trkpt><trkpt lat="41.12806" lon="13.913295"><ele>39.285714285714285</ele><time>2026-04-11T10:22:10.859Z</time></trkpt><trkpt lat="41.1280083" lon="13.9132467"><ele>39.142857142857146</ele><time>2026-04-11T10:22:11.859Z</time></trkpt><trkpt lat="41.1279567" lon="13.9131967"><ele>39.0</ele><time>2026-04-11T10:22:12.859Z</time></trkpt><trkpt lat="41.127905" lon="13.9131467"><ele>39.333333333333336</ele><time>2026-04-11T10:22:13.859Z</time></trkpt><trkpt lat="41.1278" lon="13.91305"><ele>39.666666666666664</ele><time>2026-04-11T10:22:15.86Z</time></trkpt><trkpt lat="41.1277433" lon="13.9130017"><ele>40.0</ele><time>2026-04-11T10:22:16.858Z</time></trkpt><trkpt lat="41.1276883" lon="13.9129517"><ele>40.33333333333333</ele><time>2026-04-11T10:22:17.861Z</time></trkpt><trkpt lat="41.12763" lon="13.9129033"><ele>40.666666666666664</ele><time>2026-04-11T10:22:18.86Z</time></trkpt><trkpt lat="41.1275683" lon="13.9128567"><ele>41.0</ele><time>2026-04-11T10:22:19.86Z</time></trkpt><trkpt lat="41.1275083" lon="13.91281"><ele>40.99999999999999</ele><time>2026-04-11T10:22:20.859Z</time></trkpt><trkpt lat="41.12745" lon="13.9127617"><ele>41.0</ele><time>2026-04-11T10:22:21.857Z</time></trkpt><trkpt lat="41.12739" lon="13.91271"><ele>41.0</ele><time>2026-04-11T10:22:22.86Z</time></trkpt><trkpt lat="41.1273283" lon="13.91266"><ele>41.0</ele><time>2026-04-11T10:22:23.859Z</time></trkpt><trkpt lat="41.1272667" lon="13.9126067"><ele>41.0</ele><time>2026-04-11T10:22:24.859Z</time></trkpt><trkpt lat="41.1272067" lon="13.91255"><ele>40.99999999999999</ele><time>2026-04-11T10:22:25.86Z</time></trkpt><trkpt lat="41.127145" lon="13.9124983"><ele>41.0</ele><time>2026-04-11T10:22:26.858Z</time></trkpt><trkpt lat="41.1270783" lon="13.91245"><ele>40.666666666666664</ele><time>2026-04-11T10:22:27.858Z</time></trkpt><trkpt lat="41.12701" lon="13.912405"><ele>40.33333333333333</ele><time>2026-04-11T10:22:28.86Z</time></trkpt><trkpt lat="41.1269417" lon="13.9123617"><ele>40.0</ele><time>2026-04-11T10:22:29.859Z</time></trkpt><trkpt lat="41.12687" lon="13.912315"><ele>39.666666666666664</ele><time>2026-04-11T10:22:30.859Z</time></trkpt><trkpt lat="41.1267983" lon="13.9122683"><ele>39.333333333333336</ele><time>2026-04-11T10:22:31.86Z</time></trkpt><trkpt lat="41.1267183" lon="13.9122283"><ele>39.0</ele><time>2026-04-11T10:22:32.859Z</time></trkpt><trkpt lat="41.1266367" lon="13.9121933"><ele>38.833333333333336</ele><time>2026-04-11T10:22:33.857Z</time></trkpt><trkpt lat="41.1265533" lon="13.91217"><ele>38.666666666666664</ele><time>2026-04-11T10:22:34.86Z</time></trkpt><trkpt lat="41.1264717" lon="13.91215"><ele>38.5</ele><time>2026-04-11T10:22:35.86Z</time></trkpt><trkpt lat="41.1263783" lon="13.9121417"><ele>38.33333333333333</ele><time>2026-04-11T10:22:36.86Z</time></trkpt><trkpt lat="41.1262867" lon="13.9121383"><ele>38.166666666666664</ele><time>2026-04-11T10:22:37.859Z</time></trkpt><trkpt lat="41.1261967" lon="13.912145"><ele>38.0</ele><time>2026-04-11T10:22:38.86Z</time></trkpt><trkpt lat="41.1261067" lon="13.912155"><ele>38.0</ele><time>2026-04-11T10:22:39.858Z</time></trkpt><trkpt lat="41.126015" lon="13.9121717"><ele>38.0</ele><time>2026-04-11T10:22:40.86Z</time></trkpt><trkpt lat="41.125925" lon="13.9121883"><ele>38.0</ele><time>2026-04-11T10:22:41.86Z</time></trkpt><trkpt lat="41.125835" lon="13.9121967"><ele>38.0</ele><time>2026-04-11T10:22:42.858Z</time></trkpt><trkpt lat="41.1257483" lon="13.9122067"><ele>38.0</ele><time>2026-04-11T10:22:43.857Z</time></trkpt><trkpt lat="41.1256583" lon="13.9122217"><ele>37.199999999999996</ele><time>2026-04-11T10:22:44.86Z</time></trkpt><trkpt lat="41.1255667" lon="13.912245"><ele>36.4</ele><time>2026-04-11T10:22:45.858Z</time></trkpt><trkpt lat="41.125475" lon="13.9122683"><ele>35.599999999999994</ele><time>2026-04-11T10:22:46.86Z</time></trkpt><trkpt lat="41.1253817" lon="13.91229"><ele>34.8</ele><time>2026-04-11T10:22:47.858Z</time></trkpt><trkpt lat="41.1252867" lon="13.91231"><ele>34.0</ele><time>2026-04-11T10:22:48.858Z</time></trkpt><trkpt lat="41.1251933" lon="13.9123333"><ele>34.0</ele><time>2026-04-11T10:22:49.859Z</time></trkpt><trkpt lat="41.1251" lon="13.9123583"><ele>34.0</ele><time>2026-04-11T10:22:50.86Z</time></trkpt><trkpt lat="41.1250083" lon="13.91238"><ele>34.0</ele><time>2026-04-11T10:22:51.86Z</time></trkpt><trkpt lat="41.1249167" lon="13.9124"><ele>34.0</ele><time>2026-04-11T10:22:52.859Z</time></trkpt><trkpt lat="41.124825" lon="13.912425"><ele>34.0</ele><time>2026-04-11T10:22:53.86Z</time></trkpt><trkpt lat="41.124735" lon="13.9124483"><ele>34.0</ele><time>2026-04-11T10:22:54.857Z</time></trkpt><trkpt lat="41.1246417" lon="13.9124733"><ele>34.0</ele><time>2026-04-11T10:22:55.86Z</time></trkpt><trkpt lat="41.12455" lon="13.9125017"><ele>34.0</ele><time>2026-04-11T10:22:56.86Z</time></trkpt><trkpt lat="41.1244617" lon="13.9125267"><ele>34.0</ele><time>2026-04-11T10:22:57.859Z</time></trkpt><trkpt lat="41.1243733" lon="13.91255"><ele>34.0</ele><time>2026-04-11T10:22:58.859Z</time></trkpt><trkpt lat="41.1242817" lon="13.912575"><ele>34.2</ele><time>2026-04-11T10:22:59.858Z</time></trkpt><trkpt lat="41.1241933" lon="13.9125967"><ele>34.4</ele><time>2026-04-11T10:23:00.86Z</time></trkpt><trkpt lat="41.1241033" lon="13.91262"><ele>34.6</ele><time>2026-04-11T10:23:01.86Z</time></trkpt><trkpt lat="41.1240133" lon="13.912645"><ele>34.8</ele><time>2026-04-11T10:23:02.858Z</time></trkpt><trkpt lat="41.12392" lon="13.912665"><ele>35.0</ele><time>2026-04-11T10:23:03.858Z</time></trkpt><trkpt lat="41.1238283" lon="13.9126833"><ele>35.0</ele><time>2026-04-11T10:23:04.86Z</time></trkpt><trkpt lat="41.1237367" lon="13.912705"><ele>35.0</ele><time>2026-04-11T10:23:05.859Z</time></trkpt><trkpt lat="41.1236483" lon="13.9127267"><ele>35.0</ele><time>2026-04-11T10:23:06.858Z</time></trkpt><trkpt lat="41.1235617" lon="13.9127483"><ele>35.0</ele><time>2026-04-11T10:23:07.86Z</time></trkpt><trkpt lat="41.123475" lon="13.912765"><ele>35.0</ele><time>2026-04-11T10:23:08.858Z</time></trkpt><trkpt lat="41.1233883" lon="13.9127867"><ele>35.0</ele><time>2026-04-11T10:23:09.858Z</time></trkpt><trkpt lat="41.1233017" lon="13.9128117"><ele>34.33333333333333</ele><time>2026-04-11T10:23:10.859Z</time></trkpt><trkpt lat="41.1232183" lon="13.9128333"><ele>33.666666666666664</ele><time>2026-04-11T10:23:11.859Z</time></trkpt><trkpt lat="41.12313" lon="13.912855"><ele>33.0</ele><time>2026-04-11T10:23:12.859Z</time></trkpt><trkpt lat="41.1230417" lon="13.91288"><ele>32.333333333333336</ele><time>2026-04-11T10:23:13.858Z</time></trkpt><trkpt lat="41.1229567" lon="13.9129"><ele>31.666666666666668</ele><time>2026-04-11T10:23:14.858Z</time></trkpt><trkpt lat="41.1228717" lon="13.9129117"><ele>31.0</ele><time>2026-04-11T10:23:15.858Z</time></trkpt><trkpt lat="41.1227917" lon="13.9129"><ele>31.000000000000004</ele><time>2026-04-11T10:23:16.86Z</time></trkpt><trkpt lat="41.122715" lon="13.9128483"><ele>31.0</ele><time>2026-04-11T10:23:17.859Z</time></trkpt><trkpt lat="41.1226583" lon="13.9127583"><ele>31.0</ele><time>2026-04-11T10:23:18.86Z</time></trkpt><trkpt lat="41.1226267" lon="13.9126467"><ele>31.0</ele><time>2026-04-11T10:23:19.858Z</time></trkpt><trkpt lat="41.1226" lon="13.912535"><ele>31.000000000000004</ele><time>2026-04-11T10:23:20.859Z</time></trkpt><trkpt lat="41.1225717" lon="13.9124283"><ele>31.0</ele><time>2026-04-11T10:23:21.859Z</time></trkpt><trkpt lat="41.1225383" lon="13.9123233"><ele>31.166666666666668</ele><time>2026-04-11T10:23:22.86Z</time></trkpt><trkpt lat="41.1225" lon="13.91222"><ele>31.333333333333336</ele><time>2026-04-11T10:23:23.86Z</time></trkpt><trkpt lat="41.12246" lon="13.9121183"><ele>31.5</ele><time>2026-04-11T10:23:24.86Z</time></trkpt><trkpt lat="41.1224183" lon="13.912015"><ele>31.666666666666664</ele><time>2026-04-11T10:23:25.862Z</time></trkpt><trkpt lat="41.1223783" lon="13.9119083"><ele>31.833333333333332</ele><time>2026-04-11T10:23:26.858Z</time></trkpt><trkpt lat="41.12234" lon="13.9117983"><ele>32.0</ele><time>2026-04-11T10:23:27.858Z</time></trkpt><trkpt lat="41.1222967" lon="13.91169"><ele>31.6</ele><time>2026-04-11T10:23:28.857Z</time></trkpt><trkpt lat="41.1222567" lon="13.9115833"><ele>31.200000000000003</ele><time>2026-04-11T10:23:29.859Z</time></trkpt><trkpt lat="41.1222117" lon="13.9114733"><ele>30.8</ele><time>2026-04-11T10:23:30.858Z</time></trkpt><trkpt lat="41.1221633" lon="13.911365"><ele>30.4</ele><time>2026-04-11T10:23:31.86Z</time></trkpt><trkpt lat="41.1221167" lon="13.9112567"><ele>30.0</ele><time>2026-04-11T10:23:32.859Z</time></trkpt><trkpt lat="41.12207" lon="13.9111467"><ele>30.0</ele><time>2026-04-11T10:23:33.858Z</time></trkpt><trkpt lat="41.12202" lon="13.9110383"><ele>30.0</ele><time>2026-04-11T10:23:34.86Z</time></trkpt><trkpt lat="41.1219683" lon="13.9109267"><ele>30.0</ele><time>2026-04-11T10:23:35.86Z</time></trkpt><trkpt lat="41.1219217" lon="13.910815"><ele>30.0</ele><time>2026-04-11T10:23:36.858Z</time></trkpt><trkpt lat="41.1218767" lon="13.9107067"><ele>30.0</ele><time>2026-04-11T10:23:37.86Z</time></trkpt><trkpt lat="41.12183" lon="13.9105917"><ele>29.8</ele><time>2026-04-11T10:23:38.858Z</time></trkpt><trkpt lat="41.12178" lon="13.91048"><ele>29.6</ele><time>2026-04-11T10:23:39.859Z</time></trkpt><trkpt lat="41.12173" lon="13.9103667"><ele>29.4</ele><time>2026-04-11T10:23:40.86Z</time></trkpt><trkpt lat="41.1216833" lon="13.9102533"><ele>29.2</ele><time>2026-04-11T10:23:41.86Z</time></trkpt><trkpt lat="41.12164" lon="13.9101383"><ele>29.0</ele><time>2026-04-11T10:23:42.858Z</time></trkpt><trkpt lat="41.1215933" lon="13.9100233"><ele>28.2</ele><time>2026-04-11T10:23:43.86Z</time></trkpt><trkpt lat="41.1215467" lon="13.9099067"><ele>27.4</ele><time>2026-04-11T10:23:44.859Z</time></trkpt><trkpt lat="41.121505" lon="13.9097917"><ele>26.6</ele><time>2026-04-11T10:23:45.858Z</time></trkpt><trkpt lat="41.1214633" lon="13.9096833"><ele>25.8</ele><time>2026-04-11T10:23:46.858Z</time></trkpt><trkpt lat="41.1214183" lon="13.909575"><ele>25.0</ele><time>2026-04-11T10:23:47.859Z</time></trkpt><trkpt lat="41.1213733" lon="13.9094717"><ele>25.000000000000004</ele><time>2026-04-11T10:23:48.86Z</time></trkpt><trkpt lat="41.1213283" lon="13.90937"><ele>25.0</ele><time>2026-04-11T10:23:49.86Z</time></trkpt><trkpt lat="41.121285" lon="13.9092717"><ele>25.0</ele><time>2026-04-11T10:23:50.86Z</time></trkpt><trkpt lat="41.1212433" lon="13.9091717"><ele>25.0</ele><time>2026-04-11T10:23:51.858Z</time></trkpt><trkpt lat="41.1212017" lon="13.90908"><ele>25.000000000000004</ele><time>2026-04-11T10:23:52.86Z</time></trkpt><trkpt lat="41.1211517" lon="13.9089983"><ele>25.0</ele><time>2026-04-11T10:23:53.857Z</time></trkpt><trkpt lat="41.121095" lon="13.9089367"><ele>25.166666666666668</ele><time>2026-04-11T10:23:54.862Z</time></trkpt><trkpt lat="41.1210233" lon="13.9089"><ele>25.333333333333336</ele><time>2026-04-11T10:23:55.86Z</time></trkpt><trkpt lat="41.1209433" lon="13.90889"><ele>25.5</ele><time>2026-04-11T10:23:56.858Z</time></trkpt><trkpt lat="41.1208483" lon="13.908905"><ele>25.666666666666664</ele><time>2026-04-11T10:23:57.859Z</time></trkpt><trkpt lat="41.1207517" lon="13.9089183"><ele>25.833333333333332</ele><time>2026-04-11T10:23:58.858Z</time></trkpt><trkpt lat="41.120655" lon="13.908925"><ele>26.0</ele><time>2026-04-11T10:23:59.86Z</time></trkpt><trkpt lat="41.1205567" lon="13.908935"><ele>25.4</ele><time>2026-04-11T10:24:00.86Z</time></trkpt><trkpt lat="41.1204583" lon="13.9089367"><ele>24.8</ele><time>2026-04-11T10:24:01.86Z</time></trkpt><trkpt lat="41.12036" lon="13.9089317"><ele>24.2</ele><time>2026-04-11T10:24:02.86Z</time></trkpt><trkpt lat="41.12026" lon="13.9089267"><ele>23.599999999999998</ele><time>2026-04-11T10:24:03.86Z</time></trkpt><trkpt lat="41.1201633" lon="13.90892"><ele>23.0</ele><time>2026-04-11T10:24:04.86Z</time></trkpt><trkpt lat="41.1200667" lon="13.9089133"><ele>23.0</ele><time>2026-04-11T10:24:05.858Z</time></trkpt><trkpt lat="41.1199667" lon="13.9089"><ele>23.0</ele><time>2026-04-11T10:24:06.858Z</time></trkpt><trkpt lat="41.1198683" lon="13.9088867"><ele>23.0</ele><time>2026-04-11T10:24:07.858Z</time></trkpt><trkpt lat="41.1197717" lon="13.9088783"><ele>23.0</ele><time>2026-04-11T10:24:08.86Z</time></trkpt><trkpt lat="41.11968" lon="13.908865"><ele>23.0</ele><time>2026-04-11T10:24:09.86Z</time></trkpt><trkpt lat="41.11959" lon="13.9088483"><ele>22.833333333333336</ele><time>2026-04-11T10:24:10.86Z</time></trkpt><trkpt lat="41.1195" lon="13.9088383"><ele>22.666666666666668</ele><time>2026-04-11T10:24:11.861Z</time></trkpt><trkpt lat="41.1194117" lon="13.9088217"><ele>22.5</ele><time>2026-04-11T10:24:12.859Z</time></trkpt><trkpt lat="41.119325" lon="13.908805"><ele>22.333333333333332</ele><time>2026-04-11T10:24:13.859Z</time></trkpt><trkpt lat="41.11924" lon="13.9087883"><ele>22.166666666666664</ele><time>2026-04-11T10:24:14.862Z</time></trkpt><trkpt lat="41.1191567" lon="13.90877"><ele>22.0</ele><time>2026-04-11T10:24:15.86Z</time></trkpt><trkpt lat="41.1190733" lon="13.9087567"><ele>22.0</ele><time>2026-04-11T10:24:16.859Z</time></trkpt><trkpt lat="41.1189933" lon="13.90875"><ele>22.0</ele><time>2026-04-11T10:24:17.86Z</time></trkpt><trkpt lat="41.1189083" lon="13.9087483"><ele>22.0</ele><time>2026-04-11T10:24:18.858Z</time></trkpt><trkpt lat="41.1188317" lon="13.908745"><ele>22.0</ele><time>2026-04-11T10:24:19.859Z</time></trkpt><trkpt lat="41.11875" lon="13.908735"><ele>22.0</ele><time>2026-04-11T10:24:20.86Z</time></trkpt><trkpt lat="41.1186667" lon="13.9087267"><ele>22.0</ele><time>2026-04-11T10:24:21.86Z</time></trkpt><trkpt lat="41.1185833" lon="13.9087183"><ele>22.0</ele><time>2026-04-11T10:24:22.86Z</time></trkpt><trkpt lat="41.1185017" lon="13.908705"><ele>22.0</ele><time>2026-04-11T10:24:23.86Z</time></trkpt><trkpt lat="41.1184217" lon="13.90869"><ele>22.0</ele><time>2026-04-11T10:24:24.86Z</time></trkpt><trkpt lat="41.1183383" lon="13.9086783"><ele>22.0</ele><time>2026-04-11T10:24:25.86Z</time></trkpt><trkpt lat="41.118255" lon="13.9086683"><ele>22.0</ele><time>2026-04-11T10:24:26.857Z</time></trkpt><trkpt lat="41.1181683" lon="13.9086633"><ele>22.0</ele><time>2026-04-11T10:24:27.859Z</time></trkpt><trkpt lat="41.1180817" lon="13.9086583"><ele>21.833333333333332</ele><time>2026-04-11T10:24:28.859Z</time></trkpt><trkpt lat="41.1180017" lon="13.90865"><ele>21.666666666666664</ele><time>2026-04-11T10:24:29.86Z</time></trkpt><trkpt lat="41.1179233" lon="13.9086433"><ele>21.5</ele><time>2026-04-11T10:24:30.86Z</time></trkpt><trkpt lat="41.1178483" lon="13.908625"><ele>21.333333333333332</ele><time>2026-04-11T10:24:31.86Z</time></trkpt><trkpt lat="41.11777" lon="13.90861"><ele>21.166666666666668</ele><time>2026-04-11T10:24:32.86Z</time></trkpt><trkpt lat="41.117695" lon="13.9086017"><ele>21.0</ele><time>2026-04-11T10:24:33.859Z</time></trkpt><trkpt lat="41.1176217" lon="13.9085933"><ele>21.0</ele><time>2026-04-11T10:24:34.858Z</time></trkpt><trkpt lat="41.1175467" lon="13.9085867"><ele>21.0</ele><time>2026-04-11T10:24:35.86Z</time></trkpt><trkpt lat="41.117475" lon="13.9085833"><ele>21.0</ele><time>2026-04-11T10:24:36.858Z</time></trkpt><trkpt lat="41.1174067" lon="13.90857"><ele>21.0</ele><time>2026-04-11T10:24:37.86Z</time></trkpt><trkpt lat="41.1173333" lon="13.908555"><ele>21.0</ele><time>2026-04-11T10:24:38.858Z</time></trkpt><trkpt lat="41.11726" lon="13.9085433"><ele>21.0</ele><time>2026-04-11T10:24:39.858Z</time></trkpt><trkpt lat="41.1171933" lon="13.9085383"><ele>21.0</ele><time>2026-04-11T10:24:40.858Z</time></trkpt><trkpt lat="41.1171267" lon="13.9085283"><ele>20.833333333333332</ele><time>2026-04-11T10:24:41.858Z</time></trkpt><trkpt lat="41.1170017" lon="13.9084983"><ele>20.666666666666668</ele><time>2026-04-11T10:24:43.858Z</time></trkpt><trkpt lat="41.1169367" lon="13.9084867"><ele>20.5</ele><time>2026-04-11T10:24:44.859Z</time></trkpt><trkpt lat="41.1168683" lon="13.90849"><ele>20.333333333333336</ele><time>2026-04-11T10:24:45.859Z</time></trkpt><trkpt lat="41.1167983" lon="13.9084917"><ele>20.166666666666668</ele><time>2026-04-11T10:24:46.86Z</time></trkpt><trkpt lat="41.1167317" lon="13.90849"><ele>20.0</ele><time>2026-04-11T10:24:47.86Z</time></trkpt><trkpt lat="41.11666" lon="13.9084867"><ele>20.0</ele><time>2026-04-11T10:24:48.86Z</time></trkpt><trkpt lat="41.1165767" lon="13.9084817"><ele>20.0</ele><time>2026-04-11T10:24:49.859Z</time></trkpt><trkpt lat="41.116495" lon="13.90848"><ele>20.0</ele><time>2026-04-11T10:24:50.857Z</time></trkpt><trkpt lat="41.1164117" lon="13.908475"><ele>20.0</ele><time>2026-04-11T10:24:51.858Z</time></trkpt><trkpt lat="41.1163317" lon="13.9084667"><ele>20.0</ele><time>2026-04-11T10:24:52.859Z</time></trkpt><trkpt lat="41.1162517" lon="13.9084583"><ele>20.0</ele><time>2026-04-11T10:24:53.859Z</time></trkpt><trkpt lat="41.1161717" lon="13.9084517"><ele>19.285714285714285</ele><time>2026-04-11T10:24:54.859Z</time></trkpt><trkpt lat="41.1161" lon="13.9084567"><ele>18.571428571428573</ele><time>2026-04-11T10:24:55.86Z</time></trkpt><trkpt lat="41.1160317" lon="13.9084617"><ele>17.857142857142858</ele><time>2026-04-11T10:24:56.86Z</time></trkpt><trkpt lat="41.115965" lon="13.9084567"><ele>17.142857142857142</ele><time>2026-04-11T10:24:57.859Z</time></trkpt><trkpt lat="41.1159017" lon="13.908445"><ele>16.428571428571427</ele><time>2026-04-11T10:24:58.858Z</time></trkpt><trkpt lat="41.1158367" lon="13.9084233"><ele>15.714285714285715</ele><time>2026-04-11T10:24:59.859Z</time></trkpt><trkpt lat="41.1157667" lon="13.9084067"><ele>15.0</ele><time>2026-04-11T10:25:00.86Z</time></trkpt><trkpt lat="41.1156933" lon="13.9083867"><ele>14.666666666666666</ele><time>2026-04-11T10:25:01.859Z</time></trkpt><trkpt lat="41.115615" lon="13.9083767"><ele>14.333333333333332</ele><time>2026-04-11T10:25:02.86Z</time></trkpt><trkpt lat="41.1155367" lon="13.9083633"><ele>14.0</ele><time>2026-04-11T10:25:03.858Z</time></trkpt><trkpt lat="41.1154533" lon="13.908355"><ele>13.666666666666666</ele><time>2026-04-11T10:25:04.859Z</time></trkpt><trkpt lat="41.11537" lon="13.90834"><ele>13.333333333333332</ele><time>2026-04-11T10:25:05.86Z</time></trkpt><trkpt lat="41.1152833" lon="13.9083267"><ele>13.0</ele><time>2026-04-11T10:25:06.858Z</time></trkpt><trkpt lat="41.1151983" lon="13.90831"><ele>12.999999999999998</ele><time>2026-04-11T10:25:07.86Z</time></trkpt><trkpt lat="41.1151183" lon="13.9082983"><ele>13.0</ele><time>2026-04-11T10:25:08.86Z</time></trkpt><trkpt lat="41.11503" lon="13.9082983"><ele>13.0</ele><time>2026-04-11T10:25:09.86Z</time></trkpt><trkpt lat="41.114955" lon="13.9082867"><ele>13.0</ele><time>2026-04-11T10:25:10.86Z</time></trkpt><trkpt lat="41.1148883" lon="13.90827"><ele>12.999999999999998</ele><time>2026-04-11T10:25:11.86Z</time></trkpt><trkpt lat="41.114825" lon="13.908255"><ele>13.0</ele><time>2026-04-11T10:25:12.86Z</time></trkpt><trkpt lat="41.1147067" lon="13.90822"><ele>12.8</ele><time>2026-04-11T10:25:14.859Z</time></trkpt><trkpt lat="41.114605" lon="13.9081867"><ele>12.600000000000001</ele><time>2026-04-11T10:25:16.86Z</time></trkpt><trkpt lat="41.114545" lon="13.9081233"><ele>12.399999999999999</ele><time>2026-04-11T10:25:18.857Z</time></trkpt><trkpt lat="41.11455" lon="13.9079983"><ele>12.2</ele><time>2026-04-11T10:25:20.859Z</time></trkpt><trkpt lat="41.11456" lon="13.90784"><ele>12.0</ele><time>2026-04-11T10:25:22.858Z</time></trkpt><trkpt lat="41.1145717" lon="13.9077567"><ele>12.0</ele><time>2026-04-11T10:25:23.86Z</time></trkpt><trkpt lat="41.11458" lon="13.9076033"><ele>12.0</ele><time>2026-04-11T10:25:25.86Z</time></trkpt><trkpt lat="41.114545" lon="13.9074917"><ele>12.0</ele><time>2026-04-11T10:25:27.858Z</time></trkpt><trkpt lat="41.1144783" lon="13.9074633"><ele>12.0</ele><time>2026-04-11T10:25:29.859Z</time></trkpt><trkpt lat="41.1143967" lon="13.9074633"><ele>12.0</ele><time>2026-04-11T10:25:31.86Z</time></trkpt><trkpt lat="41.1143033" lon="13.9074583"><ele>11.75</ele><time>2026-04-11T10:25:33.859Z</time></trkpt><trkpt lat="41.1141933" lon="13.907465"><ele>11.5</ele><time>2026-04-11T10:25:35.859Z</time></trkpt><trkpt lat="41.1140767" lon="13.90747"><ele>11.25</ele><time>2026-04-11T10:25:37.86Z</time></trkpt><trkpt lat="41.1139567" lon="13.9074783"><ele>11.0</ele><time>2026-04-11T10:25:39.859Z</time></trkpt><trkpt lat="41.1138417" lon="13.9074833"><ele>10.5</ele><time>2026-04-11T10:25:41.859Z</time></trkpt><trkpt lat="41.113775" lon="13.907485"><ele>10.0</ele><time>2026-04-11T10:25:42.857Z</time></trkpt><trkpt lat="41.113705" lon="13.9074917"><ele>9.5</ele><time>2026-04-11T10:25:43.859Z</time></trkpt><trkpt lat="41.1136383" lon="13.9074983"><ele>9.0</ele><time>2026-04-11T10:25:44.86Z</time></trkpt><trkpt lat="41.1135033" lon="13.9075133"><ele>8.5</ele><time>2026-04-11T10:25:46.86Z</time></trkpt><trkpt lat="41.1134217" lon="13.9075333"><ele>8.0</ele><time>2026-04-11T10:25:47.86Z</time></trkpt><trkpt lat="41.1133417" lon="13.9075433"><ele>7.999999999999999</ele><time>2026-04-11T10:25:48.859Z</time></trkpt><trkpt lat="41.11326" lon="13.9075483"><ele>8.0</ele><time>2026-04-11T10:25:49.859Z</time></trkpt><trkpt lat="41.1131817" lon="13.90755"><ele>8.0</ele><time>2026-04-11T10:25:50.859Z</time></trkpt><trkpt lat="41.1131017" lon="13.9075483"><ele>8.0</ele><time>2026-04-11T10:25:51.858Z</time></trkpt><trkpt lat="41.11302" lon="13.90755"><ele>7.999999999999999</ele><time>2026-04-11T10:25:52.86Z</time></trkpt><trkpt lat="41.11294" lon="13.9075533"><ele>8.0</ele><time>2026-04-11T10:25:53.859Z</time></trkpt><trkpt lat="41.1128583" lon="13.9075567"><ele>7.999999999999999</ele><time>2026-04-11T10:25:54.858Z</time></trkpt><trkpt lat="41.1127767" lon="13.9075617"><ele>8.0</ele><time>2026-04-11T10:25:55.857Z</time></trkpt><trkpt lat="41.112695" lon="13.9075667"><ele>8.0</ele><time>2026-04-11T10:25:56.859Z</time></trkpt><trkpt lat="41.1126117" lon="13.9075683"><ele>8.0</ele><time>2026-04-11T10:25:57.858Z</time></trkpt><trkpt lat="41.112525" lon="13.90757"><ele>7.999999999999999</ele><time>2026-04-11T10:25:58.858Z</time></trkpt><trkpt lat="41.1124383" lon="13.90758"><ele>8.0</ele><time>2026-04-11T10:25:59.86Z</time></trkpt><trkpt lat="41.112355" lon="13.9075833"><ele>7.999999999999999</ele><time>2026-04-11T10:26:00.858Z</time></trkpt><trkpt lat="41.1122717" lon="13.9075783"><ele>8.0</ele><time>2026-04-11T10:26:01.859Z</time></trkpt><trkpt lat="41.1121883" lon="13.9075733"><ele>8.0</ele><time>2026-04-11T10:26:02.859Z</time></trkpt><trkpt lat="41.1121067" lon="13.9075767"><ele>8.0</ele><time>2026-04-11T10:26:03.859Z</time></trkpt><trkpt lat="41.1120167" lon="13.9075917"><ele>7.999999999999999</ele><time>2026-04-11T10:26:04.859Z</time></trkpt><trkpt lat="41.1119333" lon="13.9076033"><ele>8.0</ele><time>2026-04-11T10:26:05.859Z</time></trkpt><trkpt lat="41.11185" lon="13.9076083"><ele>7.999999999999999</ele><time>2026-04-11T10:26:06.858Z</time></trkpt><trkpt lat="41.11177" lon="13.9076117"><ele>8.0</ele><time>2026-04-11T10:26:07.859Z</time></trkpt><trkpt lat="41.1116883" lon="13.9076167"><ele>8.0</ele><time>2026-04-11T10:26:08.857Z</time></trkpt><trkpt lat="41.1116067" lon="13.90762"><ele>8.0</ele><time>2026-04-11T10:26:09.857Z</time></trkpt><trkpt lat="41.1115233" lon="13.907625"><ele>7.999999999999999</ele><time>2026-04-11T10:26:10.86Z</time></trkpt><trkpt lat="41.1114383" lon="13.9076283"><ele>8.0</ele><time>2026-04-11T10:26:11.858Z</time></trkpt><trkpt lat="41.1113567" lon="13.9076367"><ele>7.999999999999999</ele><time>2026-04-11T10:26:12.857Z</time></trkpt><trkpt lat="41.111275" lon="13.90764"><ele>8.0</ele><time>2026-04-11T10:26:13.858Z</time></trkpt><trkpt lat="41.1111933" lon="13.9076383"><ele>8.0</ele><time>2026-04-11T10:26:14.858Z</time></trkpt><trkpt lat="41.1111117" lon="13.90764"><ele>8.0</ele><time>2026-04-11T10:26:15.858Z</time></trkpt><trkpt lat="41.1110283" lon="13.9076433"><ele>7.999999999999999</ele><time>2026-04-11T10:26:16.859Z</time></trkpt><trkpt lat="41.110945" lon="13.90765"><ele>8.0</ele><time>2026-04-11T10:26:17.859Z</time></trkpt><trkpt lat="41.1108583" lon="13.907655"><ele>7.999999999999999</ele><time>2026-04-11T10:26:18.859Z</time></trkpt><trkpt lat="41.110775" lon="13.9076533"><ele>8.0</ele><time>2026-04-11T10:26:19.86Z</time></trkpt><trkpt lat="41.1106883" lon="13.9076483"><ele>8.0</ele><time>2026-04-11T10:26:20.858Z</time></trkpt><trkpt lat="41.110605" lon="13.9076433"><ele>8.0</ele><time>2026-04-11T10:26:21.859Z</time></trkpt><trkpt lat="41.11052" lon="13.9076417"><ele>7.999999999999999</ele><time>2026-04-11T10:26:22.859Z</time></trkpt><trkpt lat="41.1104317" lon="13.90764"><ele>8.0</ele><time>2026-04-11T10:26:23.859Z</time></trkpt><trkpt lat="41.1103483" lon="13.9076383"><ele>7.833333333333333</ele><time>2026-04-11T10:26:24.859Z</time></trkpt><trkpt lat="41.110265" lon="13.9076383"><ele>7.666666666666666</ele><time>2026-04-11T10:26:25.859Z</time></trkpt><trkpt lat="41.1101833" lon="13.9076417"><ele>7.5</ele><time>2026-04-11T10:26:26.859Z</time></trkpt><trkpt lat="41.1101017" lon="13.90765"><ele>7.333333333333334</ele><time>2026-04-11T10:26:27.858Z</time></trkpt><trkpt lat="41.1100183" lon="13.9076517"><ele>7.166666666666667</ele><time>2026-04-11T10:26:28.859Z</time></trkpt><trkpt lat="41.1099333" lon="13.9076533"><ele>7.0</ele><time>2026-04-11T10:26:29.859Z</time></trkpt><trkpt lat="41.10985" lon="13.9076517"><ele>6.833333333333334</ele><time>2026-04-11T10:26:30.859Z</time></trkpt><trkpt lat="41.1097667" lon="13.9076533"><ele>6.666666666666667</ele><time>2026-04-11T10:26:31.859Z</time></trkpt><trkpt lat="41.1096833" lon="13.9076567"><ele>6.5</ele><time>2026-04-11T10:26:32.859Z</time></trkpt><trkpt lat="41.1096" lon="13.9076633"><ele>6.333333333333334</ele><time>2026-04-11T10:26:33.859Z</time></trkpt><trkpt lat="41.109515" lon="13.9076733"><ele>6.166666666666667</ele><time>2026-04-11T10:26:34.859Z</time></trkpt><trkpt lat="41.1094333" lon="13.90768"><ele>6.0</ele><time>2026-04-11T10:26:35.86Z</time></trkpt><trkpt lat="41.10935" lon="13.9076867"><ele>6.0</ele><time>2026-04-11T10:26:36.858Z</time></trkpt><trkpt lat="41.1092667" lon="13.9076867"><ele>6.0</ele><time>2026-04-11T10:26:37.859Z</time></trkpt><trkpt lat="41.1091833" lon="13.9076867"><ele>6.0</ele><time>2026-04-11T10:26:38.858Z</time></trkpt><trkpt lat="41.1091033" lon="13.9076867"><ele>6.0</ele><time>2026-04-11T10:26:39.857Z</time></trkpt><trkpt lat="41.1090217" lon="13.9076883"><ele>6.0</ele><time>2026-04-11T10:26:40.86Z</time></trkpt><trkpt lat="41.1089417" lon="13.907695"><ele>6.0</ele><time>2026-04-11T10:26:41.86Z</time></trkpt><trkpt lat="41.1088683" lon="13.9077033"><ele>5.833333333333333</ele><time>2026-04-11T10:26:42.859Z</time></trkpt><trkpt lat="41.1088033" lon="13.907715"><ele>5.666666666666667</ele><time>2026-04-11T10:26:43.86Z</time></trkpt><trkpt lat="41.10874" lon="13.9077233"><ele>5.5</ele><time>2026-04-11T10:26:44.859Z</time></trkpt><trkpt lat="41.1086317" lon="13.9077333"><ele>5.333333333333334</ele><time>2026-04-11T10:26:46.858Z</time></trkpt><trkpt lat="41.1085683" lon="13.9077167"><ele>5.166666666666667</ele><time>2026-04-11T10:26:48.859Z</time></trkpt><trkpt lat="41.108495" lon="13.90767"><ele>5.0</ele><time>2026-04-11T10:26:53.859Z</time></trkpt><trkpt lat="41.1084133" lon="13.9076883"><ele>5.0</ele><time>2026-04-11T10:26:56.858Z</time></trkpt><trkpt lat="41.1083433" lon="13.9077067"><ele>5.0</ele><time>2026-04-11T10:26:58.858Z</time></trkpt><trkpt lat="41.1082567" lon="13.9077067"><ele>5.0</ele><time>2026-04-11T10:27:00.859Z</time></trkpt><trkpt lat="41.108155" lon="13.9077"><ele>5.0</ele><time>2026-04-11T10:27:02.857Z</time></trkpt><trkpt lat="41.1080417" lon="13.9077067"><ele>5.0</ele><time>2026-04-11T10:27:04.859Z</time></trkpt><trkpt lat="41.1079217" lon="13.9077017"><ele>4.857142857142857</ele><time>2026-04-11T10:27:06.86Z</time></trkpt><trkpt lat="41.107855" lon="13.9077067"><ele>4.714285714285714</ele><time>2026-04-11T10:27:07.859Z</time></trkpt><trkpt lat="41.107785" lon="13.9077067"><ele>4.571428571428571</ele><time>2026-04-11T10:27:08.857Z</time></trkpt><trkpt lat="41.1077167" lon="13.9077067"><ele>4.428571428571429</ele><time>2026-04-11T10:27:09.86Z</time></trkpt><trkpt lat="41.10765" lon="13.90771"><ele>4.285714285714286</ele><time>2026-04-11T10:27:10.859Z</time></trkpt><trkpt lat="41.10758" lon="13.9077133"><ele>4.142857142857142</ele><time>2026-04-11T10:27:11.86Z</time></trkpt><trkpt lat="41.1075067" lon="13.90772"><ele>4.0</ele><time>2026-04-11T10:27:12.86Z</time></trkpt><trkpt lat="41.10743" lon="13.907725"><ele>4.166666666666666</ele><time>2026-04-11T10:27:13.858Z</time></trkpt><trkpt lat="41.1073533" lon="13.9077267"><ele>4.333333333333333</ele><time>2026-04-11T10:27:14.86Z</time></trkpt><trkpt lat="41.1072783" lon="13.907735"><ele>4.5</ele><time>2026-04-11T10:27:15.859Z</time></trkpt><trkpt lat="41.1072067" lon="13.9077467"><ele>4.666666666666667</ele><time>2026-04-11T10:27:16.86Z</time></trkpt><trkpt lat="41.1071317" lon="13.907755"><ele>4.833333333333334</ele><time>2026-04-11T10:27:17.859Z</time></trkpt><trkpt lat="41.1070567" lon="13.9077633"><ele>5.0</ele><time>2026-04-11T10:27:18.859Z</time></trkpt><trkpt lat="41.1069817" lon="13.907775"><ele>5.0</ele><time>2026-04-11T10:27:19.859Z</time></trkpt><trkpt lat="41.1069067" lon="13.9077817"><ele>5.0</ele><time>2026-04-11T10:27:20.859Z</time></trkpt><trkpt lat="41.1068283" lon="13.9078017"><ele>5.0</ele><time>2026-04-11T10:27:21.86Z</time></trkpt><trkpt lat="41.1067517" lon="13.907825"><ele>5.0</ele><time>2026-04-11T10:27:22.857Z</time></trkpt><trkpt lat="41.1066717" lon="13.90785"><ele>5.0</ele><time>2026-04-11T10:27:23.86Z</time></trkpt><trkpt lat="41.106595" lon="13.9078733"><ele>5.0</ele><time>2026-04-11T10:27:24.86Z</time></trkpt><trkpt lat="41.1065183" lon="13.9078967"><ele>4.833333333333334</ele><time>2026-04-11T10:27:25.86Z</time></trkpt><trkpt lat="41.10644" lon="13.9079167"><ele>4.666666666666667</ele><time>2026-04-11T10:27:26.86Z</time></trkpt><trkpt lat="41.1063617" lon="13.9079367"><ele>4.5</ele><time>2026-04-11T10:27:27.86Z</time></trkpt><trkpt lat="41.1062817" lon="13.90796"><ele>4.333333333333333</ele><time>2026-04-11T10:27:28.86Z</time></trkpt><trkpt lat="41.1062017" lon="13.907985"><ele>4.166666666666666</ele><time>2026-04-11T10:27:29.86Z</time></trkpt><trkpt lat="41.1061217" lon="13.9080083"><ele>4.0</ele><time>2026-04-11T10:27:30.859Z</time></trkpt><trkpt lat="41.1060417" lon="13.9080283"><ele>3.9999999999999996</ele><time>2026-04-11T10:27:31.86Z</time></trkpt><trkpt lat="41.1059617" lon="13.90805"><ele>4.0</ele><time>2026-04-11T10:27:32.86Z</time></trkpt><trkpt lat="41.1058817" lon="13.9080667"><ele>4.0</ele><time>2026-04-11T10:27:33.859Z</time></trkpt><trkpt lat="41.1058017" lon="13.908085"><ele>4.0</ele><time>2026-04-11T10:27:34.86Z</time></trkpt><trkpt lat="41.10572" lon="13.908105"><ele>3.9999999999999996</ele><time>2026-04-11T10:27:35.86Z</time></trkpt><trkpt lat="41.1056417" lon="13.90813"><ele>4.0</ele><time>2026-04-11T10:27:36.86Z</time></trkpt><trkpt lat="41.1055633" lon="13.90815"><ele>3.9999999999999996</ele><time>2026-04-11T10:27:37.86Z</time></trkpt><trkpt lat="41.1054817" lon="13.9081667"><ele>4.0</ele><time>2026-04-11T10:27:38.859Z</time></trkpt><trkpt lat="41.1054" lon="13.90818"><ele>4.0</ele><time>2026-04-11T10:27:39.859Z</time></trkpt><trkpt lat="41.10532" lon="13.9082"><ele>4.0</ele><time>2026-04-11T10:27:40.858Z</time></trkpt><trkpt lat="41.1052383" lon="13.9082217"><ele>3.9999999999999996</ele><time>2026-04-11T10:27:41.86Z</time></trkpt><trkpt lat="41.1051583" lon="13.9082433"><ele>4.0</ele><time>2026-04-11T10:27:42.859Z</time></trkpt><trkpt lat="41.1050817" lon="13.9082617"><ele>3.9999999999999996</ele><time>2026-04-11T10:27:43.86Z</time></trkpt><trkpt lat="41.105005" lon="13.9082783"><ele>4.0</ele><time>2026-04-11T10:27:44.86Z</time></trkpt><trkpt lat="41.1049267" lon="13.9082967"><ele>4.0</ele><time>2026-04-11T10:27:45.859Z</time></trkpt><trkpt lat="41.10485" lon="13.9083217"><ele>4.0</ele><time>2026-04-11T10:27:46.859Z</time></trkpt><trkpt lat="41.1047717" lon="13.9083433"><ele>3.9999999999999996</ele><time>2026-04-11T10:27:47.861Z</time></trkpt><trkpt lat="41.1046917" lon="13.9083667"><ele>4.0</ele><time>2026-04-11T10:27:48.86Z</time></trkpt><trkpt lat="41.10461" lon="13.90839"><ele>3.833333333333333</ele><time>2026-04-11T10:27:49.86Z</time></trkpt><trkpt lat="41.10453" lon="13.9084067"><ele>3.6666666666666665</ele><time>2026-04-11T10:27:50.859Z</time></trkpt><trkpt lat="41.1044533" lon="13.9084283"><ele>3.5</ele><time>2026-04-11T10:27:51.858Z</time></trkpt><trkpt lat="41.1043783" lon="13.9084483"><ele>3.333333333333333</ele><time>2026-04-11T10:27:52.86Z</time></trkpt><trkpt lat="41.1043033" lon="13.908465"><ele>3.1666666666666665</ele><time>2026-04-11T10:27:53.859Z</time></trkpt><trkpt lat="41.104225" lon="13.9084833"><ele>3.0</ele><time>2026-04-11T10:27:54.86Z</time></trkpt><trkpt lat="41.104145" lon="13.9085017"><ele>3.0</ele><time>2026-04-11T10:27:55.86Z</time></trkpt><trkpt lat="41.1040667" lon="13.908525"><ele>3.0</ele><time>2026-04-11T10:27:56.86Z</time></trkpt><trkpt lat="41.10399" lon="13.9085483"><ele>3.0</ele><time>2026-04-11T10:27:57.858Z</time></trkpt><trkpt lat="41.10391" lon="13.908565"><ele>3.0</ele><time>2026-04-11T10:27:58.86Z</time></trkpt><trkpt lat="41.1038367" lon="13.90858"><ele>3.0</ele><time>2026-04-11T10:27:59.86Z</time></trkpt><trkpt lat="41.1037583" lon="13.9086033"><ele>3.0</ele><time>2026-04-11T10:28:00.86Z</time></trkpt><trkpt lat="41.1036833" lon="13.9086267"><ele>2.9999999999999996</ele><time>2026-04-11T10:28:01.86Z</time></trkpt><trkpt lat="41.1036117" lon="13.9086467"><ele>3.0</ele><time>2026-04-11T10:28:02.86Z</time></trkpt><trkpt lat="41.1035417" lon="13.9086567"><ele>3.0</ele><time>2026-04-11T10:28:03.86Z</time></trkpt><trkpt lat="41.1034733" lon="13.9086683"><ele>3.0</ele><time>2026-04-11T10:28:04.86Z</time></trkpt><trkpt lat="41.1034067" lon="13.908685"><ele>3.0</ele><time>2026-04-11T10:28:05.861Z</time></trkpt><trkpt lat="41.10334" lon="13.9087"><ele>2.9999999999999996</ele><time>2026-04-11T10:28:06.86Z</time></trkpt><trkpt lat="41.1032767" lon="13.9087083"><ele>3.0</ele><time>2026-04-11T10:28:07.86Z</time></trkpt><trkpt lat="41.1031617" lon="13.908685"><ele>2.8333333333333335</ele><time>2026-04-11T10:28:09.858Z</time></trkpt><trkpt lat="41.1030467" lon="13.90871"><ele>2.6666666666666665</ele><time>2026-04-11T10:28:11.86Z</time></trkpt><trkpt lat="41.1029867" lon="13.9087467"><ele>2.5</ele><time>2026-04-11T10:28:12.859Z</time></trkpt><trkpt lat="41.102925" lon="13.9087883"><ele>2.333333333333333</ele><time>2026-04-11T10:28:13.859Z</time></trkpt><trkpt lat="41.1028617" lon="13.9088233"><ele>2.1666666666666665</ele><time>2026-04-11T10:28:14.859Z</time></trkpt><trkpt lat="41.10279" lon="13.9088417"><ele>2.0</ele><time>2026-04-11T10:28:15.86Z</time></trkpt><trkpt lat="41.1027133" lon="13.90886"><ele>1.9999999999999998</ele><time>2026-04-11T10:28:16.86Z</time></trkpt><trkpt lat="41.102635" lon="13.90888"><ele>2.0</ele><time>2026-04-11T10:28:17.86Z</time></trkpt><trkpt lat="41.1025567" lon="13.9088967"><ele>2.0</ele><time>2026-04-11T10:28:18.859Z</time></trkpt><trkpt lat="41.1024783" lon="13.908915"><ele>2.0</ele><time>2026-04-11T10:28:19.859Z</time></trkpt><trkpt lat="41.1024" lon="13.9089333"><ele>1.9999999999999998</ele><time>2026-04-11T10:28:20.857Z</time></trkpt><trkpt lat="41.1023217" lon="13.9089483"><ele>2.0</ele><time>2026-04-11T10:28:21.858Z</time></trkpt><trkpt lat="41.1022417" lon="13.9089683"><ele>1.9999999999999998</ele><time>2026-04-11T10:28:22.859Z</time></trkpt><trkpt lat="41.10216" lon="13.9089867"><ele>2.0</ele><time>2026-04-11T10:28:23.859Z</time></trkpt><trkpt lat="41.1020833" lon="13.909005"><ele>2.0</ele><time>2026-04-11T10:28:24.859Z</time></trkpt><trkpt lat="41.1020033" lon="13.9090283"><ele>2.0</ele><time>2026-04-11T10:28:25.859Z</time></trkpt><trkpt lat="41.10192" lon="13.90905"><ele>1.9999999999999998</ele><time>2026-04-11T10:28:26.859Z</time></trkpt><trkpt lat="41.10184" lon="13.9090767"><ele>2.0</ele><time>2026-04-11T10:28:27.859Z</time></trkpt><trkpt lat="41.1017583" lon="13.909105"><ele>1.9999999999999998</ele><time>2026-04-11T10:28:28.859Z</time></trkpt><trkpt lat="41.1016767" lon="13.90913"><ele>2.0</ele><time>2026-04-11T10:28:29.86Z</time></trkpt><trkpt lat="41.1015967" lon="13.9091533"><ele>2.0</ele><time>2026-04-11T10:28:30.858Z</time></trkpt><trkpt lat="41.1015167" lon="13.90917"><ele>2.0</ele><time>2026-04-11T10:28:31.859Z</time></trkpt><trkpt lat="41.1014383" lon="13.9091867"><ele>1.9999999999999998</ele><time>2026-04-11T10:28:32.859Z</time></trkpt><trkpt lat="41.1013583" lon="13.909205"><ele>2.0</ele><time>2026-04-11T10:28:33.859Z</time></trkpt><trkpt lat="41.1012783" lon="13.9092217"><ele>1.9999999999999998</ele><time>2026-04-11T10:28:34.857Z</time></trkpt><trkpt lat="41.1012" lon="13.909245"><ele>2.0</ele><time>2026-04-11T10:28:35.859Z</time></trkpt><trkpt lat="41.1011217" lon="13.9092633"><ele>2.0</ele><time>2026-04-11T10:28:36.858Z</time></trkpt><trkpt lat="41.1010417" lon="13.9092817"><ele>2.0</ele><time>2026-04-11T10:28:37.859Z</time></trkpt><trkpt lat="41.1009617" lon="13.9092983"><ele>1.9999999999999998</ele><time>2026-04-11T10:28:38.858Z</time></trkpt><trkpt lat="41.1008833" lon="13.9093167"><ele>2.0</ele><time>2026-04-11T10:28:39.859Z</time></trkpt><trkpt lat="41.1008067" lon="13.909335"><ele>1.9999999999999998</ele><time>2026-04-11T10:28:40.859Z</time></trkpt><trkpt lat="41.10073" lon="13.9093583"><ele>2.0</ele><time>2026-04-11T10:28:41.859Z</time></trkpt><trkpt lat="41.1006533" lon="13.90938"><ele>2.0</ele><time>2026-04-11T10:28:42.858Z</time></trkpt><trkpt lat="41.1005767" lon="13.9093983"><ele>2.0</ele><time>2026-04-11T10:28:43.859Z</time></trkpt><trkpt lat="41.1005017" lon="13.9094167"><ele>1.9999999999999998</ele><time>2026-04-11T10:28:44.858Z</time></trkpt><trkpt lat="41.1004233" lon="13.909435"><ele>2.0</ele><time>2026-04-11T10:28:45.859Z</time></trkpt><trkpt lat="41.1003483" lon="13.9094517"><ele>1.9999999999999998</ele><time>2026-04-11T10:28:46.859Z</time></trkpt><trkpt lat="41.10027" lon="13.90947"><ele>2.0</ele><time>2026-04-11T10:28:47.86Z</time></trkpt><trkpt lat="41.1001917" lon="13.9094883"><ele>2.0</ele><time>2026-04-11T10:28:48.858Z</time></trkpt><trkpt lat="41.1001133" lon="13.90951"><ele>2.0</ele><time>2026-04-11T10:28:49.86Z</time></trkpt><trkpt lat="41.100035" lon="13.9095267"><ele>1.9999999999999998</ele><time>2026-04-11T10:28:50.858Z</time></trkpt><trkpt lat="41.0999533" lon="13.909545"><ele>2.0</ele><time>2026-04-11T10:28:51.858Z</time></trkpt><trkpt lat="41.0998717" lon="13.9095617"><ele>1.9999999999999998</ele><time>2026-04-11T10:28:52.859Z</time></trkpt><trkpt lat="41.0997883" lon="13.9095783"><ele>2.0</ele><time>2026-04-11T10:28:53.859Z</time></trkpt><trkpt lat="41.0997067" lon="13.9095967"><ele>2.0</ele><time>2026-04-11T10:28:54.859Z</time></trkpt><trkpt lat="41.099625" lon="13.9096183"><ele>2.0</ele><time>2026-04-11T10:28:55.859Z</time></trkpt><trkpt lat="41.0995417" lon="13.9096417"><ele>1.9999999999999998</ele><time>2026-04-11T10:28:56.858Z</time></trkpt><trkpt lat="41.0994567" lon="13.9096667"><ele>2.0</ele><time>2026-04-11T10:28:57.859Z</time></trkpt><trkpt lat="41.09937" lon="13.9096933"><ele>1.9999999999999998</ele><time>2026-04-11T10:28:58.858Z</time></trkpt><trkpt lat="41.0992833" lon="13.90972"><ele>2.0</ele><time>2026-04-11T10:28:59.859Z</time></trkpt><trkpt lat="41.0992" lon="13.9097433"><ele>2.0</ele><time>2026-04-11T10:29:00.859Z</time></trkpt><trkpt lat="41.0991167" lon="13.9097667"><ele>2.0</ele><time>2026-04-11T10:29:01.86Z</time></trkpt><trkpt lat="41.09903" lon="13.90979"><ele>1.9999999999999998</ele><time>2026-04-11T10:29:02.859Z</time></trkpt><trkpt lat="41.098945" lon="13.9098133"><ele>2.0</ele><time>2026-04-11T10:29:03.857Z</time></trkpt><trkpt lat="41.0988583" lon="13.9098433"><ele>1.9999999999999998</ele><time>2026-04-11T10:29:04.857Z</time></trkpt><trkpt lat="41.09877" lon="13.9098717"><ele>2.0</ele><time>2026-04-11T10:29:05.86Z</time></trkpt><trkpt lat="41.0986833" lon="13.9098917"><ele>2.0</ele><time>2026-04-11T10:29:06.859Z</time></trkpt><trkpt lat="41.0985983" lon="13.9099033"><ele>2.0</ele><time>2026-04-11T10:29:07.859Z</time></trkpt><trkpt lat="41.098515" lon="13.9099167"><ele>1.9999999999999998</ele><time>2026-04-11T10:29:08.858Z</time></trkpt><trkpt lat="41.0984333" lon="13.9099333"><ele>2.0</ele><time>2026-04-11T10:29:09.859Z</time></trkpt><trkpt lat="41.09835" lon="13.9099517"><ele>1.9999999999999998</ele><time>2026-04-11T10:29:10.86Z</time></trkpt><trkpt lat="41.0982667" lon="13.909975"><ele>2.0</ele><time>2026-04-11T10:29:11.86Z</time></trkpt><trkpt lat="41.0981817" lon="13.9100017"><ele>2.0</ele><time>2026-04-11T10:29:12.86Z</time></trkpt><trkpt lat="41.0980983" lon="13.9100283"><ele>2.0</ele><time>2026-04-11T10:29:13.86Z</time></trkpt><trkpt lat="41.098015" lon="13.910055"><ele>1.9999999999999998</ele><time>2026-04-11T10:29:14.858Z</time></trkpt><trkpt lat="41.0979333" lon="13.9100783"><ele>2.0</ele><time>2026-04-11T10:29:15.857Z</time></trkpt><trkpt lat="41.0978533" lon="13.9101"><ele>1.8333333333333333</ele><time>2026-04-11T10:29:16.859Z</time></trkpt><trkpt lat="41.09777" lon="13.91012"><ele>1.6666666666666665</ele><time>2026-04-11T10:29:17.858Z</time></trkpt><trkpt lat="41.0976883" lon="13.9101383"><ele>1.5</ele><time>2026-04-11T10:29:18.86Z</time></trkpt><trkpt lat="41.097605" lon="13.9101567"><ele>1.3333333333333333</ele><time>2026-04-11T10:29:19.86Z</time></trkpt><trkpt lat="41.0975217" lon="13.9101767"><ele>1.1666666666666665</ele><time>2026-04-11T10:29:20.858Z</time></trkpt><trkpt lat="41.0974383" lon="13.9101983"><ele>1.0</ele><time>2026-04-11T10:29:21.859Z</time></trkpt><trkpt lat="41.097355" lon="13.9102183"><ele>0.8333333333333333</ele><time>2026-04-11T10:29:22.858Z</time></trkpt><trkpt lat="41.09727" lon="13.9102367"><ele>0.6666666666666666</ele><time>2026-04-11T10:29:23.859Z</time></trkpt><trkpt lat="41.0971833" lon="13.9102567"><ele>0.5</ele><time>2026-04-11T10:29:24.859Z</time></trkpt><trkpt lat="41.0971" lon="13.910275"><ele>0.3333333333333333</ele><time>2026-04-11T10:29:25.86Z</time></trkpt><trkpt lat="41.097015" lon="13.9102983"><ele>0.16666666666666666</ele><time>2026-04-11T10:29:26.86Z</time></trkpt><trkpt lat="41.09693" lon="13.9103217"><ele>0.0</ele><time>2026-04-11T10:29:27.859Z</time></trkpt><trkpt lat="41.0968483" lon="13.91034"><ele>0.0</ele><time>2026-04-11T10:29:28.86Z</time></trkpt><trkpt lat="41.0967683" lon="13.91036"><ele>0.0</ele><time>2026-04-11T10:29:29.86Z</time></trkpt><trkpt lat="41.096685" lon="13.9103783"><ele>0.0</ele><time>2026-04-11T10:29:30.859Z</time></trkpt><trkpt lat="41.0966033" lon="13.9104"><ele>0.0</ele><time>2026-04-11T10:29:31.857Z</time></trkpt><trkpt lat="41.0965217" lon="13.9104217"><ele>0.0</ele><time>2026-04-11T10:29:32.859Z</time></trkpt><trkpt lat="41.0964383" lon="13.9104433"><ele>0.0</ele><time>2026-04-11T10:29:33.859Z</time></trkpt><trkpt lat="41.096355" lon="13.9104633"><ele>0.5</ele><time>2026-04-11T10:29:34.859Z</time></trkpt><trkpt lat="41.0962717" lon="13.9104833"><ele>1.0</ele><time>2026-04-11T10:29:35.86Z</time></trkpt><trkpt lat="41.0961917" lon="13.9105033"><ele>1.5</ele><time>2026-04-11T10:29:36.859Z</time></trkpt><trkpt lat="41.09611" lon="13.9105267"><ele>2.0</ele><time>2026-04-11T10:29:37.859Z</time></trkpt><trkpt lat="41.0960283" lon="13.9105483"><ele>2.5</ele><time>2026-04-11T10:29:38.859Z</time></trkpt><trkpt lat="41.0959467" lon="13.9105717"><ele>3.0</ele><time>2026-04-11T10:29:39.859Z</time></trkpt><trkpt lat="41.0958683" lon="13.910595"><ele>3.0</ele><time>2026-04-11T10:29:40.857Z</time></trkpt><trkpt lat="41.0957867" lon="13.9106167"><ele>3.0</ele><time>2026-04-11T10:29:41.859Z</time></trkpt><trkpt lat="41.0957083" lon="13.9106383"><ele>3.0</ele><time>2026-04-11T10:29:42.859Z</time></trkpt><trkpt lat="41.0956333" lon="13.9106583"><ele>3.0</ele><time>2026-04-11T10:29:43.858Z</time></trkpt><trkpt lat="41.0955567" lon="13.9106783"><ele>3.0</ele><time>2026-04-11T10:29:44.858Z</time></trkpt><trkpt lat="41.0954783" lon="13.9106967"><ele>3.0</ele><time>2026-04-11T10:29:45.858Z</time></trkpt><trkpt lat="41.0954" lon="13.9107133"><ele>2.8333333333333335</ele><time>2026-04-11T10:29:46.858Z</time></trkpt><trkpt lat="41.0953217" lon="13.910735"><ele>2.6666666666666665</ele><time>2026-04-11T10:29:47.858Z</time></trkpt><trkpt lat="41.0952433" lon="13.9107583"><ele>2.5</ele><time>2026-04-11T10:29:48.859Z</time></trkpt><trkpt lat="41.0951667" lon="13.9107733"><ele>2.333333333333333</ele><time>2026-04-11T10:29:49.859Z</time></trkpt><trkpt lat="41.0950917" lon="13.9107883"><ele>2.1666666666666665</ele><time>2026-04-11T10:29:50.86Z</time></trkpt><trkpt lat="41.0950167" lon="13.9108017"><ele>2.0</ele><time>2026-04-11T10:29:51.859Z</time></trkpt><trkpt lat="41.09494" lon="13.91082"><ele>1.857142857142857</ele><time>2026-04-11T10:29:52.859Z</time></trkpt><trkpt lat="41.094865" lon="13.91084"><ele>1.714285714285714</ele><time>2026-04-11T10:29:53.858Z</time></trkpt><trkpt lat="41.0947917" lon="13.9108533"><ele>1.5714285714285714</ele><time>2026-04-11T10:29:54.858Z</time></trkpt><trkpt lat="41.0947217" lon="13.91086"><ele>1.4285714285714284</ele><time>2026-04-11T10:29:55.859Z</time></trkpt><trkpt lat="41.094645" lon="13.910865"><ele>1.2857142857142856</ele><time>2026-04-11T10:29:56.859Z</time></trkpt><trkpt lat="41.09457" lon="13.9108583"><ele>1.1428571428571428</ele><time>2026-04-11T10:29:57.86Z</time></trkpt><trkpt lat="41.0944933" lon="13.9108517"><ele>1.0</ele><time>2026-04-11T10:29:58.858Z</time></trkpt><trkpt lat="41.0944183" lon="13.9108417"><ele>0.9999999999999999</ele><time>2026-04-11T10:29:59.859Z</time></trkpt><trkpt lat="41.0943433" lon="13.9108267"><ele>1.0</ele><time>2026-04-11T10:30:00.858Z</time></trkpt><trkpt lat="41.0942683" lon="13.9108083"><ele>1.0</ele><time>2026-04-11T10:30:01.859Z</time></trkpt><trkpt lat="41.0941983" lon="13.91078"><ele>1.0</ele><time>2026-04-11T10:30:02.859Z</time></trkpt><trkpt lat="41.09413" lon="13.91074"><ele>0.9999999999999999</ele><time>2026-04-11T10:30:03.859Z</time></trkpt><trkpt lat="41.094065" lon="13.91069"><ele>1.0</ele><time>2026-04-11T10:30:04.86Z</time></trkpt><trkpt lat="41.0939967" lon="13.91064"><ele>0.6666666666666666</ele><time>2026-04-11T10:30:05.859Z</time></trkpt><trkpt lat="41.0939317" lon="13.910585"><ele>0.3333333333333333</ele><time>2026-04-11T10:30:06.858Z</time></trkpt><trkpt lat="41.09387" lon="13.910525"><ele>0.0</ele><time>2026-04-11T10:30:07.86Z</time></trkpt><trkpt lat="41.093815" lon="13.9104567"><ele>-0.3333333333333333</ele><time>2026-04-11T10:30:08.86Z</time></trkpt><trkpt lat="41.0937667" lon="13.9103783"><ele>-0.6666666666666666</ele><time>2026-04-11T10:30:09.859Z</time></trkpt><trkpt lat="41.0937217" lon="13.9102917"><ele>-1.0</ele><time>2026-04-11T10:30:10.859Z</time></trkpt><trkpt lat="41.0936767" lon="13.9102017"><ele>-0.9999999999999999</ele><time>2026-04-11T10:30:11.86Z</time></trkpt><trkpt lat="41.0936333" lon="13.9101217"><ele>-1.0</ele><time>2026-04-11T10:30:12.859Z</time></trkpt><trkpt lat="41.0935867" lon="13.9100417"><ele>-1.0</ele><time>2026-04-11T10:30:13.859Z</time></trkpt><trkpt lat="41.0935367" lon="13.9099617"><ele>-1.0</ele><time>2026-04-11T10:30:14.86Z</time></trkpt><trkpt lat="41.0934883" lon="13.909875"><ele>-0.9999999999999999</ele><time>2026-04-11T10:30:15.859Z</time></trkpt><trkpt lat="41.0934433" lon="13.9097917"><ele>-1.0</ele><time>2026-04-11T10:30:16.858Z</time></trkpt><trkpt lat="41.0933967" lon="13.90971"><ele>-0.8333333333333333</ele><time>2026-04-11T10:30:17.858Z</time></trkpt><trkpt lat="41.0933517" lon="13.90963"><ele>-0.6666666666666666</ele><time>2026-04-11T10:30:18.858Z</time></trkpt><trkpt lat="41.0933067" lon="13.9095467"><ele>-0.5</ele><time>2026-04-11T10:30:19.86Z</time></trkpt><trkpt lat="41.0932583" lon="13.9094567"><ele>-0.3333333333333333</ele><time>2026-04-11T10:30:20.859Z</time></trkpt><trkpt lat="41.0932083" lon="13.9093683"><ele>-0.16666666666666666</ele><time>2026-04-11T10:30:21.859Z</time></trkpt><trkpt lat="41.0931567" lon="13.9092833"><ele>0.0</ele><time>2026-04-11T10:30:22.859Z</time></trkpt><trkpt lat="41.0931067" lon="13.9092017"><ele>0.0</ele><time>2026-04-11T10:30:23.86Z</time></trkpt><trkpt lat="41.093055" lon="13.9091167"><ele>0.0</ele><time>2026-04-11T10:30:24.858Z</time></trkpt><trkpt lat="41.093005" lon="13.9090367"><ele>0.0</ele><time>2026-04-11T10:30:25.86Z</time></trkpt><trkpt lat="41.092965" lon="13.908955"><ele>0.0</ele><time>2026-04-11T10:30:26.857Z</time></trkpt><trkpt lat="41.0929167" lon="13.9088783"><ele>0.0</ele><time>2026-04-11T10:30:27.857Z</time></trkpt><trkpt lat="41.09287" lon="13.9088067"><ele>0.0</ele><time>2026-04-11T10:30:28.858Z</time></trkpt><trkpt lat="41.0928267" lon="13.9087367"><ele>0.0</ele><time>2026-04-11T10:30:29.861Z</time></trkpt><trkpt lat="41.0927833" lon="13.908665"><ele>0.0</ele><time>2026-04-11T10:30:30.861Z</time></trkpt><trkpt lat="41.0927367" lon="13.9085933"><ele>0.0</ele><time>2026-04-11T10:30:31.859Z</time></trkpt><trkpt lat="41.0926917" lon="13.90852"><ele>0.0</ele><time>2026-04-11T10:30:32.858Z</time></trkpt><trkpt lat="41.0926483" lon="13.9084417"><ele>0.0</ele><time>2026-04-11T10:30:33.858Z</time></trkpt><trkpt lat="41.0926033" lon="13.9083633"><ele>0.0</ele><time>2026-04-11T10:30:34.86Z</time></trkpt><trkpt lat="41.0925617" lon="13.90829"><ele>0.0</ele><time>2026-04-11T10:30:35.859Z</time></trkpt><trkpt lat="41.0925183" lon="13.9082167"><ele>0.0</ele><time>2026-04-11T10:30:36.86Z</time></trkpt><trkpt lat="41.092475" lon="13.9081433"><ele>0.0</ele><time>2026-04-11T10:30:37.858Z</time></trkpt><trkpt lat="41.0924333" lon="13.90807"><ele>0.0</ele><time>2026-04-11T10:30:38.858Z</time></trkpt><trkpt lat="41.0923933" lon="13.9079967"><ele>0.0</ele><time>2026-04-11T10:30:39.858Z</time></trkpt><trkpt lat="41.0923667" lon="13.90792"><ele>0.0</ele><time>2026-04-11T10:30:40.859Z</time></trkpt><trkpt lat="41.0923583" lon="13.9077633"><ele>0.0</ele><time>2026-04-11T10:30:42.856Z</time></trkpt><trkpt lat="41.092335" lon="13.9076117"><ele>0.0</ele><time>2026-04-11T10:30:44.861Z</time></trkpt><trkpt lat="41.0922467" lon="13.9075083"><ele>0.0</ele><time>2026-04-11T10:30:46.858Z</time></trkpt><trkpt lat="41.0921267" lon="13.90748"><ele>0.0</ele><time>2026-04-11T10:30:48.859Z</time></trkpt><trkpt lat="41.0920567" lon="13.9075233"><ele>0.0</ele><time>2026-04-11T10:30:49.86Z</time></trkpt><trkpt lat="41.0920017" lon="13.9075833"><ele>0.0</ele><time>2026-04-11T10:30:50.86Z</time></trkpt><trkpt lat="41.09195" lon="13.9076667"><ele>0.0</ele><time>2026-04-11T10:30:51.859Z</time></trkpt><trkpt lat="41.0919" lon="13.9077467"><ele>0.0</ele><time>2026-04-11T10:30:52.859Z</time></trkpt><trkpt lat="41.0918517" lon="13.9078167"><ele>0.0</ele><time>2026-04-11T10:30:53.86Z</time></trkpt><trkpt lat="41.0917967" lon="13.9078833"><ele>0.0</ele><time>2026-04-11T10:30:54.859Z</time></trkpt><trkpt lat="41.0917333" lon="13.9079417"><ele>0.0</ele><time>2026-04-11T10:30:55.86Z</time></trkpt><trkpt lat="41.09167" lon="13.9079967"><ele>0.0</ele><time>2026-04-11T10:30:56.858Z</time></trkpt><trkpt lat="41.0916033" lon="13.9080517"><ele>0.0</ele><time>2026-04-11T10:30:57.858Z</time></trkpt><trkpt lat="41.091535" lon="13.908105"><ele>0.0</ele><time>2026-04-11T10:30:58.858Z</time></trkpt><trkpt lat="41.0914633" lon="13.9081583"><ele>0.3333333333333333</ele><time>2026-04-11T10:30:59.86Z</time></trkpt><trkpt lat="41.0913917" lon="13.90821"><ele>0.6666666666666666</ele><time>2026-04-11T10:31:00.859Z</time></trkpt><trkpt lat="41.0913183" lon="13.9082633"><ele>1.0</ele><time>2026-04-11T10:31:01.859Z</time></trkpt><trkpt lat="41.0912467" lon="13.9083133"><ele>1.3333333333333333</ele><time>2026-04-11T10:31:02.858Z</time></trkpt><trkpt lat="41.0911717" lon="13.90836"><ele>1.6666666666666665</ele><time>2026-04-11T10:31:03.858Z</time></trkpt><trkpt lat="41.0910983" lon="13.9084067"><ele>2.0</ele><time>2026-04-11T10:31:04.858Z</time></trkpt><trkpt lat="41.0910233" lon="13.90845"><ele>2.1666666666666665</ele><time>2026-04-11T10:31:05.859Z</time></trkpt><trkpt lat="41.0909467" lon="13.9084867"><ele>2.333333333333333</ele><time>2026-04-11T10:31:06.859Z</time></trkpt><trkpt lat="41.0908717" lon="13.9085217"><ele>2.5</ele><time>2026-04-11T10:31:07.86Z</time></trkpt><trkpt lat="41.090795" lon="13.9085567"><ele>2.6666666666666665</ele><time>2026-04-11T10:31:08.859Z</time></trkpt><trkpt lat="41.0907183" lon="13.9085867"><ele>2.8333333333333335</ele><time>2026-04-11T10:31:09.858Z</time></trkpt><trkpt lat="41.0906417" lon="13.9086133"><ele>3.0</ele><time>2026-04-11T10:31:10.859Z</time></trkpt><trkpt lat="41.0905667" lon="13.908645"><ele>2.6666666666666665</ele><time>2026-04-11T10:31:11.86Z</time></trkpt><trkpt lat="41.0904917" lon="13.908675"><ele>2.3333333333333335</ele><time>2026-04-11T10:31:12.858Z</time></trkpt><trkpt lat="41.090415" lon="13.908705"><ele>2.0</ele><time>2026-04-11T10:31:13.86Z</time></trkpt><trkpt lat="41.09034" lon="13.9087333"><ele>1.6666666666666665</ele><time>2026-04-11T10:31:14.858Z</time></trkpt><trkpt lat="41.0902633" lon="13.9087617"><ele>1.3333333333333333</ele><time>2026-04-11T10:31:15.858Z</time></trkpt><trkpt lat="41.0901867" lon="13.9087967"><ele>1.0</ele><time>2026-04-11T10:31:16.859Z</time></trkpt><trkpt lat="41.0901083" lon="13.90883"><ele>0.9999999999999999</ele><time>2026-04-11T10:31:17.859Z</time></trkpt><trkpt lat="41.0900283" lon="13.9088633"><ele>1.0</ele><time>2026-04-11T10:31:18.859Z</time></trkpt><trkpt lat="41.0899483" lon="13.9089"><ele>1.0</ele><time>2026-04-11T10:31:19.859Z</time></trkpt><trkpt lat="41.0898683" lon="13.9089267"><ele>1.0</ele><time>2026-04-11T10:31:20.859Z</time></trkpt><trkpt lat="41.089785" lon="13.908955"><ele>0.9999999999999999</ele><time>2026-04-11T10:31:21.858Z</time></trkpt><trkpt lat="41.0897033" lon="13.908985"><ele>1.0</ele><time>2026-04-11T10:31:22.858Z</time></trkpt><trkpt lat="41.0896217" lon="13.9090217"><ele>0.9999999999999999</ele><time>2026-04-11T10:31:23.86Z</time></trkpt><trkpt lat="41.08954" lon="13.909055"><ele>1.0</ele><time>2026-04-11T10:31:24.861Z</time></trkpt><trkpt lat="41.0894583" lon="13.9090917"><ele>1.0</ele><time>2026-04-11T10:31:25.86Z</time></trkpt><trkpt lat="41.0893767" lon="13.9091267"><ele>1.0</ele><time>2026-04-11T10:31:26.859Z</time></trkpt><trkpt lat="41.0892917" lon="13.9091633"><ele>0.9999999999999999</ele><time>2026-04-11T10:31:27.859Z</time></trkpt><trkpt lat="41.08921" lon="13.9092033"><ele>1.0</ele><time>2026-04-11T10:31:28.859Z</time></trkpt><trkpt lat="41.0891283" lon="13.9092433"><ele>1.3333333333333333</ele><time>2026-04-11T10:31:29.859Z</time></trkpt><trkpt lat="41.0890483" lon="13.9092867"><ele>1.6666666666666665</ele><time>2026-04-11T10:31:30.858Z</time></trkpt><trkpt lat="41.08897" lon="13.9093283"><ele>2.0</ele><time>2026-04-11T10:31:31.86Z</time></trkpt><trkpt lat="41.08889" lon="13.9093717"><ele>2.3333333333333335</ele><time>2026-04-11T10:31:32.86Z</time></trkpt><trkpt lat="41.0888133" lon="13.9094167"><ele>2.6666666666666665</ele><time>2026-04-11T10:31:33.86Z</time></trkpt><trkpt lat="41.088735" lon="13.9094633"><ele>3.0</ele><time>2026-04-11T10:31:34.858Z</time></trkpt><trkpt lat="41.088655" lon="13.9095083"><ele>3.0</ele><time>2026-04-11T10:31:35.86Z</time></trkpt><trkpt lat="41.0885767" lon="13.9095533"><ele>3.0</ele><time>2026-04-11T10:31:36.859Z</time></trkpt><trkpt lat="41.0884967" lon="13.9095983"><ele>3.0</ele><time>2026-04-11T10:31:37.861Z</time></trkpt><trkpt lat="41.0884183" lon="13.909645"><ele>3.0</ele><time>2026-04-11T10:31:38.86Z</time></trkpt><trkpt lat="41.08834" lon="13.9096917"><ele>3.0</ele><time>2026-04-11T10:31:39.86Z</time></trkpt><trkpt lat="41.08826" lon="13.9097383"><ele>3.0</ele><time>2026-04-11T10:31:40.86Z</time></trkpt><trkpt lat="41.0881767" lon="13.9097883"><ele>3.0</ele><time>2026-04-11T10:31:41.861Z</time></trkpt><trkpt lat="41.0880933" lon="13.9098383"><ele>3.0</ele><time>2026-04-11T10:31:42.859Z</time></trkpt><trkpt lat="41.088015" lon="13.90989"><ele>3.0</ele><time>2026-04-11T10:31:43.861Z</time></trkpt><trkpt lat="41.0879367" lon="13.9099433"><ele>3.0</ele><time>2026-04-11T10:31:44.86Z</time></trkpt><trkpt lat="41.08786" lon="13.91"><ele>3.0</ele><time>2026-04-11T10:31:45.859Z</time></trkpt><trkpt lat="41.08778" lon="13.9100583"><ele>3.0</ele><time>2026-04-11T10:31:46.859Z</time></trkpt><trkpt lat="41.0877033" lon="13.91012"><ele>3.0</ele><time>2026-04-11T10:31:47.859Z</time></trkpt><trkpt lat="41.0876267" lon="13.9101767"><ele>3.0</ele><time>2026-04-11T10:31:48.86Z</time></trkpt><trkpt lat="41.087555" lon="13.910235"><ele>3.0</ele><time>2026-04-11T10:31:49.861Z</time></trkpt><trkpt lat="41.08748" lon="13.9102917"><ele>3.0</ele><time>2026-04-11T10:31:50.859Z</time></trkpt><trkpt lat="41.0874033" lon="13.910355"><ele>3.0</ele><time>2026-04-11T10:31:51.859Z</time></trkpt><trkpt lat="41.0873267" lon="13.9104183"><ele>3.0</ele><time>2026-04-11T10:31:52.859Z</time></trkpt><trkpt lat="41.0872483" lon="13.9104783"><ele>2.6666666666666665</ele><time>2026-04-11T10:31:53.86Z</time></trkpt><trkpt lat="41.0871717" lon="13.91054"><ele>2.3333333333333335</ele><time>2026-04-11T10:31:54.858Z</time></trkpt><trkpt lat="41.0870933" lon="13.9106"><ele>2.0</ele><time>2026-04-11T10:31:55.859Z</time></trkpt><trkpt lat="41.0870167" lon="13.910665"><ele>1.6666666666666665</ele><time>2026-04-11T10:31:56.859Z</time></trkpt><trkpt lat="41.0869417" lon="13.910725"><ele>1.3333333333333333</ele><time>2026-04-11T10:31:57.86Z</time></trkpt><trkpt lat="41.0868667" lon="13.910785"><ele>1.0</ele><time>2026-04-11T10:31:58.86Z</time></trkpt><trkpt lat="41.0867917" lon="13.910845"><ele>0.9999999999999999</ele><time>2026-04-11T10:31:59.861Z</time></trkpt><trkpt lat="41.0867167" lon="13.9109"><ele>1.0</ele><time>2026-04-11T10:32:00.861Z</time></trkpt><trkpt lat="41.0866433" lon="13.9109583"><ele>1.0</ele><time>2026-04-11T10:32:01.859Z</time></trkpt><trkpt lat="41.08657" lon="13.9110183"><ele>1.0</ele><time>2026-04-11T10:32:02.86Z</time></trkpt><trkpt lat="41.0864933" lon="13.9110767"><ele>0.9999999999999999</ele><time>2026-04-11T10:32:03.859Z</time></trkpt><trkpt lat="41.08642" lon="13.9111367"><ele>1.0</ele><time>2026-04-11T10:32:04.861Z</time></trkpt><trkpt lat="41.0863467" lon="13.9111967"><ele>1.1666666666666665</ele><time>2026-04-11T10:32:05.859Z</time></trkpt><trkpt lat="41.0862717" lon="13.91126"><ele>1.3333333333333333</ele><time>2026-04-11T10:32:06.861Z</time></trkpt><trkpt lat="41.0861967" lon="13.9113167"><ele>1.5</ele><time>2026-04-11T10:32:07.861Z</time></trkpt><trkpt lat="41.0861217" lon="13.9113767"><ele>1.6666666666666665</ele><time>2026-04-11T10:32:08.86Z</time></trkpt><trkpt lat="41.0860467" lon="13.9114367"><ele>1.8333333333333333</ele><time>2026-04-11T10:32:09.858Z</time></trkpt><trkpt lat="41.0859733" lon="13.9114967"><ele>2.0</ele><time>2026-04-11T10:32:10.859Z</time></trkpt><trkpt lat="41.0858983" lon="13.9115533"><ele>1.9999999999999998</ele><time>2026-04-11T10:32:11.861Z</time></trkpt><trkpt lat="41.085825" lon="13.9116083"><ele>2.0</ele><time>2026-04-11T10:32:12.86Z</time></trkpt><trkpt lat="41.0857533" lon="13.9116683"><ele>2.0</ele><time>2026-04-11T10:32:13.861Z</time></trkpt><trkpt lat="41.08568" lon="13.9117283"><ele>2.0</ele><time>2026-04-11T10:32:14.861Z</time></trkpt><trkpt lat="41.0856083" lon="13.9117867"><ele>1.9999999999999998</ele><time>2026-04-11T10:32:15.86Z</time></trkpt><trkpt lat="41.0855333" lon="13.9118467"><ele>2.0</ele><time>2026-04-11T10:32:16.859Z</time></trkpt><trkpt lat="41.0854583" lon="13.9119067"><ele>1.9999999999999998</ele><time>2026-04-11T10:32:17.86Z</time></trkpt><trkpt lat="41.0853833" lon="13.9119667"><ele>2.0</ele><time>2026-04-11T10:32:18.858Z</time></trkpt><trkpt lat="41.0853067" lon="13.912025"><ele>2.0</ele><time>2026-04-11T10:32:19.861Z</time></trkpt><trkpt lat="41.08523" lon="13.91208"><ele>2.0</ele><time>2026-04-11T10:32:20.861Z</time></trkpt><trkpt lat="41.0851533" lon="13.9121367"><ele>1.9999999999999998</ele><time>2026-04-11T10:32:21.86Z</time></trkpt><trkpt lat="41.085075" lon="13.9121983"><ele>2.0</ele><time>2026-04-11T10:32:22.859Z</time></trkpt><trkpt lat="41.0849967" lon="13.912255"><ele>1.8333333333333333</ele><time>2026-04-11T10:32:23.86Z</time></trkpt><trkpt lat="41.0849183" lon="13.912315"><ele>1.6666666666666665</ele><time>2026-04-11T10:32:24.861Z</time></trkpt><trkpt lat="41.0848467" lon="13.9123733"><ele>1.5</ele><time>2026-04-11T10:32:25.858Z</time></trkpt><trkpt lat="41.0847717" lon="13.9124317"><ele>1.3333333333333333</ele><time>2026-04-11T10:32:26.86Z</time></trkpt><trkpt lat="41.0846983" lon="13.91249"><ele>1.1666666666666665</ele><time>2026-04-11T10:32:27.859Z</time></trkpt><trkpt lat="41.0846267" lon="13.91255"><ele>1.0</ele><time>2026-04-11T10:32:28.86Z</time></trkpt><trkpt lat="41.084555" lon="13.91261"><ele>1.3333333333333333</ele><time>2026-04-11T10:32:29.861Z</time></trkpt><trkpt lat="41.0844783" lon="13.912665"><ele>1.6666666666666665</ele><time>2026-04-11T10:32:30.86Z</time></trkpt><trkpt lat="41.084405" lon="13.912725"><ele>2.0</ele><time>2026-04-11T10:32:31.86Z</time></trkpt><trkpt lat="41.0843283" lon="13.91278"><ele>2.3333333333333335</ele><time>2026-04-11T10:32:32.86Z</time></trkpt><trkpt lat="41.0842567" lon="13.91284"><ele>2.6666666666666665</ele><time>2026-04-11T10:32:33.86Z</time></trkpt><trkpt lat="41.0841833" lon="13.9129"><ele>3.0</ele><time>2026-04-11T10:32:34.86Z</time></trkpt><trkpt lat="41.0841083" lon="13.9129617"><ele>2.6666666666666665</ele><time>2026-04-11T10:32:35.858Z</time></trkpt><trkpt lat="41.0840317" lon="13.9130217"><ele>2.3333333333333335</ele><time>2026-04-11T10:32:36.859Z</time></trkpt><trkpt lat="41.083955" lon="13.9130817"><ele>2.0</ele><time>2026-04-11T10:32:37.86Z</time></trkpt><trkpt lat="41.08388" lon="13.9131433"><ele>1.6666666666666665</ele><time>2026-04-11T10:32:38.858Z</time></trkpt><trkpt lat="41.0838067" lon="13.913205"><ele>1.3333333333333333</ele><time>2026-04-11T10:32:39.857Z</time></trkpt><trkpt lat="41.0837317" lon="13.9132667"><ele>1.0</ele><time>2026-04-11T10:32:40.86Z</time></trkpt><trkpt lat="41.0836583" lon="13.9133267"><ele>0.9999999999999999</ele><time>2026-04-11T10:32:41.86Z</time></trkpt><trkpt lat="41.0835833" lon="13.9133867"><ele>1.0</ele><time>2026-04-11T10:32:42.861Z</time></trkpt><trkpt lat="41.0835083" lon="13.9134433"><ele>1.0</ele><time>2026-04-11T10:32:43.86Z</time></trkpt><trkpt lat="41.083435" lon="13.9135033"><ele>1.0</ele><time>2026-04-11T10:32:44.858Z</time></trkpt><trkpt lat="41.0833583" lon="13.913565"><ele>0.9999999999999999</ele><time>2026-04-11T10:32:45.857Z</time></trkpt><trkpt lat="41.0832833" lon="13.9136283"><ele>1.0</ele><time>2026-04-11T10:32:46.86Z</time></trkpt><trkpt lat="41.0832133" lon="13.9136867"><ele>1.1666666666666665</ele><time>2026-04-11T10:32:47.86Z</time></trkpt><trkpt lat="41.08314" lon="13.9137433"><ele>1.3333333333333333</ele><time>2026-04-11T10:32:48.861Z</time></trkpt><trkpt lat="41.0830667" lon="13.9138017"><ele>1.5</ele><time>2026-04-11T10:32:49.86Z</time></trkpt><trkpt lat="41.0829933" lon="13.9138617"><ele>1.6666666666666665</ele><time>2026-04-11T10:32:50.857Z</time></trkpt><trkpt lat="41.0829133" lon="13.9139183"><ele>1.8333333333333333</ele><time>2026-04-11T10:32:51.859Z</time></trkpt><trkpt lat="41.0828367" lon="13.913975"><ele>2.0</ele><time>2026-04-11T10:32:52.86Z</time></trkpt><trkpt lat="41.08276" lon="13.91403"><ele>1.9999999999999998</ele><time>2026-04-11T10:32:53.861Z</time></trkpt><trkpt lat="41.082685" lon="13.91409"><ele>2.0</ele><time>2026-04-11T10:32:54.861Z</time></trkpt><trkpt lat="41.0826117" lon="13.914145"><ele>2.0</ele><time>2026-04-11T10:32:55.859Z</time></trkpt><trkpt lat="41.0825383" lon="13.9142033"><ele>2.0</ele><time>2026-04-11T10:32:56.858Z</time></trkpt><trkpt lat="41.082465" lon="13.9142583"><ele>1.9999999999999998</ele><time>2026-04-11T10:32:57.86Z</time></trkpt><trkpt lat="41.0823917" lon="13.914315"><ele>2.0</ele><time>2026-04-11T10:32:58.86Z</time></trkpt><trkpt lat="41.08232" lon="13.9143717"><ele>1.8333333333333333</ele><time>2026-04-11T10:32:59.86Z</time></trkpt><trkpt lat="41.0822483" lon="13.91443"><ele>1.6666666666666665</ele><time>2026-04-11T10:33:00.859Z</time></trkpt><trkpt lat="41.0821783" lon="13.91449"><ele>1.5</ele><time>2026-04-11T10:33:01.859Z</time></trkpt><trkpt lat="41.082105" lon="13.9145517"><ele>1.3333333333333333</ele><time>2026-04-11T10:33:02.86Z</time></trkpt><trkpt lat="41.0820333" lon="13.91461"><ele>1.1666666666666665</ele><time>2026-04-11T10:33:03.86Z</time></trkpt><trkpt lat="41.0819667" lon="13.91467"><ele>1.0</ele><time>2026-04-11T10:33:04.862Z</time></trkpt><trkpt lat="41.0818983" lon="13.91473"><ele>0.9999999999999999</ele><time>2026-04-11T10:33:05.866Z</time></trkpt><trkpt lat="41.0818317" lon="13.9147917"><ele>1.0</ele><time>2026-04-11T10:33:06.858Z</time></trkpt><trkpt lat="41.0817683" lon="13.91485"><ele>1.0</ele><time>2026-04-11T10:33:07.858Z</time></trkpt><trkpt lat="41.0817033" lon="13.9149133"><ele>1.0</ele><time>2026-04-11T10:33:08.86Z</time></trkpt><trkpt lat="41.0816383" lon="13.9149767"><ele>0.9999999999999999</ele><time>2026-04-11T10:33:09.86Z</time></trkpt><trkpt lat="41.0815717" lon="13.915045"><ele>1.0</ele><time>2026-04-11T10:33:10.86Z</time></trkpt><trkpt lat="41.0815033" lon="13.9151183"><ele>1.3333333333333333</ele><time>2026-04-11T10:33:11.86Z</time></trkpt><trkpt lat="41.0814333" lon="13.9151933"><ele>1.6666666666666665</ele><time>2026-04-11T10:33:12.861Z</time></trkpt><trkpt lat="41.0813667" lon="13.9152683"><ele>2.0</ele><time>2026-04-11T10:33:13.86Z</time></trkpt><trkpt lat="41.0813" lon="13.9153433"><ele>2.3333333333333335</ele><time>2026-04-11T10:33:14.859Z</time></trkpt><trkpt lat="41.0812317" lon="13.9154167"><ele>2.6666666666666665</ele><time>2026-04-11T10:33:15.859Z</time></trkpt><trkpt lat="41.0811667" lon="13.91549"><ele>3.0</ele><time>2026-04-11T10:33:16.86Z</time></trkpt><trkpt lat="41.0811017" lon="13.9155633"><ele>3.0</ele><time>2026-04-11T10:33:17.86Z</time></trkpt><trkpt lat="41.0810383" lon="13.9156417"><ele>3.0</ele><time>2026-04-11T10:33:18.858Z</time></trkpt><trkpt lat="41.080975" lon="13.9157217"><ele>3.0</ele><time>2026-04-11T10:33:19.859Z</time></trkpt><trkpt lat="41.0809117" lon="13.9158017"><ele>3.0</ele><time>2026-04-11T10:33:20.861Z</time></trkpt><trkpt lat="41.0808483" lon="13.915885"><ele>3.0</ele><time>2026-04-11T10:33:21.859Z</time></trkpt><trkpt lat="41.0807867" lon="13.9159733"><ele>3.0</ele><time>2026-04-11T10:33:22.86Z</time></trkpt><trkpt lat="41.0807233" lon="13.91606"><ele>3.0</ele><time>2026-04-11T10:33:23.86Z</time></trkpt><trkpt lat="41.08066" lon="13.916145"><ele>3.0</ele><time>2026-04-11T10:33:24.86Z</time></trkpt><trkpt lat="41.0805933" lon="13.91623"><ele>3.0</ele><time>2026-04-11T10:33:25.861Z</time></trkpt><trkpt lat="41.08053" lon="13.9163133"><ele>3.0</ele><time>2026-04-11T10:33:26.859Z</time></trkpt><trkpt lat="41.080465" lon="13.9163933"><ele>3.0</ele><time>2026-04-11T10:33:27.859Z</time></trkpt><trkpt lat="41.0803983" lon="13.916475"><ele>3.0</ele><time>2026-04-11T10:33:28.86Z</time></trkpt><trkpt lat="41.080335" lon="13.9165583"><ele>3.0</ele><time>2026-04-11T10:33:29.86Z</time></trkpt><trkpt lat="41.0802717" lon="13.9166433"><ele>3.0</ele><time>2026-04-11T10:33:30.861Z</time></trkpt><trkpt lat="41.0802083" lon="13.9167267"><ele>3.0</ele><time>2026-04-11T10:33:31.859Z</time></trkpt><trkpt lat="41.0801417" lon="13.9168083"><ele>3.0</ele><time>2026-04-11T10:33:32.861Z</time></trkpt><trkpt lat="41.0800783" lon="13.9168917"><ele>3.0</ele><time>2026-04-11T10:33:33.86Z</time></trkpt><trkpt lat="41.080015" lon="13.916975"><ele>2.8333333333333335</ele><time>2026-04-11T10:33:34.859Z</time></trkpt><trkpt lat="41.07995" lon="13.9170567"><ele>2.6666666666666665</ele><time>2026-04-11T10:33:35.86Z</time></trkpt><trkpt lat="41.079885" lon="13.91714"><ele>2.5</ele><time>2026-04-11T10:33:36.86Z</time></trkpt><trkpt lat="41.07982" lon="13.9172233"><ele>2.333333333333333</ele><time>2026-04-11T10:33:37.86Z</time></trkpt><trkpt lat="41.079755" lon="13.917305"><ele>2.1666666666666665</ele><time>2026-04-11T10:33:38.86Z</time></trkpt><trkpt lat="41.07969" lon="13.9173833"><ele>2.0</ele><time>2026-04-11T10:33:39.86Z</time></trkpt><trkpt lat="41.0796217" lon="13.91746"><ele>1.9999999999999998</ele><time>2026-04-11T10:33:40.86Z</time></trkpt><trkpt lat="41.0795567" lon="13.917535"><ele>2.0</ele><time>2026-04-11T10:33:41.861Z</time></trkpt><trkpt lat="41.07949" lon="13.9176017"><ele>2.0</ele><time>2026-04-11T10:33:42.861Z</time></trkpt><trkpt lat="41.07942" lon="13.91767"><ele>2.0</ele><time>2026-04-11T10:33:43.861Z</time></trkpt><trkpt lat="41.0793483" lon="13.9177367"><ele>1.9999999999999998</ele><time>2026-04-11T10:33:44.859Z</time></trkpt><trkpt lat="41.0792783" lon="13.9178033"><ele>2.0</ele><time>2026-04-11T10:33:45.857Z</time></trkpt><trkpt lat="41.07921" lon="13.917865"><ele>1.9999999999999998</ele><time>2026-04-11T10:33:46.859Z</time></trkpt><trkpt lat="41.0791433" lon="13.9179217"><ele>2.0</ele><time>2026-04-11T10:33:47.86Z</time></trkpt><trkpt lat="41.0790733" lon="13.9179733"><ele>2.0</ele><time>2026-04-11T10:33:48.861Z</time></trkpt><trkpt lat="41.0790033" lon="13.9180267"><ele>2.0</ele><time>2026-04-11T10:33:49.86Z</time></trkpt><trkpt lat="41.0789317" lon="13.9180817"><ele>1.9999999999999998</ele><time>2026-04-11T10:33:50.858Z</time></trkpt><trkpt lat="41.07886" lon="13.918135"><ele>2.0</ele><time>2026-04-11T10:33:51.86Z</time></trkpt><trkpt lat="41.078785" lon="13.918185"><ele>1.9999999999999998</ele><time>2026-04-11T10:33:52.86Z</time></trkpt><trkpt lat="41.07871" lon="13.918235"><ele>2.0</ele><time>2026-04-11T10:33:53.861Z</time></trkpt><trkpt lat="41.0786333" lon="13.91828"><ele>2.0</ele><time>2026-04-11T10:33:54.86Z</time></trkpt><trkpt lat="41.0785567" lon="13.91832"><ele>2.0</ele><time>2026-04-11T10:33:55.861Z</time></trkpt><trkpt lat="41.0784767" lon="13.9183583"><ele>1.9999999999999998</ele><time>2026-04-11T10:33:56.86Z</time></trkpt><trkpt lat="41.0783983" lon="13.9183983"><ele>2.0</ele><time>2026-04-11T10:33:57.859Z</time></trkpt><trkpt lat="41.0783217" lon="13.918445"><ele>1.9999999999999998</ele><time>2026-04-11T10:33:58.861Z</time></trkpt><trkpt lat="41.0782417" lon="13.9184883"><ele>2.0</ele><time>2026-04-11T10:33:59.859Z</time></trkpt><trkpt lat="41.07816" lon="13.9185283"><ele>2.0</ele><time>2026-04-11T10:34:00.859Z</time></trkpt><trkpt lat="41.0780767" lon="13.9185717"><ele>2.0</ele><time>2026-04-11T10:34:01.861Z</time></trkpt><trkpt lat="41.0779967" lon="13.9186133"><ele>1.9999999999999998</ele><time>2026-04-11T10:34:02.86Z</time></trkpt><trkpt lat="41.0779183" lon="13.918655"><ele>2.0</ele><time>2026-04-11T10:34:03.861Z</time></trkpt><trkpt lat="41.07784" lon="13.9186967"><ele>1.9999999999999998</ele><time>2026-04-11T10:34:04.859Z</time></trkpt><trkpt lat="41.07776" lon="13.9187467"><ele>2.0</ele><time>2026-04-11T10:34:05.859Z</time></trkpt><trkpt lat="41.07768" lon="13.91879"><ele>2.0</ele><time>2026-04-11T10:34:06.858Z</time></trkpt><trkpt lat="41.0776" lon="13.91883"><ele>2.0</ele><time>2026-04-11T10:34:07.861Z</time></trkpt><trkpt lat="41.07752" lon="13.9188583"><ele>1.9999999999999998</ele><time>2026-04-11T10:34:08.861Z</time></trkpt><trkpt lat="41.0774383" lon="13.91887"><ele>2.0</ele><time>2026-04-11T10:34:09.86Z</time></trkpt><trkpt lat="41.077365" lon="13.9188517"><ele>2.1666666666666665</ele><time>2026-04-11T10:34:10.858Z</time></trkpt><trkpt lat="41.0772867" lon="13.918825"><ele>2.333333333333333</ele><time>2026-04-11T10:34:11.861Z</time></trkpt><trkpt lat="41.0772117" lon="13.9188067"><ele>2.5</ele><time>2026-04-11T10:34:12.86Z</time></trkpt><trkpt lat="41.0771333" lon="13.9188217"><ele>2.6666666666666665</ele><time>2026-04-11T10:34:13.861Z</time></trkpt><trkpt lat="41.0770583" lon="13.9188617"><ele>2.8333333333333335</ele><time>2026-04-11T10:34:14.86Z</time></trkpt><trkpt lat="41.0769933" lon="13.9189233"><ele>3.0</ele><time>2026-04-11T10:34:15.861Z</time></trkpt><trkpt lat="41.0769317" lon="13.9190033"><ele>3.0</ele><time>2026-04-11T10:34:16.86Z</time></trkpt><trkpt lat="41.07688" lon="13.9190967"><ele>3.0</ele><time>2026-04-11T10:34:17.859Z</time></trkpt><trkpt lat="41.0768283" lon="13.91919"><ele>3.0</ele><time>2026-04-11T10:34:18.86Z</time></trkpt><trkpt lat="41.0767633" lon="13.9192667"><ele>3.0</ele><time>2026-04-11T10:34:19.86Z</time></trkpt><trkpt lat="41.07669" lon="13.9193317"><ele>3.0</ele><time>2026-04-11T10:34:20.859Z</time></trkpt><trkpt lat="41.0766067" lon="13.9193783"><ele>3.0</ele><time>2026-04-11T10:34:21.858Z</time></trkpt><trkpt lat="41.0765183" lon="13.919415"><ele>2.8</ele><time>2026-04-11T10:34:22.86Z</time></trkpt><trkpt lat="41.07643" lon="13.9194533"><ele>2.5999999999999996</ele><time>2026-04-11T10:34:23.861Z</time></trkpt><trkpt lat="41.0763433" lon="13.9194967"><ele>2.4000000000000004</ele><time>2026-04-11T10:34:24.861Z</time></trkpt><trkpt lat="41.0762567" lon="13.9195417"><ele>2.2</ele><time>2026-04-11T10:34:25.861Z</time></trkpt><trkpt lat="41.07617" lon="13.9195883"><ele>2.0</ele><time>2026-04-11T10:34:26.86Z</time></trkpt><trkpt lat="41.0760867" lon="13.9196367"><ele>1.9999999999999998</ele><time>2026-04-11T10:34:27.859Z</time></trkpt><trkpt lat="41.0760033" lon="13.91969"><ele>2.0</ele><time>2026-04-11T10:34:28.861Z</time></trkpt><trkpt lat="41.07592" lon="13.91974"><ele>2.0</ele><time>2026-04-11T10:34:29.86Z</time></trkpt><trkpt lat="41.0758383" lon="13.919785"><ele>2.0</ele><time>2026-04-11T10:34:30.86Z</time></trkpt><trkpt lat="41.0757583" lon="13.9198317"><ele>1.9999999999999998</ele><time>2026-04-11T10:34:31.861Z</time></trkpt><trkpt lat="41.0756783" lon="13.9198767"><ele>2.0</ele><time>2026-04-11T10:34:32.859Z</time></trkpt><trkpt lat="41.0755983" lon="13.9199217"><ele>1.9999999999999998</ele><time>2026-04-11T10:34:33.86Z</time></trkpt><trkpt lat="41.0755167" lon="13.9199683"><ele>2.0</ele><time>2026-04-11T10:34:34.86Z</time></trkpt><trkpt lat="41.075435" lon="13.9200117"><ele>2.0</ele><time>2026-04-11T10:34:35.861Z</time></trkpt><trkpt lat="41.07535" lon="13.920055"><ele>2.0</ele><time>2026-04-11T10:34:36.859Z</time></trkpt><trkpt lat="41.0752683" lon="13.9200983"><ele>1.9999999999999998</ele><time>2026-04-11T10:34:37.86Z</time></trkpt><trkpt lat="41.0751833" lon="13.9201433"><ele>2.0</ele><time>2026-04-11T10:34:38.858Z</time></trkpt><trkpt lat="41.075105" lon="13.9201883"><ele>1.8333333333333333</ele><time>2026-04-11T10:34:39.86Z</time></trkpt><trkpt lat="41.075025" lon="13.9202333"><ele>1.6666666666666665</ele><time>2026-04-11T10:34:40.861Z</time></trkpt><trkpt lat="41.0749433" lon="13.920275"><ele>1.5</ele><time>2026-04-11T10:34:41.86Z</time></trkpt><trkpt lat="41.0748617" lon="13.9203183"><ele>1.3333333333333333</ele><time>2026-04-11T10:34:42.861Z</time></trkpt><trkpt lat="41.0747783" lon="13.9203583"><ele>1.1666666666666665</ele><time>2026-04-11T10:34:43.859Z</time></trkpt><trkpt lat="41.0746983" lon="13.9204033"><ele>1.0</ele><time>2026-04-11T10:34:44.861Z</time></trkpt><trkpt lat="41.0746183" lon="13.9204467"><ele>0.9999999999999999</ele><time>2026-04-11T10:34:45.859Z</time></trkpt><trkpt lat="41.074535" lon="13.9204917"><ele>1.0</ele><time>2026-04-11T10:34:46.859Z</time></trkpt><trkpt lat="41.0744567" lon="13.920535"><ele>1.0</ele><time>2026-04-11T10:34:47.86Z</time></trkpt><trkpt lat="41.0743767" lon="13.9205833"><ele>1.0</ele><time>2026-04-11T10:34:48.86Z</time></trkpt><trkpt lat="41.0742983" lon="13.9206283"><ele>0.9999999999999999</ele><time>2026-04-11T10:34:49.861Z</time></trkpt><trkpt lat="41.0742217" lon="13.920675"><ele>1.0</ele><time>2026-04-11T10:34:50.859Z</time></trkpt><trkpt lat="41.0741467" lon="13.9207233"><ele>0.9999999999999999</ele><time>2026-04-11T10:34:51.86Z</time></trkpt><trkpt lat="41.0740667" lon="13.9207633"><ele>1.0</ele><time>2026-04-11T10:34:52.859Z</time></trkpt><trkpt lat="41.0739867" lon="13.9208017"><ele>1.0</ele><time>2026-04-11T10:34:53.861Z</time></trkpt><trkpt lat="41.0739083" lon="13.920845"><ele>1.0</ele><time>2026-04-11T10:34:54.859Z</time></trkpt><trkpt lat="41.0738317" lon="13.9208883"><ele>0.9999999999999999</ele><time>2026-04-11T10:34:55.86Z</time></trkpt><trkpt lat="41.073755" lon="13.92093"><ele>1.0</ele><time>2026-04-11T10:34:56.861Z</time></trkpt><trkpt lat="41.0736783" lon="13.9209733"><ele>0.9999999999999999</ele><time>2026-04-11T10:34:57.86Z</time></trkpt><trkpt lat="41.0736" lon="13.9210167"><ele>1.0</ele><time>2026-04-11T10:34:58.859Z</time></trkpt><trkpt lat="41.0735233" lon="13.9210617"><ele>1.0</ele><time>2026-04-11T10:34:59.86Z</time></trkpt><trkpt lat="41.0734467" lon="13.9211033"><ele>1.0</ele><time>2026-04-11T10:35:00.86Z</time></trkpt><trkpt lat="41.07337" lon="13.921145"><ele>0.9999999999999999</ele><time>2026-04-11T10:35:01.859Z</time></trkpt><trkpt lat="41.0732917" lon="13.921185"><ele>1.0</ele><time>2026-04-11T10:35:02.861Z</time></trkpt><trkpt lat="41.0732133" lon="13.9212233"><ele>0.9999999999999999</ele><time>2026-04-11T10:35:03.859Z</time></trkpt><trkpt lat="41.0731367" lon="13.9212667"><ele>1.0</ele><time>2026-04-11T10:35:04.859Z</time></trkpt><trkpt lat="41.0730583" lon="13.9213083"><ele>1.0</ele><time>2026-04-11T10:35:05.861Z</time></trkpt><trkpt lat="41.0729817" lon="13.92135"><ele>1.0</ele><time>2026-04-11T10:35:06.861Z</time></trkpt><trkpt lat="41.0729033" lon="13.92139"><ele>0.9999999999999999</ele><time>2026-04-11T10:35:07.86Z</time></trkpt><trkpt lat="41.0728267" lon="13.9214367"><ele>1.0</ele><time>2026-04-11T10:35:08.86Z</time></trkpt><trkpt lat="41.07275" lon="13.921485"><ele>0.9999999999999999</ele><time>2026-04-11T10:35:09.858Z</time></trkpt><trkpt lat="41.0726733" lon="13.92153"><ele>1.0</ele><time>2026-04-11T10:35:10.861Z</time></trkpt><trkpt lat="41.072595" lon="13.9215733"><ele>1.0</ele><time>2026-04-11T10:35:11.861Z</time></trkpt><trkpt lat="41.0725183" lon="13.9216167"><ele>1.0</ele><time>2026-04-11T10:35:12.86Z</time></trkpt><trkpt lat="41.0724417" lon="13.92166"><ele>0.9999999999999999</ele><time>2026-04-11T10:35:13.86Z</time></trkpt><trkpt lat="41.0723617" lon="13.9217017"><ele>1.0</ele><time>2026-04-11T10:35:14.858Z</time></trkpt><trkpt lat="41.0722833" lon="13.9217417"><ele>0.8333333333333333</ele><time>2026-04-11T10:35:15.859Z</time></trkpt><trkpt lat="41.0722033" lon="13.9217817"><ele>0.6666666666666666</ele><time>2026-04-11T10:35:16.859Z</time></trkpt><trkpt lat="41.072125" lon="13.9218217"><ele>0.5</ele><time>2026-04-11T10:35:17.861Z</time></trkpt><trkpt lat="41.072045" lon="13.92186"><ele>0.3333333333333333</ele><time>2026-04-11T10:35:18.861Z</time></trkpt><trkpt lat="41.0719633" lon="13.9218983"><ele>0.16666666666666666</ele><time>2026-04-11T10:35:19.861Z</time></trkpt><trkpt lat="41.0718817" lon="13.92194"><ele>0.0</ele><time>2026-04-11T10:35:20.86Z</time></trkpt><trkpt lat="41.0717967" lon="13.9219783"><ele>0.0</ele><time>2026-04-11T10:35:21.857Z</time></trkpt><trkpt lat="41.0717133" lon="13.9220183"><ele>0.0</ele><time>2026-04-11T10:35:22.859Z</time></trkpt><trkpt lat="41.07163" lon="13.9220583"><ele>0.0</ele><time>2026-04-11T10:35:23.859Z</time></trkpt><trkpt lat="41.07155" lon="13.922095"><ele>0.0</ele><time>2026-04-11T10:35:24.861Z</time></trkpt><trkpt lat="41.0714683" lon="13.9221317"><ele>0.0</ele><time>2026-04-11T10:35:25.86Z</time></trkpt><trkpt lat="41.0713883" lon="13.9221667"><ele>0.0</ele><time>2026-04-11T10:35:26.861Z</time></trkpt><trkpt lat="41.071305" lon="13.922205"><ele>0.3333333333333333</ele><time>2026-04-11T10:35:27.86Z</time></trkpt><trkpt lat="41.0712233" lon="13.92224"><ele>0.6666666666666666</ele><time>2026-04-11T10:35:28.861Z</time></trkpt><trkpt lat="41.071145" lon="13.9222767"><ele>1.0</ele><time>2026-04-11T10:35:29.861Z</time></trkpt><trkpt lat="41.071065" lon="13.922315"><ele>1.3333333333333333</ele><time>2026-04-11T10:35:30.859Z</time></trkpt><trkpt lat="41.0709883" lon="13.9223517"><ele>1.6666666666666665</ele><time>2026-04-11T10:35:31.859Z</time></trkpt><trkpt lat="41.0709133" lon="13.9223867"><ele>2.0</ele><time>2026-04-11T10:35:32.859Z</time></trkpt><trkpt lat="41.0708383" lon="13.92242"><ele>1.8333333333333333</ele><time>2026-04-11T10:35:33.86Z</time></trkpt><trkpt lat="41.0707633" lon="13.9224483"><ele>1.6666666666666665</ele><time>2026-04-11T10:35:34.861Z</time></trkpt><trkpt lat="41.0706883" lon="13.92248"><ele>1.5</ele><time>2026-04-11T10:35:35.861Z</time></trkpt><trkpt lat="41.0706083" lon="13.92251"><ele>1.3333333333333333</ele><time>2026-04-11T10:35:36.859Z</time></trkpt><trkpt lat="41.0705317" lon="13.9225483"><ele>1.1666666666666665</ele><time>2026-04-11T10:35:37.861Z</time></trkpt><trkpt lat="41.070455" lon="13.922585"><ele>1.0</ele><time>2026-04-11T10:35:38.86Z</time></trkpt><trkpt lat="41.07038" lon="13.9226217"><ele>0.8333333333333333</ele><time>2026-04-11T10:35:39.86Z</time></trkpt><trkpt lat="41.0703017" lon="13.9226567"><ele>0.6666666666666666</ele><time>2026-04-11T10:35:40.86Z</time></trkpt><trkpt lat="41.0702233" lon="13.92269"><ele>0.5</ele><time>2026-04-11T10:35:41.86Z</time></trkpt><trkpt lat="41.0701467" lon="13.9227217"><ele>0.3333333333333333</ele><time>2026-04-11T10:35:42.86Z</time></trkpt><trkpt lat="41.0700683" lon="13.9227533"><ele>0.16666666666666666</ele><time>2026-04-11T10:35:43.861Z</time></trkpt><trkpt lat="41.06999" lon="13.9227833"><ele>0.0</ele><time>2026-04-11T10:35:44.86Z</time></trkpt><trkpt lat="41.0699117" lon="13.922815"><ele>-0.16666666666666666</ele><time>2026-04-11T10:35:45.86Z</time></trkpt><trkpt lat="41.0698333" lon="13.9228517"><ele>-0.3333333333333333</ele><time>2026-04-11T10:35:46.861Z</time></trkpt><trkpt lat="41.0697583" lon="13.9228833"><ele>-0.5</ele><time>2026-04-11T10:35:47.86Z</time></trkpt><trkpt lat="41.0696817" lon="13.922915"><ele>-0.6666666666666666</ele><time>2026-04-11T10:35:48.86Z</time></trkpt><trkpt lat="41.0696067" lon="13.9229483"><ele>-0.8333333333333333</ele><time>2026-04-11T10:35:49.86Z</time></trkpt><trkpt lat="41.0695317" lon="13.9229867"><ele>-1.0</ele><time>2026-04-11T10:35:50.859Z</time></trkpt><trkpt lat="41.0694533" lon="13.9230233"><ele>-0.9999999999999999</ele><time>2026-04-11T10:35:51.86Z</time></trkpt><trkpt lat="41.0693767" lon="13.9230567"><ele>-1.0</ele><time>2026-04-11T10:35:52.861Z</time></trkpt><trkpt lat="41.0693" lon="13.923095"><ele>-1.0</ele><time>2026-04-11T10:35:53.861Z</time></trkpt><trkpt lat="41.06922" lon="13.92313"><ele>-1.0</ele><time>2026-04-11T10:35:54.861Z</time></trkpt><trkpt lat="41.06914" lon="13.9231667"><ele>-0.9999999999999999</ele><time>2026-04-11T10:35:55.861Z</time></trkpt><trkpt lat="41.0690567" lon="13.9232067"><ele>-1.0</ele><time>2026-04-11T10:35:56.858Z</time></trkpt><trkpt lat="41.068975" lon="13.9232433"><ele>-0.9999999999999999</ele><time>2026-04-11T10:35:57.86Z</time></trkpt><trkpt lat="41.0688917" lon="13.9232833"><ele>-1.0</ele><time>2026-04-11T10:35:58.859Z</time></trkpt><trkpt lat="41.068805" lon="13.9233233"><ele>-1.0</ele><time>2026-04-11T10:35:59.86Z</time></trkpt><trkpt lat="41.0687217" lon="13.9233617"><ele>-1.0</ele><time>2026-04-11T10:36:00.861Z</time></trkpt><trkpt lat="41.06864" lon="13.9234017"><ele>-0.9999999999999999</ele><time>2026-04-11T10:36:01.861Z</time></trkpt><trkpt lat="41.0685583" lon="13.9234383"><ele>-1.0</ele><time>2026-04-11T10:36:02.86Z</time></trkpt><trkpt lat="41.0684767" lon="13.92347"><ele>-0.9999999999999999</ele><time>2026-04-11T10:36:03.859Z</time></trkpt><trkpt lat="41.068395" lon="13.9235017"><ele>-1.0</ele><time>2026-04-11T10:36:04.86Z</time></trkpt><trkpt lat="41.0683167" lon="13.9235417"><ele>-1.0</ele><time>2026-04-11T10:36:05.86Z</time></trkpt><trkpt lat="41.0682367" lon="13.92358"><ele>-1.0</ele><time>2026-04-11T10:36:06.861Z</time></trkpt><trkpt lat="41.06816" lon="13.9236167"><ele>-0.9999999999999999</ele><time>2026-04-11T10:36:07.861Z</time></trkpt><trkpt lat="41.068085" lon="13.9236517"><ele>-1.0</ele><time>2026-04-11T10:36:08.861Z</time></trkpt><trkpt lat="41.0680117" lon="13.9236883"><ele>-0.6666666666666666</ele><time>2026-04-11T10:36:09.86Z</time></trkpt><trkpt lat="41.0679367" lon="13.9237233"><ele>-0.3333333333333333</ele><time>2026-04-11T10:36:10.859Z</time></trkpt><trkpt lat="41.06786" lon="13.9237567"><ele>0.0</ele><time>2026-04-11T10:36:11.857Z</time></trkpt><trkpt lat="41.067785" lon="13.92379"><ele>0.3333333333333333</ele><time>2026-04-11T10:36:12.858Z</time></trkpt><trkpt lat="41.06771" lon="13.9238283"><ele>0.6666666666666666</ele><time>2026-04-11T10:36:13.861Z</time></trkpt><trkpt lat="41.067635" lon="13.9238633"><ele>1.0</ele><time>2026-04-11T10:36:14.86Z</time></trkpt><trkpt lat="41.06756" lon="13.9239"><ele>0.9999999999999999</ele><time>2026-04-11T10:36:15.86Z</time></trkpt><trkpt lat="41.067485" lon="13.9239383"><ele>1.0</ele><time>2026-04-11T10:36:16.859Z</time></trkpt><trkpt lat="41.0674133" lon="13.9239767"><ele>1.0</ele><time>2026-04-11T10:36:17.86Z</time></trkpt><trkpt lat="41.06734" lon="13.92402"><ele>1.0</ele><time>2026-04-11T10:36:18.86Z</time></trkpt><trkpt lat="41.0672667" lon="13.9240567"><ele>0.9999999999999999</ele><time>2026-04-11T10:36:19.86Z</time></trkpt><trkpt lat="41.067195" lon="13.924095"><ele>1.0</ele><time>2026-04-11T10:36:20.859Z</time></trkpt><trkpt lat="41.0671233" lon="13.92414"><ele>0.9999999999999999</ele><time>2026-04-11T10:36:21.859Z</time></trkpt><trkpt lat="41.0670483" lon="13.9241833"><ele>1.0</ele><time>2026-04-11T10:36:22.86Z</time></trkpt><trkpt lat="41.0669733" lon="13.9242217"><ele>1.0</ele><time>2026-04-11T10:36:23.86Z</time></trkpt><trkpt lat="41.0669" lon="13.9242617"><ele>1.0</ele><time>2026-04-11T10:36:24.859Z</time></trkpt><trkpt lat="41.0668283" lon="13.9243017"><ele>0.9999999999999999</ele><time>2026-04-11T10:36:25.861Z</time></trkpt><trkpt lat="41.0667567" lon="13.9243383"><ele>1.0</ele><time>2026-04-11T10:36:26.86Z</time></trkpt><trkpt lat="41.066685" lon="13.9243817"><ele>0.9999999999999999</ele><time>2026-04-11T10:36:27.86Z</time></trkpt><trkpt lat="41.0666117" lon="13.9244283"><ele>1.0</ele><time>2026-04-11T10:36:28.858Z</time></trkpt><trkpt lat="41.06654" lon="13.9244767"><ele>1.0</ele><time>2026-04-11T10:36:29.859Z</time></trkpt><trkpt lat="41.0664683" lon="13.9245267"><ele>1.0</ele><time>2026-04-11T10:36:30.86Z</time></trkpt><trkpt lat="41.0663967" lon="13.9245767"><ele>0.9999999999999999</ele><time>2026-04-11T10:36:31.861Z</time></trkpt><trkpt lat="41.0663233" lon="13.9246183"><ele>1.0</ele><time>2026-04-11T10:36:32.861Z</time></trkpt><trkpt lat="41.06625" lon="13.9246667"><ele>0.9999999999999999</ele><time>2026-04-11T10:36:33.859Z</time></trkpt><trkpt lat="41.0661783" lon="13.924715"><ele>1.0</ele><time>2026-04-11T10:36:34.858Z</time></trkpt><trkpt lat="41.066105" lon="13.9247617"><ele>1.0</ele><time>2026-04-11T10:36:35.861Z</time></trkpt><trkpt lat="41.066035" lon="13.9248083"><ele>1.0</ele><time>2026-04-11T10:36:36.86Z</time></trkpt><trkpt lat="41.0659667" lon="13.924855"><ele>0.9999999999999999</ele><time>2026-04-11T10:36:37.861Z</time></trkpt><trkpt lat="41.0659" lon="13.9249"><ele>1.0</ele><time>2026-04-11T10:36:38.86Z</time></trkpt><trkpt lat="41.06583" lon="13.9249467"><ele>0.9999999999999999</ele><time>2026-04-11T10:36:39.86Z</time></trkpt><trkpt lat="41.0657617" lon="13.9249917"><ele>1.0</ele><time>2026-04-11T10:36:40.86Z</time></trkpt><trkpt lat="41.0656917" lon="13.925045"><ele>1.0</ele><time>2026-04-11T10:36:41.858Z</time></trkpt><trkpt lat="41.0656233" lon="13.92509"><ele>1.0</ele><time>2026-04-11T10:36:42.858Z</time></trkpt><trkpt lat="41.0655533" lon="13.9251383"><ele>0.9999999999999999</ele><time>2026-04-11T10:36:43.86Z</time></trkpt><trkpt lat="41.0654833" lon="13.9251883"><ele>1.0</ele><time>2026-04-11T10:36:44.859Z</time></trkpt><trkpt lat="41.065415" lon="13.92524"><ele>0.9999999999999999</ele><time>2026-04-11T10:36:45.86Z</time></trkpt><trkpt lat="41.0653467" lon="13.9252917"><ele>1.0</ele><time>2026-04-11T10:36:46.858Z</time></trkpt><trkpt lat="41.0652783" lon="13.92534"><ele>1.0</ele><time>2026-04-11T10:36:47.86Z</time></trkpt><trkpt lat="41.06521" lon="13.9253917"><ele>1.0</ele><time>2026-04-11T10:36:48.86Z</time></trkpt><trkpt lat="41.0651417" lon="13.9254433"><ele>0.9999999999999999</ele><time>2026-04-11T10:36:49.86Z</time></trkpt><trkpt lat="41.0650733" lon="13.9254967"><ele>1.0</ele><time>2026-04-11T10:36:50.86Z</time></trkpt><trkpt lat="41.0650033" lon="13.92555"><ele>1.1666666666666665</ele><time>2026-04-11T10:36:51.86Z</time></trkpt><trkpt lat="41.064935" lon="13.9256033"><ele>1.3333333333333333</ele><time>2026-04-11T10:36:52.858Z</time></trkpt><trkpt lat="41.0648683" lon="13.9256517"><ele>1.5</ele><time>2026-04-11T10:36:53.861Z</time></trkpt><trkpt lat="41.0647983" lon="13.9257"><ele>1.6666666666666665</ele><time>2026-04-11T10:36:54.861Z</time></trkpt><trkpt lat="41.06473" lon="13.9257467"><ele>1.8333333333333333</ele><time>2026-04-11T10:36:55.861Z</time></trkpt><trkpt lat="41.0646633" lon="13.925795"><ele>2.0</ele><time>2026-04-11T10:36:56.858Z</time></trkpt><trkpt lat="41.064595" lon="13.925845"><ele>1.8333333333333333</ele><time>2026-04-11T10:36:57.858Z</time></trkpt><trkpt lat="41.064525" lon="13.9258967"><ele>1.6666666666666665</ele><time>2026-04-11T10:36:58.858Z</time></trkpt><trkpt lat="41.0644533" lon="13.925945"><ele>1.5</ele><time>2026-04-11T10:36:59.861Z</time></trkpt><trkpt lat="41.06438" lon="13.925995"><ele>1.3333333333333333</ele><time>2026-04-11T10:37:00.861Z</time></trkpt><trkpt lat="41.0643083" lon="13.9260383"><ele>1.1666666666666665</ele><time>2026-04-11T10:37:01.861Z</time></trkpt><trkpt lat="41.0642367" lon="13.92608"><ele>1.0</ele><time>2026-04-11T10:37:02.86Z</time></trkpt><trkpt lat="41.064165" lon="13.926125"><ele>1.1666666666666665</ele><time>2026-04-11T10:37:03.859Z</time></trkpt><trkpt lat="41.0640933" lon="13.9261683"><ele>1.3333333333333333</ele><time>2026-04-11T10:37:04.859Z</time></trkpt><trkpt lat="41.0640217" lon="13.9262133"><ele>1.5</ele><time>2026-04-11T10:37:05.861Z</time></trkpt><trkpt lat="41.0639483" lon="13.9262567"><ele>1.6666666666666665</ele><time>2026-04-11T10:37:06.86Z</time></trkpt><trkpt lat="41.063875" lon="13.9263"><ele>1.8333333333333333</ele><time>2026-04-11T10:37:07.861Z</time></trkpt><trkpt lat="41.0638017" lon="13.92634"><ele>2.0</ele><time>2026-04-11T10:37:08.858Z</time></trkpt><trkpt lat="41.06373" lon="13.9263767"><ele>1.9999999999999998</ele><time>2026-04-11T10:37:09.86Z</time></trkpt><trkpt lat="41.0636583" lon="13.926415"><ele>2.0</ele><time>2026-04-11T10:37:10.86Z</time></trkpt><trkpt lat="41.0635833" lon="13.9264567"><ele>2.0</ele><time>2026-04-11T10:37:11.861Z</time></trkpt><trkpt lat="41.0635083" lon="13.9264983"><ele>2.0</ele><time>2026-04-11T10:37:12.86Z</time></trkpt><trkpt lat="41.063435" lon="13.9265417"><ele>1.9999999999999998</ele><time>2026-04-11T10:37:13.86Z</time></trkpt><trkpt lat="41.0633617" lon="13.926585"><ele>2.0</ele><time>2026-04-11T10:37:14.859Z</time></trkpt><trkpt lat="41.063285" lon="13.9266183"><ele>1.9999999999999998</ele><time>2026-04-11T10:37:15.86Z</time></trkpt><trkpt lat="41.0632117" lon="13.926645"><ele>2.0</ele><time>2026-04-11T10:37:16.864Z</time></trkpt><trkpt lat="41.0631383" lon="13.9266767"><ele>2.0</ele><time>2026-04-11T10:37:17.86Z</time></trkpt><trkpt lat="41.0630633" lon="13.926715"><ele>2.0</ele><time>2026-04-11T10:37:18.859Z</time></trkpt><trkpt lat="41.0629917" lon="13.9267517"><ele>1.9999999999999998</ele><time>2026-04-11T10:37:19.86Z</time></trkpt><trkpt lat="41.0629233" lon="13.92679"><ele>2.0</ele><time>2026-04-11T10:37:20.861Z</time></trkpt><trkpt lat="41.06285" lon="13.9268283"><ele>1.9999999999999998</ele><time>2026-04-11T10:37:21.859Z</time></trkpt><trkpt lat="41.062775" lon="13.9268667"><ele>2.0</ele><time>2026-04-11T10:37:22.859Z</time></trkpt><trkpt lat="41.0627017" lon="13.926905"><ele>2.0</ele><time>2026-04-11T10:37:23.861Z</time></trkpt><trkpt lat="41.0626283" lon="13.9269433"><ele>2.0</ele><time>2026-04-11T10:37:24.858Z</time></trkpt><trkpt lat="41.0625517" lon="13.9269783"><ele>1.9999999999999998</ele><time>2026-04-11T10:37:25.86Z</time></trkpt><trkpt lat="41.06247" lon="13.9270117"><ele>2.0</ele><time>2026-04-11T10:37:26.86Z</time></trkpt><trkpt lat="41.06239" lon="13.9270467"><ele>2.5</ele><time>2026-04-11T10:37:27.86Z</time></trkpt><trkpt lat="41.06231" lon="13.9270833"><ele>3.0</ele><time>2026-04-11T10:37:28.861Z</time></trkpt><trkpt lat="41.0622317" lon="13.9271233"><ele>3.5</ele><time>2026-04-11T10:37:29.86Z</time></trkpt><trkpt lat="41.0621517" lon="13.92716"><ele>4.0</ele><time>2026-04-11T10:37:30.861Z</time></trkpt><trkpt lat="41.0620733" lon="13.9271983"><ele>4.5</ele><time>2026-04-11T10:37:31.86Z</time></trkpt><trkpt lat="41.061995" lon="13.9272333"><ele>5.0</ele><time>2026-04-11T10:37:32.86Z</time></trkpt><trkpt lat="41.061915" lon="13.9272733"><ele>5.0</ele><time>2026-04-11T10:37:33.859Z</time></trkpt><trkpt lat="41.061835" lon="13.9273117"><ele>5.0</ele><time>2026-04-11T10:37:34.86Z</time></trkpt><trkpt lat="41.0617533" lon="13.9273533"><ele>5.0</ele><time>2026-04-11T10:37:35.86Z</time></trkpt><trkpt lat="41.0616717" lon="13.9273883"><ele>5.0</ele><time>2026-04-11T10:37:36.861Z</time></trkpt><trkpt lat="41.0615883" lon="13.9274283"><ele>5.0</ele><time>2026-04-11T10:37:37.86Z</time></trkpt><trkpt lat="41.0615033" lon="13.9274667"><ele>5.0</ele><time>2026-04-11T10:37:38.861Z</time></trkpt><trkpt lat="41.0614183" lon="13.9275067"><ele>4.8</ele><time>2026-04-11T10:37:39.859Z</time></trkpt><trkpt lat="41.0613333" lon="13.92755"><ele>4.6</ele><time>2026-04-11T10:37:40.858Z</time></trkpt><trkpt lat="41.0612483" lon="13.9275967"><ele>4.4</ele><time>2026-04-11T10:37:41.861Z</time></trkpt><trkpt lat="41.061165" lon="13.92764"><ele>4.2</ele><time>2026-04-11T10:37:42.86Z</time></trkpt><trkpt lat="41.06108" lon="13.9276817"><ele>4.0</ele><time>2026-04-11T10:37:43.859Z</time></trkpt><trkpt lat="41.0609967" lon="13.927725"><ele>3.6666666666666665</ele><time>2026-04-11T10:37:44.858Z</time></trkpt><trkpt lat="41.060915" lon="13.9277633"><ele>3.333333333333333</ele><time>2026-04-11T10:37:45.859Z</time></trkpt><trkpt lat="41.0608317" lon="13.9278033"><ele>3.0</ele><time>2026-04-11T10:37:46.859Z</time></trkpt><trkpt lat="41.0607467" lon="13.9278433"><ele>2.6666666666666665</ele><time>2026-04-11T10:37:47.86Z</time></trkpt><trkpt lat="41.060665" lon="13.92788"><ele>2.333333333333333</ele><time>2026-04-11T10:37:48.861Z</time></trkpt><trkpt lat="41.060585" lon="13.9279133"><ele>2.0</ele><time>2026-04-11T10:37:49.859Z</time></trkpt><trkpt lat="41.0605033" lon="13.92795"><ele>1.9999999999999998</ele><time>2026-04-11T10:37:50.859Z</time></trkpt><trkpt lat="41.0604267" lon="13.9279917"><ele>2.0</ele><time>2026-04-11T10:37:51.86Z</time></trkpt><trkpt lat="41.060345" lon="13.9280317"><ele>2.0</ele><time>2026-04-11T10:37:52.86Z</time></trkpt><trkpt lat="41.06026" lon="13.9280733"><ele>2.0</ele><time>2026-04-11T10:37:53.861Z</time></trkpt><trkpt lat="41.060175" lon="13.9281167"><ele>1.9999999999999998</ele><time>2026-04-11T10:37:54.86Z</time></trkpt><trkpt lat="41.0600917" lon="13.928155"><ele>2.0</ele><time>2026-04-11T10:37:55.859Z</time></trkpt><trkpt lat="41.0600083" lon="13.928195"><ele>1.9999999999999998</ele><time>2026-04-11T10:37:56.857Z</time></trkpt><trkpt lat="41.0599267" lon="13.9282367"><ele>2.0</ele><time>2026-04-11T10:37:57.86Z</time></trkpt><trkpt lat="41.059845" lon="13.9282733"><ele>2.0</ele><time>2026-04-11T10:37:58.859Z</time></trkpt><trkpt lat="41.0597633" lon="13.92831"><ele>2.0</ele><time>2026-04-11T10:37:59.861Z</time></trkpt><trkpt lat="41.05968" lon="13.92835"><ele>1.9999999999999998</ele><time>2026-04-11T10:38:00.858Z</time></trkpt><trkpt lat="41.059595" lon="13.928385"><ele>2.0</ele><time>2026-04-11T10:38:01.859Z</time></trkpt><trkpt lat="41.0595117" lon="13.9284267"><ele>1.8</ele><time>2026-04-11T10:38:02.858Z</time></trkpt><trkpt lat="41.0594267" lon="13.9284633"><ele>1.6</ele><time>2026-04-11T10:38:03.86Z</time></trkpt><trkpt lat="41.05934" lon="13.92849"><ele>1.4000000000000001</ele><time>2026-04-11T10:38:04.86Z</time></trkpt><trkpt lat="41.0592533" lon="13.928525"><ele>1.2000000000000002</ele><time>2026-04-11T10:38:05.86Z</time></trkpt><trkpt lat="41.059165" lon="13.9285633"><ele>1.0</ele><time>2026-04-11T10:38:06.861Z</time></trkpt><trkpt lat="41.05908" lon="13.9286033"><ele>1.3333333333333333</ele><time>2026-04-11T10:38:07.86Z</time></trkpt><trkpt lat="41.059" lon="13.9286467"><ele>1.6666666666666665</ele><time>2026-04-11T10:38:08.861Z</time></trkpt><trkpt lat="41.05892" lon="13.92869"><ele>2.0</ele><time>2026-04-11T10:38:09.861Z</time></trkpt><trkpt lat="41.0588367" lon="13.9287333"><ele>2.3333333333333335</ele><time>2026-04-11T10:38:10.861Z</time></trkpt><trkpt lat="41.0587567" lon="13.9287667"><ele>2.6666666666666665</ele><time>2026-04-11T10:38:11.859Z</time></trkpt><trkpt lat="41.058675" lon="13.9288017"><ele>3.0</ele><time>2026-04-11T10:38:12.861Z</time></trkpt><trkpt lat="41.0585933" lon="13.92884"><ele>3.0</ele><time>2026-04-11T10:38:13.861Z</time></trkpt><trkpt lat="41.05851" lon="13.9288783"><ele>3.0</ele><time>2026-04-11T10:38:14.861Z</time></trkpt><trkpt lat="41.058425" lon="13.9289133"><ele>3.0</ele><time>2026-04-11T10:38:15.86Z</time></trkpt><trkpt lat="41.05834" lon="13.9289483"><ele>3.0</ele><time>2026-04-11T10:38:16.861Z</time></trkpt><trkpt lat="41.0582567" lon="13.928985"><ele>3.0</ele><time>2026-04-11T10:38:17.861Z</time></trkpt><trkpt lat="41.0581733" lon="13.9290267"><ele>3.0</ele><time>2026-04-11T10:38:18.86Z</time></trkpt><trkpt lat="41.05809" lon="13.9290683"><ele>3.0</ele><time>2026-04-11T10:38:19.861Z</time></trkpt><trkpt lat="41.0580033" lon="13.9291067"><ele>3.0</ele><time>2026-04-11T10:38:20.859Z</time></trkpt><trkpt lat="41.057915" lon="13.9291483"><ele>3.0</ele><time>2026-04-11T10:38:21.859Z</time></trkpt><trkpt lat="41.0578233" lon="13.9291917"><ele>3.0</ele><time>2026-04-11T10:38:22.86Z</time></trkpt><trkpt lat="41.0577383" lon="13.9292283"><ele>3.0</ele><time>2026-04-11T10:38:23.86Z</time></trkpt><trkpt lat="41.0576533" lon="13.9292667"><ele>2.8333333333333335</ele><time>2026-04-11T10:38:24.86Z</time></trkpt><trkpt lat="41.05757" lon="13.929305"><ele>2.6666666666666665</ele><time>2026-04-11T10:38:25.861Z</time></trkpt><trkpt lat="41.0574883" lon="13.92934"><ele>2.5</ele><time>2026-04-11T10:38:26.859Z</time></trkpt><trkpt lat="41.0574" lon="13.92938"><ele>2.333333333333333</ele><time>2026-04-11T10:38:27.86Z</time></trkpt><trkpt lat="41.0573133" lon="13.9294167"><ele>2.1666666666666665</ele><time>2026-04-11T10:38:28.861Z</time></trkpt><trkpt lat="41.0572267" lon="13.92945"><ele>2.0</ele><time>2026-04-11T10:38:29.861Z</time></trkpt><trkpt lat="41.05714" lon="13.9294867"><ele>1.9999999999999998</ele><time>2026-04-11T10:38:30.86Z</time></trkpt><trkpt lat="41.0570567" lon="13.929525"><ele>2.0</ele><time>2026-04-11T10:38:31.86Z</time></trkpt><trkpt lat="41.0569717" lon="13.92957"><ele>2.0</ele><time>2026-04-11T10:38:32.861Z</time></trkpt><trkpt lat="41.0568883" lon="13.9296083"><ele>2.0</ele><time>2026-04-11T10:38:33.859Z</time></trkpt><trkpt lat="41.0568033" lon="13.92965"><ele>1.9999999999999998</ele><time>2026-04-11T10:38:34.861Z</time></trkpt><trkpt lat="41.0567183" lon="13.9296883"><ele>2.0</ele><time>2026-04-11T10:38:35.861Z</time></trkpt><trkpt lat="41.056635" lon="13.92973"><ele>1.9999999999999998</ele><time>2026-04-11T10:38:36.861Z</time></trkpt><trkpt lat="41.0565533" lon="13.9297617"><ele>2.0</ele><time>2026-04-11T10:38:37.861Z</time></trkpt><trkpt lat="41.0564717" lon="13.9297767"><ele>2.0</ele><time>2026-04-11T10:38:38.861Z</time></trkpt><trkpt lat="41.0563867" lon="13.9297717"><ele>2.0</ele><time>2026-04-11T10:38:39.859Z</time></trkpt><trkpt lat="41.0563017" lon="13.929775"><ele>1.9999999999999998</ele><time>2026-04-11T10:38:40.86Z</time></trkpt><trkpt lat="41.0562167" lon="13.9297983"><ele>2.0</ele><time>2026-04-11T10:38:41.861Z</time></trkpt><trkpt lat="41.0561317" lon="13.9298483"><ele>2.0</ele><time>2026-04-11T10:38:42.86Z</time></trkpt><trkpt lat="41.056055" lon="13.9299167"><ele>2.0</ele><time>2026-04-11T10:38:43.861Z</time></trkpt><trkpt lat="41.0559783" lon="13.92999"><ele>2.0</ele><time>2026-04-11T10:38:44.861Z</time></trkpt><trkpt lat="41.055895" lon="13.9300517"><ele>2.0</ele><time>2026-04-11T10:38:45.859Z</time></trkpt><trkpt lat="41.0558083" lon="13.9301"><ele>2.0</ele><time>2026-04-11T10:38:46.859Z</time></trkpt><trkpt lat="41.0557183" lon="13.9301433"><ele>2.2</ele><time>2026-04-11T10:38:47.861Z</time></trkpt><trkpt lat="41.0556267" lon="13.9301867"><ele>2.4000000000000004</ele><time>2026-04-11T10:38:48.861Z</time></trkpt><trkpt lat="41.0555367" lon="13.930225"><ele>2.5999999999999996</ele><time>2026-04-11T10:38:49.858Z</time></trkpt><trkpt lat="41.05545" lon="13.9302617"><ele>2.8</ele><time>2026-04-11T10:38:50.86Z</time></trkpt><trkpt lat="41.0553667" lon="13.930305"><ele>3.0</ele><time>2026-04-11T10:38:51.859Z</time></trkpt><trkpt lat="41.0552833" lon="13.9303467"><ele>3.0</ele><time>2026-04-11T10:38:52.859Z</time></trkpt><trkpt lat="41.0552017" lon="13.9303917"><ele>3.0</ele><time>2026-04-11T10:38:53.861Z</time></trkpt><trkpt lat="41.0551183" lon="13.9304333"><ele>3.0</ele><time>2026-04-11T10:38:54.859Z</time></trkpt><trkpt lat="41.0550383" lon="13.9304783"><ele>3.0</ele><time>2026-04-11T10:38:55.861Z</time></trkpt><trkpt lat="41.05496" lon="13.9305183"><ele>3.0</ele><time>2026-04-11T10:38:56.86Z</time></trkpt><trkpt lat="41.0548783" lon="13.9305583"><ele>3.0</ele><time>2026-04-11T10:38:57.861Z</time></trkpt><trkpt lat="41.0547967" lon="13.9305967"><ele>2.8</ele><time>2026-04-11T10:38:58.858Z</time></trkpt><trkpt lat="41.0547183" lon="13.9306283"><ele>2.5999999999999996</ele><time>2026-04-11T10:38:59.86Z</time></trkpt><trkpt lat="41.0546367" lon="13.9306617"><ele>2.4000000000000004</ele><time>2026-04-11T10:39:00.857Z</time></trkpt><trkpt lat="41.0545433" lon="13.9307083"><ele>2.2</ele><time>2026-04-11T10:39:01.861Z</time></trkpt><trkpt lat="41.054445" lon="13.9307567"><ele>2.0</ele><time>2026-04-11T10:39:02.86Z</time></trkpt><trkpt lat="41.0543567" lon="13.9307967"><ele>1.9999999999999998</ele><time>2026-04-11T10:39:03.86Z</time></trkpt><trkpt lat="41.0542683" lon="13.93083"><ele>2.0</ele><time>2026-04-11T10:39:04.861Z</time></trkpt><trkpt lat="41.0541833" lon="13.9308633"><ele>2.0</ele><time>2026-04-11T10:39:05.86Z</time></trkpt><trkpt lat="41.0541017" lon="13.9308967"><ele>2.0</ele><time>2026-04-11T10:39:06.861Z</time></trkpt><trkpt lat="41.054015" lon="13.9309333"><ele>1.9999999999999998</ele><time>2026-04-11T10:39:07.861Z</time></trkpt><trkpt lat="41.0539317" lon="13.9309717"><ele>2.0</ele><time>2026-04-11T10:39:08.861Z</time></trkpt><trkpt lat="41.0538467" lon="13.9310083"><ele>1.9999999999999998</ele><time>2026-04-11T10:39:09.859Z</time></trkpt><trkpt lat="41.0537617" lon="13.9310467"><ele>2.0</ele><time>2026-04-11T10:39:10.859Z</time></trkpt><trkpt lat="41.0536783" lon="13.9310833"><ele>2.0</ele><time>2026-04-11T10:39:11.861Z</time></trkpt><trkpt lat="41.0535933" lon="13.931125"><ele>2.0</ele><time>2026-04-11T10:39:12.861Z</time></trkpt><trkpt lat="41.05351" lon="13.93116"><ele>1.9999999999999998</ele><time>2026-04-11T10:39:13.861Z</time></trkpt><trkpt lat="41.0534283" lon="13.9311967"><ele>2.0</ele><time>2026-04-11T10:39:14.86Z</time></trkpt><trkpt lat="41.0533467" lon="13.9312317"><ele>2.2</ele><time>2026-04-11T10:39:15.861Z</time></trkpt><trkpt lat="41.0532617" lon="13.9312617"><ele>2.4000000000000004</ele><time>2026-04-11T10:39:16.861Z</time></trkpt><trkpt lat="41.0531767" lon="13.9312967"><ele>2.5999999999999996</ele><time>2026-04-11T10:39:17.861Z</time></trkpt><trkpt lat="41.05309" lon="13.931335"><ele>2.8</ele><time>2026-04-11T10:39:18.859Z</time></trkpt><trkpt lat="41.053005" lon="13.9313733"><ele>3.0</ele><time>2026-04-11T10:39:19.861Z</time></trkpt><trkpt lat="41.0529183" lon="13.9314117"><ele>3.0</ele><time>2026-04-11T10:39:20.861Z</time></trkpt><trkpt lat="41.0528333" lon="13.93145"><ele>3.0</ele><time>2026-04-11T10:39:21.86Z</time></trkpt><trkpt lat="41.0527483" lon="13.9314867"><ele>3.0</ele><time>2026-04-11T10:39:22.861Z</time></trkpt><trkpt lat="41.052665" lon="13.93152"><ele>3.0</ele><time>2026-04-11T10:39:23.861Z</time></trkpt><trkpt lat="41.0525817" lon="13.9315483"><ele>3.0</ele><time>2026-04-11T10:39:24.861Z</time></trkpt><trkpt lat="41.0524967" lon="13.93158"><ele>3.0</ele><time>2026-04-11T10:39:25.861Z</time></trkpt><trkpt lat="41.0524133" lon="13.9316117"><ele>3.0</ele><time>2026-04-11T10:39:26.86Z</time></trkpt><trkpt lat="41.0523317" lon="13.9316533"><ele>3.0</ele><time>2026-04-11T10:39:27.861Z</time></trkpt><trkpt lat="41.0522517" lon="13.9316967"><ele>3.0</ele><time>2026-04-11T10:39:28.86Z</time></trkpt><trkpt lat="41.0521717" lon="13.9317317"><ele>3.0</ele><time>2026-04-11T10:39:29.861Z</time></trkpt><trkpt lat="41.0520917" lon="13.9317683"><ele>3.0</ele><time>2026-04-11T10:39:30.858Z</time></trkpt><trkpt lat="41.0520083" lon="13.93181"><ele>3.0</ele><time>2026-04-11T10:39:31.859Z</time></trkpt><trkpt lat="41.0519233" lon="13.9318467"><ele>2.6666666666666665</ele><time>2026-04-11T10:39:32.861Z</time></trkpt><trkpt lat="41.0518383" lon="13.9318817"><ele>2.3333333333333335</ele><time>2026-04-11T10:39:33.86Z</time></trkpt><trkpt lat="41.051755" lon="13.9319183"><ele>2.0</ele><time>2026-04-11T10:39:34.861Z</time></trkpt><trkpt lat="41.05167" lon="13.9319583"><ele>1.6666666666666665</ele><time>2026-04-11T10:39:35.86Z</time></trkpt><trkpt lat="41.0515883" lon="13.9320017"><ele>1.3333333333333333</ele><time>2026-04-11T10:39:36.86Z</time></trkpt><trkpt lat="41.0515067" lon="13.9320383"><ele>1.0</ele><time>2026-04-11T10:39:37.861Z</time></trkpt><trkpt lat="41.0514267" lon="13.9320767"><ele>0.8333333333333333</ele><time>2026-04-11T10:39:38.861Z</time></trkpt><trkpt lat="41.0513467" lon="13.9321167"><ele>0.6666666666666666</ele><time>2026-04-11T10:39:39.859Z</time></trkpt><trkpt lat="41.0512683" lon="13.9321583"><ele>0.5</ele><time>2026-04-11T10:39:40.858Z</time></trkpt><trkpt lat="41.051185" lon="13.9322017"><ele>0.3333333333333333</ele><time>2026-04-11T10:39:41.86Z</time></trkpt><trkpt lat="41.0511017" lon="13.932245"><ele>0.16666666666666666</ele><time>2026-04-11T10:39:42.86Z</time></trkpt><trkpt lat="41.0510167" lon="13.932285"><ele>0.0</ele><time>2026-04-11T10:39:43.861Z</time></trkpt><trkpt lat="41.0509317" lon="13.9323267"><ele>0.0</ele><time>2026-04-11T10:39:44.858Z</time></trkpt><trkpt lat="41.0508433" lon="13.9323683"><ele>0.0</ele><time>2026-04-11T10:39:45.86Z</time></trkpt><trkpt lat="41.0507583" lon="13.9324083"><ele>0.0</ele><time>2026-04-11T10:39:46.86Z</time></trkpt><trkpt lat="41.0506733" lon="13.932445"><ele>0.0</ele><time>2026-04-11T10:39:47.86Z</time></trkpt><trkpt lat="41.05059" lon="13.932485"><ele>0.0</ele><time>2026-04-11T10:39:48.861Z</time></trkpt><trkpt lat="41.0505033" lon="13.932525"><ele>0.16666666666666666</ele><time>2026-04-11T10:39:49.86Z</time></trkpt><trkpt lat="41.0504183" lon="13.932565"><ele>0.3333333333333333</ele><time>2026-04-11T10:39:50.86Z</time></trkpt><trkpt lat="41.0503317" lon="13.9326033"><ele>0.5</ele><time>2026-04-11T10:39:51.859Z</time></trkpt><trkpt lat="41.0502467" lon="13.9326383"><ele>0.6666666666666666</ele><time>2026-04-11T10:39:52.86Z</time></trkpt><trkpt lat="41.0501617" lon="13.9326717"><ele>0.8333333333333333</ele><time>2026-04-11T10:39:53.861Z</time></trkpt><trkpt lat="41.05008" lon="13.9327067"><ele>1.0</ele><time>2026-04-11T10:39:54.86Z</time></trkpt><trkpt lat="41.049995" lon="13.9327417"><ele>0.8</ele><time>2026-04-11T10:39:55.861Z</time></trkpt><trkpt lat="41.0499083" lon="13.932775"><ele>0.6000000000000001</ele><time>2026-04-11T10:39:56.86Z</time></trkpt><trkpt lat="41.0498217" lon="13.9328167"><ele>0.4</ele><time>2026-04-11T10:39:57.858Z</time></trkpt><trkpt lat="41.0497333" lon="13.9328583"><ele>0.2</ele><time>2026-04-11T10:39:58.86Z</time></trkpt><trkpt lat="41.0496483" lon="13.932895"><ele>0.0</ele><time>2026-04-11T10:39:59.861Z</time></trkpt><trkpt lat="41.0495617" lon="13.932935"><ele>0.0</ele><time>2026-04-11T10:40:00.86Z</time></trkpt><trkpt lat="41.0494733" lon="13.9329733"><ele>0.0</ele><time>2026-04-11T10:40:01.861Z</time></trkpt><trkpt lat="41.0493883" lon="13.93301"><ele>0.0</ele><time>2026-04-11T10:40:02.861Z</time></trkpt><trkpt lat="41.049305" lon="13.9330467"><ele>0.0</ele><time>2026-04-11T10:40:03.858Z</time></trkpt><trkpt lat="41.0492217" lon="13.9330867"><ele>0.0</ele><time>2026-04-11T10:40:04.86Z</time></trkpt><trkpt lat="41.04914" lon="13.9331233"><ele>0.0</ele><time>2026-04-11T10:40:05.861Z</time></trkpt><trkpt lat="41.04906" lon="13.93316"><ele>0.0</ele><time>2026-04-11T10:40:06.859Z</time></trkpt><trkpt lat="41.0489817" lon="13.9331933"><ele>0.0</ele><time>2026-04-11T10:40:07.859Z</time></trkpt><trkpt lat="41.0489" lon="13.933225"><ele>0.0</ele><time>2026-04-11T10:40:08.861Z</time></trkpt><trkpt lat="41.0488183" lon="13.93326"><ele>0.0</ele><time>2026-04-11T10:40:09.86Z</time></trkpt><trkpt lat="41.048735" lon="13.9332917"><ele>0.0</ele><time>2026-04-11T10:40:10.859Z</time></trkpt><trkpt lat="41.0486567" lon="13.9333217"><ele>0.0</ele><time>2026-04-11T10:40:11.861Z</time></trkpt><trkpt lat="41.048575" lon="13.9333567"><ele>0.0</ele><time>2026-04-11T10:40:12.861Z</time></trkpt><trkpt lat="41.0484933" lon="13.9333883"><ele>0.0</ele><time>2026-04-11T10:40:13.86Z</time></trkpt><trkpt lat="41.0484133" lon="13.9334167"><ele>0.0</ele><time>2026-04-11T10:40:14.859Z</time></trkpt><trkpt lat="41.0483317" lon="13.9334433"><ele>0.0</ele><time>2026-04-11T10:40:15.86Z</time></trkpt><trkpt lat="41.04825" lon="13.9334667"><ele>0.0</ele><time>2026-04-11T10:40:16.859Z</time></trkpt><trkpt lat="41.04817" lon="13.9334883"><ele>0.0</ele><time>2026-04-11T10:40:17.861Z</time></trkpt><trkpt lat="41.0480883" lon="13.9335133"><ele>0.0</ele><time>2026-04-11T10:40:18.86Z</time></trkpt><trkpt lat="41.0480083" lon="13.9335367"><ele>0.0</ele><time>2026-04-11T10:40:19.861Z</time></trkpt><trkpt lat="41.0479283" lon="13.93356"><ele>0.0</ele><time>2026-04-11T10:40:20.861Z</time></trkpt><trkpt lat="41.04785" lon="13.93358"><ele>0.0</ele><time>2026-04-11T10:40:21.86Z</time></trkpt><trkpt lat="41.0477717" lon="13.9336033"><ele>0.0</ele><time>2026-04-11T10:40:22.858Z</time></trkpt><trkpt lat="41.0476933" lon="13.9336233"><ele>0.0</ele><time>2026-04-11T10:40:23.861Z</time></trkpt><trkpt lat="41.0476167" lon="13.9336467"><ele>0.0</ele><time>2026-04-11T10:40:24.861Z</time></trkpt><trkpt lat="41.0475417" lon="13.93367"><ele>0.0</ele><time>2026-04-11T10:40:25.861Z</time></trkpt><trkpt lat="41.0474683" lon="13.9336917"><ele>0.0</ele><time>2026-04-11T10:40:26.861Z</time></trkpt><trkpt lat="41.047395" lon="13.9337133"><ele>0.0</ele><time>2026-04-11T10:40:27.859Z</time></trkpt><trkpt lat="41.0473217" lon="13.9337367"><ele>0.0</ele><time>2026-04-11T10:40:28.859Z</time></trkpt><trkpt lat="41.04725" lon="13.93376"><ele>0.0</ele><time>2026-04-11T10:40:29.861Z</time></trkpt><trkpt lat="41.0471783" lon="13.9337833"><ele>0.14285714285714285</ele><time>2026-04-11T10:40:30.86Z</time></trkpt><trkpt lat="41.0471033" lon="13.9338017"><ele>0.2857142857142857</ele><time>2026-04-11T10:40:31.86Z</time></trkpt><trkpt lat="41.0470317" lon="13.9338183"><ele>0.42857142857142855</ele><time>2026-04-11T10:40:32.858Z</time></trkpt><trkpt lat="41.0469567" lon="13.9338433"><ele>0.5714285714285714</ele><time>2026-04-11T10:40:33.86Z</time></trkpt><trkpt lat="41.046885" lon="13.93387"><ele>0.7142857142857142</ele><time>2026-04-11T10:40:34.86Z</time></trkpt><trkpt lat="41.046815" lon="13.9338883"><ele>0.8571428571428571</ele><time>2026-04-11T10:40:35.861Z</time></trkpt><trkpt lat="41.04674" lon="13.93391"><ele>1.0</ele><time>2026-04-11T10:40:36.859Z</time></trkpt><trkpt lat="41.0466667" lon="13.9339283"><ele>0.9999999999999999</ele><time>2026-04-11T10:40:37.859Z</time></trkpt><trkpt lat="41.0465867" lon="13.93395"><ele>1.0</ele><time>2026-04-11T10:40:38.861Z</time></trkpt><trkpt lat="41.0465083" lon="13.9339717"><ele>1.0</ele><time>2026-04-11T10:40:39.86Z</time></trkpt><trkpt lat="41.0464283" lon="13.9339933"><ele>1.0</ele><time>2026-04-11T10:40:40.859Z</time></trkpt><trkpt lat="41.0463517" lon="13.934015"><ele>0.9999999999999999</ele><time>2026-04-11T10:40:41.861Z</time></trkpt><trkpt lat="41.046275" lon="13.93404"><ele>1.0</ele><time>2026-04-11T10:40:42.861Z</time></trkpt><trkpt lat="41.0462" lon="13.93406"><ele>0.9999999999999999</ele><time>2026-04-11T10:40:43.86Z</time></trkpt><trkpt lat="41.0461217" lon="13.9340833"><ele>1.0</ele><time>2026-04-11T10:40:44.86Z</time></trkpt><trkpt lat="41.046045" lon="13.934105"><ele>1.0</ele><time>2026-04-11T10:40:45.859Z</time></trkpt><trkpt lat="41.0459683" lon="13.934125"><ele>1.0</ele><time>2026-04-11T10:40:46.861Z</time></trkpt><trkpt lat="41.0458917" lon="13.9341467"><ele>0.9999999999999999</ele><time>2026-04-11T10:40:47.861Z</time></trkpt><trkpt lat="41.0458133" lon="13.9341683"><ele>1.0</ele><time>2026-04-11T10:40:48.861Z</time></trkpt><trkpt lat="41.045735" lon="13.9341883"><ele>0.8333333333333333</ele><time>2026-04-11T10:40:49.86Z</time></trkpt><trkpt lat="41.0456583" lon="13.9342067"><ele>0.6666666666666666</ele><time>2026-04-11T10:40:50.86Z</time></trkpt><trkpt lat="41.04558" lon="13.9342283"><ele>0.5</ele><time>2026-04-11T10:40:51.861Z</time></trkpt><trkpt lat="41.0455017" lon="13.9342517"><ele>0.3333333333333333</ele><time>2026-04-11T10:40:52.859Z</time></trkpt><trkpt lat="41.0454233" lon="13.9342783"><ele>0.16666666666666666</ele><time>2026-04-11T10:40:53.861Z</time></trkpt><trkpt lat="41.0453467" lon="13.934305"><ele>0.0</ele><time>2026-04-11T10:40:54.861Z</time></trkpt><trkpt lat="41.0452733" lon="13.9343267"><ele>0.0</ele><time>2026-04-11T10:40:55.859Z</time></trkpt><trkpt lat="41.0451983" lon="13.934345"><ele>0.0</ele><time>2026-04-11T10:40:56.859Z</time></trkpt><trkpt lat="41.045125" lon="13.9343617"><ele>0.0</ele><time>2026-04-11T10:40:57.858Z</time></trkpt><trkpt lat="41.0450483" lon="13.93438"><ele>0.0</ele><time>2026-04-11T10:40:58.861Z</time></trkpt><trkpt lat="41.044975" lon="13.9344"><ele>0.0</ele><time>2026-04-11T10:40:59.861Z</time></trkpt><trkpt lat="41.0449033" lon="13.9344217"><ele>0.0</ele><time>2026-04-11T10:41:00.86Z</time></trkpt><trkpt lat="41.0448283" lon="13.9344383"><ele>0.0</ele><time>2026-04-11T10:41:01.86Z</time></trkpt><trkpt lat="41.0447583" lon="13.9344567"><ele>0.0</ele><time>2026-04-11T10:41:02.857Z</time></trkpt><trkpt lat="41.0446867" lon="13.9344817"><ele>0.0</ele><time>2026-04-11T10:41:03.86Z</time></trkpt><trkpt lat="41.0446167" lon="13.9345067"><ele>0.0</ele><time>2026-04-11T10:41:04.86Z</time></trkpt><trkpt lat="41.044545" lon="13.9345283"><ele>0.0</ele><time>2026-04-11T10:41:05.86Z</time></trkpt><trkpt lat="41.0444783" lon="13.9345567"><ele>0.0</ele><time>2026-04-11T10:41:06.861Z</time></trkpt><trkpt lat="41.0444017" lon="13.934575"><ele>0.0</ele><time>2026-04-11T10:41:07.861Z</time></trkpt><trkpt lat="41.04433" lon="13.9345933"><ele>0.0</ele><time>2026-04-11T10:41:08.861Z</time></trkpt><trkpt lat="41.0442583" lon="13.9346133"><ele>0.0</ele><time>2026-04-11T10:41:09.859Z</time></trkpt><trkpt lat="41.044185" lon="13.9346333"><ele>0.0</ele><time>2026-04-11T10:41:10.859Z</time></trkpt><trkpt lat="41.044115" lon="13.934655"><ele>0.0</ele><time>2026-04-11T10:41:11.861Z</time></trkpt><trkpt lat="41.0440433" lon="13.9346767"><ele>0.0</ele><time>2026-04-11T10:41:12.861Z</time></trkpt><trkpt lat="41.0439733" lon="13.934695"><ele>0.0</ele><time>2026-04-11T10:41:13.86Z</time></trkpt><trkpt lat="41.0439033" lon="13.93471"><ele>0.0</ele><time>2026-04-11T10:41:14.861Z</time></trkpt><trkpt lat="41.043835" lon="13.9347267"><ele>0.14285714285714285</ele><time>2026-04-11T10:41:15.861Z</time></trkpt><trkpt lat="41.043765" lon="13.9347417"><ele>0.2857142857142857</ele><time>2026-04-11T10:41:16.86Z</time></trkpt><trkpt lat="41.0436933" lon="13.934755"><ele>0.42857142857142855</ele><time>2026-04-11T10:41:17.86Z</time></trkpt><trkpt lat="41.0436217" lon="13.9347733"><ele>0.5714285714285714</ele><time>2026-04-11T10:41:18.86Z</time></trkpt><trkpt lat="41.04355" lon="13.9347883"><ele>0.7142857142857142</ele><time>2026-04-11T10:41:19.86Z</time></trkpt><trkpt lat="41.04348" lon="13.9347983"><ele>0.8571428571428571</ele><time>2026-04-11T10:41:20.859Z</time></trkpt><trkpt lat="41.0434117" lon="13.934805"><ele>1.0</ele><time>2026-04-11T10:41:21.859Z</time></trkpt><trkpt lat="41.0433417" lon="13.934815"><ele>1.1428571428571428</ele><time>2026-04-11T10:41:22.86Z</time></trkpt><trkpt lat="41.0432717" lon="13.9348283"><ele>1.2857142857142856</ele><time>2026-04-11T10:41:23.86Z</time></trkpt><trkpt lat="41.0432017" lon="13.9348417"><ele>1.4285714285714284</ele><time>2026-04-11T10:41:24.859Z</time></trkpt><trkpt lat="41.0431333" lon="13.934855"><ele>1.5714285714285714</ele><time>2026-04-11T10:41:25.861Z</time></trkpt><trkpt lat="41.0430667" lon="13.9348683"><ele>1.714285714285714</ele><time>2026-04-11T10:41:26.86Z</time></trkpt><trkpt lat="41.0429967" lon="13.93488"><ele>1.857142857142857</ele><time>2026-04-11T10:41:27.86Z</time></trkpt><trkpt lat="41.0429283" lon="13.9348917"><ele>2.0</ele><time>2026-04-11T10:41:28.859Z</time></trkpt><trkpt lat="41.0428617" lon="13.9349017"><ele>2.0</ele><time>2026-04-11T10:41:29.86Z</time></trkpt><trkpt lat="41.0427933" lon="13.9349167"><ele>1.9999999999999998</ele><time>2026-04-11T10:41:30.86Z</time></trkpt><trkpt lat="41.042725" lon="13.9349317"><ele>2.0</ele><time>2026-04-11T10:41:31.861Z</time></trkpt><trkpt lat="41.042655" lon="13.934945"><ele>2.0</ele><time>2026-04-11T10:41:32.86Z</time></trkpt><trkpt lat="41.0425817" lon="13.9349633"><ele>1.9999999999999998</ele><time>2026-04-11T10:41:33.86Z</time></trkpt><trkpt lat="41.04251" lon="13.9349817"><ele>2.0</ele><time>2026-04-11T10:41:34.86Z</time></trkpt><trkpt lat="41.0424383" lon="13.9349983"><ele>2.0</ele><time>2026-04-11T10:41:35.859Z</time></trkpt><trkpt lat="41.042365" lon="13.9350167"><ele>1.8333333333333333</ele><time>2026-04-11T10:41:36.861Z</time></trkpt><trkpt lat="41.0422933" lon="13.9350317"><ele>1.6666666666666665</ele><time>2026-04-11T10:41:37.86Z</time></trkpt><trkpt lat="41.0422183" lon="13.93505"><ele>1.5</ele><time>2026-04-11T10:41:38.859Z</time></trkpt><trkpt lat="41.042145" lon="13.9350717"><ele>1.3333333333333333</ele><time>2026-04-11T10:41:39.86Z</time></trkpt><trkpt lat="41.042065" lon="13.9350867"><ele>1.1666666666666665</ele><time>2026-04-11T10:41:40.86Z</time></trkpt><trkpt lat="41.0419867" lon="13.9350967"><ele>1.0</ele><time>2026-04-11T10:41:41.859Z</time></trkpt><trkpt lat="41.041905" lon="13.9351117"><ele>1.3333333333333333</ele><time>2026-04-11T10:41:42.861Z</time></trkpt><trkpt lat="41.0418233" lon="13.935125"><ele>1.6666666666666665</ele><time>2026-04-11T10:41:43.861Z</time></trkpt><trkpt lat="41.04174" lon="13.93514"><ele>2.0</ele><time>2026-04-11T10:41:44.861Z</time></trkpt><trkpt lat="41.0416567" lon="13.9351567"><ele>2.3333333333333335</ele><time>2026-04-11T10:41:45.86Z</time></trkpt><trkpt lat="41.0415683" lon="13.9351733"><ele>2.6666666666666665</ele><time>2026-04-11T10:41:46.859Z</time></trkpt><trkpt lat="41.04148" lon="13.9351883"><ele>3.0</ele><time>2026-04-11T10:41:47.86Z</time></trkpt><trkpt lat="41.0413933" lon="13.9351983"><ele>3.1666666666666665</ele><time>2026-04-11T10:41:48.861Z</time></trkpt><trkpt lat="41.04131" lon="13.935205"><ele>3.333333333333333</ele><time>2026-04-11T10:41:49.859Z</time></trkpt><trkpt lat="41.04123" lon="13.9352167"><ele>3.5</ele><time>2026-04-11T10:41:50.859Z</time></trkpt><trkpt lat="41.0411483" lon="13.9352333"><ele>3.6666666666666665</ele><time>2026-04-11T10:41:51.859Z</time></trkpt><trkpt lat="41.041065" lon="13.9352533"><ele>3.833333333333333</ele><time>2026-04-11T10:41:52.861Z</time></trkpt><trkpt lat="41.0409833" lon="13.9352767"><ele>4.0</ele><time>2026-04-11T10:41:53.861Z</time></trkpt><trkpt lat="41.0409017" lon="13.935295"><ele>3.9999999999999996</ele><time>2026-04-11T10:41:54.86Z</time></trkpt><trkpt lat="41.0408183" lon="13.9353117"><ele>4.0</ele><time>2026-04-11T10:41:55.861Z</time></trkpt><trkpt lat="41.0407333" lon="13.9353267"><ele>4.0</ele><time>2026-04-11T10:41:56.86Z</time></trkpt><trkpt lat="41.04065" lon="13.9353383"><ele>4.0</ele><time>2026-04-11T10:41:57.859Z</time></trkpt><trkpt lat="41.0405633" lon="13.935355"><ele>3.9999999999999996</ele><time>2026-04-11T10:41:58.861Z</time></trkpt><trkpt lat="41.0404767" lon="13.935375"><ele>4.0</ele><time>2026-04-11T10:41:59.86Z</time></trkpt><trkpt lat="41.04039" lon="13.9353933"><ele>3.833333333333333</ele><time>2026-04-11T10:42:00.86Z</time></trkpt><trkpt lat="41.040305" lon="13.93541"><ele>3.6666666666666665</ele><time>2026-04-11T10:42:01.86Z</time></trkpt><trkpt lat="41.04022" lon="13.9354233"><ele>3.5</ele><time>2026-04-11T10:42:02.861Z</time></trkpt><trkpt lat="41.0401333" lon="13.935445"><ele>3.333333333333333</ele><time>2026-04-11T10:42:03.858Z</time></trkpt><trkpt lat="41.0400483" lon="13.9354683"><ele>3.1666666666666665</ele><time>2026-04-11T10:42:04.86Z</time></trkpt><trkpt lat="41.0399633" lon="13.9354883"><ele>3.0</ele><time>2026-04-11T10:42:05.861Z</time></trkpt><trkpt lat="41.03988" lon="13.9355033"><ele>3.0</ele><time>2026-04-11T10:42:06.861Z</time></trkpt><trkpt lat="41.0397967" lon="13.9355167"><ele>3.0</ele><time>2026-04-11T10:42:07.861Z</time></trkpt><trkpt lat="41.0397133" lon="13.9355283"><ele>3.0</ele><time>2026-04-11T10:42:08.861Z</time></trkpt><trkpt lat="41.0396317" lon="13.935545"><ele>3.0</ele><time>2026-04-11T10:42:09.858Z</time></trkpt><trkpt lat="41.0395533" lon="13.935565"><ele>3.0</ele><time>2026-04-11T10:42:10.86Z</time></trkpt><trkpt lat="41.0394833" lon="13.9355817"><ele>3.0</ele><time>2026-04-11T10:42:11.86Z</time></trkpt><trkpt lat="41.03936" lon="13.935605"><ele>3.0</ele><time>2026-04-11T10:42:13.861Z</time></trkpt><trkpt lat="41.0392317" lon="13.93562"><ele>3.0</ele><time>2026-04-11T10:42:15.858Z</time></trkpt><trkpt lat="41.0391617" lon="13.9356333"><ele>3.0</ele><time>2026-04-11T10:42:16.86Z</time></trkpt><trkpt lat="41.0390867" lon="13.9356517"><ele>3.0</ele><time>2026-04-11T10:42:17.86Z</time></trkpt><trkpt lat="41.03901" lon="13.935665"><ele>3.0</ele><time>2026-04-11T10:42:18.861Z</time></trkpt><trkpt lat="41.03893" lon="13.93568"><ele>3.0</ele><time>2026-04-11T10:42:19.861Z</time></trkpt><trkpt lat="41.0388533" lon="13.9356983"><ele>2.6666666666666665</ele><time>2026-04-11T10:42:20.86Z</time></trkpt><trkpt lat="41.038775" lon="13.935715"><ele>2.3333333333333335</ele><time>2026-04-11T10:42:21.86Z</time></trkpt><trkpt lat="41.0386967" lon="13.93573"><ele>2.0</ele><time>2026-04-11T10:42:22.861Z</time></trkpt><trkpt lat="41.0386167" lon="13.9357433"><ele>1.6666666666666665</ele><time>2026-04-11T10:42:23.86Z</time></trkpt><trkpt lat="41.0385383" lon="13.935755"><ele>1.3333333333333333</ele><time>2026-04-11T10:42:24.859Z</time></trkpt><trkpt lat="41.0384583" lon="13.9357683"><ele>1.0</ele><time>2026-04-11T10:42:25.861Z</time></trkpt><trkpt lat="41.03838" lon="13.9357817"><ele>0.8333333333333333</ele><time>2026-04-11T10:42:26.861Z</time></trkpt><trkpt lat="41.0382967" lon="13.935795"><ele>0.6666666666666666</ele><time>2026-04-11T10:42:27.861Z</time></trkpt><trkpt lat="41.0382117" lon="13.93581"><ele>0.5</ele><time>2026-04-11T10:42:28.861Z</time></trkpt><trkpt lat="41.038125" lon="13.9358283"><ele>0.3333333333333333</ele><time>2026-04-11T10:42:29.86Z</time></trkpt><trkpt lat="41.0380367" lon="13.935845"><ele>0.16666666666666666</ele><time>2026-04-11T10:42:30.86Z</time></trkpt><trkpt lat="41.0379517" lon="13.9358667"><ele>0.0</ele><time>2026-04-11T10:42:31.861Z</time></trkpt><trkpt lat="41.0378683" lon="13.935885"><ele>-0.16666666666666666</ele><time>2026-04-11T10:42:32.861Z</time></trkpt><trkpt lat="41.0377817" lon="13.9359017"><ele>-0.3333333333333333</ele><time>2026-04-11T10:42:33.859Z</time></trkpt><trkpt lat="41.037695" lon="13.9359233"><ele>-0.5</ele><time>2026-04-11T10:42:34.859Z</time></trkpt><trkpt lat="41.03761" lon="13.9359383"><ele>-0.6666666666666666</ele><time>2026-04-11T10:42:35.861Z</time></trkpt><trkpt lat="41.037525" lon="13.9359567"><ele>-0.8333333333333333</ele><time>2026-04-11T10:42:36.86Z</time></trkpt><trkpt lat="41.0374383" lon="13.9359783"><ele>-1.0</ele><time>2026-04-11T10:42:37.861Z</time></trkpt><trkpt lat="41.03735" lon="13.936"><ele>-1.0</ele><time>2026-04-11T10:42:38.861Z</time></trkpt><trkpt lat="41.0372633" lon="13.9360133"><ele>-1.0</ele><time>2026-04-11T10:42:39.859Z</time></trkpt><trkpt lat="41.0371733" lon="13.9360267"><ele>-1.0</ele><time>2026-04-11T10:42:40.86Z</time></trkpt><trkpt lat="41.0370833" lon="13.9360433"><ele>-1.0</ele><time>2026-04-11T10:42:41.861Z</time></trkpt><trkpt lat="41.0369933" lon="13.9360633"><ele>-1.0</ele><time>2026-04-11T10:42:42.859Z</time></trkpt><trkpt lat="41.0369033" lon="13.9360783"><ele>-1.0</ele><time>2026-04-11T10:42:43.862Z</time></trkpt><trkpt lat="41.03681" lon="13.9360967"><ele>-1.0</ele><time>2026-04-11T10:42:44.861Z</time></trkpt><trkpt lat="41.0367183" lon="13.9361183"><ele>-1.0</ele><time>2026-04-11T10:42:45.861Z</time></trkpt><trkpt lat="41.0366267" lon="13.9361433"><ele>-1.0</ele><time>2026-04-11T10:42:46.862Z</time></trkpt><trkpt lat="41.036535" lon="13.9361767"><ele>-1.0</ele><time>2026-04-11T10:42:47.861Z</time></trkpt><trkpt lat="41.036445" lon="13.9362133"><ele>-0.6000000000000001</ele><time>2026-04-11T10:42:48.861Z</time></trkpt><trkpt lat="41.0363583" lon="13.936255"><ele>-0.20000000000000007</ele><time>2026-04-11T10:42:49.86Z</time></trkpt><trkpt lat="41.0362717" lon="13.9363"><ele>0.20000000000000007</ele><time>2026-04-11T10:42:50.859Z</time></trkpt><trkpt lat="41.0361867" lon="13.9363467"><ele>0.6000000000000001</ele><time>2026-04-11T10:42:51.861Z</time></trkpt><trkpt lat="41.0361033" lon="13.9363933"><ele>1.0</ele><time>2026-04-11T10:42:52.86Z</time></trkpt><trkpt lat="41.0360233" lon="13.9364417"><ele>0.9999999999999999</ele><time>2026-04-11T10:42:53.861Z</time></trkpt><trkpt lat="41.035945" lon="13.93649"><ele>1.0</ele><time>2026-04-11T10:42:54.86Z</time></trkpt><trkpt lat="41.0358717" lon="13.9365417"><ele>1.0</ele><time>2026-04-11T10:42:55.861Z</time></trkpt><trkpt lat="41.0358033" lon="13.9366"><ele>1.0</ele><time>2026-04-11T10:42:56.861Z</time></trkpt><trkpt lat="41.03573" lon="13.9366633"><ele>0.9999999999999999</ele><time>2026-04-11T10:42:57.86Z</time></trkpt><trkpt lat="41.03566" lon="13.9367283"><ele>1.0</ele><time>2026-04-11T10:42:58.86Z</time></trkpt><trkpt lat="41.0355917" lon="13.9367967"><ele>0.8333333333333333</ele><time>2026-04-11T10:42:59.861Z</time></trkpt><trkpt lat="41.0355283" lon="13.936865"><ele>0.6666666666666666</ele><time>2026-04-11T10:43:00.86Z</time></trkpt><trkpt lat="41.0354683" lon="13.936935"><ele>0.5</ele><time>2026-04-11T10:43:01.861Z</time></trkpt><trkpt lat="41.0354117" lon="13.9370083"><ele>0.3333333333333333</ele><time>2026-04-11T10:43:02.86Z</time></trkpt><trkpt lat="41.0353583" lon="13.93708"><ele>0.16666666666666666</ele><time>2026-04-11T10:43:03.861Z</time></trkpt><trkpt lat="41.0353083" lon="13.9371483"><ele>0.0</ele><time>2026-04-11T10:43:04.859Z</time></trkpt><trkpt lat="41.03526" lon="13.9372217"><ele>0.0</ele><time>2026-04-11T10:43:05.859Z</time></trkpt><trkpt lat="41.0352133" lon="13.9372917"><ele>0.0</ele><time>2026-04-11T10:43:06.858Z</time></trkpt><trkpt lat="41.03517" lon="13.9373667"><ele>0.0</ele><time>2026-04-11T10:43:07.86Z</time></trkpt><trkpt lat="41.035125" lon="13.937445"><ele>0.0</ele><time>2026-04-11T10:43:08.861Z</time></trkpt><trkpt lat="41.0350817" lon="13.9375233"><ele>0.0</ele><time>2026-04-11T10:43:09.86Z</time></trkpt><trkpt lat="41.0350383" lon="13.9376017"><ele>0.0</ele><time>2026-04-11T10:43:10.86Z</time></trkpt><trkpt lat="41.0349983" lon="13.9376817"><ele>0.0</ele><time>2026-04-11T10:43:11.861Z</time></trkpt><trkpt lat="41.034955" lon="13.93776"><ele>0.2857142857142857</ele><time>2026-04-11T10:43:12.861Z</time></trkpt><trkpt lat="41.0349117" lon="13.9378383"><ele>0.5714285714285714</ele><time>2026-04-11T10:43:13.859Z</time></trkpt><trkpt lat="41.03487" lon="13.93792"><ele>0.8571428571428571</ele><time>2026-04-11T10:43:14.86Z</time></trkpt><trkpt lat="41.03483" lon="13.938"><ele>1.1428571428571428</ele><time>2026-04-11T10:43:15.861Z</time></trkpt><trkpt lat="41.0347917" lon="13.9380817"><ele>1.4285714285714284</ele><time>2026-04-11T10:43:16.861Z</time></trkpt><trkpt lat="41.034755" lon="13.938165"><ele>1.7142857142857142</ele><time>2026-04-11T10:43:17.862Z</time></trkpt><trkpt lat="41.034715" lon="13.9382483"><ele>2.0</ele><time>2026-04-11T10:43:18.861Z</time></trkpt><trkpt lat="41.0346767" lon="13.938325"><ele>1.7142857142857142</ele><time>2026-04-11T10:43:19.861Z</time></trkpt><trkpt lat="41.0346383" lon="13.9384"><ele>1.4285714285714284</ele><time>2026-04-11T10:43:20.86Z</time></trkpt><trkpt lat="41.0346017" lon="13.93847"><ele>1.1428571428571428</ele><time>2026-04-11T10:43:21.86Z</time></trkpt><trkpt lat="41.0345617" lon="13.9385467"><ele>0.8571428571428571</ele><time>2026-04-11T10:43:22.86Z</time></trkpt><trkpt lat="41.0345217" lon="13.9386267"><ele>0.5714285714285714</ele><time>2026-04-11T10:43:23.86Z</time></trkpt><trkpt lat="41.0344833" lon="13.938705"><ele>0.2857142857142857</ele><time>2026-04-11T10:43:24.862Z</time></trkpt><trkpt lat="41.0344467" lon="13.9387833"><ele>0.0</ele><time>2026-04-11T10:43:25.86Z</time></trkpt><trkpt lat="41.03441" lon="13.9388667"><ele>0.0</ele><time>2026-04-11T10:43:26.86Z</time></trkpt><trkpt lat="41.03437" lon="13.93895"><ele>0.0</ele><time>2026-04-11T10:43:27.857Z</time></trkpt><trkpt lat="41.0343333" lon="13.9390283"><ele>0.0</ele><time>2026-04-11T10:43:28.859Z</time></trkpt><trkpt lat="41.0342983" lon="13.9391033"><ele>0.0</ele><time>2026-04-11T10:43:29.86Z</time></trkpt><trkpt lat="41.0342633" lon="13.9391817"><ele>0.0</ele><time>2026-04-11T10:43:30.86Z</time></trkpt><trkpt lat="41.034195" lon="13.9393233"><ele>0.0</ele><time>2026-04-11T10:43:32.86Z</time></trkpt><trkpt lat="41.0341583" lon="13.9394"><ele>0.0</ele><time>2026-04-11T10:43:33.86Z</time></trkpt><trkpt lat="41.03412" lon="13.9394733"><ele>0.0</ele><time>2026-04-11T10:43:34.86Z</time></trkpt><trkpt lat="41.0340817" lon="13.93955"><ele>0.0</ele><time>2026-04-11T10:43:35.86Z</time></trkpt><trkpt lat="41.0340417" lon="13.9396333"><ele>0.0</ele><time>2026-04-11T10:43:36.86Z</time></trkpt><trkpt lat="41.0340033" lon="13.9397133"><ele>0.0</ele><time>2026-04-11T10:43:37.86Z</time></trkpt><trkpt lat="41.033965" lon="13.9397933"><ele>0.0</ele><time>2026-04-11T10:43:38.86Z</time></trkpt><trkpt lat="41.0339233" lon="13.9398733"><ele>0.0</ele><time>2026-04-11T10:43:39.859Z</time></trkpt><trkpt lat="41.0338833" lon="13.9399583"><ele>0.0</ele><time>2026-04-11T10:43:40.86Z</time></trkpt><trkpt lat="41.0338433" lon="13.9400417"><ele>0.0</ele><time>2026-04-11T10:43:41.86Z</time></trkpt><trkpt lat="41.0338017" lon="13.940125"><ele>0.0</ele><time>2026-04-11T10:43:42.859Z</time></trkpt><trkpt lat="41.0337617" lon="13.940205"><ele>0.0</ele><time>2026-04-11T10:43:43.86Z</time></trkpt><trkpt lat="41.03372" lon="13.940285"><ele>0.0</ele><time>2026-04-11T10:43:44.86Z</time></trkpt><trkpt lat="41.033675" lon="13.9403683"><ele>0.0</ele><time>2026-04-11T10:43:45.858Z</time></trkpt><trkpt lat="41.0336283" lon="13.9404567"><ele>0.3333333333333333</ele><time>2026-04-11T10:43:46.859Z</time></trkpt><trkpt lat="41.0335817" lon="13.9405433"><ele>0.6666666666666666</ele><time>2026-04-11T10:43:47.86Z</time></trkpt><trkpt lat="41.033535" lon="13.9406283"><ele>1.0</ele><time>2026-04-11T10:43:48.857Z</time></trkpt><trkpt lat="41.0334833" lon="13.940715"><ele>1.3333333333333333</ele><time>2026-04-11T10:43:49.86Z</time></trkpt><trkpt lat="41.0334267" lon="13.9407983"><ele>1.6666666666666665</ele><time>2026-04-11T10:43:50.86Z</time></trkpt><trkpt lat="41.033365" lon="13.9408783"><ele>2.0</ele><time>2026-04-11T10:43:51.858Z</time></trkpt><trkpt lat="41.0332983" lon="13.9409533"><ele>2.0</ele><time>2026-04-11T10:43:52.857Z</time></trkpt><trkpt lat="41.0332283" lon="13.9410317"><ele>2.0</ele><time>2026-04-11T10:43:53.861Z</time></trkpt><trkpt lat="41.033155" lon="13.941105"><ele>2.0</ele><time>2026-04-11T10:43:54.86Z</time></trkpt><trkpt lat="41.0330817" lon="13.9411733"><ele>2.0</ele><time>2026-04-11T10:43:55.86Z</time></trkpt><trkpt lat="41.0330067" lon="13.9412383"><ele>2.0</ele><time>2026-04-11T10:43:56.859Z</time></trkpt><trkpt lat="41.0329333" lon="13.9413083"><ele>2.0</ele><time>2026-04-11T10:43:57.86Z</time></trkpt><trkpt lat="41.0328567" lon="13.9413767"><ele>2.0</ele><time>2026-04-11T10:43:58.86Z</time></trkpt><trkpt lat="41.03278" lon="13.9414467"><ele>2.0</ele><time>2026-04-11T10:43:59.86Z</time></trkpt><trkpt lat="41.0327033" lon="13.94152"><ele>2.0</ele><time>2026-04-11T10:44:00.86Z</time></trkpt><trkpt lat="41.032625" lon="13.9415917"><ele>2.0</ele><time>2026-04-11T10:44:01.859Z</time></trkpt><trkpt lat="41.0325467" lon="13.9416567"><ele>2.0</ele><time>2026-04-11T10:44:02.86Z</time></trkpt><trkpt lat="41.0324667" lon="13.9417267"><ele>2.0</ele><time>2026-04-11T10:44:03.858Z</time></trkpt><trkpt lat="41.03239" lon="13.9417983"><ele>2.0</ele><time>2026-04-11T10:44:04.86Z</time></trkpt><trkpt lat="41.03231" lon="13.9418717"><ele>2.0</ele><time>2026-04-11T10:44:05.86Z</time></trkpt><trkpt lat="41.0322317" lon="13.9419417"><ele>2.0</ele><time>2026-04-11T10:44:06.861Z</time></trkpt><trkpt lat="41.0321533" lon="13.94201"><ele>2.0</ele><time>2026-04-11T10:44:07.86Z</time></trkpt><trkpt lat="41.0320733" lon="13.9420783"><ele>2.0</ele><time>2026-04-11T10:44:08.859Z</time></trkpt><trkpt lat="41.0319933" lon="13.942145"><ele>2.0</ele><time>2026-04-11T10:44:09.859Z</time></trkpt><trkpt lat="41.031915" lon="13.942215"><ele>2.0</ele><time>2026-04-11T10:44:10.858Z</time></trkpt><trkpt lat="41.0318367" lon="13.942285"><ele>2.0</ele><time>2026-04-11T10:44:11.86Z</time></trkpt><trkpt lat="41.0317567" lon="13.942355"><ele>2.0</ele><time>2026-04-11T10:44:12.86Z</time></trkpt><trkpt lat="41.0316767" lon="13.9424267"><ele>2.0</ele><time>2026-04-11T10:44:13.859Z</time></trkpt><trkpt lat="41.0315967" lon="13.9424967"><ele>2.0</ele><time>2026-04-11T10:44:14.86Z</time></trkpt><trkpt lat="41.03152" lon="13.9425667"><ele>2.0</ele><time>2026-04-11T10:44:15.86Z</time></trkpt><trkpt lat="41.0314433" lon="13.94264"><ele>2.0</ele><time>2026-04-11T10:44:16.859Z</time></trkpt><trkpt lat="41.031365" lon="13.942715"><ele>1.8</ele><time>2026-04-11T10:44:17.86Z</time></trkpt><trkpt lat="41.0312883" lon="13.9427867"><ele>1.6</ele><time>2026-04-11T10:44:18.86Z</time></trkpt><trkpt lat="41.0312133" lon="13.9428533"><ele>1.4000000000000001</ele><time>2026-04-11T10:44:19.86Z</time></trkpt><trkpt lat="41.03114" lon="13.94292"><ele>1.2000000000000002</ele><time>2026-04-11T10:44:20.859Z</time></trkpt><trkpt lat="41.031065" lon="13.942985"><ele>1.0</ele><time>2026-04-11T10:44:21.86Z</time></trkpt><trkpt lat="41.03099" lon="13.943055"><ele>1.0</ele><time>2026-04-11T10:44:22.86Z</time></trkpt><trkpt lat="41.0309167" lon="13.943125"><ele>1.0</ele><time>2026-04-11T10:44:23.861Z</time></trkpt><trkpt lat="41.0308417" lon="13.9431933"><ele>1.0</ele><time>2026-04-11T10:44:24.859Z</time></trkpt><trkpt lat="41.0307683" lon="13.943265"><ele>1.0</ele><time>2026-04-11T10:44:25.86Z</time></trkpt><trkpt lat="41.030695" lon="13.9433333"><ele>1.0</ele><time>2026-04-11T10:44:26.86Z</time></trkpt><trkpt lat="41.03062" lon="13.9433983"><ele>1.3333333333333333</ele><time>2026-04-11T10:44:27.859Z</time></trkpt><trkpt lat="41.030545" lon="13.943465"><ele>1.6666666666666665</ele><time>2026-04-11T10:44:28.859Z</time></trkpt><trkpt lat="41.0304717" lon="13.943535"><ele>2.0</ele><time>2026-04-11T10:44:29.86Z</time></trkpt><trkpt lat="41.0303967" lon="13.9436033"><ele>2.3333333333333335</ele><time>2026-04-11T10:44:30.858Z</time></trkpt><trkpt lat="41.030325" lon="13.94367"><ele>2.6666666666666665</ele><time>2026-04-11T10:44:31.861Z</time></trkpt><trkpt lat="41.0302533" lon="13.943735"><ele>3.0</ele><time>2026-04-11T10:44:32.86Z</time></trkpt><trkpt lat="41.0301783" lon="13.9438017"><ele>3.0</ele><time>2026-04-11T10:44:33.859Z</time></trkpt><trkpt lat="41.0301033" lon="13.9438683"><ele>3.0</ele><time>2026-04-11T10:44:34.86Z</time></trkpt><trkpt lat="41.0300317" lon="13.9439317"><ele>3.0</ele><time>2026-04-11T10:44:35.86Z</time></trkpt><trkpt lat="41.0299583" lon="13.9439967"><ele>3.0</ele><time>2026-04-11T10:44:36.859Z</time></trkpt><trkpt lat="41.0298867" lon="13.9440633"><ele>3.0</ele><time>2026-04-11T10:44:37.86Z</time></trkpt><trkpt lat="41.0298133" lon="13.9441283"><ele>3.0</ele><time>2026-04-11T10:44:38.86Z</time></trkpt><trkpt lat="41.029735" lon="13.9441933"><ele>2.8</ele><time>2026-04-11T10:44:39.86Z</time></trkpt><trkpt lat="41.02966" lon="13.944265"><ele>2.5999999999999996</ele><time>2026-04-11T10:44:40.859Z</time></trkpt><trkpt lat="41.0295867" lon="13.944335"><ele>2.4000000000000004</ele><time>2026-04-11T10:44:41.86Z</time></trkpt><trkpt lat="41.0295133" lon="13.944405"><ele>2.2</ele><time>2026-04-11T10:44:42.859Z</time></trkpt><trkpt lat="41.02944" lon="13.944475"><ele>2.0</ele><time>2026-04-11T10:44:43.86Z</time></trkpt><trkpt lat="41.02937" lon="13.9445417"><ele>1.9999999999999998</ele><time>2026-04-11T10:44:44.86Z</time></trkpt><trkpt lat="41.029295" lon="13.94461"><ele>2.0</ele><time>2026-04-11T10:44:45.859Z</time></trkpt><trkpt lat="41.0292233" lon="13.9446733"><ele>2.0</ele><time>2026-04-11T10:44:46.86Z</time></trkpt><trkpt lat="41.0291483" lon="13.9447383"><ele>2.0</ele><time>2026-04-11T10:44:47.86Z</time></trkpt><trkpt lat="41.0290767" lon="13.944805"><ele>1.9999999999999998</ele><time>2026-04-11T10:44:48.86Z</time></trkpt><trkpt lat="41.0290017" lon="13.94487"><ele>2.0</ele><time>2026-04-11T10:44:49.861Z</time></trkpt><trkpt lat="41.028925" lon="13.9449383"><ele>2.0</ele><time>2026-04-11T10:44:50.861Z</time></trkpt><trkpt lat="41.0288483" lon="13.9450067"><ele>2.0</ele><time>2026-04-11T10:44:51.859Z</time></trkpt><trkpt lat="41.028775" lon="13.94508"><ele>2.0</ele><time>2026-04-11T10:44:52.859Z</time></trkpt><trkpt lat="41.0286983" lon="13.9451517"><ele>2.0</ele><time>2026-04-11T10:44:53.86Z</time></trkpt><trkpt lat="41.028625" lon="13.94522"><ele>2.0</ele><time>2026-04-11T10:44:54.86Z</time></trkpt><trkpt lat="41.0285517" lon="13.9452867"><ele>1.9999999999999998</ele><time>2026-04-11T10:44:55.861Z</time></trkpt><trkpt lat="41.0284767" lon="13.9453517"><ele>2.0</ele><time>2026-04-11T10:44:56.86Z</time></trkpt><trkpt lat="41.0284033" lon="13.9454167"><ele>2.0</ele><time>2026-04-11T10:44:57.86Z</time></trkpt><trkpt lat="41.02833" lon="13.9454817"><ele>2.0</ele><time>2026-04-11T10:44:58.86Z</time></trkpt><trkpt lat="41.028255" lon="13.9455467"><ele>1.9999999999999998</ele><time>2026-04-11T10:44:59.86Z</time></trkpt><trkpt lat="41.02818" lon="13.9456133"><ele>2.0</ele><time>2026-04-11T10:45:00.86Z</time></trkpt><trkpt lat="41.028105" lon="13.9456767"><ele>2.0</ele><time>2026-04-11T10:45:01.86Z</time></trkpt><trkpt lat="41.02803" lon="13.9457433"><ele>2.0</ele><time>2026-04-11T10:45:02.859Z</time></trkpt><trkpt lat="41.0279533" lon="13.9458117"><ele>2.0</ele><time>2026-04-11T10:45:03.858Z</time></trkpt><trkpt lat="41.02788" lon="13.9458767"><ele>2.0</ele><time>2026-04-11T10:45:04.859Z</time></trkpt><trkpt lat="41.0278067" lon="13.945945"><ele>2.0</ele><time>2026-04-11T10:45:05.86Z</time></trkpt><trkpt lat="41.027735" lon="13.9460183"><ele>2.4000000000000004</ele><time>2026-04-11T10:45:06.859Z</time></trkpt><trkpt lat="41.02766" lon="13.94609"><ele>2.8000000000000003</ele><time>2026-04-11T10:45:07.861Z</time></trkpt><trkpt lat="41.0275867" lon="13.9461533"><ele>3.2</ele><time>2026-04-11T10:45:08.859Z</time></trkpt><trkpt lat="41.0275117" lon="13.94622"><ele>3.6</ele><time>2026-04-11T10:45:09.859Z</time></trkpt><trkpt lat="41.02744" lon="13.9462867"><ele>4.0</ele><time>2026-04-11T10:45:10.86Z</time></trkpt><trkpt lat="41.027365" lon="13.9463567"><ele>4.0</ele><time>2026-04-11T10:45:11.86Z</time></trkpt><trkpt lat="41.0272883" lon="13.94643"><ele>4.0</ele><time>2026-04-11T10:45:12.86Z</time></trkpt><trkpt lat="41.0272133" lon="13.9465017"><ele>4.0</ele><time>2026-04-11T10:45:13.859Z</time></trkpt><trkpt lat="41.0271367" lon="13.9465683"><ele>4.0</ele><time>2026-04-11T10:45:14.86Z</time></trkpt><trkpt lat="41.0270583" lon="13.946635"><ele>4.0</ele><time>2026-04-11T10:45:15.858Z</time></trkpt><trkpt lat="41.0269817" lon="13.9467033"><ele>4.0</ele><time>2026-04-11T10:45:16.86Z</time></trkpt><trkpt lat="41.0269067" lon="13.9467733"><ele>4.0</ele><time>2026-04-11T10:45:17.86Z</time></trkpt><trkpt lat="41.0268283" lon="13.9468383"><ele>4.0</ele><time>2026-04-11T10:45:18.859Z</time></trkpt><trkpt lat="41.02675" lon="13.9469083"><ele>4.0</ele><time>2026-04-11T10:45:19.86Z</time></trkpt><trkpt lat="41.0266733" lon="13.9469783"><ele>4.0</ele><time>2026-04-11T10:45:20.86Z</time></trkpt><trkpt lat="41.0265967" lon="13.9470517"><ele>3.6</ele><time>2026-04-11T10:45:21.86Z</time></trkpt><trkpt lat="41.0265167" lon="13.9471217"><ele>3.2</ele><time>2026-04-11T10:45:22.86Z</time></trkpt><trkpt lat="41.02644" lon="13.94719"><ele>2.8000000000000003</ele><time>2026-04-11T10:45:23.859Z</time></trkpt><trkpt lat="41.0263583" lon="13.947255"><ele>2.4000000000000004</ele><time>2026-04-11T10:45:24.86Z</time></trkpt><trkpt lat="41.0262817" lon="13.9473233"><ele>2.0</ele><time>2026-04-11T10:45:25.861Z</time></trkpt><trkpt lat="41.0262067" lon="13.947385"><ele>1.9999999999999998</ele><time>2026-04-11T10:45:26.86Z</time></trkpt><trkpt lat="41.0261317" lon="13.947435"><ele>2.0</ele><time>2026-04-11T10:45:27.859Z</time></trkpt><trkpt lat="41.0260583" lon="13.9474833"><ele>2.0</ele><time>2026-04-11T10:45:28.86Z</time></trkpt><trkpt lat="41.0259883" lon="13.9475383"><ele>2.0</ele><time>2026-04-11T10:45:29.86Z</time></trkpt><trkpt lat="41.0259167" lon="13.9475967"><ele>1.9999999999999998</ele><time>2026-04-11T10:45:30.857Z</time></trkpt><trkpt lat="41.0258433" lon="13.94765"><ele>2.0</ele><time>2026-04-11T10:45:31.861Z</time></trkpt><trkpt lat="41.02577" lon="13.9477083"><ele>2.333333333333333</ele><time>2026-04-11T10:45:32.86Z</time></trkpt><trkpt lat="41.0256967" lon="13.9477717"><ele>2.6666666666666665</ele><time>2026-04-11T10:45:33.859Z</time></trkpt><trkpt lat="41.02562" lon="13.947835"><ele>3.0</ele><time>2026-04-11T10:45:34.86Z</time></trkpt><trkpt lat="41.025545" lon="13.9478917"><ele>3.333333333333333</ele><time>2026-04-11T10:45:35.86Z</time></trkpt><trkpt lat="41.0254733" lon="13.9479533"><ele>3.6666666666666665</ele><time>2026-04-11T10:45:36.859Z</time></trkpt><trkpt lat="41.0254033" lon="13.948015"><ele>4.0</ele><time>2026-04-11T10:45:37.86Z</time></trkpt><trkpt lat="41.0253333" lon="13.9480717"><ele>3.9999999999999996</ele><time>2026-04-11T10:45:38.86Z</time></trkpt><trkpt lat="41.025265" lon="13.94813"><ele>4.0</ele><time>2026-04-11T10:45:39.86Z</time></trkpt><trkpt lat="41.0251933" lon="13.9481917"><ele>4.0</ele><time>2026-04-11T10:45:40.86Z</time></trkpt><trkpt lat="41.02512" lon="13.9482533"><ele>4.0</ele><time>2026-04-11T10:45:41.86Z</time></trkpt><trkpt lat="41.0250483" lon="13.94832"><ele>3.9999999999999996</ele><time>2026-04-11T10:45:42.859Z</time></trkpt><trkpt lat="41.024975" lon="13.94838"><ele>4.0</ele><time>2026-04-11T10:45:43.86Z</time></trkpt><trkpt lat="41.0248967" lon="13.9484333"><ele>4.166666666666666</ele><time>2026-04-11T10:45:44.859Z</time></trkpt><trkpt lat="41.024825" lon="13.9484883"><ele>4.333333333333333</ele><time>2026-04-11T10:45:45.858Z</time></trkpt><trkpt lat="41.024755" lon="13.9485433"><ele>4.5</ele><time>2026-04-11T10:45:46.859Z</time></trkpt><trkpt lat="41.0246867" lon="13.9486017"><ele>4.666666666666667</ele><time>2026-04-11T10:45:47.86Z</time></trkpt><trkpt lat="41.0246217" lon="13.9486617"><ele>4.833333333333334</ele><time>2026-04-11T10:45:48.861Z</time></trkpt><trkpt lat="41.0245567" lon="13.9487183"><ele>5.0</ele><time>2026-04-11T10:45:49.86Z</time></trkpt><trkpt lat="41.0244867" lon="13.9487717"><ele>5.0</ele><time>2026-04-11T10:45:50.86Z</time></trkpt><trkpt lat="41.0244117" lon="13.9488233"><ele>5.0</ele><time>2026-04-11T10:45:51.859Z</time></trkpt><trkpt lat="41.024335" lon="13.9488783"><ele>5.0</ele><time>2026-04-11T10:45:52.86Z</time></trkpt><trkpt lat="41.0242633" lon="13.948935"><ele>5.0</ele><time>2026-04-11T10:45:53.86Z</time></trkpt><trkpt lat="41.024195" lon="13.9489933"><ele>5.0</ele><time>2026-04-11T10:45:54.858Z</time></trkpt><trkpt lat="41.02413" lon="13.9490533"><ele>5.0</ele><time>2026-04-11T10:45:55.859Z</time></trkpt><trkpt lat="41.0240683" lon="13.94911"><ele>4.6</ele><time>2026-04-11T10:45:56.859Z</time></trkpt><trkpt lat="41.0240067" lon="13.949165"><ele>4.2</ele><time>2026-04-11T10:45:57.858Z</time></trkpt><trkpt lat="41.0239483" lon="13.949215"><ele>3.8</ele><time>2026-04-11T10:45:58.86Z</time></trkpt><trkpt lat="41.0238433" lon="13.9493033"><ele>3.4</ele><time>2026-04-11T10:46:00.86Z</time></trkpt><trkpt lat="41.0237383" lon="13.9494"><ele>3.0</ele><time>2026-04-11T10:46:02.859Z</time></trkpt><trkpt lat="41.0236783" lon="13.949435"><ele>3.0</ele><time>2026-04-11T10:46:03.86Z</time></trkpt><trkpt lat="41.02362" lon="13.94949"><ele>3.0</ele><time>2026-04-11T10:46:04.86Z</time></trkpt><trkpt lat="41.02356" lon="13.94954"><ele>3.0</ele><time>2026-04-11T10:46:05.86Z</time></trkpt><trkpt lat="41.0234983" lon="13.9495917"><ele>3.0</ele><time>2026-04-11T10:46:06.858Z</time></trkpt><trkpt lat="41.023435" lon="13.94965"><ele>3.0</ele><time>2026-04-11T10:46:07.859Z</time></trkpt><trkpt lat="41.0233667" lon="13.9497067"><ele>3.0</ele><time>2026-04-11T10:46:08.859Z</time></trkpt><trkpt lat="41.023295" lon="13.9497583"><ele>3.0</ele><time>2026-04-11T10:46:09.859Z</time></trkpt><trkpt lat="41.0232267" lon="13.949815"><ele>3.0</ele><time>2026-04-11T10:46:10.859Z</time></trkpt><trkpt lat="41.0231583" lon="13.9498733"><ele>3.0</ele><time>2026-04-11T10:46:11.86Z</time></trkpt><trkpt lat="41.0230933" lon="13.9499367"><ele>3.0</ele><time>2026-04-11T10:46:12.86Z</time></trkpt><trkpt lat="41.0230233" lon="13.9499933"><ele>3.0</ele><time>2026-04-11T10:46:13.86Z</time></trkpt><trkpt lat="41.0229533" lon="13.9500467"><ele>3.0</ele><time>2026-04-11T10:46:14.859Z</time></trkpt><trkpt lat="41.02288" lon="13.9500983"><ele>2.8333333333333335</ele><time>2026-04-11T10:46:15.858Z</time></trkpt><trkpt lat="41.0228067" lon="13.9501533"><ele>2.6666666666666665</ele><time>2026-04-11T10:46:16.86Z</time></trkpt><trkpt lat="41.022735" lon="13.950215"><ele>2.5</ele><time>2026-04-11T10:46:17.86Z</time></trkpt><trkpt lat="41.022665" lon="13.9502733"><ele>2.333333333333333</ele><time>2026-04-11T10:46:18.859Z</time></trkpt><trkpt lat="41.0225983" lon="13.950335"><ele>2.1666666666666665</ele><time>2026-04-11T10:46:19.859Z</time></trkpt><trkpt lat="41.02253" lon="13.9503983"><ele>2.0</ele><time>2026-04-11T10:46:20.86Z</time></trkpt><trkpt lat="41.0224583" lon="13.9504583"><ele>2.333333333333333</ele><time>2026-04-11T10:46:21.859Z</time></trkpt><trkpt lat="41.0223867" lon="13.950515"><ele>2.6666666666666665</ele><time>2026-04-11T10:46:22.86Z</time></trkpt><trkpt lat="41.0223183" lon="13.9505683"><ele>3.0</ele><time>2026-04-11T10:46:23.861Z</time></trkpt><trkpt lat="41.02225" lon="13.9506217"><ele>3.333333333333333</ele><time>2026-04-11T10:46:24.859Z</time></trkpt><trkpt lat="41.02218" lon="13.950675"><ele>3.6666666666666665</ele><time>2026-04-11T10:46:25.86Z</time></trkpt><trkpt lat="41.02211" lon="13.9507267"><ele>4.0</ele><time>2026-04-11T10:46:26.86Z</time></trkpt><trkpt lat="41.02204" lon="13.9507833"><ele>3.9999999999999996</ele><time>2026-04-11T10:46:27.859Z</time></trkpt><trkpt lat="41.0219733" lon="13.95084"><ele>4.0</ele><time>2026-04-11T10:46:28.86Z</time></trkpt><trkpt lat="41.021905" lon="13.9508983"><ele>4.0</ele><time>2026-04-11T10:46:29.86Z</time></trkpt><trkpt lat="41.0218367" lon="13.9509567"><ele>4.0</ele><time>2026-04-11T10:46:30.86Z</time></trkpt><trkpt lat="41.0217683" lon="13.951015"><ele>3.9999999999999996</ele><time>2026-04-11T10:46:31.859Z</time></trkpt><trkpt lat="41.0216983" lon="13.951065"><ele>4.0</ele><time>2026-04-11T10:46:32.859Z</time></trkpt><trkpt lat="41.0216267" lon="13.95112"><ele>3.9999999999999996</ele><time>2026-04-11T10:46:33.859Z</time></trkpt><trkpt lat="41.02156" lon="13.9511767"><ele>4.0</ele><time>2026-04-11T10:46:34.86Z</time></trkpt><trkpt lat="41.02149" lon="13.951235"><ele>4.0</ele><time>2026-04-11T10:46:35.86Z</time></trkpt><trkpt lat="41.02142" lon="13.951295"><ele>4.0</ele><time>2026-04-11T10:46:36.86Z</time></trkpt><trkpt lat="41.0213467" lon="13.9513567"><ele>3.9999999999999996</ele><time>2026-04-11T10:46:37.858Z</time></trkpt><trkpt lat="41.021275" lon="13.951415"><ele>4.0</ele><time>2026-04-11T10:46:38.86Z</time></trkpt><trkpt lat="41.021205" lon="13.9514767"><ele>3.9999999999999996</ele><time>2026-04-11T10:46:39.86Z</time></trkpt><trkpt lat="41.021135" lon="13.9515383"><ele>4.0</ele><time>2026-04-11T10:46:40.859Z</time></trkpt><trkpt lat="41.0210617" lon="13.9516033"><ele>4.0</ele><time>2026-04-11T10:46:41.859Z</time></trkpt><trkpt lat="41.0209867" lon="13.9516683"><ele>4.0</ele><time>2026-04-11T10:46:42.86Z</time></trkpt><trkpt lat="41.020915" lon="13.95173"><ele>3.9999999999999996</ele><time>2026-04-11T10:46:43.86Z</time></trkpt><trkpt lat="41.02084" lon="13.95179"><ele>4.0</ele><time>2026-04-11T10:46:44.86Z</time></trkpt><trkpt lat="41.0207617" lon="13.9518533"><ele>3.833333333333333</ele><time>2026-04-11T10:46:45.858Z</time></trkpt><trkpt lat="41.0206883" lon="13.951915"><ele>3.6666666666666665</ele><time>2026-04-11T10:46:46.858Z</time></trkpt><trkpt lat="41.0206117" lon="13.951975"><ele>3.5</ele><time>2026-04-11T10:46:47.86Z</time></trkpt><trkpt lat="41.0205317" lon="13.95204"><ele>3.333333333333333</ele><time>2026-04-11T10:46:48.859Z</time></trkpt><trkpt lat="41.020455" lon="13.9521033"><ele>3.1666666666666665</ele><time>2026-04-11T10:46:49.86Z</time></trkpt><trkpt lat="41.02038" lon="13.9521633"><ele>3.0</ele><time>2026-04-11T10:46:50.858Z</time></trkpt><trkpt lat="41.020305" lon="13.952225"><ele>3.0</ele><time>2026-04-11T10:46:51.859Z</time></trkpt><trkpt lat="41.02023" lon="13.9522867"><ele>3.0</ele><time>2026-04-11T10:46:52.86Z</time></trkpt><trkpt lat="41.020155" lon="13.9523467"><ele>3.0</ele><time>2026-04-11T10:46:53.859Z</time></trkpt><trkpt lat="41.02008" lon="13.9524067"><ele>3.0</ele><time>2026-04-11T10:46:54.858Z</time></trkpt><trkpt lat="41.0200033" lon="13.9524667"><ele>3.0</ele><time>2026-04-11T10:46:55.861Z</time></trkpt><trkpt lat="41.0199267" lon="13.952525"><ele>3.0</ele><time>2026-04-11T10:46:56.86Z</time></trkpt><trkpt lat="41.0198533" lon="13.9525833"><ele>3.0</ele><time>2026-04-11T10:46:57.86Z</time></trkpt><trkpt lat="41.0197833" lon="13.9526417"><ele>3.0</ele><time>2026-04-11T10:46:58.859Z</time></trkpt><trkpt lat="41.0197117" lon="13.952705"><ele>3.0</ele><time>2026-04-11T10:46:59.86Z</time></trkpt><trkpt lat="41.01964" lon="13.9527667"><ele>3.0</ele><time>2026-04-11T10:47:00.859Z</time></trkpt><trkpt lat="41.01957" lon="13.9528267"><ele>3.0</ele><time>2026-04-11T10:47:01.86Z</time></trkpt><trkpt lat="41.0194967" lon="13.9528833"><ele>3.0</ele><time>2026-04-11T10:47:02.858Z</time></trkpt><trkpt lat="41.0194217" lon="13.95294"><ele>3.0</ele><time>2026-04-11T10:47:03.859Z</time></trkpt><trkpt lat="41.0193483" lon="13.9529983"><ele>3.0</ele><time>2026-04-11T10:47:04.859Z</time></trkpt><trkpt lat="41.019275" lon="13.95306"><ele>3.0</ele><time>2026-04-11T10:47:05.86Z</time></trkpt><trkpt lat="41.0192017" lon="13.9531217"><ele>3.0</ele><time>2026-04-11T10:47:06.858Z</time></trkpt><trkpt lat="41.0191267" lon="13.9531767"><ele>3.0</ele><time>2026-04-11T10:47:07.858Z</time></trkpt><trkpt lat="41.0190567" lon="13.9532367"><ele>3.0</ele><time>2026-04-11T10:47:08.858Z</time></trkpt><trkpt lat="41.01899" lon="13.9532967"><ele>3.0</ele><time>2026-04-11T10:47:09.858Z</time></trkpt><trkpt lat="41.01892" lon="13.95336"><ele>3.0</ele><time>2026-04-11T10:47:10.86Z</time></trkpt><trkpt lat="41.0188483" lon="13.9534167"><ele>3.0</ele><time>2026-04-11T10:47:11.859Z</time></trkpt><trkpt lat="41.018775" lon="13.9534733"><ele>3.0</ele><time>2026-04-11T10:47:12.86Z</time></trkpt><trkpt lat="41.0187033" lon="13.953535"><ele>3.0</ele><time>2026-04-11T10:47:13.86Z</time></trkpt><trkpt lat="41.0186333" lon="13.9535933"><ele>3.0</ele><time>2026-04-11T10:47:14.86Z</time></trkpt><trkpt lat="41.018565" lon="13.9536483"><ele>3.1666666666666665</ele><time>2026-04-11T10:47:15.86Z</time></trkpt><trkpt lat="41.018495" lon="13.9537017"><ele>3.333333333333333</ele><time>2026-04-11T10:47:16.859Z</time></trkpt><trkpt lat="41.018425" lon="13.95376"><ele>3.5</ele><time>2026-04-11T10:47:17.859Z</time></trkpt><trkpt lat="41.018355" lon="13.95381"><ele>3.6666666666666665</ele><time>2026-04-11T10:47:18.859Z</time></trkpt><trkpt lat="41.018285" lon="13.953855"><ele>3.833333333333333</ele><time>2026-04-11T10:47:19.859Z</time></trkpt><trkpt lat="41.0182183" lon="13.953895"><ele>4.0</ele><time>2026-04-11T10:47:20.86Z</time></trkpt><trkpt lat="41.0181533" lon="13.953935"><ele>3.9999999999999996</ele><time>2026-04-11T10:47:21.859Z</time></trkpt><trkpt lat="41.0180917" lon="13.9539683"><ele>4.0</ele><time>2026-04-11T10:47:22.857Z</time></trkpt><trkpt lat="41.0180267" lon="13.9539833"><ele>4.0</ele><time>2026-04-11T10:47:23.86Z</time></trkpt><trkpt lat="41.0179667" lon="13.9540133"><ele>4.0</ele><time>2026-04-11T10:47:24.858Z</time></trkpt><trkpt lat="41.017865" lon="13.954105"><ele>3.9999999999999996</ele><time>2026-04-11T10:47:26.86Z</time></trkpt><trkpt lat="41.01779" lon="13.95422"><ele>4.0</ele><time>2026-04-11T10:47:28.859Z</time></trkpt><trkpt lat="41.0176967" lon="13.9543083"><ele>4.0</ele><time>2026-04-11T10:47:30.858Z</time></trkpt><trkpt lat="41.0175983" lon="13.95439"><ele>4.0</ele><time>2026-04-11T10:47:32.859Z</time></trkpt><trkpt lat="41.0174967" lon="13.9544867"><ele>4.0</ele><time>2026-04-11T10:47:34.86Z</time></trkpt><trkpt lat="41.01744" lon="13.9545417"><ele>4.0</ele><time>2026-04-11T10:47:35.861Z</time></trkpt><trkpt lat="41.0173817" lon="13.954595"><ele>4.0</ele><time>2026-04-11T10:47:36.859Z</time></trkpt><trkpt lat="41.0173183" lon="13.9546417"><ele>3.9999999999999996</ele><time>2026-04-11T10:47:37.859Z</time></trkpt><trkpt lat="41.0172567" lon="13.9546933"><ele>4.0</ele><time>2026-04-11T10:47:38.86Z</time></trkpt><trkpt lat="41.0171933" lon="13.9547467"><ele>4.0</ele><time>2026-04-11T10:47:39.859Z</time></trkpt><trkpt lat="41.01713" lon="13.9547983"><ele>4.0</ele><time>2026-04-11T10:47:40.859Z</time></trkpt><trkpt lat="41.0170667" lon="13.954845"><ele>3.9999999999999996</ele><time>2026-04-11T10:47:41.86Z</time></trkpt><trkpt lat="41.0170017" lon="13.9549"><ele>4.0</ele><time>2026-04-11T10:47:42.859Z</time></trkpt><trkpt lat="41.0169333" lon="13.9549517"><ele>3.9999999999999996</ele><time>2026-04-11T10:47:43.86Z</time></trkpt><trkpt lat="41.0168667" lon="13.955005"><ele>4.0</ele><time>2026-04-11T10:47:44.859Z</time></trkpt><trkpt lat="41.0167983" lon="13.95506"><ele>4.0</ele><time>2026-04-11T10:47:45.858Z</time></trkpt><trkpt lat="41.0167283" lon="13.95511"><ele>4.0</ele><time>2026-04-11T10:47:46.859Z</time></trkpt><trkpt lat="41.0166583" lon="13.955165"><ele>3.9999999999999996</ele><time>2026-04-11T10:47:47.859Z</time></trkpt><trkpt lat="41.01659" lon="13.9552217"><ele>4.0</ele><time>2026-04-11T10:47:48.859Z</time></trkpt><trkpt lat="41.0165233" lon="13.955275"><ele>3.9999999999999996</ele><time>2026-04-11T10:47:49.86Z</time></trkpt><trkpt lat="41.0164567" lon="13.955335"><ele>4.0</ele><time>2026-04-11T10:47:50.86Z</time></trkpt><trkpt lat="41.0163917" lon="13.9553983"><ele>4.0</ele><time>2026-04-11T10:47:51.859Z</time></trkpt><trkpt lat="41.0163233" lon="13.95546"><ele>4.0</ele><time>2026-04-11T10:47:52.859Z</time></trkpt><trkpt lat="41.016255" lon="13.955515"><ele>3.9999999999999996</ele><time>2026-04-11T10:47:53.86Z</time></trkpt><trkpt lat="41.0161883" lon="13.9555767"><ele>4.0</ele><time>2026-04-11T10:47:54.858Z</time></trkpt><trkpt lat="41.0161217" lon="13.9556333"><ele>3.9999999999999996</ele><time>2026-04-11T10:47:55.859Z</time></trkpt><trkpt lat="41.0160567" lon="13.9556883"><ele>4.0</ele><time>2026-04-11T10:47:56.859Z</time></trkpt><trkpt lat="41.0159917" lon="13.955745"><ele>4.0</ele><time>2026-04-11T10:47:57.858Z</time></trkpt><trkpt lat="41.0159267" lon="13.955805"><ele>4.0</ele><time>2026-04-11T10:47:58.86Z</time></trkpt><trkpt lat="41.01586" lon="13.9558583"><ele>3.9999999999999996</ele><time>2026-04-11T10:47:59.858Z</time></trkpt><trkpt lat="41.0157917" lon="13.9559133"><ele>4.0</ele><time>2026-04-11T10:48:00.859Z</time></trkpt><trkpt lat="41.015725" lon="13.9559633"><ele>3.833333333333333</ele><time>2026-04-11T10:48:01.859Z</time></trkpt><trkpt lat="41.0156583" lon="13.9560167"><ele>3.6666666666666665</ele><time>2026-04-11T10:48:02.861Z</time></trkpt><trkpt lat="41.0155933" lon="13.956075"><ele>3.5</ele><time>2026-04-11T10:48:03.859Z</time></trkpt><trkpt lat="41.01553" lon="13.9561283"><ele>3.333333333333333</ele><time>2026-04-11T10:48:04.859Z</time></trkpt><trkpt lat="41.015465" lon="13.956175"><ele>3.1666666666666665</ele><time>2026-04-11T10:48:05.859Z</time></trkpt><trkpt lat="41.01541" lon="13.9562167"><ele>3.0</ele><time>2026-04-11T10:48:06.859Z</time></trkpt><trkpt lat="41.01531" lon="13.9562767"><ele>3.0</ele><time>2026-04-11T10:48:08.859Z</time></trkpt><trkpt lat="41.0152167" lon="13.956345"><ele>3.0</ele><time>2026-04-11T10:48:10.858Z</time></trkpt><trkpt lat="41.01512" lon="13.95644"><ele>3.0</ele><time>2026-04-11T10:48:12.859Z</time></trkpt><trkpt lat="41.0150167" lon="13.9565317"><ele>3.0</ele><time>2026-04-11T10:48:14.859Z</time></trkpt><trkpt lat="41.01496" lon="13.956585"><ele>3.0</ele><time>2026-04-11T10:48:15.859Z</time></trkpt><trkpt lat="41.0149" lon="13.9566383"><ele>2.8571428571428568</ele><time>2026-04-11T10:48:16.86Z</time></trkpt><trkpt lat="41.0148383" lon="13.9566867"><ele>2.7142857142857144</ele><time>2026-04-11T10:48:17.86Z</time></trkpt><trkpt lat="41.0147733" lon="13.956735"><ele>2.571428571428571</ele><time>2026-04-11T10:48:18.859Z</time></trkpt><trkpt lat="41.01471" lon="13.9567867"><ele>2.4285714285714284</ele><time>2026-04-11T10:48:19.86Z</time></trkpt><trkpt lat="41.0146483" lon="13.956845"><ele>2.2857142857142856</ele><time>2026-04-11T10:48:20.858Z</time></trkpt><trkpt lat="41.0145867" lon="13.9568983"><ele>2.142857142857143</ele><time>2026-04-11T10:48:21.859Z</time></trkpt><trkpt lat="41.0145217" lon="13.95695"><ele>2.0</ele><time>2026-04-11T10:48:22.859Z</time></trkpt><trkpt lat="41.0144583" lon="13.9570083"><ele>1.9999999999999998</ele><time>2026-04-11T10:48:23.858Z</time></trkpt><trkpt lat="41.0143933" lon="13.957065"><ele>2.0</ele><time>2026-04-11T10:48:24.86Z</time></trkpt><trkpt lat="41.0143283" lon="13.957115"><ele>2.0</ele><time>2026-04-11T10:48:25.859Z</time></trkpt><trkpt lat="41.0142617" lon="13.9571667"><ele>2.0</ele><time>2026-04-11T10:48:26.86Z</time></trkpt><trkpt lat="41.014195" lon="13.9572183"><ele>1.9999999999999998</ele><time>2026-04-11T10:48:27.859Z</time></trkpt><trkpt lat="41.0141267" lon="13.9572733"><ele>2.0</ele><time>2026-04-11T10:48:28.859Z</time></trkpt><trkpt lat="41.0140583" lon="13.9573333"><ele>1.9999999999999998</ele><time>2026-04-11T10:48:29.859Z</time></trkpt><trkpt lat="41.0139933" lon="13.9573933"><ele>2.0</ele><time>2026-04-11T10:48:30.859Z</time></trkpt><trkpt lat="41.0139267" lon="13.9574567"><ele>2.0</ele><time>2026-04-11T10:48:31.859Z</time></trkpt><trkpt lat="41.01386" lon="13.9575183"><ele>2.0</ele><time>2026-04-11T10:48:32.86Z</time></trkpt><trkpt lat="41.0137933" lon="13.95758"><ele>1.9999999999999998</ele><time>2026-04-11T10:48:33.859Z</time></trkpt><trkpt lat="41.0137217" lon="13.9576367"><ele>2.0</ele><time>2026-04-11T10:48:34.859Z</time></trkpt><trkpt lat="41.01365" lon="13.957695"><ele>1.9999999999999998</ele><time>2026-04-11T10:48:35.859Z</time></trkpt><trkpt lat="41.01358" lon="13.9577517"><ele>2.0</ele><time>2026-04-11T10:48:36.86Z</time></trkpt><trkpt lat="41.01351" lon="13.9578033"><ele>2.0</ele><time>2026-04-11T10:48:37.86Z</time></trkpt><trkpt lat="41.0134417" lon="13.95786"><ele>2.0</ele><time>2026-04-11T10:48:38.861Z</time></trkpt><trkpt lat="41.0133717" lon="13.9579183"><ele>1.9999999999999998</ele><time>2026-04-11T10:48:39.857Z</time></trkpt><trkpt lat="41.0133017" lon="13.9579767"><ele>2.0</ele><time>2026-04-11T10:48:40.859Z</time></trkpt><trkpt lat="41.0132317" lon="13.9580367"><ele>2.333333333333333</ele><time>2026-04-11T10:48:41.86Z</time></trkpt><trkpt lat="41.013165" lon="13.958095"><ele>2.6666666666666665</ele><time>2026-04-11T10:48:42.859Z</time></trkpt><trkpt lat="41.0130983" lon="13.9581533"><ele>3.0</ele><time>2026-04-11T10:48:43.859Z</time></trkpt><trkpt lat="41.0130317" lon="13.95821"><ele>3.333333333333333</ele><time>2026-04-11T10:48:44.859Z</time></trkpt><trkpt lat="41.0129667" lon="13.9582667"><ele>3.6666666666666665</ele><time>2026-04-11T10:48:45.858Z</time></trkpt><trkpt lat="41.0128967" lon="13.958325"><ele>4.0</ele><time>2026-04-11T10:48:46.859Z</time></trkpt><trkpt lat="41.012825" lon="13.9583833"><ele>3.9999999999999996</ele><time>2026-04-11T10:48:47.859Z</time></trkpt><trkpt lat="41.0127533" lon="13.9584383"><ele>4.0</ele><time>2026-04-11T10:48:48.859Z</time></trkpt><trkpt lat="41.012685" lon="13.9584867"><ele>4.0</ele><time>2026-04-11T10:48:49.859Z</time></trkpt><trkpt lat="41.0126183" lon="13.95854"><ele>4.0</ele><time>2026-04-11T10:48:50.86Z</time></trkpt><trkpt lat="41.0125483" lon="13.9585933"><ele>3.9999999999999996</ele><time>2026-04-11T10:48:51.859Z</time></trkpt><trkpt lat="41.0124833" lon="13.95865"><ele>4.0</ele><time>2026-04-11T10:48:52.858Z</time></trkpt><trkpt lat="41.0124133" lon="13.958705"><ele>3.9999999999999996</ele><time>2026-04-11T10:48:53.858Z</time></trkpt><trkpt lat="41.0123433" lon="13.9587517"><ele>4.0</ele><time>2026-04-11T10:48:54.859Z</time></trkpt><trkpt lat="41.0122767" lon="13.9588"><ele>4.0</ele><time>2026-04-11T10:48:55.859Z</time></trkpt><trkpt lat="41.0122117" lon="13.9588567"><ele>4.0</ele><time>2026-04-11T10:48:56.859Z</time></trkpt><trkpt lat="41.0121483" lon="13.95891"><ele>3.9999999999999996</ele><time>2026-04-11T10:48:57.859Z</time></trkpt><trkpt lat="41.0120867" lon="13.9589633"><ele>4.0</ele><time>2026-04-11T10:48:58.859Z</time></trkpt><trkpt lat="41.01202" lon="13.9590133"><ele>4.0</ele><time>2026-04-11T10:48:59.859Z</time></trkpt><trkpt lat="41.011955" lon="13.9590617"><ele>3.9999999999999996</ele><time>2026-04-11T10:49:00.86Z</time></trkpt><trkpt lat="41.0118933" lon="13.9591117"><ele>4.0</ele><time>2026-04-11T10:49:01.859Z</time></trkpt><trkpt lat="41.0118333" lon="13.9591683"><ele>4.0</ele><time>2026-04-11T10:49:02.859Z</time></trkpt><trkpt lat="41.011775" lon="13.9592283"><ele>3.9999999999999996</ele><time>2026-04-11T10:49:03.86Z</time></trkpt><trkpt lat="41.011715" lon="13.9592883"><ele>4.0</ele><time>2026-04-11T10:49:04.859Z</time></trkpt><trkpt lat="41.0116567" lon="13.9593417"><ele>4.0</ele><time>2026-04-11T10:49:05.861Z</time></trkpt><trkpt lat="41.0115983" lon="13.959395"><ele>3.833333333333333</ele><time>2026-04-11T10:49:06.86Z</time></trkpt><trkpt lat="41.0115383" lon="13.9594467"><ele>3.6666666666666665</ele><time>2026-04-11T10:49:07.861Z</time></trkpt><trkpt lat="41.011475" lon="13.9595"><ele>3.5</ele><time>2026-04-11T10:49:08.861Z</time></trkpt><trkpt lat="41.01141" lon="13.9595533"><ele>3.333333333333333</ele><time>2026-04-11T10:49:09.858Z</time></trkpt><trkpt lat="41.0113433" lon="13.9596083"><ele>3.1666666666666665</ele><time>2026-04-11T10:49:10.858Z</time></trkpt><trkpt lat="41.0112733" lon="13.95966"><ele>3.0</ele><time>2026-04-11T10:49:11.859Z</time></trkpt><trkpt lat="41.0112033" lon="13.959715"><ele>3.0</ele><time>2026-04-11T10:49:12.859Z</time></trkpt><trkpt lat="41.0111317" lon="13.9597683"><ele>3.0</ele><time>2026-04-11T10:49:13.86Z</time></trkpt><trkpt lat="41.0110617" lon="13.9598217"><ele>3.0</ele><time>2026-04-11T10:49:14.857Z</time></trkpt><trkpt lat="41.01099" lon="13.9598717"><ele>3.0</ele><time>2026-04-11T10:49:15.858Z</time></trkpt><trkpt lat="41.01092" lon="13.9599233"><ele>3.0</ele><time>2026-04-11T10:49:16.859Z</time></trkpt><trkpt lat="41.0108533" lon="13.9599783"><ele>3.0</ele><time>2026-04-11T10:49:17.86Z</time></trkpt><trkpt lat="41.0107883" lon="13.960035"><ele>3.0</ele><time>2026-04-11T10:49:18.86Z</time></trkpt><trkpt lat="41.01072" lon="13.96009"><ele>3.0</ele><time>2026-04-11T10:49:19.86Z</time></trkpt><trkpt lat="41.0106467" lon="13.96014"><ele>3.0</ele><time>2026-04-11T10:49:20.86Z</time></trkpt><trkpt lat="41.0105767" lon="13.9601933"><ele>3.0</ele><time>2026-04-11T10:49:21.86Z</time></trkpt><trkpt lat="41.010505" lon="13.9602467"><ele>3.0</ele><time>2026-04-11T10:49:22.857Z</time></trkpt><trkpt lat="41.0104383" lon="13.960305"><ele>3.0</ele><time>2026-04-11T10:49:23.861Z</time></trkpt><trkpt lat="41.01037" lon="13.9603667"><ele>3.0</ele><time>2026-04-11T10:49:24.859Z</time></trkpt><trkpt lat="41.0103033" lon="13.9604283"><ele>3.0</ele><time>2026-04-11T10:49:25.861Z</time></trkpt><trkpt lat="41.0102383" lon="13.9604917"><ele>3.0</ele><time>2026-04-11T10:49:26.86Z</time></trkpt><trkpt lat="41.0101717" lon="13.9605467"><ele>3.0</ele><time>2026-04-11T10:49:27.858Z</time></trkpt><trkpt lat="41.0101033" lon="13.9606"><ele>3.0</ele><time>2026-04-11T10:49:28.86Z</time></trkpt><trkpt lat="41.0100367" lon="13.9606533"><ele>3.0</ele><time>2026-04-11T10:49:29.858Z</time></trkpt><trkpt lat="41.00996" lon="13.9607083"><ele>2.9999999999999996</ele><time>2026-04-11T10:49:30.86Z</time></trkpt><trkpt lat="41.0098917" lon="13.9607633"><ele>3.0</ele><time>2026-04-11T10:49:31.861Z</time></trkpt><trkpt lat="41.009825" lon="13.9608233"><ele>3.0</ele><time>2026-04-11T10:49:32.861Z</time></trkpt><trkpt lat="41.0097617" lon="13.9608767"><ele>3.0</ele><time>2026-04-11T10:49:33.86Z</time></trkpt><trkpt lat="41.0097" lon="13.9609267"><ele>3.0</ele><time>2026-04-11T10:49:34.86Z</time></trkpt><trkpt lat="41.0096417" lon="13.960975"><ele>2.9999999999999996</ele><time>2026-04-11T10:49:35.86Z</time></trkpt><trkpt lat="41.0095833" lon="13.96102"><ele>3.0</ele><time>2026-04-11T10:49:36.86Z</time></trkpt><trkpt lat="41.009525" lon="13.9610683"><ele>2.9999999999999996</ele><time>2026-04-11T10:49:37.861Z</time></trkpt><trkpt lat="41.0094667" lon="13.9611133"><ele>3.0</ele><time>2026-04-11T10:49:38.859Z</time></trkpt><trkpt lat="41.0094067" lon="13.961155"><ele>3.0</ele><time>2026-04-11T10:49:39.858Z</time></trkpt><trkpt lat="41.00935" lon="13.9611983"><ele>3.0</ele><time>2026-04-11T10:49:40.86Z</time></trkpt><trkpt lat="41.0092917" lon="13.9612517"><ele>3.0</ele><time>2026-04-11T10:49:41.86Z</time></trkpt><trkpt lat="41.00923" lon="13.9613017"><ele>2.9999999999999996</ele><time>2026-04-11T10:49:42.859Z</time></trkpt><trkpt lat="41.009165" lon="13.9613483"><ele>3.0</ele><time>2026-04-11T10:49:43.86Z</time></trkpt><trkpt lat="41.0090983" lon="13.9613967"><ele>3.0</ele><time>2026-04-11T10:49:44.86Z</time></trkpt><trkpt lat="41.009035" lon="13.9614467"><ele>3.0</ele><time>2026-04-11T10:49:45.859Z</time></trkpt><trkpt lat="41.0089767" lon="13.96149"><ele>3.0</ele><time>2026-04-11T10:49:46.86Z</time></trkpt><trkpt lat="41.00892" lon="13.9615317"><ele>3.0</ele><time>2026-04-11T10:49:47.86Z</time></trkpt><trkpt lat="41.0088633" lon="13.9615717"><ele>3.0</ele><time>2026-04-11T10:49:48.86Z</time></trkpt><trkpt lat="41.0087667" lon="13.961665"><ele>3.0</ele><time>2026-04-11T10:49:50.86Z</time></trkpt><trkpt lat="41.008675" lon="13.9617667"><ele>3.0</ele><time>2026-04-11T10:49:52.859Z</time></trkpt><trkpt lat="41.0085633" lon="13.9618483"><ele>3.0</ele><time>2026-04-11T10:49:54.861Z</time></trkpt><trkpt lat="41.0085067" lon="13.961895"><ele>3.0</ele><time>2026-04-11T10:49:55.861Z</time></trkpt><trkpt lat="41.00845" lon="13.9619483"><ele>3.0</ele><time>2026-04-11T10:49:56.858Z</time></trkpt><trkpt lat="41.0083933" lon="13.9619967"><ele>3.0</ele><time>2026-04-11T10:49:57.858Z</time></trkpt><trkpt lat="41.0083367" lon="13.9620483"><ele>3.0</ele><time>2026-04-11T10:49:58.858Z</time></trkpt><trkpt lat="41.008275" lon="13.9620983"><ele>3.0</ele><time>2026-04-11T10:49:59.861Z</time></trkpt><trkpt lat="41.0082117" lon="13.9621483"><ele>3.0</ele><time>2026-04-11T10:50:00.86Z</time></trkpt><trkpt lat="41.00815" lon="13.9622017"><ele>3.0</ele><time>2026-04-11T10:50:01.86Z</time></trkpt><trkpt lat="41.00809" lon="13.9622583"><ele>3.0</ele><time>2026-04-11T10:50:02.86Z</time></trkpt><trkpt lat="41.0080267" lon="13.962315"><ele>3.0</ele><time>2026-04-11T10:50:03.859Z</time></trkpt><trkpt lat="41.00796" lon="13.9623683"><ele>3.0</ele><time>2026-04-11T10:50:04.86Z</time></trkpt><trkpt lat="41.0078917" lon="13.9624233"><ele>3.0</ele><time>2026-04-11T10:50:05.861Z</time></trkpt><trkpt lat="41.0078217" lon="13.9624667"><ele>3.0</ele><time>2026-04-11T10:50:06.859Z</time></trkpt><trkpt lat="41.0077533" lon="13.9625183"><ele>3.0</ele><time>2026-04-11T10:50:07.859Z</time></trkpt><trkpt lat="41.0076867" lon="13.9625733"><ele>3.0</ele><time>2026-04-11T10:50:08.86Z</time></trkpt><trkpt lat="41.00762" lon="13.9626333"><ele>3.0</ele><time>2026-04-11T10:50:09.857Z</time></trkpt><trkpt lat="41.00755" lon="13.9627"><ele>3.0</ele><time>2026-04-11T10:50:10.859Z</time></trkpt><trkpt lat="41.0074783" lon="13.96276"><ele>3.0</ele><time>2026-04-11T10:50:11.86Z</time></trkpt><trkpt lat="41.0074083" lon="13.9628267"><ele>3.0</ele><time>2026-04-11T10:50:12.859Z</time></trkpt><trkpt lat="41.0073367" lon="13.96289"><ele>3.0</ele><time>2026-04-11T10:50:13.861Z</time></trkpt><trkpt lat="41.0072633" lon="13.9629533"><ele>3.0</ele><time>2026-04-11T10:50:14.859Z</time></trkpt><trkpt lat="41.00719" lon="13.96301"><ele>3.0</ele><time>2026-04-11T10:50:15.859Z</time></trkpt><trkpt lat="41.0071167" lon="13.9630717"><ele>3.0</ele><time>2026-04-11T10:50:16.86Z</time></trkpt><trkpt lat="41.007045" lon="13.9631317"><ele>3.0</ele><time>2026-04-11T10:50:17.86Z</time></trkpt><trkpt lat="41.0069717" lon="13.96319"><ele>3.0</ele><time>2026-04-11T10:50:18.859Z</time></trkpt><trkpt lat="41.0069017" lon="13.9632467"><ele>3.0</ele><time>2026-04-11T10:50:19.858Z</time></trkpt><trkpt lat="41.006835" lon="13.9633017"><ele>3.0</ele><time>2026-04-11T10:50:20.86Z</time></trkpt><trkpt lat="41.0067683" lon="13.9633617"><ele>3.0</ele><time>2026-04-11T10:50:21.859Z</time></trkpt><trkpt lat="41.0067017" lon="13.9634183"><ele>3.0</ele><time>2026-04-11T10:50:22.86Z</time></trkpt><trkpt lat="41.0066317" lon="13.96347"><ele>3.1666666666666665</ele><time>2026-04-11T10:50:23.86Z</time></trkpt><trkpt lat="41.0065617" lon="13.9635267"><ele>3.333333333333333</ele><time>2026-04-11T10:50:24.86Z</time></trkpt><trkpt lat="41.0064917" lon="13.9635833"><ele>3.5</ele><time>2026-04-11T10:50:25.86Z</time></trkpt><trkpt lat="41.0064217" lon="13.9636433"><ele>3.6666666666666665</ele><time>2026-04-11T10:50:26.86Z</time></trkpt><trkpt lat="41.006355" lon="13.9637017"><ele>3.833333333333333</ele><time>2026-04-11T10:50:27.86Z</time></trkpt><trkpt lat="41.006285" lon="13.9637533"><ele>4.0</ele><time>2026-04-11T10:50:28.86Z</time></trkpt><trkpt lat="41.0062133" lon="13.96381"><ele>3.9999999999999996</ele><time>2026-04-11T10:50:29.861Z</time></trkpt><trkpt lat="41.0061417" lon="13.96387"><ele>4.0</ele><time>2026-04-11T10:50:30.86Z</time></trkpt><trkpt lat="41.0060717" lon="13.96393"><ele>4.0</ele><time>2026-04-11T10:50:31.859Z</time></trkpt><trkpt lat="41.006005" lon="13.9639867"><ele>4.0</ele><time>2026-04-11T10:50:32.86Z</time></trkpt><trkpt lat="41.005935" lon="13.9640433"><ele>3.9999999999999996</ele><time>2026-04-11T10:50:33.86Z</time></trkpt><trkpt lat="41.0058683" lon="13.9641017"><ele>4.0</ele><time>2026-04-11T10:50:34.86Z</time></trkpt><trkpt lat="41.0058017" lon="13.9641533"><ele>4.166666666666666</ele><time>2026-04-11T10:50:35.859Z</time></trkpt><trkpt lat="41.0057333" lon="13.9642083"><ele>4.333333333333333</ele><time>2026-04-11T10:50:36.861Z</time></trkpt><trkpt lat="41.0056633" lon="13.9642633"><ele>4.5</ele><time>2026-04-11T10:50:37.86Z</time></trkpt><trkpt lat="41.005595" lon="13.964315"><ele>4.666666666666667</ele><time>2026-04-11T10:50:38.86Z</time></trkpt><trkpt lat="41.0055267" lon="13.9643733"><ele>4.833333333333334</ele><time>2026-04-11T10:50:39.858Z</time></trkpt><trkpt lat="41.0054583" lon="13.9644333"><ele>5.0</ele><time>2026-04-11T10:50:40.86Z</time></trkpt><trkpt lat="41.0053917" lon="13.96449"><ele>5.0</ele><time>2026-04-11T10:50:41.861Z</time></trkpt><trkpt lat="41.0053217" lon="13.9645467"><ele>5.0</ele><time>2026-04-11T10:50:42.86Z</time></trkpt><trkpt lat="41.0052517" lon="13.964605"><ele>5.0</ele><time>2026-04-11T10:50:43.86Z</time></trkpt><trkpt lat="41.00518" lon="13.964665"><ele>5.0</ele><time>2026-04-11T10:50:44.86Z</time></trkpt><trkpt lat="41.0051083" lon="13.9647267"><ele>5.0</ele><time>2026-04-11T10:50:45.86Z</time></trkpt><trkpt lat="41.005035" lon="13.9647867"><ele>5.0</ele><time>2026-04-11T10:50:46.859Z</time></trkpt><trkpt lat="41.0049633" lon="13.9648433"><ele>5.0</ele><time>2026-04-11T10:50:47.86Z</time></trkpt><trkpt lat="41.0048917" lon="13.9648967"><ele>5.0</ele><time>2026-04-11T10:50:48.86Z</time></trkpt><trkpt lat="41.00482" lon="13.9649533"><ele>5.0</ele><time>2026-04-11T10:50:49.86Z</time></trkpt><trkpt lat="41.0047483" lon="13.9650117"><ele>5.0</ele><time>2026-04-11T10:50:50.859Z</time></trkpt><trkpt lat="41.00468" lon="13.96507"><ele>5.0</ele><time>2026-04-11T10:50:51.859Z</time></trkpt><trkpt lat="41.00461" lon="13.9651283"><ele>5.0</ele><time>2026-04-11T10:50:52.859Z</time></trkpt><trkpt lat="41.0045383" lon="13.965185"><ele>4.833333333333334</ele><time>2026-04-11T10:50:53.859Z</time></trkpt><trkpt lat="41.0044683" lon="13.965245"><ele>4.666666666666667</ele><time>2026-04-11T10:50:54.859Z</time></trkpt><trkpt lat="41.0043983" lon="13.9653067"><ele>4.5</ele><time>2026-04-11T10:50:55.859Z</time></trkpt><trkpt lat="41.0043267" lon="13.9653667"><ele>4.333333333333333</ele><time>2026-04-11T10:50:56.859Z</time></trkpt><trkpt lat="41.0042583" lon="13.9654267"><ele>4.166666666666666</ele><time>2026-04-11T10:50:57.859Z</time></trkpt><trkpt lat="41.0041883" lon="13.96549"><ele>4.0</ele><time>2026-04-11T10:50:58.859Z</time></trkpt><trkpt lat="41.0041167" lon="13.9655517"><ele>3.833333333333333</ele><time>2026-04-11T10:50:59.859Z</time></trkpt><trkpt lat="41.004045" lon="13.9656133"><ele>3.6666666666666665</ele><time>2026-04-11T10:51:00.858Z</time></trkpt><trkpt lat="41.0039733" lon="13.9656683"><ele>3.5</ele><time>2026-04-11T10:51:01.859Z</time></trkpt><trkpt lat="41.0039017" lon="13.965725"><ele>3.333333333333333</ele><time>2026-04-11T10:51:02.859Z</time></trkpt><trkpt lat="41.0038317" lon="13.9657883"><ele>3.1666666666666665</ele><time>2026-04-11T10:51:03.857Z</time></trkpt><trkpt lat="41.00376" lon="13.9658517"><ele>3.0</ele><time>2026-04-11T10:51:04.858Z</time></trkpt><trkpt lat="41.0036883" lon="13.96591"><ele>2.8333333333333335</ele><time>2026-04-11T10:51:05.858Z</time></trkpt><trkpt lat="41.003615" lon="13.9659683"><ele>2.6666666666666665</ele><time>2026-04-11T10:51:06.859Z</time></trkpt><trkpt lat="41.00354" lon="13.966025"><ele>2.5</ele><time>2026-04-11T10:51:07.86Z</time></trkpt><trkpt lat="41.0034717" lon="13.9660833"><ele>2.333333333333333</ele><time>2026-04-11T10:51:08.859Z</time></trkpt><trkpt lat="41.003405" lon="13.966135"><ele>2.1666666666666665</ele><time>2026-04-11T10:51:09.859Z</time></trkpt><trkpt lat="41.0033367" lon="13.96619"><ele>2.0</ele><time>2026-04-11T10:51:10.859Z</time></trkpt><trkpt lat="41.0032633" lon="13.966235"><ele>2.5</ele><time>2026-04-11T10:51:11.858Z</time></trkpt><trkpt lat="41.0031917" lon="13.9662833"><ele>3.0</ele><time>2026-04-11T10:51:12.859Z</time></trkpt><trkpt lat="41.0031183" lon="13.9663317"><ele>3.5</ele><time>2026-04-11T10:51:13.859Z</time></trkpt><trkpt lat="41.0030467" lon="13.966375"><ele>4.0</ele><time>2026-04-11T10:51:14.859Z</time></trkpt><trkpt lat="41.0029733" lon="13.9664217"><ele>4.5</ele><time>2026-04-11T10:51:15.859Z</time></trkpt><trkpt lat="41.0029117" lon="13.9664717"><ele>5.0</ele><time>2026-04-11T10:51:16.858Z</time></trkpt><trkpt lat="41.002855" lon="13.9665233"><ele>5.0</ele><time>2026-04-11T10:51:17.859Z</time></trkpt><trkpt lat="41.0028017" lon="13.966585"><ele>5.0</ele><time>2026-04-11T10:51:18.86Z</time></trkpt><trkpt lat="41.0027467" lon="13.9666433"><ele>5.0</ele><time>2026-04-11T10:51:19.858Z</time></trkpt><trkpt lat="41.002685" lon="13.9666917"><ele>5.0</ele><time>2026-04-11T10:51:20.86Z</time></trkpt><trkpt lat="41.0026217" lon="13.9667433"><ele>5.0</ele><time>2026-04-11T10:51:21.858Z</time></trkpt><trkpt lat="41.0025567" lon="13.9667967"><ele>5.0</ele><time>2026-04-11T10:51:22.859Z</time></trkpt><trkpt lat="41.00249" lon="13.9668533"><ele>5.0</ele><time>2026-04-11T10:51:23.86Z</time></trkpt><trkpt lat="41.0024217" lon="13.96691"><ele>4.833333333333334</ele><time>2026-04-11T10:51:24.859Z</time></trkpt><trkpt lat="41.002355" lon="13.96697"><ele>4.666666666666667</ele><time>2026-04-11T10:51:25.858Z</time></trkpt><trkpt lat="41.0022883" lon="13.9670283"><ele>4.5</ele><time>2026-04-11T10:51:26.86Z</time></trkpt><trkpt lat="41.00222" lon="13.9670917"><ele>4.333333333333333</ele><time>2026-04-11T10:51:27.858Z</time></trkpt><trkpt lat="41.00215" lon="13.9671467"><ele>4.166666666666666</ele><time>2026-04-11T10:51:28.858Z</time></trkpt><trkpt lat="41.0020817" lon="13.967205"><ele>4.0</ele><time>2026-04-11T10:51:29.859Z</time></trkpt><trkpt lat="41.00201" lon="13.9672567"><ele>3.9999999999999996</ele><time>2026-04-11T10:51:30.859Z</time></trkpt><trkpt lat="41.00194" lon="13.967315"><ele>4.0</ele><time>2026-04-11T10:51:31.86Z</time></trkpt><trkpt lat="41.00187" lon="13.9673717"><ele>4.0</ele><time>2026-04-11T10:51:32.859Z</time></trkpt><trkpt lat="41.0018" lon="13.967425"><ele>4.0</ele><time>2026-04-11T10:51:33.859Z</time></trkpt><trkpt lat="41.0017317" lon="13.9674833"><ele>3.9999999999999996</ele><time>2026-04-11T10:51:34.86Z</time></trkpt><trkpt lat="41.0016617" lon="13.9675417"><ele>4.0</ele><time>2026-04-11T10:51:35.858Z</time></trkpt><trkpt lat="41.00159" lon="13.9676017"><ele>3.833333333333333</ele><time>2026-04-11T10:51:36.859Z</time></trkpt><trkpt lat="41.0015217" lon="13.9676617"><ele>3.6666666666666665</ele><time>2026-04-11T10:51:37.858Z</time></trkpt><trkpt lat="41.0014533" lon="13.96772"><ele>3.5</ele><time>2026-04-11T10:51:38.859Z</time></trkpt><trkpt lat="41.0013883" lon="13.9677817"><ele>3.333333333333333</ele><time>2026-04-11T10:51:39.858Z</time></trkpt><trkpt lat="41.0013217" lon="13.9678417"><ele>3.1666666666666665</ele><time>2026-04-11T10:51:40.86Z</time></trkpt><trkpt lat="41.0012533" lon="13.9678917"><ele>3.0</ele><time>2026-04-11T10:51:41.858Z</time></trkpt><trkpt lat="41.0011867" lon="13.9679433"><ele>3.0</ele><time>2026-04-11T10:51:42.86Z</time></trkpt><trkpt lat="41.0011217" lon="13.9680033"><ele>3.0</ele><time>2026-04-11T10:51:43.86Z</time></trkpt><trkpt lat="41.001055" lon="13.96806"><ele>3.0</ele><time>2026-04-11T10:51:44.858Z</time></trkpt><trkpt lat="41.0009867" lon="13.9681133"><ele>3.0</ele><time>2026-04-11T10:51:45.859Z</time></trkpt><trkpt lat="41.0009183" lon="13.96817"><ele>3.0</ele><time>2026-04-11T10:51:46.859Z</time></trkpt><trkpt lat="41.0008467" lon="13.9682233"><ele>3.0</ele><time>2026-04-11T10:51:47.859Z</time></trkpt><trkpt lat="41.0007783" lon="13.9682783"><ele>2.8333333333333335</ele><time>2026-04-11T10:51:48.859Z</time></trkpt><trkpt lat="41.0007117" lon="13.968335"><ele>2.6666666666666665</ele><time>2026-04-11T10:51:49.858Z</time></trkpt><trkpt lat="41.0006433" lon="13.9683917"><ele>2.5</ele><time>2026-04-11T10:51:50.859Z</time></trkpt><trkpt lat="41.0005767" lon="13.9684483"><ele>2.333333333333333</ele><time>2026-04-11T10:51:51.859Z</time></trkpt><trkpt lat="41.0005083" lon="13.968505"><ele>2.1666666666666665</ele><time>2026-04-11T10:51:52.859Z</time></trkpt><trkpt lat="41.0004417" lon="13.9685617"><ele>2.0</ele><time>2026-04-11T10:51:53.859Z</time></trkpt><trkpt lat="41.0003733" lon="13.9686167"><ele>1.8333333333333333</ele><time>2026-04-11T10:51:54.86Z</time></trkpt><trkpt lat="41.000305" lon="13.9686717"><ele>1.6666666666666665</ele><time>2026-04-11T10:51:55.859Z</time></trkpt><trkpt lat="41.0002383" lon="13.9687217"><ele>1.5</ele><time>2026-04-11T10:51:56.858Z</time></trkpt><trkpt lat="41.00017" lon="13.968775"><ele>1.3333333333333333</ele><time>2026-04-11T10:51:57.859Z</time></trkpt><trkpt lat="41.0001033" lon="13.9688333"><ele>1.1666666666666665</ele><time>2026-04-11T10:51:58.859Z</time></trkpt><trkpt lat="41.0000367" lon="13.9688883"><ele>1.0</ele><time>2026-04-11T10:51:59.86Z</time></trkpt><trkpt lat="40.9999683" lon="13.968945"><ele>0.9999999999999999</ele><time>2026-04-11T10:52:00.859Z</time></trkpt><trkpt lat="40.9998983" lon="13.9690017"><ele>1.0</ele><time>2026-04-11T10:52:01.859Z</time></trkpt><trkpt lat="40.9998317" lon="13.969055"><ele>1.0</ele><time>2026-04-11T10:52:02.859Z</time></trkpt><trkpt lat="40.9997633" lon="13.96911"><ele>1.0</ele><time>2026-04-11T10:52:03.857Z</time></trkpt><trkpt lat="40.9996983" lon="13.9691683"><ele>0.9999999999999999</ele><time>2026-04-11T10:52:04.859Z</time></trkpt><trkpt lat="40.99963" lon="13.9692283"><ele>1.0</ele><time>2026-04-11T10:52:05.86Z</time></trkpt><trkpt lat="40.99956" lon="13.9692867"><ele>1.1666666666666665</ele><time>2026-04-11T10:52:06.859Z</time></trkpt><trkpt lat="40.99949" lon="13.969345"><ele>1.3333333333333333</ele><time>2026-04-11T10:52:07.859Z</time></trkpt><trkpt lat="40.99942" lon="13.9693983"><ele>1.5</ele><time>2026-04-11T10:52:08.857Z</time></trkpt><trkpt lat="40.99935" lon="13.96945"><ele>1.6666666666666665</ele><time>2026-04-11T10:52:09.858Z</time></trkpt><trkpt lat="40.99928" lon="13.9695083"><ele>1.8333333333333333</ele><time>2026-04-11T10:52:10.86Z</time></trkpt><trkpt lat="40.9992067" lon="13.969565"><ele>2.0</ele><time>2026-04-11T10:52:11.858Z</time></trkpt><trkpt lat="40.9991333" lon="13.9696267"><ele>1.9999999999999998</ele><time>2026-04-11T10:52:12.86Z</time></trkpt><trkpt lat="40.99906" lon="13.9696883"><ele>2.0</ele><time>2026-04-11T10:52:13.86Z</time></trkpt><trkpt lat="40.998985" lon="13.9697433"><ele>2.0</ele><time>2026-04-11T10:52:14.86Z</time></trkpt><trkpt lat="40.9989167" lon="13.9698"><ele>2.0</ele><time>2026-04-11T10:52:15.859Z</time></trkpt><trkpt lat="40.9988533" lon="13.9698667"><ele>1.9999999999999998</ele><time>2026-04-11T10:52:16.859Z</time></trkpt><trkpt lat="40.99879" lon="13.9699333"><ele>2.0</ele><time>2026-04-11T10:52:17.86Z</time></trkpt><trkpt lat="40.9987217" lon="13.9699933"><ele>1.9999999999999998</ele><time>2026-04-11T10:52:18.858Z</time></trkpt><trkpt lat="40.9986483" lon="13.9700417"><ele>2.0</ele><time>2026-04-11T10:52:19.86Z</time></trkpt><trkpt lat="40.9985717" lon="13.970085"><ele>2.0</ele><time>2026-04-11T10:52:20.858Z</time></trkpt><trkpt lat="40.9985017" lon="13.9701417"><ele>2.0</ele><time>2026-04-11T10:52:21.858Z</time></trkpt><trkpt lat="40.9984333" lon="13.9702017"><ele>1.9999999999999998</ele><time>2026-04-11T10:52:22.859Z</time></trkpt><trkpt lat="40.9983667" lon="13.9702633"><ele>2.0</ele><time>2026-04-11T10:52:23.86Z</time></trkpt><trkpt lat="40.9982967" lon="13.970325"><ele>1.9999999999999998</ele><time>2026-04-11T10:52:24.859Z</time></trkpt><trkpt lat="40.9982283" lon="13.970385"><ele>2.0</ele><time>2026-04-11T10:52:25.86Z</time></trkpt><trkpt lat="40.9981567" lon="13.9704417"><ele>2.0</ele><time>2026-04-11T10:52:26.859Z</time></trkpt><trkpt lat="40.9980833" lon="13.970495"><ele>2.0</ele><time>2026-04-11T10:52:27.859Z</time></trkpt><trkpt lat="40.9980133" lon="13.9705533"><ele>1.9999999999999998</ele><time>2026-04-11T10:52:28.859Z</time></trkpt><trkpt lat="40.9979467" lon="13.9706183"><ele>2.0</ele><time>2026-04-11T10:52:29.86Z</time></trkpt><trkpt lat="40.99788" lon="13.9706883"><ele>1.9999999999999998</ele><time>2026-04-11T10:52:30.858Z</time></trkpt><trkpt lat="40.9978117" lon="13.97076"><ele>2.0</ele><time>2026-04-11T10:52:31.859Z</time></trkpt><trkpt lat="40.9977433" lon="13.9708267"><ele>2.0</ele><time>2026-04-11T10:52:32.858Z</time></trkpt><trkpt lat="40.9976717" lon="13.970885"><ele>2.0</ele><time>2026-04-11T10:52:33.858Z</time></trkpt><trkpt lat="40.9975983" lon="13.9709283"><ele>1.9999999999999998</ele><time>2026-04-11T10:52:34.859Z</time></trkpt><trkpt lat="40.9975267" lon="13.9709783"><ele>2.0</ele><time>2026-04-11T10:52:35.86Z</time></trkpt><trkpt lat="40.9974583" lon="13.9710317"><ele>2.333333333333333</ele><time>2026-04-11T10:52:36.859Z</time></trkpt><trkpt lat="40.997395" lon="13.9710933"><ele>2.6666666666666665</ele><time>2026-04-11T10:52:37.859Z</time></trkpt><trkpt lat="40.9973367" lon="13.9711617"><ele>3.0</ele><time>2026-04-11T10:52:38.859Z</time></trkpt><trkpt lat="40.9972783" lon="13.9712367"><ele>3.333333333333333</ele><time>2026-04-11T10:52:39.859Z</time></trkpt><trkpt lat="40.99722" lon="13.9713067"><ele>3.6666666666666665</ele><time>2026-04-11T10:52:40.859Z</time></trkpt><trkpt lat="40.9971583" lon="13.9713767"><ele>4.0</ele><time>2026-04-11T10:52:41.86Z</time></trkpt><trkpt lat="40.99709" lon="13.97144"><ele>3.9999999999999996</ele><time>2026-04-11T10:52:42.859Z</time></trkpt><trkpt lat="40.9970183" lon="13.971495"><ele>4.0</ele><time>2026-04-11T10:52:43.859Z</time></trkpt><trkpt lat="40.9969467" lon="13.9715517"><ele>4.0</ele><time>2026-04-11T10:52:44.86Z</time></trkpt><trkpt lat="40.996875" lon="13.97161"><ele>4.0</ele><time>2026-04-11T10:52:45.858Z</time></trkpt><trkpt lat="40.996805" lon="13.9716633"><ele>3.9999999999999996</ele><time>2026-04-11T10:52:46.859Z</time></trkpt><trkpt lat="40.9967317" lon="13.971715"><ele>4.0</ele><time>2026-04-11T10:52:47.86Z</time></trkpt><trkpt lat="40.99666" lon="13.97177"><ele>4.5</ele><time>2026-04-11T10:52:48.858Z</time></trkpt><trkpt lat="40.9965917" lon="13.9718283"><ele>5.0</ele><time>2026-04-11T10:52:49.859Z</time></trkpt><trkpt lat="40.9965233" lon="13.9718883"><ele>5.5</ele><time>2026-04-11T10:52:50.859Z</time></trkpt><trkpt lat="40.9964517" lon="13.971945"><ele>6.0</ele><time>2026-04-11T10:52:51.859Z</time></trkpt><trkpt lat="40.9963817" lon="13.9719983"><ele>6.500000000000001</ele><time>2026-04-11T10:52:52.858Z</time></trkpt><trkpt lat="40.9963067" lon="13.9720467"><ele>7.0</ele><time>2026-04-11T10:52:53.859Z</time></trkpt><trkpt lat="40.99623" lon="13.972095"><ele>7.000000000000001</ele><time>2026-04-11T10:52:54.858Z</time></trkpt><trkpt lat="40.996155" lon="13.97214"><ele>7.0</ele><time>2026-04-11T10:52:55.859Z</time></trkpt><trkpt lat="40.9960783" lon="13.972185"><ele>7.0</ele><time>2026-04-11T10:52:56.859Z</time></trkpt><trkpt lat="40.9959983" lon="13.9722333"><ele>7.0</ele><time>2026-04-11T10:52:57.858Z</time></trkpt><trkpt lat="40.9959183" lon="13.97228"><ele>7.000000000000001</ele><time>2026-04-11T10:52:58.86Z</time></trkpt><trkpt lat="40.9958417" lon="13.9723367"><ele>7.0</ele><time>2026-04-11T10:52:59.859Z</time></trkpt><trkpt lat="40.99577" lon="13.9723983"><ele>6.666666666666667</ele><time>2026-04-11T10:53:00.857Z</time></trkpt><trkpt lat="40.9956983" lon="13.9724583"><ele>6.333333333333334</ele><time>2026-04-11T10:53:01.859Z</time></trkpt><trkpt lat="40.9956267" lon="13.9725183"><ele>6.0</ele><time>2026-04-11T10:53:02.859Z</time></trkpt><trkpt lat="40.9955567" lon="13.9725717"><ele>5.666666666666667</ele><time>2026-04-11T10:53:03.858Z</time></trkpt><trkpt lat="40.9954833" lon="13.9726267"><ele>5.333333333333334</ele><time>2026-04-11T10:53:04.859Z</time></trkpt><trkpt lat="40.9954133" lon="13.9726883"><ele>5.0</ele><time>2026-04-11T10:53:05.86Z</time></trkpt><trkpt lat="40.9953433" lon="13.97275"><ele>5.0</ele><time>2026-04-11T10:53:06.859Z</time></trkpt><trkpt lat="40.995275" lon="13.9728083"><ele>5.0</ele><time>2026-04-11T10:53:07.859Z</time></trkpt><trkpt lat="40.9952033" lon="13.972865"><ele>5.0</ele><time>2026-04-11T10:53:08.859Z</time></trkpt><trkpt lat="40.9951333" lon="13.9729233"><ele>5.0</ele><time>2026-04-11T10:53:09.859Z</time></trkpt><trkpt lat="40.99506" lon="13.9729817"><ele>5.0</ele><time>2026-04-11T10:53:10.858Z</time></trkpt><trkpt lat="40.9949867" lon="13.9730367"><ele>5.0</ele><time>2026-04-11T10:53:11.859Z</time></trkpt><trkpt lat="40.9949167" lon="13.9730917"><ele>5.0</ele><time>2026-04-11T10:53:12.859Z</time></trkpt><trkpt lat="40.9948467" lon="13.9731467"><ele>5.0</ele><time>2026-04-11T10:53:13.86Z</time></trkpt><trkpt lat="40.9947783" lon="13.973205"><ele>5.0</ele><time>2026-04-11T10:53:14.859Z</time></trkpt><trkpt lat="40.99471" lon="13.9732667"><ele>5.0</ele><time>2026-04-11T10:53:15.858Z</time></trkpt><trkpt lat="40.99464" lon="13.9733233"><ele>5.0</ele><time>2026-04-11T10:53:16.859Z</time></trkpt><trkpt lat="40.99457" lon="13.97338"><ele>5.0</ele><time>2026-04-11T10:53:17.86Z</time></trkpt><trkpt lat="40.9945017" lon="13.9734367"><ele>4.833333333333334</ele><time>2026-04-11T10:53:18.859Z</time></trkpt><trkpt lat="40.9944317" lon="13.973495"><ele>4.666666666666667</ele><time>2026-04-11T10:53:19.86Z</time></trkpt><trkpt lat="40.99436" lon="13.9735533"><ele>4.5</ele><time>2026-04-11T10:53:20.858Z</time></trkpt><trkpt lat="40.9942883" lon="13.97361"><ele>4.333333333333333</ele><time>2026-04-11T10:53:21.857Z</time></trkpt><trkpt lat="40.9942183" lon="13.9736683"><ele>4.166666666666666</ele><time>2026-04-11T10:53:22.859Z</time></trkpt><trkpt lat="40.9941483" lon="13.9737283"><ele>4.0</ele><time>2026-04-11T10:53:23.86Z</time></trkpt><trkpt lat="40.9940783" lon="13.9737867"><ele>3.833333333333333</ele><time>2026-04-11T10:53:24.859Z</time></trkpt><trkpt lat="40.9940083" lon="13.973845"><ele>3.6666666666666665</ele><time>2026-04-11T10:53:25.859Z</time></trkpt><trkpt lat="40.9939367" lon="13.9739033"><ele>3.5</ele><time>2026-04-11T10:53:26.859Z</time></trkpt><trkpt lat="40.993865" lon="13.9739633"><ele>3.333333333333333</ele><time>2026-04-11T10:53:27.858Z</time></trkpt><trkpt lat="40.9937933" lon="13.974025"><ele>3.1666666666666665</ele><time>2026-04-11T10:53:28.859Z</time></trkpt><trkpt lat="40.9937217" lon="13.97408"><ele>3.0</ele><time>2026-04-11T10:53:29.86Z</time></trkpt><trkpt lat="40.9936483" lon="13.9741383"><ele>3.0</ele><time>2026-04-11T10:53:30.859Z</time></trkpt><trkpt lat="40.993575" lon="13.9741917"><ele>3.0</ele><time>2026-04-11T10:53:31.859Z</time></trkpt><trkpt lat="40.9935033" lon="13.9742517"><ele>3.0</ele><time>2026-04-11T10:53:32.859Z</time></trkpt><trkpt lat="40.99343" lon="13.974305"><ele>3.0</ele><time>2026-04-11T10:53:33.859Z</time></trkpt><trkpt lat="40.99336" lon="13.9743633"><ele>3.0</ele><time>2026-04-11T10:53:34.859Z</time></trkpt><trkpt lat="40.9932883" lon="13.9744217"><ele>3.0</ele><time>2026-04-11T10:53:35.859Z</time></trkpt><trkpt lat="40.9932167" lon="13.9744817"><ele>3.1666666666666665</ele><time>2026-04-11T10:53:36.859Z</time></trkpt><trkpt lat="40.9931483" lon="13.97454"><ele>3.333333333333333</ele><time>2026-04-11T10:53:37.86Z</time></trkpt><trkpt lat="40.9930817" lon="13.9745983"><ele>3.5</ele><time>2026-04-11T10:53:38.86Z</time></trkpt><trkpt lat="40.9930133" lon="13.9746567"><ele>3.6666666666666665</ele><time>2026-04-11T10:53:39.857Z</time></trkpt><trkpt lat="40.9929417" lon="13.9747183"><ele>3.833333333333333</ele><time>2026-04-11T10:53:40.86Z</time></trkpt><trkpt lat="40.99287" lon="13.9747767"><ele>4.0</ele><time>2026-04-11T10:53:41.858Z</time></trkpt><trkpt lat="40.9927983" lon="13.974835"><ele>3.9999999999999996</ele><time>2026-04-11T10:53:42.859Z</time></trkpt><trkpt lat="40.9927283" lon="13.9748867"><ele>4.0</ele><time>2026-04-11T10:53:43.86Z</time></trkpt><trkpt lat="40.9926617" lon="13.9749383"><ele>4.0</ele><time>2026-04-11T10:53:44.86Z</time></trkpt><trkpt lat="40.9925967" lon="13.9749917"><ele>4.0</ele><time>2026-04-11T10:53:45.858Z</time></trkpt><trkpt lat="40.9925283" lon="13.9750467"><ele>3.9999999999999996</ele><time>2026-04-11T10:53:46.86Z</time></trkpt><trkpt lat="40.99246" lon="13.9750983"><ele>4.0</ele><time>2026-04-11T10:53:47.859Z</time></trkpt><trkpt lat="40.9923983" lon="13.97515"><ele>3.8571428571428568</ele><time>2026-04-11T10:53:48.859Z</time></trkpt><trkpt lat="40.9923333" lon="13.9752083"><ele>3.714285714285714</ele><time>2026-04-11T10:53:49.859Z</time></trkpt><trkpt lat="40.99227" lon="13.975265"><ele>3.571428571428571</ele><time>2026-04-11T10:53:50.859Z</time></trkpt><trkpt lat="40.9922083" lon="13.9753183"><ele>3.4285714285714284</ele><time>2026-04-11T10:53:51.857Z</time></trkpt><trkpt lat="40.9921467" lon="13.97537"><ele>3.2857142857142856</ele><time>2026-04-11T10:53:52.858Z</time></trkpt><trkpt lat="40.9920867" lon="13.9754183"><ele>3.1428571428571423</ele><time>2026-04-11T10:53:53.859Z</time></trkpt><trkpt lat="40.992025" lon="13.9754733"><ele>3.0</ele><time>2026-04-11T10:53:54.859Z</time></trkpt><trkpt lat="40.9919633" lon="13.975525"><ele>3.0</ele><time>2026-04-11T10:53:55.859Z</time></trkpt><trkpt lat="40.9918983" lon="13.975575"><ele>3.0</ele><time>2026-04-11T10:53:56.86Z</time></trkpt><trkpt lat="40.991835" lon="13.975625"><ele>3.0</ele><time>2026-04-11T10:53:57.858Z</time></trkpt><trkpt lat="40.9917717" lon="13.9756783"><ele>3.0</ele><time>2026-04-11T10:53:58.857Z</time></trkpt><trkpt lat="40.991705" lon="13.97573"><ele>3.0</ele><time>2026-04-11T10:53:59.859Z</time></trkpt><trkpt lat="40.9916383" lon="13.9757867"><ele>3.0</ele><time>2026-04-11T10:54:00.859Z</time></trkpt><trkpt lat="40.99157" lon="13.9758433"><ele>3.1666666666666665</ele><time>2026-04-11T10:54:01.859Z</time></trkpt><trkpt lat="40.991505" lon="13.9758967"><ele>3.333333333333333</ele><time>2026-04-11T10:54:02.86Z</time></trkpt><trkpt lat="40.9914417" lon="13.9759517"><ele>3.5</ele><time>2026-04-11T10:54:03.858Z</time></trkpt><trkpt lat="40.991375" lon="13.976005"><ele>3.6666666666666665</ele><time>2026-04-11T10:54:04.859Z</time></trkpt><trkpt lat="40.9913117" lon="13.97606"><ele>3.833333333333333</ele><time>2026-04-11T10:54:05.859Z</time></trkpt><trkpt lat="40.9912467" lon="13.9761167"><ele>4.0</ele><time>2026-04-11T10:54:06.858Z</time></trkpt><trkpt lat="40.9911817" lon="13.97617"><ele>3.9999999999999996</ele><time>2026-04-11T10:54:07.859Z</time></trkpt><trkpt lat="40.9911133" lon="13.976225"><ele>4.0</ele><time>2026-04-11T10:54:08.859Z</time></trkpt><trkpt lat="40.9910483" lon="13.97628"><ele>4.0</ele><time>2026-04-11T10:54:09.858Z</time></trkpt><trkpt lat="40.9909783" lon="13.9763383"><ele>4.0</ele><time>2026-04-11T10:54:10.859Z</time></trkpt><trkpt lat="40.9909067" lon="13.9763933"><ele>3.9999999999999996</ele><time>2026-04-11T10:54:11.859Z</time></trkpt><trkpt lat="40.9908367" lon="13.9764517"><ele>4.0</ele><time>2026-04-11T10:54:12.859Z</time></trkpt><trkpt lat="40.99077" lon="13.976505"><ele>3.833333333333333</ele><time>2026-04-11T10:54:13.86Z</time></trkpt><trkpt lat="40.9907033" lon="13.9765567"><ele>3.6666666666666665</ele><time>2026-04-11T10:54:14.858Z</time></trkpt><trkpt lat="40.9906333" lon="13.976605"><ele>3.5</ele><time>2026-04-11T10:54:15.858Z</time></trkpt><trkpt lat="40.990565" lon="13.9766567"><ele>3.333333333333333</ele><time>2026-04-11T10:54:16.859Z</time></trkpt><trkpt lat="40.9904967" lon="13.9767117"><ele>3.1666666666666665</ele><time>2026-04-11T10:54:17.86Z</time></trkpt><trkpt lat="40.99043" lon="13.9767617"><ele>3.0</ele><time>2026-04-11T10:54:18.859Z</time></trkpt><trkpt lat="40.990365" lon="13.9768117"><ele>3.0</ele><time>2026-04-11T10:54:19.86Z</time></trkpt><trkpt lat="40.9903" lon="13.9768683"><ele>3.0</ele><time>2026-04-11T10:54:20.859Z</time></trkpt><trkpt lat="40.9902367" lon="13.9769233"><ele>3.0</ele><time>2026-04-11T10:54:21.859Z</time></trkpt><trkpt lat="40.9901733" lon="13.97698"><ele>3.0</ele><time>2026-04-11T10:54:22.858Z</time></trkpt><trkpt lat="40.9901117" lon="13.977035"><ele>3.0</ele><time>2026-04-11T10:54:23.86Z</time></trkpt><trkpt lat="40.9900483" lon="13.977085"><ele>3.0</ele><time>2026-04-11T10:54:24.859Z</time></trkpt><trkpt lat="40.9899833" lon="13.9771367"><ele>2.8333333333333335</ele><time>2026-04-11T10:54:25.859Z</time></trkpt><trkpt lat="40.98992" lon="13.9771883"><ele>2.6666666666666665</ele><time>2026-04-11T10:54:26.858Z</time></trkpt><trkpt lat="40.9898567" lon="13.9772433"><ele>2.5</ele><time>2026-04-11T10:54:27.859Z</time></trkpt><trkpt lat="40.9897933" lon="13.9772967"><ele>2.333333333333333</ele><time>2026-04-11T10:54:28.859Z</time></trkpt><trkpt lat="40.9897267" lon="13.97735"><ele>2.1666666666666665</ele><time>2026-04-11T10:54:29.86Z</time></trkpt><trkpt lat="40.9896617" lon="13.9774033"><ele>2.0</ele><time>2026-04-11T10:54:30.859Z</time></trkpt><trkpt lat="40.9895983" lon="13.97746"><ele>1.9999999999999998</ele><time>2026-04-11T10:54:31.859Z</time></trkpt><trkpt lat="40.989535" lon="13.9775117"><ele>2.0</ele><time>2026-04-11T10:54:32.859Z</time></trkpt><trkpt lat="40.9894733" lon="13.9775667"><ele>2.0</ele><time>2026-04-11T10:54:33.858Z</time></trkpt><trkpt lat="40.9894083" lon="13.97762"><ele>2.0</ele><time>2026-04-11T10:54:34.859Z</time></trkpt><trkpt lat="40.9893433" lon="13.977675"><ele>1.9999999999999998</ele><time>2026-04-11T10:54:35.859Z</time></trkpt><trkpt lat="40.989275" lon="13.9777267"><ele>2.0</ele><time>2026-04-11T10:54:36.858Z</time></trkpt><trkpt lat="40.9892083" lon="13.9777817"><ele>2.333333333333333</ele><time>2026-04-11T10:54:37.859Z</time></trkpt><trkpt lat="40.9891367" lon="13.977835"><ele>2.6666666666666665</ele><time>2026-04-11T10:54:38.859Z</time></trkpt><trkpt lat="40.9890667" lon="13.97788"><ele>3.0</ele><time>2026-04-11T10:54:39.858Z</time></trkpt><trkpt lat="40.989" lon="13.97793"><ele>3.333333333333333</ele><time>2026-04-11T10:54:40.858Z</time></trkpt><trkpt lat="40.9889367" lon="13.9779833"><ele>3.6666666666666665</ele><time>2026-04-11T10:54:41.86Z</time></trkpt><trkpt lat="40.9888733" lon="13.9780367"><ele>4.0</ele><time>2026-04-11T10:54:42.858Z</time></trkpt><trkpt lat="40.9888083" lon="13.9780883"><ele>3.9999999999999996</ele><time>2026-04-11T10:54:43.859Z</time></trkpt><trkpt lat="40.9887433" lon="13.97814"><ele>4.0</ele><time>2026-04-11T10:54:44.859Z</time></trkpt><trkpt lat="40.98868" lon="13.9781933"><ele>4.0</ele><time>2026-04-11T10:54:45.859Z</time></trkpt><trkpt lat="40.988615" lon="13.9782483"><ele>4.0</ele><time>2026-04-11T10:54:46.86Z</time></trkpt><trkpt lat="40.98855" lon="13.9783"><ele>3.9999999999999996</ele><time>2026-04-11T10:54:47.859Z</time></trkpt><trkpt lat="40.9884833" lon="13.9783483"><ele>4.0</ele><time>2026-04-11T10:54:48.859Z</time></trkpt><trkpt lat="40.9884167" lon="13.978395"><ele>3.833333333333333</ele><time>2026-04-11T10:54:49.859Z</time></trkpt><trkpt lat="40.9883517" lon="13.97845"><ele>3.6666666666666665</ele><time>2026-04-11T10:54:50.859Z</time></trkpt><trkpt lat="40.98829" lon="13.9785067"><ele>3.5</ele><time>2026-04-11T10:54:51.857Z</time></trkpt><trkpt lat="40.9882317" lon="13.9785633"><ele>3.333333333333333</ele><time>2026-04-11T10:54:52.86Z</time></trkpt><trkpt lat="40.9881667" lon="13.9786233"><ele>3.1666666666666665</ele><time>2026-04-11T10:54:53.86Z</time></trkpt><trkpt lat="40.9881017" lon="13.9786817"><ele>3.0</ele><time>2026-04-11T10:54:54.858Z</time></trkpt><trkpt lat="40.9880417" lon="13.978735"><ele>3.3333333333333335</ele><time>2026-04-11T10:54:55.859Z</time></trkpt><trkpt lat="40.9879817" lon="13.97879"><ele>3.666666666666667</ele><time>2026-04-11T10:54:56.859Z</time></trkpt><trkpt lat="40.98792" lon="13.9788433"><ele>4.0</ele><time>2026-04-11T10:54:57.858Z</time></trkpt><trkpt lat="40.9878567" lon="13.9788983"><ele>4.333333333333334</ele><time>2026-04-11T10:54:58.859Z</time></trkpt><trkpt lat="40.9877917" lon="13.9789583"><ele>4.666666666666667</ele><time>2026-04-11T10:54:59.859Z</time></trkpt><trkpt lat="40.9877283" lon="13.9790117"><ele>5.0</ele><time>2026-04-11T10:55:00.86Z</time></trkpt><trkpt lat="40.9876617" lon="13.979065"><ele>5.0</ele><time>2026-04-11T10:55:01.859Z</time></trkpt><trkpt lat="40.9875967" lon="13.9791183"><ele>5.0</ele><time>2026-04-11T10:55:02.86Z</time></trkpt><trkpt lat="40.9875317" lon="13.97917"><ele>5.0</ele><time>2026-04-11T10:55:03.858Z</time></trkpt><trkpt lat="40.9874667" lon="13.9792233"><ele>5.0</ele><time>2026-04-11T10:55:04.858Z</time></trkpt><trkpt lat="40.9874033" lon="13.9792783"><ele>5.0</ele><time>2026-04-11T10:55:05.86Z</time></trkpt><trkpt lat="40.9873417" lon="13.9793317"><ele>5.0</ele><time>2026-04-11T10:55:06.859Z</time></trkpt><trkpt lat="40.98728" lon="13.979385"><ele>4.5</ele><time>2026-04-11T10:55:07.86Z</time></trkpt><trkpt lat="40.9872167" lon="13.9794383"><ele>4.0</ele><time>2026-04-11T10:55:08.858Z</time></trkpt><trkpt lat="40.98715" lon="13.9794883"><ele>3.5</ele><time>2026-04-11T10:55:09.859Z</time></trkpt><trkpt lat="40.9870833" lon="13.9795383"><ele>3.0</ele><time>2026-04-11T10:55:10.859Z</time></trkpt><trkpt lat="40.9870133" lon="13.97959"><ele>2.5</ele><time>2026-04-11T10:55:11.859Z</time></trkpt><trkpt lat="40.9869383" lon="13.97963"><ele>2.0</ele><time>2026-04-11T10:55:12.859Z</time></trkpt><trkpt lat="40.98686" lon="13.9796617"><ele>1.9999999999999998</ele><time>2026-04-11T10:55:13.86Z</time></trkpt><trkpt lat="40.9867783" lon="13.9797"><ele>2.0</ele><time>2026-04-11T10:55:14.86Z</time></trkpt><trkpt lat="40.9866983" lon="13.979735"><ele>2.0</ele><time>2026-04-11T10:55:15.859Z</time></trkpt><trkpt lat="40.98662" lon="13.9797717"><ele>2.0</ele><time>2026-04-11T10:55:16.86Z</time></trkpt><trkpt lat="40.9865433" lon="13.9798167"><ele>1.9999999999999998</ele><time>2026-04-11T10:55:17.86Z</time></trkpt><trkpt lat="40.986465" lon="13.9798633"><ele>2.0</ele><time>2026-04-11T10:55:18.859Z</time></trkpt><trkpt lat="40.986385" lon="13.9799117"><ele>2.1666666666666665</ele><time>2026-04-11T10:55:19.86Z</time></trkpt><trkpt lat="40.9863083" lon="13.9799633"><ele>2.333333333333333</ele><time>2026-04-11T10:55:20.859Z</time></trkpt><trkpt lat="40.9862417" lon="13.9800233"><ele>2.5</ele><time>2026-04-11T10:55:21.859Z</time></trkpt><trkpt lat="40.9861783" lon="13.9800833"><ele>2.6666666666666665</ele><time>2026-04-11T10:55:22.86Z</time></trkpt><trkpt lat="40.9861183" lon="13.9801517"><ele>2.8333333333333335</ele><time>2026-04-11T10:55:23.857Z</time></trkpt><trkpt lat="40.98606" lon="13.9802217"><ele>3.0</ele><time>2026-04-11T10:55:24.859Z</time></trkpt><trkpt lat="40.986005" lon="13.980295"><ele>3.0</ele><time>2026-04-11T10:55:25.86Z</time></trkpt><trkpt lat="40.9859533" lon="13.9803633"><ele>3.0</ele><time>2026-04-11T10:55:26.859Z</time></trkpt><trkpt lat="40.9858983" lon="13.9804367"><ele>3.0</ele><time>2026-04-11T10:55:27.859Z</time></trkpt><trkpt lat="40.985845" lon="13.9805083"><ele>3.0</ele><time>2026-04-11T10:55:28.86Z</time></trkpt><trkpt lat="40.9857867" lon="13.9805767"><ele>3.0</ele><time>2026-04-11T10:55:29.859Z</time></trkpt><trkpt lat="40.9857267" lon="13.98065"><ele>3.0</ele><time>2026-04-11T10:55:30.859Z</time></trkpt><trkpt lat="40.985665" lon="13.98072"><ele>3.3333333333333335</ele><time>2026-04-11T10:55:31.859Z</time></trkpt><trkpt lat="40.9856017" lon="13.980785"><ele>3.666666666666667</ele><time>2026-04-11T10:55:32.859Z</time></trkpt><trkpt lat="40.9855367" lon="13.9808417"><ele>4.0</ele><time>2026-04-11T10:55:33.859Z</time></trkpt><trkpt lat="40.9854733" lon="13.98089"><ele>4.333333333333334</ele><time>2026-04-11T10:55:34.858Z</time></trkpt><trkpt lat="40.9854083" lon="13.9809433"><ele>4.666666666666667</ele><time>2026-04-11T10:55:35.859Z</time></trkpt><trkpt lat="40.985345" lon="13.9809983"><ele>5.0</ele><time>2026-04-11T10:55:36.859Z</time></trkpt><trkpt lat="40.9852833" lon="13.981055"><ele>5.0</ele><time>2026-04-11T10:55:37.859Z</time></trkpt><trkpt lat="40.9852217" lon="13.9811067"><ele>5.0</ele><time>2026-04-11T10:55:38.859Z</time></trkpt><trkpt lat="40.9851567" lon="13.98116"><ele>5.0</ele><time>2026-04-11T10:55:39.859Z</time></trkpt><trkpt lat="40.98509" lon="13.9812133"><ele>5.0</ele><time>2026-04-11T10:55:40.859Z</time></trkpt><trkpt lat="40.98502" lon="13.98127"><ele>5.0</ele><time>2026-04-11T10:55:41.859Z</time></trkpt><trkpt lat="40.9849517" lon="13.9813333"><ele>5.0</ele><time>2026-04-11T10:55:42.858Z</time></trkpt><trkpt lat="40.9848833" lon="13.9813917"><ele>5.0</ele><time>2026-04-11T10:55:43.859Z</time></trkpt><trkpt lat="40.9848117" lon="13.9814433"><ele>5.0</ele><time>2026-04-11T10:55:44.859Z</time></trkpt><trkpt lat="40.984745" lon="13.9815"><ele>5.0</ele><time>2026-04-11T10:55:45.858Z</time></trkpt><trkpt lat="40.9846783" lon="13.9815567"><ele>5.0</ele><time>2026-04-11T10:55:46.859Z</time></trkpt><trkpt lat="40.9846117" lon="13.9816133"><ele>5.0</ele><time>2026-04-11T10:55:47.858Z</time></trkpt><trkpt lat="40.9845433" lon="13.98167"><ele>5.0</ele><time>2026-04-11T10:55:48.859Z</time></trkpt><trkpt lat="40.9844717" lon="13.9817267"><ele>4.833333333333334</ele><time>2026-04-11T10:55:49.859Z</time></trkpt><trkpt lat="40.9844017" lon="13.981785"><ele>4.666666666666667</ele><time>2026-04-11T10:55:50.859Z</time></trkpt><trkpt lat="40.98433" lon="13.9818433"><ele>4.5</ele><time>2026-04-11T10:55:51.859Z</time></trkpt><trkpt lat="40.98426" lon="13.981905"><ele>4.333333333333333</ele><time>2026-04-11T10:55:52.859Z</time></trkpt><trkpt lat="40.9841917" lon="13.981965"><ele>4.166666666666666</ele><time>2026-04-11T10:55:53.857Z</time></trkpt><trkpt lat="40.9841217" lon="13.9820233"><ele>4.0</ele><time>2026-04-11T10:55:54.859Z</time></trkpt><trkpt lat="40.9840517" lon="13.9820833"><ele>4.333333333333333</ele><time>2026-04-11T10:55:55.859Z</time></trkpt><trkpt lat="40.98398" lon="13.98214"><ele>4.666666666666666</ele><time>2026-04-11T10:55:56.859Z</time></trkpt><trkpt lat="40.983905" lon="13.9821967"><ele>5.0</ele><time>2026-04-11T10:55:57.857Z</time></trkpt><trkpt lat="40.983835" lon="13.9822533"><ele>5.333333333333333</ele><time>2026-04-11T10:55:58.859Z</time></trkpt><trkpt lat="40.9837683" lon="13.9823133"><ele>5.666666666666667</ele><time>2026-04-11T10:55:59.859Z</time></trkpt><trkpt lat="40.9837033" lon="13.9823717"><ele>6.0</ele><time>2026-04-11T10:56:00.859Z</time></trkpt><trkpt lat="40.983635" lon="13.982425"><ele>6.0</ele><time>2026-04-11T10:56:01.86Z</time></trkpt><trkpt lat="40.9835667" lon="13.9824783"><ele>6.0</ele><time>2026-04-11T10:56:02.86Z</time></trkpt><trkpt lat="40.9834967" lon="13.982535"><ele>6.0</ele><time>2026-04-11T10:56:03.859Z</time></trkpt><trkpt lat="40.9834283" lon="13.9825883"><ele>6.0</ele><time>2026-04-11T10:56:04.858Z</time></trkpt><trkpt lat="40.9833617" lon="13.982645"><ele>6.0</ele><time>2026-04-11T10:56:05.858Z</time></trkpt><trkpt lat="40.9832933" lon="13.9827"><ele>6.0</ele><time>2026-04-11T10:56:06.859Z</time></trkpt><trkpt lat="40.983225" lon="13.9827567"><ele>5.5</ele><time>2026-04-11T10:56:07.86Z</time></trkpt><trkpt lat="40.9831583" lon="13.9828133"><ele>5.0</ele><time>2026-04-11T10:56:08.859Z</time></trkpt><trkpt lat="40.9830917" lon="13.9828633"><ele>4.5</ele><time>2026-04-11T10:56:09.858Z</time></trkpt><trkpt lat="40.9830233" lon="13.9829183"><ele>4.0</ele><time>2026-04-11T10:56:10.859Z</time></trkpt><trkpt lat="40.9829533" lon="13.9829717"><ele>3.5</ele><time>2026-04-11T10:56:11.858Z</time></trkpt><trkpt lat="40.982885" lon="13.9830267"><ele>3.0</ele><time>2026-04-11T10:56:12.86Z</time></trkpt><trkpt lat="40.9828167" lon="13.983085"><ele>3.0</ele><time>2026-04-11T10:56:13.859Z</time></trkpt><trkpt lat="40.98275" lon="13.98314"><ele>3.0</ele><time>2026-04-11T10:56:14.859Z</time></trkpt><trkpt lat="40.9826833" lon="13.9831967"><ele>3.0</ele><time>2026-04-11T10:56:15.859Z</time></trkpt><trkpt lat="40.9826183" lon="13.9832517"><ele>3.0</ele><time>2026-04-11T10:56:16.859Z</time></trkpt><trkpt lat="40.9825567" lon="13.98331"><ele>3.0</ele><time>2026-04-11T10:56:17.859Z</time></trkpt><trkpt lat="40.9824917" lon="13.983365"><ele>3.0</ele><time>2026-04-11T10:56:18.859Z</time></trkpt><trkpt lat="40.9824267" lon="13.98342"><ele>3.0</ele><time>2026-04-11T10:56:19.859Z</time></trkpt><trkpt lat="40.9823617" lon="13.9834733"><ele>3.0</ele><time>2026-04-11T10:56:20.86Z</time></trkpt><trkpt lat="40.9822983" lon="13.9835283"><ele>3.0</ele><time>2026-04-11T10:56:21.859Z</time></trkpt><trkpt lat="40.9822317" lon="13.9835817"><ele>3.0</ele><time>2026-04-11T10:56:22.86Z</time></trkpt><trkpt lat="40.982165" lon="13.9836333"><ele>3.0</ele><time>2026-04-11T10:56:23.861Z</time></trkpt><trkpt lat="40.9820967" lon="13.983685"><ele>3.0</ele><time>2026-04-11T10:56:24.858Z</time></trkpt><trkpt lat="40.9820333" lon="13.9837433"><ele>3.0</ele><time>2026-04-11T10:56:25.859Z</time></trkpt><trkpt lat="40.98197" lon="13.9838017"><ele>3.0</ele><time>2026-04-11T10:56:26.859Z</time></trkpt><trkpt lat="40.9819067" lon="13.9838617"><ele>3.0</ele><time>2026-04-11T10:56:27.873Z</time></trkpt><trkpt lat="40.9818417" lon="13.98392"><ele>3.0</ele><time>2026-04-11T10:56:28.858Z</time></trkpt><trkpt lat="40.981775" lon="13.98398"><ele>3.0</ele><time>2026-04-11T10:56:29.86Z</time></trkpt><trkpt lat="40.9817083" lon="13.984035"><ele>3.0</ele><time>2026-04-11T10:56:30.86Z</time></trkpt><trkpt lat="40.9816433" lon="13.9840817"><ele>3.0</ele><time>2026-04-11T10:56:31.859Z</time></trkpt><trkpt lat="40.9815767" lon="13.9841317"><ele>3.0</ele><time>2026-04-11T10:56:32.86Z</time></trkpt><trkpt lat="40.9815133" lon="13.984185"><ele>3.0</ele><time>2026-04-11T10:56:33.859Z</time></trkpt><trkpt lat="40.9814483" lon="13.9842383"><ele>3.0</ele><time>2026-04-11T10:56:34.858Z</time></trkpt><trkpt lat="40.9813833" lon="13.9842917"><ele>3.0</ele><time>2026-04-11T10:56:35.861Z</time></trkpt><trkpt lat="40.9813183" lon="13.9843467"><ele>3.0</ele><time>2026-04-11T10:56:36.861Z</time></trkpt><trkpt lat="40.9812567" lon="13.9844017"><ele>2.9999999999999996</ele><time>2026-04-11T10:56:37.86Z</time></trkpt><trkpt lat="40.9811933" lon="13.9844567"><ele>3.0</ele><time>2026-04-11T10:56:38.86Z</time></trkpt><trkpt lat="40.9811283" lon="13.98451"><ele>3.0</ele><time>2026-04-11T10:56:39.86Z</time></trkpt><trkpt lat="40.9810617" lon="13.9845517"><ele>3.0</ele><time>2026-04-11T10:56:40.861Z</time></trkpt><trkpt lat="40.9809967" lon="13.9846"><ele>3.0</ele><time>2026-04-11T10:56:41.859Z</time></trkpt><trkpt lat="40.9809317" lon="13.98465"><ele>2.9999999999999996</ele><time>2026-04-11T10:56:42.86Z</time></trkpt><trkpt lat="40.9808683" lon="13.9846983"><ele>3.0</ele><time>2026-04-11T10:56:43.861Z</time></trkpt><trkpt lat="40.9808033" lon="13.984745"><ele>3.1666666666666665</ele><time>2026-04-11T10:56:44.86Z</time></trkpt><trkpt lat="40.98074" lon="13.9847933"><ele>3.333333333333333</ele><time>2026-04-11T10:56:45.862Z</time></trkpt><trkpt lat="40.9806767" lon="13.9848483"><ele>3.5</ele><time>2026-04-11T10:56:46.862Z</time></trkpt><trkpt lat="40.980615" lon="13.9849083"><ele>3.6666666666666665</ele><time>2026-04-11T10:56:47.862Z</time></trkpt><trkpt lat="40.9805533" lon="13.9849667"><ele>3.833333333333333</ele><time>2026-04-11T10:56:48.862Z</time></trkpt><trkpt lat="40.9804867" lon="13.9850233"><ele>4.0</ele><time>2026-04-11T10:56:49.861Z</time></trkpt><trkpt lat="40.98042" lon="13.9850783"><ele>3.9999999999999996</ele><time>2026-04-11T10:56:50.861Z</time></trkpt><trkpt lat="40.9803483" lon="13.985135"><ele>4.0</ele><time>2026-04-11T10:56:51.86Z</time></trkpt><trkpt lat="40.98028" lon="13.985195"><ele>4.0</ele><time>2026-04-11T10:56:52.861Z</time></trkpt><trkpt lat="40.9802117" lon="13.9852533"><ele>4.0</ele><time>2026-04-11T10:56:53.861Z</time></trkpt><trkpt lat="40.98014" lon="13.9853117"><ele>3.9999999999999996</ele><time>2026-04-11T10:56:54.861Z</time></trkpt><trkpt lat="40.9800683" lon="13.9853717"><ele>4.0</ele><time>2026-04-11T10:56:55.859Z</time></trkpt><trkpt lat="40.9799967" lon="13.9854267"><ele>4.333333333333333</ele><time>2026-04-11T10:56:56.862Z</time></trkpt><trkpt lat="40.9799283" lon="13.9854783"><ele>4.666666666666666</ele><time>2026-04-11T10:56:57.86Z</time></trkpt><trkpt lat="40.97986" lon="13.9855367"><ele>5.0</ele><time>2026-04-11T10:56:58.86Z</time></trkpt><trkpt lat="40.9797917" lon="13.9855967"><ele>5.333333333333333</ele><time>2026-04-11T10:56:59.861Z</time></trkpt><trkpt lat="40.9797183" lon="13.9856517"><ele>5.666666666666667</ele><time>2026-04-11T10:57:00.859Z</time></trkpt><trkpt lat="40.979645" lon="13.9857033"><ele>6.0</ele><time>2026-04-11T10:57:01.861Z</time></trkpt><trkpt lat="40.979575" lon="13.9857567"><ele>6.0</ele><time>2026-04-11T10:57:02.86Z</time></trkpt><trkpt lat="40.979505" lon="13.9858167"><ele>6.0</ele><time>2026-04-11T10:57:03.861Z</time></trkpt><trkpt lat="40.9794367" lon="13.9858783"><ele>6.0</ele><time>2026-04-11T10:57:04.861Z</time></trkpt><trkpt lat="40.97937" lon="13.9859383"><ele>6.0</ele><time>2026-04-11T10:57:05.861Z</time></trkpt><trkpt lat="40.9793033" lon="13.986"><ele>6.0</ele><time>2026-04-11T10:57:06.86Z</time></trkpt><trkpt lat="40.979235" lon="13.98606"><ele>6.0</ele><time>2026-04-11T10:57:07.862Z</time></trkpt><trkpt lat="40.9791683" lon="13.9861183"><ele>5.833333333333333</ele><time>2026-04-11T10:57:08.86Z</time></trkpt><trkpt lat="40.9791017" lon="13.9861783"><ele>5.666666666666667</ele><time>2026-04-11T10:57:09.861Z</time></trkpt><trkpt lat="40.9790317" lon="13.9862333"><ele>5.5</ele><time>2026-04-11T10:57:10.859Z</time></trkpt><trkpt lat="40.9789633" lon="13.9862867"><ele>5.333333333333334</ele><time>2026-04-11T10:57:11.86Z</time></trkpt><trkpt lat="40.978895" lon="13.9863483"><ele>5.166666666666667</ele><time>2026-04-11T10:57:12.86Z</time></trkpt><trkpt lat="40.9788267" lon="13.98641"><ele>5.0</ele><time>2026-04-11T10:57:13.86Z</time></trkpt><trkpt lat="40.9787567" lon="13.98647"><ele>5.0</ele><time>2026-04-11T10:57:14.86Z</time></trkpt><trkpt lat="40.9786883" lon="13.98653"><ele>5.0</ele><time>2026-04-11T10:57:15.861Z</time></trkpt><trkpt lat="40.9786167" lon="13.9865883"><ele>5.0</ele><time>2026-04-11T10:57:16.86Z</time></trkpt><trkpt lat="40.978545" lon="13.986645"><ele>5.0</ele><time>2026-04-11T10:57:17.862Z</time></trkpt><trkpt lat="40.9784717" lon="13.9867"><ele>5.0</ele><time>2026-04-11T10:57:18.86Z</time></trkpt><trkpt lat="40.9783967" lon="13.9867533"><ele>5.0</ele><time>2026-04-11T10:57:19.86Z</time></trkpt><trkpt lat="40.9783233" lon="13.9868083"><ele>5.0</ele><time>2026-04-11T10:57:20.86Z</time></trkpt><trkpt lat="40.9782533" lon="13.9868683"><ele>5.0</ele><time>2026-04-11T10:57:21.859Z</time></trkpt><trkpt lat="40.97818" lon="13.9869283"><ele>5.0</ele><time>2026-04-11T10:57:22.86Z</time></trkpt><trkpt lat="40.9781083" lon="13.9869867"><ele>5.0</ele><time>2026-04-11T10:57:23.86Z</time></trkpt><trkpt lat="40.9780383" lon="13.9870433"><ele>5.0</ele><time>2026-04-11T10:57:24.861Z</time></trkpt><trkpt lat="40.9779683" lon="13.9871033"><ele>5.0</ele><time>2026-04-11T10:57:25.862Z</time></trkpt><trkpt lat="40.9778967" lon="13.9871617"><ele>5.0</ele><time>2026-04-11T10:57:26.862Z</time></trkpt><trkpt lat="40.977825" lon="13.9872217"><ele>5.0</ele><time>2026-04-11T10:57:27.86Z</time></trkpt><trkpt lat="40.9777533" lon="13.9872783"><ele>5.0</ele><time>2026-04-11T10:57:28.86Z</time></trkpt><trkpt lat="40.9776833" lon="13.9873367"><ele>5.0</ele><time>2026-04-11T10:57:29.86Z</time></trkpt><trkpt lat="40.9776183" lon="13.9873967"><ele>5.0</ele><time>2026-04-11T10:57:30.86Z</time></trkpt><trkpt lat="40.9775533" lon="13.9874633"><ele>5.0</ele><time>2026-04-11T10:57:31.861Z</time></trkpt><trkpt lat="40.97749" lon="13.9875283"><ele>4.833333333333334</ele><time>2026-04-11T10:57:32.86Z</time></trkpt><trkpt lat="40.9774217" lon="13.9875917"><ele>4.666666666666667</ele><time>2026-04-11T10:57:33.858Z</time></trkpt><trkpt lat="40.9773517" lon="13.9876517"><ele>4.5</ele><time>2026-04-11T10:57:34.858Z</time></trkpt><trkpt lat="40.9772783" lon="13.9877083"><ele>4.333333333333333</ele><time>2026-04-11T10:57:35.859Z</time></trkpt><trkpt lat="40.977205" lon="13.9877667"><ele>4.166666666666666</ele><time>2026-04-11T10:57:36.859Z</time></trkpt><trkpt lat="40.9771367" lon="13.9878283"><ele>4.0</ele><time>2026-04-11T10:57:37.861Z</time></trkpt><trkpt lat="40.9770717" lon="13.9878917"><ele>3.9999999999999996</ele><time>2026-04-11T10:57:38.86Z</time></trkpt><trkpt lat="40.977005" lon="13.9879517"><ele>4.0</ele><time>2026-04-11T10:57:39.86Z</time></trkpt><trkpt lat="40.9769367" lon="13.98801"><ele>4.0</ele><time>2026-04-11T10:57:40.861Z</time></trkpt><trkpt lat="40.976865" lon="13.98807"><ele>4.0</ele><time>2026-04-11T10:57:41.861Z</time></trkpt><trkpt lat="40.9767933" lon="13.9881283"><ele>3.9999999999999996</ele><time>2026-04-11T10:57:42.86Z</time></trkpt><trkpt lat="40.9767167" lon="13.98818"><ele>4.0</ele><time>2026-04-11T10:57:43.862Z</time></trkpt><trkpt lat="40.9766417" lon="13.9882317"><ele>4.166666666666666</ele><time>2026-04-11T10:57:44.86Z</time></trkpt><trkpt lat="40.9765667" lon="13.988285"><ele>4.333333333333333</ele><time>2026-04-11T10:57:45.861Z</time></trkpt><trkpt lat="40.976495" lon="13.9883383"><ele>4.5</ele><time>2026-04-11T10:57:46.862Z</time></trkpt><trkpt lat="40.9764233" lon="13.9883883"><ele>4.666666666666667</ele><time>2026-04-11T10:57:47.861Z</time></trkpt><trkpt lat="40.9763517" lon="13.988445"><ele>4.833333333333334</ele><time>2026-04-11T10:57:48.861Z</time></trkpt><trkpt lat="40.97628" lon="13.988505"><ele>5.0</ele><time>2026-04-11T10:57:49.86Z</time></trkpt><trkpt lat="40.9762083" lon="13.9885667"><ele>5.0</ele><time>2026-04-11T10:57:50.86Z</time></trkpt><trkpt lat="40.9761367" lon="13.9886267"><ele>5.0</ele><time>2026-04-11T10:57:51.859Z</time></trkpt><trkpt lat="40.9760633" lon="13.988685"><ele>5.0</ele><time>2026-04-11T10:57:52.861Z</time></trkpt><trkpt lat="40.9759917" lon="13.9887417"><ele>5.0</ele><time>2026-04-11T10:57:53.86Z</time></trkpt><trkpt lat="40.9759217" lon="13.9887967"><ele>5.0</ele><time>2026-04-11T10:57:54.859Z</time></trkpt><trkpt lat="40.9758533" lon="13.9888567"><ele>5.0</ele><time>2026-04-11T10:57:55.861Z</time></trkpt><trkpt lat="40.9757883" lon="13.9889167"><ele>5.166666666666667</ele><time>2026-04-11T10:57:56.86Z</time></trkpt><trkpt lat="40.9757267" lon="13.9889783"><ele>5.333333333333334</ele><time>2026-04-11T10:57:57.86Z</time></trkpt><trkpt lat="40.9756633" lon="13.9890383"><ele>5.5</ele><time>2026-04-11T10:57:58.859Z</time></trkpt><trkpt lat="40.9755983" lon="13.989095"><ele>5.666666666666667</ele><time>2026-04-11T10:57:59.86Z</time></trkpt><trkpt lat="40.9755333" lon="13.9891517"><ele>5.833333333333333</ele><time>2026-04-11T10:58:00.858Z</time></trkpt><trkpt lat="40.9754667" lon="13.9892083"><ele>6.0</ele><time>2026-04-11T10:58:01.859Z</time></trkpt><trkpt lat="40.9754017" lon="13.989265"><ele>5.666666666666667</ele><time>2026-04-11T10:58:02.858Z</time></trkpt><trkpt lat="40.9753367" lon="13.98932"><ele>5.333333333333333</ele><time>2026-04-11T10:58:03.86Z</time></trkpt><trkpt lat="40.9752733" lon="13.9893717"><ele>5.0</ele><time>2026-04-11T10:58:04.859Z</time></trkpt><trkpt lat="40.9752067" lon="13.9894267"><ele>4.666666666666666</ele><time>2026-04-11T10:58:05.861Z</time></trkpt><trkpt lat="40.9751417" lon="13.98948"><ele>4.333333333333333</ele><time>2026-04-11T10:58:06.86Z</time></trkpt><trkpt lat="40.9750783" lon="13.9895367"><ele>4.0</ele><time>2026-04-11T10:58:07.86Z</time></trkpt><trkpt lat="40.9750167" lon="13.989595"><ele>3.9999999999999996</ele><time>2026-04-11T10:58:08.86Z</time></trkpt><trkpt lat="40.9749517" lon="13.9896517"><ele>4.0</ele><time>2026-04-11T10:58:09.859Z</time></trkpt><trkpt lat="40.974885" lon="13.9897033"><ele>4.0</ele><time>2026-04-11T10:58:10.859Z</time></trkpt><trkpt lat="40.9748183" lon="13.9897467"><ele>4.0</ele><time>2026-04-11T10:58:11.86Z</time></trkpt><trkpt lat="40.9747533" lon="13.9897917"><ele>3.9999999999999996</ele><time>2026-04-11T10:58:12.859Z</time></trkpt><trkpt lat="40.97469" lon="13.9898417"><ele>4.0</ele><time>2026-04-11T10:58:13.86Z</time></trkpt><trkpt lat="40.9746267" lon="13.9898933"><ele>3.9999999999999996</ele><time>2026-04-11T10:58:14.86Z</time></trkpt><trkpt lat="40.9745633" lon="13.9899467"><ele>4.0</ele><time>2026-04-11T10:58:15.86Z</time></trkpt><trkpt lat="40.9744983" lon="13.9900017"><ele>4.0</ele><time>2026-04-11T10:58:16.861Z</time></trkpt><trkpt lat="40.974435" lon="13.9900583"><ele>4.0</ele><time>2026-04-11T10:58:17.861Z</time></trkpt><trkpt lat="40.9743733" lon="13.9901167"><ele>3.9999999999999996</ele><time>2026-04-11T10:58:18.861Z</time></trkpt><trkpt lat="40.9743133" lon="13.9901717"><ele>4.0</ele><time>2026-04-11T10:58:19.861Z</time></trkpt><trkpt lat="40.974255" lon="13.9902283"><ele>4.0</ele><time>2026-04-11T10:58:20.86Z</time></trkpt><trkpt lat="40.9741967" lon="13.9902817"><ele>3.9999999999999996</ele><time>2026-04-11T10:58:21.858Z</time></trkpt><trkpt lat="40.9741367" lon="13.9903333"><ele>4.0</ele><time>2026-04-11T10:58:22.86Z</time></trkpt><trkpt lat="40.974075" lon="13.9903833"><ele>4.0</ele><time>2026-04-11T10:58:23.86Z</time></trkpt><trkpt lat="40.9740133" lon="13.990435"><ele>3.9999999999999996</ele><time>2026-04-11T10:58:24.86Z</time></trkpt><trkpt lat="40.97395" lon="13.990485"><ele>4.0</ele><time>2026-04-11T10:58:25.86Z</time></trkpt><trkpt lat="40.9738867" lon="13.990535"><ele>4.0</ele><time>2026-04-11T10:58:26.861Z</time></trkpt><trkpt lat="40.9738233" lon="13.9905833"><ele>3.9999999999999996</ele><time>2026-04-11T10:58:27.859Z</time></trkpt><trkpt lat="40.9737583" lon="13.990635"><ele>4.0</ele><time>2026-04-11T10:58:28.86Z</time></trkpt><trkpt lat="40.9736967" lon="13.9906883"><ele>4.0</ele><time>2026-04-11T10:58:29.86Z</time></trkpt><trkpt lat="40.9736317" lon="13.99074"><ele>4.0</ele><time>2026-04-11T10:58:30.86Z</time></trkpt><trkpt lat="40.9735667" lon="13.990795"><ele>3.9999999999999996</ele><time>2026-04-11T10:58:31.86Z</time></trkpt><trkpt lat="40.973505" lon="13.99085"><ele>4.0</ele><time>2026-04-11T10:58:32.859Z</time></trkpt><trkpt lat="40.9734417" lon="13.9909"><ele>3.9999999999999996</ele><time>2026-04-11T10:58:33.859Z</time></trkpt><trkpt lat="40.9733783" lon="13.99095"><ele>4.0</ele><time>2026-04-11T10:58:34.86Z</time></trkpt><trkpt lat="40.97331" lon="13.9909917"><ele>4.0</ele><time>2026-04-11T10:58:35.859Z</time></trkpt><trkpt lat="40.97324" lon="13.991035"><ele>4.0</ele><time>2026-04-11T10:58:36.859Z</time></trkpt><trkpt lat="40.9731733" lon="13.9910783"><ele>3.9999999999999996</ele><time>2026-04-11T10:58:37.861Z</time></trkpt><trkpt lat="40.9731067" lon="13.991135"><ele>4.0</ele><time>2026-04-11T10:58:38.86Z</time></trkpt><trkpt lat="40.97304" lon="13.99119"><ele>4.166666666666666</ele><time>2026-04-11T10:58:39.861Z</time></trkpt><trkpt lat="40.9729767" lon="13.99125"><ele>4.333333333333333</ele><time>2026-04-11T10:58:40.861Z</time></trkpt><trkpt lat="40.97291" lon="13.9913083"><ele>4.5</ele><time>2026-04-11T10:58:41.861Z</time></trkpt><trkpt lat="40.9728433" lon="13.991365"><ele>4.666666666666667</ele><time>2026-04-11T10:58:42.86Z</time></trkpt><trkpt lat="40.9727783" lon="13.9914217"><ele>4.833333333333334</ele><time>2026-04-11T10:58:43.861Z</time></trkpt><trkpt lat="40.972715" lon="13.99148"><ele>5.0</ele><time>2026-04-11T10:58:44.861Z</time></trkpt><trkpt lat="40.97265" lon="13.991545"><ele>5.0</ele><time>2026-04-11T10:58:45.86Z</time></trkpt><trkpt lat="40.9725867" lon="13.9916133"><ele>5.0</ele><time>2026-04-11T10:58:46.86Z</time></trkpt><trkpt lat="40.9725233" lon="13.9916783"><ele>5.0</ele><time>2026-04-11T10:58:47.86Z</time></trkpt><trkpt lat="40.9724567" lon="13.9917417"><ele>5.0</ele><time>2026-04-11T10:58:48.86Z</time></trkpt><trkpt lat="40.97239" lon="13.9918017"><ele>5.0</ele><time>2026-04-11T10:58:49.861Z</time></trkpt><trkpt lat="40.97232" lon="13.9918567"><ele>5.0</ele><time>2026-04-11T10:58:50.86Z</time></trkpt><trkpt lat="40.9722517" lon="13.9919133"><ele>4.833333333333334</ele><time>2026-04-11T10:58:51.858Z</time></trkpt><trkpt lat="40.972185" lon="13.99197"><ele>4.666666666666667</ele><time>2026-04-11T10:58:52.862Z</time></trkpt><trkpt lat="40.9721167" lon="13.992025"><ele>4.5</ele><time>2026-04-11T10:58:53.859Z</time></trkpt><trkpt lat="40.97205" lon="13.9920817"><ele>4.333333333333333</ele><time>2026-04-11T10:58:54.859Z</time></trkpt><trkpt lat="40.9719833" lon="13.9921383"><ele>4.166666666666666</ele><time>2026-04-11T10:58:55.859Z</time></trkpt><trkpt lat="40.9719167" lon="13.9921983"><ele>4.0</ele><time>2026-04-11T10:58:56.859Z</time></trkpt><trkpt lat="40.9718517" lon="13.9922533"><ele>3.9999999999999996</ele><time>2026-04-11T10:58:57.86Z</time></trkpt><trkpt lat="40.971785" lon="13.99231"><ele>4.0</ele><time>2026-04-11T10:58:58.86Z</time></trkpt><trkpt lat="40.9717183" lon="13.9923633"><ele>4.0</ele><time>2026-04-11T10:58:59.861Z</time></trkpt><trkpt lat="40.97165" lon="13.9924183"><ele>4.0</ele><time>2026-04-11T10:59:00.861Z</time></trkpt><trkpt lat="40.97158" lon="13.9924717"><ele>3.9999999999999996</ele><time>2026-04-11T10:59:01.86Z</time></trkpt><trkpt lat="40.9715117" lon="13.9925283"><ele>4.0</ele><time>2026-04-11T10:59:02.858Z</time></trkpt><trkpt lat="40.971445" lon="13.9925883"><ele>4.166666666666666</ele><time>2026-04-11T10:59:03.861Z</time></trkpt><trkpt lat="40.9713733" lon="13.9926467"><ele>4.333333333333333</ele><time>2026-04-11T10:59:04.86Z</time></trkpt><trkpt lat="40.971305" lon="13.992705"><ele>4.5</ele><time>2026-04-11T10:59:05.86Z</time></trkpt><trkpt lat="40.9712367" lon="13.9927583"><ele>4.666666666666667</ele><time>2026-04-11T10:59:06.86Z</time></trkpt><trkpt lat="40.9711683" lon="13.9928117"><ele>4.833333333333334</ele><time>2026-04-11T10:59:07.86Z</time></trkpt><trkpt lat="40.9711017" lon="13.992865"><ele>5.0</ele><time>2026-04-11T10:59:08.86Z</time></trkpt><trkpt lat="40.971035" lon="13.9929167"><ele>5.0</ele><time>2026-04-11T10:59:09.86Z</time></trkpt><trkpt lat="40.9709683" lon="13.9929717"><ele>5.0</ele><time>2026-04-11T10:59:10.861Z</time></trkpt><trkpt lat="40.9709" lon="13.9930267"><ele>5.0</ele><time>2026-04-11T10:59:11.86Z</time></trkpt><trkpt lat="40.9708317" lon="13.9930833"><ele>5.0</ele><time>2026-04-11T10:59:12.86Z</time></trkpt><trkpt lat="40.9707617" lon="13.9931383"><ele>5.0</ele><time>2026-04-11T10:59:13.86Z</time></trkpt><trkpt lat="40.970695" lon="13.9931933"><ele>5.0</ele><time>2026-04-11T10:59:14.86Z</time></trkpt><trkpt lat="40.9706283" lon="13.9932533"><ele>5.5</ele><time>2026-04-11T10:59:15.861Z</time></trkpt><trkpt lat="40.9705633" lon="13.9933183"><ele>6.0</ele><time>2026-04-11T10:59:16.861Z</time></trkpt><trkpt lat="40.9705" lon="13.9933833"><ele>6.5</ele><time>2026-04-11T10:59:17.86Z</time></trkpt><trkpt lat="40.970435" lon="13.9934417"><ele>7.0</ele><time>2026-04-11T10:59:18.859Z</time></trkpt><trkpt lat="40.9703667" lon="13.9934917"><ele>7.499999999999999</ele><time>2026-04-11T10:59:19.861Z</time></trkpt><trkpt lat="40.9702967" lon="13.99354"><ele>8.0</ele><time>2026-04-11T10:59:20.86Z</time></trkpt><trkpt lat="40.9702283" lon="13.9935933"><ele>7.999999999999999</ele><time>2026-04-11T10:59:21.859Z</time></trkpt><trkpt lat="40.9701617" lon="13.99365"><ele>8.0</ele><time>2026-04-11T10:59:22.861Z</time></trkpt><trkpt lat="40.9700933" lon="13.9937083"><ele>8.0</ele><time>2026-04-11T10:59:23.86Z</time></trkpt><trkpt lat="40.970025" lon="13.9937617"><ele>8.0</ele><time>2026-04-11T10:59:24.859Z</time></trkpt><trkpt lat="40.9699567" lon="13.9938183"><ele>7.999999999999999</ele><time>2026-04-11T10:59:25.86Z</time></trkpt><trkpt lat="40.9698883" lon="13.9938717"><ele>8.0</ele><time>2026-04-11T10:59:26.859Z</time></trkpt><trkpt lat="40.96982" lon="13.993925"><ele>7.666666666666666</ele><time>2026-04-11T10:59:27.859Z</time></trkpt><trkpt lat="40.9697533" lon="13.9939833"><ele>7.333333333333333</ele><time>2026-04-11T10:59:28.86Z</time></trkpt><trkpt lat="40.9696867" lon="13.9940417"><ele>7.0</ele><time>2026-04-11T10:59:29.86Z</time></trkpt><trkpt lat="40.9696183" lon="13.9941017"><ele>6.666666666666666</ele><time>2026-04-11T10:59:30.859Z</time></trkpt><trkpt lat="40.9695517" lon="13.9941617"><ele>6.333333333333333</ele><time>2026-04-11T10:59:31.861Z</time></trkpt><trkpt lat="40.9694817" lon="13.9942183"><ele>6.0</ele><time>2026-04-11T10:59:32.861Z</time></trkpt><trkpt lat="40.9694133" lon="13.9942767"><ele>6.0</ele><time>2026-04-11T10:59:33.86Z</time></trkpt><trkpt lat="40.9693433" lon="13.9943333"><ele>6.0</ele><time>2026-04-11T10:59:34.861Z</time></trkpt><trkpt lat="40.969275" lon="13.9943917"><ele>6.0</ele><time>2026-04-11T10:59:35.86Z</time></trkpt><trkpt lat="40.9692067" lon="13.99445"><ele>6.0</ele><time>2026-04-11T10:59:36.859Z</time></trkpt><trkpt lat="40.96914" lon="13.9945133"><ele>6.0</ele><time>2026-04-11T10:59:37.861Z</time></trkpt><trkpt lat="40.96907" lon="13.9945717"><ele>6.0</ele><time>2026-04-11T10:59:38.859Z</time></trkpt><trkpt lat="40.9689983" lon="13.99463"><ele>6.0</ele><time>2026-04-11T10:59:39.86Z</time></trkpt><trkpt lat="40.96893" lon="13.9946917"><ele>6.0</ele><time>2026-04-11T10:59:40.859Z</time></trkpt><trkpt lat="40.9688617" lon="13.9947517"><ele>6.0</ele><time>2026-04-11T10:59:41.861Z</time></trkpt><trkpt lat="40.96879" lon="13.9948117"><ele>6.0</ele><time>2026-04-11T10:59:42.862Z</time></trkpt><trkpt lat="40.9687167" lon="13.9948667"><ele>6.0</ele><time>2026-04-11T10:59:43.86Z</time></trkpt><trkpt lat="40.968645" lon="13.9949217"><ele>6.0</ele><time>2026-04-11T10:59:44.86Z</time></trkpt><trkpt lat="40.968575" lon="13.994975"><ele>5.833333333333333</ele><time>2026-04-11T10:59:45.86Z</time></trkpt><trkpt lat="40.9685017" lon="13.9950317"><ele>5.666666666666667</ele><time>2026-04-11T10:59:46.859Z</time></trkpt><trkpt lat="40.9684317" lon="13.9950833"><ele>5.5</ele><time>2026-04-11T10:59:47.861Z</time></trkpt><trkpt lat="40.9683617" lon="13.9951367"><ele>5.333333333333334</ele><time>2026-04-11T10:59:48.86Z</time></trkpt><trkpt lat="40.9682933" lon="13.9951917"><ele>5.166666666666667</ele><time>2026-04-11T10:59:49.859Z</time></trkpt><trkpt lat="40.9682267" lon="13.9952483"><ele>5.0</ele><time>2026-04-11T10:59:50.858Z</time></trkpt><trkpt lat="40.9681583" lon="13.9953033"><ele>5.0</ele><time>2026-04-11T10:59:51.859Z</time></trkpt><trkpt lat="40.9680933" lon="13.9953633"><ele>5.0</ele><time>2026-04-11T10:59:52.86Z</time></trkpt><trkpt lat="40.9680267" lon="13.9954217"><ele>5.0</ele><time>2026-04-11T10:59:53.86Z</time></trkpt><trkpt lat="40.9679567" lon="13.9954767"><ele>5.0</ele><time>2026-04-11T10:59:54.859Z</time></trkpt><trkpt lat="40.9678833" lon="13.9955333"><ele>5.0</ele><time>2026-04-11T10:59:55.86Z</time></trkpt><trkpt lat="40.96781" lon="13.9955967"><ele>5.0</ele><time>2026-04-11T10:59:56.859Z</time></trkpt><trkpt lat="40.967735" lon="13.9956617"><ele>5.0</ele><time>2026-04-11T10:59:57.859Z</time></trkpt><trkpt lat="40.96766" lon="13.995725"><ele>5.0</ele><time>2026-04-11T10:59:58.861Z</time></trkpt><trkpt lat="40.967585" lon="13.99579"><ele>5.0</ele><time>2026-04-11T10:59:59.861Z</time></trkpt><trkpt lat="40.9675083" lon="13.99585"><ele>5.0</ele><time>2026-04-11T11:00:00.857Z</time></trkpt><trkpt lat="40.9674333" lon="13.99591"><ele>5.0</ele><time>2026-04-11T11:00:01.86Z</time></trkpt><trkpt lat="40.9673567" lon="13.9959733"><ele>5.0</ele><time>2026-04-11T11:00:02.859Z</time></trkpt><trkpt lat="40.9672833" lon="13.9960367"><ele>5.0</ele><time>2026-04-11T11:00:03.858Z</time></trkpt><trkpt lat="40.9672083" lon="13.996095"><ele>5.0</ele><time>2026-04-11T11:00:04.858Z</time></trkpt><trkpt lat="40.967135" lon="13.9961633"><ele>5.0</ele><time>2026-04-11T11:00:05.86Z</time></trkpt><trkpt lat="40.9670617" lon="13.99623"><ele>5.0</ele><time>2026-04-11T11:00:06.862Z</time></trkpt><trkpt lat="40.9669867" lon="13.9963"><ele>5.0</ele><time>2026-04-11T11:00:07.86Z</time></trkpt><trkpt lat="40.9669083" lon="13.9963683"><ele>5.0</ele><time>2026-04-11T11:00:08.859Z</time></trkpt><trkpt lat="40.9668333" lon="13.996435"><ele>5.0</ele><time>2026-04-11T11:00:09.859Z</time></trkpt><trkpt lat="40.9667567" lon="13.9965017"><ele>5.0</ele><time>2026-04-11T11:00:10.859Z</time></trkpt><trkpt lat="40.9666817" lon="13.9965633"><ele>5.0</ele><time>2026-04-11T11:00:11.862Z</time></trkpt><trkpt lat="40.966605" lon="13.9966233"><ele>5.0</ele><time>2026-04-11T11:00:12.86Z</time></trkpt><trkpt lat="40.96653" lon="13.9966867"><ele>5.0</ele><time>2026-04-11T11:00:13.86Z</time></trkpt><trkpt lat="40.966455" lon="13.9967517"><ele>4.833333333333334</ele><time>2026-04-11T11:00:14.86Z</time></trkpt><trkpt lat="40.9663833" lon="13.9968133"><ele>4.666666666666667</ele><time>2026-04-11T11:00:15.859Z</time></trkpt><trkpt lat="40.96631" lon="13.9968717"><ele>4.5</ele><time>2026-04-11T11:00:16.861Z</time></trkpt><trkpt lat="40.9662367" lon="13.99693"><ele>4.333333333333333</ele><time>2026-04-11T11:00:17.862Z</time></trkpt><trkpt lat="40.966165" lon="13.9969867"><ele>4.166666666666666</ele><time>2026-04-11T11:00:18.859Z</time></trkpt><trkpt lat="40.966095" lon="13.997045"><ele>4.0</ele><time>2026-04-11T11:00:19.861Z</time></trkpt><trkpt lat="40.9660267" lon="13.9971117"><ele>3.9999999999999996</ele><time>2026-04-11T11:00:20.86Z</time></trkpt><trkpt lat="40.9659567" lon="13.99718"><ele>4.0</ele><time>2026-04-11T11:00:21.861Z</time></trkpt><trkpt lat="40.9658817" lon="13.9972367"><ele>4.0</ele><time>2026-04-11T11:00:22.859Z</time></trkpt><trkpt lat="40.965805" lon="13.997295"><ele>4.0</ele><time>2026-04-11T11:00:23.862Z</time></trkpt><trkpt lat="40.9657317" lon="13.9973567"><ele>3.9999999999999996</ele><time>2026-04-11T11:00:24.862Z</time></trkpt><trkpt lat="40.9656617" lon="13.9974167"><ele>4.0</ele><time>2026-04-11T11:00:25.861Z</time></trkpt><trkpt lat="40.9655883" lon="13.997475"><ele>3.833333333333333</ele><time>2026-04-11T11:00:26.861Z</time></trkpt><trkpt lat="40.9655167" lon="13.997535"><ele>3.6666666666666665</ele><time>2026-04-11T11:00:27.858Z</time></trkpt><trkpt lat="40.965445" lon="13.997595"><ele>3.5</ele><time>2026-04-11T11:00:28.86Z</time></trkpt><trkpt lat="40.9653733" lon="13.997655"><ele>3.333333333333333</ele><time>2026-04-11T11:00:29.86Z</time></trkpt><trkpt lat="40.9653033" lon="13.9977183"><ele>3.1666666666666665</ele><time>2026-04-11T11:00:30.86Z</time></trkpt><trkpt lat="40.9652333" lon="13.9977817"><ele>3.0</ele><time>2026-04-11T11:00:31.859Z</time></trkpt><trkpt lat="40.9651633" lon="13.99784"><ele>3.0</ele><time>2026-04-11T11:00:32.859Z</time></trkpt><trkpt lat="40.96509" lon="13.9978933"><ele>3.0</ele><time>2026-04-11T11:00:33.858Z</time></trkpt><trkpt lat="40.965015" lon="13.997945"><ele>3.0</ele><time>2026-04-11T11:00:34.86Z</time></trkpt><trkpt lat="40.9649433" lon="13.998"><ele>3.0</ele><time>2026-04-11T11:00:35.861Z</time></trkpt><trkpt lat="40.964875" lon="13.9980533"><ele>3.0</ele><time>2026-04-11T11:00:36.859Z</time></trkpt><trkpt lat="40.9648033" lon="13.9981083"><ele>3.0</ele><time>2026-04-11T11:00:37.862Z</time></trkpt><trkpt lat="40.9647317" lon="13.9981633"><ele>3.0</ele><time>2026-04-11T11:00:38.86Z</time></trkpt><trkpt lat="40.964665" lon="13.998215"><ele>3.0</ele><time>2026-04-11T11:00:39.86Z</time></trkpt><trkpt lat="40.964595" lon="13.9982683"><ele>3.0</ele><time>2026-04-11T11:00:40.859Z</time></trkpt><trkpt lat="40.9645267" lon="13.9983217"><ele>3.0</ele><time>2026-04-11T11:00:41.861Z</time></trkpt><trkpt lat="40.96446" lon="13.9983767"><ele>3.0</ele><time>2026-04-11T11:00:42.859Z</time></trkpt><trkpt lat="40.9643917" lon="13.99843"><ele>3.0</ele><time>2026-04-11T11:00:43.86Z</time></trkpt><trkpt lat="40.9643267" lon="13.998485"><ele>3.0</ele><time>2026-04-11T11:00:44.861Z</time></trkpt><trkpt lat="40.9642617" lon="13.9985383"><ele>3.0</ele><time>2026-04-11T11:00:45.859Z</time></trkpt><trkpt lat="40.9641933" lon="13.9985917"><ele>3.0</ele><time>2026-04-11T11:00:46.859Z</time></trkpt><trkpt lat="40.9641283" lon="13.9986433"><ele>3.0</ele><time>2026-04-11T11:00:47.861Z</time></trkpt><trkpt lat="40.9640617" lon="13.9986967"><ele>3.0</ele><time>2026-04-11T11:00:48.861Z</time></trkpt><trkpt lat="40.963995" lon="13.9987483"><ele>3.0</ele><time>2026-04-11T11:00:49.86Z</time></trkpt><trkpt lat="40.96393" lon="13.9988017"><ele>3.0</ele><time>2026-04-11T11:00:50.86Z</time></trkpt><trkpt lat="40.963865" lon="13.9988533"><ele>3.0</ele><time>2026-04-11T11:00:51.859Z</time></trkpt><trkpt lat="40.9637983" lon="13.9989067"><ele>3.0</ele><time>2026-04-11T11:00:52.861Z</time></trkpt><trkpt lat="40.96373" lon="13.998965"><ele>3.0</ele><time>2026-04-11T11:00:53.861Z</time></trkpt><trkpt lat="40.9636633" lon="13.99902"><ele>3.0</ele><time>2026-04-11T11:00:54.861Z</time></trkpt><trkpt lat="40.9635983" lon="13.999075"><ele>3.0</ele><time>2026-04-11T11:00:55.861Z</time></trkpt><trkpt lat="40.9635317" lon="13.999125"><ele>3.1666666666666665</ele><time>2026-04-11T11:00:56.859Z</time></trkpt><trkpt lat="40.963465" lon="13.999175"><ele>3.333333333333333</ele><time>2026-04-11T11:00:57.858Z</time></trkpt><trkpt lat="40.963395" lon="13.9992283"><ele>3.5</ele><time>2026-04-11T11:00:58.86Z</time></trkpt><trkpt lat="40.963325" lon="13.9992883"><ele>3.6666666666666665</ele><time>2026-04-11T11:00:59.861Z</time></trkpt><trkpt lat="40.9632533" lon="13.9993483"><ele>3.833333333333333</ele><time>2026-04-11T11:01:00.86Z</time></trkpt><trkpt lat="40.96318" lon="13.9994133"><ele>4.0</ele><time>2026-04-11T11:01:01.861Z</time></trkpt><trkpt lat="40.9631033" lon="13.9994683"><ele>3.9999999999999996</ele><time>2026-04-11T11:01:02.861Z</time></trkpt><trkpt lat="40.9630267" lon="13.999525"><ele>4.0</ele><time>2026-04-11T11:01:03.858Z</time></trkpt><trkpt lat="40.96295" lon="13.9995867"><ele>4.0</ele><time>2026-04-11T11:01:04.861Z</time></trkpt><trkpt lat="40.9628717" lon="13.9996483"><ele>4.0</ele><time>2026-04-11T11:01:05.861Z</time></trkpt><trkpt lat="40.9627933" lon="13.9997083"><ele>3.9999999999999996</ele><time>2026-04-11T11:01:06.862Z</time></trkpt><trkpt lat="40.9627167" lon="13.9997667"><ele>4.0</ele><time>2026-04-11T11:01:07.861Z</time></trkpt><trkpt lat="40.96264" lon="13.9998267"><ele>3.9999999999999996</ele><time>2026-04-11T11:01:08.86Z</time></trkpt><trkpt lat="40.9625667" lon="13.9998883"><ele>4.0</ele><time>2026-04-11T11:01:09.859Z</time></trkpt><trkpt lat="40.9624917" lon="13.9999483"><ele>4.0</ele><time>2026-04-11T11:01:10.862Z</time></trkpt><trkpt lat="40.962415" lon="14.0000067"><ele>4.0</ele><time>2026-04-11T11:01:11.861Z</time></trkpt><trkpt lat="40.9623383" lon="14.0000617"><ele>3.9999999999999996</ele><time>2026-04-11T11:01:12.859Z</time></trkpt><trkpt lat="40.962265" lon="14.000115"><ele>4.0</ele><time>2026-04-11T11:01:13.862Z</time></trkpt><trkpt lat="40.9621917" lon="14.0001683"><ele>4.5</ele><time>2026-04-11T11:01:14.861Z</time></trkpt><trkpt lat="40.9621183" lon="14.000225"><ele>5.0</ele><time>2026-04-11T11:01:15.859Z</time></trkpt><trkpt lat="40.9620467" lon="14.000285"><ele>5.5</ele><time>2026-04-11T11:01:16.86Z</time></trkpt><trkpt lat="40.9619767" lon="14.000345"><ele>6.0</ele><time>2026-04-11T11:01:17.861Z</time></trkpt><trkpt lat="40.9619033" lon="14.0004067"><ele>6.500000000000001</ele><time>2026-04-11T11:01:18.861Z</time></trkpt><trkpt lat="40.96183" lon="14.000465"><ele>7.0</ele><time>2026-04-11T11:01:19.861Z</time></trkpt><trkpt lat="40.9617583" lon="14.0005233"><ele>7.333333333333334</ele><time>2026-04-11T11:01:20.86Z</time></trkpt><trkpt lat="40.9616867" lon="14.0005833"><ele>7.666666666666667</ele><time>2026-04-11T11:01:21.861Z</time></trkpt><trkpt lat="40.9616133" lon="14.000645"><ele>8.0</ele><time>2026-04-11T11:01:22.858Z</time></trkpt><trkpt lat="40.9615383" lon="14.0007067"><ele>8.333333333333334</ele><time>2026-04-11T11:01:23.861Z</time></trkpt><trkpt lat="40.96146" lon="14.0007583"><ele>8.666666666666666</ele><time>2026-04-11T11:01:24.861Z</time></trkpt><trkpt lat="40.961385" lon="14.0008183"><ele>9.0</ele><time>2026-04-11T11:01:25.862Z</time></trkpt><trkpt lat="40.9613083" lon="14.00088"><ele>9.0</ele><time>2026-04-11T11:01:26.86Z</time></trkpt><trkpt lat="40.961235" lon="14.0009367"><ele>9.0</ele><time>2026-04-11T11:01:27.86Z</time></trkpt><trkpt lat="40.9611633" lon="14.00099"><ele>9.0</ele><time>2026-04-11T11:01:28.86Z</time></trkpt><trkpt lat="40.961095" lon="14.0010433"><ele>9.0</ele><time>2026-04-11T11:01:29.859Z</time></trkpt><trkpt lat="40.9610283" lon="14.001095"><ele>9.0</ele><time>2026-04-11T11:01:30.861Z</time></trkpt><trkpt lat="40.9609617" lon="14.0011483"><ele>9.0</ele><time>2026-04-11T11:01:31.861Z</time></trkpt><trkpt lat="40.9608933" lon="14.001205"><ele>9.0</ele><time>2026-04-11T11:01:32.861Z</time></trkpt><trkpt lat="40.9608233" lon="14.0012617"><ele>9.0</ele><time>2026-04-11T11:01:33.861Z</time></trkpt><trkpt lat="40.9607517" lon="14.00132"><ele>9.0</ele><time>2026-04-11T11:01:34.861Z</time></trkpt><trkpt lat="40.9606867" lon="14.0013783"><ele>9.0</ele><time>2026-04-11T11:01:35.861Z</time></trkpt><trkpt lat="40.96063" lon="14.001435"><ele>9.0</ele><time>2026-04-11T11:01:36.861Z</time></trkpt><trkpt lat="40.960515" lon="14.0014767"><ele>9.0</ele><time>2026-04-11T11:01:38.861Z</time></trkpt><trkpt lat="40.960405" lon="14.001465"><ele>9.0</ele><time>2026-04-11T11:01:40.861Z</time></trkpt><trkpt lat="40.9603183" lon="14.0015217"><ele>9.0</ele><time>2026-04-11T11:01:42.861Z</time></trkpt><trkpt lat="40.9602567" lon="14.001645"><ele>9.0</ele><time>2026-04-11T11:01:44.863Z</time></trkpt><trkpt lat="40.9601683" lon="14.00175"><ele>9.0</ele><time>2026-04-11T11:01:46.859Z</time></trkpt><trkpt lat="40.9601133" lon="14.0017933"><ele>9.0</ele><time>2026-04-11T11:01:47.862Z</time></trkpt><trkpt lat="40.9600567" lon="14.0018367"><ele>8.714285714285715</ele><time>2026-04-11T11:01:48.858Z</time></trkpt><trkpt lat="40.96" lon="14.0018817"><ele>8.428571428571429</ele><time>2026-04-11T11:01:49.86Z</time></trkpt><trkpt lat="40.9599417" lon="14.001925"><ele>8.142857142857142</ele><time>2026-04-11T11:01:50.861Z</time></trkpt><trkpt lat="40.95988" lon="14.00197"><ele>7.857142857142858</ele><time>2026-04-11T11:01:51.859Z</time></trkpt><trkpt lat="40.9598167" lon="14.002015"><ele>7.571428571428571</ele><time>2026-04-11T11:01:52.86Z</time></trkpt><trkpt lat="40.9597533" lon="14.0020667"><ele>7.285714285714286</ele><time>2026-04-11T11:01:53.861Z</time></trkpt><trkpt lat="40.95969" lon="14.0021217"><ele>7.0</ele><time>2026-04-11T11:01:54.859Z</time></trkpt><trkpt lat="40.9596233" lon="14.0021717"><ele>7.000000000000001</ele><time>2026-04-11T11:01:55.86Z</time></trkpt><trkpt lat="40.9595567" lon="14.0022233"><ele>7.0</ele><time>2026-04-11T11:01:56.859Z</time></trkpt><trkpt lat="40.9594883" lon="14.0022733"><ele>7.0</ele><time>2026-04-11T11:01:57.859Z</time></trkpt><trkpt lat="40.9594217" lon="14.0023267"><ele>7.0</ele><time>2026-04-11T11:01:58.86Z</time></trkpt><trkpt lat="40.959355" lon="14.00238"><ele>7.000000000000001</ele><time>2026-04-11T11:01:59.861Z</time></trkpt><trkpt lat="40.9592883" lon="14.0024333"><ele>7.0</ele><time>2026-04-11T11:02:00.86Z</time></trkpt><trkpt lat="40.9592183" lon="14.0024833"><ele>7.000000000000001</ele><time>2026-04-11T11:02:01.86Z</time></trkpt><trkpt lat="40.95915" lon="14.0025383"><ele>7.0</ele><time>2026-04-11T11:02:02.86Z</time></trkpt><trkpt lat="40.9590833" lon="14.002595"><ele>7.0</ele><time>2026-04-11T11:02:03.858Z</time></trkpt><trkpt lat="40.9590167" lon="14.00265"><ele>7.0</ele><time>2026-04-11T11:02:04.862Z</time></trkpt><trkpt lat="40.9589467" lon="14.0027033"><ele>7.000000000000001</ele><time>2026-04-11T11:02:05.861Z</time></trkpt><trkpt lat="40.958875" lon="14.0027583"><ele>7.0</ele><time>2026-04-11T11:02:06.86Z</time></trkpt><trkpt lat="40.9588033" lon="14.002815"><ele>7.000000000000001</ele><time>2026-04-11T11:02:07.86Z</time></trkpt><trkpt lat="40.958735" lon="14.0028683"><ele>7.0</ele><time>2026-04-11T11:02:08.861Z</time></trkpt><trkpt lat="40.958665" lon="14.0029233"><ele>7.0</ele><time>2026-04-11T11:02:09.859Z</time></trkpt><trkpt lat="40.958595" lon="14.0029783"><ele>7.0</ele><time>2026-04-11T11:02:10.86Z</time></trkpt><trkpt lat="40.958525" lon="14.0030317"><ele>7.000000000000001</ele><time>2026-04-11T11:02:11.861Z</time></trkpt><trkpt lat="40.9584567" lon="14.0030867"><ele>7.0</ele><time>2026-04-11T11:02:12.86Z</time></trkpt><trkpt lat="40.958385" lon="14.0031433"><ele>6.833333333333334</ele><time>2026-04-11T11:02:13.861Z</time></trkpt><trkpt lat="40.958315" lon="14.003195"><ele>6.666666666666667</ele><time>2026-04-11T11:02:14.861Z</time></trkpt><trkpt lat="40.9582467" lon="14.0032483"><ele>6.5</ele><time>2026-04-11T11:02:15.859Z</time></trkpt><trkpt lat="40.9581783" lon="14.0033033"><ele>6.333333333333334</ele><time>2026-04-11T11:02:16.86Z</time></trkpt><trkpt lat="40.9581067" lon="14.0033583"><ele>6.166666666666667</ele><time>2026-04-11T11:02:17.86Z</time></trkpt><trkpt lat="40.9580367" lon="14.0034117"><ele>6.0</ele><time>2026-04-11T11:02:18.861Z</time></trkpt><trkpt lat="40.9579633" lon="14.0034633"><ele>6.0</ele><time>2026-04-11T11:02:19.862Z</time></trkpt><trkpt lat="40.9578933" lon="14.0035167"><ele>6.0</ele><time>2026-04-11T11:02:20.86Z</time></trkpt><trkpt lat="40.957825" lon="14.0035683"><ele>6.0</ele><time>2026-04-11T11:02:21.859Z</time></trkpt><trkpt lat="40.9577567" lon="14.0036233"><ele>6.0</ele><time>2026-04-11T11:02:22.86Z</time></trkpt><trkpt lat="40.9576883" lon="14.00368"><ele>6.0</ele><time>2026-04-11T11:02:23.862Z</time></trkpt><trkpt lat="40.9576167" lon="14.0037367"><ele>6.0</ele><time>2026-04-11T11:02:24.86Z</time></trkpt><trkpt lat="40.95755" lon="14.003795"><ele>6.666666666666667</ele><time>2026-04-11T11:02:25.862Z</time></trkpt><trkpt lat="40.9574817" lon="14.0038533"><ele>7.333333333333334</ele><time>2026-04-11T11:02:26.859Z</time></trkpt><trkpt lat="40.957415" lon="14.003915"><ele>8.0</ele><time>2026-04-11T11:02:27.859Z</time></trkpt><trkpt lat="40.957345" lon="14.003975"><ele>8.666666666666668</ele><time>2026-04-11T11:02:28.859Z</time></trkpt><trkpt lat="40.957275" lon="14.0040333"><ele>9.333333333333334</ele><time>2026-04-11T11:02:29.861Z</time></trkpt><trkpt lat="40.9572067" lon="14.0040917"><ele>10.0</ele><time>2026-04-11T11:02:30.858Z</time></trkpt><trkpt lat="40.9571367" lon="14.0041467"><ele>9.166666666666668</ele><time>2026-04-11T11:02:31.86Z</time></trkpt><trkpt lat="40.957065" lon="14.0042017"><ele>8.333333333333334</ele><time>2026-04-11T11:02:32.858Z</time></trkpt><trkpt lat="40.9569967" lon="14.0042567"><ele>7.5</ele><time>2026-04-11T11:02:33.859Z</time></trkpt><trkpt lat="40.9569283" lon="14.0043133"><ele>6.666666666666667</ele><time>2026-04-11T11:02:34.86Z</time></trkpt><trkpt lat="40.9568617" lon="14.0043683"><ele>5.833333333333334</ele><time>2026-04-11T11:02:35.86Z</time></trkpt><trkpt lat="40.9567967" lon="14.0044233"><ele>5.0</ele><time>2026-04-11T11:02:36.86Z</time></trkpt><trkpt lat="40.95673" lon="14.0044817"><ele>5.333333333333334</ele><time>2026-04-11T11:02:37.86Z</time></trkpt><trkpt lat="40.9566633" lon="14.0045367"><ele>5.666666666666667</ele><time>2026-04-11T11:02:38.857Z</time></trkpt><trkpt lat="40.9565983" lon="14.0045933"><ele>6.0</ele><time>2026-04-11T11:02:39.859Z</time></trkpt><trkpt lat="40.956535" lon="14.0046533"><ele>6.333333333333334</ele><time>2026-04-11T11:02:40.858Z</time></trkpt><trkpt lat="40.95647" lon="14.0047067"><ele>6.666666666666667</ele><time>2026-04-11T11:02:41.86Z</time></trkpt><trkpt lat="40.9564017" lon="14.004755"><ele>7.0</ele><time>2026-04-11T11:02:42.858Z</time></trkpt><trkpt lat="40.956335" lon="14.00481"><ele>7.000000000000001</ele><time>2026-04-11T11:02:43.86Z</time></trkpt><trkpt lat="40.956265" lon="14.0048633"><ele>7.0</ele><time>2026-04-11T11:02:44.859Z</time></trkpt><trkpt lat="40.9562" lon="14.00492"><ele>7.0</ele><time>2026-04-11T11:02:45.858Z</time></trkpt><trkpt lat="40.9561333" lon="14.0049783"><ele>7.0</ele><time>2026-04-11T11:02:46.859Z</time></trkpt><trkpt lat="40.9560667" lon="14.0050333"><ele>7.000000000000001</ele><time>2026-04-11T11:02:47.859Z</time></trkpt><trkpt lat="40.9559967" lon="14.0050833"><ele>7.0</ele><time>2026-04-11T11:02:48.859Z</time></trkpt><trkpt lat="40.95593" lon="14.0051333"><ele>7.166666666666667</ele><time>2026-04-11T11:02:49.86Z</time></trkpt><trkpt lat="40.9558617" lon="14.005185"><ele>7.333333333333334</ele><time>2026-04-11T11:02:50.86Z</time></trkpt><trkpt lat="40.9557933" lon="14.0052383"><ele>7.5</ele><time>2026-04-11T11:02:51.859Z</time></trkpt><trkpt lat="40.955725" lon="14.0052917"><ele>7.666666666666666</ele><time>2026-04-11T11:02:52.859Z</time></trkpt><trkpt lat="40.9556583" lon="14.005345"><ele>7.833333333333333</ele><time>2026-04-11T11:02:53.86Z</time></trkpt><trkpt lat="40.9555883" lon="14.0054017"><ele>8.0</ele><time>2026-04-11T11:02:54.859Z</time></trkpt><trkpt lat="40.9555167" lon="14.005455"><ele>7.999999999999999</ele><time>2026-04-11T11:02:55.86Z</time></trkpt><trkpt lat="40.9554467" lon="14.0055067"><ele>8.0</ele><time>2026-04-11T11:02:56.859Z</time></trkpt><trkpt lat="40.95538" lon="14.00556"><ele>8.0</ele><time>2026-04-11T11:02:57.86Z</time></trkpt><trkpt lat="40.9553083" lon="14.0056167"><ele>8.0</ele><time>2026-04-11T11:02:58.859Z</time></trkpt><trkpt lat="40.9552383" lon="14.0056717"><ele>7.999999999999999</ele><time>2026-04-11T11:02:59.86Z</time></trkpt><trkpt lat="40.9551683" lon="14.0057267"><ele>8.0</ele><time>2026-04-11T11:03:00.859Z</time></trkpt><trkpt lat="40.9550983" lon="14.005785"><ele>7.499999999999999</ele><time>2026-04-11T11:03:01.86Z</time></trkpt><trkpt lat="40.9550317" lon="14.0058433"><ele>7.0</ele><time>2026-04-11T11:03:02.86Z</time></trkpt><trkpt lat="40.954965" lon="14.0059067"><ele>6.5</ele><time>2026-04-11T11:03:03.86Z</time></trkpt><trkpt lat="40.9548967" lon="14.005965"><ele>6.0</ele><time>2026-04-11T11:03:04.859Z</time></trkpt><trkpt lat="40.9548283" lon="14.0060167"><ele>5.5</ele><time>2026-04-11T11:03:05.86Z</time></trkpt><trkpt lat="40.9547567" lon="14.0060733"><ele>5.0</ele><time>2026-04-11T11:03:06.86Z</time></trkpt><trkpt lat="40.954685" lon="14.0061333"><ele>5.0</ele><time>2026-04-11T11:03:07.86Z</time></trkpt><trkpt lat="40.9546133" lon="14.0061917"><ele>5.0</ele><time>2026-04-11T11:03:08.859Z</time></trkpt><trkpt lat="40.954545" lon="14.0062533"><ele>5.0</ele><time>2026-04-11T11:03:09.859Z</time></trkpt><trkpt lat="40.9544717" lon="14.0063033"><ele>5.0</ele><time>2026-04-11T11:03:10.859Z</time></trkpt><trkpt lat="40.9544017" lon="14.0063633"><ele>5.0</ele><time>2026-04-11T11:03:11.859Z</time></trkpt><trkpt lat="40.9543317" lon="14.0064217"><ele>5.0</ele><time>2026-04-11T11:03:12.86Z</time></trkpt><trkpt lat="40.95426" lon="14.0064817"><ele>5.0</ele><time>2026-04-11T11:03:13.86Z</time></trkpt><trkpt lat="40.9541867" lon="14.0065433"><ele>5.0</ele><time>2026-04-11T11:03:14.86Z</time></trkpt><trkpt lat="40.9541117" lon="14.0066033"><ele>5.0</ele><time>2026-04-11T11:03:15.857Z</time></trkpt><trkpt lat="40.9540367" lon="14.006665"><ele>5.0</ele><time>2026-04-11T11:03:16.86Z</time></trkpt><trkpt lat="40.9539617" lon="14.00672"><ele>5.0</ele><time>2026-04-11T11:03:17.859Z</time></trkpt><trkpt lat="40.953885" lon="14.00678"><ele>5.0</ele><time>2026-04-11T11:03:18.86Z</time></trkpt><trkpt lat="40.953805" lon="14.0068417"><ele>4.666666666666667</ele><time>2026-04-11T11:03:19.859Z</time></trkpt><trkpt lat="40.95373" lon="14.006905"><ele>4.333333333333334</ele><time>2026-04-11T11:03:20.858Z</time></trkpt><trkpt lat="40.953655" lon="14.0069717"><ele>4.0</ele><time>2026-04-11T11:03:21.858Z</time></trkpt><trkpt lat="40.9535783" lon="14.0070367"><ele>3.666666666666667</ele><time>2026-04-11T11:03:22.857Z</time></trkpt><trkpt lat="40.953505" lon="14.0071"><ele>3.3333333333333335</ele><time>2026-04-11T11:03:23.859Z</time></trkpt><trkpt lat="40.9534283" lon="14.007155"><ele>3.0</ele><time>2026-04-11T11:03:24.859Z</time></trkpt><trkpt lat="40.9533517" lon="14.0072133"><ele>3.0</ele><time>2026-04-11T11:03:25.86Z</time></trkpt><trkpt lat="40.9532767" lon="14.0072717"><ele>3.0</ele><time>2026-04-11T11:03:26.86Z</time></trkpt><trkpt lat="40.9532033" lon="14.00733"><ele>3.0</ele><time>2026-04-11T11:03:27.86Z</time></trkpt><trkpt lat="40.9531317" lon="14.007385"><ele>3.0</ele><time>2026-04-11T11:03:28.859Z</time></trkpt><trkpt lat="40.95306" lon="14.0074333"><ele>3.0</ele><time>2026-04-11T11:03:29.859Z</time></trkpt><trkpt lat="40.95299" lon="14.0074833"><ele>3.0</ele><time>2026-04-11T11:03:30.86Z</time></trkpt><trkpt lat="40.9529217" lon="14.007535"><ele>3.0</ele><time>2026-04-11T11:03:31.859Z</time></trkpt><trkpt lat="40.9528533" lon="14.00759"><ele>3.0</ele><time>2026-04-11T11:03:32.86Z</time></trkpt><trkpt lat="40.952785" lon="14.007645"><ele>3.0</ele><time>2026-04-11T11:03:33.858Z</time></trkpt><trkpt lat="40.9527133" lon="14.0077"><ele>3.0</ele><time>2026-04-11T11:03:34.859Z</time></trkpt><trkpt lat="40.9526483" lon="14.0077567"><ele>3.0</ele><time>2026-04-11T11:03:35.86Z</time></trkpt><trkpt lat="40.9525833" lon="14.0078133"><ele>3.0</ele><time>2026-04-11T11:03:36.858Z</time></trkpt><trkpt lat="40.952515" lon="14.007865"><ele>3.3333333333333335</ele><time>2026-04-11T11:03:37.86Z</time></trkpt><trkpt lat="40.9524483" lon="14.0079167"><ele>3.666666666666667</ele><time>2026-04-11T11:03:38.86Z</time></trkpt><trkpt lat="40.9523833" lon="14.00797"><ele>4.0</ele><time>2026-04-11T11:03:39.859Z</time></trkpt><trkpt lat="40.9523133" lon="14.0080233"><ele>4.333333333333334</ele><time>2026-04-11T11:03:40.86Z</time></trkpt><trkpt lat="40.9522467" lon="14.0080733"><ele>4.666666666666667</ele><time>2026-04-11T11:03:41.86Z</time></trkpt><trkpt lat="40.95218" lon="14.008125"><ele>5.0</ele><time>2026-04-11T11:03:42.86Z</time></trkpt><trkpt lat="40.952115" lon="14.0081783"><ele>5.0</ele><time>2026-04-11T11:03:43.86Z</time></trkpt><trkpt lat="40.9520483" lon="14.0082333"><ele>5.0</ele><time>2026-04-11T11:03:44.86Z</time></trkpt><trkpt lat="40.9519833" lon="14.008285"><ele>5.0</ele><time>2026-04-11T11:03:45.86Z</time></trkpt><trkpt lat="40.9519183" lon="14.0083383"><ele>5.0</ele><time>2026-04-11T11:03:46.86Z</time></trkpt><trkpt lat="40.9518517" lon="14.0083933"><ele>5.0</ele><time>2026-04-11T11:03:47.86Z</time></trkpt><trkpt lat="40.951785" lon="14.0084467"><ele>5.0</ele><time>2026-04-11T11:03:48.86Z</time></trkpt><trkpt lat="40.9517183" lon="14.0085033"><ele>4.833333333333334</ele><time>2026-04-11T11:03:49.86Z</time></trkpt><trkpt lat="40.9516533" lon="14.0085583"><ele>4.666666666666667</ele><time>2026-04-11T11:03:50.859Z</time></trkpt><trkpt lat="40.951595" lon="14.008615"><ele>4.5</ele><time>2026-04-11T11:03:51.86Z</time></trkpt><trkpt lat="40.9515367" lon="14.0086733"><ele>4.333333333333333</ele><time>2026-04-11T11:03:52.86Z</time></trkpt><trkpt lat="40.951475" lon="14.00873"><ele>4.166666666666666</ele><time>2026-04-11T11:03:53.859Z</time></trkpt><trkpt lat="40.9514117" lon="14.008785"><ele>4.0</ele><time>2026-04-11T11:03:54.86Z</time></trkpt><trkpt lat="40.9513433" lon="14.0088383"><ele>3.9999999999999996</ele><time>2026-04-11T11:03:55.86Z</time></trkpt><trkpt lat="40.95128" lon="14.0088867"><ele>4.0</ele><time>2026-04-11T11:03:56.86Z</time></trkpt><trkpt lat="40.9512167" lon="14.0089383"><ele>4.0</ele><time>2026-04-11T11:03:57.859Z</time></trkpt><trkpt lat="40.9511517" lon="14.00899"><ele>4.0</ele><time>2026-04-11T11:03:58.859Z</time></trkpt><trkpt lat="40.9510867" lon="14.009045"><ele>3.9999999999999996</ele><time>2026-04-11T11:03:59.86Z</time></trkpt><trkpt lat="40.95102" lon="14.0091017"><ele>4.0</ele><time>2026-04-11T11:04:00.859Z</time></trkpt><trkpt lat="40.9509533" lon="14.0091583"><ele>3.9999999999999996</ele><time>2026-04-11T11:04:01.861Z</time></trkpt><trkpt lat="40.9508867" lon="14.0092133"><ele>4.0</ele><time>2026-04-11T11:04:02.857Z</time></trkpt><trkpt lat="40.95082" lon="14.0092667"><ele>4.0</ele><time>2026-04-11T11:04:03.859Z</time></trkpt><trkpt lat="40.9507533" lon="14.0093183"><ele>4.0</ele><time>2026-04-11T11:04:04.859Z</time></trkpt><trkpt lat="40.950685" lon="14.0093717"><ele>3.9999999999999996</ele><time>2026-04-11T11:04:05.86Z</time></trkpt><trkpt lat="40.95062" lon="14.0094283"><ele>4.0</ele><time>2026-04-11T11:04:06.859Z</time></trkpt><trkpt lat="40.9505533" lon="14.00948"><ele>3.833333333333333</ele><time>2026-04-11T11:04:07.86Z</time></trkpt><trkpt lat="40.9504883" lon="14.009535"><ele>3.6666666666666665</ele><time>2026-04-11T11:04:08.86Z</time></trkpt><trkpt lat="40.9504217" lon="14.0095917"><ele>3.5</ele><time>2026-04-11T11:04:09.858Z</time></trkpt><trkpt lat="40.9503517" lon="14.0096433"><ele>3.333333333333333</ele><time>2026-04-11T11:04:10.86Z</time></trkpt><trkpt lat="40.9502817" lon="14.0096967"><ele>3.1666666666666665</ele><time>2026-04-11T11:04:11.859Z</time></trkpt><trkpt lat="40.9502117" lon="14.00975"><ele>3.0</ele><time>2026-04-11T11:04:12.86Z</time></trkpt><trkpt lat="40.95014" lon="14.009805"><ele>3.0</ele><time>2026-04-11T11:04:13.86Z</time></trkpt><trkpt lat="40.9500667" lon="14.0098617"><ele>3.0</ele><time>2026-04-11T11:04:14.86Z</time></trkpt><trkpt lat="40.9499967" lon="14.009925"><ele>3.0</ele><time>2026-04-11T11:04:15.86Z</time></trkpt><trkpt lat="40.94993" lon="14.0099867"><ele>3.0</ele><time>2026-04-11T11:04:16.86Z</time></trkpt><trkpt lat="40.9498617" lon="14.0100383"><ele>3.0</ele><time>2026-04-11T11:04:17.86Z</time></trkpt><trkpt lat="40.949795" lon="14.0100917"><ele>3.0</ele><time>2026-04-11T11:04:18.861Z</time></trkpt><trkpt lat="40.949725" lon="14.0101417"><ele>3.3333333333333335</ele><time>2026-04-11T11:04:19.86Z</time></trkpt><trkpt lat="40.9496583" lon="14.0101917"><ele>3.666666666666667</ele><time>2026-04-11T11:04:20.858Z</time></trkpt><trkpt lat="40.9495883" lon="14.010245"><ele>4.0</ele><time>2026-04-11T11:04:21.86Z</time></trkpt><trkpt lat="40.9495183" lon="14.0103067"><ele>4.333333333333334</ele><time>2026-04-11T11:04:22.86Z</time></trkpt><trkpt lat="40.9494533" lon="14.01036"><ele>4.666666666666667</ele><time>2026-04-11T11:04:23.86Z</time></trkpt><trkpt lat="40.9493833" lon="14.0104133"><ele>5.0</ele><time>2026-04-11T11:04:24.859Z</time></trkpt><trkpt lat="40.94931" lon="14.0104717"><ele>5.0</ele><time>2026-04-11T11:04:25.86Z</time></trkpt><trkpt lat="40.94924" lon="14.0105283"><ele>5.0</ele><time>2026-04-11T11:04:26.859Z</time></trkpt><trkpt lat="40.94917" lon="14.010585"><ele>5.0</ele><time>2026-04-11T11:04:27.86Z</time></trkpt><trkpt lat="40.9490967" lon="14.0106417"><ele>5.0</ele><time>2026-04-11T11:04:28.86Z</time></trkpt><trkpt lat="40.949025" lon="14.0106933"><ele>5.0</ele><time>2026-04-11T11:04:29.86Z</time></trkpt><trkpt lat="40.9489533" lon="14.010745"><ele>5.0</ele><time>2026-04-11T11:04:30.86Z</time></trkpt><trkpt lat="40.948885" lon="14.010795"><ele>4.666666666666667</ele><time>2026-04-11T11:04:31.86Z</time></trkpt><trkpt lat="40.94882" lon="14.010845"><ele>4.333333333333334</ele><time>2026-04-11T11:04:32.859Z</time></trkpt><trkpt lat="40.948755" lon="14.0109033"><ele>4.0</ele><time>2026-04-11T11:04:33.859Z</time></trkpt><trkpt lat="40.9486917" lon="14.01096"><ele>3.666666666666667</ele><time>2026-04-11T11:04:34.86Z</time></trkpt><trkpt lat="40.9486267" lon="14.011015"><ele>3.3333333333333335</ele><time>2026-04-11T11:04:35.86Z</time></trkpt><trkpt lat="40.94856" lon="14.011065"><ele>3.0</ele><time>2026-04-11T11:04:36.86Z</time></trkpt><trkpt lat="40.9484933" lon="14.01111"><ele>2.9999999999999996</ele><time>2026-04-11T11:04:37.86Z</time></trkpt><trkpt lat="40.9484267" lon="14.011155"><ele>3.0</ele><time>2026-04-11T11:04:38.86Z</time></trkpt><trkpt lat="40.9483633" lon="14.0111917"><ele>3.0</ele><time>2026-04-11T11:04:39.858Z</time></trkpt><trkpt lat="40.9483" lon="14.0112333"><ele>3.0</ele><time>2026-04-11T11:04:40.86Z</time></trkpt><trkpt lat="40.9482383" lon="14.011285"><ele>3.0</ele><time>2026-04-11T11:04:41.86Z</time></trkpt><trkpt lat="40.9481817" lon="14.011345"><ele>2.9999999999999996</ele><time>2026-04-11T11:04:42.86Z</time></trkpt><trkpt lat="40.948125" lon="14.0114083"><ele>3.0</ele><time>2026-04-11T11:04:43.86Z</time></trkpt><trkpt lat="40.9480683" lon="14.011465"><ele>2.9999999999999996</ele><time>2026-04-11T11:04:44.858Z</time></trkpt><trkpt lat="40.948005" lon="14.011515"><ele>3.0</ele><time>2026-04-11T11:04:45.858Z</time></trkpt><trkpt lat="40.9479417" lon="14.011565"><ele>3.0</ele><time>2026-04-11T11:04:46.859Z</time></trkpt><trkpt lat="40.947875" lon="14.0116167"><ele>3.0</ele><time>2026-04-11T11:04:47.86Z</time></trkpt><trkpt lat="40.94781" lon="14.0116617"><ele>3.0</ele><time>2026-04-11T11:04:48.86Z</time></trkpt><trkpt lat="40.9477467" lon="14.0117083"><ele>2.9999999999999996</ele><time>2026-04-11T11:04:49.86Z</time></trkpt><trkpt lat="40.947685" lon="14.0117567"><ele>3.0</ele><time>2026-04-11T11:04:50.86Z</time></trkpt><trkpt lat="40.9476233" lon="14.0118083"><ele>3.1666666666666665</ele><time>2026-04-11T11:04:51.86Z</time></trkpt><trkpt lat="40.9475617" lon="14.0118633"><ele>3.333333333333333</ele><time>2026-04-11T11:04:52.858Z</time></trkpt><trkpt lat="40.9475" lon="14.0119183"><ele>3.5</ele><time>2026-04-11T11:04:53.86Z</time></trkpt><trkpt lat="40.9474367" lon="14.01197"><ele>3.6666666666666665</ele><time>2026-04-11T11:04:54.859Z</time></trkpt><trkpt lat="40.94737" lon="14.0120233"><ele>3.833333333333333</ele><time>2026-04-11T11:04:55.861Z</time></trkpt><trkpt lat="40.947305" lon="14.0120783"><ele>4.0</ele><time>2026-04-11T11:04:56.859Z</time></trkpt><trkpt lat="40.9472367" lon="14.012135"><ele>3.9999999999999996</ele><time>2026-04-11T11:04:57.86Z</time></trkpt><trkpt lat="40.94717" lon="14.0121933"><ele>4.0</ele><time>2026-04-11T11:04:58.858Z</time></trkpt><trkpt lat="40.9471033" lon="14.012245"><ele>4.0</ele><time>2026-04-11T11:04:59.859Z</time></trkpt><trkpt lat="40.9470367" lon="14.0122983"><ele>4.0</ele><time>2026-04-11T11:05:00.86Z</time></trkpt><trkpt lat="40.94697" lon="14.0123517"><ele>3.9999999999999996</ele><time>2026-04-11T11:05:01.86Z</time></trkpt><trkpt lat="40.9469033" lon="14.0124033"><ele>4.0</ele><time>2026-04-11T11:05:02.86Z</time></trkpt><trkpt lat="40.9468367" lon="14.0124617"><ele>3.9999999999999996</ele><time>2026-04-11T11:05:03.859Z</time></trkpt><trkpt lat="40.9467717" lon="14.0125217"><ele>4.0</ele><time>2026-04-11T11:05:04.86Z</time></trkpt><trkpt lat="40.9467067" lon="14.0125767"><ele>4.0</ele><time>2026-04-11T11:05:05.86Z</time></trkpt><trkpt lat="40.9466417" lon="14.012635"><ele>4.0</ele><time>2026-04-11T11:05:06.859Z</time></trkpt><trkpt lat="40.946575" lon="14.012695"><ele>3.9999999999999996</ele><time>2026-04-11T11:05:07.859Z</time></trkpt><trkpt lat="40.9465083" lon="14.0127517"><ele>4.0</ele><time>2026-04-11T11:05:08.859Z</time></trkpt><trkpt lat="40.94644" lon="14.0128067"><ele>3.9999999999999996</ele><time>2026-04-11T11:05:09.858Z</time></trkpt><trkpt lat="40.9463733" lon="14.0128667"><ele>4.0</ele><time>2026-04-11T11:05:10.86Z</time></trkpt><trkpt lat="40.9463067" lon="14.012925"><ele>4.0</ele><time>2026-04-11T11:05:11.86Z</time></trkpt><trkpt lat="40.94624" lon="14.01298"><ele>4.0</ele><time>2026-04-11T11:05:12.859Z</time></trkpt><trkpt lat="40.94617" lon="14.013035"><ele>3.9999999999999996</ele><time>2026-04-11T11:05:13.86Z</time></trkpt><trkpt lat="40.9461" lon="14.013085"><ele>4.0</ele><time>2026-04-11T11:05:14.86Z</time></trkpt><trkpt lat="40.9460333" lon="14.0131333"><ele>3.9999999999999996</ele><time>2026-04-11T11:05:15.858Z</time></trkpt><trkpt lat="40.9459667" lon="14.013185"><ele>4.0</ele><time>2026-04-11T11:05:16.86Z</time></trkpt><trkpt lat="40.9459" lon="14.01324"><ele>4.0</ele><time>2026-04-11T11:05:17.859Z</time></trkpt><trkpt lat="40.94583" lon="14.0132967"><ele>4.0</ele><time>2026-04-11T11:05:18.858Z</time></trkpt><trkpt lat="40.9457617" lon="14.013355"><ele>3.9999999999999996</ele><time>2026-04-11T11:05:19.86Z</time></trkpt><trkpt lat="40.9456933" lon="14.0134117"><ele>4.0</ele><time>2026-04-11T11:05:20.86Z</time></trkpt><trkpt lat="40.9456283" lon="14.0134633"><ele>3.6666666666666665</ele><time>2026-04-11T11:05:21.86Z</time></trkpt><trkpt lat="40.9455583" lon="14.0135183"><ele>3.333333333333333</ele><time>2026-04-11T11:05:22.86Z</time></trkpt><trkpt lat="40.9454933" lon="14.0135783"><ele>3.0</ele><time>2026-04-11T11:05:23.86Z</time></trkpt><trkpt lat="40.9454283" lon="14.0136367"><ele>2.6666666666666665</ele><time>2026-04-11T11:05:24.86Z</time></trkpt><trkpt lat="40.9453617" lon="14.0136967"><ele>2.333333333333333</ele><time>2026-04-11T11:05:25.86Z</time></trkpt><trkpt lat="40.9452967" lon="14.0137533"><ele>2.0</ele><time>2026-04-11T11:05:26.859Z</time></trkpt><trkpt lat="40.9452317" lon="14.013805"><ele>2.0</ele><time>2026-04-11T11:05:27.86Z</time></trkpt><trkpt lat="40.94517" lon="14.0138617"><ele>1.9999999999999998</ele><time>2026-04-11T11:05:28.859Z</time></trkpt><trkpt lat="40.9451067" lon="14.01392"><ele>2.0</ele><time>2026-04-11T11:05:29.861Z</time></trkpt><trkpt lat="40.94504" lon="14.0139717"><ele>2.0</ele><time>2026-04-11T11:05:30.859Z</time></trkpt><trkpt lat="40.9449733" lon="14.0140183"><ele>1.9999999999999998</ele><time>2026-04-11T11:05:31.859Z</time></trkpt><trkpt lat="40.9449067" lon="14.0140583"><ele>2.0</ele><time>2026-04-11T11:05:32.86Z</time></trkpt><trkpt lat="40.9448433" lon="14.0140967"><ele>2.0</ele><time>2026-04-11T11:05:33.86Z</time></trkpt><trkpt lat="40.9447817" lon="14.014145"><ele>2.142857142857143</ele><time>2026-04-11T11:05:34.86Z</time></trkpt><trkpt lat="40.9447217" lon="14.014195"><ele>2.2857142857142856</ele><time>2026-04-11T11:05:35.861Z</time></trkpt><trkpt lat="40.9446617" lon="14.014245"><ele>2.4285714285714284</ele><time>2026-04-11T11:05:36.858Z</time></trkpt><trkpt lat="40.9446033" lon="14.014295"><ele>2.571428571428571</ele><time>2026-04-11T11:05:37.86Z</time></trkpt><trkpt lat="40.9445433" lon="14.01435"><ele>2.7142857142857144</ele><time>2026-04-11T11:05:38.86Z</time></trkpt><trkpt lat="40.94448" lon="14.0144017"><ele>2.8571428571428568</ele><time>2026-04-11T11:05:39.859Z</time></trkpt><trkpt lat="40.9444167" lon="14.0144467"><ele>3.0</ele><time>2026-04-11T11:05:40.86Z</time></trkpt><trkpt lat="40.9443567" lon="14.0145"><ele>3.0</ele><time>2026-04-11T11:05:41.858Z</time></trkpt><trkpt lat="40.944295" lon="14.014555"><ele>3.0</ele><time>2026-04-11T11:05:42.86Z</time></trkpt><trkpt lat="40.9442333" lon="14.01461"><ele>3.0</ele><time>2026-04-11T11:05:43.86Z</time></trkpt><trkpt lat="40.944165" lon="14.01466"><ele>3.0</ele><time>2026-04-11T11:05:44.859Z</time></trkpt><trkpt lat="40.9441" lon="14.014715"><ele>3.0</ele><time>2026-04-11T11:05:45.86Z</time></trkpt><trkpt lat="40.9440317" lon="14.0147633"><ele>3.0</ele><time>2026-04-11T11:05:46.86Z</time></trkpt><trkpt lat="40.9439633" lon="14.0148167"><ele>3.0</ele><time>2026-04-11T11:05:47.86Z</time></trkpt><trkpt lat="40.9438967" lon="14.014875"><ele>3.0</ele><time>2026-04-11T11:05:48.86Z</time></trkpt><trkpt lat="40.94383" lon="14.0149367"><ele>3.0</ele><time>2026-04-11T11:05:49.861Z</time></trkpt><trkpt lat="40.943765" lon="14.0149967"><ele>3.0</ele><time>2026-04-11T11:05:50.86Z</time></trkpt><trkpt lat="40.943695" lon="14.0150533"><ele>3.0</ele><time>2026-04-11T11:05:51.858Z</time></trkpt><trkpt lat="40.9436267" lon="14.0151083"><ele>3.0</ele><time>2026-04-11T11:05:52.86Z</time></trkpt><trkpt lat="40.9435583" lon="14.0151617"><ele>3.0</ele><time>2026-04-11T11:05:53.86Z</time></trkpt><trkpt lat="40.9434933" lon="14.01522"><ele>3.0</ele><time>2026-04-11T11:05:54.86Z</time></trkpt><trkpt lat="40.9434267" lon="14.0152767"><ele>3.0</ele><time>2026-04-11T11:05:55.86Z</time></trkpt><trkpt lat="40.9433583" lon="14.0153317"><ele>3.0</ele><time>2026-04-11T11:05:56.861Z</time></trkpt><trkpt lat="40.94329" lon="14.015385"><ele>3.0</ele><time>2026-04-11T11:05:57.858Z</time></trkpt><trkpt lat="40.9432183" lon="14.0154367"><ele>3.0</ele><time>2026-04-11T11:05:58.86Z</time></trkpt><trkpt lat="40.94315" lon="14.015495"><ele>3.0</ele><time>2026-04-11T11:05:59.86Z</time></trkpt><trkpt lat="40.94308" lon="14.0155517"><ele>3.0</ele><time>2026-04-11T11:06:00.859Z</time></trkpt><trkpt lat="40.9430117" lon="14.0156117"><ele>3.0</ele><time>2026-04-11T11:06:01.86Z</time></trkpt><trkpt lat="40.942945" lon="14.01567"><ele>3.0</ele><time>2026-04-11T11:06:02.86Z</time></trkpt><trkpt lat="40.9428767" lon="14.0157233"><ele>3.0</ele><time>2026-04-11T11:06:03.859Z</time></trkpt><trkpt lat="40.9428083" lon="14.0157767"><ele>3.0</ele><time>2026-04-11T11:06:04.86Z</time></trkpt><trkpt lat="40.9427433" lon="14.0158333"><ele>3.0</ele><time>2026-04-11T11:06:05.86Z</time></trkpt><trkpt lat="40.9426767" lon="14.01589"><ele>3.0</ele><time>2026-04-11T11:06:06.86Z</time></trkpt><trkpt lat="40.94261" lon="14.0159467"><ele>3.0</ele><time>2026-04-11T11:06:07.86Z</time></trkpt><trkpt lat="40.9425433" lon="14.016"><ele>3.0</ele><time>2026-04-11T11:06:08.86Z</time></trkpt><trkpt lat="40.9424783" lon="14.016055"><ele>3.0</ele><time>2026-04-11T11:06:09.86Z</time></trkpt><trkpt lat="40.9424133" lon="14.0161117"><ele>3.0</ele><time>2026-04-11T11:06:10.858Z</time></trkpt><trkpt lat="40.942345" lon="14.0161733"><ele>3.0</ele><time>2026-04-11T11:06:11.861Z</time></trkpt><trkpt lat="40.9422783" lon="14.0162333"><ele>3.0</ele><time>2026-04-11T11:06:12.858Z</time></trkpt><trkpt lat="40.94221" lon="14.0162967"><ele>3.0</ele><time>2026-04-11T11:06:13.86Z</time></trkpt><trkpt lat="40.9421417" lon="14.016355"><ele>3.0</ele><time>2026-04-11T11:06:14.859Z</time></trkpt><trkpt lat="40.9420767" lon="14.0164133"><ele>3.0</ele><time>2026-04-11T11:06:15.857Z</time></trkpt><trkpt lat="40.9420117" lon="14.0164717"><ele>3.0</ele><time>2026-04-11T11:06:16.86Z</time></trkpt><trkpt lat="40.9419517" lon="14.0165283"><ele>3.0</ele><time>2026-04-11T11:06:17.86Z</time></trkpt><trkpt lat="40.9418883" lon="14.0165817"><ele>3.0</ele><time>2026-04-11T11:06:18.857Z</time></trkpt><trkpt lat="40.941825" lon="14.0166317"><ele>3.0</ele><time>2026-04-11T11:06:19.861Z</time></trkpt><trkpt lat="40.94176" lon="14.0166783"><ele>3.0</ele><time>2026-04-11T11:06:20.86Z</time></trkpt><trkpt lat="40.9416933" lon="14.016725"><ele>3.0</ele><time>2026-04-11T11:06:21.859Z</time></trkpt><trkpt lat="40.941625" lon="14.0167733"><ele>3.0</ele><time>2026-04-11T11:06:22.858Z</time></trkpt><trkpt lat="40.9415567" lon="14.0168233"><ele>3.5</ele><time>2026-04-11T11:06:23.859Z</time></trkpt><trkpt lat="40.9414867" lon="14.0168767"><ele>4.0</ele><time>2026-04-11T11:06:24.859Z</time></trkpt><trkpt lat="40.94142" lon="14.016935"><ele>4.5</ele><time>2026-04-11T11:06:25.86Z</time></trkpt><trkpt lat="40.9413517" lon="14.0169967"><ele>5.0</ele><time>2026-04-11T11:06:26.86Z</time></trkpt><trkpt lat="40.9412817" lon="14.0170533"><ele>5.5</ele><time>2026-04-11T11:06:27.86Z</time></trkpt><trkpt lat="40.9412133" lon="14.0171117"><ele>6.0</ele><time>2026-04-11T11:06:28.859Z</time></trkpt><trkpt lat="40.9411433" lon="14.0171717"><ele>6.0</ele><time>2026-04-11T11:06:29.859Z</time></trkpt><trkpt lat="40.9410717" lon="14.0172317"><ele>6.0</ele><time>2026-04-11T11:06:30.86Z</time></trkpt><trkpt lat="40.9410017" lon="14.0172917"><ele>6.0</ele><time>2026-04-11T11:06:31.86Z</time></trkpt><trkpt lat="40.9409333" lon="14.0173583"><ele>6.0</ele><time>2026-04-11T11:06:32.859Z</time></trkpt><trkpt lat="40.940865" lon="14.01742"><ele>6.0</ele><time>2026-04-11T11:06:33.857Z</time></trkpt><trkpt lat="40.9407933" lon="14.0174733"><ele>6.0</ele><time>2026-04-11T11:06:34.859Z</time></trkpt><trkpt lat="40.9407217" lon="14.0175283"><ele>6.0</ele><time>2026-04-11T11:06:35.86Z</time></trkpt><trkpt lat="40.9406533" lon="14.0175917"><ele>6.0</ele><time>2026-04-11T11:06:36.86Z</time></trkpt><trkpt lat="40.9405833" lon="14.0176517"><ele>6.0</ele><time>2026-04-11T11:06:37.86Z</time></trkpt><trkpt lat="40.9405083" lon="14.0177"><ele>6.0</ele><time>2026-04-11T11:06:38.86Z</time></trkpt><trkpt lat="40.9404367" lon="14.0177517"><ele>6.0</ele><time>2026-04-11T11:06:39.858Z</time></trkpt><trkpt lat="40.9403617" lon="14.017805"><ele>6.0</ele><time>2026-04-11T11:06:40.86Z</time></trkpt><trkpt lat="40.9402883" lon="14.017855"><ele>6.0</ele><time>2026-04-11T11:06:41.86Z</time></trkpt><trkpt lat="40.940215" lon="14.0179083"><ele>6.0</ele><time>2026-04-11T11:06:42.859Z</time></trkpt><trkpt lat="40.940145" lon="14.0179567"><ele>6.0</ele><time>2026-04-11T11:06:43.857Z</time></trkpt><trkpt lat="40.9400717" lon="14.0180017"><ele>6.0</ele><time>2026-04-11T11:06:44.86Z</time></trkpt><trkpt lat="40.9399983" lon="14.0180433"><ele>6.0</ele><time>2026-04-11T11:06:45.86Z</time></trkpt><trkpt lat="40.9399217" lon="14.0180783"><ele>6.0</ele><time>2026-04-11T11:06:46.86Z</time></trkpt><trkpt lat="40.9398483" lon="14.0181183"><ele>5.833333333333333</ele><time>2026-04-11T11:06:47.86Z</time></trkpt><trkpt lat="40.939775" lon="14.01816"><ele>5.666666666666667</ele><time>2026-04-11T11:06:48.86Z</time></trkpt><trkpt lat="40.9397033" lon="14.0182067"><ele>5.5</ele><time>2026-04-11T11:06:49.86Z</time></trkpt><trkpt lat="40.9396333" lon="14.0182533"><ele>5.333333333333334</ele><time>2026-04-11T11:06:50.859Z</time></trkpt><trkpt lat="40.9395617" lon="14.0182983"><ele>5.166666666666667</ele><time>2026-04-11T11:06:51.858Z</time></trkpt><trkpt lat="40.9394883" lon="14.0183383"><ele>5.0</ele><time>2026-04-11T11:06:52.86Z</time></trkpt><trkpt lat="40.939415" lon="14.018375"><ele>5.0</ele><time>2026-04-11T11:06:53.861Z</time></trkpt><trkpt lat="40.9393417" lon="14.0184167"><ele>5.0</ele><time>2026-04-11T11:06:54.86Z</time></trkpt><trkpt lat="40.9392683" lon="14.0184583"><ele>5.0</ele><time>2026-04-11T11:06:55.86Z</time></trkpt><trkpt lat="40.939195" lon="14.0185"><ele>5.0</ele><time>2026-04-11T11:06:56.859Z</time></trkpt><trkpt lat="40.9391217" lon="14.01854"><ele>5.0</ele><time>2026-04-11T11:06:57.86Z</time></trkpt><trkpt lat="40.93905" lon="14.0185867"><ele>5.0</ele><time>2026-04-11T11:06:58.86Z</time></trkpt><trkpt lat="40.9389733" lon="14.018635"><ele>5.5</ele><time>2026-04-11T11:06:59.861Z</time></trkpt><trkpt lat="40.9388983" lon="14.018685"><ele>6.0</ele><time>2026-04-11T11:07:00.86Z</time></trkpt><trkpt lat="40.93882" lon="14.0187317"><ele>6.5</ele><time>2026-04-11T11:07:01.861Z</time></trkpt><trkpt lat="40.9387433" lon="14.0187783"><ele>7.0</ele><time>2026-04-11T11:07:02.858Z</time></trkpt><trkpt lat="40.9386683" lon="14.0188317"><ele>7.499999999999999</ele><time>2026-04-11T11:07:03.858Z</time></trkpt><trkpt lat="40.9385933" lon="14.018885"><ele>8.0</ele><time>2026-04-11T11:07:04.857Z</time></trkpt><trkpt lat="40.9385167" lon="14.01894"><ele>7.999999999999999</ele><time>2026-04-11T11:07:05.859Z</time></trkpt><trkpt lat="40.9384417" lon="14.0189883"><ele>8.0</ele><time>2026-04-11T11:07:06.858Z</time></trkpt><trkpt lat="40.938365" lon="14.0190217"><ele>8.0</ele><time>2026-04-11T11:07:07.86Z</time></trkpt><trkpt lat="40.938285" lon="14.0190567"><ele>8.0</ele><time>2026-04-11T11:07:08.859Z</time></trkpt><trkpt lat="40.938205" lon="14.0190933"><ele>7.999999999999999</ele><time>2026-04-11T11:07:09.859Z</time></trkpt><trkpt lat="40.938125" lon="14.019135"><ele>8.0</ele><time>2026-04-11T11:07:10.858Z</time></trkpt><trkpt lat="40.938045" lon="14.019185"><ele>7.499999999999999</ele><time>2026-04-11T11:07:11.86Z</time></trkpt><trkpt lat="40.937965" lon="14.0192333"><ele>7.0</ele><time>2026-04-11T11:07:12.858Z</time></trkpt><trkpt lat="40.937885" lon="14.0192783"><ele>6.5</ele><time>2026-04-11T11:07:13.86Z</time></trkpt><trkpt lat="40.937805" lon="14.01932"><ele>6.0</ele><time>2026-04-11T11:07:14.858Z</time></trkpt><trkpt lat="40.9377267" lon="14.0193683"><ele>5.5</ele><time>2026-04-11T11:07:15.857Z</time></trkpt><trkpt lat="40.93765" lon="14.0194167"><ele>5.0</ele><time>2026-04-11T11:07:16.86Z</time></trkpt><trkpt lat="40.9375683" lon="14.0194567"><ele>5.833333333333334</ele><time>2026-04-11T11:07:17.858Z</time></trkpt><trkpt lat="40.93749" lon="14.0194983"><ele>6.666666666666667</ele><time>2026-04-11T11:07:18.86Z</time></trkpt><trkpt lat="40.9374083" lon="14.0195433"><ele>7.5</ele><time>2026-04-11T11:07:19.86Z</time></trkpt><trkpt lat="40.9373317" lon="14.0195867"><ele>8.333333333333334</ele><time>2026-04-11T11:07:20.86Z</time></trkpt><trkpt lat="40.9372567" lon="14.01963"><ele>9.166666666666668</ele><time>2026-04-11T11:07:21.859Z</time></trkpt><trkpt lat="40.9371783" lon="14.0196733"><ele>10.0</ele><time>2026-04-11T11:07:22.86Z</time></trkpt><trkpt lat="40.9370983" lon="14.0197183"><ele>10.0</ele><time>2026-04-11T11:07:23.86Z</time></trkpt><trkpt lat="40.93702" lon="14.0197633"><ele>10.0</ele><time>2026-04-11T11:07:24.859Z</time></trkpt><trkpt lat="40.9369417" lon="14.0198117"><ele>10.0</ele><time>2026-04-11T11:07:25.861Z</time></trkpt><trkpt lat="40.9368633" lon="14.01986"><ele>10.0</ele><time>2026-04-11T11:07:26.86Z</time></trkpt><trkpt lat="40.93679" lon="14.01991"><ele>10.0</ele><time>2026-04-11T11:07:27.86Z</time></trkpt><trkpt lat="40.936715" lon="14.01996"><ele>10.0</ele><time>2026-04-11T11:07:28.859Z</time></trkpt><trkpt lat="40.9366383" lon="14.0200033"><ele>9.166666666666668</ele><time>2026-04-11T11:07:29.859Z</time></trkpt><trkpt lat="40.9365583" lon="14.0200467"><ele>8.333333333333334</ele><time>2026-04-11T11:07:30.859Z</time></trkpt><trkpt lat="40.9364817" lon="14.02009"><ele>7.5</ele><time>2026-04-11T11:07:31.86Z</time></trkpt><trkpt lat="40.936405" lon="14.0201367"><ele>6.666666666666667</ele><time>2026-04-11T11:07:32.86Z</time></trkpt><trkpt lat="40.9363267" lon="14.02018"><ele>5.833333333333334</ele><time>2026-04-11T11:07:33.858Z</time></trkpt><trkpt lat="40.9362517" lon="14.020225"><ele>5.0</ele><time>2026-04-11T11:07:34.859Z</time></trkpt><trkpt lat="40.93618" lon="14.0202733"><ele>5.0</ele><time>2026-04-11T11:07:35.859Z</time></trkpt><trkpt lat="40.936105" lon="14.0203167"><ele>5.0</ele><time>2026-04-11T11:07:36.86Z</time></trkpt><trkpt lat="40.93603" lon="14.020365"><ele>5.0</ele><time>2026-04-11T11:07:37.86Z</time></trkpt><trkpt lat="40.935955" lon="14.02041"><ele>5.0</ele><time>2026-04-11T11:07:38.86Z</time></trkpt><trkpt lat="40.9358833" lon="14.0204567"><ele>5.0</ele><time>2026-04-11T11:07:39.86Z</time></trkpt><trkpt lat="40.9358083" lon="14.0205033"><ele>5.0</ele><time>2026-04-11T11:07:40.859Z</time></trkpt><trkpt lat="40.9357317" lon="14.0205483"><ele>5.0</ele><time>2026-04-11T11:07:41.86Z</time></trkpt><trkpt lat="40.9356533" lon="14.020595"><ele>5.0</ele><time>2026-04-11T11:07:42.858Z</time></trkpt><trkpt lat="40.935575" lon="14.0206433"><ele>5.0</ele><time>2026-04-11T11:07:43.86Z</time></trkpt><trkpt lat="40.9354983" lon="14.0206917"><ele>5.0</ele><time>2026-04-11T11:07:44.859Z</time></trkpt><trkpt lat="40.93542" lon="14.0207367"><ele>5.0</ele><time>2026-04-11T11:07:45.859Z</time></trkpt><trkpt lat="40.9353433" lon="14.0207817"><ele>5.0</ele><time>2026-04-11T11:07:46.859Z</time></trkpt><trkpt lat="40.9352633" lon="14.0208283"><ele>5.0</ele><time>2026-04-11T11:07:47.861Z</time></trkpt><trkpt lat="40.9351833" lon="14.0208783"><ele>5.0</ele><time>2026-04-11T11:07:48.86Z</time></trkpt><trkpt lat="40.9351" lon="14.0209333"><ele>5.0</ele><time>2026-04-11T11:07:49.859Z</time></trkpt><trkpt lat="40.935015" lon="14.0209783"><ele>5.0</ele><time>2026-04-11T11:07:50.86Z</time></trkpt><trkpt lat="40.9349267" lon="14.02102"><ele>5.0</ele><time>2026-04-11T11:07:51.859Z</time></trkpt><trkpt lat="40.9348383" lon="14.0210633"><ele>5.6</ele><time>2026-04-11T11:07:52.86Z</time></trkpt><trkpt lat="40.9347517" lon="14.02111"><ele>6.2</ele><time>2026-04-11T11:07:53.861Z</time></trkpt><trkpt lat="40.9346667" lon="14.02116"><ele>6.800000000000001</ele><time>2026-04-11T11:07:54.859Z</time></trkpt><trkpt lat="40.93458" lon="14.0212067"><ele>7.4</ele><time>2026-04-11T11:07:55.86Z</time></trkpt><trkpt lat="40.9344933" lon="14.021255"><ele>8.0</ele><time>2026-04-11T11:07:56.858Z</time></trkpt><trkpt lat="40.934405" lon="14.0213033"><ele>8.0</ele><time>2026-04-11T11:07:57.86Z</time></trkpt><trkpt lat="40.9343217" lon="14.0213533"><ele>8.0</ele><time>2026-04-11T11:07:58.858Z</time></trkpt><trkpt lat="40.9342383" lon="14.0214017"><ele>8.0</ele><time>2026-04-11T11:07:59.858Z</time></trkpt><trkpt lat="40.9341533" lon="14.021455"><ele>8.0</ele><time>2026-04-11T11:08:00.858Z</time></trkpt><trkpt lat="40.9340683" lon="14.0215017"><ele>8.0</ele><time>2026-04-11T11:08:01.868Z</time></trkpt><trkpt lat="40.933985" lon="14.021555"><ele>8.4</ele><time>2026-04-11T11:08:02.859Z</time></trkpt><trkpt lat="40.9339033" lon="14.0216067"><ele>8.8</ele><time>2026-04-11T11:08:03.858Z</time></trkpt><trkpt lat="40.9338233" lon="14.0216567"><ele>9.2</ele><time>2026-04-11T11:08:04.86Z</time></trkpt><trkpt lat="40.93374" lon="14.0217083"><ele>9.6</ele><time>2026-04-11T11:08:05.859Z</time></trkpt><trkpt lat="40.933655" lon="14.02176"><ele>10.0</ele><time>2026-04-11T11:08:06.859Z</time></trkpt><trkpt lat="40.9335717" lon="14.0218083"><ele>8.8</ele><time>2026-04-11T11:08:07.859Z</time></trkpt><trkpt lat="40.9334867" lon="14.0218533"><ele>7.6</ele><time>2026-04-11T11:08:08.859Z</time></trkpt><trkpt lat="40.9334" lon="14.0219"><ele>6.4</ele><time>2026-04-11T11:08:09.859Z</time></trkpt><trkpt lat="40.9333167" lon="14.021945"><ele>5.2</ele><time>2026-04-11T11:08:10.859Z</time></trkpt><trkpt lat="40.933235" lon="14.021995"><ele>4.0</ele><time>2026-04-11T11:08:11.86Z</time></trkpt><trkpt lat="40.9331517" lon="14.0220417"><ele>3.9999999999999996</ele><time>2026-04-11T11:08:12.86Z</time></trkpt><trkpt lat="40.93307" lon="14.0220883"><ele>4.0</ele><time>2026-04-11T11:08:13.859Z</time></trkpt><trkpt lat="40.9329917" lon="14.0221367"><ele>4.0</ele><time>2026-04-11T11:08:14.859Z</time></trkpt><trkpt lat="40.9329083" lon="14.022185"><ele>4.0</ele><time>2026-04-11T11:08:15.859Z</time></trkpt><trkpt lat="40.932825" lon="14.022235"><ele>3.9999999999999996</ele><time>2026-04-11T11:08:16.859Z</time></trkpt><trkpt lat="40.932745" lon="14.022285"><ele>4.0</ele><time>2026-04-11T11:08:17.86Z</time></trkpt><trkpt lat="40.932665" lon="14.0223333"><ele>3.9999999999999996</ele><time>2026-04-11T11:08:18.858Z</time></trkpt><trkpt lat="40.9325833" lon="14.0223783"><ele>4.0</ele><time>2026-04-11T11:08:19.858Z</time></trkpt><trkpt lat="40.9325017" lon="14.0224133"><ele>4.0</ele><time>2026-04-11T11:08:20.86Z</time></trkpt><trkpt lat="40.9324217" lon="14.02245"><ele>4.0</ele><time>2026-04-11T11:08:21.859Z</time></trkpt><trkpt lat="40.9323467" lon="14.022495"><ele>3.9999999999999996</ele><time>2026-04-11T11:08:22.86Z</time></trkpt><trkpt lat="40.9322667" lon="14.022545"><ele>4.0</ele><time>2026-04-11T11:08:23.86Z</time></trkpt><trkpt lat="40.9321867" lon="14.0225867"><ele>4.666666666666666</ele><time>2026-04-11T11:08:24.861Z</time></trkpt><trkpt lat="40.9321067" lon="14.0226267"><ele>5.333333333333333</ele><time>2026-04-11T11:08:25.86Z</time></trkpt><trkpt lat="40.9320267" lon="14.0226683"><ele>6.0</ele><time>2026-04-11T11:08:26.859Z</time></trkpt><trkpt lat="40.93195" lon="14.0227133"><ele>6.666666666666666</ele><time>2026-04-11T11:08:27.859Z</time></trkpt><trkpt lat="40.9318717" lon="14.0227567"><ele>7.333333333333333</ele><time>2026-04-11T11:08:28.858Z</time></trkpt><trkpt lat="40.9317933" lon="14.022805"><ele>8.0</ele><time>2026-04-11T11:08:29.859Z</time></trkpt><trkpt lat="40.9317133" lon="14.0228533"><ele>8.5</ele><time>2026-04-11T11:08:30.859Z</time></trkpt><trkpt lat="40.931635" lon="14.0229"><ele>9.0</ele><time>2026-04-11T11:08:31.86Z</time></trkpt><trkpt lat="40.9315567" lon="14.0229483"><ele>9.5</ele><time>2026-04-11T11:08:32.86Z</time></trkpt><trkpt lat="40.9314783" lon="14.0229967"><ele>10.0</ele><time>2026-04-11T11:08:33.858Z</time></trkpt><trkpt lat="40.9313983" lon="14.0230417"><ele>10.5</ele><time>2026-04-11T11:08:34.859Z</time></trkpt><trkpt lat="40.9313183" lon="14.0230883"><ele>11.0</ele><time>2026-04-11T11:08:35.858Z</time></trkpt><trkpt lat="40.93124" lon="14.0231267"><ele>11.0</ele><time>2026-04-11T11:08:36.861Z</time></trkpt><trkpt lat="40.9311617" lon="14.02317"><ele>11.0</ele><time>2026-04-11T11:08:37.859Z</time></trkpt><trkpt lat="40.931085" lon="14.023215"><ele>11.0</ele><time>2026-04-11T11:08:38.858Z</time></trkpt><trkpt lat="40.9310083" lon="14.023265"><ele>11.0</ele><time>2026-04-11T11:08:39.858Z</time></trkpt><trkpt lat="40.9309333" lon="14.023315"><ele>11.0</ele><time>2026-04-11T11:08:40.86Z</time></trkpt><trkpt lat="40.930855" lon="14.0233617"><ele>11.0</ele><time>2026-04-11T11:08:41.861Z</time></trkpt><trkpt lat="40.9307783" lon="14.023405"><ele>10.5</ele><time>2026-04-11T11:08:42.861Z</time></trkpt><trkpt lat="40.9307017" lon="14.0234483"><ele>10.0</ele><time>2026-04-11T11:08:43.859Z</time></trkpt><trkpt lat="40.9306233" lon="14.0234933"><ele>9.5</ele><time>2026-04-11T11:08:44.858Z</time></trkpt><trkpt lat="40.930545" lon="14.023535"><ele>9.0</ele><time>2026-04-11T11:08:45.859Z</time></trkpt><trkpt lat="40.9304667" lon="14.0235767"><ele>8.5</ele><time>2026-04-11T11:08:46.859Z</time></trkpt><trkpt lat="40.93039" lon="14.023625"><ele>8.0</ele><time>2026-04-11T11:08:47.86Z</time></trkpt><trkpt lat="40.9303133" lon="14.023675"><ele>7.999999999999999</ele><time>2026-04-11T11:08:48.859Z</time></trkpt><trkpt lat="40.9302367" lon="14.0237217"><ele>8.0</ele><time>2026-04-11T11:08:49.858Z</time></trkpt><trkpt lat="40.9301617" lon="14.023775"><ele>8.0</ele><time>2026-04-11T11:08:50.858Z</time></trkpt><trkpt lat="40.930085" lon="14.0238233"><ele>8.0</ele><time>2026-04-11T11:08:51.859Z</time></trkpt><trkpt lat="40.9300083" lon="14.02387"><ele>7.999999999999999</ele><time>2026-04-11T11:08:52.859Z</time></trkpt><trkpt lat="40.9299267" lon="14.023905"><ele>8.0</ele><time>2026-04-11T11:08:53.86Z</time></trkpt><trkpt lat="40.9298467" lon="14.0239483"><ele>7.666666666666666</ele><time>2026-04-11T11:08:54.859Z</time></trkpt><trkpt lat="40.9297667" lon="14.0239983"><ele>7.333333333333333</ele><time>2026-04-11T11:08:55.859Z</time></trkpt><trkpt lat="40.9296867" lon="14.024045"><ele>7.0</ele><time>2026-04-11T11:08:56.859Z</time></trkpt><trkpt lat="40.9296083" lon="14.0240883"><ele>6.666666666666666</ele><time>2026-04-11T11:08:57.858Z</time></trkpt><trkpt lat="40.9295283" lon="14.0241333"><ele>6.333333333333333</ele><time>2026-04-11T11:08:58.859Z</time></trkpt><trkpt lat="40.9294483" lon="14.0241783"><ele>6.0</ele><time>2026-04-11T11:08:59.86Z</time></trkpt><trkpt lat="40.9293667" lon="14.0242217"><ele>6.0</ele><time>2026-04-11T11:09:00.86Z</time></trkpt><trkpt lat="40.9292867" lon="14.0242633"><ele>6.0</ele><time>2026-04-11T11:09:01.859Z</time></trkpt><trkpt lat="40.9292067" lon="14.0243083"><ele>6.0</ele><time>2026-04-11T11:09:02.86Z</time></trkpt><trkpt lat="40.929125" lon="14.024355"><ele>6.0</ele><time>2026-04-11T11:09:03.859Z</time></trkpt><trkpt lat="40.9290417" lon="14.024395"><ele>6.0</ele><time>2026-04-11T11:09:04.859Z</time></trkpt><trkpt lat="40.92896" lon="14.0244317"><ele>6.0</ele><time>2026-04-11T11:09:05.859Z</time></trkpt><trkpt lat="40.9288767" lon="14.02447"><ele>6.833333333333333</ele><time>2026-04-11T11:09:06.858Z</time></trkpt><trkpt lat="40.9287967" lon="14.0245083"><ele>7.666666666666666</ele><time>2026-04-11T11:09:07.86Z</time></trkpt><trkpt lat="40.928715" lon="14.0245433"><ele>8.5</ele><time>2026-04-11T11:09:08.86Z</time></trkpt><trkpt lat="40.9286333" lon="14.0245783"><ele>9.333333333333332</ele><time>2026-04-11T11:09:09.858Z</time></trkpt><trkpt lat="40.92855" lon="14.024605"><ele>10.166666666666666</ele><time>2026-04-11T11:09:10.859Z</time></trkpt><trkpt lat="40.9284683" lon="14.02463"><ele>11.0</ele><time>2026-04-11T11:09:11.86Z</time></trkpt><trkpt lat="40.928385" lon="14.0246567"><ele>11.166666666666666</ele><time>2026-04-11T11:09:12.859Z</time></trkpt><trkpt lat="40.9283" lon="14.024675"><ele>11.333333333333332</ele><time>2026-04-11T11:09:13.859Z</time></trkpt><trkpt lat="40.9282167" lon="14.0246933"><ele>11.5</ele><time>2026-04-11T11:09:14.861Z</time></trkpt><trkpt lat="40.9281333" lon="14.024715"><ele>11.666666666666666</ele><time>2026-04-11T11:09:15.86Z</time></trkpt><trkpt lat="40.9280517" lon="14.02473"><ele>11.833333333333334</ele><time>2026-04-11T11:09:16.86Z</time></trkpt><trkpt lat="40.9279717" lon="14.0247433"><ele>12.0</ele><time>2026-04-11T11:09:17.86Z</time></trkpt><trkpt lat="40.927895" lon="14.0247567"><ele>12.0</ele><time>2026-04-11T11:09:18.86Z</time></trkpt><trkpt lat="40.9278167" lon="14.0247733"><ele>12.0</ele><time>2026-04-11T11:09:19.86Z</time></trkpt><trkpt lat="40.9277417" lon="14.0247817"><ele>12.0</ele><time>2026-04-11T11:09:20.86Z</time></trkpt><trkpt lat="40.9276667" lon="14.0247867"><ele>12.0</ele><time>2026-04-11T11:09:21.86Z</time></trkpt><trkpt lat="40.92759" lon="14.024795"><ele>12.0</ele><time>2026-04-11T11:09:22.86Z</time></trkpt><trkpt lat="40.9275117" lon="14.0248067"><ele>12.0</ele><time>2026-04-11T11:09:23.858Z</time></trkpt><trkpt lat="40.9274333" lon="14.0248183"><ele>11.833333333333334</ele><time>2026-04-11T11:09:24.86Z</time></trkpt><trkpt lat="40.9273567" lon="14.0248267"><ele>11.666666666666666</ele><time>2026-04-11T11:09:25.861Z</time></trkpt><trkpt lat="40.9272783" lon="14.024835"><ele>11.5</ele><time>2026-04-11T11:09:26.86Z</time></trkpt><trkpt lat="40.9271967" lon="14.0248417"><ele>11.333333333333332</ele><time>2026-04-11T11:09:27.858Z</time></trkpt><trkpt lat="40.9271133" lon="14.0248467"><ele>11.166666666666666</ele><time>2026-04-11T11:09:28.86Z</time></trkpt><trkpt lat="40.92703" lon="14.0248583"><ele>11.0</ele><time>2026-04-11T11:09:29.86Z</time></trkpt><trkpt lat="40.9269483" lon="14.0248633"><ele>11.0</ele><time>2026-04-11T11:09:30.86Z</time></trkpt><trkpt lat="40.9268667" lon="14.024865"><ele>11.0</ele><time>2026-04-11T11:09:31.86Z</time></trkpt><trkpt lat="40.92678" lon="14.024865"><ele>11.0</ele><time>2026-04-11T11:09:32.86Z</time></trkpt><trkpt lat="40.9266967" lon="14.0248567"><ele>11.0</ele><time>2026-04-11T11:09:33.86Z</time></trkpt><trkpt lat="40.9266117" lon="14.0248467"><ele>11.0</ele><time>2026-04-11T11:09:34.859Z</time></trkpt><trkpt lat="40.9265283" lon="14.02484"><ele>11.0</ele><time>2026-04-11T11:09:35.86Z</time></trkpt><trkpt lat="40.9264483" lon="14.0248333"><ele>11.0</ele><time>2026-04-11T11:09:36.859Z</time></trkpt><trkpt lat="40.92637" lon="14.0248267"><ele>11.0</ele><time>2026-04-11T11:09:37.86Z</time></trkpt><trkpt lat="40.9262917" lon="14.0248217"><ele>11.0</ele><time>2026-04-11T11:09:38.859Z</time></trkpt><trkpt lat="40.926215" lon="14.0248217"><ele>11.0</ele><time>2026-04-11T11:09:39.86Z</time></trkpt><trkpt lat="40.9261383" lon="14.02482"><ele>11.0</ele><time>2026-04-11T11:09:40.86Z</time></trkpt><trkpt lat="40.9260633" lon="14.0248167"><ele>11.0</ele><time>2026-04-11T11:09:41.86Z</time></trkpt><trkpt lat="40.9259833" lon="14.0248117"><ele>11.0</ele><time>2026-04-11T11:09:42.86Z</time></trkpt><trkpt lat="40.9259067" lon="14.0248067"><ele>11.0</ele><time>2026-04-11T11:09:43.859Z</time></trkpt><trkpt lat="40.9258283" lon="14.0247983"><ele>11.0</ele><time>2026-04-11T11:09:44.859Z</time></trkpt><trkpt lat="40.9257467" lon="14.024785"><ele>11.0</ele><time>2026-04-11T11:09:45.86Z</time></trkpt><trkpt lat="40.925665" lon="14.0247783"><ele>11.0</ele><time>2026-04-11T11:09:46.859Z</time></trkpt><trkpt lat="40.92558" lon="14.024775"><ele>11.0</ele><time>2026-04-11T11:09:47.859Z</time></trkpt><trkpt lat="40.9254983" lon="14.0247717"><ele>11.166666666666666</ele><time>2026-04-11T11:09:48.86Z</time></trkpt><trkpt lat="40.9254167" lon="14.024765"><ele>11.333333333333332</ele><time>2026-04-11T11:09:49.859Z</time></trkpt><trkpt lat="40.92534" lon="14.0247533"><ele>11.5</ele><time>2026-04-11T11:09:50.86Z</time></trkpt><trkpt lat="40.9252633" lon="14.0247467"><ele>11.666666666666666</ele><time>2026-04-11T11:09:51.86Z</time></trkpt><trkpt lat="40.925185" lon="14.0247433"><ele>11.833333333333334</ele><time>2026-04-11T11:09:52.859Z</time></trkpt><trkpt lat="40.9251033" lon="14.024735"><ele>12.0</ele><time>2026-04-11T11:09:53.861Z</time></trkpt><trkpt lat="40.9250217" lon="14.0247317"><ele>11.5</ele><time>2026-04-11T11:09:54.859Z</time></trkpt><trkpt lat="40.9249417" lon="14.024725"><ele>11.0</ele><time>2026-04-11T11:09:55.86Z</time></trkpt><trkpt lat="40.9248617" lon="14.0247167"><ele>10.5</ele><time>2026-04-11T11:09:56.86Z</time></trkpt><trkpt lat="40.924785" lon="14.02471"><ele>10.0</ele><time>2026-04-11T11:09:57.858Z</time></trkpt><trkpt lat="40.9247083" lon="14.0246983"><ele>9.5</ele><time>2026-04-11T11:09:58.86Z</time></trkpt><trkpt lat="40.92463" lon="14.0246917"><ele>9.0</ele><time>2026-04-11T11:09:59.859Z</time></trkpt><trkpt lat="40.9245533" lon="14.0246883"><ele>9.0</ele><time>2026-04-11T11:10:00.86Z</time></trkpt><trkpt lat="40.924475" lon="14.0246833"><ele>9.0</ele><time>2026-04-11T11:10:01.859Z</time></trkpt><trkpt lat="40.924395" lon="14.0246783"><ele>9.0</ele><time>2026-04-11T11:10:02.86Z</time></trkpt><trkpt lat="40.924315" lon="14.0246733"><ele>9.0</ele><time>2026-04-11T11:10:03.86Z</time></trkpt><trkpt lat="40.9242367" lon="14.024665"><ele>9.0</ele><time>2026-04-11T11:10:04.857Z</time></trkpt><trkpt lat="40.9241567" lon="14.0246567"><ele>9.0</ele><time>2026-04-11T11:10:05.86Z</time></trkpt><trkpt lat="40.9240767" lon="14.024655"><ele>8.833333333333334</ele><time>2026-04-11T11:10:06.86Z</time></trkpt><trkpt lat="40.924" lon="14.0246533"><ele>8.666666666666666</ele><time>2026-04-11T11:10:07.86Z</time></trkpt><trkpt lat="40.9239267" lon="14.0246483"><ele>8.5</ele><time>2026-04-11T11:10:08.857Z</time></trkpt><trkpt lat="40.92385" lon="14.0246417"><ele>8.333333333333332</ele><time>2026-04-11T11:10:09.859Z</time></trkpt><trkpt lat="40.92377" lon="14.0246367"><ele>8.166666666666666</ele><time>2026-04-11T11:10:10.859Z</time></trkpt><trkpt lat="40.92369" lon="14.0246267"><ele>8.0</ele><time>2026-04-11T11:10:11.86Z</time></trkpt><trkpt lat="40.92361" lon="14.0246183"><ele>7.999999999999999</ele><time>2026-04-11T11:10:12.86Z</time></trkpt><trkpt lat="40.92353" lon="14.02461"><ele>8.0</ele><time>2026-04-11T11:10:13.861Z</time></trkpt><trkpt lat="40.9234517" lon="14.0246017"><ele>8.0</ele><time>2026-04-11T11:10:14.859Z</time></trkpt><trkpt lat="40.9233733" lon="14.0245917"><ele>8.0</ele><time>2026-04-11T11:10:15.859Z</time></trkpt><trkpt lat="40.9232967" lon="14.024585"><ele>7.999999999999999</ele><time>2026-04-11T11:10:16.86Z</time></trkpt><trkpt lat="40.92322" lon="14.0245783"><ele>8.0</ele><time>2026-04-11T11:10:17.86Z</time></trkpt><trkpt lat="40.9231483" lon="14.024575"><ele>7.428571428571428</ele><time>2026-04-11T11:10:18.86Z</time></trkpt><trkpt lat="40.923075" lon="14.0245667"><ele>6.857142857142856</ele><time>2026-04-11T11:10:19.859Z</time></trkpt><trkpt lat="40.9230017" lon="14.0245567"><ele>6.285714285714286</ele><time>2026-04-11T11:10:20.86Z</time></trkpt><trkpt lat="40.92293" lon="14.0245483"><ele>5.7142857142857135</ele><time>2026-04-11T11:10:21.859Z</time></trkpt><trkpt lat="40.922855" lon="14.0245433"><ele>5.142857142857142</ele><time>2026-04-11T11:10:22.86Z</time></trkpt><trkpt lat="40.9227817" lon="14.0245417"><ele>4.571428571428571</ele><time>2026-04-11T11:10:23.86Z</time></trkpt><trkpt lat="40.922705" lon="14.0245383"><ele>4.0</ele><time>2026-04-11T11:10:24.86Z</time></trkpt><trkpt lat="40.9226267" lon="14.0245333"><ele>3.8571428571428568</ele><time>2026-04-11T11:10:25.86Z</time></trkpt><trkpt lat="40.92255" lon="14.02453"><ele>3.714285714285714</ele><time>2026-04-11T11:10:26.859Z</time></trkpt><trkpt lat="40.9224767" lon="14.0245267"><ele>3.571428571428571</ele><time>2026-04-11T11:10:27.859Z</time></trkpt><trkpt lat="40.9224017" lon="14.0245183"><ele>3.4285714285714284</ele><time>2026-04-11T11:10:28.86Z</time></trkpt><trkpt lat="40.92233" lon="14.0245083"><ele>3.2857142857142856</ele><time>2026-04-11T11:10:29.861Z</time></trkpt><trkpt lat="40.9222533" lon="14.0245"><ele>3.1428571428571423</ele><time>2026-04-11T11:10:30.86Z</time></trkpt><trkpt lat="40.92218" lon="14.024495"><ele>3.0</ele><time>2026-04-11T11:10:31.86Z</time></trkpt><trkpt lat="40.92211" lon="14.0244917"><ele>2.9999999999999996</ele><time>2026-04-11T11:10:32.857Z</time></trkpt><trkpt lat="40.92204" lon="14.024485"><ele>3.0</ele><time>2026-04-11T11:10:33.857Z</time></trkpt><trkpt lat="40.9219683" lon="14.02448"><ele>3.0</ele><time>2026-04-11T11:10:34.857Z</time></trkpt><trkpt lat="40.921895" lon="14.0244733"><ele>3.0</ele><time>2026-04-11T11:10:35.859Z</time></trkpt><trkpt lat="40.9218283" lon="14.0244683"><ele>3.0</ele><time>2026-04-11T11:10:36.86Z</time></trkpt><trkpt lat="40.9217633" lon="14.0244617"><ele>2.9999999999999996</ele><time>2026-04-11T11:10:37.859Z</time></trkpt><trkpt lat="40.921695" lon="14.0244533"><ele>3.0</ele><time>2026-04-11T11:10:38.859Z</time></trkpt><trkpt lat="40.9216283" lon="14.02445"><ele>3.1666666666666665</ele><time>2026-04-11T11:10:39.857Z</time></trkpt><trkpt lat="40.92156" lon="14.0244483"><ele>3.333333333333333</ele><time>2026-04-11T11:10:40.859Z</time></trkpt><trkpt lat="40.921495" lon="14.024445"><ele>3.5</ele><time>2026-04-11T11:10:41.859Z</time></trkpt><trkpt lat="40.92143" lon="14.0244383"><ele>3.6666666666666665</ele><time>2026-04-11T11:10:42.857Z</time></trkpt><trkpt lat="40.92131" lon="14.0244267"><ele>3.833333333333333</ele><time>2026-04-11T11:10:44.86Z</time></trkpt><trkpt lat="40.9212067" lon="14.02442"><ele>4.0</ele><time>2026-04-11T11:10:46.859Z</time></trkpt><trkpt lat="40.92114" lon="14.024385"><ele>4.0</ele><time>2026-04-11T11:10:48.859Z</time></trkpt><trkpt lat="40.9211183" lon="14.0243067"><ele>3.9999999999999996</ele><time>2026-04-11T11:10:50.859Z</time></trkpt><trkpt lat="40.921055" lon="14.0242817"><ele>4.0</ele><time>2026-04-11T11:11:49.859Z</time></trkpt><trkpt lat="40.9210533" lon="14.0241717"><ele>4.0</ele><time>2026-04-11T11:12:08.858Z</time></trkpt><trkpt lat="40.9210133" lon="14.024105"><ele>3.9999999999999996</ele><time>2026-04-11T11:13:28.858Z</time></trkpt><trkpt lat="40.9209817" lon="14.02419"><ele>4.0</ele><time>2026-04-11T11:13:35.86Z</time></trkpt><trkpt lat="40.9210067" lon="14.0242783"><ele>4.0</ele><time>2026-04-11T11:13:46.856Z</time></trkpt><trkpt lat="40.92104" lon="14.0241817"><ele>4.0</ele><time>2026-04-11T11:14:01.858Z</time></trkpt><trkpt lat="40.9211033" lon="14.0241917"><ele>3.9999999999999996</ele><time>2026-04-11T11:14:32.859Z</time></trkpt><trkpt lat="40.9210833" lon="14.024295"><ele>4.0</ele><time>2026-04-11T11:14:35.857Z</time></trkpt><trkpt lat="40.9210583" lon="14.024425"><ele>4.0</ele><time>2026-04-11T11:14:39.857Z</time></trkpt><trkpt lat="40.9210833" lon="14.0245017"><ele>3.9999999999999996</ele><time>2026-04-11T11:14:41.856Z</time></trkpt><trkpt lat="40.9211017" lon="14.0244217"><ele>4.0</ele><time>2026-04-11T11:14:46.858Z</time></trkpt><trkpt lat="40.9210883" lon="14.0243233"><ele>4.0</ele><time>2026-04-11T11:14:48.914Z</time></trkpt><trkpt lat="40.9211133" lon="14.0242383"><ele>3.9999999999999996</ele><time>2026-04-11T11:14:55.863Z</time></trkpt><trkpt lat="40.92109" lon="14.02432"><ele>4.0</ele><time>2026-04-11T11:14:58.856Z</time></trkpt><trkpt lat="40.9210417" lon="14.0242633"><ele>4.0</ele><time>2026-04-11T11:15:00.857Z</time></trkpt><trkpt lat="40.921105" lon="14.0241717"><ele>4.0</ele><time>2026-04-11T11:15:36.858Z</time></trkpt><trkpt lat="40.921035" lon="14.024155"><ele>3.9999999999999996</ele><time>2026-04-11T11:15:42.858Z</time></trkpt><trkpt lat="40.9210167" lon="14.0243267"><ele>4.0</ele><time>2026-04-11T11:15:48.856Z</time></trkpt><trkpt lat="40.9209667" lon="14.024195"><ele>4.0</ele><time>2026-04-11T11:15:49.859Z</time></trkpt><trkpt lat="40.9211067" lon="14.0241617"><ele>4.0</ele><time>2026-04-11T11:15:54.858Z</time></trkpt><trkpt lat="40.9212267" lon="14.0241567"><ele>4.0</ele><time>2026-04-11T11:15:56.872Z</time></trkpt><trkpt lat="40.9212983" lon="14.0241483"><ele>4.0</ele><time>2026-04-11T11:15:58.859Z</time></trkpt><trkpt lat="40.9212517" lon="14.0242417"><ele>4.0</ele><time>2026-04-11T11:16:03.859Z</time></trkpt><trkpt lat="40.92119" lon="14.0242083"><ele>3.9999999999999996</ele><time>2026-04-11T11:16:04.856Z</time></trkpt><trkpt lat="40.9211067" lon="14.02416"><ele>4.0</ele><time>2026-04-11T11:16:06.859Z</time></trkpt><trkpt lat="40.92113" lon="14.0240667"><ele>4.0</ele><time>2026-04-11T11:16:16.859Z</time></trkpt><trkpt lat="40.9210467" lon="14.0239433"><ele>4.0</ele><time>2026-04-11T11:16:31.858Z</time></trkpt><trkpt lat="40.9210117" lon="14.02402"><ele>3.9999999999999996</ele><time>2026-04-11T11:16:37.858Z</time></trkpt><trkpt lat="40.9210833" lon="14.0239883"><ele>4.0</ele><time>2026-04-11T11:16:55.858Z</time></trkpt><trkpt lat="40.9211583" lon="14.0240017"><ele>3.9999999999999996</ele><time>2026-04-11T11:16:57.858Z</time></trkpt><trkpt lat="40.92124" lon="14.0239783"><ele>4.0</ele><time>2026-04-11T11:17:01.857Z</time></trkpt><trkpt lat="40.9211733" lon="14.0240717"><ele>4.0</ele><time>2026-04-11T11:17:06.857Z</time></trkpt><trkpt lat="40.921065" lon="14.0241433"><ele>4.0</ele><time>2026-04-11T11:17:09.857Z</time></trkpt><trkpt lat="40.9210317" lon="14.024215"><ele>3.9999999999999996</ele><time>2026-04-11T11:17:25.857Z</time></trkpt><trkpt lat="40.9210717" lon="14.0243067"><ele>4.0</ele><time>2026-04-11T11:17:29.86Z</time></trkpt><trkpt lat="40.9210967" lon="14.0244117"><ele>3.9999999999999996</ele><time>2026-04-11T11:17:31.858Z</time></trkpt><trkpt lat="40.921135" lon="14.0245233"><ele>4.0</ele><time>2026-04-11T11:17:33.858Z</time></trkpt><trkpt lat="40.921155" lon="14.0246033"><ele>4.0</ele><time>2026-04-11T11:17:35.857Z</time></trkpt><trkpt lat="40.92122" lon="14.02458"><ele>4.0</ele><time>2026-04-11T11:17:38.859Z</time></trkpt><trkpt lat="40.9212383" lon="14.0246617"><ele>3.9999999999999996</ele><time>2026-04-11T11:17:41.858Z</time></trkpt><trkpt lat="40.9211717" lon="14.0244967"><ele>4.0</ele><time>2026-04-11T11:17:47.857Z</time></trkpt><trkpt lat="40.921135" lon="14.0244283"><ele>3.9999999999999996</ele><time>2026-04-11T11:17:51.857Z</time></trkpt><trkpt lat="40.9210783" lon="14.02431"><ele>4.0</ele><time>2026-04-11T11:18:09.858Z</time></trkpt><trkpt lat="40.9210467" lon="14.0241667"><ele>4.0</ele><time>2026-04-11T11:18:11.858Z</time></trkpt><trkpt lat="40.9210867" lon="14.02424"><ele>4.0</ele><time>2026-04-11T11:18:18.857Z</time></trkpt><trkpt lat="40.921135" lon="14.0243267"><ele>3.9999999999999996</ele><time>2026-04-11T11:18:26.857Z</time></trkpt><trkpt lat="40.921185" lon="14.0244"><ele>4.0</ele><time>2026-04-11T11:18:30.857Z</time></trkpt><trkpt lat="40.9212567" lon="14.0244117"><ele>4.0</ele><time>2026-04-11T11:18:42.859Z</time></trkpt><trkpt lat="40.9210894" lon="14.0242082"><ele>4.0</ele><time>2026-04-11T11:18:56.915Z</time></trkpt><trkpt lat="40.9208233" lon="14.0256133"><ele>4.0</ele><time>2026-04-11T11:19:24.857Z</time></trkpt><trkpt lat="40.9208933" lon="14.0257317"><ele>4.0</ele><time>2026-04-11T11:19:26.857Z</time></trkpt><trkpt lat="40.9209467" lon="14.02581"><ele>4.0</ele><time>2026-04-11T11:19:27.856Z</time></trkpt><trkpt lat="40.921095" lon="14.0260733"><ele>4.0</ele><time>2026-04-11T11:19:29.856Z</time></trkpt><trkpt lat="40.9210914" lon="14.024203"><ele>4.0</ele><time>2026-04-11T11:19:45.351Z</time></trkpt><trkpt lat="40.921195" lon="14.024395"><ele>4.0</ele><time>2026-04-11T11:20:32.857Z</time></trkpt><trkpt lat="40.921165" lon="14.0244983"><ele>4.0</ele><time>2026-04-11T11:20:35.856Z</time></trkpt><trkpt lat="40.9211383" lon="14.024605"><ele>4.0</ele><time>2026-04-11T11:20:39.859Z</time></trkpt><trkpt lat="40.9211767" lon="14.02477"><ele>4.0</ele><time>2026-04-11T11:20:41.857Z</time></trkpt><trkpt lat="40.9211983" lon="14.0248533"><ele>3.9999999999999996</ele><time>2026-04-11T11:20:42.86Z</time></trkpt><trkpt lat="40.9212517" lon="14.0247933"><ele>4.0</ele><time>2026-04-11T11:20:51.856Z</time></trkpt><trkpt lat="40.9211983" lon="14.0246717"><ele>4.0</ele><time>2026-04-11T11:20:59.858Z</time></trkpt><trkpt lat="40.9211683" lon="14.0245967"><ele>3.9999999999999996</ele><time>2026-04-11T11:21:00.857Z</time></trkpt><trkpt lat="40.92112" lon="14.024665"><ele>4.0</ele><time>2026-04-11T11:21:08.859Z</time></trkpt><trkpt lat="40.9211133" lon="14.0247567"><ele>4.0</ele><time>2026-04-11T11:21:10.857Z</time></trkpt><trkpt lat="40.9210667" lon="14.02497"><ele>4.0</ele><time>2026-04-11T11:21:15.861Z</time></trkpt><trkpt lat="40.9213717" lon="14.0244467"><ele>4.0</ele><time>2026-04-11T11:21:30.858Z</time></trkpt><trkpt lat="40.921325" lon="14.02438"><ele>4.0</ele><time>2026-04-11T11:21:31.859Z</time></trkpt><trkpt lat="40.9210183" lon="14.02424"><ele>4.0</ele><time>2026-04-11T11:21:35.859Z</time></trkpt><trkpt lat="40.9210967" lon="14.0242217"><ele>3.9999999999999996</ele><time>2026-04-11T11:21:51.858Z</time></trkpt><trkpt lat="40.921185" lon="14.02424"><ele>4.0</ele><time>2026-04-11T11:23:43.86Z</time></trkpt><trkpt lat="40.9211767" lon="14.0243483"><ele>4.0</ele><time>2026-04-11T11:26:19.858Z</time></trkpt><trkpt lat="40.9211133" lon="14.0244133"><ele>4.0</ele><time>2026-04-11T11:26:23.857Z</time></trkpt><trkpt lat="40.9210233" lon="14.0243983"><ele>3.9999999999999996</ele><time>2026-04-11T11:26:26.857Z</time></trkpt><trkpt lat="40.920945" lon="14.0243883"><ele>4.0</ele><time>2026-04-11T11:26:28.858Z</time></trkpt><trkpt lat="40.9208583" lon="14.024385"><ele>4.4</ele><time>2026-04-11T11:26:30.857Z</time></trkpt><trkpt lat="40.9207533" lon="14.0243783"><ele>4.800000000000001</ele><time>2026-04-11T11:26:32.858Z</time></trkpt><trkpt lat="40.9206333" lon="14.02437"><ele>5.199999999999999</ele><time>2026-04-11T11:26:34.858Z</time></trkpt><trkpt lat="40.9204983" lon="14.0243583"><ele>5.6</ele><time>2026-04-11T11:26:36.859Z</time></trkpt><trkpt lat="40.9204333" lon="14.024355"><ele>6.0</ele><time>2026-04-11T11:26:37.857Z</time></trkpt><trkpt lat="40.9203633" lon="14.0243517"><ele>5.999999999999999</ele><time>2026-04-11T11:26:38.857Z</time></trkpt><trkpt lat="40.920295" lon="14.0243483"><ele>6.0</ele><time>2026-04-11T11:26:39.858Z</time></trkpt><trkpt lat="40.9202267" lon="14.02434"><ele>6.0</ele><time>2026-04-11T11:26:40.859Z</time></trkpt><trkpt lat="40.9201633" lon="14.0243333"><ele>6.0</ele><time>2026-04-11T11:26:41.858Z</time></trkpt><trkpt lat="40.9200983" lon="14.02433"><ele>6.0</ele><time>2026-04-11T11:26:42.858Z</time></trkpt><trkpt lat="40.920035" lon="14.0243283"><ele>5.999999999999999</ele><time>2026-04-11T11:26:43.858Z</time></trkpt><trkpt lat="40.9199617" lon="14.0243233"><ele>6.0</ele><time>2026-04-11T11:26:44.858Z</time></trkpt><trkpt lat="40.919895" lon="14.024325"><ele>6.0</ele><time>2026-04-11T11:26:45.858Z</time></trkpt><trkpt lat="40.91983" lon="14.02433"><ele>6.0</ele><time>2026-04-11T11:26:46.858Z</time></trkpt><trkpt lat="40.919765" lon="14.0243383"><ele>6.0</ele><time>2026-04-11T11:26:47.858Z</time></trkpt><trkpt lat="40.919645" lon="14.024365"><ele>6.0</ele><time>2026-04-11T11:26:49.857Z</time></trkpt><trkpt lat="40.91953" lon="14.0243933"><ele>6.0</ele><time>2026-04-11T11:26:51.857Z</time></trkpt><trkpt lat="40.91942" lon="14.024435"><ele>6.0</ele><time>2026-04-11T11:26:53.857Z</time></trkpt><trkpt lat="40.9193117" lon="14.0244817"><ele>6.0</ele><time>2026-04-11T11:26:55.857Z</time></trkpt><trkpt lat="40.9192033" lon="14.0245333"><ele>6.0</ele><time>2026-04-11T11:26:57.857Z</time></trkpt><trkpt lat="40.9191017" lon="14.0245967"><ele>6.0</ele><time>2026-04-11T11:26:59.856Z</time></trkpt><trkpt lat="40.9190083" lon="14.024665"><ele>6.0</ele><time>2026-04-11T11:27:01.858Z</time></trkpt><trkpt lat="40.9189233" lon="14.0247383"><ele>6.0</ele><time>2026-04-11T11:27:03.856Z</time></trkpt><trkpt lat="40.9188433" lon="14.0248267"><ele>6.0</ele><time>2026-04-11T11:27:05.858Z</time></trkpt><trkpt lat="40.9187683" lon="14.0249217"><ele>6.0</ele><time>2026-04-11T11:27:07.856Z</time></trkpt><trkpt lat="40.9186917" lon="14.0250233"><ele>6.0</ele><time>2026-04-11T11:27:09.858Z</time></trkpt><trkpt lat="40.91862" lon="14.0251233"><ele>6.0</ele><time>2026-04-11T11:27:11.857Z</time></trkpt><trkpt lat="40.918545" lon="14.02522"><ele>5.8</ele><time>2026-04-11T11:27:13.859Z</time></trkpt><trkpt lat="40.9184783" lon="14.0253233"><ele>5.6</ele><time>2026-04-11T11:27:15.857Z</time></trkpt><trkpt lat="40.9184217" lon="14.02543"><ele>5.4</ele><time>2026-04-11T11:27:17.86Z</time></trkpt><trkpt lat="40.9183633" lon="14.0255433"><ele>5.2</ele><time>2026-04-11T11:27:19.858Z</time></trkpt><trkpt lat="40.9183083" lon="14.0256633"><ele>5.0</ele><time>2026-04-11T11:27:21.857Z</time></trkpt><trkpt lat="40.9182583" lon="14.0257933"><ele>4.8</ele><time>2026-04-11T11:27:23.857Z</time></trkpt><trkpt lat="40.9182167" lon="14.0259317"><ele>4.6</ele><time>2026-04-11T11:27:25.858Z</time></trkpt><trkpt lat="40.9181883" lon="14.02607"><ele>4.4</ele><time>2026-04-11T11:27:27.858Z</time></trkpt><trkpt lat="40.9181617" lon="14.02621"><ele>4.2</ele><time>2026-04-11T11:27:29.857Z</time></trkpt><trkpt lat="40.9181417" lon="14.026345"><ele>4.0</ele><time>2026-04-11T11:27:31.859Z</time></trkpt><trkpt lat="40.9181267" lon="14.0264783"><ele>4.0</ele><time>2026-04-11T11:27:33.857Z</time></trkpt><trkpt lat="40.9181167" lon="14.0266117"><ele>4.0</ele><time>2026-04-11T11:27:35.858Z</time></trkpt><trkpt lat="40.918105" lon="14.0267483"><ele>4.0</ele><time>2026-04-11T11:27:37.857Z</time></trkpt><trkpt lat="40.9180967" lon="14.0268933"><ele>4.0</ele><time>2026-04-11T11:27:39.858Z</time></trkpt><trkpt lat="40.9180917" lon="14.0269783"><ele>4.0</ele><time>2026-04-11T11:27:40.858Z</time></trkpt><trkpt lat="40.9180783" lon="14.02713"><ele>3.75</ele><time>2026-04-11T11:27:42.857Z</time></trkpt><trkpt lat="40.91807" lon="14.027285"><ele>3.5</ele><time>2026-04-11T11:27:44.859Z</time></trkpt><trkpt lat="40.9180583" lon="14.0274367"><ele>3.25</ele><time>2026-04-11T11:27:46.856Z</time></trkpt><trkpt lat="40.918045" lon="14.0275933"><ele>3.0</ele><time>2026-04-11T11:27:48.857Z</time></trkpt><trkpt lat="40.9180317" lon="14.027755"><ele>2.8</ele><time>2026-04-11T11:27:50.858Z</time></trkpt><trkpt lat="40.9180183" lon="14.0279133"><ele>2.5999999999999996</ele><time>2026-04-11T11:27:52.858Z</time></trkpt><trkpt lat="40.9180067" lon="14.0280717"><ele>2.4000000000000004</ele><time>2026-04-11T11:27:54.858Z</time></trkpt><trkpt lat="40.9179983" lon="14.028155"><ele>2.2</ele><time>2026-04-11T11:27:55.859Z</time></trkpt><trkpt lat="40.9179817" lon="14.0283167"><ele>2.0</ele><time>2026-04-11T11:27:57.858Z</time></trkpt><trkpt lat="40.917965" lon="14.0284767"><ele>2.8</ele><time>2026-04-11T11:27:59.859Z</time></trkpt><trkpt lat="40.9179483" lon="14.0286383"><ele>3.6</ele><time>2026-04-11T11:28:01.859Z</time></trkpt><trkpt lat="40.9179233" lon="14.028805"><ele>4.3999999999999995</ele><time>2026-04-11T11:28:03.856Z</time></trkpt><trkpt lat="40.91791" lon="14.0289683"><ele>5.2</ele><time>2026-04-11T11:28:05.859Z</time></trkpt><trkpt lat="40.9179033" lon="14.0290583"><ele>6.0</ele><time>2026-04-11T11:28:06.858Z</time></trkpt><trkpt lat="40.917895" lon="14.0291483"><ele>6.857142857142857</ele><time>2026-04-11T11:28:07.857Z</time></trkpt><trkpt lat="40.9178867" lon="14.0292367"><ele>7.7142857142857135</ele><time>2026-04-11T11:28:08.858Z</time></trkpt><trkpt lat="40.91788" lon="14.029325"><ele>8.571428571428571</ele><time>2026-04-11T11:28:09.858Z</time></trkpt><trkpt lat="40.9178717" lon="14.0294133"><ele>9.428571428571427</ele><time>2026-04-11T11:28:10.86Z</time></trkpt><trkpt lat="40.9178667" lon="14.0294983"><ele>10.285714285714285</ele><time>2026-04-11T11:28:11.859Z</time></trkpt><trkpt lat="40.917865" lon="14.0295867"><ele>11.142857142857142</ele><time>2026-04-11T11:28:12.857Z</time></trkpt><trkpt lat="40.9178667" lon="14.0296717"><ele>12.0</ele><time>2026-04-11T11:28:13.858Z</time></trkpt><trkpt lat="40.917865" lon="14.02976"><ele>11.999999999999998</ele><time>2026-04-11T11:28:14.858Z</time></trkpt><trkpt lat="40.917855" lon="14.02985"><ele>12.0</ele><time>2026-04-11T11:28:15.858Z</time></trkpt><trkpt lat="40.9178367" lon="14.0299367"><ele>12.0</ele><time>2026-04-11T11:28:16.858Z</time></trkpt><trkpt lat="40.917815" lon="14.030025"><ele>12.0</ele><time>2026-04-11T11:28:17.859Z</time></trkpt><trkpt lat="40.9177983" lon="14.0301167"><ele>12.0</ele><time>2026-04-11T11:28:18.858Z</time></trkpt><trkpt lat="40.917785" lon="14.03021"><ele>11.999999999999998</ele><time>2026-04-11T11:28:19.858Z</time></trkpt><trkpt lat="40.917775" lon="14.0303033"><ele>12.0</ele><time>2026-04-11T11:28:20.859Z</time></trkpt><trkpt lat="40.9177667" lon="14.0304017"><ele>12.0</ele><time>2026-04-11T11:28:21.858Z</time></trkpt><trkpt lat="40.9177617" lon="14.0305"><ele>12.0</ele><time>2026-04-11T11:28:22.859Z</time></trkpt><trkpt lat="40.9177567" lon="14.0305983"><ele>12.0</ele><time>2026-04-11T11:28:23.856Z</time></trkpt><trkpt lat="40.9177517" lon="14.0306983"><ele>12.0</ele><time>2026-04-11T11:28:24.858Z</time></trkpt><trkpt lat="40.917745" lon="14.0308"><ele>12.0</ele><time>2026-04-11T11:28:25.857Z</time></trkpt><trkpt lat="40.91774" lon="14.0309"><ele>12.0</ele><time>2026-04-11T11:28:26.859Z</time></trkpt><trkpt lat="40.917735" lon="14.0309983"><ele>11.833333333333334</ele><time>2026-04-11T11:28:27.857Z</time></trkpt><trkpt lat="40.9177317" lon="14.0311"><ele>11.666666666666666</ele><time>2026-04-11T11:28:28.857Z</time></trkpt><trkpt lat="40.9177233" lon="14.0312033"><ele>11.5</ele><time>2026-04-11T11:28:29.857Z</time></trkpt><trkpt lat="40.9177183" lon="14.0313017"><ele>11.333333333333332</ele><time>2026-04-11T11:28:30.861Z</time></trkpt><trkpt lat="40.917705" lon="14.0314017"><ele>11.166666666666666</ele><time>2026-04-11T11:28:31.857Z</time></trkpt><trkpt lat="40.9176883" lon="14.0315017"><ele>11.0</ele><time>2026-04-11T11:28:32.857Z</time></trkpt><trkpt lat="40.9176767" lon="14.0316083"><ele>11.166666666666666</ele><time>2026-04-11T11:28:33.857Z</time></trkpt><trkpt lat="40.917665" lon="14.0317083"><ele>11.333333333333332</ele><time>2026-04-11T11:28:34.858Z</time></trkpt><trkpt lat="40.9176517" lon="14.03181"><ele>11.5</ele><time>2026-04-11T11:28:35.857Z</time></trkpt><trkpt lat="40.91764" lon="14.0319133"><ele>11.666666666666666</ele><time>2026-04-11T11:28:36.858Z</time></trkpt><trkpt lat="40.9176217" lon="14.0320217"><ele>11.833333333333334</ele><time>2026-04-11T11:28:37.858Z</time></trkpt><trkpt lat="40.9176067" lon="14.03213"><ele>12.0</ele><time>2026-04-11T11:28:38.859Z</time></trkpt><trkpt lat="40.9175967" lon="14.0322383"><ele>12.0</ele><time>2026-04-11T11:28:39.859Z</time></trkpt><trkpt lat="40.9175867" lon="14.0323433"><ele>12.0</ele><time>2026-04-11T11:28:40.857Z</time></trkpt><trkpt lat="40.9175767" lon="14.03245"><ele>12.0</ele><time>2026-04-11T11:28:41.859Z</time></trkpt><trkpt lat="40.9175683" lon="14.0325567"><ele>12.0</ele><time>2026-04-11T11:28:42.858Z</time></trkpt><trkpt lat="40.9175533" lon="14.0326633"><ele>12.0</ele><time>2026-04-11T11:28:43.857Z</time></trkpt><trkpt lat="40.9175417" lon="14.0327683"><ele>12.0</ele><time>2026-04-11T11:28:44.856Z</time></trkpt><trkpt lat="40.91753" lon="14.0328717"><ele>12.0</ele><time>2026-04-11T11:28:45.858Z</time></trkpt><trkpt lat="40.9175167" lon="14.0329783"><ele>12.0</ele><time>2026-04-11T11:28:46.857Z</time></trkpt><trkpt lat="40.9175017" lon="14.0330867"><ele>12.0</ele><time>2026-04-11T11:28:47.86Z</time></trkpt><trkpt lat="40.9174883" lon="14.0331983"><ele>12.0</ele><time>2026-04-11T11:28:48.858Z</time></trkpt><trkpt lat="40.91748" lon="14.03331"><ele>12.0</ele><time>2026-04-11T11:28:49.86Z</time></trkpt><trkpt lat="40.917465" lon="14.0334233"><ele>12.0</ele><time>2026-04-11T11:28:50.859Z</time></trkpt><trkpt lat="40.9174517" lon="14.033535"><ele>12.0</ele><time>2026-04-11T11:28:51.86Z</time></trkpt><trkpt lat="40.9174383" lon="14.0336483"><ele>12.0</ele><time>2026-04-11T11:28:52.859Z</time></trkpt><trkpt lat="40.9174283" lon="14.0337633"><ele>12.0</ele><time>2026-04-11T11:28:53.858Z</time></trkpt><trkpt lat="40.917415" lon="14.03388"><ele>12.0</ele><time>2026-04-11T11:28:54.858Z</time></trkpt><trkpt lat="40.9173967" lon="14.0339917"><ele>12.0</ele><time>2026-04-11T11:28:55.863Z</time></trkpt><trkpt lat="40.917375" lon="14.0341"><ele>12.0</ele><time>2026-04-11T11:28:56.859Z</time></trkpt><trkpt lat="40.9173483" lon="14.0342033"><ele>11.666666666666666</ele><time>2026-04-11T11:28:57.858Z</time></trkpt><trkpt lat="40.9173167" lon="14.0343067"><ele>11.333333333333334</ele><time>2026-04-11T11:28:58.858Z</time></trkpt><trkpt lat="40.9172817" lon="14.034405"><ele>11.0</ele><time>2026-04-11T11:28:59.858Z</time></trkpt><trkpt lat="40.91724" lon="14.0345067"><ele>10.666666666666668</ele><time>2026-04-11T11:29:00.857Z</time></trkpt><trkpt lat="40.917195" lon="14.0346033"><ele>10.333333333333334</ele><time>2026-04-11T11:29:01.858Z</time></trkpt><trkpt lat="40.9171517" lon="14.0347017"><ele>10.0</ele><time>2026-04-11T11:29:02.858Z</time></trkpt><trkpt lat="40.9170983" lon="14.0348"><ele>10.0</ele><time>2026-04-11T11:29:03.858Z</time></trkpt><trkpt lat="40.9170417" lon="14.034895"><ele>10.0</ele><time>2026-04-11T11:29:04.859Z</time></trkpt><trkpt lat="40.9169817" lon="14.034985"><ele>10.0</ele><time>2026-04-11T11:29:05.858Z</time></trkpt><trkpt lat="40.9169167" lon="14.0350717"><ele>10.0</ele><time>2026-04-11T11:29:06.859Z</time></trkpt><trkpt lat="40.9168467" lon="14.0351567"><ele>10.0</ele><time>2026-04-11T11:29:07.858Z</time></trkpt><trkpt lat="40.9167717" lon="14.0352367"><ele>9.0</ele><time>2026-04-11T11:29:08.858Z</time></trkpt><trkpt lat="40.9166933" lon="14.0353133"><ele>8.0</ele><time>2026-04-11T11:29:09.856Z</time></trkpt><trkpt lat="40.9166117" lon="14.0353883"><ele>7.0</ele><time>2026-04-11T11:29:10.858Z</time></trkpt><trkpt lat="40.9165267" lon="14.0354567"><ele>6.0</ele><time>2026-04-11T11:29:11.858Z</time></trkpt><trkpt lat="40.9164417" lon="14.0355167"><ele>5.0</ele><time>2026-04-11T11:29:12.859Z</time></trkpt><trkpt lat="40.9163517" lon="14.0355683"><ele>5.0</ele><time>2026-04-11T11:29:13.859Z</time></trkpt><trkpt lat="40.9162617" lon="14.0356217"><ele>5.0</ele><time>2026-04-11T11:29:14.858Z</time></trkpt><trkpt lat="40.9161717" lon="14.0356617"><ele>5.0</ele><time>2026-04-11T11:29:15.858Z</time></trkpt><trkpt lat="40.91608" lon="14.0356967"><ele>5.0</ele><time>2026-04-11T11:29:16.858Z</time></trkpt><trkpt lat="40.9159883" lon="14.0357267"><ele>5.0</ele><time>2026-04-11T11:29:17.858Z</time></trkpt><trkpt lat="40.9158967" lon="14.0357533"><ele>4.666666666666667</ele><time>2026-04-11T11:29:18.858Z</time></trkpt><trkpt lat="40.9158067" lon="14.0357783"><ele>4.333333333333334</ele><time>2026-04-11T11:29:19.858Z</time></trkpt><trkpt lat="40.9157183" lon="14.0358017"><ele>4.0</ele><time>2026-04-11T11:29:20.857Z</time></trkpt><trkpt lat="40.9156333" lon="14.0358267"><ele>3.666666666666667</ele><time>2026-04-11T11:29:21.858Z</time></trkpt><trkpt lat="40.9155483" lon="14.0358533"><ele>3.3333333333333335</ele><time>2026-04-11T11:29:22.858Z</time></trkpt><trkpt lat="40.915465" lon="14.0358783"><ele>3.0</ele><time>2026-04-11T11:29:23.858Z</time></trkpt><trkpt lat="40.9153817" lon="14.0359033"><ele>3.0</ele><time>2026-04-11T11:29:24.858Z</time></trkpt><trkpt lat="40.9152983" lon="14.0359283"><ele>3.0</ele><time>2026-04-11T11:29:25.858Z</time></trkpt><trkpt lat="40.9152167" lon="14.0359517"><ele>3.0</ele><time>2026-04-11T11:29:26.858Z</time></trkpt><trkpt lat="40.9151383" lon="14.0359733"><ele>3.0</ele><time>2026-04-11T11:29:27.857Z</time></trkpt><trkpt lat="40.9150617" lon="14.0359967"><ele>3.0</ele><time>2026-04-11T11:29:28.859Z</time></trkpt><trkpt lat="40.914985" lon="14.03602"><ele>3.0</ele><time>2026-04-11T11:29:29.859Z</time></trkpt><trkpt lat="40.914905" lon="14.0360433"><ele>2.5</ele><time>2026-04-11T11:29:30.858Z</time></trkpt><trkpt lat="40.9148267" lon="14.0360667"><ele>2.0</ele><time>2026-04-11T11:29:31.859Z</time></trkpt><trkpt lat="40.9147467" lon="14.0360883"><ele>1.5</ele><time>2026-04-11T11:29:32.856Z</time></trkpt><trkpt lat="40.9146683" lon="14.03611"><ele>1.0</ele><time>2026-04-11T11:29:33.857Z</time></trkpt><trkpt lat="40.9145917" lon="14.0361367"><ele>0.5</ele><time>2026-04-11T11:29:34.858Z</time></trkpt><trkpt lat="40.9145167" lon="14.03616"><ele>0.0</ele><time>2026-04-11T11:29:35.858Z</time></trkpt><trkpt lat="40.91445" lon="14.0361833"><ele>0.0</ele><time>2026-04-11T11:29:36.858Z</time></trkpt><trkpt lat="40.9143833" lon="14.0362083"><ele>0.0</ele><time>2026-04-11T11:29:37.857Z</time></trkpt><trkpt lat="40.9143133" lon="14.0362317"><ele>0.0</ele><time>2026-04-11T11:29:38.858Z</time></trkpt><trkpt lat="40.914245" lon="14.0362567"><ele>0.0</ele><time>2026-04-11T11:29:39.858Z</time></trkpt><trkpt lat="40.91418" lon="14.0362817"><ele>0.0</ele><time>2026-04-11T11:29:40.857Z</time></trkpt><trkpt lat="40.9141133" lon="14.0363067"><ele>0.0</ele><time>2026-04-11T11:29:41.858Z</time></trkpt><trkpt lat="40.9140483" lon="14.0363267"><ele>0.0</ele><time>2026-04-11T11:29:42.858Z</time></trkpt><trkpt lat="40.9139833" lon="14.0363483"><ele>0.2857142857142857</ele><time>2026-04-11T11:29:43.858Z</time></trkpt><trkpt lat="40.9139183" lon="14.03637"><ele>0.5714285714285714</ele><time>2026-04-11T11:29:44.858Z</time></trkpt><trkpt lat="40.9138533" lon="14.0363933"><ele>0.8571428571428571</ele><time>2026-04-11T11:29:45.856Z</time></trkpt><trkpt lat="40.9137883" lon="14.036415"><ele>1.1428571428571428</ele><time>2026-04-11T11:29:46.859Z</time></trkpt><trkpt lat="40.9137217" lon="14.0364367"><ele>1.4285714285714284</ele><time>2026-04-11T11:29:47.858Z</time></trkpt><trkpt lat="40.91365" lon="14.0364583"><ele>1.7142857142857142</ele><time>2026-04-11T11:29:48.858Z</time></trkpt><trkpt lat="40.9135817" lon="14.0364767"><ele>2.0</ele><time>2026-04-11T11:29:49.858Z</time></trkpt><trkpt lat="40.9135133" lon="14.03649"><ele>2.0</ele><time>2026-04-11T11:29:50.858Z</time></trkpt><trkpt lat="40.9134467" lon="14.0365017"><ele>1.9999999999999998</ele><time>2026-04-11T11:29:51.858Z</time></trkpt><trkpt lat="40.9133817" lon="14.0365183"><ele>2.0</ele><time>2026-04-11T11:29:52.859Z</time></trkpt><trkpt lat="40.9133183" lon="14.03654"><ele>2.0</ele><time>2026-04-11T11:29:53.858Z</time></trkpt><trkpt lat="40.9132517" lon="14.0365617"><ele>1.9999999999999998</ele><time>2026-04-11T11:29:54.858Z</time></trkpt><trkpt lat="40.91318" lon="14.036585"><ele>2.0</ele><time>2026-04-11T11:29:55.858Z</time></trkpt><trkpt lat="40.91311" lon="14.036605"><ele>2.0</ele><time>2026-04-11T11:29:56.858Z</time></trkpt><trkpt lat="40.9130417" lon="14.036625"><ele>2.0</ele><time>2026-04-11T11:29:57.858Z</time></trkpt><trkpt lat="40.9129717" lon="14.0366467"><ele>1.9999999999999998</ele><time>2026-04-11T11:29:58.86Z</time></trkpt><trkpt lat="40.9129017" lon="14.0366683"><ele>2.0</ele><time>2026-04-11T11:29:59.857Z</time></trkpt><trkpt lat="40.9128367" lon="14.0366883"><ele>2.0</ele><time>2026-04-11T11:30:00.858Z</time></trkpt><trkpt lat="40.9127717" lon="14.0367033"><ele>1.9999999999999998</ele><time>2026-04-11T11:30:01.857Z</time></trkpt><trkpt lat="40.912705" lon="14.0367233"><ele>2.0</ele><time>2026-04-11T11:30:02.856Z</time></trkpt><trkpt lat="40.9126367" lon="14.0367417"><ele>2.0</ele><time>2026-04-11T11:30:03.857Z</time></trkpt><trkpt lat="40.9125617" lon="14.0367617"><ele>2.0</ele><time>2026-04-11T11:30:04.858Z</time></trkpt><trkpt lat="40.9124867" lon="14.0367817"><ele>1.9999999999999998</ele><time>2026-04-11T11:30:05.859Z</time></trkpt><trkpt lat="40.9124183" lon="14.0368033"><ele>2.0</ele><time>2026-04-11T11:30:06.858Z</time></trkpt><trkpt lat="40.91235" lon="14.0368267"><ele>2.0</ele><time>2026-04-11T11:30:07.86Z</time></trkpt><trkpt lat="40.9122783" lon="14.0368533"><ele>1.9999999999999998</ele><time>2026-04-11T11:30:08.859Z</time></trkpt><trkpt lat="40.9122033" lon="14.0368767"><ele>2.0</ele><time>2026-04-11T11:30:09.858Z</time></trkpt><trkpt lat="40.9121333" lon="14.0369017"><ele>2.0</ele><time>2026-04-11T11:30:10.858Z</time></trkpt><trkpt lat="40.912065" lon="14.036925"><ele>2.0</ele><time>2026-04-11T11:30:11.857Z</time></trkpt><trkpt lat="40.9119967" lon="14.036945"><ele>1.9999999999999998</ele><time>2026-04-11T11:30:12.858Z</time></trkpt><trkpt lat="40.9119267" lon="14.036965"><ele>2.0</ele><time>2026-04-11T11:30:13.858Z</time></trkpt><trkpt lat="40.9118583" lon="14.03699"><ele>2.0</ele><time>2026-04-11T11:30:14.859Z</time></trkpt><trkpt lat="40.9117933" lon="14.0370133"><ele>1.9999999999999998</ele><time>2026-04-11T11:30:15.859Z</time></trkpt><trkpt lat="40.9117283" lon="14.0370417"><ele>2.0</ele><time>2026-04-11T11:30:16.859Z</time></trkpt><trkpt lat="40.9116467" lon="14.037065"><ele>2.0</ele><time>2026-04-11T11:30:17.86Z</time></trkpt><trkpt lat="40.9115783" lon="14.0370867"><ele>1.7142857142857142</ele><time>2026-04-11T11:30:18.857Z</time></trkpt><trkpt lat="40.91151" lon="14.0371067"><ele>1.4285714285714284</ele><time>2026-04-11T11:30:19.859Z</time></trkpt><trkpt lat="40.9114417" lon="14.0371283"><ele>1.1428571428571428</ele><time>2026-04-11T11:30:20.859Z</time></trkpt><trkpt lat="40.9113733" lon="14.0371517"><ele>0.8571428571428571</ele><time>2026-04-11T11:30:21.857Z</time></trkpt><trkpt lat="40.9113033" lon="14.0371733"><ele>0.5714285714285714</ele><time>2026-04-11T11:30:22.859Z</time></trkpt><trkpt lat="40.9112367" lon="14.0371983"><ele>0.2857142857142857</ele><time>2026-04-11T11:30:23.859Z</time></trkpt><trkpt lat="40.9111683" lon="14.03722"><ele>0.0</ele><time>2026-04-11T11:30:24.858Z</time></trkpt><trkpt lat="40.9111" lon="14.0372417"><ele>0.0</ele><time>2026-04-11T11:30:25.858Z</time></trkpt><trkpt lat="40.9110317" lon="14.03726"><ele>0.0</ele><time>2026-04-11T11:30:26.858Z</time></trkpt><trkpt lat="40.91096" lon="14.03728"><ele>0.0</ele><time>2026-04-11T11:30:27.858Z</time></trkpt><trkpt lat="40.91089" lon="14.0373017"><ele>0.0</ele><time>2026-04-11T11:30:28.859Z</time></trkpt><trkpt lat="40.9108167" lon="14.03732"><ele>0.0</ele><time>2026-04-11T11:30:29.859Z</time></trkpt><trkpt lat="40.9107467" lon="14.0373383"><ele>0.0</ele><time>2026-04-11T11:30:30.859Z</time></trkpt><trkpt lat="40.91068" lon="14.0373567"><ele>0.0</ele><time>2026-04-11T11:30:31.859Z</time></trkpt><trkpt lat="40.91061" lon="14.037375"><ele>0.0</ele><time>2026-04-11T11:30:32.858Z</time></trkpt><trkpt lat="40.9105433" lon="14.0373933"><ele>0.0</ele><time>2026-04-11T11:30:33.859Z</time></trkpt><trkpt lat="40.910475" lon="14.03741"><ele>0.0</ele><time>2026-04-11T11:30:34.858Z</time></trkpt><trkpt lat="40.9104017" lon="14.0374317"><ele>0.0</ele><time>2026-04-11T11:30:35.859Z</time></trkpt><trkpt lat="40.9103283" lon="14.0374583"><ele>0.0</ele><time>2026-04-11T11:30:36.858Z</time></trkpt><trkpt lat="40.910255" lon="14.03748"><ele>0.0</ele><time>2026-04-11T11:30:37.858Z</time></trkpt><trkpt lat="40.9101817" lon="14.0374983"><ele>0.0</ele><time>2026-04-11T11:30:38.857Z</time></trkpt><trkpt lat="40.9101067" lon="14.0375217"><ele>0.14285714285714285</ele><time>2026-04-11T11:30:39.858Z</time></trkpt><trkpt lat="40.91004" lon="14.0375467"><ele>0.2857142857142857</ele><time>2026-04-11T11:30:40.858Z</time></trkpt><trkpt lat="40.9099667" lon="14.0375683"><ele>0.42857142857142855</ele><time>2026-04-11T11:30:41.858Z</time></trkpt><trkpt lat="40.9098933" lon="14.0375917"><ele>0.5714285714285714</ele><time>2026-04-11T11:30:42.858Z</time></trkpt><trkpt lat="40.9098217" lon="14.037615"><ele>0.7142857142857142</ele><time>2026-04-11T11:30:43.859Z</time></trkpt><trkpt lat="40.9097483" lon="14.0376367"><ele>0.8571428571428571</ele><time>2026-04-11T11:30:44.858Z</time></trkpt><trkpt lat="40.9096767" lon="14.03766"><ele>1.0</ele><time>2026-04-11T11:30:45.86Z</time></trkpt><trkpt lat="40.9096033" lon="14.03768"><ele>1.0</ele><time>2026-04-11T11:30:46.858Z</time></trkpt><trkpt lat="40.9095283" lon="14.0377017"><ele>0.9999999999999999</ele><time>2026-04-11T11:30:47.86Z</time></trkpt><trkpt lat="40.90946" lon="14.0377233"><ele>1.0</ele><time>2026-04-11T11:30:48.858Z</time></trkpt><trkpt lat="40.90939" lon="14.037745"><ele>1.0</ele><time>2026-04-11T11:30:49.858Z</time></trkpt><trkpt lat="40.90932" lon="14.037765"><ele>0.9999999999999999</ele><time>2026-04-11T11:30:50.858Z</time></trkpt><trkpt lat="40.9092467" lon="14.0377867"><ele>1.0</ele><time>2026-04-11T11:30:51.859Z</time></trkpt><trkpt lat="40.9091717" lon="14.0378033"><ele>1.0</ele><time>2026-04-11T11:30:52.857Z</time></trkpt><trkpt lat="40.9090967" lon="14.0378167"><ele>0.7142857142857142</ele><time>2026-04-11T11:30:53.858Z</time></trkpt><trkpt lat="40.9090233" lon="14.037835"><ele>0.4285714285714285</ele><time>2026-04-11T11:30:54.859Z</time></trkpt><trkpt lat="40.9089517" lon="14.0378533"><ele>0.14285714285714285</ele><time>2026-04-11T11:30:55.858Z</time></trkpt><trkpt lat="40.9088783" lon="14.03787"><ele>-0.14285714285714285</ele><time>2026-04-11T11:30:56.859Z</time></trkpt><trkpt lat="40.9088033" lon="14.0378883"><ele>-0.4285714285714285</ele><time>2026-04-11T11:30:57.858Z</time></trkpt><trkpt lat="40.90873" lon="14.03791"><ele>-0.7142857142857142</ele><time>2026-04-11T11:30:58.859Z</time></trkpt><trkpt lat="40.9086583" lon="14.0379317"><ele>-1.0</ele><time>2026-04-11T11:30:59.858Z</time></trkpt><trkpt lat="40.908585" lon="14.0379533"><ele>-1.0</ele><time>2026-04-11T11:31:00.859Z</time></trkpt><trkpt lat="40.9085117" lon="14.037975"><ele>-0.9999999999999999</ele><time>2026-04-11T11:31:01.859Z</time></trkpt><trkpt lat="40.9084383" lon="14.037995"><ele>-1.0</ele><time>2026-04-11T11:31:02.858Z</time></trkpt><trkpt lat="40.90837" lon="14.0380167"><ele>-1.0</ele><time>2026-04-11T11:31:03.861Z</time></trkpt><trkpt lat="40.9083" lon="14.0380367"><ele>-0.9999999999999999</ele><time>2026-04-11T11:31:04.861Z</time></trkpt><trkpt lat="40.9082283" lon="14.0380583"><ele>-1.0</ele><time>2026-04-11T11:31:05.858Z</time></trkpt><trkpt lat="40.90816" lon="14.03808"><ele>-1.0</ele><time>2026-04-11T11:31:06.857Z</time></trkpt><trkpt lat="40.90809" lon="14.0381033"><ele>-0.6666666666666666</ele><time>2026-04-11T11:31:07.857Z</time></trkpt><trkpt lat="40.9080217" lon="14.038125"><ele>-0.3333333333333333</ele><time>2026-04-11T11:31:08.857Z</time></trkpt><trkpt lat="40.9079517" lon="14.03815"><ele>0.0</ele><time>2026-04-11T11:31:09.857Z</time></trkpt><trkpt lat="40.9078767" lon="14.0381783"><ele>0.3333333333333333</ele><time>2026-04-11T11:31:10.859Z</time></trkpt><trkpt lat="40.9078033" lon="14.0382033"><ele>0.6666666666666666</ele><time>2026-04-11T11:31:11.859Z</time></trkpt><trkpt lat="40.9077267" lon="14.03823"><ele>1.0</ele><time>2026-04-11T11:31:12.858Z</time></trkpt><trkpt lat="40.90765" lon="14.0382567"><ele>0.9999999999999999</ele><time>2026-04-11T11:31:13.859Z</time></trkpt><trkpt lat="40.9075733" lon="14.0382817"><ele>1.0</ele><time>2026-04-11T11:31:14.859Z</time></trkpt><trkpt lat="40.9075" lon="14.0383033"><ele>1.0</ele><time>2026-04-11T11:31:15.857Z</time></trkpt><trkpt lat="40.907425" lon="14.0383283"><ele>1.0</ele><time>2026-04-11T11:31:16.858Z</time></trkpt><trkpt lat="40.9073517" lon="14.0383517"><ele>0.9999999999999999</ele><time>2026-04-11T11:31:17.858Z</time></trkpt><trkpt lat="40.9072767" lon="14.0383733"><ele>1.0</ele><time>2026-04-11T11:31:18.858Z</time></trkpt><trkpt lat="40.907205" lon="14.038395"><ele>1.0</ele><time>2026-04-11T11:31:19.859Z</time></trkpt><trkpt lat="40.907135" lon="14.0384183"><ele>0.9999999999999999</ele><time>2026-04-11T11:31:20.857Z</time></trkpt><trkpt lat="40.9070633" lon="14.03844"><ele>1.0</ele><time>2026-04-11T11:31:21.858Z</time></trkpt><trkpt lat="40.9069967" lon="14.038465"><ele>1.0</ele><time>2026-04-11T11:31:22.858Z</time></trkpt><trkpt lat="40.9069217" lon="14.03849"><ele>0.9999999999999999</ele><time>2026-04-11T11:31:23.858Z</time></trkpt><trkpt lat="40.90685" lon="14.03851"><ele>1.0</ele><time>2026-04-11T11:31:24.858Z</time></trkpt><trkpt lat="40.906775" lon="14.0385283"><ele>1.0</ele><time>2026-04-11T11:31:25.859Z</time></trkpt><trkpt lat="40.9066983" lon="14.03855"><ele>0.9999999999999999</ele><time>2026-04-11T11:31:26.859Z</time></trkpt><trkpt lat="40.9066217" lon="14.0385733"><ele>1.0</ele><time>2026-04-11T11:31:27.859Z</time></trkpt><trkpt lat="40.9065483" lon="14.038595"><ele>1.0</ele><time>2026-04-11T11:31:28.858Z</time></trkpt><trkpt lat="40.906475" lon="14.0386183"><ele>1.0</ele><time>2026-04-11T11:31:29.858Z</time></trkpt><trkpt lat="40.9064017" lon="14.0386433"><ele>0.9999999999999999</ele><time>2026-04-11T11:31:30.86Z</time></trkpt><trkpt lat="40.9063267" lon="14.03867"><ele>1.0</ele><time>2026-04-11T11:31:31.859Z</time></trkpt><trkpt lat="40.906255" lon="14.0386933"><ele>0.9999999999999999</ele><time>2026-04-11T11:31:32.858Z</time></trkpt><trkpt lat="40.9061767" lon="14.0387133"><ele>1.0</ele><time>2026-04-11T11:31:33.858Z</time></trkpt><trkpt lat="40.9060933" lon="14.038735"><ele>1.0</ele><time>2026-04-11T11:31:34.858Z</time></trkpt><trkpt lat="40.9060167" lon="14.0387567"><ele>1.0</ele><time>2026-04-11T11:31:35.858Z</time></trkpt><trkpt lat="40.9059433" lon="14.0387833"><ele>0.9999999999999999</ele><time>2026-04-11T11:31:36.858Z</time></trkpt><trkpt lat="40.9058683" lon="14.0388083"><ele>1.0</ele><time>2026-04-11T11:31:37.858Z</time></trkpt><trkpt lat="40.9057917" lon="14.0388317"><ele>1.0</ele><time>2026-04-11T11:31:38.859Z</time></trkpt><trkpt lat="40.9057133" lon="14.0388517"><ele>0.9999999999999999</ele><time>2026-04-11T11:31:39.858Z</time></trkpt><trkpt lat="40.905635" lon="14.0388717"><ele>1.0</ele><time>2026-04-11T11:31:40.859Z</time></trkpt><trkpt lat="40.9055617" lon="14.03889"><ele>1.0</ele><time>2026-04-11T11:31:41.859Z</time></trkpt><trkpt lat="40.9054933" lon="14.0389117"><ele>0.9999999999999999</ele><time>2026-04-11T11:31:42.858Z</time></trkpt><trkpt lat="40.905425" lon="14.0389317"><ele>1.0</ele><time>2026-04-11T11:31:43.858Z</time></trkpt><trkpt lat="40.905355" lon="14.0389533"><ele>1.0</ele><time>2026-04-11T11:31:44.859Z</time></trkpt><trkpt lat="40.9052883" lon="14.038975"><ele>1.0</ele><time>2026-04-11T11:31:45.858Z</time></trkpt><trkpt lat="40.90522" lon="14.0389967"><ele>0.9999999999999999</ele><time>2026-04-11T11:31:46.857Z</time></trkpt><trkpt lat="40.9051483" lon="14.0390183"><ele>1.0</ele><time>2026-04-11T11:31:47.859Z</time></trkpt><trkpt lat="40.9050717" lon="14.039035"><ele>1.0</ele><time>2026-04-11T11:31:48.86Z</time></trkpt><trkpt lat="40.9050017" lon="14.0390567"><ele>0.9999999999999999</ele><time>2026-04-11T11:31:49.858Z</time></trkpt><trkpt lat="40.9049283" lon="14.0390783"><ele>1.0</ele><time>2026-04-11T11:31:50.86Z</time></trkpt><trkpt lat="40.9048567" lon="14.0390983"><ele>1.0</ele><time>2026-04-11T11:31:51.858Z</time></trkpt><trkpt lat="40.9047833" lon="14.0391167"><ele>0.9999999999999999</ele><time>2026-04-11T11:31:52.857Z</time></trkpt><trkpt lat="40.90471" lon="14.0391383"><ele>1.0</ele><time>2026-04-11T11:31:53.858Z</time></trkpt><trkpt lat="40.9046383" lon="14.0391633"><ele>1.0</ele><time>2026-04-11T11:31:54.859Z</time></trkpt><trkpt lat="40.9045633" lon="14.03919"><ele>1.0</ele><time>2026-04-11T11:31:55.86Z</time></trkpt><trkpt lat="40.904485" lon="14.0392067"><ele>0.9999999999999999</ele><time>2026-04-11T11:31:56.858Z</time></trkpt><trkpt lat="40.9044117" lon="14.0392267"><ele>1.0</ele><time>2026-04-11T11:31:57.858Z</time></trkpt><trkpt lat="40.9043367" lon="14.0392483"><ele>0.9999999999999999</ele><time>2026-04-11T11:31:58.857Z</time></trkpt><trkpt lat="40.9042633" lon="14.0392717"><ele>1.0</ele><time>2026-04-11T11:31:59.861Z</time></trkpt><trkpt lat="40.9041917" lon="14.0392967"><ele>1.0</ele><time>2026-04-11T11:32:00.859Z</time></trkpt><trkpt lat="40.9041167" lon="14.03932"><ele>1.0</ele><time>2026-04-11T11:32:01.86Z</time></trkpt><trkpt lat="40.90404" lon="14.0393417"><ele>0.9999999999999999</ele><time>2026-04-11T11:32:02.858Z</time></trkpt><trkpt lat="40.90397" lon="14.0393617"><ele>1.0</ele><time>2026-04-11T11:32:03.858Z</time></trkpt><trkpt lat="40.9038983" lon="14.0393817"><ele>1.0</ele><time>2026-04-11T11:32:04.858Z</time></trkpt><trkpt lat="40.9038283" lon="14.039405"><ele>0.9999999999999999</ele><time>2026-04-11T11:32:05.859Z</time></trkpt><trkpt lat="40.9037617" lon="14.0394317"><ele>1.0</ele><time>2026-04-11T11:32:06.858Z</time></trkpt><trkpt lat="40.9036933" lon="14.0394533"><ele>1.0</ele><time>2026-04-11T11:32:07.859Z</time></trkpt><trkpt lat="40.9036283" lon="14.0394767"><ele>0.9999999999999999</ele><time>2026-04-11T11:32:08.858Z</time></trkpt><trkpt lat="40.9035583" lon="14.0394967"><ele>1.0</ele><time>2026-04-11T11:32:09.859Z</time></trkpt><trkpt lat="40.9034867" lon="14.0395167"><ele>1.0</ele><time>2026-04-11T11:32:10.858Z</time></trkpt><trkpt lat="40.9034083" lon="14.03954"><ele>1.1428571428571428</ele><time>2026-04-11T11:32:11.858Z</time></trkpt><trkpt lat="40.903335" lon="14.0395617"><ele>1.2857142857142856</ele><time>2026-04-11T11:32:12.859Z</time></trkpt><trkpt lat="40.9032633" lon="14.03958"><ele>1.4285714285714284</ele><time>2026-04-11T11:32:13.859Z</time></trkpt><trkpt lat="40.9031917" lon="14.0396"><ele>1.5714285714285714</ele><time>2026-04-11T11:32:14.857Z</time></trkpt><trkpt lat="40.90312" lon="14.03962"><ele>1.714285714285714</ele><time>2026-04-11T11:32:15.859Z</time></trkpt><trkpt lat="40.903045" lon="14.0396383"><ele>1.857142857142857</ele><time>2026-04-11T11:32:16.858Z</time></trkpt><trkpt lat="40.9029733" lon="14.0396583"><ele>2.0</ele><time>2026-04-11T11:32:17.858Z</time></trkpt><trkpt lat="40.9029" lon="14.0396783"><ele>2.0</ele><time>2026-04-11T11:32:18.858Z</time></trkpt><trkpt lat="40.9028267" lon="14.039695"><ele>1.9999999999999998</ele><time>2026-04-11T11:32:19.858Z</time></trkpt><trkpt lat="40.9027533" lon="14.039715"><ele>2.0</ele><time>2026-04-11T11:32:20.862Z</time></trkpt><trkpt lat="40.90268" lon="14.03974"><ele>2.0</ele><time>2026-04-11T11:32:21.857Z</time></trkpt><trkpt lat="40.9026083" lon="14.0397617"><ele>1.9999999999999998</ele><time>2026-04-11T11:32:22.858Z</time></trkpt><trkpt lat="40.9025383" lon="14.0397817"><ele>2.0</ele><time>2026-04-11T11:32:23.859Z</time></trkpt><trkpt lat="40.9024667" lon="14.0398"><ele>2.0</ele><time>2026-04-11T11:32:24.858Z</time></trkpt><trkpt lat="40.9023933" lon="14.0398217"><ele>1.7142857142857142</ele><time>2026-04-11T11:32:25.859Z</time></trkpt><trkpt lat="40.9023233" lon="14.0398433"><ele>1.4285714285714284</ele><time>2026-04-11T11:32:26.859Z</time></trkpt><trkpt lat="40.9022517" lon="14.039865"><ele>1.1428571428571428</ele><time>2026-04-11T11:32:27.858Z</time></trkpt><trkpt lat="40.90218" lon="14.0398883"><ele>0.8571428571428571</ele><time>2026-04-11T11:32:28.858Z</time></trkpt><trkpt lat="40.9021083" lon="14.0399067"><ele>0.5714285714285714</ele><time>2026-04-11T11:32:29.859Z</time></trkpt><trkpt lat="40.902035" lon="14.039925"><ele>0.2857142857142857</ele><time>2026-04-11T11:32:30.859Z</time></trkpt><trkpt lat="40.9019617" lon="14.0399467"><ele>0.0</ele><time>2026-04-11T11:32:31.858Z</time></trkpt><trkpt lat="40.90189" lon="14.0399667"><ele>0.0</ele><time>2026-04-11T11:32:32.857Z</time></trkpt><trkpt lat="40.9018167" lon="14.0399883"><ele>0.0</ele><time>2026-04-11T11:32:33.858Z</time></trkpt><trkpt lat="40.9017433" lon="14.0400117"><ele>0.0</ele><time>2026-04-11T11:32:34.86Z</time></trkpt><trkpt lat="40.9016733" lon="14.04004"><ele>0.0</ele><time>2026-04-11T11:32:35.859Z</time></trkpt><trkpt lat="40.9016033" lon="14.0400617"><ele>0.0</ele><time>2026-04-11T11:32:36.863Z</time></trkpt><trkpt lat="40.9015317" lon="14.0400817"><ele>0.0</ele><time>2026-04-11T11:32:37.858Z</time></trkpt><trkpt lat="40.90146" lon="14.0401"><ele>0.0</ele><time>2026-04-11T11:32:38.857Z</time></trkpt><trkpt lat="40.9013867" lon="14.0401183"><ele>0.14285714285714285</ele><time>2026-04-11T11:32:39.858Z</time></trkpt><trkpt lat="40.9013167" lon="14.04014"><ele>0.2857142857142857</ele><time>2026-04-11T11:32:40.857Z</time></trkpt><trkpt lat="40.90125" lon="14.0401617"><ele>0.42857142857142855</ele><time>2026-04-11T11:32:41.86Z</time></trkpt><trkpt lat="40.901185" lon="14.0401867"><ele>0.5714285714285714</ele><time>2026-04-11T11:32:42.858Z</time></trkpt><trkpt lat="40.90112" lon="14.0402067"><ele>0.7142857142857142</ele><time>2026-04-11T11:32:43.859Z</time></trkpt><trkpt lat="40.9010517" lon="14.040225"><ele>0.8571428571428571</ele><time>2026-04-11T11:32:44.858Z</time></trkpt><trkpt lat="40.900985" lon="14.040245"><ele>1.0</ele><time>2026-04-11T11:32:45.858Z</time></trkpt><trkpt lat="40.9009233" lon="14.0402683"><ele>1.2000000000000002</ele><time>2026-04-11T11:32:46.858Z</time></trkpt><trkpt lat="40.9008617" lon="14.0402917"><ele>1.4000000000000001</ele><time>2026-04-11T11:32:47.859Z</time></trkpt><trkpt lat="40.9008" lon="14.0403117"><ele>1.6</ele><time>2026-04-11T11:32:48.858Z</time></trkpt><trkpt lat="40.9006783" lon="14.0403167"><ele>1.8</ele><time>2026-04-11T11:32:50.859Z</time></trkpt><trkpt lat="40.900565" lon="14.0403717"><ele>2.0</ele><time>2026-04-11T11:32:52.86Z</time></trkpt><trkpt lat="40.9004817" lon="14.0404917"><ele>2.0</ele><time>2026-04-11T11:32:54.859Z</time></trkpt><trkpt lat="40.90044" lon="14.04056"><ele>1.9999999999999998</ele><time>2026-04-11T11:32:55.86Z</time></trkpt><trkpt lat="40.9003933" lon="14.0406283"><ele>2.0</ele><time>2026-04-11T11:32:56.859Z</time></trkpt><trkpt lat="40.9003467" lon="14.040695"><ele>2.0</ele><time>2026-04-11T11:32:57.859Z</time></trkpt><trkpt lat="40.9003" lon="14.040765"><ele>1.9999999999999998</ele><time>2026-04-11T11:32:58.858Z</time></trkpt><trkpt lat="40.90025" lon="14.0408333"><ele>2.0</ele><time>2026-04-11T11:32:59.862Z</time></trkpt><trkpt lat="40.900195" lon="14.0408983"><ele>2.0</ele><time>2026-04-11T11:33:00.858Z</time></trkpt><trkpt lat="40.90014" lon="14.040965"><ele>1.9999999999999998</ele><time>2026-04-11T11:33:01.859Z</time></trkpt><trkpt lat="40.9000867" lon="14.0410333"><ele>2.0</ele><time>2026-04-11T11:33:02.858Z</time></trkpt><trkpt lat="40.90003" lon="14.0411017"><ele>2.0</ele><time>2026-04-11T11:33:03.858Z</time></trkpt><trkpt lat="40.8999733" lon="14.04117"><ele>2.0</ele><time>2026-04-11T11:33:04.858Z</time></trkpt><trkpt lat="40.8999167" lon="14.0412383"><ele>1.9999999999999998</ele><time>2026-04-11T11:33:05.861Z</time></trkpt><trkpt lat="40.89986" lon="14.0413067"><ele>2.0</ele><time>2026-04-11T11:33:06.858Z</time></trkpt><trkpt lat="40.8998067" lon="14.041375"><ele>2.0</ele><time>2026-04-11T11:33:07.858Z</time></trkpt><trkpt lat="40.8997533" lon="14.0414433"><ele>1.9999999999999998</ele><time>2026-04-11T11:33:08.857Z</time></trkpt><trkpt lat="40.8997" lon="14.0415117"><ele>2.0</ele><time>2026-04-11T11:33:09.857Z</time></trkpt><trkpt lat="40.8996483" lon="14.04158"><ele>2.0</ele><time>2026-04-11T11:33:10.86Z</time></trkpt><trkpt lat="40.8995967" lon="14.0416467"><ele>1.9999999999999998</ele><time>2026-04-11T11:33:11.858Z</time></trkpt><trkpt lat="40.8995467" lon="14.0417117"><ele>2.0</ele><time>2026-04-11T11:33:12.858Z</time></trkpt><trkpt lat="40.8994933" lon="14.04178"><ele>2.0</ele><time>2026-04-11T11:33:13.859Z</time></trkpt><trkpt lat="40.8994383" lon="14.0418467"><ele>2.142857142857143</ele><time>2026-04-11T11:33:14.858Z</time></trkpt><trkpt lat="40.8993867" lon="14.0419167"><ele>2.2857142857142856</ele><time>2026-04-11T11:33:15.858Z</time></trkpt><trkpt lat="40.8993383" lon="14.041985"><ele>2.4285714285714284</ele><time>2026-04-11T11:33:16.86Z</time></trkpt><trkpt lat="40.89929" lon="14.042055"><ele>2.571428571428571</ele><time>2026-04-11T11:33:17.858Z</time></trkpt><trkpt lat="40.89924" lon="14.0421233"><ele>2.7142857142857144</ele><time>2026-04-11T11:33:18.858Z</time></trkpt><trkpt lat="40.89919" lon="14.0421883"><ele>2.8571428571428568</ele><time>2026-04-11T11:33:19.858Z</time></trkpt><trkpt lat="40.8991333" lon="14.0422583"><ele>3.0</ele><time>2026-04-11T11:33:20.861Z</time></trkpt><trkpt lat="40.8990783" lon="14.042325"><ele>2.9999999999999996</ele><time>2026-04-11T11:33:21.858Z</time></trkpt><trkpt lat="40.899025" lon="14.0423933"><ele>3.0</ele><time>2026-04-11T11:33:22.858Z</time></trkpt><trkpt lat="40.89897" lon="14.04246"><ele>3.0</ele><time>2026-04-11T11:33:23.859Z</time></trkpt><trkpt lat="40.89892" lon="14.0425267"><ele>3.0</ele><time>2026-04-11T11:33:24.859Z</time></trkpt><trkpt lat="40.898865" lon="14.04259"><ele>3.0</ele><time>2026-04-11T11:33:25.859Z</time></trkpt><trkpt lat="40.8988117" lon="14.0426567"><ele>2.9999999999999996</ele><time>2026-04-11T11:33:26.859Z</time></trkpt><trkpt lat="40.8987617" lon="14.0427233"><ele>3.0</ele><time>2026-04-11T11:33:27.858Z</time></trkpt><trkpt lat="40.8987117" lon="14.04279"><ele>3.0</ele><time>2026-04-11T11:33:28.858Z</time></trkpt><trkpt lat="40.89866" lon="14.042855"><ele>3.0</ele><time>2026-04-11T11:33:29.858Z</time></trkpt><trkpt lat="40.8986017" lon="14.0429217"><ele>3.0</ele><time>2026-04-11T11:33:30.857Z</time></trkpt><trkpt lat="40.8985433" lon="14.0429867"><ele>3.0</ele><time>2026-04-11T11:33:31.859Z</time></trkpt><trkpt lat="40.898485" lon="14.0430517"><ele>3.0</ele><time>2026-04-11T11:33:32.857Z</time></trkpt><trkpt lat="40.89843" lon="14.0431167"><ele>3.0</ele><time>2026-04-11T11:33:33.858Z</time></trkpt><trkpt lat="40.8983733" lon="14.0431833"><ele>2.714285714285714</ele><time>2026-04-11T11:33:34.858Z</time></trkpt><trkpt lat="40.8983167" lon="14.04325"><ele>2.4285714285714284</ele><time>2026-04-11T11:33:35.859Z</time></trkpt><trkpt lat="40.8982567" lon="14.0433133"><ele>2.142857142857143</ele><time>2026-04-11T11:33:36.858Z</time></trkpt><trkpt lat="40.8981983" lon="14.04337"><ele>1.857142857142857</ele><time>2026-04-11T11:33:37.86Z</time></trkpt><trkpt lat="40.89814" lon="14.0434283"><ele>1.5714285714285712</ele><time>2026-04-11T11:33:38.86Z</time></trkpt><trkpt lat="40.89808" lon="14.0434833"><ele>1.2857142857142856</ele><time>2026-04-11T11:33:39.859Z</time></trkpt><trkpt lat="40.89802" lon="14.0435367"><ele>1.0</ele><time>2026-04-11T11:33:40.859Z</time></trkpt><trkpt lat="40.8979617" lon="14.0435883"><ele>1.0</ele><time>2026-04-11T11:33:41.859Z</time></trkpt><trkpt lat="40.8978967" lon="14.0436367"><ele>0.9999999999999999</ele><time>2026-04-11T11:33:42.858Z</time></trkpt><trkpt lat="40.8978317" lon="14.0436833"><ele>1.0</ele><time>2026-04-11T11:33:43.859Z</time></trkpt><trkpt lat="40.8977667" lon="14.0437283"><ele>1.0</ele><time>2026-04-11T11:33:44.859Z</time></trkpt><trkpt lat="40.8977017" lon="14.043765"><ele>0.9999999999999999</ele><time>2026-04-11T11:33:45.859Z</time></trkpt><trkpt lat="40.897635" lon="14.0438017"><ele>1.0</ele><time>2026-04-11T11:33:46.858Z</time></trkpt><trkpt lat="40.89757" lon="14.0438383"><ele>1.0</ele><time>2026-04-11T11:33:47.859Z</time></trkpt><trkpt lat="40.8975033" lon="14.0438717"><ele>1.0</ele><time>2026-04-11T11:33:48.859Z</time></trkpt><trkpt lat="40.8974367" lon="14.0439"><ele>0.9999999999999999</ele><time>2026-04-11T11:33:49.86Z</time></trkpt><trkpt lat="40.8973717" lon="14.0439283"><ele>1.0</ele><time>2026-04-11T11:33:50.857Z</time></trkpt><trkpt lat="40.8973017" lon="14.0439533"><ele>1.0</ele><time>2026-04-11T11:33:51.858Z</time></trkpt><trkpt lat="40.8972383" lon="14.0439783"><ele>0.9999999999999999</ele><time>2026-04-11T11:33:52.858Z</time></trkpt><trkpt lat="40.8971733" lon="14.0439983"><ele>1.0</ele><time>2026-04-11T11:33:53.859Z</time></trkpt><trkpt lat="40.897105" lon="14.0440183"><ele>1.0</ele><time>2026-04-11T11:33:54.859Z</time></trkpt><trkpt lat="40.8970383" lon="14.0440383"><ele>1.0</ele><time>2026-04-11T11:33:55.858Z</time></trkpt><trkpt lat="40.89697" lon="14.0440567"><ele>0.9999999999999999</ele><time>2026-04-11T11:33:56.859Z</time></trkpt><trkpt lat="40.8969033" lon="14.0440717"><ele>1.0</ele><time>2026-04-11T11:33:57.857Z</time></trkpt><trkpt lat="40.896835" lon="14.0440883"><ele>1.0</ele><time>2026-04-11T11:33:58.86Z</time></trkpt><trkpt lat="40.896765" lon="14.0441067"><ele>0.9999999999999999</ele><time>2026-04-11T11:33:59.858Z</time></trkpt><trkpt lat="40.8966967" lon="14.0441217"><ele>1.0</ele><time>2026-04-11T11:34:00.858Z</time></trkpt><trkpt lat="40.89663" lon="14.044135"><ele>1.0</ele><time>2026-04-11T11:34:01.858Z</time></trkpt><trkpt lat="40.8965617" lon="14.0441517"><ele>1.0</ele><time>2026-04-11T11:34:02.858Z</time></trkpt><trkpt lat="40.8964967" lon="14.0441667"><ele>0.9999999999999999</ele><time>2026-04-11T11:34:03.858Z</time></trkpt><trkpt lat="40.8964283" lon="14.04418"><ele>1.0</ele><time>2026-04-11T11:34:04.858Z</time></trkpt><trkpt lat="40.8963533" lon="14.0441967"><ele>1.0</ele><time>2026-04-11T11:34:05.859Z</time></trkpt><trkpt lat="40.8962833" lon="14.0442167"><ele>0.9999999999999999</ele><time>2026-04-11T11:34:06.858Z</time></trkpt><trkpt lat="40.896215" lon="14.0442317"><ele>1.0</ele><time>2026-04-11T11:34:07.859Z</time></trkpt><trkpt lat="40.8961417" lon="14.0442483"><ele>1.0</ele><time>2026-04-11T11:34:08.858Z</time></trkpt><trkpt lat="40.89607" lon="14.044265"><ele>1.0</ele><time>2026-04-11T11:34:09.858Z</time></trkpt><trkpt lat="40.896" lon="14.0442817"><ele>0.9999999999999999</ele><time>2026-04-11T11:34:10.858Z</time></trkpt><trkpt lat="40.8959283" lon="14.0442983"><ele>1.0</ele><time>2026-04-11T11:34:11.857Z</time></trkpt><trkpt lat="40.8958633" lon="14.0443167"><ele>1.0</ele><time>2026-04-11T11:34:12.857Z</time></trkpt><trkpt lat="40.8957933" lon="14.044335"><ele>0.9999999999999999</ele><time>2026-04-11T11:34:13.861Z</time></trkpt><trkpt lat="40.8957167" lon="14.04435"><ele>1.0</ele><time>2026-04-11T11:34:14.858Z</time></trkpt><trkpt lat="40.89564" lon="14.044365"><ele>1.0</ele><time>2026-04-11T11:34:15.857Z</time></trkpt><trkpt lat="40.8955683" lon="14.0443783"><ele>1.0</ele><time>2026-04-11T11:34:16.858Z</time></trkpt><trkpt lat="40.8954967" lon="14.0443933"><ele>0.9999999999999999</ele><time>2026-04-11T11:34:17.858Z</time></trkpt><trkpt lat="40.895425" lon="14.0444133"><ele>1.0</ele><time>2026-04-11T11:34:18.858Z</time></trkpt><trkpt lat="40.8953517" lon="14.04443"><ele>1.0</ele><time>2026-04-11T11:34:19.859Z</time></trkpt><trkpt lat="40.895275" lon="14.0444483"><ele>0.9999999999999999</ele><time>2026-04-11T11:34:20.858Z</time></trkpt><trkpt lat="40.8952017" lon="14.0444683"><ele>1.0</ele><time>2026-04-11T11:34:21.858Z</time></trkpt><trkpt lat="40.8951317" lon="14.0444883"><ele>1.0</ele><time>2026-04-11T11:34:22.858Z</time></trkpt><trkpt lat="40.89506" lon="14.044505"><ele>0.9999999999999999</ele><time>2026-04-11T11:34:23.859Z</time></trkpt><trkpt lat="40.8949867" lon="14.0445183"><ele>1.0</ele><time>2026-04-11T11:34:24.858Z</time></trkpt><trkpt lat="40.894915" lon="14.044535"><ele>1.0</ele><time>2026-04-11T11:34:25.86Z</time></trkpt><trkpt lat="40.8948433" lon="14.044555"><ele>1.0</ele><time>2026-04-11T11:34:26.858Z</time></trkpt><trkpt lat="40.8947667" lon="14.0445733"><ele>0.9999999999999999</ele><time>2026-04-11T11:34:27.858Z</time></trkpt><trkpt lat="40.8946883" lon="14.0445917"><ele>1.0</ele><time>2026-04-11T11:34:28.857Z</time></trkpt><trkpt lat="40.89461" lon="14.0446067"><ele>0.9999999999999999</ele><time>2026-04-11T11:34:29.861Z</time></trkpt><trkpt lat="40.8945317" lon="14.0446233"><ele>1.0</ele><time>2026-04-11T11:34:30.859Z</time></trkpt><trkpt lat="40.8944533" lon="14.04464"><ele>1.0</ele><time>2026-04-11T11:34:31.859Z</time></trkpt><trkpt lat="40.8943767" lon="14.044655"><ele>1.0</ele><time>2026-04-11T11:34:32.858Z</time></trkpt><trkpt lat="40.894305" lon="14.0446667"><ele>0.9999999999999999</ele><time>2026-04-11T11:34:33.858Z</time></trkpt><trkpt lat="40.894235" lon="14.044685"><ele>1.0</ele><time>2026-04-11T11:34:34.857Z</time></trkpt><trkpt lat="40.8941633" lon="14.0447017"><ele>0.8571428571428571</ele><time>2026-04-11T11:34:35.858Z</time></trkpt><trkpt lat="40.89409" lon="14.0447183"><ele>0.7142857142857142</ele><time>2026-04-11T11:34:36.858Z</time></trkpt><trkpt lat="40.89402" lon="14.0447317"><ele>0.5714285714285714</ele><time>2026-04-11T11:34:37.859Z</time></trkpt><trkpt lat="40.893945" lon="14.0447467"><ele>0.42857142857142855</ele><time>2026-04-11T11:34:38.859Z</time></trkpt><trkpt lat="40.89387" lon="14.0447583"><ele>0.2857142857142857</ele><time>2026-04-11T11:34:39.858Z</time></trkpt><trkpt lat="40.8937883" lon="14.044775"><ele>0.14285714285714285</ele><time>2026-04-11T11:34:40.858Z</time></trkpt><trkpt lat="40.8937217" lon="14.0447917"><ele>0.0</ele><time>2026-04-11T11:34:41.858Z</time></trkpt><trkpt lat="40.8936133" lon="14.0448183"><ele>0.0</ele><time>2026-04-11T11:34:43.858Z</time></trkpt><trkpt lat="40.8935483" lon="14.0448267"><ele>0.0</ele><time>2026-04-11T11:34:45.858Z</time></trkpt><trkpt lat="40.89362" lon="14.0447883"><ele>0.0</ele><time>2026-04-11T11:35:03.858Z</time></trkpt><trkpt lat="40.8937188" lon="14.0447381"><ele>0.0</ele><time>2026-04-11T11:35:43.914Z</time></trkpt><trkpt lat="40.8937867" lon="14.044765"><ele>0.0</ele><time>2026-04-11T11:48:40.86Z</time></trkpt><trkpt lat="40.8937417" lon="14.0447067"><ele>0.0</ele><time>2026-04-11T11:48:45.86Z</time></trkpt><trkpt lat="40.89367" lon="14.0447717"><ele>0.0</ele><time>2026-04-11T11:48:48.86Z</time></trkpt><trkpt lat="40.8935833" lon="14.0448117"><ele>0.0</ele><time>2026-04-11T11:48:51.859Z</time></trkpt><trkpt lat="40.89352" lon="14.04483"><ele>0.0</ele><time>2026-04-11T11:48:53.86Z</time></trkpt><trkpt lat="40.89345" lon="14.0448517"><ele>0.0</ele><time>2026-04-11T11:48:55.859Z</time></trkpt><trkpt lat="40.89338" lon="14.04488"><ele>0.0</ele><time>2026-04-11T11:48:57.86Z</time></trkpt><trkpt lat="40.8932983" lon="14.0448917"><ele>0.0</ele><time>2026-04-11T11:48:59.861Z</time></trkpt><trkpt lat="40.8932033" lon="14.0449133"><ele>0.0</ele><time>2026-04-11T11:49:01.861Z</time></trkpt><trkpt lat="40.8931067" lon="14.044935"><ele>0.0</ele><time>2026-04-11T11:49:03.858Z</time></trkpt><trkpt lat="40.893" lon="14.0449633"><ele>0.0</ele><time>2026-04-11T11:49:05.86Z</time></trkpt><trkpt lat="40.892895" lon="14.044985"><ele>0.0</ele><time>2026-04-11T11:49:07.861Z</time></trkpt><trkpt lat="40.8927883" lon="14.045005"><ele>0.0</ele><time>2026-04-11T11:49:09.858Z</time></trkpt><trkpt lat="40.8926833" lon="14.0450267"><ele>0.2</ele><time>2026-04-11T11:49:11.861Z</time></trkpt><trkpt lat="40.89258" lon="14.04505"><ele>0.4</ele><time>2026-04-11T11:49:13.858Z</time></trkpt><trkpt lat="40.8924683" lon="14.0450717"><ele>0.6000000000000001</ele><time>2026-04-11T11:49:15.858Z</time></trkpt><trkpt lat="40.8923617" lon="14.0450933"><ele>0.8</ele><time>2026-04-11T11:49:17.861Z</time></trkpt><trkpt lat="40.89226" lon="14.0451167"><ele>1.0</ele><time>2026-04-11T11:49:19.861Z</time></trkpt><trkpt lat="40.8921567" lon="14.0451417"><ele>1.0</ele><time>2026-04-11T11:49:21.859Z</time></trkpt><trkpt lat="40.8920483" lon="14.0451683"><ele>1.0</ele><time>2026-04-11T11:49:23.861Z</time></trkpt><trkpt lat="40.891945" lon="14.0451917"><ele>1.0</ele><time>2026-04-11T11:49:25.861Z</time></trkpt><trkpt lat="40.8918417" lon="14.04522"><ele>1.0</ele><time>2026-04-11T11:49:27.86Z</time></trkpt><trkpt lat="40.89174" lon="14.045245"><ele>1.0</ele><time>2026-04-11T11:49:29.861Z</time></trkpt><trkpt lat="40.8916317" lon="14.0452717"><ele>0.75</ele><time>2026-04-11T11:49:31.861Z</time></trkpt><trkpt lat="40.89152" lon="14.0453"><ele>0.5</ele><time>2026-04-11T11:49:33.859Z</time></trkpt><trkpt lat="40.8914033" lon="14.0453383"><ele>0.25</ele><time>2026-04-11T11:49:35.86Z</time></trkpt><trkpt lat="40.8912883" lon="14.04537"><ele>0.0</ele><time>2026-04-11T11:49:37.861Z</time></trkpt><trkpt lat="40.89117" lon="14.0453933"><ele>0.0</ele><time>2026-04-11T11:49:39.859Z</time></trkpt><trkpt lat="40.89106" lon="14.04542"><ele>0.0</ele><time>2026-04-11T11:49:41.861Z</time></trkpt><trkpt lat="40.8909567" lon="14.0454433"><ele>0.0</ele><time>2026-04-11T11:49:43.861Z</time></trkpt><trkpt lat="40.89084" lon="14.0454733"><ele>0.0</ele><time>2026-04-11T11:49:45.86Z</time></trkpt><trkpt lat="40.8907117" lon="14.0455033"><ele>-0.3333333333333333</ele><time>2026-04-11T11:49:47.859Z</time></trkpt><trkpt lat="40.8906467" lon="14.0455167"><ele>-0.6666666666666666</ele><time>2026-04-11T11:49:48.86Z</time></trkpt><trkpt lat="40.8905817" lon="14.0455317"><ele>-1.0</ele><time>2026-04-11T11:49:49.861Z</time></trkpt><trkpt lat="40.89052" lon="14.0455483"><ele>-1.3333333333333333</ele><time>2026-04-11T11:49:50.861Z</time></trkpt><trkpt lat="40.8903983" lon="14.04558"><ele>-1.6666666666666665</ele><time>2026-04-11T11:49:52.861Z</time></trkpt><trkpt lat="40.8903267" lon="14.0455867"><ele>-2.0</ele><time>2026-04-11T11:49:53.861Z</time></trkpt><trkpt lat="40.8902517" lon="14.0455983"><ele>-2.0</ele><time>2026-04-11T11:49:54.859Z</time></trkpt><trkpt lat="40.8901867" lon="14.04562"><ele>-1.9999999999999998</ele><time>2026-04-11T11:49:55.861Z</time></trkpt><trkpt lat="40.890115" lon="14.0456333"><ele>-2.0</ele><time>2026-04-11T11:49:56.86Z</time></trkpt><trkpt lat="40.8900483" lon="14.045645"><ele>-2.0</ele><time>2026-04-11T11:49:57.86Z</time></trkpt><trkpt lat="40.8899817" lon="14.04566"><ele>-1.9999999999999998</ele><time>2026-04-11T11:49:58.86Z</time></trkpt><trkpt lat="40.8899167" lon="14.045675"><ele>-2.0</ele><time>2026-04-11T11:49:59.86Z</time></trkpt><trkpt lat="40.8898533" lon="14.0456883"><ele>-2.0</ele><time>2026-04-11T11:50:00.86Z</time></trkpt><trkpt lat="40.88979" lon="14.0457"><ele>-1.8</ele><time>2026-04-11T11:50:01.86Z</time></trkpt><trkpt lat="40.889725" lon="14.0457117"><ele>-1.6</ele><time>2026-04-11T11:50:02.86Z</time></trkpt><trkpt lat="40.8896017" lon="14.0457383"><ele>-1.4000000000000001</ele><time>2026-04-11T11:50:04.86Z</time></trkpt><trkpt lat="40.8894767" lon="14.0457667"><ele>-1.2000000000000002</ele><time>2026-04-11T11:50:06.861Z</time></trkpt><trkpt lat="40.8893533" lon="14.0457933"><ele>-1.0</ele><time>2026-04-11T11:50:08.86Z</time></trkpt><trkpt lat="40.8892883" lon="14.0458067"><ele>-1.2857142857142856</ele><time>2026-04-11T11:50:09.86Z</time></trkpt><trkpt lat="40.889225" lon="14.0458217"><ele>-1.5714285714285712</ele><time>2026-04-11T11:50:10.861Z</time></trkpt><trkpt lat="40.88916" lon="14.045835"><ele>-1.857142857142857</ele><time>2026-04-11T11:50:11.861Z</time></trkpt><trkpt lat="40.889095" lon="14.0458467"><ele>-2.142857142857143</ele><time>2026-04-11T11:50:12.861Z</time></trkpt><trkpt lat="40.8890283" lon="14.0458617"><ele>-2.4285714285714284</ele><time>2026-04-11T11:50:13.861Z</time></trkpt><trkpt lat="40.8889633" lon="14.0458783"><ele>-2.714285714285714</ele><time>2026-04-11T11:50:14.858Z</time></trkpt><trkpt lat="40.8888967" lon="14.0458967"><ele>-3.0</ele><time>2026-04-11T11:50:15.86Z</time></trkpt><trkpt lat="40.8887733" lon="14.0459217"><ele>-2.9999999999999996</ele><time>2026-04-11T11:50:17.861Z</time></trkpt><trkpt lat="40.88871" lon="14.045935"><ele>-3.0</ele><time>2026-04-11T11:50:18.86Z</time></trkpt><trkpt lat="40.888645" lon="14.04595"><ele>-3.0</ele><time>2026-04-11T11:50:19.861Z</time></trkpt><trkpt lat="40.8885817" lon="14.0459683"><ele>-3.0</ele><time>2026-04-11T11:50:20.86Z</time></trkpt><trkpt lat="40.8885183" lon="14.0459833"><ele>-3.0</ele><time>2026-04-11T11:50:21.86Z</time></trkpt><trkpt lat="40.888395" lon="14.046015"><ele>-2.9999999999999996</ele><time>2026-04-11T11:50:23.861Z</time></trkpt><trkpt lat="40.8883333" lon="14.0460333"><ele>-3.0</ele><time>2026-04-11T11:50:24.861Z</time></trkpt><trkpt lat="40.888215" lon="14.0460567"><ele>-3.1666666666666665</ele><time>2026-04-11T11:50:26.858Z</time></trkpt><trkpt lat="40.8880883" lon="14.0460867"><ele>-3.333333333333333</ele><time>2026-04-11T11:50:28.86Z</time></trkpt><trkpt lat="40.8880233" lon="14.0461017"><ele>-3.5</ele><time>2026-04-11T11:50:29.86Z</time></trkpt><trkpt lat="40.8879567" lon="14.046115"><ele>-3.6666666666666665</ele><time>2026-04-11T11:50:30.86Z</time></trkpt><trkpt lat="40.8878933" lon="14.04613"><ele>-3.833333333333333</ele><time>2026-04-11T11:50:31.861Z</time></trkpt><trkpt lat="40.88783" lon="14.0461417"><ele>-4.0</ele><time>2026-04-11T11:50:32.861Z</time></trkpt><trkpt lat="40.887765" lon="14.046155"><ele>-4.0</ele><time>2026-04-11T11:50:33.86Z</time></trkpt><trkpt lat="40.8877" lon="14.04617"><ele>-3.9999999999999996</ele><time>2026-04-11T11:50:34.861Z</time></trkpt><trkpt lat="40.8876367" lon="14.046185"><ele>-4.0</ele><time>2026-04-11T11:50:35.861Z</time></trkpt><trkpt lat="40.8875717" lon="14.0461967"><ele>-4.0</ele><time>2026-04-11T11:50:36.861Z</time></trkpt><trkpt lat="40.8875067" lon="14.0462083"><ele>-3.9999999999999996</ele><time>2026-04-11T11:50:37.861Z</time></trkpt><trkpt lat="40.88744" lon="14.0462183"><ele>-4.0</ele><time>2026-04-11T11:50:38.861Z</time></trkpt><trkpt lat="40.8873717" lon="14.0462333"><ele>-4.0</ele><time>2026-04-11T11:50:39.86Z</time></trkpt><trkpt lat="40.8873017" lon="14.0462517"><ele>-4.142857142857142</ele><time>2026-04-11T11:50:40.859Z</time></trkpt><trkpt lat="40.88723" lon="14.04627"><ele>-4.285714285714286</ele><time>2026-04-11T11:50:41.86Z</time></trkpt><trkpt lat="40.88716" lon="14.0462867"><ele>-4.428571428571429</ele><time>2026-04-11T11:50:42.861Z</time></trkpt><trkpt lat="40.887085" lon="14.0463033"><ele>-4.571428571428571</ele><time>2026-04-11T11:50:43.861Z</time></trkpt><trkpt lat="40.8870117" lon="14.04632"><ele>-4.714285714285714</ele><time>2026-04-11T11:50:44.861Z</time></trkpt><trkpt lat="40.88694" lon="14.0463367"><ele>-4.857142857142857</ele><time>2026-04-11T11:50:45.86Z</time></trkpt><trkpt lat="40.886865" lon="14.0463517"><ele>-5.0</ele><time>2026-04-11T11:50:46.859Z</time></trkpt><trkpt lat="40.8867967" lon="14.0463617"><ele>-4.571428571428571</ele><time>2026-04-11T11:50:47.859Z</time></trkpt><trkpt lat="40.88673" lon="14.046375"><ele>-4.142857142857143</ele><time>2026-04-11T11:50:48.86Z</time></trkpt><trkpt lat="40.886655" lon="14.04639"><ele>-3.7142857142857144</ele><time>2026-04-11T11:50:49.861Z</time></trkpt><trkpt lat="40.8865817" lon="14.046405"><ele>-3.2857142857142856</ele><time>2026-04-11T11:50:50.859Z</time></trkpt><trkpt lat="40.88651" lon="14.0464217"><ele>-2.8571428571428568</ele><time>2026-04-11T11:50:51.859Z</time></trkpt><trkpt lat="40.8864367" lon="14.0464433"><ele>-2.4285714285714284</ele><time>2026-04-11T11:50:52.861Z</time></trkpt><trkpt lat="40.8863617" lon="14.046465"><ele>-2.0</ele><time>2026-04-11T11:50:53.861Z</time></trkpt><trkpt lat="40.8862883" lon="14.046485"><ele>-2.0</ele><time>2026-04-11T11:50:54.861Z</time></trkpt><trkpt lat="40.88622" lon="14.0464983"><ele>-1.9999999999999998</ele><time>2026-04-11T11:50:55.861Z</time></trkpt><trkpt lat="40.8861517" lon="14.0465133"><ele>-2.0</ele><time>2026-04-11T11:50:56.86Z</time></trkpt><trkpt lat="40.88608" lon="14.04653"><ele>-2.0</ele><time>2026-04-11T11:50:57.86Z</time></trkpt><trkpt lat="40.8860083" lon="14.04655"><ele>-1.9999999999999998</ele><time>2026-04-11T11:50:58.861Z</time></trkpt><trkpt lat="40.8859383" lon="14.0465683"><ele>-2.0</ele><time>2026-04-11T11:50:59.861Z</time></trkpt><trkpt lat="40.8858683" lon="14.0465867"><ele>-2.0</ele><time>2026-04-11T11:51:00.859Z</time></trkpt><trkpt lat="40.885795" lon="14.0466"><ele>-2.0</ele><time>2026-04-11T11:51:01.861Z</time></trkpt><trkpt lat="40.885725" lon="14.0466167"><ele>-1.9999999999999998</ele><time>2026-04-11T11:51:02.861Z</time></trkpt><trkpt lat="40.8856533" lon="14.046635"><ele>-2.0</ele><time>2026-04-11T11:51:03.861Z</time></trkpt><trkpt lat="40.8855833" lon="14.0466517"><ele>-2.0</ele><time>2026-04-11T11:51:04.861Z</time></trkpt><trkpt lat="40.8855117" lon="14.0466683"><ele>-1.9999999999999998</ele><time>2026-04-11T11:51:05.861Z</time></trkpt><trkpt lat="40.8854383" lon="14.0466833"><ele>-2.0</ele><time>2026-04-11T11:51:06.861Z</time></trkpt><trkpt lat="40.88537" lon="14.0466967"><ele>-2.0</ele><time>2026-04-11T11:51:07.86Z</time></trkpt><trkpt lat="40.8853033" lon="14.0467117"><ele>-1.857142857142857</ele><time>2026-04-11T11:51:08.859Z</time></trkpt><trkpt lat="40.8852333" lon="14.0467283"><ele>-1.714285714285714</ele><time>2026-04-11T11:51:09.86Z</time></trkpt><trkpt lat="40.885165" lon="14.0467433"><ele>-1.5714285714285714</ele><time>2026-04-11T11:51:10.86Z</time></trkpt><trkpt lat="40.8850983" lon="14.04676"><ele>-1.4285714285714284</ele><time>2026-04-11T11:51:11.86Z</time></trkpt><trkpt lat="40.88503" lon="14.04678"><ele>-1.2857142857142856</ele><time>2026-04-11T11:51:12.859Z</time></trkpt><trkpt lat="40.8849633" lon="14.0467967"><ele>-1.1428571428571428</ele><time>2026-04-11T11:51:13.861Z</time></trkpt><trkpt lat="40.884895" lon="14.04681"><ele>-1.0</ele><time>2026-04-11T11:51:14.861Z</time></trkpt><trkpt lat="40.884825" lon="14.0468267"><ele>-0.7142857142857142</ele><time>2026-04-11T11:51:15.859Z</time></trkpt><trkpt lat="40.8847567" lon="14.0468417"><ele>-0.4285714285714285</ele><time>2026-04-11T11:51:16.861Z</time></trkpt><trkpt lat="40.8846883" lon="14.04686"><ele>-0.14285714285714285</ele><time>2026-04-11T11:51:17.861Z</time></trkpt><trkpt lat="40.8846183" lon="14.0468733"><ele>0.14285714285714285</ele><time>2026-04-11T11:51:18.862Z</time></trkpt><trkpt lat="40.88455" lon="14.0468817"><ele>0.4285714285714285</ele><time>2026-04-11T11:51:19.861Z</time></trkpt><trkpt lat="40.8844833" lon="14.04689"><ele>0.7142857142857142</ele><time>2026-04-11T11:51:20.86Z</time></trkpt><trkpt lat="40.8844167" lon="14.0469033"><ele>1.0</ele><time>2026-04-11T11:51:21.86Z</time></trkpt><trkpt lat="40.8843517" lon="14.0469167"><ele>0.9999999999999999</ele><time>2026-04-11T11:51:22.86Z</time></trkpt><trkpt lat="40.8842867" lon="14.0469317"><ele>1.0</ele><time>2026-04-11T11:51:23.861Z</time></trkpt><trkpt lat="40.88422" lon="14.0469483"><ele>1.0</ele><time>2026-04-11T11:51:24.86Z</time></trkpt><trkpt lat="40.8841567" lon="14.046965"><ele>1.0</ele><time>2026-04-11T11:51:25.861Z</time></trkpt><trkpt lat="40.8840333" lon="14.0469983"><ele>0.9999999999999999</ele><time>2026-04-11T11:51:27.86Z</time></trkpt><trkpt lat="40.8839133" lon="14.0470267"><ele>1.0</ele><time>2026-04-11T11:51:29.861Z</time></trkpt><trkpt lat="40.8837967" lon="14.0470483"><ele>1.0</ele><time>2026-04-11T11:51:31.86Z</time></trkpt><trkpt lat="40.88367" lon="14.0470783"><ele>1.0</ele><time>2026-04-11T11:51:33.86Z</time></trkpt><trkpt lat="40.8835417" lon="14.0471083"><ele>1.0</ele><time>2026-04-11T11:51:35.861Z</time></trkpt><trkpt lat="40.8834767" lon="14.047125"><ele>1.0</ele><time>2026-04-11T11:51:36.861Z</time></trkpt><trkpt lat="40.88341" lon="14.04714"><ele>1.0</ele><time>2026-04-11T11:51:37.861Z</time></trkpt><trkpt lat="40.8833417" lon="14.0471567"><ele>1.0</ele><time>2026-04-11T11:51:38.861Z</time></trkpt><trkpt lat="40.8832767" lon="14.047175"><ele>0.9999999999999999</ele><time>2026-04-11T11:51:39.861Z</time></trkpt><trkpt lat="40.8832117" lon="14.0471917"><ele>1.0</ele><time>2026-04-11T11:51:40.859Z</time></trkpt><trkpt lat="40.883145" lon="14.04721"><ele>1.0</ele><time>2026-04-11T11:51:41.86Z</time></trkpt><trkpt lat="40.88308" lon="14.0472317"><ele>0.9999999999999999</ele><time>2026-04-11T11:51:42.86Z</time></trkpt><trkpt lat="40.8830133" lon="14.0472467"><ele>1.0</ele><time>2026-04-11T11:51:43.86Z</time></trkpt><trkpt lat="40.8829467" lon="14.0472633"><ele>1.0</ele><time>2026-04-11T11:51:44.86Z</time></trkpt><trkpt lat="40.88288" lon="14.0472783"><ele>1.0</ele><time>2026-04-11T11:51:45.859Z</time></trkpt><trkpt lat="40.8828133" lon="14.047295"><ele>0.9999999999999999</ele><time>2026-04-11T11:51:46.86Z</time></trkpt><trkpt lat="40.8827467" lon="14.0473117"><ele>1.0</ele><time>2026-04-11T11:51:47.859Z</time></trkpt><trkpt lat="40.8826783" lon="14.04733"><ele>1.0</ele><time>2026-04-11T11:51:48.861Z</time></trkpt><trkpt lat="40.8826083" lon="14.0473467"><ele>0.9999999999999999</ele><time>2026-04-11T11:51:49.861Z</time></trkpt><trkpt lat="40.88254" lon="14.0473667"><ele>1.0</ele><time>2026-04-11T11:51:50.86Z</time></trkpt><trkpt lat="40.8824733" lon="14.0473783"><ele>1.0</ele><time>2026-04-11T11:51:51.859Z</time></trkpt><trkpt lat="40.88241" lon="14.04739"><ele>1.0</ele><time>2026-04-11T11:51:52.859Z</time></trkpt><trkpt lat="40.8823417" lon="14.0474033"><ele>1.0</ele><time>2026-04-11T11:51:53.861Z</time></trkpt><trkpt lat="40.882275" lon="14.0474183"><ele>1.0</ele><time>2026-04-11T11:51:54.859Z</time></trkpt><trkpt lat="40.88221" lon="14.0474333"><ele>1.0</ele><time>2026-04-11T11:51:55.861Z</time></trkpt><trkpt lat="40.8820883" lon="14.04746"><ele>1.0</ele><time>2026-04-11T11:51:57.86Z</time></trkpt><trkpt lat="40.8819617" lon="14.0474883"><ele>0.8571428571428571</ele><time>2026-04-11T11:51:59.861Z</time></trkpt><trkpt lat="40.8818967" lon="14.0474983"><ele>0.7142857142857142</ele><time>2026-04-11T11:52:00.86Z</time></trkpt><trkpt lat="40.88183" lon="14.0475117"><ele>0.5714285714285714</ele><time>2026-04-11T11:52:01.861Z</time></trkpt><trkpt lat="40.88176" lon="14.0475267"><ele>0.42857142857142855</ele><time>2026-04-11T11:52:02.86Z</time></trkpt><trkpt lat="40.88169" lon="14.0475433"><ele>0.2857142857142857</ele><time>2026-04-11T11:52:03.859Z</time></trkpt><trkpt lat="40.8816233" lon="14.0475617"><ele>0.14285714285714285</ele><time>2026-04-11T11:52:04.86Z</time></trkpt><trkpt lat="40.881555" lon="14.0475817"><ele>0.0</ele><time>2026-04-11T11:52:05.861Z</time></trkpt><trkpt lat="40.88149" lon="14.0476017"><ele>0.0</ele><time>2026-04-11T11:52:06.861Z</time></trkpt><trkpt lat="40.881425" lon="14.0476183"><ele>0.0</ele><time>2026-04-11T11:52:07.86Z</time></trkpt><trkpt lat="40.8813567" lon="14.047635"><ele>0.0</ele><time>2026-04-11T11:52:08.86Z</time></trkpt><trkpt lat="40.88129" lon="14.0476517"><ele>0.0</ele><time>2026-04-11T11:52:09.86Z</time></trkpt><trkpt lat="40.8812217" lon="14.04767"><ele>0.0</ele><time>2026-04-11T11:52:10.862Z</time></trkpt><trkpt lat="40.8811483" lon="14.0476883"><ele>0.0</ele><time>2026-04-11T11:52:11.86Z</time></trkpt><trkpt lat="40.8810733" lon="14.047705"><ele>0.0</ele><time>2026-04-11T11:52:12.86Z</time></trkpt><trkpt lat="40.8810017" lon="14.0477183"><ele>0.0</ele><time>2026-04-11T11:52:13.861Z</time></trkpt><trkpt lat="40.8809267" lon="14.0477333"><ele>0.0</ele><time>2026-04-11T11:52:14.86Z</time></trkpt><trkpt lat="40.8808517" lon="14.0477533"><ele>0.0</ele><time>2026-04-11T11:52:15.859Z</time></trkpt><trkpt lat="40.8807783" lon="14.0477667"><ele>0.0</ele><time>2026-04-11T11:52:16.857Z</time></trkpt><trkpt lat="40.880705" lon="14.0477817"><ele>0.0</ele><time>2026-04-11T11:52:17.861Z</time></trkpt><trkpt lat="40.880635" lon="14.0478"><ele>0.0</ele><time>2026-04-11T11:52:18.861Z</time></trkpt><trkpt lat="40.8805633" lon="14.047815"><ele>0.0</ele><time>2026-04-11T11:52:19.861Z</time></trkpt><trkpt lat="40.8804933" lon="14.0478333"><ele>0.0</ele><time>2026-04-11T11:52:20.861Z</time></trkpt><trkpt lat="40.8804233" lon="14.0478533"><ele>0.0</ele><time>2026-04-11T11:52:21.861Z</time></trkpt><trkpt lat="40.880355" lon="14.0478717"><ele>0.0</ele><time>2026-04-11T11:52:22.86Z</time></trkpt><trkpt lat="40.8802833" lon="14.04789"><ele>0.0</ele><time>2026-04-11T11:52:23.861Z</time></trkpt><trkpt lat="40.880215" lon="14.04791"><ele>0.0</ele><time>2026-04-11T11:52:24.86Z</time></trkpt><trkpt lat="40.8801467" lon="14.0479267"><ele>0.0</ele><time>2026-04-11T11:52:25.861Z</time></trkpt><trkpt lat="40.8800783" lon="14.0479417"><ele>0.0</ele><time>2026-04-11T11:52:26.861Z</time></trkpt><trkpt lat="40.8800117" lon="14.0479567"><ele>0.0</ele><time>2026-04-11T11:52:27.861Z</time></trkpt><trkpt lat="40.8799467" lon="14.04797"><ele>0.0</ele><time>2026-04-11T11:52:28.859Z</time></trkpt><trkpt lat="40.8798817" lon="14.0479867"><ele>0.0</ele><time>2026-04-11T11:52:29.858Z</time></trkpt><trkpt lat="40.879815" lon="14.0480033"><ele>0.0</ele><time>2026-04-11T11:52:30.86Z</time></trkpt><trkpt lat="40.8797483" lon="14.0480183"><ele>0.0</ele><time>2026-04-11T11:52:31.861Z</time></trkpt><trkpt lat="40.8796833" lon="14.0480333"><ele>0.0</ele><time>2026-04-11T11:52:32.861Z</time></trkpt><trkpt lat="40.8796167" lon="14.0480467"><ele>0.0</ele><time>2026-04-11T11:52:33.86Z</time></trkpt><trkpt lat="40.8795483" lon="14.0480617"><ele>0.0</ele><time>2026-04-11T11:52:34.861Z</time></trkpt><trkpt lat="40.8794767" lon="14.0480767"><ele>0.0</ele><time>2026-04-11T11:52:35.86Z</time></trkpt><trkpt lat="40.8794083" lon="14.0480883"><ele>0.0</ele><time>2026-04-11T11:52:36.86Z</time></trkpt><trkpt lat="40.8793383" lon="14.0481033"><ele>0.0</ele><time>2026-04-11T11:52:37.863Z</time></trkpt><trkpt lat="40.87927" lon="14.04812"><ele>0.0</ele><time>2026-04-11T11:52:38.859Z</time></trkpt><trkpt lat="40.8791983" lon="14.048135"><ele>0.0</ele><time>2026-04-11T11:52:39.861Z</time></trkpt><trkpt lat="40.87913" lon="14.0481533"><ele>0.0</ele><time>2026-04-11T11:52:40.861Z</time></trkpt><trkpt lat="40.8790583" lon="14.0481683"><ele>0.14285714285714285</ele><time>2026-04-11T11:52:41.861Z</time></trkpt><trkpt lat="40.8789883" lon="14.048185"><ele>0.2857142857142857</ele><time>2026-04-11T11:52:42.861Z</time></trkpt><trkpt lat="40.87892" lon="14.0482017"><ele>0.42857142857142855</ele><time>2026-04-11T11:52:43.861Z</time></trkpt><trkpt lat="40.8788483" lon="14.0482183"><ele>0.5714285714285714</ele><time>2026-04-11T11:52:44.861Z</time></trkpt><trkpt lat="40.8787767" lon="14.0482333"><ele>0.7142857142857142</ele><time>2026-04-11T11:52:45.861Z</time></trkpt><trkpt lat="40.8787033" lon="14.04825"><ele>0.8571428571428571</ele><time>2026-04-11T11:52:46.861Z</time></trkpt><trkpt lat="40.8786283" lon="14.0482683"><ele>1.0</ele><time>2026-04-11T11:52:47.861Z</time></trkpt><trkpt lat="40.878555" lon="14.048285"><ele>1.0</ele><time>2026-04-11T11:52:48.861Z</time></trkpt><trkpt lat="40.87848" lon="14.0483033"><ele>0.9999999999999999</ele><time>2026-04-11T11:52:49.86Z</time></trkpt><trkpt lat="40.8784083" lon="14.0483183"><ele>1.0</ele><time>2026-04-11T11:52:50.86Z</time></trkpt><trkpt lat="40.8783367" lon="14.0483317"><ele>1.0</ele><time>2026-04-11T11:52:51.861Z</time></trkpt><trkpt lat="40.878265" lon="14.04835"><ele>0.9999999999999999</ele><time>2026-04-11T11:52:52.861Z</time></trkpt><trkpt lat="40.8781917" lon="14.0483683"><ele>1.0</ele><time>2026-04-11T11:52:53.861Z</time></trkpt><trkpt lat="40.8781217" lon="14.0483867"><ele>1.0</ele><time>2026-04-11T11:52:54.86Z</time></trkpt><trkpt lat="40.8780533" lon="14.048405"><ele>0.8571428571428571</ele><time>2026-04-11T11:52:55.861Z</time></trkpt><trkpt lat="40.8779867" lon="14.0484217"><ele>0.7142857142857142</ele><time>2026-04-11T11:52:56.86Z</time></trkpt><trkpt lat="40.8779183" lon="14.0484367"><ele>0.5714285714285714</ele><time>2026-04-11T11:52:57.86Z</time></trkpt><trkpt lat="40.8778483" lon="14.04845"><ele>0.42857142857142855</ele><time>2026-04-11T11:52:58.861Z</time></trkpt><trkpt lat="40.87778" lon="14.0484633"><ele>0.2857142857142857</ele><time>2026-04-11T11:52:59.859Z</time></trkpt><trkpt lat="40.8777117" lon="14.0484767"><ele>0.14285714285714285</ele><time>2026-04-11T11:53:00.866Z</time></trkpt><trkpt lat="40.8776417" lon="14.0484917"><ele>0.0</ele><time>2026-04-11T11:53:01.861Z</time></trkpt><trkpt lat="40.877575" lon="14.0485067"><ele>0.0</ele><time>2026-04-11T11:53:02.86Z</time></trkpt><trkpt lat="40.8775083" lon="14.04852"><ele>0.0</ele><time>2026-04-11T11:53:03.861Z</time></trkpt><trkpt lat="40.87744" lon="14.048535"><ele>0.0</ele><time>2026-04-11T11:53:04.859Z</time></trkpt><trkpt lat="40.87737" lon="14.0485533"><ele>0.0</ele><time>2026-04-11T11:53:05.861Z</time></trkpt><trkpt lat="40.8772983" lon="14.0485717"><ele>0.0</ele><time>2026-04-11T11:53:06.861Z</time></trkpt><trkpt lat="40.8772217" lon="14.04859"><ele>0.0</ele><time>2026-04-11T11:53:07.861Z</time></trkpt><trkpt lat="40.87715" lon="14.048605"><ele>0.0</ele><time>2026-04-11T11:53:08.859Z</time></trkpt><trkpt lat="40.8770733" lon="14.048625"><ele>0.0</ele><time>2026-04-11T11:53:09.859Z</time></trkpt><trkpt lat="40.877" lon="14.0486433"><ele>0.0</ele><time>2026-04-11T11:53:10.861Z</time></trkpt><trkpt lat="40.8769267" lon="14.04866"><ele>0.0</ele><time>2026-04-11T11:53:11.861Z</time></trkpt><trkpt lat="40.8768517" lon="14.0486767"><ele>0.0</ele><time>2026-04-11T11:53:12.861Z</time></trkpt><trkpt lat="40.8767767" lon="14.0486917"><ele>0.0</ele><time>2026-04-11T11:53:13.86Z</time></trkpt><trkpt lat="40.8767017" lon="14.048705"><ele>0.0</ele><time>2026-04-11T11:53:14.861Z</time></trkpt><trkpt lat="40.876625" lon="14.04872"><ele>0.0</ele><time>2026-04-11T11:53:15.861Z</time></trkpt><trkpt lat="40.87655" lon="14.0487367"><ele>0.0</ele><time>2026-04-11T11:53:16.86Z</time></trkpt><trkpt lat="40.8764767" lon="14.048755"><ele>0.0</ele><time>2026-04-11T11:53:17.86Z</time></trkpt><trkpt lat="40.8764033" lon="14.0487717"><ele>0.0</ele><time>2026-04-11T11:53:18.861Z</time></trkpt><trkpt lat="40.8763333" lon="14.048785"><ele>0.0</ele><time>2026-04-11T11:53:19.861Z</time></trkpt><trkpt lat="40.8762633" lon="14.0488"><ele>0.0</ele><time>2026-04-11T11:53:20.861Z</time></trkpt><trkpt lat="40.876195" lon="14.0488167"><ele>0.0</ele><time>2026-04-11T11:53:21.859Z</time></trkpt><trkpt lat="40.8761267" lon="14.048835"><ele>0.0</ele><time>2026-04-11T11:53:22.859Z</time></trkpt><trkpt lat="40.8760567" lon="14.0488533"><ele>0.0</ele><time>2026-04-11T11:53:23.863Z</time></trkpt><trkpt lat="40.875985" lon="14.04887"><ele>0.0</ele><time>2026-04-11T11:53:24.86Z</time></trkpt><trkpt lat="40.8759133" lon="14.0488833"><ele>0.0</ele><time>2026-04-11T11:53:25.862Z</time></trkpt><trkpt lat="40.8758417" lon="14.0488983"><ele>0.0</ele><time>2026-04-11T11:53:26.861Z</time></trkpt><trkpt lat="40.8757733" lon="14.0489133"><ele>0.0</ele><time>2026-04-11T11:53:27.862Z</time></trkpt><trkpt lat="40.8757033" lon="14.0489267"><ele>0.0</ele><time>2026-04-11T11:53:28.861Z</time></trkpt><trkpt lat="40.875635" lon="14.0489417"><ele>0.0</ele><time>2026-04-11T11:53:29.859Z</time></trkpt><trkpt lat="40.8755683" lon="14.048955"><ele>0.0</ele><time>2026-04-11T11:53:30.86Z</time></trkpt><trkpt lat="40.8754983" lon="14.0489717"><ele>0.0</ele><time>2026-04-11T11:53:31.861Z</time></trkpt><trkpt lat="40.8754267" lon="14.0489867"><ele>0.0</ele><time>2026-04-11T11:53:32.86Z</time></trkpt><trkpt lat="40.875355" lon="14.0490017"><ele>0.0</ele><time>2026-04-11T11:53:33.86Z</time></trkpt><trkpt lat="40.875285" lon="14.049015"><ele>0.0</ele><time>2026-04-11T11:53:34.859Z</time></trkpt><trkpt lat="40.87522" lon="14.04903"><ele>0.0</ele><time>2026-04-11T11:53:35.863Z</time></trkpt><trkpt lat="40.8751517" lon="14.0490483"><ele>0.14285714285714285</ele><time>2026-04-11T11:53:36.861Z</time></trkpt><trkpt lat="40.8750833" lon="14.0490633"><ele>0.2857142857142857</ele><time>2026-04-11T11:53:37.86Z</time></trkpt><trkpt lat="40.8750133" lon="14.0490783"><ele>0.42857142857142855</ele><time>2026-04-11T11:53:38.86Z</time></trkpt><trkpt lat="40.8749483" lon="14.049095"><ele>0.5714285714285714</ele><time>2026-04-11T11:53:39.86Z</time></trkpt><trkpt lat="40.874885" lon="14.0491133"><ele>0.7142857142857142</ele><time>2026-04-11T11:53:40.861Z</time></trkpt><trkpt lat="40.87482" lon="14.04913"><ele>0.8571428571428571</ele><time>2026-04-11T11:53:41.861Z</time></trkpt><trkpt lat="40.874755" lon="14.049145"><ele>1.0</ele><time>2026-04-11T11:53:42.861Z</time></trkpt><trkpt lat="40.87469" lon="14.0491617"><ele>1.0</ele><time>2026-04-11T11:53:43.861Z</time></trkpt><trkpt lat="40.8745683" lon="14.04919"><ele>1.0</ele><time>2026-04-11T11:53:45.86Z</time></trkpt><trkpt lat="40.8744483" lon="14.0492183"><ele>1.0</ele><time>2026-04-11T11:53:47.861Z</time></trkpt><trkpt lat="40.874385" lon="14.049235"><ele>1.0</ele><time>2026-04-11T11:53:48.861Z</time></trkpt><trkpt lat="40.87432" lon="14.0492483"><ele>1.0</ele><time>2026-04-11T11:53:49.862Z</time></trkpt><trkpt lat="40.8741967" lon="14.04928"><ele>0.6666666666666666</ele><time>2026-04-11T11:53:51.861Z</time></trkpt><trkpt lat="40.8741317" lon="14.0492967"><ele>0.3333333333333333</ele><time>2026-04-11T11:53:52.86Z</time></trkpt><trkpt lat="40.8740667" lon="14.0493133"><ele>0.0</ele><time>2026-04-11T11:53:53.859Z</time></trkpt><trkpt lat="40.8740033" lon="14.0493283"><ele>-0.3333333333333333</ele><time>2026-04-11T11:53:54.861Z</time></trkpt><trkpt lat="40.87394" lon="14.0493417"><ele>-0.6666666666666666</ele><time>2026-04-11T11:53:55.86Z</time></trkpt><trkpt lat="40.87382" lon="14.0493633"><ele>-1.0</ele><time>2026-04-11T11:53:57.859Z</time></trkpt><trkpt lat="40.8736983" lon="14.0493967"><ele>-1.0</ele><time>2026-04-11T11:53:59.86Z</time></trkpt><trkpt lat="40.8735767" lon="14.0494233"><ele>-1.0</ele><time>2026-04-11T11:54:01.86Z</time></trkpt><trkpt lat="40.8734583" lon="14.049445"><ele>-1.0</ele><time>2026-04-11T11:54:03.861Z</time></trkpt><trkpt lat="40.87334" lon="14.0494683"><ele>-1.0</ele><time>2026-04-11T11:54:05.86Z</time></trkpt><trkpt lat="40.8732233" lon="14.0495033"><ele>-1.0</ele><time>2026-04-11T11:54:07.86Z</time></trkpt><trkpt lat="40.8731067" lon="14.04955"><ele>-1.0</ele><time>2026-04-11T11:54:09.86Z</time></trkpt><trkpt lat="40.8729983" lon="14.0496033"><ele>-1.0</ele><time>2026-04-11T11:54:11.86Z</time></trkpt><trkpt lat="40.87289" lon="14.0496617"><ele>-1.0</ele><time>2026-04-11T11:54:13.859Z</time></trkpt><trkpt lat="40.8727833" lon="14.0497267"><ele>-1.0</ele><time>2026-04-11T11:54:15.859Z</time></trkpt><trkpt lat="40.8727" lon="14.0497933"><ele>-1.0</ele><time>2026-04-11T11:54:17.859Z</time></trkpt><trkpt lat="40.872635" lon="14.0498517"><ele>-1.0</ele><time>2026-04-11T11:54:19.86Z</time></trkpt><trkpt lat="40.8725767" lon="14.0499233"><ele>-1.0</ele><time>2026-04-11T11:54:21.859Z</time></trkpt><trkpt lat="40.8725" lon="14.050005"><ele>-1.0</ele><time>2026-04-11T11:54:23.86Z</time></trkpt><trkpt lat="40.8724133" lon="14.050095"><ele>-0.4</ele><time>2026-04-11T11:54:25.861Z</time></trkpt><trkpt lat="40.8723233" lon="14.0501967"><ele>0.19999999999999996</ele><time>2026-04-11T11:54:27.86Z</time></trkpt><trkpt lat="40.8722333" lon="14.050305"><ele>0.8000000000000002</ele><time>2026-04-11T11:54:29.86Z</time></trkpt><trkpt lat="40.87215" lon="14.05042"><ele>1.4000000000000001</ele><time>2026-04-11T11:54:31.86Z</time></trkpt><trkpt lat="40.8721083" lon="14.0504833"><ele>2.0</ele><time>2026-04-11T11:54:32.862Z</time></trkpt><trkpt lat="40.87207" lon="14.05055"><ele>2.0</ele><time>2026-04-11T11:54:33.858Z</time></trkpt><trkpt lat="40.8720317" lon="14.05062"><ele>1.9999999999999998</ele><time>2026-04-11T11:54:34.86Z</time></trkpt><trkpt lat="40.8719967" lon="14.0506917"><ele>2.0</ele><time>2026-04-11T11:54:35.86Z</time></trkpt><trkpt lat="40.8719617" lon="14.050765"><ele>2.0</ele><time>2026-04-11T11:54:36.86Z</time></trkpt><trkpt lat="40.87193" lon="14.05084"><ele>1.9999999999999998</ele><time>2026-04-11T11:54:37.862Z</time></trkpt><trkpt lat="40.8718967" lon="14.05092"><ele>2.0</ele><time>2026-04-11T11:54:38.858Z</time></trkpt><trkpt lat="40.8718633" lon="14.051"><ele>2.0</ele><time>2026-04-11T11:54:39.859Z</time></trkpt><trkpt lat="40.8718333" lon="14.0510817"><ele>2.142857142857143</ele><time>2026-04-11T11:54:40.858Z</time></trkpt><trkpt lat="40.871805" lon="14.0511633"><ele>2.2857142857142856</ele><time>2026-04-11T11:54:41.858Z</time></trkpt><trkpt lat="40.8717783" lon="14.0512467"><ele>2.4285714285714284</ele><time>2026-04-11T11:54:42.859Z</time></trkpt><trkpt lat="40.8717517" lon="14.0513317"><ele>2.571428571428571</ele><time>2026-04-11T11:54:43.86Z</time></trkpt><trkpt lat="40.8717267" lon="14.0514233"><ele>2.7142857142857144</ele><time>2026-04-11T11:54:44.859Z</time></trkpt><trkpt lat="40.8717017" lon="14.0515133"><ele>2.8571428571428568</ele><time>2026-04-11T11:54:45.858Z</time></trkpt><trkpt lat="40.8716767" lon="14.051605"><ele>3.0</ele><time>2026-04-11T11:54:46.86Z</time></trkpt><trkpt lat="40.8716517" lon="14.0516933"><ele>2.9999999999999996</ele><time>2026-04-11T11:54:47.861Z</time></trkpt><trkpt lat="40.871625" lon="14.0517833"><ele>3.0</ele><time>2026-04-11T11:54:48.858Z</time></trkpt><trkpt lat="40.8716017" lon="14.0518767"><ele>3.0</ele><time>2026-04-11T11:54:49.86Z</time></trkpt><trkpt lat="40.871575" lon="14.051965"><ele>3.0</ele><time>2026-04-11T11:54:50.859Z</time></trkpt><trkpt lat="40.8715533" lon="14.0520583"><ele>3.0</ele><time>2026-04-11T11:54:51.86Z</time></trkpt><trkpt lat="40.8715333" lon="14.0521433"><ele>2.9999999999999996</ele><time>2026-04-11T11:54:52.86Z</time></trkpt><trkpt lat="40.8715133" lon="14.05223"><ele>3.0</ele><time>2026-04-11T11:54:53.86Z</time></trkpt><trkpt lat="40.8714933" lon="14.0523217"><ele>2.9999999999999996</ele><time>2026-04-11T11:54:54.86Z</time></trkpt><trkpt lat="40.8714717" lon="14.0524133"><ele>3.0</ele><time>2026-04-11T11:54:55.86Z</time></trkpt><trkpt lat="40.8714533" lon="14.0525083"><ele>3.0</ele><time>2026-04-11T11:54:56.86Z</time></trkpt><trkpt lat="40.87143" lon="14.0526017"><ele>3.0</ele><time>2026-04-11T11:54:57.86Z</time></trkpt><trkpt lat="40.871405" lon="14.052695"><ele>3.0</ele><time>2026-04-11T11:54:58.859Z</time></trkpt><trkpt lat="40.8713833" lon="14.0527817"><ele>2.9999999999999996</ele><time>2026-04-11T11:54:59.86Z</time></trkpt><trkpt lat="40.8713633" lon="14.0528667"><ele>3.0</ele><time>2026-04-11T11:55:00.861Z</time></trkpt><trkpt lat="40.871335" lon="14.0529517"><ele>2.714285714285714</ele><time>2026-04-11T11:55:01.861Z</time></trkpt><trkpt lat="40.8713133" lon="14.05303"><ele>2.4285714285714284</ele><time>2026-04-11T11:55:02.86Z</time></trkpt><trkpt lat="40.87129" lon="14.0531083"><ele>2.142857142857143</ele><time>2026-04-11T11:55:03.86Z</time></trkpt><trkpt lat="40.8712667" lon="14.05319"><ele>1.857142857142857</ele><time>2026-04-11T11:55:04.86Z</time></trkpt><trkpt lat="40.8712433" lon="14.0532683"><ele>1.5714285714285712</ele><time>2026-04-11T11:55:05.862Z</time></trkpt><trkpt lat="40.871205" lon="14.0534283"><ele>1.2857142857142856</ele><time>2026-04-11T11:55:07.86Z</time></trkpt><trkpt lat="40.8711817" lon="14.0535067"><ele>1.0</ele><time>2026-04-11T11:55:08.86Z</time></trkpt><trkpt lat="40.8711567" lon="14.053585"><ele>1.0</ele><time>2026-04-11T11:55:09.859Z</time></trkpt><trkpt lat="40.871135" lon="14.0536633"><ele>1.0</ele><time>2026-04-11T11:55:10.86Z</time></trkpt><trkpt lat="40.8711133" lon="14.0537417"><ele>1.0</ele><time>2026-04-11T11:55:11.86Z</time></trkpt><trkpt lat="40.871075" lon="14.0538983"><ele>1.0</ele><time>2026-04-11T11:55:13.859Z</time></trkpt><trkpt lat="40.8710383" lon="14.0540467"><ele>1.0</ele><time>2026-04-11T11:55:15.86Z</time></trkpt><trkpt lat="40.871" lon="14.0541933"><ele>1.0</ele><time>2026-04-11T11:55:17.86Z</time></trkpt><trkpt lat="40.8709567" lon="14.05435"><ele>1.0</ele><time>2026-04-11T11:55:19.86Z</time></trkpt><trkpt lat="40.8709333" lon="14.0544283"><ele>1.0</ele><time>2026-04-11T11:55:20.86Z</time></trkpt><trkpt lat="40.870895" lon="14.0545833"><ele>1.0</ele><time>2026-04-11T11:55:22.859Z</time></trkpt><trkpt lat="40.870855" lon="14.0547367"><ele>1.0</ele><time>2026-04-11T11:55:24.859Z</time></trkpt><trkpt lat="40.8708167" lon="14.0548917"><ele>1.0</ele><time>2026-04-11T11:55:26.858Z</time></trkpt><trkpt lat="40.87078" lon="14.055045"><ele>1.0</ele><time>2026-04-11T11:55:28.86Z</time></trkpt><trkpt lat="40.870745" lon="14.05519"><ele>1.0</ele><time>2026-04-11T11:55:30.86Z</time></trkpt><trkpt lat="40.87071" lon="14.05533"><ele>1.0</ele><time>2026-04-11T11:55:32.86Z</time></trkpt><trkpt lat="40.8706683" lon="14.05547"><ele>1.0</ele><time>2026-04-11T11:55:34.86Z</time></trkpt><trkpt lat="40.8706333" lon="14.0556183"><ele>1.0</ele><time>2026-04-11T11:55:36.86Z</time></trkpt><trkpt lat="40.870595" lon="14.05577"><ele>1.0</ele><time>2026-04-11T11:55:38.86Z</time></trkpt><trkpt lat="40.8705533" lon="14.055925"><ele>1.0</ele><time>2026-04-11T11:55:40.86Z</time></trkpt><trkpt lat="40.8705333" lon="14.0560083"><ele>1.0</ele><time>2026-04-11T11:55:41.86Z</time></trkpt><trkpt lat="40.8705083" lon="14.056095"><ele>1.1666666666666665</ele><time>2026-04-11T11:55:42.86Z</time></trkpt><trkpt lat="40.8704833" lon="14.056185"><ele>1.3333333333333333</ele><time>2026-04-11T11:55:43.861Z</time></trkpt><trkpt lat="40.8704567" lon="14.0562767"><ele>1.5</ele><time>2026-04-11T11:55:44.859Z</time></trkpt><trkpt lat="40.87043" lon="14.05637"><ele>1.6666666666666665</ele><time>2026-04-11T11:55:45.859Z</time></trkpt><trkpt lat="40.870405" lon="14.0564617"><ele>1.8333333333333333</ele><time>2026-04-11T11:55:46.859Z</time></trkpt><trkpt lat="40.8703833" lon="14.0565567"><ele>2.0</ele><time>2026-04-11T11:55:47.86Z</time></trkpt><trkpt lat="40.870355" lon="14.0566567"><ele>1.9999999999999998</ele><time>2026-04-11T11:55:48.86Z</time></trkpt><trkpt lat="40.8703283" lon="14.05676"><ele>2.0</ele><time>2026-04-11T11:55:49.859Z</time></trkpt><trkpt lat="40.8703" lon="14.0568617"><ele>2.0</ele><time>2026-04-11T11:55:50.86Z</time></trkpt><trkpt lat="40.8702767" lon="14.0569633"><ele>2.0</ele><time>2026-04-11T11:55:51.86Z</time></trkpt><trkpt lat="40.87025" lon="14.0570667"><ele>1.9999999999999998</ele><time>2026-04-11T11:55:52.86Z</time></trkpt><trkpt lat="40.8702217" lon="14.0571733"><ele>2.0</ele><time>2026-04-11T11:55:53.86Z</time></trkpt><trkpt lat="40.8701933" lon="14.0572833"><ele>1.9999999999999998</ele><time>2026-04-11T11:55:54.857Z</time></trkpt><trkpt lat="40.8701633" lon="14.05739"><ele>2.0</ele><time>2026-04-11T11:55:55.86Z</time></trkpt><trkpt lat="40.870135" lon="14.0575"><ele>2.0</ele><time>2026-04-11T11:55:56.858Z</time></trkpt><trkpt lat="40.8701067" lon="14.0576067"><ele>2.0</ele><time>2026-04-11T11:55:57.859Z</time></trkpt><trkpt lat="40.8700783" lon="14.057715"><ele>1.9999999999999998</ele><time>2026-04-11T11:55:58.86Z</time></trkpt><trkpt lat="40.8700517" lon="14.057825"><ele>2.0</ele><time>2026-04-11T11:55:59.859Z</time></trkpt><trkpt lat="40.8700267" lon="14.057935"><ele>1.9999999999999998</ele><time>2026-04-11T11:56:00.86Z</time></trkpt><trkpt lat="40.87" lon="14.0580433"><ele>2.0</ele><time>2026-04-11T11:56:01.86Z</time></trkpt><trkpt lat="40.8699683" lon="14.0581517"><ele>2.0</ele><time>2026-04-11T11:56:02.86Z</time></trkpt><trkpt lat="40.869935" lon="14.058265"><ele>2.0</ele><time>2026-04-11T11:56:03.86Z</time></trkpt><trkpt lat="40.8699033" lon="14.058375"><ele>1.9999999999999998</ele><time>2026-04-11T11:56:04.861Z</time></trkpt><trkpt lat="40.8698717" lon="14.0584817"><ele>2.0</ele><time>2026-04-11T11:56:05.86Z</time></trkpt><trkpt lat="40.86984" lon="14.0585867"><ele>1.9999999999999998</ele><time>2026-04-11T11:56:06.86Z</time></trkpt><trkpt lat="40.86981" lon="14.05869"><ele>2.0</ele><time>2026-04-11T11:56:07.86Z</time></trkpt><trkpt lat="40.8697817" lon="14.058795"><ele>2.0</ele><time>2026-04-11T11:56:08.858Z</time></trkpt><trkpt lat="40.8697517" lon="14.0588983"><ele>2.0</ele><time>2026-04-11T11:56:09.857Z</time></trkpt><trkpt lat="40.8697217" lon="14.0590017"><ele>1.9999999999999998</ele><time>2026-04-11T11:56:10.86Z</time></trkpt><trkpt lat="40.8696933" lon="14.0591017"><ele>2.0</ele><time>2026-04-11T11:56:11.86Z</time></trkpt><trkpt lat="40.86967" lon="14.0592017"><ele>2.1666666666666665</ele><time>2026-04-11T11:56:12.86Z</time></trkpt><trkpt lat="40.8696467" lon="14.0592983"><ele>2.333333333333333</ele><time>2026-04-11T11:56:13.859Z</time></trkpt><trkpt lat="40.8696217" lon="14.0593933"><ele>2.5</ele><time>2026-04-11T11:56:14.859Z</time></trkpt><trkpt lat="40.8695917" lon="14.0594917"><ele>2.6666666666666665</ele><time>2026-04-11T11:56:15.86Z</time></trkpt><trkpt lat="40.86956" lon="14.05959"><ele>2.8333333333333335</ele><time>2026-04-11T11:56:16.86Z</time></trkpt><trkpt lat="40.8695283" lon="14.0596867"><ele>3.0</ele><time>2026-04-11T11:56:17.86Z</time></trkpt><trkpt lat="40.869495" lon="14.0597817"><ele>3.0</ele><time>2026-04-11T11:56:18.859Z</time></trkpt><trkpt lat="40.8694583" lon="14.0598733"><ele>3.0</ele><time>2026-04-11T11:56:19.859Z</time></trkpt><trkpt lat="40.8694217" lon="14.059965"><ele>3.0</ele><time>2026-04-11T11:56:20.859Z</time></trkpt><trkpt lat="40.8693883" lon="14.060055"><ele>3.0</ele><time>2026-04-11T11:56:21.86Z</time></trkpt><trkpt lat="40.869355" lon="14.060145"><ele>3.0</ele><time>2026-04-11T11:56:22.861Z</time></trkpt><trkpt lat="40.8693233" lon="14.060235"><ele>3.0</ele><time>2026-04-11T11:56:23.86Z</time></trkpt><trkpt lat="40.869285" lon="14.060325"><ele>2.9999999999999996</ele><time>2026-04-11T11:56:24.86Z</time></trkpt><trkpt lat="40.8692533" lon="14.0604133"><ele>3.0</ele><time>2026-04-11T11:56:25.86Z</time></trkpt><trkpt lat="40.8692217" lon="14.0605"><ele>3.0</ele><time>2026-04-11T11:56:26.858Z</time></trkpt><trkpt lat="40.86919" lon="14.0605867"><ele>3.0</ele><time>2026-04-11T11:56:27.858Z</time></trkpt><trkpt lat="40.869155" lon="14.0606683"><ele>3.0</ele><time>2026-04-11T11:56:28.86Z</time></trkpt><trkpt lat="40.8691217" lon="14.06075"><ele>2.9999999999999996</ele><time>2026-04-11T11:56:29.86Z</time></trkpt><trkpt lat="40.86909" lon="14.0608383"><ele>3.0</ele><time>2026-04-11T11:56:30.86Z</time></trkpt><trkpt lat="40.8690583" lon="14.0609233"><ele>2.9999999999999996</ele><time>2026-04-11T11:56:31.861Z</time></trkpt><trkpt lat="40.8690267" lon="14.06101"><ele>3.0</ele><time>2026-04-11T11:56:32.86Z</time></trkpt><trkpt lat="40.8689933" lon="14.0610967"><ele>3.0</ele><time>2026-04-11T11:56:33.858Z</time></trkpt><trkpt lat="40.8689617" lon="14.0611767"><ele>3.0</ele><time>2026-04-11T11:56:34.859Z</time></trkpt><trkpt lat="40.86893" lon="14.0612633"><ele>3.0</ele><time>2026-04-11T11:56:35.862Z</time></trkpt><trkpt lat="40.8689" lon="14.0613483"><ele>2.9999999999999996</ele><time>2026-04-11T11:56:36.862Z</time></trkpt><trkpt lat="40.8688683" lon="14.06143"><ele>3.0</ele><time>2026-04-11T11:56:37.862Z</time></trkpt><trkpt lat="40.86884" lon="14.0615083"><ele>3.25</ele><time>2026-04-11T11:56:38.859Z</time></trkpt><trkpt lat="40.8687833" lon="14.06165"><ele>3.5</ele><time>2026-04-11T11:56:40.86Z</time></trkpt><trkpt lat="40.8687233" lon="14.0617917"><ele>3.75</ele><time>2026-04-11T11:56:42.86Z</time></trkpt><trkpt lat="40.86868" lon="14.0619333"><ele>4.0</ele><time>2026-04-11T11:56:44.86Z</time></trkpt><trkpt lat="40.8686333" lon="14.062075"><ele>3.9999999999999996</ele><time>2026-04-11T11:56:46.861Z</time></trkpt><trkpt lat="40.8685783" lon="14.0622133"><ele>4.0</ele><time>2026-04-11T11:56:48.86Z</time></trkpt><trkpt lat="40.868525" lon="14.0623633"><ele>4.0</ele><time>2026-04-11T11:56:50.859Z</time></trkpt><trkpt lat="40.8684983" lon="14.0624417"><ele>4.0</ele><time>2026-04-11T11:56:51.86Z</time></trkpt><trkpt lat="40.8684683" lon="14.0625183"><ele>3.9999999999999996</ele><time>2026-04-11T11:56:52.862Z</time></trkpt><trkpt lat="40.86844" lon="14.062595"><ele>4.0</ele><time>2026-04-11T11:56:53.859Z</time></trkpt><trkpt lat="40.8683867" lon="14.0627433"><ele>3.8000000000000003</ele><time>2026-04-11T11:56:55.863Z</time></trkpt><trkpt lat="40.8683583" lon="14.0628183"><ele>3.6000000000000005</ele><time>2026-04-11T11:56:56.859Z</time></trkpt><trkpt lat="40.86833" lon="14.062895"><ele>3.4</ele><time>2026-04-11T11:56:57.861Z</time></trkpt><trkpt lat="40.8682733" lon="14.063035"><ele>3.2</ele><time>2026-04-11T11:56:59.861Z</time></trkpt><trkpt lat="40.8682233" lon="14.0631767"><ele>3.0</ele><time>2026-04-11T11:57:01.859Z</time></trkpt><trkpt lat="40.8681583" lon="14.0633067"><ele>3.0</ele><time>2026-04-11T11:57:03.859Z</time></trkpt><trkpt lat="40.8680883" lon="14.063445"><ele>3.0</ele><time>2026-04-11T11:57:05.86Z</time></trkpt><trkpt lat="40.8680317" lon="14.0635867"><ele>3.0</ele><time>2026-04-11T11:57:07.863Z</time></trkpt><trkpt lat="40.86798" lon="14.0637267"><ele>3.0</ele><time>2026-04-11T11:57:09.859Z</time></trkpt><trkpt lat="40.8679233" lon="14.0638567"><ele>3.0</ele><time>2026-04-11T11:57:11.863Z</time></trkpt><trkpt lat="40.867885" lon="14.0639883"><ele>3.0</ele><time>2026-04-11T11:57:13.86Z</time></trkpt><trkpt lat="40.8678617" lon="14.0641267"><ele>3.0</ele><time>2026-04-11T11:57:15.857Z</time></trkpt><trkpt lat="40.8678317" lon="14.06425"><ele>3.0</ele><time>2026-04-11T11:57:17.86Z</time></trkpt><trkpt lat="40.8677833" lon="14.0643733"><ele>3.0</ele><time>2026-04-11T11:57:19.86Z</time></trkpt><trkpt lat="40.8677367" lon="14.06449"><ele>3.2</ele><time>2026-04-11T11:57:21.859Z</time></trkpt><trkpt lat="40.8676867" lon="14.0646033"><ele>3.4</ele><time>2026-04-11T11:57:23.863Z</time></trkpt><trkpt lat="40.8676417" lon="14.0647233"><ele>3.6000000000000005</ele><time>2026-04-11T11:57:25.86Z</time></trkpt><trkpt lat="40.8675917" lon="14.06485"><ele>3.8000000000000003</ele><time>2026-04-11T11:57:27.862Z</time></trkpt><trkpt lat="40.8675367" lon="14.0649883"><ele>4.0</ele><time>2026-04-11T11:57:29.86Z</time></trkpt><trkpt lat="40.8674883" lon="14.0651033"><ele>4.2</ele><time>2026-04-11T11:57:31.86Z</time></trkpt><trkpt lat="40.867445" lon="14.0652217"><ele>4.4</ele><time>2026-04-11T11:57:33.859Z</time></trkpt><trkpt lat="40.8674017" lon="14.0653433"><ele>4.6</ele><time>2026-04-11T11:57:35.86Z</time></trkpt><trkpt lat="40.8673567" lon="14.06547"><ele>4.8</ele><time>2026-04-11T11:57:37.863Z</time></trkpt><trkpt lat="40.86731" lon="14.0655933"><ele>5.0</ele><time>2026-04-11T11:57:39.862Z</time></trkpt><trkpt lat="40.86727" lon="14.0657117"><ele>5.4</ele><time>2026-04-11T11:57:41.862Z</time></trkpt><trkpt lat="40.8672233" lon="14.06583"><ele>5.8</ele><time>2026-04-11T11:57:43.862Z</time></trkpt><trkpt lat="40.8671717" lon="14.0659383"><ele>6.199999999999999</ele><time>2026-04-11T11:57:45.861Z</time></trkpt><trkpt lat="40.8671067" lon="14.0660417"><ele>6.6</ele><time>2026-04-11T11:57:47.859Z</time></trkpt><trkpt lat="40.8670417" lon="14.06614"><ele>7.0</ele><time>2026-04-11T11:57:49.859Z</time></trkpt><trkpt lat="40.8669733" lon="14.0662383"><ele>7.000000000000001</ele><time>2026-04-11T11:57:51.86Z</time></trkpt><trkpt lat="40.8669083" lon="14.0663233"><ele>7.0</ele><time>2026-04-11T11:57:53.858Z</time></trkpt><trkpt lat="40.86684" lon="14.0663983"><ele>7.0</ele><time>2026-04-11T11:57:55.86Z</time></trkpt><trkpt lat="40.8667733" lon="14.06646"><ele>7.0</ele><time>2026-04-11T11:57:57.858Z</time></trkpt><trkpt lat="40.8667" lon="14.0665183"><ele>7.000000000000001</ele><time>2026-04-11T11:57:59.86Z</time></trkpt><trkpt lat="40.866625" lon="14.066565"><ele>7.0</ele><time>2026-04-11T11:58:01.86Z</time></trkpt><trkpt lat="40.8665567" lon="14.0665983"><ele>7.833333333333334</ele><time>2026-04-11T11:58:03.859Z</time></trkpt><trkpt lat="40.8664867" lon="14.06663"><ele>8.666666666666668</ele><time>2026-04-11T11:58:05.859Z</time></trkpt><trkpt lat="40.8664133" lon="14.0666633"><ele>9.5</ele><time>2026-04-11T11:58:07.86Z</time></trkpt><trkpt lat="40.8663333" lon="14.0666833"><ele>10.333333333333334</ele><time>2026-04-11T11:58:09.859Z</time></trkpt><trkpt lat="40.8662583" lon="14.0667017"><ele>11.166666666666666</ele><time>2026-04-11T11:58:11.859Z</time></trkpt><trkpt lat="40.866195" lon="14.0667183"><ele>12.0</ele><time>2026-04-11T11:58:13.86Z</time></trkpt><trkpt lat="40.8661133" lon="14.0667333"><ele>12.0</ele><time>2026-04-11T11:58:15.859Z</time></trkpt><trkpt lat="40.8660267" lon="14.0667333"><ele>12.0</ele><time>2026-04-11T11:58:17.859Z</time></trkpt><trkpt lat="40.865945" lon="14.066715"><ele>12.0</ele><time>2026-04-11T11:58:19.86Z</time></trkpt><trkpt lat="40.865865" lon="14.0666917"><ele>12.0</ele><time>2026-04-11T11:58:21.86Z</time></trkpt><trkpt lat="40.8657883" lon="14.066685"><ele>12.0</ele><time>2026-04-11T11:58:23.86Z</time></trkpt><trkpt lat="40.8657083" lon="14.0666667"><ele>12.0</ele><time>2026-04-11T11:58:25.86Z</time></trkpt><trkpt lat="40.8656283" lon="14.0666383"><ele>11.833333333333334</ele><time>2026-04-11T11:58:27.858Z</time></trkpt><trkpt lat="40.865545" lon="14.0666083"><ele>11.666666666666666</ele><time>2026-04-11T11:58:29.859Z</time></trkpt><trkpt lat="40.8654733" lon="14.06658"><ele>11.5</ele><time>2026-04-11T11:58:31.859Z</time></trkpt><trkpt lat="40.865405" lon="14.066565"><ele>11.333333333333332</ele><time>2026-04-11T11:58:33.86Z</time></trkpt><trkpt lat="40.86533" lon="14.0665467"><ele>11.166666666666666</ele><time>2026-04-11T11:58:35.86Z</time></trkpt><trkpt lat="40.8652517" lon="14.0665267"><ele>11.0</ele><time>2026-04-11T11:58:37.859Z</time></trkpt><trkpt lat="40.8651767" lon="14.066505"><ele>11.5</ele><time>2026-04-11T11:58:39.859Z</time></trkpt><trkpt lat="40.8651083" lon="14.0664717"><ele>12.0</ele><time>2026-04-11T11:58:41.862Z</time></trkpt><trkpt lat="40.8650317" lon="14.0664483"><ele>12.5</ele><time>2026-04-11T11:58:43.861Z</time></trkpt><trkpt lat="40.8649567" lon="14.0664217"><ele>13.0</ele><time>2026-04-11T11:58:45.86Z</time></trkpt><trkpt lat="40.8648783" lon="14.0664033"><ele>13.500000000000002</ele><time>2026-04-11T11:58:47.859Z</time></trkpt><trkpt lat="40.864805" lon="14.066385"><ele>14.0</ele><time>2026-04-11T11:58:49.859Z</time></trkpt><trkpt lat="40.8647317" lon="14.06637"><ele>14.000000000000002</ele><time>2026-04-11T11:58:51.862Z</time></trkpt><trkpt lat="40.8646533" lon="14.0663633"><ele>14.0</ele><time>2026-04-11T11:58:53.863Z</time></trkpt><trkpt lat="40.86458" lon="14.066355"><ele>14.0</ele><time>2026-04-11T11:58:55.86Z</time></trkpt><trkpt lat="40.8645033" lon="14.06636"><ele>14.0</ele><time>2026-04-11T11:58:57.858Z</time></trkpt><trkpt lat="40.864425" lon="14.066365"><ele>14.000000000000002</ele><time>2026-04-11T11:58:59.859Z</time></trkpt><trkpt lat="40.8643433" lon="14.066375"><ele>14.0</ele><time>2026-04-11T11:59:01.86Z</time></trkpt><trkpt lat="40.86426" lon="14.0663883"><ele>14.285714285714285</ele><time>2026-04-11T11:59:03.862Z</time></trkpt><trkpt lat="40.8641767" lon="14.0664"><ele>14.571428571428571</ele><time>2026-04-11T11:59:05.859Z</time></trkpt><trkpt lat="40.8640933" lon="14.0664183"><ele>14.857142857142858</ele><time>2026-04-11T11:59:07.86Z</time></trkpt><trkpt lat="40.8640183" lon="14.066435"><ele>15.142857142857142</ele><time>2026-04-11T11:59:09.86Z</time></trkpt><trkpt lat="40.8639483" lon="14.0664533"><ele>15.428571428571427</ele><time>2026-04-11T11:59:11.86Z</time></trkpt><trkpt lat="40.86388" lon="14.0664667"><ele>15.714285714285714</ele><time>2026-04-11T11:59:13.861Z</time></trkpt><trkpt lat="40.8638183" lon="14.0664917"><ele>16.0</ele><time>2026-04-11T11:59:15.859Z</time></trkpt><trkpt lat="40.8637467" lon="14.0665167"><ele>15.999999999999998</ele><time>2026-04-11T11:59:17.86Z</time></trkpt><trkpt lat="40.863675" lon="14.0665367"><ele>16.0</ele><time>2026-04-11T11:59:19.86Z</time></trkpt><trkpt lat="40.8636017" lon="14.0665433"><ele>16.0</ele><time>2026-04-11T11:59:21.859Z</time></trkpt><trkpt lat="40.8635367" lon="14.0665533"><ele>16.0</ele><time>2026-04-11T11:59:23.859Z</time></trkpt><trkpt lat="40.863475" lon="14.0665733"><ele>15.999999999999998</ele><time>2026-04-11T11:59:25.86Z</time></trkpt><trkpt lat="40.863385" lon="14.0665983"><ele>16.0</ele><time>2026-04-11T11:59:28.859Z</time></trkpt><trkpt lat="40.8633" lon="14.0666267"><ele>18.0</ele><time>2026-04-11T11:59:31.861Z</time></trkpt><trkpt lat="40.8632333" lon="14.06665"><ele>20.0</ele><time>2026-04-11T11:59:33.859Z</time></trkpt><trkpt lat="40.8631683" lon="14.0666683"><ele>22.0</ele><time>2026-04-11T11:59:35.86Z</time></trkpt><trkpt lat="40.8630967" lon="14.0666883"><ele>24.0</ele><time>2026-04-11T11:59:37.859Z</time></trkpt><trkpt lat="40.863" lon="14.0667133"><ele>26.000000000000004</ele><time>2026-04-11T11:59:40.857Z</time></trkpt><trkpt lat="40.8629317" lon="14.066735"><ele>28.0</ele><time>2026-04-11T11:59:42.859Z</time></trkpt><trkpt lat="40.86284" lon="14.0667517"><ele>28.000000000000004</ele><time>2026-04-11T11:59:45.858Z</time></trkpt><trkpt lat="40.86275" lon="14.066775"><ele>28.0</ele><time>2026-04-11T11:59:48.86Z</time></trkpt><trkpt lat="40.8626817" lon="14.0667883"><ele>28.0</ele><time>2026-04-11T11:59:50.859Z</time></trkpt><trkpt lat="40.8626117" lon="14.0668067"><ele>28.0</ele><time>2026-04-11T11:59:52.861Z</time></trkpt><trkpt lat="40.8625317" lon="14.0668233"><ele>28.000000000000004</ele><time>2026-04-11T11:59:54.861Z</time></trkpt><trkpt lat="40.8624533" lon="14.06684"><ele>28.0</ele><time>2026-04-11T11:59:56.859Z</time></trkpt><trkpt lat="40.8623783" lon="14.06686"><ele>28.142857142857142</ele><time>2026-04-11T11:59:58.859Z</time></trkpt><trkpt lat="40.8623117" lon="14.0668733"><ele>28.285714285714285</ele><time>2026-04-11T12:00:00.858Z</time></trkpt><trkpt lat="40.8622483" lon="14.06689"><ele>28.42857142857143</ele><time>2026-04-11T12:00:02.858Z</time></trkpt><trkpt lat="40.862185" lon="14.0669083"><ele>28.571428571428573</ele><time>2026-04-11T12:00:04.858Z</time></trkpt><trkpt lat="40.8621117" lon="14.0669183"><ele>28.714285714285715</ele><time>2026-04-11T12:00:06.858Z</time></trkpt><trkpt lat="40.8620317" lon="14.06693"><ele>28.85714285714286</ele><time>2026-04-11T12:00:08.859Z</time></trkpt><trkpt lat="40.8619583" lon="14.0669417"><ele>29.000000000000004</ele><time>2026-04-11T12:00:10.859Z</time></trkpt><trkpt lat="40.8618717" lon="14.0669533"><ele>29.166666666666664</ele><time>2026-04-11T12:00:13.861Z</time></trkpt><trkpt lat="40.86178" lon="14.06696"><ele>29.333333333333332</ele><time>2026-04-11T12:00:16.859Z</time></trkpt><trkpt lat="40.861715" lon="14.066965"><ele>29.5</ele><time>2026-04-11T12:00:18.86Z</time></trkpt><trkpt lat="40.8616367" lon="14.066975"><ele>29.666666666666664</ele><time>2026-04-11T12:00:21.859Z</time></trkpt><trkpt lat="40.86155" lon="14.0669783"><ele>29.833333333333332</ele><time>2026-04-11T12:00:24.859Z</time></trkpt><trkpt lat="40.8614817" lon="14.0669933"><ele>30.0</ele><time>2026-04-11T12:00:26.859Z</time></trkpt><trkpt lat="40.8614117" lon="14.06701"><ele>30.0</ele><time>2026-04-11T12:00:28.86Z</time></trkpt><trkpt lat="40.8613433" lon="14.0670333"><ele>30.0</ele><time>2026-04-11T12:00:30.859Z</time></trkpt><trkpt lat="40.86128" lon="14.0670533"><ele>30.0</ele><time>2026-04-11T12:00:32.86Z</time></trkpt><trkpt lat="40.8612167" lon="14.0670817"><ele>30.0</ele><time>2026-04-11T12:00:34.86Z</time></trkpt><trkpt lat="40.8611517" lon="14.0671017"><ele>30.0</ele><time>2026-04-11T12:00:36.859Z</time></trkpt><trkpt lat="40.8610933" lon="14.067135"><ele>30.0</ele><time>2026-04-11T12:00:38.86Z</time></trkpt><trkpt lat="40.86101" lon="14.0671867"><ele>30.0</ele><time>2026-04-11T12:00:41.859Z</time></trkpt><trkpt lat="40.86095" lon="14.0672233"><ele>30.0</ele><time>2026-04-11T12:00:43.859Z</time></trkpt><trkpt lat="40.8608633" lon="14.0672817"><ele>30.0</ele><time>2026-04-11T12:00:46.859Z</time></trkpt><trkpt lat="40.8608017" lon="14.0673233"><ele>30.0</ele><time>2026-04-11T12:00:48.86Z</time></trkpt><trkpt lat="40.8607367" lon="14.06737"><ele>30.0</ele><time>2026-04-11T12:00:50.859Z</time></trkpt><trkpt lat="40.8606817" lon="14.0674167"><ele>30.0</ele><time>2026-04-11T12:00:52.861Z</time></trkpt><trkpt lat="40.8606117" lon="14.0674867"><ele>30.0</ele><time>2026-04-11T12:00:55.86Z</time></trkpt><trkpt lat="40.860545" lon="14.067555"><ele>31.666666666666668</ele><time>2026-04-11T12:00:58.859Z</time></trkpt><trkpt lat="40.860475" lon="14.0676183"><ele>33.333333333333336</ele><time>2026-04-11T12:01:01.859Z</time></trkpt><trkpt lat="40.86041" lon="14.0676783"><ele>35.0</ele><time>2026-04-11T12:01:04.859Z</time></trkpt><trkpt lat="40.8603483" lon="14.0677517"><ele>36.66666666666667</ele><time>2026-04-11T12:01:07.861Z</time></trkpt><trkpt lat="40.8602783" lon="14.06782"><ele>38.333333333333336</ele><time>2026-04-11T12:01:10.863Z</time></trkpt><trkpt lat="40.86021" lon="14.0678833"><ele>40.0</ele><time>2026-04-11T12:01:13.862Z</time></trkpt><trkpt lat="40.8601367" lon="14.06795"><ele>39.857142857142854</ele><time>2026-04-11T12:01:16.861Z</time></trkpt><trkpt lat="40.860085" lon="14.0679983"><ele>39.714285714285715</ele><time>2026-04-11T12:01:18.859Z</time></trkpt><trkpt lat="40.8600317" lon="14.0680517"><ele>39.57142857142857</ele><time>2026-04-11T12:01:20.86Z</time></trkpt><trkpt lat="40.85998" lon="14.0681067"><ele>39.42857142857143</ele><time>2026-04-11T12:01:22.858Z</time></trkpt><trkpt lat="40.8599283" lon="14.0681617"><ele>39.285714285714285</ele><time>2026-04-11T12:01:24.859Z</time></trkpt><trkpt lat="40.85988" lon="14.0682217"><ele>39.142857142857146</ele><time>2026-04-11T12:01:26.86Z</time></trkpt><trkpt lat="40.8598333" lon="14.06828"><ele>39.0</ele><time>2026-04-11T12:01:28.859Z</time></trkpt><trkpt lat="40.8597683" lon="14.06836"><ele>40.333333333333336</ele><time>2026-04-11T12:01:31.86Z</time></trkpt><trkpt lat="40.8597" lon="14.0684283"><ele>41.666666666666664</ele><time>2026-04-11T12:01:34.859Z</time></trkpt><trkpt lat="40.8596417" lon="14.0685033"><ele>43.0</ele><time>2026-04-11T12:01:37.863Z</time></trkpt><trkpt lat="40.8595817" lon="14.068575"><ele>44.33333333333333</ele><time>2026-04-11T12:01:40.86Z</time></trkpt><trkpt lat="40.8595333" lon="14.0686333"><ele>45.666666666666664</ele><time>2026-04-11T12:01:42.861Z</time></trkpt><trkpt lat="40.8594817" lon="14.0686817"><ele>47.0</ele><time>2026-04-11T12:01:44.858Z</time></trkpt><trkpt lat="40.8594133" lon="14.0687533"><ele>47.0</ele><time>2026-04-11T12:01:47.861Z</time></trkpt><trkpt lat="40.8593483" lon="14.06882"><ele>47.0</ele><time>2026-04-11T12:01:50.86Z</time></trkpt><trkpt lat="40.8592783" lon="14.0688917"><ele>47.0</ele><time>2026-04-11T12:01:53.86Z</time></trkpt><trkpt lat="40.859205" lon="14.0689683"><ele>47.0</ele><time>2026-04-11T12:01:56.86Z</time></trkpt><trkpt lat="40.85914" lon="14.0690317"><ele>47.0</ele><time>2026-04-11T12:01:59.861Z</time></trkpt><trkpt lat="40.859075" lon="14.0690917"><ele>47.0</ele><time>2026-04-11T12:02:02.859Z</time></trkpt><trkpt lat="40.8590183" lon="14.0691333"><ele>48.2</ele><time>2026-04-11T12:02:04.86Z</time></trkpt><trkpt lat="40.8589383" lon="14.0691967"><ele>49.400000000000006</ele><time>2026-04-11T12:02:07.861Z</time></trkpt><trkpt lat="40.8588633" lon="14.0692667"><ele>50.599999999999994</ele><time>2026-04-11T12:02:10.86Z</time></trkpt><trkpt lat="40.858795" lon="14.069345"><ele>51.8</ele><time>2026-04-11T12:02:13.859Z</time></trkpt><trkpt lat="40.858725" lon="14.0694233"><ele>53.0</ele><time>2026-04-11T12:02:16.86Z</time></trkpt><trkpt lat="40.858645" lon="14.0694967"><ele>53.0</ele><time>2026-04-11T12:02:19.861Z</time></trkpt><trkpt lat="40.8585733" lon="14.06957"><ele>53.0</ele><time>2026-04-11T12:02:22.86Z</time></trkpt><trkpt lat="40.85851" lon="14.0696383"><ele>53.0</ele><time>2026-04-11T12:02:25.861Z</time></trkpt><trkpt lat="40.8584617" lon="14.069695"><ele>53.0</ele><time>2026-04-11T12:02:27.859Z</time></trkpt><trkpt lat="40.85841" lon="14.0697517"><ele>53.0</ele><time>2026-04-11T12:02:29.859Z</time></trkpt><trkpt lat="40.85836" lon="14.0698083"><ele>53.0</ele><time>2026-04-11T12:02:31.859Z</time></trkpt><trkpt lat="40.8583117" lon="14.0698633"><ele>53.0</ele><time>2026-04-11T12:02:33.86Z</time></trkpt><trkpt lat="40.85824" lon="14.0699417"><ele>53.333333333333336</ele><time>2026-04-11T12:02:36.862Z</time></trkpt><trkpt lat="40.85817" lon="14.0700267"><ele>53.66666666666667</ele><time>2026-04-11T12:02:39.86Z</time></trkpt><trkpt lat="40.8581233" lon="14.070085"><ele>54.0</ele><time>2026-04-11T12:02:41.86Z</time></trkpt><trkpt lat="40.8580533" lon="14.0701683"><ele>54.33333333333333</ele><time>2026-04-11T12:02:44.863Z</time></trkpt><trkpt lat="40.857995" lon="14.0702433"><ele>54.666666666666664</ele><time>2026-04-11T12:02:47.86Z</time></trkpt><trkpt lat="40.8579467" lon="14.0703033"><ele>55.0</ele><time>2026-04-11T12:02:49.861Z</time></trkpt><trkpt lat="40.8578833" lon="14.07039"><ele>54.99999999999999</ele><time>2026-04-11T12:02:52.86Z</time></trkpt><trkpt lat="40.85784" lon="14.070455"><ele>55.0</ele><time>2026-04-11T12:02:54.858Z</time></trkpt><trkpt lat="40.8577717" lon="14.0705433"><ele>55.0</ele><time>2026-04-11T12:02:57.861Z</time></trkpt><trkpt lat="40.857725" lon="14.070605"><ele>55.0</ele><time>2026-04-11T12:02:59.86Z</time></trkpt><trkpt lat="40.8576783" lon="14.070665"><ele>55.0</ele><time>2026-04-11T12:03:01.86Z</time></trkpt><trkpt lat="40.8576133" lon="14.0707517"><ele>54.99999999999999</ele><time>2026-04-11T12:03:04.86Z</time></trkpt><trkpt lat="40.85757" lon="14.070815"><ele>55.0</ele><time>2026-04-11T12:03:06.86Z</time></trkpt><trkpt lat="40.8574967" lon="14.0708917"><ele>55.71428571428571</ele><time>2026-04-11T12:03:09.857Z</time></trkpt><trkpt lat="40.8574533" lon="14.0709533"><ele>56.42857142857143</ele><time>2026-04-11T12:03:11.859Z</time></trkpt><trkpt lat="40.8574067" lon="14.07101"><ele>57.14285714285714</ele><time>2026-04-11T12:03:13.86Z</time></trkpt><trkpt lat="40.8573533" lon="14.0710717"><ele>57.857142857142854</ele><time>2026-04-11T12:03:15.86Z</time></trkpt><trkpt lat="40.8573167" lon="14.07114"><ele>58.57142857142857</ele><time>2026-04-11T12:03:17.86Z</time></trkpt><trkpt lat="40.857265" lon="14.0712"><ele>59.285714285714285</ele><time>2026-04-11T12:03:19.86Z</time></trkpt><trkpt lat="40.8572183" lon="14.0712617"><ele>60.0</ele><time>2026-04-11T12:03:21.86Z</time></trkpt><trkpt lat="40.857175" lon="14.071325"><ele>60.0</ele><time>2026-04-11T12:03:23.859Z</time></trkpt><trkpt lat="40.8571333" lon="14.07139"><ele>60.0</ele><time>2026-04-11T12:03:25.861Z</time></trkpt><trkpt lat="40.8570967" lon="14.0714633"><ele>60.0</ele><time>2026-04-11T12:03:27.859Z</time></trkpt><trkpt lat="40.8570517" lon="14.0715317"><ele>60.0</ele><time>2026-04-11T12:03:29.858Z</time></trkpt><trkpt lat="40.857" lon="14.0716067"><ele>60.0</ele><time>2026-04-11T12:03:31.861Z</time></trkpt><trkpt lat="40.85695" lon="14.0716883"><ele>60.0</ele><time>2026-04-11T12:03:33.859Z</time></trkpt><trkpt lat="40.856905" lon="14.071775"><ele>60.0</ele><time>2026-04-11T12:03:35.86Z</time></trkpt><trkpt lat="40.8568583" lon="14.0718583"><ele>60.42857142857143</ele><time>2026-04-11T12:03:37.862Z</time></trkpt><trkpt lat="40.8568133" lon="14.07194"><ele>60.857142857142854</ele><time>2026-04-11T12:03:39.859Z</time></trkpt><trkpt lat="40.8567667" lon="14.0720183"><ele>61.285714285714285</ele><time>2026-04-11T12:03:41.86Z</time></trkpt><trkpt lat="40.8567217" lon="14.0721"><ele>61.714285714285715</ele><time>2026-04-11T12:03:43.863Z</time></trkpt><trkpt lat="40.85668" lon="14.072175"><ele>62.14285714285714</ele><time>2026-04-11T12:03:45.86Z</time></trkpt><trkpt lat="40.856635" lon="14.0722517"><ele>62.57142857142857</ele><time>2026-04-11T12:03:47.859Z</time></trkpt><trkpt lat="40.8565883" lon="14.0723333"><ele>63.0</ele><time>2026-04-11T12:03:49.86Z</time></trkpt><trkpt lat="40.8565433" lon="14.0724017"><ele>63.85714285714286</ele><time>2026-04-11T12:03:51.858Z</time></trkpt><trkpt lat="40.8565067" lon="14.07247"><ele>64.71428571428572</ele><time>2026-04-11T12:03:53.859Z</time></trkpt><trkpt lat="40.8564617" lon="14.0725483"><ele>65.57142857142857</ele><time>2026-04-11T12:03:55.859Z</time></trkpt><trkpt lat="40.8564183" lon="14.0726233"><ele>66.42857142857143</ele><time>2026-04-11T12:03:57.859Z</time></trkpt><trkpt lat="40.8563683" lon="14.072695"><ele>67.28571428571429</ele><time>2026-04-11T12:03:59.86Z</time></trkpt><trkpt lat="40.8563167" lon="14.072765"><ele>68.14285714285714</ele><time>2026-04-11T12:04:01.859Z</time></trkpt><trkpt lat="40.8562633" lon="14.0728283"><ele>69.0</ele><time>2026-04-11T12:04:03.86Z</time></trkpt><trkpt lat="40.856205" lon="14.0728883"><ele>69.0</ele><time>2026-04-11T12:04:05.86Z</time></trkpt><trkpt lat="40.8561517" lon="14.0729533"><ele>69.0</ele><time>2026-04-11T12:04:07.859Z</time></trkpt><trkpt lat="40.8560933" lon="14.073015"><ele>69.0</ele><time>2026-04-11T12:04:09.859Z</time></trkpt><trkpt lat="40.85603" lon="14.073075"><ele>69.0</ele><time>2026-04-11T12:04:11.861Z</time></trkpt><trkpt lat="40.8559733" lon="14.07314"><ele>69.0</ele><time>2026-04-11T12:04:13.859Z</time></trkpt><trkpt lat="40.85591" lon="14.0732"><ele>69.0</ele><time>2026-04-11T12:04:15.858Z</time></trkpt><trkpt lat="40.85585" lon="14.0732533"><ele>69.57142857142857</ele><time>2026-04-11T12:04:17.86Z</time></trkpt><trkpt lat="40.85579" lon="14.0733083"><ele>70.14285714285715</ele><time>2026-04-11T12:04:19.858Z</time></trkpt><trkpt lat="40.8557267" lon="14.073355"><ele>70.71428571428572</ele><time>2026-04-11T12:04:21.858Z</time></trkpt><trkpt lat="40.8556617" lon="14.0733917"><ele>71.28571428571429</ele><time>2026-04-11T12:04:23.859Z</time></trkpt><trkpt lat="40.8556" lon="14.073435"><ele>71.85714285714286</ele><time>2026-04-11T12:04:25.859Z</time></trkpt><trkpt lat="40.8555383" lon="14.0734717"><ele>72.42857142857143</ele><time>2026-04-11T12:04:27.858Z</time></trkpt><trkpt lat="40.8554733" lon="14.0735017"><ele>73.0</ele><time>2026-04-11T12:04:29.859Z</time></trkpt><trkpt lat="40.855405" lon="14.0735267"><ele>73.0</ele><time>2026-04-11T12:04:31.859Z</time></trkpt><trkpt lat="40.8553383" lon="14.0735433"><ele>73.0</ele><time>2026-04-11T12:04:33.86Z</time></trkpt><trkpt lat="40.8552683" lon="14.0735683"><ele>73.0</ele><time>2026-04-11T12:04:35.86Z</time></trkpt><trkpt lat="40.8551983" lon="14.0735883"><ele>73.0</ele><time>2026-04-11T12:04:37.859Z</time></trkpt><trkpt lat="40.8551283" lon="14.0735883"><ele>73.0</ele><time>2026-04-11T12:04:39.858Z</time></trkpt><trkpt lat="40.85506" lon="14.0735917"><ele>73.0</ele><time>2026-04-11T12:04:41.86Z</time></trkpt><trkpt lat="40.8549917" lon="14.0735983"><ele>73.0</ele><time>2026-04-11T12:04:43.859Z</time></trkpt><trkpt lat="40.8549167" lon="14.0735983"><ele>73.33333333333333</ele><time>2026-04-11T12:04:45.859Z</time></trkpt><trkpt lat="40.8548417" lon="14.0735917"><ele>73.66666666666666</ele><time>2026-04-11T12:04:47.859Z</time></trkpt><trkpt lat="40.8547683" lon="14.07359"><ele>74.0</ele><time>2026-04-11T12:04:49.858Z</time></trkpt><trkpt lat="40.854685" lon="14.0735817"><ele>74.33333333333333</ele><time>2026-04-11T12:04:51.858Z</time></trkpt><trkpt lat="40.8546017" lon="14.0735733"><ele>74.66666666666667</ele><time>2026-04-11T12:04:53.86Z</time></trkpt><trkpt lat="40.8545217" lon="14.07356"><ele>75.0</ele><time>2026-04-11T12:04:55.858Z</time></trkpt><trkpt lat="40.85444" lon="14.0735483"><ele>75.0</ele><time>2026-04-11T12:04:57.858Z</time></trkpt><trkpt lat="40.8543633" lon="14.0735367"><ele>75.0</ele><time>2026-04-11T12:04:59.859Z</time></trkpt><trkpt lat="40.8542867" lon="14.0735283"><ele>75.0</ele><time>2026-04-11T12:05:01.859Z</time></trkpt><trkpt lat="40.854215" lon="14.0735233"><ele>75.0</ele><time>2026-04-11T12:05:03.858Z</time></trkpt><trkpt lat="40.8541333" lon="14.0735167"><ele>75.0</ele><time>2026-04-11T12:05:05.858Z</time></trkpt><trkpt lat="40.8540533" lon="14.0735117"><ele>75.0</ele><time>2026-04-11T12:05:07.858Z</time></trkpt><trkpt lat="40.8539717" lon="14.073505"><ele>75.5</ele><time>2026-04-11T12:05:09.858Z</time></trkpt><trkpt lat="40.85389" lon="14.0734967"><ele>76.0</ele><time>2026-04-11T12:05:11.858Z</time></trkpt><trkpt lat="40.85381" lon="14.07349"><ele>76.5</ele><time>2026-04-11T12:05:13.858Z</time></trkpt><trkpt lat="40.85373" lon="14.0734767"><ele>77.0</ele><time>2026-04-11T12:05:15.86Z</time></trkpt><trkpt lat="40.85365" lon="14.07345"><ele>77.5</ele><time>2026-04-11T12:05:17.858Z</time></trkpt><trkpt lat="40.8535717" lon="14.0734217"><ele>78.0</ele><time>2026-04-11T12:05:19.858Z</time></trkpt><trkpt lat="40.8534967" lon="14.0733867"><ele>77.33333333333333</ele><time>2026-04-11T12:05:21.857Z</time></trkpt><trkpt lat="40.853425" lon="14.0733417"><ele>76.66666666666667</ele><time>2026-04-11T12:05:23.859Z</time></trkpt><trkpt lat="40.85336" lon="14.0732817"><ele>76.0</ele><time>2026-04-11T12:05:25.86Z</time></trkpt><trkpt lat="40.853295" lon="14.0732167"><ele>75.33333333333334</ele><time>2026-04-11T12:05:27.858Z</time></trkpt><trkpt lat="40.8532383" lon="14.0731383"><ele>74.66666666666667</ele><time>2026-04-11T12:05:29.86Z</time></trkpt><trkpt lat="40.85318" lon="14.0730567"><ele>74.0</ele><time>2026-04-11T12:05:31.859Z</time></trkpt><trkpt lat="40.8531233" lon="14.072985"><ele>74.0</ele><time>2026-04-11T12:05:33.858Z</time></trkpt><trkpt lat="40.8530683" lon="14.0729033"><ele>74.0</ele><time>2026-04-11T12:05:35.857Z</time></trkpt><trkpt lat="40.8530167" lon="14.0728383"><ele>74.0</ele><time>2026-04-11T12:05:37.859Z</time></trkpt><trkpt lat="40.8529617" lon="14.0727833"><ele>74.0</ele><time>2026-04-11T12:05:39.858Z</time></trkpt><trkpt lat="40.8529067" lon="14.07273"><ele>74.0</ele><time>2026-04-11T12:05:41.858Z</time></trkpt><trkpt lat="40.85285" lon="14.0726683"><ele>74.0</ele><time>2026-04-11T12:05:43.859Z</time></trkpt><trkpt lat="40.85279" lon="14.0725983"><ele>74.0</ele><time>2026-04-11T12:05:45.859Z</time></trkpt><trkpt lat="40.852725" lon="14.072535"><ele>74.0</ele><time>2026-04-11T12:05:47.859Z</time></trkpt><trkpt lat="40.8526567" lon="14.0724683"><ele>74.0</ele><time>2026-04-11T12:05:49.859Z</time></trkpt><trkpt lat="40.852595" lon="14.0723933"><ele>74.0</ele><time>2026-04-11T12:05:51.859Z</time></trkpt><trkpt lat="40.8525417" lon="14.0723067"><ele>74.0</ele><time>2026-04-11T12:05:53.859Z</time></trkpt><trkpt lat="40.8524883" lon="14.072215"><ele>74.0</ele><time>2026-04-11T12:05:55.858Z</time></trkpt><trkpt lat="40.85243" lon="14.0721233"><ele>74.0</ele><time>2026-04-11T12:05:57.858Z</time></trkpt><trkpt lat="40.8523633" lon="14.0720217"><ele>74.75</ele><time>2026-04-11T12:05:59.86Z</time></trkpt><trkpt lat="40.8522883" lon="14.0719167"><ele>75.5</ele><time>2026-04-11T12:06:01.859Z</time></trkpt><trkpt lat="40.8522033" lon="14.0718033"><ele>76.25</ele><time>2026-04-11T12:06:03.859Z</time></trkpt><trkpt lat="40.8521283" lon="14.0716817"><ele>77.0</ele><time>2026-04-11T12:06:05.859Z</time></trkpt><trkpt lat="40.852055" lon="14.0715617"><ele>75.66666666666667</ele><time>2026-04-11T12:06:07.859Z</time></trkpt><trkpt lat="40.851975" lon="14.0714517"><ele>74.33333333333334</ele><time>2026-04-11T12:06:09.857Z</time></trkpt><trkpt lat="40.8519" lon="14.0713417"><ele>73.0</ele><time>2026-04-11T12:06:11.859Z</time></trkpt><trkpt lat="40.851845" lon="14.0712783"><ele>71.66666666666667</ele><time>2026-04-11T12:06:13.86Z</time></trkpt><trkpt lat="40.851785" lon="14.0713233"><ele>70.33333333333333</ele><time>2026-04-11T12:06:25.86Z</time></trkpt><trkpt lat="40.8517733" lon="14.0714117"><ele>69.0</ele><time>2026-04-11T12:06:28.86Z</time></trkpt><trkpt lat="40.8518017" lon="14.0714917"><ele>69.0</ele><time>2026-04-11T12:06:30.859Z</time></trkpt><trkpt lat="40.85184" lon="14.0715717"><ele>69.0</ele><time>2026-04-11T12:06:32.859Z</time></trkpt><trkpt lat="40.85189" lon="14.0716483"><ele>69.0</ele><time>2026-04-11T12:06:34.858Z</time></trkpt><trkpt lat="40.851945" lon="14.07174"><ele>69.0</ele><time>2026-04-11T12:06:36.859Z</time></trkpt><trkpt lat="40.8520133" lon="14.07183"><ele>69.0</ele><time>2026-04-11T12:06:38.858Z</time></trkpt><trkpt lat="40.8520933" lon="14.0719267"><ele>69.0</ele><time>2026-04-11T12:06:40.859Z</time></trkpt><trkpt lat="40.8521733" lon="14.0720267"><ele>70.33333333333333</ele><time>2026-04-11T12:06:42.859Z</time></trkpt><trkpt lat="40.8522583" lon="14.0721283"><ele>71.66666666666667</ele><time>2026-04-11T12:06:44.859Z</time></trkpt><trkpt lat="40.8523033" lon="14.0721867"><ele>73.0</ele><time>2026-04-11T12:06:45.859Z</time></trkpt><trkpt lat="40.8523517" lon="14.0722467"><ele>74.33333333333334</ele><time>2026-04-11T12:06:46.859Z</time></trkpt><trkpt lat="40.852395" lon="14.07231"><ele>75.66666666666667</ele><time>2026-04-11T12:06:47.859Z</time></trkpt><trkpt lat="40.8524733" lon="14.07243"><ele>77.0</ele><time>2026-04-11T12:06:49.86Z</time></trkpt><trkpt lat="40.8525467" lon="14.0725467"><ele>76.25</ele><time>2026-04-11T12:06:51.858Z</time></trkpt><trkpt lat="40.8526167" lon="14.0726683"><ele>75.5</ele><time>2026-04-11T12:06:53.859Z</time></trkpt><trkpt lat="40.8526817" lon="14.0727883"><ele>74.75</ele><time>2026-04-11T12:06:55.858Z</time></trkpt><trkpt lat="40.8527383" lon="14.07291"><ele>74.0</ele><time>2026-04-11T12:06:57.859Z</time></trkpt><trkpt lat="40.8528083" lon="14.07303"><ele>74.0</ele><time>2026-04-11T12:06:59.859Z</time></trkpt><trkpt lat="40.8528717" lon="14.07314"><ele>74.0</ele><time>2026-04-11T12:07:01.859Z</time></trkpt><trkpt lat="40.8529483" lon="14.0732567"><ele>74.0</ele><time>2026-04-11T12:07:03.859Z</time></trkpt><trkpt lat="40.8530183" lon="14.073365"><ele>74.0</ele><time>2026-04-11T12:07:05.86Z</time></trkpt><trkpt lat="40.8530833" lon="14.0734817"><ele>74.0</ele><time>2026-04-11T12:07:07.86Z</time></trkpt><trkpt lat="40.8531483" lon="14.0736017"><ele>76.0</ele><time>2026-04-11T12:07:09.859Z</time></trkpt><trkpt lat="40.8532233" lon="14.0737267"><ele>78.0</ele><time>2026-04-11T12:07:11.858Z</time></trkpt><trkpt lat="40.8532667" lon="14.0737883"><ele>80.0</ele><time>2026-04-11T12:07:12.859Z</time></trkpt><trkpt lat="40.8533517" lon="14.0739"><ele>82.0</ele><time>2026-04-11T12:07:14.859Z</time></trkpt><trkpt lat="40.853445" lon="14.0740067"><ele>84.0</ele><time>2026-04-11T12:07:16.859Z</time></trkpt><trkpt lat="40.853535" lon="14.0741133"><ele>84.4</ele><time>2026-04-11T12:07:18.86Z</time></trkpt><trkpt lat="40.8536183" lon="14.07424"><ele>84.80000000000001</ele><time>2026-04-11T12:07:20.86Z</time></trkpt><trkpt lat="40.85366" lon="14.074305"><ele>85.19999999999999</ele><time>2026-04-11T12:07:21.859Z</time></trkpt><trkpt lat="40.8537017" lon="14.0743683"><ele>85.6</ele><time>2026-04-11T12:07:22.859Z</time></trkpt><trkpt lat="40.853785" lon="14.0744867"><ele>86.0</ele><time>2026-04-11T12:07:24.86Z</time></trkpt><trkpt lat="40.8538633" lon="14.0746"><ele>86.0</ele><time>2026-04-11T12:07:26.859Z</time></trkpt><trkpt lat="40.85394" lon="14.0747217"><ele>86.0</ele><time>2026-04-11T12:07:28.859Z</time></trkpt><trkpt lat="40.8540033" lon="14.074835"><ele>86.0</ele><time>2026-04-11T12:07:30.86Z</time></trkpt><trkpt lat="40.854065" lon="14.07496"><ele>86.0</ele><time>2026-04-11T12:07:32.86Z</time></trkpt><trkpt lat="40.8541267" lon="14.0751033"><ele>86.0</ele><time>2026-04-11T12:07:34.859Z</time></trkpt><trkpt lat="40.8541933" lon="14.0752333"><ele>86.0</ele><time>2026-04-11T12:07:36.86Z</time></trkpt><trkpt lat="40.8542683" lon="14.07536"><ele>86.0</ele><time>2026-04-11T12:07:38.86Z</time></trkpt><trkpt lat="40.8543083" lon="14.0754267"><ele>86.0</ele><time>2026-04-11T12:07:39.86Z</time></trkpt><trkpt lat="40.8543533" lon="14.075495"><ele>86.0</ele><time>2026-04-11T12:07:40.859Z</time></trkpt><trkpt lat="40.8544317" lon="14.07562"><ele>86.0</ele><time>2026-04-11T12:07:42.86Z</time></trkpt><trkpt lat="40.8545033" lon="14.075735"><ele>86.0</ele><time>2026-04-11T12:07:44.86Z</time></trkpt><trkpt lat="40.8545817" lon="14.0758467"><ele>86.0</ele><time>2026-04-11T12:07:46.86Z</time></trkpt><trkpt lat="40.854665" lon="14.0759433"><ele>86.0</ele><time>2026-04-11T12:07:48.86Z</time></trkpt><trkpt lat="40.8547517" lon="14.0760367"><ele>88.25</ele><time>2026-04-11T12:07:50.86Z</time></trkpt><trkpt lat="40.8548417" lon="14.07613"><ele>90.5</ele><time>2026-04-11T12:07:52.861Z</time></trkpt><trkpt lat="40.8549267" lon="14.0762317"><ele>92.75</ele><time>2026-04-11T12:07:54.86Z</time></trkpt><trkpt lat="40.8550033" lon="14.0763433"><ele>95.0</ele><time>2026-04-11T12:07:56.858Z</time></trkpt><trkpt lat="40.855075" lon="14.0764633"><ele>95.4</ele><time>2026-04-11T12:07:58.86Z</time></trkpt><trkpt lat="40.8551267" lon="14.0765883"><ele>95.8</ele><time>2026-04-11T12:08:00.858Z</time></trkpt><trkpt lat="40.8551767" lon="14.076715"><ele>96.19999999999999</ele><time>2026-04-11T12:08:02.858Z</time></trkpt><trkpt lat="40.8552267" lon="14.0768383"><ele>96.6</ele><time>2026-04-11T12:08:04.859Z</time></trkpt><trkpt lat="40.85529" lon="14.0769583"><ele>97.0</ele><time>2026-04-11T12:08:06.858Z</time></trkpt><trkpt lat="40.855355" lon="14.07707"><ele>97.0</ele><time>2026-04-11T12:08:08.86Z</time></trkpt><trkpt lat="40.8554167" lon="14.077185"><ele>97.0</ele><time>2026-04-11T12:08:10.858Z</time></trkpt><trkpt lat="40.8554717" lon="14.0773083"><ele>97.0</ele><time>2026-04-11T12:08:12.859Z</time></trkpt><trkpt lat="40.85554" lon="14.0774267"><ele>97.0</ele><time>2026-04-11T12:08:14.856Z</time></trkpt><trkpt lat="40.8556067" lon="14.0775333"><ele>97.0</ele><time>2026-04-11T12:08:16.857Z</time></trkpt><trkpt lat="40.8556833" lon="14.0776467"><ele>98.19999999999999</ele><time>2026-04-11T12:08:18.858Z</time></trkpt><trkpt lat="40.8557567" lon="14.0777483"><ele>99.4</ele><time>2026-04-11T12:08:20.858Z</time></trkpt><trkpt lat="40.8558167" lon="14.0778467"><ele>100.6</ele><time>2026-04-11T12:08:22.859Z</time></trkpt><trkpt lat="40.8558717" lon="14.0779433"><ele>101.80000000000001</ele><time>2026-04-11T12:08:24.857Z</time></trkpt><trkpt lat="40.8559217" lon="14.0780483"><ele>103.0</ele><time>2026-04-11T12:08:26.86Z</time></trkpt><trkpt lat="40.8559633" lon="14.0781567"><ele>103.00000000000001</ele><time>2026-04-11T12:08:28.858Z</time></trkpt><trkpt lat="40.8560033" lon="14.0782667"><ele>103.0</ele><time>2026-04-11T12:08:30.856Z</time></trkpt><trkpt lat="40.8560417" lon="14.07837"><ele>103.0</ele><time>2026-04-11T12:08:32.859Z</time></trkpt><trkpt lat="40.8560783" lon="14.07847"><ele>103.0</ele><time>2026-04-11T12:08:34.861Z</time></trkpt><trkpt lat="40.85612" lon="14.0785717"><ele>103.00000000000001</ele><time>2026-04-11T12:08:36.858Z</time></trkpt><trkpt lat="40.8561633" lon="14.0786783"><ele>103.0</ele><time>2026-04-11T12:08:38.857Z</time></trkpt><trkpt lat="40.8561967" lon="14.0787817"><ele>103.60000000000001</ele><time>2026-04-11T12:08:40.858Z</time></trkpt><trkpt lat="40.85623" lon="14.0788867"><ele>104.2</ele><time>2026-04-11T12:08:42.859Z</time></trkpt><trkpt lat="40.85627" lon="14.0789933"><ele>104.8</ele><time>2026-04-11T12:08:44.857Z</time></trkpt><trkpt lat="40.8563067" lon="14.07911"><ele>105.4</ele><time>2026-04-11T12:08:46.858Z</time></trkpt><trkpt lat="40.8563483" lon="14.0792233"><ele>106.0</ele><time>2026-04-11T12:08:48.859Z</time></trkpt><trkpt lat="40.8563833" lon="14.079335"><ele>106.33333333333334</ele><time>2026-04-11T12:08:50.857Z</time></trkpt><trkpt lat="40.8564633" lon="14.0794433"><ele>106.66666666666667</ele><time>2026-04-11T12:08:52.857Z</time></trkpt><trkpt lat="40.856525" lon="14.07956"><ele>107.0</ele><time>2026-04-11T12:08:54.857Z</time></trkpt><trkpt lat="40.85657" lon="14.0796283"><ele>107.33333333333334</ele><time>2026-04-11T12:08:55.858Z</time></trkpt><trkpt lat="40.8566083" lon="14.0796967"><ele>107.66666666666667</ele><time>2026-04-11T12:08:56.856Z</time></trkpt><trkpt lat="40.85665" lon="14.0797667"><ele>108.0</ele><time>2026-04-11T12:08:57.856Z</time></trkpt><trkpt lat="40.856695" lon="14.0798367"><ele>108.0</ele><time>2026-04-11T12:08:58.855Z</time></trkpt><trkpt lat="40.8567333" lon="14.0799133"><ele>108.0</ele><time>2026-04-11T12:08:59.857Z</time></trkpt><trkpt lat="40.8567667" lon="14.07999"><ele>108.0</ele><time>2026-04-11T12:09:00.856Z</time></trkpt><trkpt lat="40.8567983" lon="14.0800783"><ele>108.0</ele><time>2026-04-11T12:09:01.859Z</time></trkpt><trkpt lat="40.8568267" lon="14.0801583"><ele>108.0</ele><time>2026-04-11T12:09:02.856Z</time></trkpt><trkpt lat="40.856845" lon="14.080265"><ele>108.0</ele><time>2026-04-11T12:09:03.857Z</time></trkpt><trkpt lat="40.856855" lon="14.0803683"><ele>108.0</ele><time>2026-04-11T12:09:04.856Z</time></trkpt><trkpt lat="40.8568533" lon="14.08047"><ele>108.0</ele><time>2026-04-11T12:09:05.856Z</time></trkpt><trkpt lat="40.85685" lon="14.08057"><ele>108.0</ele><time>2026-04-11T12:09:06.857Z</time></trkpt><trkpt lat="40.85684" lon="14.0806683"><ele>108.0</ele><time>2026-04-11T12:09:07.855Z</time></trkpt><trkpt lat="40.8568333" lon="14.080775"><ele>108.0</ele><time>2026-04-11T12:09:08.856Z</time></trkpt><trkpt lat="40.856825" lon="14.0808767"><ele>108.0</ele><time>2026-04-11T12:09:09.856Z</time></trkpt><trkpt lat="40.85682" lon="14.080975"><ele>108.0</ele><time>2026-04-11T12:09:10.856Z</time></trkpt><trkpt lat="40.8568183" lon="14.081075"><ele>107.5</ele><time>2026-04-11T12:09:11.856Z</time></trkpt><trkpt lat="40.8568283" lon="14.081175"><ele>107.0</ele><time>2026-04-11T12:09:12.857Z</time></trkpt><trkpt lat="40.8568417" lon="14.0812717"><ele>106.5</ele><time>2026-04-11T12:09:13.856Z</time></trkpt><trkpt lat="40.8568717" lon="14.0813717"><ele>106.0</ele><time>2026-04-11T12:09:14.856Z</time></trkpt><trkpt lat="40.856905" lon="14.08147"><ele>105.5</ele><time>2026-04-11T12:09:15.857Z</time></trkpt><trkpt lat="40.8569467" lon="14.0815583"><ele>105.0</ele><time>2026-04-11T12:09:16.857Z</time></trkpt><trkpt lat="40.856995" lon="14.08165"><ele>104.66666666666667</ele><time>2026-04-11T12:09:17.857Z</time></trkpt><trkpt lat="40.85704" lon="14.081735"><ele>104.33333333333334</ele><time>2026-04-11T12:09:18.856Z</time></trkpt><trkpt lat="40.8570867" lon="14.0818283"><ele>104.0</ele><time>2026-04-11T12:09:19.857Z</time></trkpt><trkpt lat="40.8571367" lon="14.0819167"><ele>103.66666666666667</ele><time>2026-04-11T12:09:20.856Z</time></trkpt><trkpt lat="40.8571933" lon="14.082005"><ele>103.33333333333334</ele><time>2026-04-11T12:09:21.856Z</time></trkpt><trkpt lat="40.8572567" lon="14.0820883"><ele>103.0</ele><time>2026-04-11T12:09:22.858Z</time></trkpt><trkpt lat="40.8573183" lon="14.082175"><ele>103.00000000000001</ele><time>2026-04-11T12:09:23.858Z</time></trkpt><trkpt lat="40.8573717" lon="14.082265"><ele>103.0</ele><time>2026-04-11T12:09:24.857Z</time></trkpt><trkpt lat="40.8574233" lon="14.08236"><ele>103.0</ele><time>2026-04-11T12:09:25.857Z</time></trkpt><trkpt lat="40.857475" lon="14.0824567"><ele>103.0</ele><time>2026-04-11T12:09:26.857Z</time></trkpt><trkpt lat="40.85752" lon="14.0825517"><ele>103.00000000000001</ele><time>2026-04-11T12:09:27.857Z</time></trkpt><trkpt lat="40.8575667" lon="14.0826433"><ele>103.0</ele><time>2026-04-11T12:09:28.858Z</time></trkpt><trkpt lat="40.8576083" lon="14.082735"><ele>103.00000000000001</ele><time>2026-04-11T12:09:29.858Z</time></trkpt><trkpt lat="40.85765" lon="14.08283"><ele>103.0</ele><time>2026-04-11T12:09:30.856Z</time></trkpt><trkpt lat="40.8576883" lon="14.08293"><ele>103.0</ele><time>2026-04-11T12:09:31.858Z</time></trkpt><trkpt lat="40.8577283" lon="14.0830267"><ele>103.0</ele><time>2026-04-11T12:09:32.857Z</time></trkpt><trkpt lat="40.85777" lon="14.0831183"><ele>103.00000000000001</ele><time>2026-04-11T12:09:33.858Z</time></trkpt><trkpt lat="40.857815" lon="14.0832133"><ele>103.0</ele><time>2026-04-11T12:09:34.856Z</time></trkpt><trkpt lat="40.8578583" lon="14.08331"><ele>103.00000000000001</ele><time>2026-04-11T12:09:35.857Z</time></trkpt><trkpt lat="40.8579033" lon="14.0834067"><ele>103.0</ele><time>2026-04-11T12:09:36.857Z</time></trkpt><trkpt lat="40.8579483" lon="14.0835033"><ele>103.0</ele><time>2026-04-11T12:09:37.856Z</time></trkpt><trkpt lat="40.8579867" lon="14.0836017"><ele>103.0</ele><time>2026-04-11T12:09:38.856Z</time></trkpt><trkpt lat="40.8580283" lon="14.0837017"><ele>103.00000000000001</ele><time>2026-04-11T12:09:39.857Z</time></trkpt><trkpt lat="40.8580683" lon="14.0837967"><ele>103.0</ele><time>2026-04-11T12:09:40.857Z</time></trkpt><trkpt lat="40.8581167" lon="14.083885"><ele>103.00000000000001</ele><time>2026-04-11T12:09:41.857Z</time></trkpt><trkpt lat="40.8581567" lon="14.0839767"><ele>103.0</ele><time>2026-04-11T12:09:42.857Z</time></trkpt><trkpt lat="40.8581917" lon="14.0840717"><ele>103.0</ele><time>2026-04-11T12:09:43.858Z</time></trkpt><trkpt lat="40.85822" lon="14.0841767"><ele>103.0</ele><time>2026-04-11T12:09:44.857Z</time></trkpt><trkpt lat="40.8582433" lon="14.0842817"><ele>103.00000000000001</ele><time>2026-04-11T12:09:45.856Z</time></trkpt><trkpt lat="40.8582633" lon="14.08439"><ele>103.0</ele><time>2026-04-11T12:09:46.856Z</time></trkpt><trkpt lat="40.8582917" lon="14.08449"><ele>103.00000000000001</ele><time>2026-04-11T12:09:47.856Z</time></trkpt><trkpt lat="40.8583217" lon="14.08459"><ele>103.0</ele><time>2026-04-11T12:09:48.857Z</time></trkpt><trkpt lat="40.8583633" lon="14.0846817"><ele>103.0</ele><time>2026-04-11T12:09:49.855Z</time></trkpt><trkpt lat="40.858405" lon="14.0847717"><ele>103.0</ele><time>2026-04-11T12:09:50.856Z</time></trkpt><trkpt lat="40.8584533" lon="14.0848517"><ele>103.00000000000001</ele><time>2026-04-11T12:09:51.86Z</time></trkpt><trkpt lat="40.8585017" lon="14.0849267"><ele>103.0</ele><time>2026-04-11T12:09:52.857Z</time></trkpt><trkpt lat="40.85855" lon="14.085"><ele>102.42857142857142</ele><time>2026-04-11T12:09:53.857Z</time></trkpt><trkpt lat="40.8585967" lon="14.0850733"><ele>101.85714285714286</ele><time>2026-04-11T12:09:54.858Z</time></trkpt><trkpt lat="40.8586433" lon="14.0851433"><ele>101.28571428571428</ele><time>2026-04-11T12:09:55.858Z</time></trkpt><trkpt lat="40.858695" lon="14.0852033"><ele>100.71428571428571</ele><time>2026-04-11T12:09:56.856Z</time></trkpt><trkpt lat="40.8587417" lon="14.0852667"><ele>100.14285714285714</ele><time>2026-04-11T12:09:57.857Z</time></trkpt><trkpt lat="40.85879" lon="14.08533"><ele>99.57142857142857</ele><time>2026-04-11T12:09:58.86Z</time></trkpt><trkpt lat="40.85884" lon="14.08539"><ele>99.0</ele><time>2026-04-11T12:09:59.859Z</time></trkpt><trkpt lat="40.8588867" lon="14.0854567"><ele>99.0</ele><time>2026-04-11T12:10:00.857Z</time></trkpt><trkpt lat="40.858935" lon="14.0855183"><ele>99.0</ele><time>2026-04-11T12:10:01.857Z</time></trkpt><trkpt lat="40.8589817" lon="14.0855767"><ele>99.0</ele><time>2026-04-11T12:10:02.856Z</time></trkpt><trkpt lat="40.859025" lon="14.08564"><ele>99.0</ele><time>2026-04-11T12:10:03.856Z</time></trkpt><trkpt lat="40.8591" lon="14.0857533"><ele>99.0</ele><time>2026-04-11T12:10:05.856Z</time></trkpt><trkpt lat="40.8591717" lon="14.08586"><ele>99.0</ele><time>2026-04-11T12:10:07.856Z</time></trkpt><trkpt lat="40.8592383" lon="14.08596"><ele>99.6</ele><time>2026-04-11T12:10:09.858Z</time></trkpt><trkpt lat="40.8593233" lon="14.0860667"><ele>100.2</ele><time>2026-04-11T12:10:11.857Z</time></trkpt><trkpt lat="40.85941" lon="14.0861817"><ele>100.8</ele><time>2026-04-11T12:10:13.858Z</time></trkpt><trkpt lat="40.8594933" lon="14.0863033"><ele>101.39999999999999</ele><time>2026-04-11T12:10:15.857Z</time></trkpt><trkpt lat="40.859535" lon="14.0863667"><ele>102.0</ele><time>2026-04-11T12:10:16.856Z</time></trkpt><trkpt lat="40.8595767" lon="14.0864333"><ele>102.0</ele><time>2026-04-11T12:10:17.858Z</time></trkpt><trkpt lat="40.8596217" lon="14.0865"><ele>102.0</ele><time>2026-04-11T12:10:18.857Z</time></trkpt><trkpt lat="40.8596667" lon="14.0865667"><ele>102.0</ele><time>2026-04-11T12:10:19.857Z</time></trkpt><trkpt lat="40.8597133" lon="14.0866317"><ele>102.0</ele><time>2026-04-11T12:10:20.857Z</time></trkpt><trkpt lat="40.8597583" lon="14.0866917"><ele>102.0</ele><time>2026-04-11T12:10:21.857Z</time></trkpt><trkpt lat="40.85984" lon="14.0868133"><ele>102.0</ele><time>2026-04-11T12:10:23.856Z</time></trkpt><trkpt lat="40.8598867" lon="14.08687"><ele>102.0</ele><time>2026-04-11T12:10:24.857Z</time></trkpt><trkpt lat="40.8599733" lon="14.0869817"><ele>102.0</ele><time>2026-04-11T12:10:26.857Z</time></trkpt><trkpt lat="40.8600683" lon="14.08709"><ele>102.0</ele><time>2026-04-11T12:10:28.858Z</time></trkpt><trkpt lat="40.8601567" lon="14.087205"><ele>102.0</ele><time>2026-04-11T12:10:30.856Z</time></trkpt><trkpt lat="40.8602367" lon="14.0873183"><ele>103.25</ele><time>2026-04-11T12:10:32.858Z</time></trkpt><trkpt lat="40.8603233" lon="14.0874317"><ele>104.5</ele><time>2026-04-11T12:10:34.857Z</time></trkpt><trkpt lat="40.8604067" lon="14.087535"><ele>105.75</ele><time>2026-04-11T12:10:36.858Z</time></trkpt><trkpt lat="40.860485" lon="14.0876367"><ele>107.0</ele><time>2026-04-11T12:10:38.856Z</time></trkpt><trkpt lat="40.8605817" lon="14.08773"><ele>107.0</ele><time>2026-04-11T12:10:40.857Z</time></trkpt><trkpt lat="40.8606767" lon="14.087825"><ele>107.0</ele><time>2026-04-11T12:10:42.861Z</time></trkpt><trkpt lat="40.8607733" lon="14.08791"><ele>107.0</ele><time>2026-04-11T12:10:44.856Z</time></trkpt><trkpt lat="40.86087" lon="14.088"><ele>107.0</ele><time>2026-04-11T12:10:46.857Z</time></trkpt><trkpt lat="40.8609583" lon="14.08809"><ele>107.25</ele><time>2026-04-11T12:10:48.858Z</time></trkpt><trkpt lat="40.8610583" lon="14.088175"><ele>107.5</ele><time>2026-04-11T12:10:50.857Z</time></trkpt><trkpt lat="40.8611583" lon="14.0882667"><ele>107.75</ele><time>2026-04-11T12:10:52.857Z</time></trkpt><trkpt lat="40.8612617" lon="14.0883417"><ele>108.0</ele><time>2026-04-11T12:10:54.855Z</time></trkpt><trkpt lat="40.861365" lon="14.0884117"><ele>108.25</ele><time>2026-04-11T12:10:56.857Z</time></trkpt><trkpt lat="40.8614733" lon="14.08847"><ele>108.5</ele><time>2026-04-11T12:10:58.857Z</time></trkpt><trkpt lat="40.8615833" lon="14.08852"><ele>108.75</ele><time>2026-04-11T12:11:00.856Z</time></trkpt><trkpt lat="40.8616917" lon="14.0885633"><ele>109.0</ele><time>2026-04-11T12:11:02.857Z</time></trkpt><trkpt lat="40.8618" lon="14.0885983"><ele>109.0</ele><time>2026-04-11T12:11:04.857Z</time></trkpt><trkpt lat="40.8619133" lon="14.0886317"><ele>109.0</ele><time>2026-04-11T12:11:06.856Z</time></trkpt><trkpt lat="40.8620233" lon="14.088665"><ele>109.0</ele><time>2026-04-11T12:11:08.858Z</time></trkpt><trkpt lat="40.8621317" lon="14.0886983"><ele>109.0</ele><time>2026-04-11T12:11:10.858Z</time></trkpt><trkpt lat="40.8622417" lon="14.0887383"><ele>109.0</ele><time>2026-04-11T12:11:12.858Z</time></trkpt><trkpt lat="40.8623383" lon="14.0888117"><ele>109.0</ele><time>2026-04-11T12:11:14.858Z</time></trkpt><trkpt lat="40.8624133" lon="14.0889133"><ele>109.0</ele><time>2026-04-11T12:11:16.858Z</time></trkpt><trkpt lat="40.86248" lon="14.0890383"><ele>109.0</ele><time>2026-04-11T12:11:18.857Z</time></trkpt><trkpt lat="40.8625467" lon="14.08917"><ele>108.75</ele><time>2026-04-11T12:11:20.857Z</time></trkpt><trkpt lat="40.8626217" lon="14.0893017"><ele>108.5</ele><time>2026-04-11T12:11:22.857Z</time></trkpt><trkpt lat="40.8626833" lon="14.0894333"><ele>108.25</ele><time>2026-04-11T12:11:24.858Z</time></trkpt><trkpt lat="40.8627517" lon="14.0895567"><ele>108.0</ele><time>2026-04-11T12:11:26.857Z</time></trkpt><trkpt lat="40.8628283" lon="14.089685"><ele>108.0</ele><time>2026-04-11T12:11:28.858Z</time></trkpt><trkpt lat="40.862865" lon="14.0897533"><ele>108.0</ele><time>2026-04-11T12:11:29.857Z</time></trkpt><trkpt lat="40.862905" lon="14.0898183"><ele>108.0</ele><time>2026-04-11T12:11:30.856Z</time></trkpt><trkpt lat="40.86295" lon="14.0898817"><ele>108.0</ele><time>2026-04-11T12:11:31.857Z</time></trkpt><trkpt lat="40.8629967" lon="14.0899467"><ele>108.0</ele><time>2026-04-11T12:11:32.856Z</time></trkpt><trkpt lat="40.86308" lon="14.0900633"><ele>108.0</ele><time>2026-04-11T12:11:34.857Z</time></trkpt><trkpt lat="40.863155" lon="14.0901767"><ele>108.0</ele><time>2026-04-11T12:11:36.857Z</time></trkpt><trkpt lat="40.863245" lon="14.0902883"><ele>108.00000000000001</ele><time>2026-04-11T12:11:38.858Z</time></trkpt><trkpt lat="40.863335" lon="14.0903967"><ele>108.00000000000001</ele><time>2026-04-11T12:11:40.857Z</time></trkpt><trkpt lat="40.8633883" lon="14.0904517"><ele>108.0</ele><time>2026-04-11T12:11:41.856Z</time></trkpt><trkpt lat="40.8634483" lon="14.0905067"><ele>108.0</ele><time>2026-04-11T12:11:42.857Z</time></trkpt><trkpt lat="40.863505" lon="14.0905583"><ele>108.0</ele><time>2026-04-11T12:11:43.859Z</time></trkpt><trkpt lat="40.8635583" lon="14.0906133"><ele>108.0</ele><time>2026-04-11T12:11:44.857Z</time></trkpt><trkpt lat="40.8636117" lon="14.0906683"><ele>108.0</ele><time>2026-04-11T12:11:45.857Z</time></trkpt><trkpt lat="40.863665" lon="14.0907317"><ele>108.0</ele><time>2026-04-11T12:11:46.857Z</time></trkpt><trkpt lat="40.8637183" lon="14.0908017"><ele>108.0</ele><time>2026-04-11T12:11:47.859Z</time></trkpt><trkpt lat="40.8637733" lon="14.0908683"><ele>108.0</ele><time>2026-04-11T12:11:48.857Z</time></trkpt><trkpt lat="40.8638217" lon="14.0909367"><ele>108.0</ele><time>2026-04-11T12:11:49.859Z</time></trkpt><trkpt lat="40.86387" lon="14.09101"><ele>108.16666666666667</ele><time>2026-04-11T12:11:50.857Z</time></trkpt><trkpt lat="40.8639233" lon="14.0910917"><ele>108.33333333333334</ele><time>2026-04-11T12:11:51.858Z</time></trkpt><trkpt lat="40.8639717" lon="14.0911733"><ele>108.5</ele><time>2026-04-11T12:11:52.858Z</time></trkpt><trkpt lat="40.8640233" lon="14.0912533"><ele>108.66666666666667</ele><time>2026-04-11T12:11:53.858Z</time></trkpt><trkpt lat="40.8640717" lon="14.091335"><ele>108.83333333333334</ele><time>2026-04-11T12:11:54.857Z</time></trkpt><trkpt lat="40.86412" lon="14.0914233"><ele>109.0</ele><time>2026-04-11T12:11:55.859Z</time></trkpt><trkpt lat="40.8641733" lon="14.0915133"><ele>109.16666666666667</ele><time>2026-04-11T12:11:56.858Z</time></trkpt><trkpt lat="40.8642167" lon="14.0915983"><ele>109.33333333333334</ele><time>2026-04-11T12:11:57.857Z</time></trkpt><trkpt lat="40.864255" lon="14.091675"><ele>109.5</ele><time>2026-04-11T12:11:58.858Z</time></trkpt><trkpt lat="40.86429" lon="14.091745"><ele>109.66666666666666</ele><time>2026-04-11T12:11:59.856Z</time></trkpt><trkpt lat="40.8643533" lon="14.09188"><ele>109.83333333333333</ele><time>2026-04-11T12:12:01.857Z</time></trkpt><trkpt lat="40.8644" lon="14.0920083"><ele>110.0</ele><time>2026-04-11T12:12:03.857Z</time></trkpt><trkpt lat="40.86446" lon="14.09214"><ele>109.75</ele><time>2026-04-11T12:12:05.858Z</time></trkpt><trkpt lat="40.8645233" lon="14.0922767"><ele>109.5</ele><time>2026-04-11T12:12:07.857Z</time></trkpt><trkpt lat="40.86458" lon="14.0924083"><ele>109.25</ele><time>2026-04-11T12:12:09.858Z</time></trkpt><trkpt lat="40.8646367" lon="14.0925483"><ele>109.0</ele><time>2026-04-11T12:12:11.858Z</time></trkpt><trkpt lat="40.86469" lon="14.0926883"><ele>109.0</ele><time>2026-04-11T12:12:13.857Z</time></trkpt><trkpt lat="40.8647317" lon="14.092815"><ele>109.0</ele><time>2026-04-11T12:12:15.858Z</time></trkpt><trkpt lat="40.86477" lon="14.092945"><ele>109.0</ele><time>2026-04-11T12:12:17.858Z</time></trkpt><trkpt lat="40.8648183" lon="14.0930867"><ele>109.0</ele><time>2026-04-11T12:12:19.859Z</time></trkpt><trkpt lat="40.8648617" lon="14.0932283"><ele>109.0</ele><time>2026-04-11T12:12:21.858Z</time></trkpt><trkpt lat="40.8648967" lon="14.09337"><ele>109.75</ele><time>2026-04-11T12:12:23.857Z</time></trkpt><trkpt lat="40.86493" lon="14.0935083"><ele>110.5</ele><time>2026-04-11T12:12:25.858Z</time></trkpt><trkpt lat="40.8649717" lon="14.0936533"><ele>111.25</ele><time>2026-04-11T12:12:27.856Z</time></trkpt><trkpt lat="40.8650017" lon="14.0937983"><ele>112.0</ele><time>2026-04-11T12:12:29.858Z</time></trkpt><trkpt lat="40.8650367" lon="14.0939433"><ele>111.75</ele><time>2026-04-11T12:12:31.859Z</time></trkpt><trkpt lat="40.8650667" lon="14.094095"><ele>111.5</ele><time>2026-04-11T12:12:33.858Z</time></trkpt><trkpt lat="40.865085" lon="14.0942467"><ele>111.25</ele><time>2026-04-11T12:12:35.857Z</time></trkpt><trkpt lat="40.8651017" lon="14.0943867"><ele>111.0</ele><time>2026-04-11T12:12:37.857Z</time></trkpt><trkpt lat="40.86513" lon="14.094525"><ele>111.0</ele><time>2026-04-11T12:12:39.856Z</time></trkpt><trkpt lat="40.865145" lon="14.09466"><ele>111.0</ele><time>2026-04-11T12:12:41.856Z</time></trkpt><trkpt lat="40.8651533" lon="14.0947783"><ele>111.0</ele><time>2026-04-11T12:12:43.856Z</time></trkpt><trkpt lat="40.8651733" lon="14.094905"><ele>111.0</ele><time>2026-04-11T12:12:45.858Z</time></trkpt><trkpt lat="40.8651783" lon="14.0950233"><ele>111.0</ele><time>2026-04-11T12:12:47.857Z</time></trkpt><trkpt lat="40.8651833" lon="14.0951483"><ele>111.6</ele><time>2026-04-11T12:12:49.857Z</time></trkpt><trkpt lat="40.8651983" lon="14.0952717"><ele>112.19999999999999</ele><time>2026-04-11T12:12:51.856Z</time></trkpt><trkpt lat="40.8652367" lon="14.0953933"><ele>112.80000000000001</ele><time>2026-04-11T12:12:53.857Z</time></trkpt><trkpt lat="40.8652733" lon="14.095515"><ele>113.4</ele><time>2026-04-11T12:12:55.856Z</time></trkpt><trkpt lat="40.86532" lon="14.0956517"><ele>114.0</ele><time>2026-04-11T12:12:57.858Z</time></trkpt><trkpt lat="40.8653683" lon="14.0957817"><ele>114.80000000000001</ele><time>2026-04-11T12:12:59.857Z</time></trkpt><trkpt lat="40.865405" lon="14.0959183"><ele>115.60000000000001</ele><time>2026-04-11T12:13:01.858Z</time></trkpt><trkpt lat="40.8654633" lon="14.0960433"><ele>116.4</ele><time>2026-04-11T12:13:03.858Z</time></trkpt><trkpt lat="40.8655333" lon="14.09616"><ele>117.2</ele><time>2026-04-11T12:13:05.858Z</time></trkpt><trkpt lat="40.8656083" lon="14.096275"><ele>118.0</ele><time>2026-04-11T12:13:07.858Z</time></trkpt><trkpt lat="40.86569" lon="14.09638"><ele>118.0</ele><time>2026-04-11T12:13:09.857Z</time></trkpt><trkpt lat="40.86577" lon="14.0964833"><ele>118.00000000000001</ele><time>2026-04-11T12:13:11.859Z</time></trkpt><trkpt lat="40.865855" lon="14.09658"><ele>118.00000000000001</ele><time>2026-04-11T12:13:13.859Z</time></trkpt><trkpt lat="40.8659433" lon="14.0966667"><ele>118.0</ele><time>2026-04-11T12:13:15.857Z</time></trkpt><trkpt lat="40.8660333" lon="14.0967517"><ele>118.0</ele><time>2026-04-11T12:13:17.858Z</time></trkpt><trkpt lat="40.86613" lon="14.0968383"><ele>118.2</ele><time>2026-04-11T12:13:19.857Z</time></trkpt><trkpt lat="40.8662317" lon="14.096935"><ele>118.4</ele><time>2026-04-11T12:13:21.855Z</time></trkpt><trkpt lat="40.866285" lon="14.09698"><ele>118.60000000000001</ele><time>2026-04-11T12:13:22.857Z</time></trkpt><trkpt lat="40.866385" lon="14.09707"><ele>118.80000000000001</ele><time>2026-04-11T12:13:24.858Z</time></trkpt><trkpt lat="40.8664783" lon="14.0971583"><ele>119.0</ele><time>2026-04-11T12:13:26.859Z</time></trkpt><trkpt lat="40.866575" lon="14.0972467"><ele>119.0</ele><time>2026-04-11T12:13:28.858Z</time></trkpt><trkpt lat="40.8666717" lon="14.09733"><ele>119.0</ele><time>2026-04-11T12:13:30.859Z</time></trkpt><trkpt lat="40.86677" lon="14.09741"><ele>119.0</ele><time>2026-04-11T12:13:32.857Z</time></trkpt><trkpt lat="40.8668633" lon="14.0975017"><ele>119.0</ele><time>2026-04-11T12:13:34.857Z</time></trkpt><trkpt lat="40.8669167" lon="14.09755"><ele>119.0</ele><time>2026-04-11T12:13:35.858Z</time></trkpt><trkpt lat="40.8669667" lon="14.0976017"><ele>119.28571428571428</ele><time>2026-04-11T12:13:36.858Z</time></trkpt><trkpt lat="40.8670217" lon="14.0976467"><ele>119.57142857142857</ele><time>2026-04-11T12:13:37.857Z</time></trkpt><trkpt lat="40.867075" lon="14.097695"><ele>119.85714285714286</ele><time>2026-04-11T12:13:38.857Z</time></trkpt><trkpt lat="40.8671333" lon="14.09775"><ele>120.14285714285714</ele><time>2026-04-11T12:13:39.857Z</time></trkpt><trkpt lat="40.86719" lon="14.0978"><ele>120.42857142857142</ele><time>2026-04-11T12:13:40.857Z</time></trkpt><trkpt lat="40.867245" lon="14.0978517"><ele>120.71428571428571</ele><time>2026-04-11T12:13:41.857Z</time></trkpt><trkpt lat="40.86731" lon="14.0979033"><ele>121.0</ele><time>2026-04-11T12:13:42.858Z</time></trkpt><trkpt lat="40.86737" lon="14.0979583"><ele>121.00000000000001</ele><time>2026-04-11T12:13:43.858Z</time></trkpt><trkpt lat="40.8674367" lon="14.098015"><ele>121.0</ele><time>2026-04-11T12:13:44.858Z</time></trkpt><trkpt lat="40.8675067" lon="14.09807"><ele>121.0</ele><time>2026-04-11T12:13:45.857Z</time></trkpt><trkpt lat="40.86758" lon="14.0981233"><ele>121.0</ele><time>2026-04-11T12:13:46.859Z</time></trkpt><trkpt lat="40.867655" lon="14.0981767"><ele>121.00000000000001</ele><time>2026-04-11T12:13:47.858Z</time></trkpt><trkpt lat="40.8677333" lon="14.0982267"><ele>121.0</ele><time>2026-04-11T12:13:48.857Z</time></trkpt><trkpt lat="40.86781" lon="14.0982767"><ele>120.8</ele><time>2026-04-11T12:13:49.858Z</time></trkpt><trkpt lat="40.8678867" lon="14.0983333"><ele>120.6</ele><time>2026-04-11T12:13:50.857Z</time></trkpt><trkpt lat="40.8679667" lon="14.09839"><ele>120.4</ele><time>2026-04-11T12:13:51.857Z</time></trkpt><trkpt lat="40.8680483" lon="14.0984467"><ele>120.2</ele><time>2026-04-11T12:13:52.858Z</time></trkpt><trkpt lat="40.8681367" lon="14.098505"><ele>120.0</ele><time>2026-04-11T12:13:53.858Z</time></trkpt><trkpt lat="40.868225" lon="14.098565"><ele>120.0</ele><time>2026-04-11T12:13:54.856Z</time></trkpt><trkpt lat="40.868315" lon="14.0986267"><ele>120.0</ele><time>2026-04-11T12:13:55.858Z</time></trkpt><trkpt lat="40.868405" lon="14.098685"><ele>120.0</ele><time>2026-04-11T12:13:56.858Z</time></trkpt><trkpt lat="40.8684967" lon="14.0987467"><ele>120.0</ele><time>2026-04-11T12:13:57.858Z</time></trkpt><trkpt lat="40.86859" lon="14.098805"><ele>120.0</ele><time>2026-04-11T12:13:58.858Z</time></trkpt><trkpt lat="40.868685" lon="14.0988633"><ele>119.2</ele><time>2026-04-11T12:13:59.858Z</time></trkpt><trkpt lat="40.8687767" lon="14.09892"><ele>118.4</ele><time>2026-04-11T12:14:00.859Z</time></trkpt><trkpt lat="40.86887" lon="14.09898"><ele>117.6</ele><time>2026-04-11T12:14:01.861Z</time></trkpt><trkpt lat="40.8689667" lon="14.0990417"><ele>116.8</ele><time>2026-04-11T12:14:02.858Z</time></trkpt><trkpt lat="40.8690617" lon="14.0991067"><ele>116.0</ele><time>2026-04-11T12:14:03.857Z</time></trkpt><trkpt lat="40.869155" lon="14.0991733"><ele>116.0</ele><time>2026-04-11T12:14:04.857Z</time></trkpt><trkpt lat="40.8692467" lon="14.099245"><ele>116.0</ele><time>2026-04-11T12:14:05.859Z</time></trkpt><trkpt lat="40.869335" lon="14.0993167"><ele>116.0</ele><time>2026-04-11T12:14:06.858Z</time></trkpt><trkpt lat="40.8694267" lon="14.0993933"><ele>116.0</ele><time>2026-04-11T12:14:07.858Z</time></trkpt><trkpt lat="40.8695217" lon="14.09946"><ele>116.0</ele><time>2026-04-11T12:14:08.857Z</time></trkpt><trkpt lat="40.86962" lon="14.0995217"><ele>115.19999999999999</ele><time>2026-04-11T12:14:09.858Z</time></trkpt><trkpt lat="40.8697233" lon="14.09957"><ele>114.39999999999999</ele><time>2026-04-11T12:14:10.859Z</time></trkpt><trkpt lat="40.8698317" lon="14.0996017"><ele>113.6</ele><time>2026-04-11T12:14:11.858Z</time></trkpt><trkpt lat="40.869935" lon="14.0996283"><ele>112.8</ele><time>2026-04-11T12:14:12.857Z</time></trkpt><trkpt lat="40.8700317" lon="14.09966"><ele>112.0</ele><time>2026-04-11T12:14:13.858Z</time></trkpt><trkpt lat="40.8701217" lon="14.0997083"><ele>111.6</ele><time>2026-04-11T12:14:14.857Z</time></trkpt><trkpt lat="40.8702017" lon="14.0997833"><ele>111.19999999999999</ele><time>2026-04-11T12:14:15.857Z</time></trkpt><trkpt lat="40.8702683" lon="14.0998817"><ele>110.8</ele><time>2026-04-11T12:14:16.858Z</time></trkpt><trkpt lat="40.870325" lon="14.0999883"><ele>110.4</ele><time>2026-04-11T12:14:17.858Z</time></trkpt><trkpt lat="40.870375" lon="14.1001067"><ele>110.0</ele><time>2026-04-11T12:14:18.858Z</time></trkpt><trkpt lat="40.8704267" lon="14.1002317"><ele>110.0</ele><time>2026-04-11T12:14:19.858Z</time></trkpt><trkpt lat="40.8704767" lon="14.1003517"><ele>110.0</ele><time>2026-04-11T12:14:20.859Z</time></trkpt><trkpt lat="40.8705367" lon="14.1004717"><ele>110.0</ele><time>2026-04-11T12:14:21.857Z</time></trkpt><trkpt lat="40.8706017" lon="14.1005883"><ele>110.0</ele><time>2026-04-11T12:14:22.858Z</time></trkpt><trkpt lat="40.8706783" lon="14.1007017"><ele>110.0</ele><time>2026-04-11T12:14:23.856Z</time></trkpt><trkpt lat="40.8707583" lon="14.1008117"><ele>109.75</ele><time>2026-04-11T12:14:24.857Z</time></trkpt><trkpt lat="40.870845" lon="14.1009217"><ele>109.5</ele><time>2026-04-11T12:14:25.858Z</time></trkpt><trkpt lat="40.8709367" lon="14.101025"><ele>109.25</ele><time>2026-04-11T12:14:26.858Z</time></trkpt><trkpt lat="40.871035" lon="14.1011233"><ele>109.0</ele><time>2026-04-11T12:14:27.857Z</time></trkpt><trkpt lat="40.8711367" lon="14.1012183"><ele>108.0</ele><time>2026-04-11T12:14:28.858Z</time></trkpt><trkpt lat="40.871235" lon="14.10132"><ele>107.0</ele><time>2026-04-11T12:14:29.858Z</time></trkpt><trkpt lat="40.8713317" lon="14.101425"><ele>106.0</ele><time>2026-04-11T12:14:30.858Z</time></trkpt><trkpt lat="40.871425" lon="14.10153"><ele>105.0</ele><time>2026-04-11T12:14:31.858Z</time></trkpt><trkpt lat="40.87152" lon="14.10164"><ele>104.5</ele><time>2026-04-11T12:14:32.858Z</time></trkpt><trkpt lat="40.871615" lon="14.1017533"><ele>104.0</ele><time>2026-04-11T12:14:33.858Z</time></trkpt><trkpt lat="40.8717033" lon="14.1018733"><ele>103.5</ele><time>2026-04-11T12:14:34.858Z</time></trkpt><trkpt lat="40.8717833" lon="14.1020067"><ele>103.0</ele><time>2026-04-11T12:14:35.857Z</time></trkpt><trkpt lat="40.8718483" lon="14.10215"><ele>101.5</ele><time>2026-04-11T12:14:36.857Z</time></trkpt><trkpt lat="40.871905" lon="14.1023017"><ele>100.0</ele><time>2026-04-11T12:14:37.857Z</time></trkpt><trkpt lat="40.8719667" lon="14.1024533"><ele>98.5</ele><time>2026-04-11T12:14:38.858Z</time></trkpt><trkpt lat="40.8720317" lon="14.1026017"><ele>97.0</ele><time>2026-04-11T12:14:39.857Z</time></trkpt><trkpt lat="40.872105" lon="14.102745"><ele>96.75</ele><time>2026-04-11T12:14:40.858Z</time></trkpt><trkpt lat="40.8721817" lon="14.102875"><ele>96.5</ele><time>2026-04-11T12:14:41.857Z</time></trkpt><trkpt lat="40.872265" lon="14.103"><ele>96.25</ele><time>2026-04-11T12:14:42.857Z</time></trkpt><trkpt lat="40.8723467" lon="14.1031033"><ele>96.0</ele><time>2026-04-11T12:14:43.859Z</time></trkpt><trkpt lat="40.8724317" lon="14.10319"><ele>95.8</ele><time>2026-04-11T12:14:44.858Z</time></trkpt><trkpt lat="40.8725267" lon="14.103265"><ele>95.6</ele><time>2026-04-11T12:14:45.857Z</time></trkpt><trkpt lat="40.8726333" lon="14.103325"><ele>95.4</ele><time>2026-04-11T12:14:46.857Z</time></trkpt><trkpt lat="40.8727383" lon="14.1033767"><ele>95.2</ele><time>2026-04-11T12:14:47.858Z</time></trkpt><trkpt lat="40.8728367" lon="14.1034383"><ele>95.0</ele><time>2026-04-11T12:14:48.856Z</time></trkpt><trkpt lat="40.8729267" lon="14.103515"><ele>94.0</ele><time>2026-04-11T12:14:49.864Z</time></trkpt><trkpt lat="40.8730083" lon="14.1036017"><ele>93.0</ele><time>2026-04-11T12:14:50.857Z</time></trkpt><trkpt lat="40.8730867" lon="14.1036917"><ele>92.0</ele><time>2026-04-11T12:14:51.861Z</time></trkpt><trkpt lat="40.8731683" lon="14.103785"><ele>91.0</ele><time>2026-04-11T12:14:52.857Z</time></trkpt><trkpt lat="40.8732583" lon="14.1038783"><ele>90.0</ele><time>2026-04-11T12:14:53.857Z</time></trkpt><trkpt lat="40.8733533" lon="14.1039617"><ele>89.0</ele><time>2026-04-11T12:14:54.856Z</time></trkpt><trkpt lat="40.8734583" lon="14.1040233"><ele>88.0</ele><time>2026-04-11T12:14:55.863Z</time></trkpt><trkpt lat="40.8735717" lon="14.1040733"><ele>87.0</ele><time>2026-04-11T12:14:56.857Z</time></trkpt><trkpt lat="40.8736867" lon="14.1041217"><ele>86.0</ele><time>2026-04-11T12:14:57.858Z</time></trkpt><trkpt lat="40.8737967" lon="14.1041767"><ele>86.0</ele><time>2026-04-11T12:14:58.856Z</time></trkpt><trkpt lat="40.8739067" lon="14.1042383"><ele>86.0</ele><time>2026-04-11T12:14:59.858Z</time></trkpt><trkpt lat="40.8740217" lon="14.1043067"><ele>86.0</ele><time>2026-04-11T12:15:00.858Z</time></trkpt><trkpt lat="40.8741283" lon="14.1043783"><ele>86.0</ele><time>2026-04-11T12:15:01.857Z</time></trkpt><trkpt lat="40.87423" lon="14.1044317"><ele>85.19999999999999</ele><time>2026-04-11T12:15:02.857Z</time></trkpt><trkpt lat="40.87433" lon="14.10446"><ele>84.39999999999999</ele><time>2026-04-11T12:15:03.856Z</time></trkpt><trkpt lat="40.8744317" lon="14.1044667"><ele>83.6</ele><time>2026-04-11T12:15:04.857Z</time></trkpt><trkpt lat="40.8745333" lon="14.1044433"><ele>82.8</ele><time>2026-04-11T12:15:05.856Z</time></trkpt><trkpt lat="40.8746283" lon="14.1043983"><ele>82.0</ele><time>2026-04-11T12:15:06.857Z</time></trkpt><trkpt lat="40.8747233" lon="14.1043317"><ele>82.0</ele><time>2026-04-11T12:15:07.857Z</time></trkpt><trkpt lat="40.8748183" lon="14.1042583"><ele>82.0</ele><time>2026-04-11T12:15:08.858Z</time></trkpt><trkpt lat="40.8749167" lon="14.104185"><ele>82.0</ele><time>2026-04-11T12:15:09.857Z</time></trkpt><trkpt lat="40.8750167" lon="14.1041083"><ele>82.0</ele><time>2026-04-11T12:15:10.857Z</time></trkpt><trkpt lat="40.87512" lon="14.1040367"><ele>80.5</ele><time>2026-04-11T12:15:11.857Z</time></trkpt><trkpt lat="40.875225" lon="14.1039733"><ele>79.0</ele><time>2026-04-11T12:15:12.857Z</time></trkpt><trkpt lat="40.8753367" lon="14.103915"><ele>77.5</ele><time>2026-04-11T12:15:13.857Z</time></trkpt><trkpt lat="40.87545" lon="14.1038583"><ele>76.0</ele><time>2026-04-11T12:15:14.857Z</time></trkpt><trkpt lat="40.8755617" lon="14.103805"><ele>76.0</ele><time>2026-04-11T12:15:15.858Z</time></trkpt><trkpt lat="40.8756717" lon="14.1037533"><ele>76.0</ele><time>2026-04-11T12:15:16.857Z</time></trkpt><trkpt lat="40.8757783" lon="14.1037"><ele>76.0</ele><time>2026-04-11T12:15:17.858Z</time></trkpt><trkpt lat="40.8758817" lon="14.1036483"><ele>76.0</ele><time>2026-04-11T12:15:18.857Z</time></trkpt><trkpt lat="40.8759833" lon="14.1035967"><ele>75.25</ele><time>2026-04-11T12:15:19.856Z</time></trkpt><trkpt lat="40.8760883" lon="14.1035483"><ele>74.5</ele><time>2026-04-11T12:15:20.857Z</time></trkpt><trkpt lat="40.8761967" lon="14.1034983"><ele>73.75</ele><time>2026-04-11T12:15:21.857Z</time></trkpt><trkpt lat="40.87631" lon="14.1034483"><ele>73.0</ele><time>2026-04-11T12:15:22.857Z</time></trkpt><trkpt lat="40.87642" lon="14.1033983"><ele>73.0</ele><time>2026-04-11T12:15:23.857Z</time></trkpt><trkpt lat="40.8765283" lon="14.103345"><ele>73.0</ele><time>2026-04-11T12:15:24.856Z</time></trkpt><trkpt lat="40.8766367" lon="14.103285"><ele>73.0</ele><time>2026-04-11T12:15:25.858Z</time></trkpt><trkpt lat="40.876745" lon="14.1032267"><ele>73.0</ele><time>2026-04-11T12:15:26.856Z</time></trkpt><trkpt lat="40.8768533" lon="14.10317"><ele>73.0</ele><time>2026-04-11T12:15:27.858Z</time></trkpt><trkpt lat="40.8769617" lon="14.103115"><ele>73.0</ele><time>2026-04-11T12:15:28.857Z</time></trkpt><trkpt lat="40.87706" lon="14.1030683"><ele>73.0</ele><time>2026-04-11T12:15:29.858Z</time></trkpt><trkpt lat="40.8771483" lon="14.103025"><ele>73.0</ele><time>2026-04-11T12:15:30.856Z</time></trkpt><trkpt lat="40.8772317" lon="14.10299"><ele>73.0</ele><time>2026-04-11T12:15:31.858Z</time></trkpt><trkpt lat="40.8773133" lon="14.102955"><ele>73.0</ele><time>2026-04-11T12:15:32.857Z</time></trkpt><trkpt lat="40.8773917" lon="14.102935"><ele>73.0</ele><time>2026-04-11T12:15:33.858Z</time></trkpt><trkpt lat="40.877465" lon="14.102935"><ele>73.0</ele><time>2026-04-11T12:15:34.857Z</time></trkpt><trkpt lat="40.8775333" lon="14.10296"><ele>73.0</ele><time>2026-04-11T12:15:35.857Z</time></trkpt><trkpt lat="40.877595" lon="14.10301"><ele>73.0</ele><time>2026-04-11T12:15:36.857Z</time></trkpt><trkpt lat="40.877645" lon="14.103075"><ele>73.0</ele><time>2026-04-11T12:15:37.859Z</time></trkpt><trkpt lat="40.8776783" lon="14.1031717"><ele>73.0</ele><time>2026-04-11T12:15:38.858Z</time></trkpt><trkpt lat="40.8777033" lon="14.103285"><ele>72.0</ele><time>2026-04-11T12:15:39.859Z</time></trkpt><trkpt lat="40.8777167" lon="14.1034"><ele>71.0</ele><time>2026-04-11T12:15:40.857Z</time></trkpt><trkpt lat="40.8777183" lon="14.1035233"><ele>70.0</ele><time>2026-04-11T12:15:41.857Z</time></trkpt><trkpt lat="40.8777133" lon="14.10364"><ele>69.0</ele><time>2026-04-11T12:15:42.857Z</time></trkpt><trkpt lat="40.8776983" lon="14.1037467"><ele>68.0</ele><time>2026-04-11T12:15:43.858Z</time></trkpt><trkpt lat="40.877665" lon="14.1038383"><ele>67.0</ele><time>2026-04-11T12:15:44.857Z</time></trkpt><trkpt lat="40.877615" lon="14.1039217"><ele>66.6</ele><time>2026-04-11T12:15:45.857Z</time></trkpt><trkpt lat="40.8775417" lon="14.10399"><ele>66.2</ele><time>2026-04-11T12:15:46.857Z</time></trkpt><trkpt lat="40.877455" lon="14.1040533"><ele>65.8</ele><time>2026-04-11T12:15:47.859Z</time></trkpt><trkpt lat="40.8773783" lon="14.1041267"><ele>65.4</ele><time>2026-04-11T12:15:48.858Z</time></trkpt><trkpt lat="40.877305" lon="14.1042167"><ele>65.0</ele><time>2026-04-11T12:15:49.858Z</time></trkpt><trkpt lat="40.877245" lon="14.104325"><ele>65.0</ele><time>2026-04-11T12:15:50.856Z</time></trkpt><trkpt lat="40.877195" lon="14.104445"><ele>65.0</ele><time>2026-04-11T12:15:51.857Z</time></trkpt><trkpt lat="40.877155" lon="14.104575"><ele>65.0</ele><time>2026-04-11T12:15:52.858Z</time></trkpt><trkpt lat="40.877115" lon="14.10471"><ele>65.0</ele><time>2026-04-11T12:15:53.858Z</time></trkpt><trkpt lat="40.8770733" lon="14.1048517"><ele>65.0</ele><time>2026-04-11T12:15:54.859Z</time></trkpt><trkpt lat="40.8770267" lon="14.1049917"><ele>63.0</ele><time>2026-04-11T12:15:55.857Z</time></trkpt><trkpt lat="40.8769733" lon="14.105135"><ele>61.0</ele><time>2026-04-11T12:15:56.86Z</time></trkpt><trkpt lat="40.8769133" lon="14.1052717"><ele>59.0</ele><time>2026-04-11T12:15:57.857Z</time></trkpt><trkpt lat="40.8768483" lon="14.1054017"><ele>57.0</ele><time>2026-04-11T12:15:58.857Z</time></trkpt><trkpt lat="40.87678" lon="14.1055283"><ele>57.0</ele><time>2026-04-11T12:15:59.856Z</time></trkpt><trkpt lat="40.8767117" lon="14.10565"><ele>57.0</ele><time>2026-04-11T12:16:00.856Z</time></trkpt><trkpt lat="40.87664" lon="14.1057683"><ele>57.0</ele><time>2026-04-11T12:16:01.857Z</time></trkpt><trkpt lat="40.8765717" lon="14.1058867"><ele>57.0</ele><time>2026-04-11T12:16:02.861Z</time></trkpt><trkpt lat="40.8765033" lon="14.1060067"><ele>57.0</ele><time>2026-04-11T12:16:03.856Z</time></trkpt><trkpt lat="40.8764367" lon="14.1061283"><ele>57.0</ele><time>2026-04-11T12:16:04.857Z</time></trkpt><trkpt lat="40.8763717" lon="14.1062517"><ele>57.0</ele><time>2026-04-11T12:16:05.859Z</time></trkpt><trkpt lat="40.87631" lon="14.1063767"><ele>57.0</ele><time>2026-04-11T12:16:06.857Z</time></trkpt><trkpt lat="40.8762467" lon="14.1065017"><ele>55.5</ele><time>2026-04-11T12:16:07.858Z</time></trkpt><trkpt lat="40.8761833" lon="14.1066367"><ele>54.0</ele><time>2026-04-11T12:16:08.857Z</time></trkpt><trkpt lat="40.8761183" lon="14.10677"><ele>52.5</ele><time>2026-04-11T12:16:09.859Z</time></trkpt><trkpt lat="40.8760517" lon="14.1069017"><ele>51.0</ele><time>2026-04-11T12:16:10.857Z</time></trkpt><trkpt lat="40.8759833" lon="14.1070317"><ele>51.25</ele><time>2026-04-11T12:16:11.856Z</time></trkpt><trkpt lat="40.8759183" lon="14.1071617"><ele>51.5</ele><time>2026-04-11T12:16:12.857Z</time></trkpt><trkpt lat="40.8758533" lon="14.10729"><ele>51.75</ele><time>2026-04-11T12:16:13.858Z</time></trkpt><trkpt lat="40.8757883" lon="14.107415"><ele>52.0</ele><time>2026-04-11T12:16:14.857Z</time></trkpt><trkpt lat="40.8757233" lon="14.1075433"><ele>52.0</ele><time>2026-04-11T12:16:15.856Z</time></trkpt><trkpt lat="40.8756617" lon="14.1076683"><ele>52.0</ele><time>2026-04-11T12:16:16.858Z</time></trkpt><trkpt lat="40.8755967" lon="14.1077833"><ele>52.0</ele><time>2026-04-11T12:16:17.859Z</time></trkpt><trkpt lat="40.8755267" lon="14.10789"><ele>52.0</ele><time>2026-04-11T12:16:18.857Z</time></trkpt><trkpt lat="40.8754533" lon="14.10798"><ele>52.0</ele><time>2026-04-11T12:16:19.857Z</time></trkpt><trkpt lat="40.8753917" lon="14.10807"><ele>51.99999999999999</ele><time>2026-04-11T12:16:20.857Z</time></trkpt><trkpt lat="40.8753317" lon="14.1081533"><ele>52.0</ele><time>2026-04-11T12:16:21.858Z</time></trkpt><trkpt lat="40.8752767" lon="14.1082417"><ele>52.0</ele><time>2026-04-11T12:16:22.858Z</time></trkpt><trkpt lat="40.8752333" lon="14.1083383"><ele>52.0</ele><time>2026-04-11T12:16:23.857Z</time></trkpt><trkpt lat="40.8752067" lon="14.1084483"><ele>51.99999999999999</ele><time>2026-04-11T12:16:24.857Z</time></trkpt><trkpt lat="40.8752017" lon="14.10857"><ele>52.0</ele><time>2026-04-11T12:16:25.857Z</time></trkpt><trkpt lat="40.8752033" lon="14.1086917"><ele>50.8</ele><time>2026-04-11T12:16:26.857Z</time></trkpt><trkpt lat="40.8752083" lon="14.1088183"><ele>49.6</ele><time>2026-04-11T12:16:27.857Z</time></trkpt><trkpt lat="40.8752167" lon="14.108945"><ele>48.4</ele><time>2026-04-11T12:16:28.858Z</time></trkpt><trkpt lat="40.8752167" lon="14.1090733"><ele>47.199999999999996</ele><time>2026-04-11T12:16:29.864Z</time></trkpt><trkpt lat="40.87521" lon="14.1091983"><ele>46.0</ele><time>2026-04-11T12:16:30.857Z</time></trkpt><trkpt lat="40.8751833" lon="14.1093183"><ele>45.8</ele><time>2026-04-11T12:16:31.858Z</time></trkpt><trkpt lat="40.8751417" lon="14.1094317"><ele>45.599999999999994</ele><time>2026-04-11T12:16:32.858Z</time></trkpt><trkpt lat="40.8750933" lon="14.10954"><ele>45.4</ele><time>2026-04-11T12:16:33.857Z</time></trkpt><trkpt lat="40.8750383" lon="14.109645"><ele>45.2</ele><time>2026-04-11T12:16:34.858Z</time></trkpt><trkpt lat="40.874985" lon="14.1097517"><ele>45.0</ele><time>2026-04-11T12:16:35.857Z</time></trkpt><trkpt lat="40.874935" lon="14.1098567"><ele>45.4</ele><time>2026-04-11T12:16:36.859Z</time></trkpt><trkpt lat="40.8748867" lon="14.1099667"><ele>45.8</ele><time>2026-04-11T12:16:37.858Z</time></trkpt><trkpt lat="40.87484" lon="14.110075"><ele>46.2</ele><time>2026-04-11T12:16:38.857Z</time></trkpt><trkpt lat="40.8747967" lon="14.1101833"><ele>46.6</ele><time>2026-04-11T12:16:39.858Z</time></trkpt><trkpt lat="40.874765" lon="14.1102967"><ele>47.0</ele><time>2026-04-11T12:16:40.857Z</time></trkpt><trkpt lat="40.8747433" lon="14.1104167"><ele>47.0</ele><time>2026-04-11T12:16:41.857Z</time></trkpt><trkpt lat="40.8747367" lon="14.1105417"><ele>47.0</ele><time>2026-04-11T12:16:42.857Z</time></trkpt><trkpt lat="40.8747433" lon="14.1106667"><ele>47.0</ele><time>2026-04-11T12:16:43.857Z</time></trkpt><trkpt lat="40.8747617" lon="14.110785"><ele>47.0</ele><time>2026-04-11T12:16:44.857Z</time></trkpt><trkpt lat="40.8747933" lon="14.1109"><ele>47.0</ele><time>2026-04-11T12:16:45.857Z</time></trkpt><trkpt lat="40.8748367" lon="14.1110083"><ele>46.6</ele><time>2026-04-11T12:16:46.857Z</time></trkpt><trkpt lat="40.8748817" lon="14.111115"><ele>46.2</ele><time>2026-04-11T12:16:47.859Z</time></trkpt><trkpt lat="40.87493" lon="14.1112233"><ele>45.8</ele><time>2026-04-11T12:16:48.858Z</time></trkpt><trkpt lat="40.87498" lon="14.1113367"><ele>45.4</ele><time>2026-04-11T12:16:49.857Z</time></trkpt><trkpt lat="40.8750383" lon="14.1114483"><ele>45.0</ele><time>2026-04-11T12:16:50.858Z</time></trkpt><trkpt lat="40.8751" lon="14.11156"><ele>44.2</ele><time>2026-04-11T12:16:51.856Z</time></trkpt><trkpt lat="40.87516" lon="14.111675"><ele>43.4</ele><time>2026-04-11T12:16:52.856Z</time></trkpt><trkpt lat="40.8752267" lon="14.1117883"><ele>42.599999999999994</ele><time>2026-04-11T12:16:53.857Z</time></trkpt><trkpt lat="40.875295" lon="14.1118983"><ele>41.8</ele><time>2026-04-11T12:16:54.857Z</time></trkpt><trkpt lat="40.87537" lon="14.111995"><ele>41.0</ele><time>2026-04-11T12:16:55.856Z</time></trkpt><trkpt lat="40.8754533" lon="14.11208"><ele>41.0</ele><time>2026-04-11T12:16:56.856Z</time></trkpt><trkpt lat="40.8755383" lon="14.1121533"><ele>41.0</ele><time>2026-04-11T12:16:57.857Z</time></trkpt><trkpt lat="40.8756233" lon="14.1122233"><ele>41.0</ele><time>2026-04-11T12:16:58.856Z</time></trkpt><trkpt lat="40.875705" lon="14.1122967"><ele>41.0</ele><time>2026-04-11T12:16:59.857Z</time></trkpt><trkpt lat="40.8757817" lon="14.1123717"><ele>41.0</ele><time>2026-04-11T12:17:00.856Z</time></trkpt><trkpt lat="40.87586" lon="14.112445"><ele>40.4</ele><time>2026-04-11T12:17:01.857Z</time></trkpt><trkpt lat="40.8759467" lon="14.1125167"><ele>39.8</ele><time>2026-04-11T12:17:02.856Z</time></trkpt><trkpt lat="40.8760267" lon="14.1125933"><ele>39.199999999999996</ele><time>2026-04-11T12:17:03.855Z</time></trkpt><trkpt lat="40.87611" lon="14.11267"><ele>38.599999999999994</ele><time>2026-04-11T12:17:04.857Z</time></trkpt><trkpt lat="40.8761933" lon="14.1127433"><ele>38.0</ele><time>2026-04-11T12:17:05.856Z</time></trkpt><trkpt lat="40.8762783" lon="14.112815"><ele>38.0</ele><time>2026-04-11T12:17:06.856Z</time></trkpt><trkpt lat="40.87636" lon="14.1128917"><ele>38.0</ele><time>2026-04-11T12:17:07.856Z</time></trkpt><trkpt lat="40.8764333" lon="14.112975"><ele>38.0</ele><time>2026-04-11T12:17:08.856Z</time></trkpt><trkpt lat="40.8764833" lon="14.1130783"><ele>38.0</ele><time>2026-04-11T12:17:09.856Z</time></trkpt><trkpt lat="40.8765017" lon="14.113195"><ele>38.0</ele><time>2026-04-11T12:17:10.856Z</time></trkpt><trkpt lat="40.8765" lon="14.113315"><ele>38.0</ele><time>2026-04-11T12:17:11.855Z</time></trkpt><trkpt lat="40.8764717" lon="14.1134233"><ele>38.0</ele><time>2026-04-11T12:17:12.856Z</time></trkpt><trkpt lat="40.8764317" lon="14.113525"><ele>38.0</ele><time>2026-04-11T12:17:13.856Z</time></trkpt><trkpt lat="40.8763817" lon="14.113625"><ele>38.0</ele><time>2026-04-11T12:17:14.855Z</time></trkpt><trkpt lat="40.8763317" lon="14.113725"><ele>38.0</ele><time>2026-04-11T12:17:15.856Z</time></trkpt><trkpt lat="40.8762867" lon="14.11382"><ele>38.0</ele><time>2026-04-11T12:17:16.856Z</time></trkpt><trkpt lat="40.8762417" lon="14.1139133"><ele>38.0</ele><time>2026-04-11T12:17:17.857Z</time></trkpt><trkpt lat="40.876195" lon="14.1139983"><ele>38.0</ele><time>2026-04-11T12:17:18.855Z</time></trkpt><trkpt lat="40.876145" lon="14.1140833"><ele>38.0</ele><time>2026-04-11T12:17:19.857Z</time></trkpt><trkpt lat="40.876095" lon="14.1141683"><ele>38.0</ele><time>2026-04-11T12:17:20.857Z</time></trkpt><trkpt lat="40.87605" lon="14.1142617"><ele>38.0</ele><time>2026-04-11T12:17:21.856Z</time></trkpt><trkpt lat="40.8760117" lon="14.11436"><ele>38.0</ele><time>2026-04-11T12:17:22.857Z</time></trkpt><trkpt lat="40.875975" lon="14.1144533"><ele>38.166666666666664</ele><time>2026-04-11T12:17:23.856Z</time></trkpt><trkpt lat="40.8759367" lon="14.1145483"><ele>38.33333333333333</ele><time>2026-04-11T12:17:24.861Z</time></trkpt><trkpt lat="40.875905" lon="14.114645"><ele>38.5</ele><time>2026-04-11T12:17:25.856Z</time></trkpt><trkpt lat="40.8758767" lon="14.114745"><ele>38.666666666666664</ele><time>2026-04-11T12:17:26.856Z</time></trkpt><trkpt lat="40.8758467" lon="14.11484"><ele>38.833333333333336</ele><time>2026-04-11T12:17:27.856Z</time></trkpt><trkpt lat="40.8758233" lon="14.1149467"><ele>39.0</ele><time>2026-04-11T12:17:28.856Z</time></trkpt><trkpt lat="40.8757983" lon="14.1150517"><ele>39.0</ele><time>2026-04-11T12:17:29.856Z</time></trkpt><trkpt lat="40.8757733" lon="14.11515"><ele>39.0</ele><time>2026-04-11T12:17:30.86Z</time></trkpt><trkpt lat="40.87576" lon="14.115245"><ele>39.0</ele><time>2026-04-11T12:17:31.857Z</time></trkpt><trkpt lat="40.875755" lon="14.1153283"><ele>39.0</ele><time>2026-04-11T12:17:32.856Z</time></trkpt><trkpt lat="40.8757467" lon="14.1154183"><ele>39.0</ele><time>2026-04-11T12:17:33.856Z</time></trkpt><trkpt lat="40.8757383" lon="14.115515"><ele>39.0</ele><time>2026-04-11T12:17:34.856Z</time></trkpt><trkpt lat="40.87573" lon="14.1156133"><ele>39.0</ele><time>2026-04-11T12:17:35.856Z</time></trkpt><trkpt lat="40.8757167" lon="14.1157133"><ele>39.0</ele><time>2026-04-11T12:17:36.856Z</time></trkpt><trkpt lat="40.8757083" lon="14.1158233"><ele>39.0</ele><time>2026-04-11T12:17:37.856Z</time></trkpt><trkpt lat="40.875715" lon="14.1159183"><ele>39.0</ele><time>2026-04-11T12:17:38.856Z</time></trkpt><trkpt lat="40.8757233" lon="14.116015"><ele>39.0</ele><time>2026-04-11T12:17:39.856Z</time></trkpt><trkpt lat="40.8757317" lon="14.1161067"><ele>39.0</ele><time>2026-04-11T12:17:40.856Z</time></trkpt><trkpt lat="40.8757467" lon="14.1161967"><ele>39.0</ele><time>2026-04-11T12:17:41.856Z</time></trkpt><trkpt lat="40.8757617" lon="14.116295"><ele>39.0</ele><time>2026-04-11T12:17:42.856Z</time></trkpt><trkpt lat="40.875775" lon="14.1163917"><ele>39.0</ele><time>2026-04-11T12:17:43.856Z</time></trkpt><trkpt lat="40.8757883" lon="14.1164883"><ele>39.0</ele><time>2026-04-11T12:17:44.856Z</time></trkpt><trkpt lat="40.8758017" lon="14.1165833"><ele>39.0</ele><time>2026-04-11T12:17:45.856Z</time></trkpt><trkpt lat="40.8758133" lon="14.1166833"><ele>39.0</ele><time>2026-04-11T12:17:46.856Z</time></trkpt><trkpt lat="40.8758283" lon="14.1167833"><ele>39.0</ele><time>2026-04-11T12:17:47.857Z</time></trkpt><trkpt lat="40.87585" lon="14.1168867"><ele>39.0</ele><time>2026-04-11T12:17:48.856Z</time></trkpt><trkpt lat="40.8758733" lon="14.11699"><ele>38.833333333333336</ele><time>2026-04-11T12:17:49.856Z</time></trkpt><trkpt lat="40.8758933" lon="14.117095"><ele>38.666666666666664</ele><time>2026-04-11T12:17:50.856Z</time></trkpt><trkpt lat="40.8759083" lon="14.1172"><ele>38.5</ele><time>2026-04-11T12:17:51.856Z</time></trkpt><trkpt lat="40.8759283" lon="14.1173067"><ele>38.33333333333333</ele><time>2026-04-11T12:17:52.856Z</time></trkpt><trkpt lat="40.875945" lon="14.1174183"><ele>38.166666666666664</ele><time>2026-04-11T12:17:53.857Z</time></trkpt><trkpt lat="40.8759633" lon="14.11753"><ele>38.0</ele><time>2026-04-11T12:17:54.856Z</time></trkpt><trkpt lat="40.8759817" lon="14.1176433"><ele>37.8</ele><time>2026-04-11T12:17:55.857Z</time></trkpt><trkpt lat="40.876" lon="14.1177583"><ele>37.599999999999994</ele><time>2026-04-11T12:17:56.856Z</time></trkpt><trkpt lat="40.8760183" lon="14.11788"><ele>37.400000000000006</ele><time>2026-04-11T12:17:57.856Z</time></trkpt><trkpt lat="40.8760317" lon="14.1179967"><ele>37.2</ele><time>2026-04-11T12:17:58.857Z</time></trkpt><trkpt lat="40.87605" lon="14.11812"><ele>37.0</ele><time>2026-04-11T12:17:59.856Z</time></trkpt><trkpt lat="40.8760767" lon="14.1182467"><ele>37.0</ele><time>2026-04-11T12:18:00.858Z</time></trkpt><trkpt lat="40.8760883" lon="14.11837"><ele>37.0</ele><time>2026-04-11T12:18:01.857Z</time></trkpt><trkpt lat="40.8761033" lon="14.118495"><ele>37.0</ele><time>2026-04-11T12:18:02.856Z</time></trkpt><trkpt lat="40.8761217" lon="14.1186167"><ele>37.0</ele><time>2026-04-11T12:18:03.856Z</time></trkpt><trkpt lat="40.87614" lon="14.1187383"><ele>37.0</ele><time>2026-04-11T12:18:04.856Z</time></trkpt><trkpt lat="40.8761567" lon="14.1188583"><ele>37.0</ele><time>2026-04-11T12:18:05.856Z</time></trkpt><trkpt lat="40.8761733" lon="14.1189783"><ele>37.0</ele><time>2026-04-11T12:18:06.857Z</time></trkpt><trkpt lat="40.8761867" lon="14.1190983"><ele>37.0</ele><time>2026-04-11T12:18:07.856Z</time></trkpt><trkpt lat="40.8762033" lon="14.119215"><ele>37.0</ele><time>2026-04-11T12:18:08.856Z</time></trkpt><trkpt lat="40.8762167" lon="14.1193317"><ele>37.0</ele><time>2026-04-11T12:18:09.856Z</time></trkpt><trkpt lat="40.8762317" lon="14.1194433"><ele>37.0</ele><time>2026-04-11T12:18:10.858Z</time></trkpt><trkpt lat="40.8762483" lon="14.11956"><ele>37.16666666666667</ele><time>2026-04-11T12:18:11.857Z</time></trkpt><trkpt lat="40.876265" lon="14.119675"><ele>37.333333333333336</ele><time>2026-04-11T12:18:12.856Z</time></trkpt><trkpt lat="40.876285" lon="14.11978"><ele>37.5</ele><time>2026-04-11T12:18:13.856Z</time></trkpt><trkpt lat="40.876295" lon="14.1198867"><ele>37.666666666666664</ele><time>2026-04-11T12:18:14.86Z</time></trkpt><trkpt lat="40.87631" lon="14.119995"><ele>37.83333333333333</ele><time>2026-04-11T12:18:15.856Z</time></trkpt><trkpt lat="40.8763217" lon="14.120105"><ele>38.0</ele><time>2026-04-11T12:18:16.856Z</time></trkpt><trkpt lat="40.87634" lon="14.1202133"><ele>38.166666666666664</ele><time>2026-04-11T12:18:17.856Z</time></trkpt><trkpt lat="40.8763567" lon="14.12032"><ele>38.33333333333333</ele><time>2026-04-11T12:18:18.86Z</time></trkpt><trkpt lat="40.8763683" lon="14.1204233"><ele>38.5</ele><time>2026-04-11T12:18:19.856Z</time></trkpt><trkpt lat="40.8763783" lon="14.1205267"><ele>38.666666666666664</ele><time>2026-04-11T12:18:20.858Z</time></trkpt><trkpt lat="40.8763917" lon="14.12063"><ele>38.833333333333336</ele><time>2026-04-11T12:18:21.856Z</time></trkpt><trkpt lat="40.8764067" lon="14.12073"><ele>39.0</ele><time>2026-04-11T12:18:22.857Z</time></trkpt><trkpt lat="40.876425" lon="14.1208283"><ele>39.0</ele><time>2026-04-11T12:18:23.857Z</time></trkpt><trkpt lat="40.8764383" lon="14.1209283"><ele>39.0</ele><time>2026-04-11T12:18:24.855Z</time></trkpt><trkpt lat="40.8764583" lon="14.1210267"><ele>39.0</ele><time>2026-04-11T12:18:25.857Z</time></trkpt><trkpt lat="40.8764767" lon="14.1211267"><ele>39.0</ele><time>2026-04-11T12:18:26.856Z</time></trkpt><trkpt lat="40.8764933" lon="14.1212233"><ele>39.0</ele><time>2026-04-11T12:18:27.856Z</time></trkpt><trkpt lat="40.8765083" lon="14.1213183"><ele>39.0</ele><time>2026-04-11T12:18:28.856Z</time></trkpt><trkpt lat="40.8765317" lon="14.1214117"><ele>39.0</ele><time>2026-04-11T12:18:29.856Z</time></trkpt><trkpt lat="40.87655" lon="14.121505"><ele>39.0</ele><time>2026-04-11T12:18:30.856Z</time></trkpt><trkpt lat="40.8765667" lon="14.1215967"><ele>39.0</ele><time>2026-04-11T12:18:31.857Z</time></trkpt><trkpt lat="40.8765733" lon="14.1216867"><ele>39.0</ele><time>2026-04-11T12:18:32.856Z</time></trkpt><trkpt lat="40.8765733" lon="14.121835"><ele>39.0</ele><time>2026-04-11T12:18:34.856Z</time></trkpt><trkpt lat="40.876495" lon="14.12193"><ele>39.0</ele><time>2026-04-11T12:18:36.856Z</time></trkpt><trkpt lat="40.876425" lon="14.1219367"><ele>38.85714285714286</ele><time>2026-04-11T12:18:37.856Z</time></trkpt><trkpt lat="40.8763533" lon="14.121935"><ele>38.71428571428571</ele><time>2026-04-11T12:18:38.857Z</time></trkpt><trkpt lat="40.8762867" lon="14.121945"><ele>38.57142857142857</ele><time>2026-04-11T12:18:39.856Z</time></trkpt><trkpt lat="40.8762183" lon="14.1219583"><ele>38.42857142857143</ele><time>2026-04-11T12:18:40.857Z</time></trkpt><trkpt lat="40.87615" lon="14.1219667"><ele>38.28571428571429</ele><time>2026-04-11T12:18:41.857Z</time></trkpt><trkpt lat="40.8760833" lon="14.1219767"><ele>38.14285714285714</ele><time>2026-04-11T12:18:42.857Z</time></trkpt><trkpt lat="40.8760167" lon="14.121985"><ele>38.0</ele><time>2026-04-11T12:18:43.857Z</time></trkpt><trkpt lat="40.8759517" lon="14.1220067"><ele>38.4</ele><time>2026-04-11T12:18:44.856Z</time></trkpt><trkpt lat="40.8758333" lon="14.122035"><ele>38.8</ele><time>2026-04-11T12:18:46.857Z</time></trkpt><trkpt lat="40.87577" lon="14.12205"><ele>39.2</ele><time>2026-04-11T12:18:47.857Z</time></trkpt><trkpt lat="40.8757067" lon="14.1220683"><ele>39.6</ele><time>2026-04-11T12:18:48.857Z</time></trkpt><trkpt lat="40.875585" lon="14.1221"><ele>40.0</ele><time>2026-04-11T12:18:50.855Z</time></trkpt><trkpt lat="40.8754717" lon="14.122135"><ele>40.0</ele><time>2026-04-11T12:18:52.856Z</time></trkpt><trkpt lat="40.87536" lon="14.1221717"><ele>40.0</ele><time>2026-04-11T12:18:54.857Z</time></trkpt><trkpt lat="40.8752583" lon="14.1222083"><ele>40.0</ele><time>2026-04-11T12:18:56.861Z</time></trkpt><trkpt lat="40.8751583" lon="14.12224"><ele>40.0</ele><time>2026-04-11T12:18:58.855Z</time></trkpt><trkpt lat="40.8750567" lon="14.1222683"><ele>40.0</ele><time>2026-04-11T12:19:00.857Z</time></trkpt><trkpt lat="40.87495" lon="14.1223"><ele>39.6</ele><time>2026-04-11T12:19:02.856Z</time></trkpt><trkpt lat="40.874845" lon="14.1223283"><ele>39.2</ele><time>2026-04-11T12:19:04.855Z</time></trkpt><trkpt lat="40.874745" lon="14.122365"><ele>38.8</ele><time>2026-04-11T12:19:06.856Z</time></trkpt><trkpt lat="40.8746433" lon="14.1223933"><ele>38.4</ele><time>2026-04-11T12:19:08.856Z</time></trkpt><trkpt lat="40.874545" lon="14.12243"><ele>38.0</ele><time>2026-04-11T12:19:10.857Z</time></trkpt><trkpt lat="40.8744467" lon="14.122455"><ele>38.0</ele><time>2026-04-11T12:19:12.856Z</time></trkpt><trkpt lat="40.874355" lon="14.122485"><ele>38.0</ele><time>2026-04-11T12:19:14.856Z</time></trkpt><trkpt lat="40.874255" lon="14.1225133"><ele>38.0</ele><time>2026-04-11T12:19:16.856Z</time></trkpt><trkpt lat="40.8741617" lon="14.1225367"><ele>38.0</ele><time>2026-04-11T12:19:18.855Z</time></trkpt><trkpt lat="40.8740733" lon="14.1225683"><ele>38.0</ele><time>2026-04-11T12:19:20.857Z</time></trkpt><trkpt lat="40.87398" lon="14.1226033"><ele>38.4</ele><time>2026-04-11T12:19:22.857Z</time></trkpt><trkpt lat="40.87388" lon="14.1226317"><ele>38.8</ele><time>2026-04-11T12:19:24.855Z</time></trkpt><trkpt lat="40.873785" lon="14.12266"><ele>39.2</ele><time>2026-04-11T12:19:26.856Z</time></trkpt><trkpt lat="40.8736933" lon="14.1226883"><ele>39.6</ele><time>2026-04-11T12:19:28.86Z</time></trkpt><trkpt lat="40.8736067" lon="14.1227233"><ele>40.0</ele><time>2026-04-11T12:19:30.857Z</time></trkpt><trkpt lat="40.873515" lon="14.1227533"><ele>40.2</ele><time>2026-04-11T12:19:32.858Z</time></trkpt><trkpt lat="40.8734267" lon="14.1227817"><ele>40.4</ele><time>2026-04-11T12:19:34.856Z</time></trkpt><trkpt lat="40.8733317" lon="14.1228067"><ele>40.599999999999994</ele><time>2026-04-11T12:19:36.855Z</time></trkpt><trkpt lat="40.873235" lon="14.1228333"><ele>40.8</ele><time>2026-04-11T12:19:38.856Z</time></trkpt><trkpt lat="40.873145" lon="14.1228633"><ele>41.0</ele><time>2026-04-11T12:19:40.859Z</time></trkpt><trkpt lat="40.8730567" lon="14.1228967"><ele>41.0</ele><time>2026-04-11T12:19:42.857Z</time></trkpt><trkpt lat="40.8729617" lon="14.122925"><ele>41.0</ele><time>2026-04-11T12:19:44.856Z</time></trkpt><trkpt lat="40.872865" lon="14.1229467"><ele>41.0</ele><time>2026-04-11T12:19:46.859Z</time></trkpt><trkpt lat="40.8727767" lon="14.1229717"><ele>41.0</ele><time>2026-04-11T12:19:48.859Z</time></trkpt><trkpt lat="40.87268" lon="14.1229983"><ele>41.0</ele><time>2026-04-11T12:19:50.856Z</time></trkpt><trkpt lat="40.87259" lon="14.1230267"><ele>41.5</ele><time>2026-04-11T12:19:52.856Z</time></trkpt><trkpt lat="40.8725083" lon="14.123055"><ele>42.0</ele><time>2026-04-11T12:19:54.856Z</time></trkpt><trkpt lat="40.8724267" lon="14.1230833"><ele>42.5</ele><time>2026-04-11T12:19:56.857Z</time></trkpt><trkpt lat="40.872345" lon="14.1231183"><ele>43.0</ele><time>2026-04-11T12:19:58.857Z</time></trkpt><trkpt lat="40.8722567" lon="14.1231417"><ele>43.5</ele><time>2026-04-11T12:20:00.856Z</time></trkpt><trkpt lat="40.87217" lon="14.123165"><ele>44.0</ele><time>2026-04-11T12:20:02.856Z</time></trkpt><trkpt lat="40.8720783" lon="14.1231917"><ele>44.0</ele><time>2026-04-11T12:20:04.857Z</time></trkpt><trkpt lat="40.87199" lon="14.1232233"><ele>44.0</ele><time>2026-04-11T12:20:06.857Z</time></trkpt><trkpt lat="40.8719133" lon="14.1232517"><ele>44.0</ele><time>2026-04-11T12:20:08.856Z</time></trkpt><trkpt lat="40.8718367" lon="14.1232717"><ele>44.0</ele><time>2026-04-11T12:20:10.858Z</time></trkpt><trkpt lat="40.871755" lon="14.123295"><ele>44.0</ele><time>2026-04-11T12:20:12.856Z</time></trkpt><trkpt lat="40.8716717" lon="14.123315"><ele>44.0</ele><time>2026-04-11T12:20:14.856Z</time></trkpt><trkpt lat="40.871595" lon="14.1233333"><ele>44.666666666666664</ele><time>2026-04-11T12:20:16.856Z</time></trkpt><trkpt lat="40.871525" lon="14.1233517"><ele>45.33333333333333</ele><time>2026-04-11T12:20:18.857Z</time></trkpt><trkpt lat="40.8714483" lon="14.1233767"><ele>46.0</ele><time>2026-04-11T12:20:20.857Z</time></trkpt><trkpt lat="40.8713683" lon="14.1234017"><ele>46.666666666666664</ele><time>2026-04-11T12:20:22.857Z</time></trkpt><trkpt lat="40.8712917" lon="14.1234317"><ele>47.333333333333336</ele><time>2026-04-11T12:20:24.856Z</time></trkpt><trkpt lat="40.871215" lon="14.12346"><ele>48.0</ele><time>2026-04-11T12:20:26.857Z</time></trkpt><trkpt lat="40.8711383" lon="14.1234817"><ele>48.0</ele><time>2026-04-11T12:20:28.858Z</time></trkpt><trkpt lat="40.8710667" lon="14.1235083"><ele>48.0</ele><time>2026-04-11T12:20:30.857Z</time></trkpt><trkpt lat="40.8709817" lon="14.123535"><ele>48.0</ele><time>2026-04-11T12:20:32.857Z</time></trkpt><trkpt lat="40.8709" lon="14.1235633"><ele>48.0</ele><time>2026-04-11T12:20:34.857Z</time></trkpt><trkpt lat="40.8708233" lon="14.12359"><ele>48.0</ele><time>2026-04-11T12:20:36.857Z</time></trkpt><trkpt lat="40.87074" lon="14.123615"><ele>48.0</ele><time>2026-04-11T12:20:38.859Z</time></trkpt><trkpt lat="40.87066" lon="14.1236367"><ele>48.333333333333336</ele><time>2026-04-11T12:20:40.856Z</time></trkpt><trkpt lat="40.8705767" lon="14.1236517"><ele>48.66666666666667</ele><time>2026-04-11T12:20:42.856Z</time></trkpt><trkpt lat="40.8704983" lon="14.1236783"><ele>49.0</ele><time>2026-04-11T12:20:44.857Z</time></trkpt><trkpt lat="40.87042" lon="14.1237"><ele>49.333333333333336</ele><time>2026-04-11T12:20:46.856Z</time></trkpt><trkpt lat="40.8703467" lon="14.12373"><ele>49.66666666666667</ele><time>2026-04-11T12:20:48.857Z</time></trkpt><trkpt lat="40.8702617" lon="14.123745"><ele>50.0</ele><time>2026-04-11T12:20:50.86Z</time></trkpt><trkpt lat="40.870185" lon="14.1237717"><ele>51.333333333333336</ele><time>2026-04-11T12:20:52.857Z</time></trkpt><trkpt lat="40.8701067" lon="14.123795"><ele>52.66666666666667</ele><time>2026-04-11T12:20:54.857Z</time></trkpt><trkpt lat="40.8700233" lon="14.123815"><ele>54.0</ele><time>2026-04-11T12:20:56.856Z</time></trkpt><trkpt lat="40.8699467" lon="14.1238467"><ele>55.33333333333333</ele><time>2026-04-11T12:20:58.855Z</time></trkpt><trkpt lat="40.869875" lon="14.1238633"><ele>56.666666666666664</ele><time>2026-04-11T12:21:00.857Z</time></trkpt><trkpt lat="40.8697967" lon="14.1238983"><ele>58.0</ele><time>2026-04-11T12:21:02.855Z</time></trkpt><trkpt lat="40.8697233" lon="14.1239333"><ele>58.00000000000001</ele><time>2026-04-11T12:21:04.855Z</time></trkpt><trkpt lat="40.8696483" lon="14.12396"><ele>58.0</ele><time>2026-04-11T12:21:06.856Z</time></trkpt><trkpt lat="40.869575" lon="14.123985"><ele>58.00000000000001</ele><time>2026-04-11T12:21:08.856Z</time></trkpt><trkpt lat="40.869505" lon="14.124015"><ele>58.00000000000001</ele><time>2026-04-11T12:21:10.856Z</time></trkpt><trkpt lat="40.86943" lon="14.12404"><ele>58.0</ele><time>2026-04-11T12:21:12.858Z</time></trkpt><trkpt lat="40.8693567" lon="14.1240583"><ele>58.00000000000001</ele><time>2026-04-11T12:21:14.856Z</time></trkpt><trkpt lat="40.8692883" lon="14.1240767"><ele>58.00000000000001</ele><time>2026-04-11T12:21:16.856Z</time></trkpt><trkpt lat="40.8692217" lon="14.1241017"><ele>59.571428571428584</ele><time>2026-04-11T12:21:18.856Z</time></trkpt><trkpt lat="40.8691583" lon="14.1241183"><ele>61.142857142857146</ele><time>2026-04-11T12:21:20.857Z</time></trkpt><trkpt lat="40.8690933" lon="14.124135"><ele>62.71428571428572</ele><time>2026-04-11T12:21:22.858Z</time></trkpt><trkpt lat="40.8690283" lon="14.1241533"><ele>64.28571428571429</ele><time>2026-04-11T12:21:24.857Z</time></trkpt><trkpt lat="40.8689633" lon="14.124175"><ele>65.85714285714286</ele><time>2026-04-11T12:21:26.856Z</time></trkpt><trkpt lat="40.8689" lon="14.1242017"><ele>67.42857142857143</ele><time>2026-04-11T12:21:28.856Z</time></trkpt><trkpt lat="40.8688317" lon="14.12423"><ele>69.0</ele><time>2026-04-11T12:21:30.858Z</time></trkpt><trkpt lat="40.8687633" lon="14.12425"><ele>69.0</ele><time>2026-04-11T12:21:32.858Z</time></trkpt><trkpt lat="40.8686717" lon="14.1242633"><ele>69.0</ele><time>2026-04-11T12:21:35.855Z</time></trkpt><trkpt lat="40.8685933" lon="14.1242833"><ele>69.0</ele><time>2026-04-11T12:21:38.856Z</time></trkpt><trkpt lat="40.8685217" lon="14.124305"><ele>69.0</ele><time>2026-04-11T12:21:40.856Z</time></trkpt><trkpt lat="40.868445" lon="14.1243383"><ele>69.0</ele><time>2026-04-11T12:21:42.856Z</time></trkpt><trkpt lat="40.8683767" lon="14.1243533"><ele>69.0</ele><time>2026-04-11T12:21:44.855Z</time></trkpt><trkpt lat="40.86828" lon="14.124375"><ele>72.6</ele><time>2026-04-11T12:21:48.856Z</time></trkpt><trkpt lat="40.868205" lon="14.1243867"><ele>76.2</ele><time>2026-04-11T12:21:50.856Z</time></trkpt><trkpt lat="40.8681067" lon="14.124425"><ele>79.8</ele><time>2026-04-11T12:21:52.856Z</time></trkpt><trkpt lat="40.86802" lon="14.1244583"><ele>83.39999999999999</ele><time>2026-04-11T12:21:54.856Z</time></trkpt><trkpt lat="40.8679233" lon="14.1244783"><ele>87.0</ele><time>2026-04-11T12:21:56.858Z</time></trkpt><trkpt lat="40.8678267" lon="14.1245"><ele>87.0</ele><time>2026-04-11T12:21:58.859Z</time></trkpt><trkpt lat="40.86773" lon="14.12454"><ele>87.0</ele><time>2026-04-11T12:22:00.858Z</time></trkpt><trkpt lat="40.8676283" lon="14.1245617"><ele>87.0</ele><time>2026-04-11T12:22:02.857Z</time></trkpt><trkpt lat="40.867525" lon="14.124595"><ele>87.0</ele><time>2026-04-11T12:22:04.857Z</time></trkpt><trkpt lat="40.867405" lon="14.1246167"><ele>87.0</ele><time>2026-04-11T12:22:06.856Z</time></trkpt><trkpt lat="40.8673367" lon="14.1246233"><ele>85.66666666666667</ele><time>2026-04-11T12:22:07.856Z</time></trkpt><trkpt lat="40.8672683" lon="14.1246267"><ele>84.33333333333333</ele><time>2026-04-11T12:22:08.856Z</time></trkpt><trkpt lat="40.8672033" lon="14.1246167"><ele>83.0</ele><time>2026-04-11T12:22:09.856Z</time></trkpt><trkpt lat="40.8670933" lon="14.12467"><ele>81.66666666666666</ele><time>2026-04-11T12:22:11.857Z</time></trkpt><trkpt lat="40.8670467" lon="14.1247367"><ele>80.33333333333333</ele><time>2026-04-11T12:22:12.855Z</time></trkpt><trkpt lat="40.8670033" lon="14.124805"><ele>79.0</ele><time>2026-04-11T12:22:13.856Z</time></trkpt><trkpt lat="40.8669267" lon="14.1249133"><ele>79.0</ele><time>2026-04-11T12:22:15.856Z</time></trkpt><trkpt lat="40.866855" lon="14.1250067"><ele>79.0</ele><time>2026-04-11T12:22:17.857Z</time></trkpt><trkpt lat="40.8667767" lon="14.1251183"><ele>79.0</ele><time>2026-04-11T12:22:19.858Z</time></trkpt><trkpt lat="40.8667033" lon="14.1252333"><ele>79.0</ele><time>2026-04-11T12:22:21.856Z</time></trkpt><trkpt lat="40.86664" lon="14.12532"><ele>79.0</ele><time>2026-04-11T12:22:23.855Z</time></trkpt><trkpt lat="40.8665717" lon="14.1254267"><ele>77.8</ele><time>2026-04-11T12:22:25.858Z</time></trkpt><trkpt lat="40.8664967" lon="14.1255267"><ele>76.60000000000001</ele><time>2026-04-11T12:22:27.856Z</time></trkpt><trkpt lat="40.866425" lon="14.1256267"><ele>75.4</ele><time>2026-04-11T12:22:29.856Z</time></trkpt><trkpt lat="40.8663467" lon="14.1257283"><ele>74.2</ele><time>2026-04-11T12:22:31.856Z</time></trkpt><trkpt lat="40.8662683" lon="14.1258317"><ele>73.0</ele><time>2026-04-11T12:22:33.856Z</time></trkpt><trkpt lat="40.8661917" lon="14.1259367"><ele>73.0</ele><time>2026-04-11T12:22:35.856Z</time></trkpt><trkpt lat="40.8661183" lon="14.1260433"><ele>73.0</ele><time>2026-04-11T12:22:37.857Z</time></trkpt><trkpt lat="40.8660383" lon="14.1261483"><ele>73.0</ele><time>2026-04-11T12:22:39.856Z</time></trkpt><trkpt lat="40.8659567" lon="14.12624"><ele>73.0</ele><time>2026-04-11T12:22:41.856Z</time></trkpt><trkpt lat="40.8658733" lon="14.1263333"><ele>73.0</ele><time>2026-04-11T12:22:43.856Z</time></trkpt><trkpt lat="40.8657933" lon="14.1264317"><ele>71.6</ele><time>2026-04-11T12:22:45.856Z</time></trkpt><trkpt lat="40.8657133" lon="14.1265283"><ele>70.19999999999999</ele><time>2026-04-11T12:22:47.856Z</time></trkpt><trkpt lat="40.86564" lon="14.1266267"><ele>68.8</ele><time>2026-04-11T12:22:49.855Z</time></trkpt><trkpt lat="40.86556" lon="14.1267233"><ele>67.39999999999999</ele><time>2026-04-11T12:22:51.856Z</time></trkpt><trkpt lat="40.8654817" lon="14.12682"><ele>66.0</ele><time>2026-04-11T12:22:53.855Z</time></trkpt><trkpt lat="40.865405" lon="14.1269183"><ele>66.0</ele><time>2026-04-11T12:22:55.857Z</time></trkpt><trkpt lat="40.8653267" lon="14.1270133"><ele>66.0</ele><time>2026-04-11T12:22:57.856Z</time></trkpt><trkpt lat="40.8652467" lon="14.1271133"><ele>66.0</ele><time>2026-04-11T12:22:59.856Z</time></trkpt><trkpt lat="40.8651667" lon="14.1272183"><ele>66.0</ele><time>2026-04-11T12:23:01.856Z</time></trkpt><trkpt lat="40.865095" lon="14.12731"><ele>66.0</ele><time>2026-04-11T12:23:03.856Z</time></trkpt><trkpt lat="40.8650233" lon="14.1274133"><ele>66.0</ele><time>2026-04-11T12:23:05.858Z</time></trkpt><trkpt lat="40.86495" lon="14.1275133"><ele>66.0</ele><time>2026-04-11T12:23:07.857Z</time></trkpt><trkpt lat="40.8648717" lon="14.1276083"><ele>66.0</ele><time>2026-04-11T12:23:09.856Z</time></trkpt><trkpt lat="40.8647983" lon="14.1277067"><ele>66.0</ele><time>2026-04-11T12:23:11.857Z</time></trkpt><trkpt lat="40.8647267" lon="14.12781"><ele>66.0</ele><time>2026-04-11T12:23:13.859Z</time></trkpt><trkpt lat="40.8646483" lon="14.1278917"><ele>66.0</ele><time>2026-04-11T12:23:15.856Z</time></trkpt><trkpt lat="40.8645783" lon="14.1279833"><ele>66.0</ele><time>2026-04-11T12:23:17.86Z</time></trkpt><trkpt lat="40.8645033" lon="14.1280833"><ele>66.0</ele><time>2026-04-11T12:23:19.857Z</time></trkpt><trkpt lat="40.8644267" lon="14.128185"><ele>66.0</ele><time>2026-04-11T12:23:21.856Z</time></trkpt><trkpt lat="40.8643483" lon="14.12829"><ele>66.0</ele><time>2026-04-11T12:23:23.856Z</time></trkpt><trkpt lat="40.8642833" lon="14.128395"><ele>66.39999999999999</ele><time>2026-04-11T12:23:25.855Z</time></trkpt><trkpt lat="40.8642367" lon="14.1285183"><ele>66.8</ele><time>2026-04-11T12:23:27.856Z</time></trkpt><trkpt lat="40.8641967" lon="14.1286467"><ele>67.19999999999999</ele><time>2026-04-11T12:23:29.856Z</time></trkpt><trkpt lat="40.864175" lon="14.1287883"><ele>67.6</ele><time>2026-04-11T12:23:31.856Z</time></trkpt><trkpt lat="40.86416" lon="14.1289317"><ele>68.0</ele><time>2026-04-11T12:23:33.856Z</time></trkpt><trkpt lat="40.864145" lon="14.1290783"><ele>68.4</ele><time>2026-04-11T12:23:35.855Z</time></trkpt><trkpt lat="40.8641333" lon="14.1292233"><ele>68.8</ele><time>2026-04-11T12:23:37.856Z</time></trkpt><trkpt lat="40.86413" lon="14.129355"><ele>69.2</ele><time>2026-04-11T12:23:39.855Z</time></trkpt><trkpt lat="40.86413" lon="14.1294917"><ele>69.6</ele><time>2026-04-11T12:23:41.857Z</time></trkpt><trkpt lat="40.864125" lon="14.129645"><ele>70.0</ele><time>2026-04-11T12:23:43.856Z</time></trkpt><trkpt lat="40.86413" lon="14.1297933"><ele>70.0</ele><time>2026-04-11T12:23:45.856Z</time></trkpt><trkpt lat="40.8641267" lon="14.1299383"><ele>70.0</ele><time>2026-04-11T12:23:47.855Z</time></trkpt><trkpt lat="40.864135" lon="14.130085"><ele>70.0</ele><time>2026-04-11T12:23:49.856Z</time></trkpt><trkpt lat="40.8641417" lon="14.1302333"><ele>70.0</ele><time>2026-04-11T12:23:51.856Z</time></trkpt><trkpt lat="40.8641467" lon="14.1303783"><ele>70.0</ele><time>2026-04-11T12:23:53.857Z</time></trkpt><trkpt lat="40.8641533" lon="14.1305283"><ele>70.0</ele><time>2026-04-11T12:23:55.856Z</time></trkpt><trkpt lat="40.8641567" lon="14.1306717"><ele>70.0</ele><time>2026-04-11T12:23:57.856Z</time></trkpt><trkpt lat="40.86416" lon="14.1308033"><ele>70.0</ele><time>2026-04-11T12:23:59.855Z</time></trkpt><trkpt lat="40.8641733" lon="14.13094"><ele>70.0</ele><time>2026-04-11T12:24:01.856Z</time></trkpt><trkpt lat="40.864195" lon="14.1310783"><ele>70.0</ele><time>2026-04-11T12:24:03.856Z</time></trkpt><trkpt lat="40.8642183" lon="14.13121"><ele>70.6</ele><time>2026-04-11T12:24:05.856Z</time></trkpt><trkpt lat="40.86424" lon="14.1313433"><ele>71.2</ele><time>2026-04-11T12:24:07.856Z</time></trkpt><trkpt lat="40.8642533" lon="14.1314733"><ele>71.8</ele><time>2026-04-11T12:24:09.856Z</time></trkpt><trkpt lat="40.8642533" lon="14.13159"><ele>72.4</ele><time>2026-04-11T12:24:11.856Z</time></trkpt><trkpt lat="40.8642567" lon="14.1317133"><ele>73.0</ele><time>2026-04-11T12:24:13.856Z</time></trkpt><trkpt lat="40.8642667" lon="14.13183"><ele>73.8</ele><time>2026-04-11T12:24:15.856Z</time></trkpt><trkpt lat="40.864275" lon="14.131945"><ele>74.6</ele><time>2026-04-11T12:24:17.856Z</time></trkpt><trkpt lat="40.8643017" lon="14.132075"><ele>75.4</ele><time>2026-04-11T12:24:19.856Z</time></trkpt><trkpt lat="40.8643167" lon="14.1322033"><ele>76.2</ele><time>2026-04-11T12:24:21.856Z</time></trkpt><trkpt lat="40.8643383" lon="14.1323283"><ele>77.0</ele><time>2026-04-11T12:24:23.855Z</time></trkpt><trkpt lat="40.8643517" lon="14.1324533"><ele>77.4</ele><time>2026-04-11T12:24:25.856Z</time></trkpt><trkpt lat="40.86438" lon="14.1325833"><ele>77.80000000000001</ele><time>2026-04-11T12:24:27.857Z</time></trkpt><trkpt lat="40.8643883" lon="14.1327117"><ele>78.2</ele><time>2026-04-11T12:24:29.856Z</time></trkpt><trkpt lat="40.86441" lon="14.1328417"><ele>78.60000000000001</ele><time>2026-04-11T12:24:31.856Z</time></trkpt><trkpt lat="40.8644367" lon="14.1329683"><ele>79.0</ele><time>2026-04-11T12:24:33.856Z</time></trkpt><trkpt lat="40.86446" lon="14.133105"><ele>79.2</ele><time>2026-04-11T12:24:35.856Z</time></trkpt><trkpt lat="40.8644833" lon="14.1332367"><ele>79.4</ele><time>2026-04-11T12:24:37.857Z</time></trkpt><trkpt lat="40.8645067" lon="14.1333683"><ele>79.6</ele><time>2026-04-11T12:24:39.856Z</time></trkpt><trkpt lat="40.8645317" lon="14.1335033"><ele>79.8</ele><time>2026-04-11T12:24:41.857Z</time></trkpt><trkpt lat="40.8645567" lon="14.133635"><ele>80.0</ele><time>2026-04-11T12:24:43.856Z</time></trkpt><trkpt lat="40.8645717" lon="14.1337683"><ele>80.0</ele><time>2026-04-11T12:24:45.857Z</time></trkpt><trkpt lat="40.864585" lon="14.1338967"><ele>80.0</ele><time>2026-04-11T12:24:47.856Z</time></trkpt><trkpt lat="40.864595" lon="14.1340467"><ele>80.0</ele><time>2026-04-11T12:24:49.856Z</time></trkpt><trkpt lat="40.86461" lon="14.1342067"><ele>80.0</ele><time>2026-04-11T12:24:51.856Z</time></trkpt><trkpt lat="40.86462" lon="14.1343683"><ele>80.4</ele><time>2026-04-11T12:24:53.857Z</time></trkpt><trkpt lat="40.8646317" lon="14.1345183"><ele>80.8</ele><time>2026-04-11T12:24:55.856Z</time></trkpt><trkpt lat="40.8646433" lon="14.1346533"><ele>81.19999999999999</ele><time>2026-04-11T12:24:57.856Z</time></trkpt><trkpt lat="40.8646417" lon="14.13477"><ele>81.6</ele><time>2026-04-11T12:24:59.855Z</time></trkpt><trkpt lat="40.864635" lon="14.1349017"><ele>82.0</ele><time>2026-04-11T12:25:01.857Z</time></trkpt><trkpt lat="40.864635" lon="14.1350317"><ele>82.39999999999999</ele><time>2026-04-11T12:25:03.857Z</time></trkpt><trkpt lat="40.8646317" lon="14.1351567"><ele>82.8</ele><time>2026-04-11T12:25:05.856Z</time></trkpt><trkpt lat="40.8646367" lon="14.1352767"><ele>83.2</ele><time>2026-04-11T12:25:07.856Z</time></trkpt><trkpt lat="40.86464" lon="14.1354"><ele>83.6</ele><time>2026-04-11T12:25:09.857Z</time></trkpt><trkpt lat="40.8646433" lon="14.135525"><ele>84.0</ele><time>2026-04-11T12:25:11.856Z</time></trkpt><trkpt lat="40.8646417" lon="14.1356533"><ele>84.6</ele><time>2026-04-11T12:25:13.856Z</time></trkpt><trkpt lat="40.8646383" lon="14.1357833"><ele>85.2</ele><time>2026-04-11T12:25:15.856Z</time></trkpt><trkpt lat="40.8646283" lon="14.1358967"><ele>85.8</ele><time>2026-04-11T12:25:17.856Z</time></trkpt><trkpt lat="40.864615" lon="14.1360267"><ele>86.39999999999999</ele><time>2026-04-11T12:25:19.857Z</time></trkpt><trkpt lat="40.8645917" lon="14.13618"><ele>87.0</ele><time>2026-04-11T12:25:21.856Z</time></trkpt><trkpt lat="40.8645817" lon="14.136265"><ele>87.0</ele><time>2026-04-11T12:25:22.856Z</time></trkpt><trkpt lat="40.8645667" lon="14.1363467"><ele>87.0</ele><time>2026-04-11T12:25:23.861Z</time></trkpt><trkpt lat="40.8645517" lon="14.13643"><ele>87.0</ele><time>2026-04-11T12:25:24.856Z</time></trkpt><trkpt lat="40.8645317" lon="14.136515"><ele>87.0</ele><time>2026-04-11T12:25:25.855Z</time></trkpt><trkpt lat="40.8645067" lon="14.1365967"><ele>87.0</ele><time>2026-04-11T12:25:26.856Z</time></trkpt><trkpt lat="40.8644783" lon="14.1366817"><ele>87.0</ele><time>2026-04-11T12:25:27.856Z</time></trkpt><trkpt lat="40.8644517" lon="14.1367617"><ele>87.0</ele><time>2026-04-11T12:25:28.857Z</time></trkpt><trkpt lat="40.8644183" lon="14.1368367"><ele>87.83333333333333</ele><time>2026-04-11T12:25:29.856Z</time></trkpt><trkpt lat="40.864355" lon="14.13698"><ele>88.66666666666667</ele><time>2026-04-11T12:25:31.857Z</time></trkpt><trkpt lat="40.8643183" lon="14.1370583"><ele>89.5</ele><time>2026-04-11T12:25:32.859Z</time></trkpt><trkpt lat="40.864285" lon="14.13713"><ele>90.33333333333334</ele><time>2026-04-11T12:25:33.855Z</time></trkpt><trkpt lat="40.8642483" lon="14.1372017"><ele>91.16666666666667</ele><time>2026-04-11T12:25:34.856Z</time></trkpt><trkpt lat="40.8642117" lon="14.137275"><ele>92.0</ele><time>2026-04-11T12:25:35.857Z</time></trkpt><trkpt lat="40.8641683" lon="14.137355"><ele>93.8</ele><time>2026-04-11T12:25:36.857Z</time></trkpt><trkpt lat="40.86413" lon="14.1374333"><ele>95.6</ele><time>2026-04-11T12:25:37.857Z</time></trkpt><trkpt lat="40.864095" lon="14.137505"><ele>97.39999999999999</ele><time>2026-04-11T12:25:38.856Z</time></trkpt><trkpt lat="40.864025" lon="14.1376417"><ele>99.19999999999999</ele><time>2026-04-11T12:25:40.855Z</time></trkpt><trkpt lat="40.86396" lon="14.1377833"><ele>101.0</ele><time>2026-04-11T12:25:42.857Z</time></trkpt><trkpt lat="40.8639033" lon="14.1379133"><ele>100.99999999999999</ele><time>2026-04-11T12:25:44.857Z</time></trkpt><trkpt lat="40.8638283" lon="14.1380283"><ele>101.0</ele><time>2026-04-11T12:25:46.855Z</time></trkpt><trkpt lat="40.863795" lon="14.138105"><ele>101.0</ele><time>2026-04-11T12:25:47.857Z</time></trkpt><trkpt lat="40.8637617" lon="14.13819"><ele>101.0</ele><time>2026-04-11T12:25:48.857Z</time></trkpt><trkpt lat="40.86372" lon="14.1382667"><ele>100.99999999999999</ele><time>2026-04-11T12:25:49.857Z</time></trkpt><trkpt lat="40.8636867" lon="14.1383433"><ele>101.0</ele><time>2026-04-11T12:25:50.857Z</time></trkpt><trkpt lat="40.8636333" lon="14.13841"><ele>101.99999999999999</ele><time>2026-04-11T12:25:51.857Z</time></trkpt><trkpt lat="40.863575" lon="14.1385617"><ele>103.0</ele><time>2026-04-11T12:25:53.857Z</time></trkpt><trkpt lat="40.86354" lon="14.1386383"><ele>104.0</ele><time>2026-04-11T12:25:54.857Z</time></trkpt><trkpt lat="40.8635117" lon="14.1387167"><ele>105.0</ele><time>2026-04-11T12:25:55.857Z</time></trkpt><trkpt lat="40.863495" lon="14.1388"><ele>105.99999999999999</ele><time>2026-04-11T12:25:56.856Z</time></trkpt><trkpt lat="40.8634583" lon="14.13891"><ele>107.0</ele><time>2026-04-11T12:25:57.857Z</time></trkpt><trkpt lat="40.8634067" lon="14.1390667"><ele>107.00000000000001</ele><time>2026-04-11T12:25:59.857Z</time></trkpt><trkpt lat="40.8633867" lon="14.13915"><ele>107.0</ele><time>2026-04-11T12:26:00.857Z</time></trkpt><trkpt lat="40.8633717" lon="14.1392517"><ele>107.0</ele><time>2026-04-11T12:26:01.855Z</time></trkpt><trkpt lat="40.8633467" lon="14.1393367"><ele>107.0</ele><time>2026-04-11T12:26:02.856Z</time></trkpt><trkpt lat="40.86333" lon="14.1394367"><ele>107.0</ele><time>2026-04-11T12:26:03.857Z</time></trkpt><trkpt lat="40.863305" lon="14.1395333"><ele>107.00000000000001</ele><time>2026-04-11T12:26:04.857Z</time></trkpt><trkpt lat="40.8632783" lon="14.139625"><ele>107.0</ele><time>2026-04-11T12:26:05.857Z</time></trkpt><trkpt lat="40.86325" lon="14.1397183"><ele>106.99999999999999</ele><time>2026-04-11T12:26:06.857Z</time></trkpt><trkpt lat="40.8632167" lon="14.1398067"><ele>107.0</ele><time>2026-04-11T12:26:07.857Z</time></trkpt><trkpt lat="40.8631867" lon="14.139905"><ele>107.0</ele><time>2026-04-11T12:26:08.857Z</time></trkpt><trkpt lat="40.8631517" lon="14.14"><ele>107.0</ele><time>2026-04-11T12:26:09.857Z</time></trkpt><trkpt lat="40.863115" lon="14.1401"><ele>106.99999999999999</ele><time>2026-04-11T12:26:10.856Z</time></trkpt><trkpt lat="40.86308" lon="14.1401933"><ele>107.0</ele><time>2026-04-11T12:26:11.856Z</time></trkpt><trkpt lat="40.8630383" lon="14.1402917"><ele>106.8</ele><time>2026-04-11T12:26:12.857Z</time></trkpt><trkpt lat="40.8629883" lon="14.14039"><ele>106.6</ele><time>2026-04-11T12:26:13.857Z</time></trkpt><trkpt lat="40.8629333" lon="14.140485"><ele>106.39999999999999</ele><time>2026-04-11T12:26:14.857Z</time></trkpt><trkpt lat="40.862875" lon="14.1405817"><ele>106.19999999999999</ele><time>2026-04-11T12:26:15.857Z</time></trkpt><trkpt lat="40.862815" lon="14.1406833"><ele>106.0</ele><time>2026-04-11T12:26:16.858Z</time></trkpt><trkpt lat="40.862755" lon="14.1407867"><ele>105.0</ele><time>2026-04-11T12:26:17.857Z</time></trkpt><trkpt lat="40.8626967" lon="14.1408967"><ele>104.0</ele><time>2026-04-11T12:26:18.857Z</time></trkpt><trkpt lat="40.862635" lon="14.1410067"><ele>103.0</ele><time>2026-04-11T12:26:19.858Z</time></trkpt><trkpt lat="40.8625733" lon="14.1411183"><ele>102.0</ele><time>2026-04-11T12:26:20.857Z</time></trkpt><trkpt lat="40.86251" lon="14.1412283"><ele>101.0</ele><time>2026-04-11T12:26:21.856Z</time></trkpt><trkpt lat="40.86244" lon="14.1413383"><ele>100.8</ele><time>2026-04-11T12:26:22.858Z</time></trkpt><trkpt lat="40.8623733" lon="14.1414483"><ele>100.6</ele><time>2026-04-11T12:26:23.856Z</time></trkpt><trkpt lat="40.8623083" lon="14.14156"><ele>100.4</ele><time>2026-04-11T12:26:24.857Z</time></trkpt><trkpt lat="40.8622467" lon="14.1416617"><ele>100.2</ele><time>2026-04-11T12:26:25.857Z</time></trkpt><trkpt lat="40.8621867" lon="14.1417683"><ele>100.0</ele><time>2026-04-11T12:26:26.857Z</time></trkpt><trkpt lat="40.8621183" lon="14.14187"><ele>99.83333333333334</ele><time>2026-04-11T12:26:27.856Z</time></trkpt><trkpt lat="40.8620417" lon="14.141955"><ele>99.66666666666667</ele><time>2026-04-11T12:26:28.858Z</time></trkpt><trkpt lat="40.861965" lon="14.14203"><ele>99.5</ele><time>2026-04-11T12:26:29.861Z</time></trkpt><trkpt lat="40.86189" lon="14.1420933"><ele>99.33333333333334</ele><time>2026-04-11T12:26:30.857Z</time></trkpt><trkpt lat="40.8618167" lon="14.14214"><ele>99.16666666666667</ele><time>2026-04-11T12:26:31.857Z</time></trkpt><trkpt lat="40.8617383" lon="14.1421783"><ele>99.0</ele><time>2026-04-11T12:26:32.858Z</time></trkpt><trkpt lat="40.86166" lon="14.1422033"><ele>99.0</ele><time>2026-04-11T12:26:33.857Z</time></trkpt><trkpt lat="40.8615783" lon="14.142215"><ele>99.0</ele><time>2026-04-11T12:26:34.857Z</time></trkpt><trkpt lat="40.8614967" lon="14.14222"><ele>99.0</ele><time>2026-04-11T12:26:35.857Z</time></trkpt><trkpt lat="40.8614183" lon="14.1422167"><ele>99.0</ele><time>2026-04-11T12:26:36.856Z</time></trkpt><trkpt lat="40.8613467" lon="14.1422083"><ele>99.0</ele><time>2026-04-11T12:26:37.857Z</time></trkpt><trkpt lat="40.8612767" lon="14.1421933"><ele>99.0</ele><time>2026-04-11T12:26:38.855Z</time></trkpt><trkpt lat="40.861205" lon="14.14218"><ele>99.0</ele><time>2026-04-11T12:26:39.857Z</time></trkpt><trkpt lat="40.8611333" lon="14.1421683"><ele>99.0</ele><time>2026-04-11T12:26:40.857Z</time></trkpt><trkpt lat="40.8610683" lon="14.14216"><ele>99.0</ele><time>2026-04-11T12:26:41.857Z</time></trkpt><trkpt lat="40.8609367" lon="14.142135"><ele>99.0</ele><time>2026-04-11T12:26:43.857Z</time></trkpt><trkpt lat="40.8608667" lon="14.142115"><ele>99.0</ele><time>2026-04-11T12:26:44.856Z</time></trkpt><trkpt lat="40.8608017" lon="14.1421033"><ele>99.0</ele><time>2026-04-11T12:26:45.857Z</time></trkpt><trkpt lat="40.8606767" lon="14.1420783"><ele>100.0</ele><time>2026-04-11T12:26:47.857Z</time></trkpt><trkpt lat="40.8606083" lon="14.1420633"><ele>101.0</ele><time>2026-04-11T12:26:48.856Z</time></trkpt><trkpt lat="40.8604817" lon="14.1420333"><ele>102.0</ele><time>2026-04-11T12:26:50.857Z</time></trkpt><trkpt lat="40.8603517" lon="14.1420033"><ele>103.0</ele><time>2026-04-11T12:26:52.856Z</time></trkpt><trkpt lat="40.860225" lon="14.1419617"><ele>103.00000000000001</ele><time>2026-04-11T12:26:54.856Z</time></trkpt><trkpt lat="40.8601533" lon="14.1419383"><ele>103.0</ele><time>2026-04-11T12:26:55.857Z</time></trkpt><trkpt lat="40.8600767" lon="14.1419167"><ele>103.0</ele><time>2026-04-11T12:26:56.857Z</time></trkpt><trkpt lat="40.8600017" lon="14.1418967"><ele>103.0</ele><time>2026-04-11T12:26:57.856Z</time></trkpt><trkpt lat="40.859925" lon="14.1418817"><ele>103.00000000000001</ele><time>2026-04-11T12:26:58.857Z</time></trkpt><trkpt lat="40.8598483" lon="14.1418633"><ele>103.0</ele><time>2026-04-11T12:26:59.857Z</time></trkpt><trkpt lat="40.8597717" lon="14.1418467"><ele>103.50000000000001</ele><time>2026-04-11T12:27:00.856Z</time></trkpt><trkpt lat="40.859695" lon="14.141835"><ele>104.0</ele><time>2026-04-11T12:27:01.857Z</time></trkpt><trkpt lat="40.8596183" lon="14.1418317"><ele>104.5</ele><time>2026-04-11T12:27:02.857Z</time></trkpt><trkpt lat="40.8595467" lon="14.14182"><ele>105.0</ele><time>2026-04-11T12:27:03.856Z</time></trkpt><trkpt lat="40.85947" lon="14.1418183"><ele>105.50000000000001</ele><time>2026-04-11T12:27:04.857Z</time></trkpt><trkpt lat="40.859395" lon="14.1418183"><ele>106.0</ele><time>2026-04-11T12:27:05.857Z</time></trkpt><trkpt lat="40.8593133" lon="14.1418283"><ele>106.33333333333334</ele><time>2026-04-11T12:27:06.858Z</time></trkpt><trkpt lat="40.8592417" lon="14.1418533"><ele>106.66666666666667</ele><time>2026-04-11T12:27:07.857Z</time></trkpt><trkpt lat="40.85917" lon="14.1418933"><ele>107.0</ele><time>2026-04-11T12:27:08.857Z</time></trkpt><trkpt lat="40.8591" lon="14.141935"><ele>107.33333333333334</ele><time>2026-04-11T12:27:09.857Z</time></trkpt><trkpt lat="40.8590233" lon="14.14198"><ele>107.66666666666667</ele><time>2026-04-11T12:27:10.857Z</time></trkpt><trkpt lat="40.8589483" lon="14.1420317"><ele>108.0</ele><time>2026-04-11T12:27:11.857Z</time></trkpt><trkpt lat="40.8588667" lon="14.14209"><ele>108.0</ele><time>2026-04-11T12:27:12.857Z</time></trkpt><trkpt lat="40.8587783" lon="14.142155"><ele>108.00000000000001</ele><time>2026-04-11T12:27:13.856Z</time></trkpt><trkpt lat="40.8586967" lon="14.1422067"><ele>108.00000000000001</ele><time>2026-04-11T12:27:14.858Z</time></trkpt><trkpt lat="40.858615" lon="14.1422683"><ele>108.0</ele><time>2026-04-11T12:27:15.856Z</time></trkpt><trkpt lat="40.8585267" lon="14.1423283"><ele>108.0</ele><time>2026-04-11T12:27:16.859Z</time></trkpt><trkpt lat="40.8584517" lon="14.142385"><ele>107.83333333333333</ele><time>2026-04-11T12:27:17.857Z</time></trkpt><trkpt lat="40.8583733" lon="14.1424383"><ele>107.66666666666666</ele><time>2026-04-11T12:27:18.857Z</time></trkpt><trkpt lat="40.8582983" lon="14.1424883"><ele>107.5</ele><time>2026-04-11T12:27:19.857Z</time></trkpt><trkpt lat="40.8582217" lon="14.1425483"><ele>107.33333333333333</ele><time>2026-04-11T12:27:20.858Z</time></trkpt><trkpt lat="40.8581433" lon="14.1426017"><ele>107.16666666666666</ele><time>2026-04-11T12:27:21.856Z</time></trkpt><trkpt lat="40.8580633" lon="14.14266"><ele>107.0</ele><time>2026-04-11T12:27:22.864Z</time></trkpt><trkpt lat="40.8579833" lon="14.142715"><ele>107.0</ele><time>2026-04-11T12:27:23.857Z</time></trkpt><trkpt lat="40.8579017" lon="14.1427717"><ele>106.99999999999999</ele><time>2026-04-11T12:27:24.857Z</time></trkpt><trkpt lat="40.8578167" lon="14.1428233"><ele>106.99999999999999</ele><time>2026-04-11T12:27:25.859Z</time></trkpt><trkpt lat="40.8577367" lon="14.14288"><ele>107.0</ele><time>2026-04-11T12:27:26.857Z</time></trkpt><trkpt lat="40.8576583" lon="14.1429367"><ele>107.0</ele><time>2026-04-11T12:27:27.857Z</time></trkpt><trkpt lat="40.8575817" lon="14.142995"><ele>107.8</ele><time>2026-04-11T12:27:28.856Z</time></trkpt><trkpt lat="40.8575033" lon="14.1430583"><ele>108.6</ele><time>2026-04-11T12:27:29.857Z</time></trkpt><trkpt lat="40.8574217" lon="14.1431183"><ele>109.39999999999999</ele><time>2026-04-11T12:27:30.857Z</time></trkpt><trkpt lat="40.8573383" lon="14.14318"><ele>110.19999999999999</ele><time>2026-04-11T12:27:31.857Z</time></trkpt><trkpt lat="40.8572583" lon="14.14324"><ele>111.0</ele><time>2026-04-11T12:27:32.857Z</time></trkpt><trkpt lat="40.85718" lon="14.143295"><ele>111.0</ele><time>2026-04-11T12:27:33.857Z</time></trkpt><trkpt lat="40.8571" lon="14.1433417"><ele>111.0</ele><time>2026-04-11T12:27:34.859Z</time></trkpt><trkpt lat="40.857025" lon="14.14339"><ele>111.0</ele><time>2026-04-11T12:27:35.858Z</time></trkpt><trkpt lat="40.85695" lon="14.1434333"><ele>111.0</ele><time>2026-04-11T12:27:36.857Z</time></trkpt><trkpt lat="40.8568833" lon="14.1434767"><ele>111.0</ele><time>2026-04-11T12:27:37.857Z</time></trkpt><trkpt lat="40.8568117" lon="14.14353"><ele>111.0</ele><time>2026-04-11T12:27:38.857Z</time></trkpt><trkpt lat="40.85674" lon="14.1435817"><ele>111.66666666666667</ele><time>2026-04-11T12:27:39.858Z</time></trkpt><trkpt lat="40.85667" lon="14.1436283"><ele>112.33333333333334</ele><time>2026-04-11T12:27:40.857Z</time></trkpt><trkpt lat="40.8566017" lon="14.1436783"><ele>113.0</ele><time>2026-04-11T12:27:41.857Z</time></trkpt><trkpt lat="40.85653" lon="14.143735"><ele>113.66666666666667</ele><time>2026-04-11T12:27:42.856Z</time></trkpt><trkpt lat="40.856465" lon="14.1438033"><ele>114.33333333333334</ele><time>2026-04-11T12:27:43.857Z</time></trkpt><trkpt lat="40.8564167" lon="14.14389"><ele>115.0</ele><time>2026-04-11T12:27:44.859Z</time></trkpt><trkpt lat="40.856385" lon="14.1439833"><ele>114.50000000000001</ele><time>2026-04-11T12:27:45.856Z</time></trkpt><trkpt lat="40.85637" lon="14.1440917"><ele>114.0</ele><time>2026-04-11T12:27:46.857Z</time></trkpt><trkpt lat="40.8563717" lon="14.1442"><ele>113.5</ele><time>2026-04-11T12:27:47.856Z</time></trkpt><trkpt lat="40.856385" lon="14.1443133"><ele>113.0</ele><time>2026-04-11T12:27:48.858Z</time></trkpt><trkpt lat="40.8563933" lon="14.1444283"><ele>112.50000000000001</ele><time>2026-04-11T12:27:49.856Z</time></trkpt><trkpt lat="40.856415" lon="14.1445517"><ele>112.0</ele><time>2026-04-11T12:27:50.856Z</time></trkpt><trkpt lat="40.85643" lon="14.1446717"><ele>112.00000000000001</ele><time>2026-04-11T12:27:51.854Z</time></trkpt><trkpt lat="40.8564367" lon="14.1447917"><ele>112.0</ele><time>2026-04-11T12:27:52.856Z</time></trkpt><trkpt lat="40.856445" lon="14.144905"><ele>112.0</ele><time>2026-04-11T12:27:53.856Z</time></trkpt><trkpt lat="40.8564583" lon="14.14502"><ele>112.0</ele><time>2026-04-11T12:27:54.856Z</time></trkpt><trkpt lat="40.85647" lon="14.1451333"><ele>112.00000000000001</ele><time>2026-04-11T12:27:55.856Z</time></trkpt><trkpt lat="40.8564817" lon="14.145245"><ele>112.0</ele><time>2026-04-11T12:27:56.857Z</time></trkpt><trkpt lat="40.85649" lon="14.14535"><ele>111.83333333333334</ele><time>2026-04-11T12:27:57.856Z</time></trkpt><trkpt lat="40.8564917" lon="14.1454517"><ele>111.66666666666667</ele><time>2026-04-11T12:27:58.857Z</time></trkpt><trkpt lat="40.8564967" lon="14.14555"><ele>111.5</ele><time>2026-04-11T12:27:59.856Z</time></trkpt><trkpt lat="40.8565" lon="14.1456433"><ele>111.33333333333334</ele><time>2026-04-11T12:28:00.856Z</time></trkpt><trkpt lat="40.8565067" lon="14.1457283"><ele>111.16666666666667</ele><time>2026-04-11T12:28:01.856Z</time></trkpt><trkpt lat="40.8565033" lon="14.145895"><ele>111.0</ele><time>2026-04-11T12:28:03.856Z</time></trkpt><trkpt lat="40.85649" lon="14.146055"><ele>111.5</ele><time>2026-04-11T12:28:05.857Z</time></trkpt><trkpt lat="40.85646" lon="14.1462133"><ele>112.0</ele><time>2026-04-11T12:28:07.855Z</time></trkpt><trkpt lat="40.8564267" lon="14.1463667"><ele>112.5</ele><time>2026-04-11T12:28:09.856Z</time></trkpt><trkpt lat="40.8563717" lon="14.1465017"><ele>113.0</ele><time>2026-04-11T12:28:11.857Z</time></trkpt><trkpt lat="40.8563133" lon="14.146625"><ele>113.66666666666666</ele><time>2026-04-11T12:28:13.855Z</time></trkpt><trkpt lat="40.8562633" lon="14.1467317"><ele>114.33333333333333</ele><time>2026-04-11T12:28:15.855Z</time></trkpt><trkpt lat="40.8562133" lon="14.14683"><ele>115.0</ele><time>2026-04-11T12:28:17.855Z</time></trkpt><trkpt lat="40.8561667" lon="14.1469217"><ele>115.66666666666666</ele><time>2026-04-11T12:28:19.859Z</time></trkpt><trkpt lat="40.8561117" lon="14.147"><ele>116.33333333333333</ele><time>2026-04-11T12:28:21.858Z</time></trkpt><trkpt lat="40.8560583" lon="14.1470767"><ele>117.0</ele><time>2026-04-11T12:28:23.859Z</time></trkpt><trkpt lat="40.8560033" lon="14.1471517"><ele>118.16666666666667</ele><time>2026-04-11T12:28:25.856Z</time></trkpt><trkpt lat="40.855945" lon="14.147215"><ele>119.33333333333334</ele><time>2026-04-11T12:28:27.857Z</time></trkpt><trkpt lat="40.8558833" lon="14.1472633"><ele>120.5</ele><time>2026-04-11T12:28:29.857Z</time></trkpt><trkpt lat="40.8558333" lon="14.1473167"><ele>121.66666666666667</ele><time>2026-04-11T12:28:31.857Z</time></trkpt><trkpt lat="40.855765" lon="14.147395"><ele>122.83333333333334</ele><time>2026-04-11T12:28:34.855Z</time></trkpt><trkpt lat="40.85571" lon="14.1474867"><ele>124.0</ele><time>2026-04-11T12:28:37.856Z</time></trkpt><trkpt lat="40.8556617" lon="14.1475533"><ele>124.14285714285715</ele><time>2026-04-11T12:28:39.857Z</time></trkpt><trkpt lat="40.85561" lon="14.1476183"><ele>124.2857142857143</ele><time>2026-04-11T12:28:41.857Z</time></trkpt><trkpt lat="40.8555633" lon="14.1476783"><ele>124.42857142857143</ele><time>2026-04-11T12:28:43.857Z</time></trkpt><trkpt lat="40.8554933" lon="14.1477617"><ele>124.57142857142858</ele><time>2026-04-11T12:28:46.858Z</time></trkpt><trkpt lat="40.8554533" lon="14.14783"><ele>124.71428571428572</ele><time>2026-04-11T12:28:48.858Z</time></trkpt><trkpt lat="40.8554083" lon="14.14789"><ele>124.85714285714286</ele><time>2026-04-11T12:28:50.856Z</time></trkpt><trkpt lat="40.85535" lon="14.1479683"><ele>125.0</ele><time>2026-04-11T12:28:53.856Z</time></trkpt><trkpt lat="40.85528" lon="14.1480567"><ele>124.99999999999999</ele><time>2026-04-11T12:28:56.856Z</time></trkpt><trkpt lat="40.8552033" lon="14.148135"><ele>125.0</ele><time>2026-04-11T12:28:58.857Z</time></trkpt><trkpt lat="40.8551583" lon="14.148225"><ele>125.0</ele><time>2026-04-11T12:29:00.855Z</time></trkpt><trkpt lat="40.8551367" lon="14.1483317"><ele>125.0</ele><time>2026-04-11T12:29:02.858Z</time></trkpt><trkpt lat="40.85511" lon="14.1484367"><ele>124.99999999999999</ele><time>2026-04-11T12:29:04.856Z</time></trkpt><trkpt lat="40.85511" lon="14.14855"><ele>125.0</ele><time>2026-04-11T12:29:06.858Z</time></trkpt><trkpt lat="40.855125" lon="14.1486567"><ele>125.33333333333333</ele><time>2026-04-11T12:29:08.857Z</time></trkpt><trkpt lat="40.8551383" lon="14.148755"><ele>125.66666666666666</ele><time>2026-04-11T12:29:10.856Z</time></trkpt><trkpt lat="40.8551433" lon="14.1488517"><ele>126.0</ele><time>2026-04-11T12:29:12.856Z</time></trkpt><trkpt lat="40.8551517" lon="14.1489783"><ele>126.33333333333334</ele><time>2026-04-11T12:29:15.858Z</time></trkpt><trkpt lat="40.85517" lon="14.149095"><ele>126.66666666666667</ele><time>2026-04-11T12:29:18.856Z</time></trkpt><trkpt lat="40.8551733" lon="14.1491817"><ele>127.0</ele><time>2026-04-11T12:29:20.856Z</time></trkpt><trkpt lat="40.8551767" lon="14.1492717"><ele>127.57142857142858</ele><time>2026-04-11T12:29:22.856Z</time></trkpt><trkpt lat="40.855185" lon="14.1493633"><ele>128.14285714285714</ele><time>2026-04-11T12:29:24.856Z</time></trkpt><trkpt lat="40.8551967" lon="14.1494533"><ele>128.71428571428572</ele><time>2026-04-11T12:29:26.856Z</time></trkpt><trkpt lat="40.855205" lon="14.14954"><ele>129.28571428571428</ele><time>2026-04-11T12:29:28.857Z</time></trkpt><trkpt lat="40.855215" lon="14.1496283"><ele>129.85714285714286</ele><time>2026-04-11T12:29:30.857Z</time></trkpt><trkpt lat="40.855215" lon="14.1497167"><ele>130.42857142857144</ele><time>2026-04-11T12:29:32.855Z</time></trkpt><trkpt lat="40.8552217" lon="14.1498033"><ele>131.0</ele><time>2026-04-11T12:29:34.855Z</time></trkpt><trkpt lat="40.85523" lon="14.1498883"><ele>131.0</ele><time>2026-04-11T12:29:36.856Z</time></trkpt><trkpt lat="40.85524" lon="14.1499717"><ele>131.0</ele><time>2026-04-11T12:29:38.857Z</time></trkpt><trkpt lat="40.8552633" lon="14.15006"><ele>131.0</ele><time>2026-04-11T12:29:40.857Z</time></trkpt><trkpt lat="40.8552783" lon="14.1501483"><ele>131.0</ele><time>2026-04-11T12:29:42.856Z</time></trkpt><trkpt lat="40.85528" lon="14.1502633"><ele>131.0</ele><time>2026-04-11T12:29:45.856Z</time></trkpt><trkpt lat="40.8552817" lon="14.1503517"><ele>131.0</ele><time>2026-04-11T12:29:47.856Z</time></trkpt><trkpt lat="40.855285" lon="14.1504517"><ele>131.0</ele><time>2026-04-11T12:29:49.856Z</time></trkpt><trkpt lat="40.855295" lon="14.15054"><ele>131.0</ele><time>2026-04-11T12:29:51.857Z</time></trkpt><trkpt lat="40.855315" lon="14.15066"><ele>131.0</ele><time>2026-04-11T12:29:54.856Z</time></trkpt><trkpt lat="40.85532" lon="14.1507783"><ele>131.0</ele><time>2026-04-11T12:29:57.856Z</time></trkpt><trkpt lat="40.8553133" lon="14.1508617"><ele>131.0</ele><time>2026-04-11T12:29:59.855Z</time></trkpt><trkpt lat="40.8552917" lon="14.1509533"><ele>131.0</ele><time>2026-04-11T12:30:01.856Z</time></trkpt><trkpt lat="40.8552667" lon="14.1510433"><ele>131.0</ele><time>2026-04-11T12:30:03.856Z</time></trkpt><trkpt lat="40.8552417" lon="14.15116"><ele>131.57142857142858</ele><time>2026-04-11T12:30:05.858Z</time></trkpt><trkpt lat="40.8552133" lon="14.1512433"><ele>132.14285714285717</ele><time>2026-04-11T12:30:07.858Z</time></trkpt><trkpt lat="40.8551883" lon="14.1513383"><ele>132.71428571428572</ele><time>2026-04-11T12:30:09.856Z</time></trkpt><trkpt lat="40.855165" lon="14.15143"><ele>133.28571428571428</ele><time>2026-04-11T12:30:11.857Z</time></trkpt><trkpt lat="40.8551467" lon="14.1515133"><ele>133.85714285714283</ele><time>2026-04-11T12:30:13.856Z</time></trkpt><trkpt lat="40.8551233" lon="14.1516083"><ele>134.42857142857142</ele><time>2026-04-11T12:30:15.857Z</time></trkpt><trkpt lat="40.8551" lon="14.1517067"><ele>135.0</ele><time>2026-04-11T12:30:17.857Z</time></trkpt><trkpt lat="40.85508" lon="14.1518"><ele>136.66666666666666</ele><time>2026-04-11T12:30:19.856Z</time></trkpt><trkpt lat="40.8550533" lon="14.151895"><ele>138.33333333333334</ele><time>2026-04-11T12:30:21.858Z</time></trkpt><trkpt lat="40.855015" lon="14.1520083"><ele>140.0</ele><time>2026-04-11T12:30:24.856Z</time></trkpt><trkpt lat="40.85499" lon="14.1520933"><ele>141.66666666666669</ele><time>2026-04-11T12:30:26.856Z</time></trkpt><trkpt lat="40.854945" lon="14.1521967"><ele>143.33333333333334</ele><time>2026-04-11T12:30:29.856Z</time></trkpt><trkpt lat="40.8549133" lon="14.1522833"><ele>145.0</ele><time>2026-04-11T12:30:31.856Z</time></trkpt><trkpt lat="40.854895" lon="14.1523633"><ele>145.42857142857144</ele><time>2026-04-11T12:30:33.857Z</time></trkpt><trkpt lat="40.8548767" lon="14.1524517"><ele>145.85714285714286</ele><time>2026-04-11T12:30:35.856Z</time></trkpt><trkpt lat="40.8548533" lon="14.15254"><ele>146.28571428571428</ele><time>2026-04-11T12:30:37.857Z</time></trkpt><trkpt lat="40.8548383" lon="14.152635"><ele>146.71428571428572</ele><time>2026-04-11T12:30:39.857Z</time></trkpt><trkpt lat="40.8548233" lon="14.1527267"><ele>147.14285714285714</ele><time>2026-04-11T12:30:41.857Z</time></trkpt><trkpt lat="40.854805" lon="14.1528117"><ele>147.57142857142858</ele><time>2026-04-11T12:30:43.859Z</time></trkpt><trkpt lat="40.854785" lon="14.1529267"><ele>148.0</ele><time>2026-04-11T12:30:46.856Z</time></trkpt><trkpt lat="40.8547683" lon="14.1530117"><ele>148.0</ele><time>2026-04-11T12:30:48.859Z</time></trkpt><trkpt lat="40.8547533" lon="14.153095"><ele>148.0</ele><time>2026-04-11T12:30:50.856Z</time></trkpt><trkpt lat="40.8547383" lon="14.1531833"><ele>148.0</ele><time>2026-04-11T12:30:52.856Z</time></trkpt><trkpt lat="40.8547233" lon="14.1532733"><ele>148.0</ele><time>2026-04-11T12:30:54.856Z</time></trkpt><trkpt lat="40.85471" lon="14.153355"><ele>148.0</ele><time>2026-04-11T12:30:56.857Z</time></trkpt><trkpt lat="40.8546883" lon="14.15348"><ele>148.0</ele><time>2026-04-11T12:30:59.857Z</time></trkpt><trkpt lat="40.8546917" lon="14.153565"><ele>148.0</ele><time>2026-04-11T12:31:01.857Z</time></trkpt><trkpt lat="40.854675" lon="14.153685"><ele>148.85714285714286</ele><time>2026-04-11T12:31:04.856Z</time></trkpt><trkpt lat="40.85465" lon="14.1537667"><ele>149.71428571428572</ele><time>2026-04-11T12:31:06.857Z</time></trkpt><trkpt lat="40.85465" lon="14.153885"><ele>150.57142857142856</ele><time>2026-04-11T12:31:09.857Z</time></trkpt><trkpt lat="40.85463" lon="14.1540033"><ele>151.42857142857144</ele><time>2026-04-11T12:31:12.857Z</time></trkpt><trkpt lat="40.85463" lon="14.1540867"><ele>152.28571428571428</ele><time>2026-04-11T12:31:14.857Z</time></trkpt><trkpt lat="40.85463" lon="14.1541733"><ele>153.14285714285714</ele><time>2026-04-11T12:31:16.857Z</time></trkpt><trkpt lat="40.8546183" lon="14.154265"><ele>154.0</ele><time>2026-04-11T12:31:18.857Z</time></trkpt><trkpt lat="40.8546117" lon="14.15436"><ele>154.57142857142858</ele><time>2026-04-11T12:31:20.856Z</time></trkpt><trkpt lat="40.8546133" lon="14.1544617"><ele>155.14285714285714</ele><time>2026-04-11T12:31:22.856Z</time></trkpt><trkpt lat="40.85461" lon="14.1545533"><ele>155.71428571428572</ele><time>2026-04-11T12:31:24.857Z</time></trkpt><trkpt lat="40.85461" lon="14.15464"><ele>156.28571428571428</ele><time>2026-04-11T12:31:26.856Z</time></trkpt><trkpt lat="40.8546117" lon="14.1547233"><ele>156.85714285714286</ele><time>2026-04-11T12:31:28.857Z</time></trkpt><trkpt lat="40.8546133" lon="14.15481"><ele>157.42857142857144</ele><time>2026-04-11T12:31:30.857Z</time></trkpt><trkpt lat="40.854625" lon="14.154895"><ele>158.0</ele><time>2026-04-11T12:31:32.857Z</time></trkpt><trkpt lat="40.85464" lon="14.15498"><ele>159.0</ele><time>2026-04-11T12:31:34.858Z</time></trkpt><trkpt lat="40.8546483" lon="14.1550667"><ele>160.0</ele><time>2026-04-11T12:31:36.856Z</time></trkpt><trkpt lat="40.85467" lon="14.155155"><ele>161.0</ele><time>2026-04-11T12:31:38.856Z</time></trkpt><trkpt lat="40.8546933" lon="14.1552417"><ele>162.0</ele><time>2026-04-11T12:31:40.856Z</time></trkpt><trkpt lat="40.8547333" lon="14.155315"><ele>163.0</ele><time>2026-04-11T12:31:42.858Z</time></trkpt><trkpt lat="40.8547967" lon="14.15541"><ele>164.0</ele><time>2026-04-11T12:31:45.858Z</time></trkpt><trkpt lat="40.85486" lon="14.15548"><ele>164.0</ele><time>2026-04-11T12:31:47.86Z</time></trkpt><trkpt lat="40.854905" lon="14.1555417"><ele>164.0</ele><time>2026-04-11T12:31:49.857Z</time></trkpt><trkpt lat="40.8549567" lon="14.1556067"><ele>164.0</ele><time>2026-04-11T12:31:51.859Z</time></trkpt><trkpt lat="40.8550167" lon="14.1556533"><ele>164.0</ele><time>2026-04-11T12:31:53.856Z</time></trkpt><trkpt lat="40.85509" lon="14.155695"><ele>164.0</ele><time>2026-04-11T12:31:55.859Z</time></trkpt><trkpt lat="40.85517" lon="14.15572"><ele>164.0</ele><time>2026-04-11T12:31:57.856Z</time></trkpt><trkpt lat="40.8552517" lon="14.1557517"><ele>165.33333333333331</ele><time>2026-04-11T12:31:59.855Z</time></trkpt><trkpt lat="40.8553367" lon="14.15579"><ele>166.66666666666666</ele><time>2026-04-11T12:32:01.858Z</time></trkpt><trkpt lat="40.8554117" lon="14.1558283"><ele>168.0</ele><time>2026-04-11T12:32:03.858Z</time></trkpt><trkpt lat="40.8554983" lon="14.15588"><ele>169.33333333333334</ele><time>2026-04-11T12:32:06.857Z</time></trkpt><trkpt lat="40.8555567" lon="14.1559217"><ele>170.66666666666669</ele><time>2026-04-11T12:32:08.857Z</time></trkpt><trkpt lat="40.85562" lon="14.15598"><ele>172.0</ele><time>2026-04-11T12:32:10.857Z</time></trkpt><trkpt lat="40.8556733" lon="14.1560383"><ele>172.00000000000003</ele><time>2026-04-11T12:32:12.858Z</time></trkpt><trkpt lat="40.8557267" lon="14.1561017"><ele>172.0</ele><time>2026-04-11T12:32:14.858Z</time></trkpt><trkpt lat="40.8557783" lon="14.1561683"><ele>172.0</ele><time>2026-04-11T12:32:16.857Z</time></trkpt><trkpt lat="40.855825" lon="14.156235"><ele>172.0</ele><time>2026-04-11T12:32:18.857Z</time></trkpt><trkpt lat="40.8558817" lon="14.1563267"><ele>172.0</ele><time>2026-04-11T12:32:21.856Z</time></trkpt><trkpt lat="40.855925" lon="14.156395"><ele>172.00000000000003</ele><time>2026-04-11T12:32:23.857Z</time></trkpt><trkpt lat="40.8559733" lon="14.1564683"><ele>172.0</ele><time>2026-04-11T12:32:25.857Z</time></trkpt><trkpt lat="40.8560233" lon="14.1565333"><ele>173.16666666666669</ele><time>2026-04-11T12:32:27.859Z</time></trkpt><trkpt lat="40.8560783" lon="14.1566267"><ele>174.33333333333334</ele><time>2026-04-11T12:32:29.857Z</time></trkpt><trkpt lat="40.856125" lon="14.1567133"><ele>175.5</ele><time>2026-04-11T12:32:31.857Z</time></trkpt><trkpt lat="40.8561633" lon="14.1568017"><ele>176.66666666666666</ele><time>2026-04-11T12:32:33.856Z</time></trkpt><trkpt lat="40.8562167" lon="14.1568983"><ele>177.83333333333331</ele><time>2026-04-11T12:32:35.858Z</time></trkpt><trkpt lat="40.8562283" lon="14.1570083"><ele>179.0</ele><time>2026-04-11T12:32:37.857Z</time></trkpt><trkpt lat="40.8562033" lon="14.15712"><ele>179.0</ele><time>2026-04-11T12:32:39.856Z</time></trkpt><trkpt lat="40.8561817" lon="14.1572367"><ele>179.0</ele><time>2026-04-11T12:32:41.859Z</time></trkpt><trkpt lat="40.856155" lon="14.1573567"><ele>179.0</ele><time>2026-04-11T12:32:43.857Z</time></trkpt><trkpt lat="40.8561217" lon="14.1574767"><ele>179.0</ele><time>2026-04-11T12:32:45.857Z</time></trkpt><trkpt lat="40.856085" lon="14.15759"><ele>179.0</ele><time>2026-04-11T12:32:47.857Z</time></trkpt><trkpt lat="40.8560417" lon="14.1577017"><ele>179.0</ele><time>2026-04-11T12:32:49.857Z</time></trkpt><trkpt lat="40.855995" lon="14.15782"><ele>179.0</ele><time>2026-04-11T12:32:51.856Z</time></trkpt><trkpt lat="40.85594" lon="14.1579317"><ele>179.0</ele><time>2026-04-11T12:32:53.857Z</time></trkpt><trkpt lat="40.8559017" lon="14.158045"><ele>179.0</ele><time>2026-04-11T12:32:55.857Z</time></trkpt><trkpt lat="40.855855" lon="14.15815"><ele>179.0</ele><time>2026-04-11T12:32:57.857Z</time></trkpt><trkpt lat="40.8558167" lon="14.1582583"><ele>178.66666666666666</ele><time>2026-04-11T12:32:59.857Z</time></trkpt><trkpt lat="40.855775" lon="14.1583617"><ele>178.33333333333331</ele><time>2026-04-11T12:33:01.857Z</time></trkpt><trkpt lat="40.855735" lon="14.1584583"><ele>178.0</ele><time>2026-04-11T12:33:03.857Z</time></trkpt><trkpt lat="40.855705" lon="14.1585617"><ele>177.66666666666666</ele><time>2026-04-11T12:33:05.857Z</time></trkpt><trkpt lat="40.8556817" lon="14.1586667"><ele>177.33333333333334</ele><time>2026-04-11T12:33:07.859Z</time></trkpt><trkpt lat="40.855675" lon="14.1587817"><ele>177.0</ele><time>2026-04-11T12:33:09.857Z</time></trkpt><trkpt lat="40.8556717" lon="14.1589083"><ele>176.6</ele><time>2026-04-11T12:33:11.859Z</time></trkpt><trkpt lat="40.8557" lon="14.159035"><ele>176.2</ele><time>2026-04-11T12:33:13.857Z</time></trkpt><trkpt lat="40.8557733" lon="14.15915"><ele>175.8</ele><time>2026-04-11T12:33:15.857Z</time></trkpt><trkpt lat="40.855875" lon="14.1592"><ele>175.4</ele><time>2026-04-11T12:33:17.857Z</time></trkpt><trkpt lat="40.8559367" lon="14.1592167"><ele>175.0</ele><time>2026-04-11T12:33:18.857Z</time></trkpt><trkpt lat="40.8560017" lon="14.1592317"><ele>175.0</ele><time>2026-04-11T12:33:19.858Z</time></trkpt><trkpt lat="40.8560667" lon="14.15926"><ele>175.0</ele><time>2026-04-11T12:33:20.857Z</time></trkpt><trkpt lat="40.85613" lon="14.1592983"><ele>175.0</ele><time>2026-04-11T12:33:21.857Z</time></trkpt><trkpt lat="40.856185" lon="14.1593533"><ele>175.0</ele><time>2026-04-11T12:33:22.857Z</time></trkpt><trkpt lat="40.8562433" lon="14.1594217"><ele>175.0</ele><time>2026-04-11T12:33:23.856Z</time></trkpt><trkpt lat="40.8562933" lon="14.1595"><ele>175.0</ele><time>2026-04-11T12:33:24.857Z</time></trkpt><trkpt lat="40.856335" lon="14.1595833"><ele>175.0</ele><time>2026-04-11T12:33:25.856Z</time></trkpt><trkpt lat="40.85637" lon="14.159675"><ele>175.0</ele><time>2026-04-11T12:33:26.856Z</time></trkpt><trkpt lat="40.8564" lon="14.15977"><ele>175.0</ele><time>2026-04-11T12:33:27.857Z</time></trkpt><trkpt lat="40.8564283" lon="14.1598683"><ele>175.0</ele><time>2026-04-11T12:33:28.857Z</time></trkpt><trkpt lat="40.85646" lon="14.159975"><ele>175.0</ele><time>2026-04-11T12:33:29.857Z</time></trkpt><trkpt lat="40.8564967" lon="14.160085"><ele>175.0</ele><time>2026-04-11T12:33:30.856Z</time></trkpt><trkpt lat="40.8565317" lon="14.16019"><ele>175.0</ele><time>2026-04-11T12:33:31.857Z</time></trkpt><trkpt lat="40.85657" lon="14.1602917"><ele>174.4</ele><time>2026-04-11T12:33:32.856Z</time></trkpt><trkpt lat="40.85661" lon="14.160395"><ele>173.8</ele><time>2026-04-11T12:33:33.856Z</time></trkpt><trkpt lat="40.856655" lon="14.1605017"><ele>173.2</ele><time>2026-04-11T12:33:34.856Z</time></trkpt><trkpt lat="40.856705" lon="14.160605"><ele>172.6</ele><time>2026-04-11T12:33:35.857Z</time></trkpt><trkpt lat="40.8567583" lon="14.1607083"><ele>172.0</ele><time>2026-04-11T12:33:36.857Z</time></trkpt><trkpt lat="40.856815" lon="14.1608083"><ele>171.2</ele><time>2026-04-11T12:33:37.857Z</time></trkpt><trkpt lat="40.8568767" lon="14.1609117"><ele>170.39999999999998</ele><time>2026-04-11T12:33:38.856Z</time></trkpt><trkpt lat="40.856935" lon="14.161015"><ele>169.60000000000002</ele><time>2026-04-11T12:33:39.856Z</time></trkpt><trkpt lat="40.8569967" lon="14.1611183"><ele>168.8</ele><time>2026-04-11T12:33:40.857Z</time></trkpt><trkpt lat="40.857065" lon="14.1612267"><ele>168.0</ele><time>2026-04-11T12:33:41.857Z</time></trkpt><trkpt lat="40.8571367" lon="14.1613283"><ele>168.0</ele><time>2026-04-11T12:33:42.858Z</time></trkpt><trkpt lat="40.8572" lon="14.161425"><ele>168.0</ele><time>2026-04-11T12:33:43.857Z</time></trkpt><trkpt lat="40.8572717" lon="14.16152"><ele>168.0</ele><time>2026-04-11T12:33:44.857Z</time></trkpt><trkpt lat="40.857345" lon="14.1616033"><ele>168.0</ele><time>2026-04-11T12:33:45.857Z</time></trkpt><trkpt lat="40.8574117" lon="14.1616817"><ele>168.0</ele><time>2026-04-11T12:33:46.856Z</time></trkpt><trkpt lat="40.85748" lon="14.161765"><ele>167.66666666666666</ele><time>2026-04-11T12:33:47.857Z</time></trkpt><trkpt lat="40.857545" lon="14.16185"><ele>167.33333333333334</ele><time>2026-04-11T12:33:48.857Z</time></trkpt><trkpt lat="40.8576067" lon="14.161935"><ele>167.0</ele><time>2026-04-11T12:33:49.858Z</time></trkpt><trkpt lat="40.8576683" lon="14.1620283"><ele>166.66666666666669</ele><time>2026-04-11T12:33:50.859Z</time></trkpt><trkpt lat="40.85773" lon="14.1621017"><ele>166.33333333333334</ele><time>2026-04-11T12:33:51.857Z</time></trkpt><trkpt lat="40.857785" lon="14.162195"><ele>166.0</ele><time>2026-04-11T12:33:52.859Z</time></trkpt><trkpt lat="40.8578367" lon="14.162295"><ele>165.66666666666669</ele><time>2026-04-11T12:33:53.858Z</time></trkpt><trkpt lat="40.8578833" lon="14.1623967"><ele>165.33333333333334</ele><time>2026-04-11T12:33:54.856Z</time></trkpt><trkpt lat="40.8579267" lon="14.162505"><ele>165.0</ele><time>2026-04-11T12:33:55.857Z</time></trkpt><trkpt lat="40.8579633" lon="14.162615"><ele>164.66666666666666</ele><time>2026-04-11T12:33:56.857Z</time></trkpt><trkpt lat="40.8579967" lon="14.16272"><ele>164.33333333333331</ele><time>2026-04-11T12:33:57.856Z</time></trkpt><trkpt lat="40.8580233" lon="14.1628233"><ele>164.0</ele><time>2026-04-11T12:33:58.856Z</time></trkpt><trkpt lat="40.8580433" lon="14.162925"><ele>164.0</ele><time>2026-04-11T12:33:59.857Z</time></trkpt><trkpt lat="40.85807" lon="14.1630267"><ele>164.0</ele><time>2026-04-11T12:34:00.857Z</time></trkpt><trkpt lat="40.8581" lon="14.1631267"><ele>164.0</ele><time>2026-04-11T12:34:01.856Z</time></trkpt><trkpt lat="40.85813" lon="14.1632233"><ele>164.0</ele><time>2026-04-11T12:34:02.856Z</time></trkpt><trkpt lat="40.8581583" lon="14.1633167"><ele>164.0</ele><time>2026-04-11T12:34:03.857Z</time></trkpt><trkpt lat="40.8581883" lon="14.1634117"><ele>164.0</ele><time>2026-04-11T12:34:04.858Z</time></trkpt><trkpt lat="40.8582133" lon="14.1635083"><ele>163.83333333333331</ele><time>2026-04-11T12:34:05.857Z</time></trkpt><trkpt lat="40.85824" lon="14.163605"><ele>163.66666666666666</ele><time>2026-04-11T12:34:06.856Z</time></trkpt><trkpt lat="40.8582683" lon="14.1637"><ele>163.5</ele><time>2026-04-11T12:34:07.857Z</time></trkpt><trkpt lat="40.858295" lon="14.16379"><ele>163.33333333333334</ele><time>2026-04-11T12:34:08.857Z</time></trkpt><trkpt lat="40.8583267" lon="14.1638817"><ele>163.16666666666669</ele><time>2026-04-11T12:34:09.857Z</time></trkpt><trkpt lat="40.85836" lon="14.1639717"><ele>163.0</ele><time>2026-04-11T12:34:10.857Z</time></trkpt><trkpt lat="40.8584" lon="14.16406"><ele>162.83333333333334</ele><time>2026-04-11T12:34:11.859Z</time></trkpt><trkpt lat="40.8584383" lon="14.164145"><ele>162.66666666666669</ele><time>2026-04-11T12:34:12.857Z</time></trkpt><trkpt lat="40.8584833" lon="14.1642333"><ele>162.5</ele><time>2026-04-11T12:34:13.858Z</time></trkpt><trkpt lat="40.8585317" lon="14.16432"><ele>162.33333333333334</ele><time>2026-04-11T12:34:14.857Z</time></trkpt><trkpt lat="40.8585817" lon="14.164405"><ele>162.16666666666666</ele><time>2026-04-11T12:34:15.857Z</time></trkpt><trkpt lat="40.8586333" lon="14.1644883"><ele>162.0</ele><time>2026-04-11T12:34:16.857Z</time></trkpt><trkpt lat="40.8586833" lon="14.16457"><ele>162.0</ele><time>2026-04-11T12:34:17.857Z</time></trkpt><trkpt lat="40.858735" lon="14.164655"><ele>162.0</ele><time>2026-04-11T12:34:18.857Z</time></trkpt><trkpt lat="40.8587817" lon="14.1647467"><ele>162.0</ele><time>2026-04-11T12:34:19.856Z</time></trkpt><trkpt lat="40.8588267" lon="14.1648417"><ele>162.0</ele><time>2026-04-11T12:34:20.854Z</time></trkpt><trkpt lat="40.8588717" lon="14.1649317"><ele>162.0</ele><time>2026-04-11T12:34:21.856Z</time></trkpt><trkpt lat="40.8589183" lon="14.16502"><ele>162.0</ele><time>2026-04-11T12:34:22.855Z</time></trkpt><trkpt lat="40.85896" lon="14.1651083"><ele>161.66666666666666</ele><time>2026-04-11T12:34:23.856Z</time></trkpt><trkpt lat="40.8590033" lon="14.1652"><ele>161.33333333333334</ele><time>2026-04-11T12:34:24.855Z</time></trkpt><trkpt lat="40.85905" lon="14.1652867"><ele>161.0</ele><time>2026-04-11T12:34:25.856Z</time></trkpt><trkpt lat="40.8590933" lon="14.165365"><ele>160.66666666666669</ele><time>2026-04-11T12:34:26.856Z</time></trkpt><trkpt lat="40.8591317" lon="14.165445"><ele>160.33333333333334</ele><time>2026-04-11T12:34:27.856Z</time></trkpt><trkpt lat="40.859175" lon="14.16552"><ele>160.0</ele><time>2026-04-11T12:34:28.856Z</time></trkpt><trkpt lat="40.8592267" lon="14.165595"><ele>160.0</ele><time>2026-04-11T12:34:29.857Z</time></trkpt><trkpt lat="40.85927" lon="14.165675"><ele>160.0</ele><time>2026-04-11T12:34:30.856Z</time></trkpt><trkpt lat="40.8593083" lon="14.1657583"><ele>160.0</ele><time>2026-04-11T12:34:31.857Z</time></trkpt><trkpt lat="40.8593483" lon="14.16584"><ele>160.0</ele><time>2026-04-11T12:34:32.856Z</time></trkpt><trkpt lat="40.85939" lon="14.16592"><ele>160.0</ele><time>2026-04-11T12:34:33.856Z</time></trkpt><trkpt lat="40.859435" lon="14.1659967"><ele>160.0</ele><time>2026-04-11T12:34:34.856Z</time></trkpt><trkpt lat="40.859475" lon="14.166075"><ele>160.0</ele><time>2026-04-11T12:34:35.856Z</time></trkpt><trkpt lat="40.8595133" lon="14.1661567"><ele>160.0</ele><time>2026-04-11T12:34:36.856Z</time></trkpt><trkpt lat="40.8595533" lon="14.16624"><ele>160.0</ele><time>2026-04-11T12:34:37.857Z</time></trkpt><trkpt lat="40.85959" lon="14.1663233"><ele>160.0</ele><time>2026-04-11T12:34:38.856Z</time></trkpt><trkpt lat="40.8596333" lon="14.1664033"><ele>160.0</ele><time>2026-04-11T12:34:39.856Z</time></trkpt><trkpt lat="40.859675" lon="14.16648"><ele>160.0</ele><time>2026-04-11T12:34:40.856Z</time></trkpt><trkpt lat="40.859715" lon="14.1665567"><ele>160.0</ele><time>2026-04-11T12:34:41.856Z</time></trkpt><trkpt lat="40.8597567" lon="14.166635"><ele>160.0</ele><time>2026-04-11T12:34:42.858Z</time></trkpt><trkpt lat="40.8597967" lon="14.1667167"><ele>160.0</ele><time>2026-04-11T12:34:43.857Z</time></trkpt><trkpt lat="40.8598367" lon="14.1667933"><ele>160.0</ele><time>2026-04-11T12:34:44.856Z</time></trkpt><trkpt lat="40.8598767" lon="14.1668683"><ele>160.0</ele><time>2026-04-11T12:34:45.856Z</time></trkpt><trkpt lat="40.859915" lon="14.1669433"><ele>160.0</ele><time>2026-04-11T12:34:46.856Z</time></trkpt><trkpt lat="40.8599633" lon="14.167015"><ele>160.0</ele><time>2026-04-11T12:34:47.856Z</time></trkpt><trkpt lat="40.8600117" lon="14.1670817"><ele>160.0</ele><time>2026-04-11T12:34:48.856Z</time></trkpt><trkpt lat="40.8600583" lon="14.1671433"><ele>160.0</ele><time>2026-04-11T12:34:49.856Z</time></trkpt><trkpt lat="40.8601117" lon="14.167205"><ele>160.16666666666669</ele><time>2026-04-11T12:34:50.857Z</time></trkpt><trkpt lat="40.86018" lon="14.167245"><ele>160.33333333333334</ele><time>2026-04-11T12:34:51.855Z</time></trkpt><trkpt lat="40.860255" lon="14.1672767"><ele>160.5</ele><time>2026-04-11T12:34:52.856Z</time></trkpt><trkpt lat="40.860325" lon="14.1673117"><ele>160.66666666666666</ele><time>2026-04-11T12:34:53.857Z</time></trkpt><trkpt lat="40.860395" lon="14.1673333"><ele>160.83333333333331</ele><time>2026-04-11T12:34:54.856Z</time></trkpt><trkpt lat="40.860475" lon="14.1673483"><ele>161.0</ele><time>2026-04-11T12:34:55.859Z</time></trkpt><trkpt lat="40.86055" lon="14.1673533"><ele>161.0</ele><time>2026-04-11T12:34:56.857Z</time></trkpt><trkpt lat="40.860625" lon="14.1673533"><ele>161.0</ele><time>2026-04-11T12:34:57.856Z</time></trkpt><trkpt lat="40.8606983" lon="14.1673433"><ele>161.0</ele><time>2026-04-11T12:34:58.856Z</time></trkpt><trkpt lat="40.8607733" lon="14.16733"><ele>161.0</ele><time>2026-04-11T12:34:59.856Z</time></trkpt><trkpt lat="40.8608467" lon="14.1673133"><ele>161.0</ele><time>2026-04-11T12:35:00.856Z</time></trkpt><trkpt lat="40.8609167" lon="14.167295"><ele>161.0</ele><time>2026-04-11T12:35:01.856Z</time></trkpt><trkpt lat="40.8609867" lon="14.1672717"><ele>161.0</ele><time>2026-04-11T12:35:02.856Z</time></trkpt><trkpt lat="40.8610567" lon="14.1672417"><ele>161.16666666666666</ele><time>2026-04-11T12:35:03.856Z</time></trkpt><trkpt lat="40.8611217" lon="14.1672183"><ele>161.33333333333331</ele><time>2026-04-11T12:35:04.857Z</time></trkpt><trkpt lat="40.861185" lon="14.16719"><ele>161.5</ele><time>2026-04-11T12:35:05.856Z</time></trkpt><trkpt lat="40.8612467" lon="14.1671633"><ele>161.66666666666666</ele><time>2026-04-11T12:35:06.856Z</time></trkpt><trkpt lat="40.86131" lon="14.1671417"><ele>161.83333333333334</ele><time>2026-04-11T12:35:07.855Z</time></trkpt><trkpt lat="40.86143" lon="14.1671017"><ele>162.0</ele><time>2026-04-11T12:35:09.855Z</time></trkpt><trkpt lat="40.8614917" lon="14.16708"><ele>162.0</ele><time>2026-04-11T12:35:10.856Z</time></trkpt><trkpt lat="40.861555" lon="14.167055"><ele>162.0</ele><time>2026-04-11T12:35:11.855Z</time></trkpt><trkpt lat="40.861625" lon="14.16705"><ele>162.0</ele><time>2026-04-11T12:35:12.856Z</time></trkpt><trkpt lat="40.8617467" lon="14.1670417"><ele>162.0</ele><time>2026-04-11T12:35:14.856Z</time></trkpt><trkpt lat="40.86181" lon="14.1670433"><ele>162.0</ele><time>2026-04-11T12:35:15.858Z</time></trkpt><trkpt lat="40.86193" lon="14.1670517"><ele>162.0</ele><time>2026-04-11T12:35:17.856Z</time></trkpt><trkpt lat="40.8620467" lon="14.1670667"><ele>162.5</ele><time>2026-04-11T12:35:19.856Z</time></trkpt><trkpt lat="40.86217" lon="14.1671033"><ele>163.0</ele><time>2026-04-11T12:35:21.856Z</time></trkpt><trkpt lat="40.8622333" lon="14.1671283"><ele>163.5</ele><time>2026-04-11T12:35:22.856Z</time></trkpt><trkpt lat="40.8622967" lon="14.1671633"><ele>164.0</ele><time>2026-04-11T12:35:23.855Z</time></trkpt><trkpt lat="40.862355" lon="14.1672"><ele>164.5</ele><time>2026-04-11T12:35:24.857Z</time></trkpt><trkpt lat="40.8624117" lon="14.16724"><ele>165.0</ele><time>2026-04-11T12:35:25.857Z</time></trkpt><trkpt lat="40.862465" lon="14.1672867"><ele>165.0</ele><time>2026-04-11T12:35:26.855Z</time></trkpt><trkpt lat="40.862515" lon="14.1673417"><ele>165.0</ele><time>2026-04-11T12:35:27.855Z</time></trkpt><trkpt lat="40.8625633" lon="14.1674017"><ele>165.0</ele><time>2026-04-11T12:35:28.857Z</time></trkpt><trkpt lat="40.8626133" lon="14.1674633"><ele>165.0</ele><time>2026-04-11T12:35:29.857Z</time></trkpt><trkpt lat="40.86266" lon="14.16753"><ele>165.0</ele><time>2026-04-11T12:35:30.856Z</time></trkpt><trkpt lat="40.8627067" lon="14.1675883"><ele>165.0</ele><time>2026-04-11T12:35:31.857Z</time></trkpt><trkpt lat="40.86279" lon="14.1677167"><ele>165.6</ele><time>2026-04-11T12:35:33.857Z</time></trkpt><trkpt lat="40.8628283" lon="14.1677883"><ele>166.2</ele><time>2026-04-11T12:35:34.857Z</time></trkpt><trkpt lat="40.8628617" lon="14.16786"><ele>166.8</ele><time>2026-04-11T12:35:35.858Z</time></trkpt><trkpt lat="40.8629317" lon="14.1679967"><ele>167.4</ele><time>2026-04-11T12:35:37.857Z</time></trkpt><trkpt lat="40.862985" lon="14.1681283"><ele>168.0</ele><time>2026-04-11T12:35:39.857Z</time></trkpt><trkpt lat="40.8630167" lon="14.16827"><ele>168.0</ele><time>2026-04-11T12:35:41.856Z</time></trkpt><trkpt lat="40.8630617" lon="14.1684133"><ele>168.0</ele><time>2026-04-11T12:35:43.858Z</time></trkpt><trkpt lat="40.8631" lon="14.1685483"><ele>168.0</ele><time>2026-04-11T12:35:45.857Z</time></trkpt><trkpt lat="40.8631433" lon="14.168685"><ele>168.0</ele><time>2026-04-11T12:35:47.856Z</time></trkpt><trkpt lat="40.86318" lon="14.1688167"><ele>168.0</ele><time>2026-04-11T12:35:49.857Z</time></trkpt><trkpt lat="40.8632117" lon="14.1689533"><ele>167.60000000000002</ele><time>2026-04-11T12:35:51.856Z</time></trkpt><trkpt lat="40.863265" lon="14.169085"><ele>167.20000000000002</ele><time>2026-04-11T12:35:53.856Z</time></trkpt><trkpt lat="40.8633133" lon="14.16922"><ele>166.8</ele><time>2026-04-11T12:35:55.856Z</time></trkpt><trkpt lat="40.8633483" lon="14.1693483"><ele>166.4</ele><time>2026-04-11T12:35:57.856Z</time></trkpt><trkpt lat="40.863395" lon="14.169465"><ele>166.0</ele><time>2026-04-11T12:35:59.856Z</time></trkpt><trkpt lat="40.8634483" lon="14.1695767"><ele>166.60000000000002</ele><time>2026-04-11T12:36:01.857Z</time></trkpt><trkpt lat="40.86351" lon="14.16969"><ele>167.2</ele><time>2026-04-11T12:36:03.856Z</time></trkpt><trkpt lat="40.8635767" lon="14.1698117"><ele>167.8</ele><time>2026-04-11T12:36:05.857Z</time></trkpt><trkpt lat="40.8636333" lon="14.169925"><ele>168.39999999999998</ele><time>2026-04-11T12:36:07.857Z</time></trkpt><trkpt lat="40.8636883" lon="14.1700433"><ele>169.0</ele><time>2026-04-11T12:36:09.856Z</time></trkpt><trkpt lat="40.8637417" lon="14.1701667"><ele>169.0</ele><time>2026-04-11T12:36:11.857Z</time></trkpt><trkpt lat="40.8637967" lon="14.1702833"><ele>169.0</ele><time>2026-04-11T12:36:13.859Z</time></trkpt><trkpt lat="40.863855" lon="14.17041"><ele>169.0</ele><time>2026-04-11T12:36:15.856Z</time></trkpt><trkpt lat="40.8639117" lon="14.17053"><ele>169.0</ele><time>2026-04-11T12:36:17.857Z</time></trkpt><trkpt lat="40.863975" lon="14.170655"><ele>169.0</ele><time>2026-04-11T12:36:19.856Z</time></trkpt><trkpt lat="40.86404" lon="14.1707817"><ele>169.0</ele><time>2026-04-11T12:36:21.857Z</time></trkpt><trkpt lat="40.8641083" lon="14.1709167"><ele>169.0</ele><time>2026-04-11T12:36:23.857Z</time></trkpt><trkpt lat="40.8641683" lon="14.17105"><ele>169.0</ele><time>2026-04-11T12:36:25.856Z</time></trkpt><trkpt lat="40.8642333" lon="14.1711783"><ele>169.0</ele><time>2026-04-11T12:36:27.856Z</time></trkpt><trkpt lat="40.8642917" lon="14.17131"><ele>169.0</ele><time>2026-04-11T12:36:29.856Z</time></trkpt><trkpt lat="40.8643483" lon="14.1714383"><ele>169.0</ele><time>2026-04-11T12:36:31.857Z</time></trkpt><trkpt lat="40.8644017" lon="14.1715583"><ele>169.0</ele><time>2026-04-11T12:36:33.856Z</time></trkpt><trkpt lat="40.864435" lon="14.1716667"><ele>169.0</ele><time>2026-04-11T12:36:35.855Z</time></trkpt><trkpt lat="40.8644717" lon="14.171745"><ele>169.0</ele><time>2026-04-11T12:36:37.856Z</time></trkpt><trkpt lat="40.8645517" lon="14.1717967"><ele>169.33333333333334</ele><time>2026-04-11T12:36:40.855Z</time></trkpt><trkpt lat="40.8645933" lon="14.1718683"><ele>169.66666666666669</ele><time>2026-04-11T12:36:43.856Z</time></trkpt><trkpt lat="40.86465" lon="14.1719683"><ele>170.0</ele><time>2026-04-11T12:36:46.857Z</time></trkpt><trkpt lat="40.8646967" lon="14.1720683"><ele>170.33333333333334</ele><time>2026-04-11T12:36:49.858Z</time></trkpt><trkpt lat="40.864755" lon="14.1721567"><ele>170.66666666666666</ele><time>2026-04-11T12:36:52.856Z</time></trkpt><trkpt lat="40.8648183" lon="14.1721367"><ele>171.0</ele><time>2026-04-11T12:36:54.855Z</time></trkpt><trkpt lat="40.8648717" lon="14.1720817"><ele>171.0</ele><time>2026-04-11T12:36:56.856Z</time></trkpt><trkpt lat="40.8649133" lon="14.1720033"><ele>171.0</ele><time>2026-04-11T12:36:58.856Z</time></trkpt><trkpt lat="40.8649517" lon="14.1719133"><ele>171.0</ele><time>2026-04-11T12:37:00.856Z</time></trkpt><trkpt lat="40.8649883" lon="14.171815"><ele>171.0</ele><time>2026-04-11T12:37:02.857Z</time></trkpt><trkpt lat="40.8650333" lon="14.1717233"><ele>171.0</ele><time>2026-04-11T12:37:04.856Z</time></trkpt><trkpt lat="40.865065" lon="14.171615"><ele>171.0</ele><time>2026-04-11T12:37:06.856Z</time></trkpt><trkpt lat="40.8650983" lon="14.1714933"><ele>172.20000000000002</ele><time>2026-04-11T12:37:08.856Z</time></trkpt><trkpt lat="40.865125" lon="14.171365"><ele>173.4</ele><time>2026-04-11T12:37:10.858Z</time></trkpt><trkpt lat="40.86515" lon="14.171235"><ele>174.6</ele><time>2026-04-11T12:37:12.856Z</time></trkpt><trkpt lat="40.86518" lon="14.1711033"><ele>175.8</ele><time>2026-04-11T12:37:14.858Z</time></trkpt><trkpt lat="40.86521" lon="14.170975"><ele>177.0</ele><time>2026-04-11T12:37:16.856Z</time></trkpt><trkpt lat="40.8652417" lon="14.170845"><ele>177.0</ele><time>2026-04-11T12:37:18.856Z</time></trkpt><trkpt lat="40.8652667" lon="14.1707133"><ele>177.0</ele><time>2026-04-11T12:37:20.856Z</time></trkpt><trkpt lat="40.8652933" lon="14.170595"><ele>177.0</ele><time>2026-04-11T12:37:22.857Z</time></trkpt><trkpt lat="40.8653167" lon="14.1704767"><ele>177.0</ele><time>2026-04-11T12:37:24.857Z</time></trkpt><trkpt lat="40.86534" lon="14.170355"><ele>177.0</ele><time>2026-04-11T12:37:26.858Z</time></trkpt><trkpt lat="40.8653633" lon="14.1702367"><ele>177.2</ele><time>2026-04-11T12:37:28.857Z</time></trkpt><trkpt lat="40.865385" lon="14.1701167"><ele>177.39999999999998</ele><time>2026-04-11T12:37:30.856Z</time></trkpt><trkpt lat="40.8654083" lon="14.169995"><ele>177.60000000000002</ele><time>2026-04-11T12:37:32.856Z</time></trkpt><trkpt lat="40.865425" lon="14.1698733"><ele>177.8</ele><time>2026-04-11T12:37:34.857Z</time></trkpt><trkpt lat="40.86545" lon="14.1697633"><ele>178.0</ele><time>2026-04-11T12:37:36.858Z</time></trkpt><trkpt lat="40.8654733" lon="14.1696533"><ele>178.16666666666669</ele><time>2026-04-11T12:37:38.857Z</time></trkpt><trkpt lat="40.8655033" lon="14.1695467"><ele>178.33333333333334</ele><time>2026-04-11T12:37:40.857Z</time></trkpt><trkpt lat="40.8655333" lon="14.169445"><ele>178.5</ele><time>2026-04-11T12:37:42.859Z</time></trkpt><trkpt lat="40.8655733" lon="14.1693483"><ele>178.66666666666666</ele><time>2026-04-11T12:37:44.857Z</time></trkpt><trkpt lat="40.8656217" lon="14.1692667"><ele>178.83333333333331</ele><time>2026-04-11T12:37:46.857Z</time></trkpt><trkpt lat="40.8656733" lon="14.1691733"><ele>179.0</ele><time>2026-04-11T12:37:48.857Z</time></trkpt><trkpt lat="40.8657367" lon="14.1690867"><ele>178.6</ele><time>2026-04-11T12:37:50.857Z</time></trkpt><trkpt lat="40.8658033" lon="14.1689933"><ele>178.2</ele><time>2026-04-11T12:37:52.855Z</time></trkpt><trkpt lat="40.8658717" lon="14.1688933"><ele>177.79999999999998</ele><time>2026-04-11T12:37:54.857Z</time></trkpt><trkpt lat="40.865945" lon="14.1687933"><ele>177.39999999999998</ele><time>2026-04-11T12:37:56.857Z</time></trkpt><trkpt lat="40.8660133" lon="14.16869"><ele>177.0</ele><time>2026-04-11T12:37:58.857Z</time></trkpt><trkpt lat="40.8660783" lon="14.168585"><ele>179.16666666666666</ele><time>2026-04-11T12:38:00.856Z</time></trkpt><trkpt lat="40.8661467" lon="14.1684967"><ele>181.33333333333334</ele><time>2026-04-11T12:38:02.857Z</time></trkpt><trkpt lat="40.866205" lon="14.1684167"><ele>183.5</ele><time>2026-04-11T12:38:04.858Z</time></trkpt><trkpt lat="40.8662567" lon="14.1683533"><ele>185.66666666666669</ele><time>2026-04-11T12:38:06.858Z</time></trkpt><trkpt lat="40.8663183" lon="14.1683167"><ele>187.83333333333334</ele><time>2026-04-11T12:38:08.86Z</time></trkpt><trkpt lat="40.8664017" lon="14.1683383"><ele>190.0</ele><time>2026-04-11T12:38:11.857Z</time></trkpt><trkpt lat="40.8664267" lon="14.1684333"><ele>190.0</ele><time>2026-04-11T12:38:14.856Z</time></trkpt><trkpt lat="40.8664067" lon="14.1685367"><ele>190.0</ele><time>2026-04-11T12:38:17.858Z</time></trkpt><trkpt lat="40.8663617" lon="14.1686317"><ele>190.0</ele><time>2026-04-11T12:38:20.858Z</time></trkpt><trkpt lat="40.866315" lon="14.1686983"><ele>190.0</ele><time>2026-04-11T12:38:23.856Z</time></trkpt><trkpt lat="40.86626" lon="14.168775"><ele>190.0</ele><time>2026-04-11T12:38:26.855Z</time></trkpt><trkpt lat="40.8662033" lon="14.1688233"><ele>190.0</ele><time>2026-04-11T12:38:28.859Z</time></trkpt><trkpt lat="40.8661517" lon="14.1688833"><ele>190.0</ele><time>2026-04-11T12:38:30.858Z</time></trkpt><trkpt lat="40.8661067" lon="14.168985"><ele>190.0</ele><time>2026-04-11T12:38:33.859Z</time></trkpt><trkpt lat="40.866045" lon="14.1690733"><ele>190.0</ele><time>2026-04-11T12:38:36.859Z</time></trkpt><trkpt lat="40.8659933" lon="14.1691483"><ele>190.0</ele><time>2026-04-11T12:38:39.86Z</time></trkpt><trkpt lat="40.8659517" lon="14.1692233"><ele>190.0</ele><time>2026-04-11T12:38:42.859Z</time></trkpt><trkpt lat="40.865955" lon="14.1693367"><ele>190.0</ele><time>2026-04-11T12:38:45.857Z</time></trkpt><trkpt lat="40.8660033" lon="14.1694267"><ele>191.28571428571428</ele><time>2026-04-11T12:38:48.857Z</time></trkpt><trkpt lat="40.8660517" lon="14.1694817"><ele>192.57142857142858</ele><time>2026-04-11T12:38:50.859Z</time></trkpt><trkpt lat="40.86611" lon="14.1695183"><ele>193.85714285714283</ele><time>2026-04-11T12:38:52.859Z</time></trkpt><trkpt lat="40.866195" lon="14.1695317"><ele>195.14285714285714</ele><time>2026-04-11T12:38:55.858Z</time></trkpt><trkpt lat="40.86627" lon="14.1695283"><ele>196.42857142857142</ele><time>2026-04-11T12:38:58.859Z</time></trkpt><trkpt lat="40.8663467" lon="14.1695233"><ele>197.7142857142857</ele><time>2026-04-11T12:39:01.867Z</time></trkpt><trkpt lat="40.8664217" lon="14.1695233"><ele>199.0</ele><time>2026-04-11T12:39:04.86Z</time></trkpt><trkpt lat="40.8664967" lon="14.1694967"><ele>198.99999999999997</ele><time>2026-04-11T12:39:07.858Z</time></trkpt><trkpt lat="40.8665667" lon="14.1694933"><ele>199.0</ele><time>2026-04-11T12:39:10.859Z</time></trkpt><trkpt lat="40.8666417" lon="14.16949"><ele>199.0</ele><time>2026-04-11T12:39:13.861Z</time></trkpt><trkpt lat="40.866715" lon="14.1694867"><ele>199.0</ele><time>2026-04-11T12:39:16.858Z</time></trkpt><trkpt lat="40.8667833" lon="14.1694883"><ele>199.0</ele><time>2026-04-11T12:39:19.86Z</time></trkpt><trkpt lat="40.8668517" lon="14.169495"><ele>198.99999999999997</ele><time>2026-04-11T12:39:22.857Z</time></trkpt><trkpt lat="40.86692" lon="14.1695233"><ele>199.0</ele><time>2026-04-11T12:39:25.859Z</time></trkpt><trkpt lat="40.866995" lon="14.1695617"><ele>201.66666666666666</ele><time>2026-04-11T12:39:29.858Z</time></trkpt><trkpt lat="40.8670683" lon="14.1696"><ele>204.33333333333331</ele><time>2026-04-11T12:39:33.86Z</time></trkpt><trkpt lat="40.86714" lon="14.16963"><ele>207.0</ele><time>2026-04-11T12:39:36.859Z</time></trkpt><trkpt lat="40.8671567" lon="14.1697233"><ele>209.66666666666669</ele><time>2026-04-11T12:39:39.858Z</time></trkpt><trkpt lat="40.86712" lon="14.1698133"><ele>212.33333333333334</ele><time>2026-04-11T12:39:43.86Z</time></trkpt><trkpt lat="40.8670617" lon="14.1698817"><ele>215.0</ele><time>2026-04-11T12:39:47.858Z</time></trkpt><trkpt lat="40.86699" lon="14.1699233"><ele>215.33333333333334</ele><time>2026-04-11T12:39:51.859Z</time></trkpt><trkpt lat="40.866915" lon="14.1699517"><ele>215.66666666666669</ele><time>2026-04-11T12:39:55.859Z</time></trkpt><trkpt lat="40.866865" lon="14.170005"><ele>216.0</ele><time>2026-04-11T12:39:58.859Z</time></trkpt><trkpt lat="40.8668" lon="14.1700683"><ele>216.33333333333331</ele><time>2026-04-11T12:40:02.857Z</time></trkpt><trkpt lat="40.8667833" lon="14.170165"><ele>216.66666666666666</ele><time>2026-04-11T12:40:05.86Z</time></trkpt><trkpt lat="40.86678" lon="14.1702617"><ele>217.0</ele><time>2026-04-11T12:40:08.858Z</time></trkpt><trkpt lat="40.8667767" lon="14.1703667"><ele>216.99999999999997</ele><time>2026-04-11T12:40:11.86Z</time></trkpt><trkpt lat="40.8667933" lon="14.170475"><ele>217.0</ele><time>2026-04-11T12:40:14.86Z</time></trkpt><trkpt lat="40.8668217" lon="14.1705733"><ele>217.0</ele><time>2026-04-11T12:40:17.86Z</time></trkpt><trkpt lat="40.8668583" lon="14.1706633"><ele>217.0</ele><time>2026-04-11T12:40:20.86Z</time></trkpt><trkpt lat="40.8669067" lon="14.1707267"><ele>216.99999999999997</ele><time>2026-04-11T12:40:23.86Z</time></trkpt><trkpt lat="40.8669667" lon="14.1707533"><ele>217.0</ele><time>2026-04-11T12:40:26.859Z</time></trkpt><trkpt lat="40.86705" lon="14.1707583"><ele>216.99999999999997</ele><time>2026-04-11T12:40:29.86Z</time></trkpt><trkpt lat="40.8671383" lon="14.1707617"><ele>217.0</ele><time>2026-04-11T12:40:32.86Z</time></trkpt><trkpt lat="40.8672133" lon="14.1707433"><ele>217.0</ele><time>2026-04-11T12:40:35.861Z</time></trkpt><trkpt lat="40.867295" lon="14.1707167"><ele>217.0</ele><time>2026-04-11T12:40:39.859Z</time></trkpt><trkpt lat="40.8673717" lon="14.17069"><ele>216.99999999999997</ele><time>2026-04-11T12:40:42.86Z</time></trkpt><trkpt lat="40.867445" lon="14.170675"><ele>217.0</ele><time>2026-04-11T12:40:45.857Z</time></trkpt><trkpt lat="40.8675117" lon="14.17066"><ele>216.99999999999997</ele><time>2026-04-11T12:40:48.858Z</time></trkpt><trkpt lat="40.86759" lon="14.1706517"><ele>217.0</ele><time>2026-04-11T12:40:51.857Z</time></trkpt><trkpt lat="40.8676617" lon="14.170655"><ele>217.0</ele><time>2026-04-11T12:40:54.857Z</time></trkpt><trkpt lat="40.8677367" lon="14.1706633"><ele>217.0</ele><time>2026-04-11T12:40:57.857Z</time></trkpt><trkpt lat="40.8678183" lon="14.1706767"><ele>216.99999999999997</ele><time>2026-04-11T12:41:00.859Z</time></trkpt><trkpt lat="40.867895" lon="14.1706867"><ele>217.0</ele><time>2026-04-11T12:41:03.857Z</time></trkpt><trkpt lat="40.8679683" lon="14.1707"><ele>216.83333333333331</ele><time>2026-04-11T12:41:06.86Z</time></trkpt><trkpt lat="40.868045" lon="14.17072"><ele>216.66666666666666</ele><time>2026-04-11T12:41:09.859Z</time></trkpt><trkpt lat="40.8681233" lon="14.17075"><ele>216.5</ele><time>2026-04-11T12:41:12.858Z</time></trkpt><trkpt lat="40.8681967" lon="14.1707867"><ele>216.33333333333331</ele><time>2026-04-11T12:41:15.858Z</time></trkpt><trkpt lat="40.86827" lon="14.1708167"><ele>216.16666666666666</ele><time>2026-04-11T12:41:18.858Z</time></trkpt><trkpt lat="40.868345" lon="14.1708317"><ele>216.0</ele><time>2026-04-11T12:41:21.857Z</time></trkpt><trkpt lat="40.8684167" lon="14.1708633"><ele>217.0</ele><time>2026-04-11T12:41:24.857Z</time></trkpt><trkpt lat="40.868485" lon="14.170895"><ele>218.0</ele><time>2026-04-11T12:41:27.856Z</time></trkpt><trkpt lat="40.86855" lon="14.17092"><ele>219.0</ele><time>2026-04-11T12:41:30.859Z</time></trkpt><trkpt lat="40.868625" lon="14.1709583"><ele>220.0</ele><time>2026-04-11T12:41:34.859Z</time></trkpt><trkpt lat="40.86868" lon="14.1710033"><ele>221.0</ele><time>2026-04-11T12:41:37.857Z</time></trkpt><trkpt lat="40.8687333" lon="14.1710517"><ele>222.0</ele><time>2026-04-11T12:41:40.857Z</time></trkpt><trkpt lat="40.868795" lon="14.1710967"><ele>223.0</ele><time>2026-04-11T12:41:43.857Z</time></trkpt><trkpt lat="40.8688617" lon="14.17112"><ele>222.99999999999997</ele><time>2026-04-11T12:41:46.857Z</time></trkpt><trkpt lat="40.8689383" lon="14.171075"><ele>223.0</ele><time>2026-04-11T12:41:49.858Z</time></trkpt><trkpt lat="40.86899" lon="14.170995"><ele>223.0</ele><time>2026-04-11T12:41:52.858Z</time></trkpt><trkpt lat="40.869025" lon="14.17089"><ele>223.0</ele><time>2026-04-11T12:41:55.86Z</time></trkpt><trkpt lat="40.8690633" lon="14.1707967"><ele>222.99999999999997</ele><time>2026-04-11T12:41:58.86Z</time></trkpt><trkpt lat="40.869105" lon="14.1707083"><ele>223.0</ele><time>2026-04-11T12:42:01.86Z</time></trkpt><trkpt lat="40.8691467" lon="14.17062"><ele>225.42857142857142</ele><time>2026-04-11T12:42:04.86Z</time></trkpt><trkpt lat="40.8691817" lon="14.1705433"><ele>227.85714285714283</ele><time>2026-04-11T12:42:07.859Z</time></trkpt><trkpt lat="40.8692267" lon="14.17047"><ele>230.28571428571428</ele><time>2026-04-11T12:42:10.859Z</time></trkpt><trkpt lat="40.8692683" lon="14.17039"><ele>232.71428571428572</ele><time>2026-04-11T12:42:13.86Z</time></trkpt><trkpt lat="40.86931" lon="14.1703133"><ele>235.14285714285714</ele><time>2026-04-11T12:42:16.859Z</time></trkpt><trkpt lat="40.8693483" lon="14.1702333"><ele>237.57142857142858</ele><time>2026-04-11T12:42:19.861Z</time></trkpt><trkpt lat="40.869395" lon="14.1701617"><ele>240.0</ele><time>2026-04-11T12:42:22.859Z</time></trkpt><trkpt lat="40.86945" lon="14.1700917"><ele>240.0</ele><time>2026-04-11T12:42:25.859Z</time></trkpt><trkpt lat="40.8695083" lon="14.1700333"><ele>240.0</ele><time>2026-04-11T12:42:28.858Z</time></trkpt><trkpt lat="40.8695833" lon="14.1699817"><ele>240.0</ele><time>2026-04-11T12:42:31.859Z</time></trkpt><trkpt lat="40.8696633" lon="14.1699583"><ele>240.0</ele><time>2026-04-11T12:42:34.858Z</time></trkpt><trkpt lat="40.8697383" lon="14.1699317"><ele>240.0</ele><time>2026-04-11T12:42:37.862Z</time></trkpt><trkpt lat="40.8698" lon="14.1699017"><ele>240.0</ele><time>2026-04-11T12:42:40.859Z</time></trkpt><trkpt lat="40.8698667" lon="14.1698617"><ele>241.14285714285717</ele><time>2026-04-11T12:42:43.862Z</time></trkpt><trkpt lat="40.8699183" lon="14.169805"><ele>242.28571428571428</ele><time>2026-04-11T12:42:46.859Z</time></trkpt><trkpt lat="40.869985" lon="14.1697533"><ele>243.42857142857144</ele><time>2026-04-11T12:42:49.86Z</time></trkpt><trkpt lat="40.8700417" lon="14.1696917"><ele>244.57142857142858</ele><time>2026-04-11T12:42:52.86Z</time></trkpt><trkpt lat="40.8700983" lon="14.1696517"><ele>245.71428571428572</ele><time>2026-04-11T12:42:55.86Z</time></trkpt><trkpt lat="40.87016" lon="14.1696167"><ele>246.85714285714286</ele><time>2026-04-11T12:42:58.858Z</time></trkpt><trkpt lat="40.87023" lon="14.1695933"><ele>248.0</ele><time>2026-04-11T12:43:01.858Z</time></trkpt><trkpt lat="40.8703183" lon="14.1695833"><ele>250.66666666666669</ele><time>2026-04-11T12:43:04.858Z</time></trkpt><trkpt lat="40.8703917" lon="14.1696017"><ele>253.33333333333334</ele><time>2026-04-11T12:43:07.859Z</time></trkpt><trkpt lat="40.8704717" lon="14.1696267"><ele>256.0</ele><time>2026-04-11T12:43:10.859Z</time></trkpt><trkpt lat="40.8705417" lon="14.169645"><ele>258.6666666666667</ele><time>2026-04-11T12:43:13.858Z</time></trkpt><trkpt lat="40.8706183" lon="14.1696967"><ele>261.3333333333333</ele><time>2026-04-11T12:43:16.86Z</time></trkpt><trkpt lat="40.8706333" lon="14.1697867"><ele>264.0</ele><time>2026-04-11T12:43:19.86Z</time></trkpt><trkpt lat="40.8705717" lon="14.16985"><ele>263.7142857142857</ele><time>2026-04-11T12:43:23.861Z</time></trkpt><trkpt lat="40.870505" lon="14.16989"><ele>263.42857142857144</ele><time>2026-04-11T12:43:26.859Z</time></trkpt><trkpt lat="40.87044" lon="14.1699317"><ele>263.14285714285717</ele><time>2026-04-11T12:43:29.858Z</time></trkpt><trkpt lat="40.8703817" lon="14.1699783"><ele>262.8571428571429</ele><time>2026-04-11T12:43:32.859Z</time></trkpt><trkpt lat="40.8703233" lon="14.1700267"><ele>262.5714285714286</ele><time>2026-04-11T12:43:35.86Z</time></trkpt><trkpt lat="40.870275" lon="14.1700833"><ele>262.2857142857143</ele><time>2026-04-11T12:43:38.859Z</time></trkpt><trkpt lat="40.8702217" lon="14.17014"><ele>262.0</ele><time>2026-04-11T12:43:41.858Z</time></trkpt><trkpt lat="40.87018" lon="14.1702217"><ele>262.0</ele><time>2026-04-11T12:43:44.861Z</time></trkpt><trkpt lat="40.8701367" lon="14.1703167"><ele>262.0</ele><time>2026-04-11T12:43:47.861Z</time></trkpt><trkpt lat="40.8701167" lon="14.1704133"><ele>262.0</ele><time>2026-04-11T12:43:50.861Z</time></trkpt><trkpt lat="40.8701" lon="14.1705133"><ele>262.0</ele><time>2026-04-11T12:43:53.857Z</time></trkpt><trkpt lat="40.8700683" lon="14.1706217"><ele>262.0</ele><time>2026-04-11T12:43:56.859Z</time></trkpt><trkpt lat="40.8700517" lon="14.170725"><ele>262.0</ele><time>2026-04-11T12:43:59.86Z</time></trkpt><trkpt lat="40.8700833" lon="14.170815"><ele>261.0</ele><time>2026-04-11T12:44:02.858Z</time></trkpt><trkpt lat="40.8701433" lon="14.170855"><ele>260.0</ele><time>2026-04-11T12:44:05.859Z</time></trkpt><trkpt lat="40.8702083" lon="14.1708617"><ele>259.0</ele><time>2026-04-11T12:44:08.859Z</time></trkpt><trkpt lat="40.87028" lon="14.1708633"><ele>258.0</ele><time>2026-04-11T12:44:11.861Z</time></trkpt><trkpt lat="40.8703667" lon="14.1708617"><ele>257.0</ele><time>2026-04-11T12:44:14.858Z</time></trkpt><trkpt lat="40.8704433" lon="14.1708667"><ele>256.0</ele><time>2026-04-11T12:44:17.862Z</time></trkpt><trkpt lat="40.870525" lon="14.1708583"><ele>255.0</ele><time>2026-04-11T12:44:20.86Z</time></trkpt><trkpt lat="40.8705983" lon="14.170835"><ele>255.0</ele><time>2026-04-11T12:44:23.86Z</time></trkpt><trkpt lat="40.8706617" lon="14.1707883"><ele>255.0</ele><time>2026-04-11T12:44:26.859Z</time></trkpt><trkpt lat="40.870725" lon="14.1707117"><ele>255.0</ele><time>2026-04-11T12:44:29.859Z</time></trkpt><trkpt lat="40.8707767" lon="14.17063"><ele>255.0</ele><time>2026-04-11T12:44:32.857Z</time></trkpt><trkpt lat="40.8708183" lon="14.1705417"><ele>255.0</ele><time>2026-04-11T12:44:35.858Z</time></trkpt><trkpt lat="40.8708667" lon="14.1704567"><ele>255.0</ele><time>2026-04-11T12:44:38.859Z</time></trkpt><trkpt lat="40.8709183" lon="14.1703817"><ele>258.3333333333333</ele><time>2026-04-11T12:44:41.86Z</time></trkpt><trkpt lat="40.8709683" lon="14.170305"><ele>261.6666666666667</ele><time>2026-04-11T12:44:44.86Z</time></trkpt><trkpt lat="40.8710367" lon="14.170235"><ele>265.0</ele><time>2026-04-11T12:44:47.859Z</time></trkpt><trkpt lat="40.8711067" lon="14.1701833"><ele>268.33333333333337</ele><time>2026-04-11T12:44:50.858Z</time></trkpt><trkpt lat="40.87117" lon="14.1701317"><ele>271.6666666666667</ele><time>2026-04-11T12:44:53.861Z</time></trkpt><trkpt lat="40.8712267" lon="14.1700583"><ele>275.0</ele><time>2026-04-11T12:44:57.858Z</time></trkpt><trkpt lat="40.8713083" lon="14.1700367"><ele>275.0</ele><time>2026-04-11T12:45:01.859Z</time></trkpt><trkpt lat="40.8713733" lon="14.170065"><ele>275.0</ele><time>2026-04-11T12:45:04.86Z</time></trkpt><trkpt lat="40.8714167" lon="14.1701367"><ele>275.0</ele><time>2026-04-11T12:45:08.859Z</time></trkpt><trkpt lat="40.871405" lon="14.1702333"><ele>275.0</ele><time>2026-04-11T12:45:12.857Z</time></trkpt><trkpt lat="40.87139" lon="14.1703333"><ele>275.0</ele><time>2026-04-11T12:45:16.858Z</time></trkpt><trkpt lat="40.8713717" lon="14.17042"><ele>275.0</ele><time>2026-04-11T12:45:20.86Z</time></trkpt><trkpt lat="40.8713483" lon="14.1705033"><ele>275.0</ele><time>2026-04-11T12:45:24.859Z</time></trkpt><trkpt lat="40.8713417" lon="14.1705967"><ele>275.0</ele><time>2026-04-11T12:45:27.859Z</time></trkpt><trkpt lat="40.871375" lon="14.1706767"><ele>275.0</ele><time>2026-04-11T12:45:30.859Z</time></trkpt><trkpt lat="40.8714417" lon="14.17072"><ele>275.0</ele><time>2026-04-11T12:45:33.857Z</time></trkpt><trkpt lat="40.87151" lon="14.170755"><ele>275.0</ele><time>2026-04-11T12:45:36.857Z</time></trkpt><trkpt lat="40.8715633" lon="14.1708017"><ele>275.0</ele><time>2026-04-11T12:45:39.86Z</time></trkpt><trkpt lat="40.871625" lon="14.1708233"><ele>275.0</ele><time>2026-04-11T12:45:42.859Z</time></trkpt><trkpt lat="40.8716933" lon="14.1708783"><ele>275.0</ele><time>2026-04-11T12:45:46.858Z</time></trkpt><trkpt lat="40.8717367" lon="14.17095"><ele>274.83333333333337</ele><time>2026-04-11T12:45:50.86Z</time></trkpt><trkpt lat="40.871755" lon="14.171035"><ele>274.6666666666667</ele><time>2026-04-11T12:45:53.86Z</time></trkpt><trkpt lat="40.8717433" lon="14.17113"><ele>274.5</ele><time>2026-04-11T12:45:56.859Z</time></trkpt><trkpt lat="40.8717167" lon="14.17122"><ele>274.3333333333333</ele><time>2026-04-11T12:45:59.858Z</time></trkpt><trkpt lat="40.8717083" lon="14.1713233"><ele>274.16666666666663</ele><time>2026-04-11T12:46:02.859Z</time></trkpt><trkpt lat="40.8717367" lon="14.17143"><ele>274.0</ele><time>2026-04-11T12:46:05.86Z</time></trkpt><trkpt lat="40.871765" lon="14.1715267"><ele>274.7142857142857</ele><time>2026-04-11T12:46:08.858Z</time></trkpt><trkpt lat="40.871785" lon="14.171625"><ele>275.42857142857144</ele><time>2026-04-11T12:46:11.86Z</time></trkpt><trkpt lat="40.8717767" lon="14.1717083"><ele>276.1428571428571</ele><time>2026-04-11T12:46:14.86Z</time></trkpt><trkpt lat="40.8717317" lon="14.1717817"><ele>276.8571428571429</ele><time>2026-04-11T12:46:17.86Z</time></trkpt><trkpt lat="40.8716617" lon="14.1718483"><ele>277.57142857142856</ele><time>2026-04-11T12:46:20.859Z</time></trkpt><trkpt lat="40.87161" lon="14.17192"><ele>278.2857142857143</ele><time>2026-04-11T12:46:23.858Z</time></trkpt><trkpt lat="40.8715533" lon="14.1719833"><ele>279.0</ele><time>2026-04-11T12:46:26.86Z</time></trkpt><trkpt lat="40.87149" lon="14.1720517"><ele>279.0</ele><time>2026-04-11T12:46:29.862Z</time></trkpt><trkpt lat="40.87144" lon="14.1721267"><ele>279.0</ele><time>2026-04-11T12:46:32.862Z</time></trkpt><trkpt lat="40.87139" lon="14.1722117"><ele>279.0</ele><time>2026-04-11T12:46:35.861Z</time></trkpt><trkpt lat="40.8713567" lon="14.1723083"><ele>279.0</ele><time>2026-04-11T12:46:38.859Z</time></trkpt><trkpt lat="40.8713417" lon="14.17243"><ele>279.0</ele><time>2026-04-11T12:46:41.86Z</time></trkpt><trkpt lat="40.8713483" lon="14.1725433"><ele>279.0</ele><time>2026-04-11T12:46:44.859Z</time></trkpt><trkpt lat="40.8713883" lon="14.17265"><ele>279.6666666666667</ele><time>2026-04-11T12:46:47.86Z</time></trkpt><trkpt lat="40.87146" lon="14.17271"><ele>280.3333333333333</ele><time>2026-04-11T12:46:50.86Z</time></trkpt><trkpt lat="40.8715467" lon="14.1727233"><ele>281.0</ele><time>2026-04-11T12:46:53.861Z</time></trkpt><trkpt lat="40.8716333" lon="14.1727367"><ele>281.66666666666663</ele><time>2026-04-11T12:46:56.859Z</time></trkpt><trkpt lat="40.871715" lon="14.1727483"><ele>282.3333333333333</ele><time>2026-04-11T12:46:59.858Z</time></trkpt><trkpt lat="40.871795" lon="14.1727633"><ele>283.0</ele><time>2026-04-11T12:47:02.859Z</time></trkpt><trkpt lat="40.8718767" lon="14.1727733"><ele>286.0</ele><time>2026-04-11T12:47:05.862Z</time></trkpt><trkpt lat="40.8719617" lon="14.1727817"><ele>289.0</ele><time>2026-04-11T12:47:08.859Z</time></trkpt><trkpt lat="40.8720467" lon="14.172795"><ele>292.0</ele><time>2026-04-11T12:47:11.862Z</time></trkpt><trkpt lat="40.8721267" lon="14.1727967"><ele>295.0</ele><time>2026-04-11T12:47:14.859Z</time></trkpt><trkpt lat="40.8722017" lon="14.1728067"><ele>298.0</ele><time>2026-04-11T12:47:17.859Z</time></trkpt><trkpt lat="40.8722833" lon="14.1728283"><ele>301.0</ele><time>2026-04-11T12:47:20.859Z</time></trkpt><trkpt lat="40.8723617" lon="14.1728467"><ele>301.0</ele><time>2026-04-11T12:47:23.86Z</time></trkpt><trkpt lat="40.8724417" lon="14.172865"><ele>301.0</ele><time>2026-04-11T12:47:26.859Z</time></trkpt><trkpt lat="40.8725117" lon="14.172915"><ele>301.0</ele><time>2026-04-11T12:47:29.86Z</time></trkpt><trkpt lat="40.87257" lon="14.1729717"><ele>301.0</ele><time>2026-04-11T12:47:32.86Z</time></trkpt><trkpt lat="40.872615" lon="14.1730633"><ele>301.0</ele><time>2026-04-11T12:47:35.858Z</time></trkpt><trkpt lat="40.8726417" lon="14.173165"><ele>301.0</ele><time>2026-04-11T12:47:38.86Z</time></trkpt><trkpt lat="40.8726617" lon="14.1732767"><ele>300.8333333333333</ele><time>2026-04-11T12:47:41.86Z</time></trkpt><trkpt lat="40.87264" lon="14.17338"><ele>300.66666666666663</ele><time>2026-04-11T12:47:44.862Z</time></trkpt><trkpt lat="40.8725933" lon="14.1734617"><ele>300.5</ele><time>2026-04-11T12:47:47.86Z</time></trkpt><trkpt lat="40.8725083" lon="14.17345"><ele>300.3333333333333</ele><time>2026-04-11T12:47:50.859Z</time></trkpt><trkpt lat="40.8724217" lon="14.1734317"><ele>300.1666666666667</ele><time>2026-04-11T12:47:53.858Z</time></trkpt><trkpt lat="40.87233" lon="14.1734367"><ele>300.0</ele><time>2026-04-11T12:47:56.861Z</time></trkpt><trkpt lat="40.8722417" lon="14.1734717"><ele>300.0</ele><time>2026-04-11T12:47:59.861Z</time></trkpt><trkpt lat="40.87216" lon="14.1735283"><ele>300.0</ele><time>2026-04-11T12:48:02.86Z</time></trkpt><trkpt lat="40.87211" lon="14.1735817"><ele>300.0</ele><time>2026-04-11T12:48:04.861Z</time></trkpt><trkpt lat="40.8720533" lon="14.1736733"><ele>300.0</ele><time>2026-04-11T12:48:07.86Z</time></trkpt><trkpt lat="40.872005" lon="14.1737633"><ele>300.0</ele><time>2026-04-11T12:48:10.858Z</time></trkpt><trkpt lat="40.8719917" lon="14.17386"><ele>300.0</ele><time>2026-04-11T12:48:13.858Z</time></trkpt><trkpt lat="40.872035" lon="14.1739433"><ele>299.99999999999994</ele><time>2026-04-11T12:48:16.86Z</time></trkpt><trkpt lat="40.8721033" lon="14.1739267"><ele>300.0</ele><time>2026-04-11T12:48:19.859Z</time></trkpt><trkpt lat="40.8721533" lon="14.173875"><ele>300.0</ele><time>2026-04-11T12:48:23.858Z</time></trkpt><trkpt lat="40.8722117" lon="14.173825"><ele>300.0</ele><time>2026-04-11T12:48:26.859Z</time></trkpt><trkpt lat="40.8722783" lon="14.1737583"><ele>300.0</ele><time>2026-04-11T12:48:29.859Z</time></trkpt><trkpt lat="40.8723417" lon="14.17373"><ele>299.99999999999994</ele><time>2026-04-11T12:48:31.859Z</time></trkpt><trkpt lat="40.87241" lon="14.1737283"><ele>300.0</ele><time>2026-04-11T12:48:33.857Z</time></trkpt><trkpt lat="40.8724783" lon="14.1737433"><ele>299.99999999999994</ele><time>2026-04-11T12:48:35.858Z</time></trkpt><trkpt lat="40.8725483" lon="14.173765"><ele>300.0</ele><time>2026-04-11T12:48:37.859Z</time></trkpt><trkpt lat="40.8726217" lon="14.1737867"><ele>300.0</ele><time>2026-04-11T12:48:39.859Z</time></trkpt><trkpt lat="40.872695" lon="14.1737867"><ele>300.0</ele><time>2026-04-11T12:48:41.859Z</time></trkpt><trkpt lat="40.8727683" lon="14.1737583"><ele>300.0</ele><time>2026-04-11T12:48:43.858Z</time></trkpt><trkpt lat="40.8728333" lon="14.173725"><ele>299.99999999999994</ele><time>2026-04-11T12:48:45.857Z</time></trkpt><trkpt lat="40.8728917" lon="14.1736733"><ele>300.0</ele><time>2026-04-11T12:48:47.858Z</time></trkpt><trkpt lat="40.872935" lon="14.1736117"><ele>301.4285714285714</ele><time>2026-04-11T12:48:49.858Z</time></trkpt><trkpt lat="40.8729867" lon="14.1735567"><ele>302.85714285714283</ele><time>2026-04-11T12:48:51.858Z</time></trkpt><trkpt lat="40.8730233" lon="14.1734783"><ele>304.2857142857143</ele><time>2026-04-11T12:48:53.857Z</time></trkpt><trkpt lat="40.8730617" lon="14.17341"><ele>305.71428571428567</ele><time>2026-04-11T12:48:55.86Z</time></trkpt><trkpt lat="40.8731" lon="14.1733367"><ele>307.1428571428571</ele><time>2026-04-11T12:48:57.856Z</time></trkpt><trkpt lat="40.8731383" lon="14.1732517"><ele>308.57142857142856</ele><time>2026-04-11T12:48:59.857Z</time></trkpt><trkpt lat="40.8731733" lon="14.1731733"><ele>310.0</ele><time>2026-04-11T12:49:01.859Z</time></trkpt><trkpt lat="40.8732067" lon="14.1731017"><ele>310.0</ele><time>2026-04-11T12:49:03.857Z</time></trkpt><trkpt lat="40.8732633" lon="14.1730067"><ele>310.0</ele><time>2026-04-11T12:49:06.86Z</time></trkpt><trkpt lat="40.8733" lon="14.1729383"><ele>310.0</ele><time>2026-04-11T12:49:08.857Z</time></trkpt><trkpt lat="40.8733383" lon="14.1728617"><ele>310.0</ele><time>2026-04-11T12:49:10.858Z</time></trkpt><trkpt lat="40.8733833" lon="14.17278"><ele>310.0</ele><time>2026-04-11T12:49:12.856Z</time></trkpt><trkpt lat="40.87343" lon="14.1727067"><ele>310.0</ele><time>2026-04-11T12:49:14.858Z</time></trkpt><trkpt lat="40.873485" lon="14.172615"><ele>310.8333333333333</ele><time>2026-04-11T12:49:17.857Z</time></trkpt><trkpt lat="40.873535" lon="14.1725367"><ele>311.66666666666663</ele><time>2026-04-11T12:49:20.857Z</time></trkpt><trkpt lat="40.8735783" lon="14.172455"><ele>312.5</ele><time>2026-04-11T12:49:23.859Z</time></trkpt><trkpt lat="40.8736617" lon="14.172425"><ele>313.3333333333333</ele><time>2026-04-11T12:49:26.856Z</time></trkpt><trkpt lat="40.8737567" lon="14.17247"><ele>314.1666666666667</ele><time>2026-04-11T12:49:29.857Z</time></trkpt><trkpt lat="40.8738217" lon="14.1725117"><ele>315.0</ele><time>2026-04-11T12:49:31.859Z</time></trkpt><trkpt lat="40.87389" lon="14.172545"><ele>315.0</ele><time>2026-04-11T12:49:33.859Z</time></trkpt><trkpt lat="40.8739517" lon="14.1725817"><ele>315.0</ele><time>2026-04-11T12:49:35.86Z</time></trkpt><trkpt lat="40.874015" lon="14.17261"><ele>315.0</ele><time>2026-04-11T12:49:37.858Z</time></trkpt><trkpt lat="40.8741033" lon="14.172645"><ele>315.0</ele><time>2026-04-11T12:49:40.857Z</time></trkpt><trkpt lat="40.87417" lon="14.1726683"><ele>315.0</ele><time>2026-04-11T12:49:42.858Z</time></trkpt><trkpt lat="40.87426" lon="14.1726983"><ele>315.0</ele><time>2026-04-11T12:49:45.858Z</time></trkpt><trkpt lat="40.8743367" lon="14.1727267"><ele>314.5</ele><time>2026-04-11T12:49:48.859Z</time></trkpt><trkpt lat="40.8744267" lon="14.1727383"><ele>314.0</ele><time>2026-04-11T12:49:51.858Z</time></trkpt><trkpt lat="40.8745133" lon="14.1727783"><ele>313.5</ele><time>2026-04-11T12:49:54.858Z</time></trkpt><trkpt lat="40.8745667" lon="14.172825"><ele>313.0</ele><time>2026-04-11T12:49:56.86Z</time></trkpt><trkpt lat="40.8746133" lon="14.172885"><ele>312.5</ele><time>2026-04-11T12:49:58.86Z</time></trkpt><trkpt lat="40.8746617" lon="14.1729433"><ele>312.0</ele><time>2026-04-11T12:50:00.86Z</time></trkpt><trkpt lat="40.8747117" lon="14.1730417"><ele>312.0</ele><time>2026-04-11T12:50:03.859Z</time></trkpt><trkpt lat="40.874765" lon="14.1731517"><ele>312.0</ele><time>2026-04-11T12:50:06.857Z</time></trkpt><trkpt lat="40.874815" lon="14.173215"><ele>312.0</ele><time>2026-04-11T12:50:08.858Z</time></trkpt><trkpt lat="40.87487" lon="14.1732767"><ele>312.0</ele><time>2026-04-11T12:50:10.859Z</time></trkpt><trkpt lat="40.8749267" lon="14.173335"><ele>312.0</ele><time>2026-04-11T12:50:12.858Z</time></trkpt><trkpt lat="40.874985" lon="14.1733817"><ele>312.0</ele><time>2026-04-11T12:50:14.859Z</time></trkpt><trkpt lat="40.875065" lon="14.173435"><ele>314.5</ele><time>2026-04-11T12:50:17.859Z</time></trkpt><trkpt lat="40.8751367" lon="14.1734917"><ele>317.0</ele><time>2026-04-11T12:50:20.859Z</time></trkpt><trkpt lat="40.8751967" lon="14.1735567"><ele>319.5</ele><time>2026-04-11T12:50:23.861Z</time></trkpt><trkpt lat="40.875265" lon="14.17363"><ele>322.0</ele><time>2026-04-11T12:50:26.858Z</time></trkpt><trkpt lat="40.8753283" lon="14.1737083"><ele>324.5</ele><time>2026-04-11T12:50:29.86Z</time></trkpt><trkpt lat="40.875405" lon="14.1737733"><ele>327.0</ele><time>2026-04-11T12:50:32.859Z</time></trkpt><trkpt lat="40.8754633" lon="14.173805"><ele>327.0</ele><time>2026-04-11T12:50:34.859Z</time></trkpt><trkpt lat="40.8755383" lon="14.1738233"><ele>327.0</ele><time>2026-04-11T12:50:37.86Z</time></trkpt><trkpt lat="40.8756183" lon="14.1738533"><ele>327.0</ele><time>2026-04-11T12:50:40.86Z</time></trkpt><trkpt lat="40.8756933" lon="14.1738917"><ele>327.0</ele><time>2026-04-11T12:50:43.86Z</time></trkpt><trkpt lat="40.8757717" lon="14.17392"><ele>327.0</ele><time>2026-04-11T12:50:46.86Z</time></trkpt><trkpt lat="40.8758367" lon="14.1739183"><ele>327.0</ele><time>2026-04-11T12:50:48.859Z</time></trkpt><trkpt lat="40.8759017" lon="14.1738833"><ele>328.1428571428571</ele><time>2026-04-11T12:50:50.859Z</time></trkpt><trkpt lat="40.8759533" lon="14.17383"><ele>329.2857142857143</ele><time>2026-04-11T12:50:52.86Z</time></trkpt><trkpt lat="40.8759983" lon="14.173765"><ele>330.42857142857144</ele><time>2026-04-11T12:50:54.858Z</time></trkpt><trkpt lat="40.876045" lon="14.1736983"><ele>331.57142857142856</ele><time>2026-04-11T12:50:56.86Z</time></trkpt><trkpt lat="40.876095" lon="14.1736467"><ele>332.7142857142857</ele><time>2026-04-11T12:50:58.859Z</time></trkpt><trkpt lat="40.8761833" lon="14.173605"><ele>333.85714285714283</ele><time>2026-04-11T12:51:01.858Z</time></trkpt><trkpt lat="40.8762467" lon="14.1736183"><ele>335.0</ele><time>2026-04-11T12:51:03.86Z</time></trkpt><trkpt lat="40.87634" lon="14.1736417"><ele>334.99999999999994</ele><time>2026-04-11T12:51:06.858Z</time></trkpt><trkpt lat="40.8764033" lon="14.1736767"><ele>335.0</ele><time>2026-04-11T12:51:08.858Z</time></trkpt><trkpt lat="40.8764933" lon="14.1737133"><ele>335.0</ele><time>2026-04-11T12:51:11.859Z</time></trkpt><trkpt lat="40.8765517" lon="14.1737667"><ele>335.0</ele><time>2026-04-11T12:51:13.86Z</time></trkpt><trkpt lat="40.8765767" lon="14.1738533"><ele>335.0</ele><time>2026-04-11T12:51:15.858Z</time></trkpt><trkpt lat="40.8765733" lon="14.17394"><ele>334.99999999999994</ele><time>2026-04-11T12:51:17.86Z</time></trkpt><trkpt lat="40.876555" lon="14.1740217"><ele>335.0</ele><time>2026-04-11T12:51:19.859Z</time></trkpt><trkpt lat="40.876525" lon="14.1740967"><ele>335.4285714285714</ele><time>2026-04-11T12:51:21.859Z</time></trkpt><trkpt lat="40.8765067" lon="14.17418"><ele>335.85714285714283</ele><time>2026-04-11T12:51:23.86Z</time></trkpt><trkpt lat="40.8764917" lon="14.1742617"><ele>336.2857142857143</ele><time>2026-04-11T12:51:25.858Z</time></trkpt><trkpt lat="40.8764967" lon="14.17437"><ele>336.71428571428567</ele><time>2026-04-11T12:51:28.86Z</time></trkpt><trkpt lat="40.876475" lon="14.17446"><ele>337.1428571428571</ele><time>2026-04-11T12:52:53.86Z</time></trkpt><trkpt lat="40.8764367" lon="14.1745283"><ele>337.57142857142856</ele><time>2026-04-11T12:52:56.861Z</time></trkpt><trkpt lat="40.8763717" lon="14.1746083"><ele>338.0</ele><time>2026-04-11T12:52:59.862Z</time></trkpt><trkpt lat="40.8763217" lon="14.17468"><ele>338.0</ele><time>2026-04-11T12:53:01.86Z</time></trkpt><trkpt lat="40.87626" lon="14.1747483"><ele>338.0</ele><time>2026-04-11T12:53:03.86Z</time></trkpt><trkpt lat="40.8761883" lon="14.1748133"><ele>338.0</ele><time>2026-04-11T12:53:05.862Z</time></trkpt><trkpt lat="40.8761317" lon="14.1748783"><ele>338.0</ele><time>2026-04-11T12:53:07.86Z</time></trkpt><trkpt lat="40.8760833" lon="14.1749367"><ele>338.0</ele><time>2026-04-11T12:53:09.861Z</time></trkpt><trkpt lat="40.8760267" lon="14.175"><ele>338.0</ele><time>2026-04-11T12:53:11.86Z</time></trkpt><trkpt lat="40.8759733" lon="14.175075"><ele>338.6666666666667</ele><time>2026-04-11T12:53:13.861Z</time></trkpt><trkpt lat="40.8759283" lon="14.1751617"><ele>339.33333333333337</ele><time>2026-04-11T12:53:15.86Z</time></trkpt><trkpt lat="40.8758767" lon="14.1752517"><ele>340.0</ele><time>2026-04-11T12:53:17.86Z</time></trkpt><trkpt lat="40.87583" lon="14.1753283"><ele>340.6666666666667</ele><time>2026-04-11T12:53:19.861Z</time></trkpt><trkpt lat="40.8757817" lon="14.1754117"><ele>341.3333333333333</ele><time>2026-04-11T12:53:21.86Z</time></trkpt><trkpt lat="40.8757383" lon="14.1754917"><ele>342.0</ele><time>2026-04-11T12:53:23.86Z</time></trkpt><trkpt lat="40.8756983" lon="14.1755683"><ele>342.0</ele><time>2026-04-11T12:53:25.861Z</time></trkpt><trkpt lat="40.8756433" lon="14.17563"><ele>342.0</ele><time>2026-04-11T12:53:27.86Z</time></trkpt><trkpt lat="40.8755867" lon="14.1756983"><ele>342.0</ele><time>2026-04-11T12:53:29.86Z</time></trkpt><trkpt lat="40.8755083" lon="14.1757583"><ele>342.0</ele><time>2026-04-11T12:53:31.861Z</time></trkpt><trkpt lat="40.8754633" lon="14.1758317"><ele>342.0</ele><time>2026-04-11T12:53:33.859Z</time></trkpt><trkpt lat="40.8754283" lon="14.175915"><ele>342.0</ele><time>2026-04-11T12:53:35.859Z</time></trkpt><trkpt lat="40.8754183" lon="14.1760033"><ele>342.1428571428571</ele><time>2026-04-11T12:53:37.862Z</time></trkpt><trkpt lat="40.8754217" lon="14.1761"><ele>342.2857142857143</ele><time>2026-04-11T12:53:39.86Z</time></trkpt><trkpt lat="40.875415" lon="14.1762033"><ele>342.42857142857144</ele><time>2026-04-11T12:53:41.861Z</time></trkpt><trkpt lat="40.8754067" lon="14.176305"><ele>342.57142857142856</ele><time>2026-04-11T12:53:43.859Z</time></trkpt><trkpt lat="40.8753883" lon="14.1763917"><ele>342.7142857142857</ele><time>2026-04-11T12:53:45.858Z</time></trkpt><trkpt lat="40.8753583" lon="14.1764783"><ele>342.85714285714283</ele><time>2026-04-11T12:53:47.859Z</time></trkpt><trkpt lat="40.8753367" lon="14.1765633"><ele>343.0</ele><time>2026-04-11T12:53:49.86Z</time></trkpt><trkpt lat="40.8753183" lon="14.1766583"><ele>342.5</ele><time>2026-04-11T12:53:51.859Z</time></trkpt><trkpt lat="40.8752933" lon="14.1767417"><ele>342.0</ele><time>2026-04-11T12:53:53.858Z</time></trkpt><trkpt lat="40.8752717" lon="14.1768267"><ele>341.5</ele><time>2026-04-11T12:53:55.86Z</time></trkpt><trkpt lat="40.8752417" lon="14.1769033"><ele>341.0</ele><time>2026-04-11T12:53:57.858Z</time></trkpt><trkpt lat="40.8751717" lon="14.17697"><ele>340.5</ele><time>2026-04-11T12:54:00.859Z</time></trkpt><trkpt lat="40.87509" lon="14.1770167"><ele>340.0</ele><time>2026-04-11T12:54:03.86Z</time></trkpt><trkpt lat="40.87501" lon="14.1770617"><ele>341.8333333333333</ele><time>2026-04-11T12:54:06.859Z</time></trkpt><trkpt lat="40.8749267" lon="14.177095"><ele>343.66666666666663</ele><time>2026-04-11T12:54:09.86Z</time></trkpt><trkpt lat="40.8748567" lon="14.1771517"><ele>345.5</ele><time>2026-04-11T12:54:13.858Z</time></trkpt><trkpt lat="40.8747883" lon="14.1771767"><ele>347.3333333333333</ele><time>2026-04-11T12:54:16.858Z</time></trkpt><trkpt lat="40.8747167" lon="14.1772117"><ele>349.1666666666667</ele><time>2026-04-11T12:54:20.86Z</time></trkpt><trkpt lat="40.8746467" lon="14.17724"><ele>351.0</ele><time>2026-04-11T12:54:23.861Z</time></trkpt><trkpt lat="40.8745683" lon="14.1772883"><ele>351.5</ele><time>2026-04-11T12:54:26.859Z</time></trkpt><trkpt lat="40.874485" lon="14.1773617"><ele>352.0</ele><time>2026-04-11T12:54:29.858Z</time></trkpt><trkpt lat="40.8744267" lon="14.1774333"><ele>352.5</ele><time>2026-04-11T12:54:32.858Z</time></trkpt><trkpt lat="40.8743683" lon="14.177505"><ele>353.0</ele><time>2026-04-11T12:54:35.859Z</time></trkpt><trkpt lat="40.8743333" lon="14.1776117"><ele>353.5</ele><time>2026-04-11T12:54:38.862Z</time></trkpt><trkpt lat="40.8743117" lon="14.1777017"><ele>354.0</ele><time>2026-04-11T12:54:40.862Z</time></trkpt><trkpt lat="40.8743083" lon="14.1777967"><ele>354.0</ele><time>2026-04-11T12:54:42.858Z</time></trkpt><trkpt lat="40.8743" lon="14.17789"><ele>354.0</ele><time>2026-04-11T12:54:44.858Z</time></trkpt><trkpt lat="40.874295" lon="14.1779817"><ele>354.0</ele><time>2026-04-11T12:54:46.859Z</time></trkpt><trkpt lat="40.8742967" lon="14.178075"><ele>354.0</ele><time>2026-04-11T12:54:48.86Z</time></trkpt><trkpt lat="40.874285" lon="14.1781667"><ele>354.0</ele><time>2026-04-11T12:54:50.86Z</time></trkpt><trkpt lat="40.8742733" lon="14.178265"><ele>354.0</ele><time>2026-04-11T12:54:52.859Z</time></trkpt><trkpt lat="40.8742617" lon="14.1783617"><ele>354.0</ele><time>2026-04-11T12:54:54.859Z</time></trkpt><trkpt lat="40.87425" lon="14.1784617"><ele>354.5714285714286</ele><time>2026-04-11T12:54:56.86Z</time></trkpt><trkpt lat="40.8742367" lon="14.1785583"><ele>355.1428571428571</ele><time>2026-04-11T12:54:58.859Z</time></trkpt><trkpt lat="40.8742217" lon="14.1786567"><ele>355.7142857142857</ele><time>2026-04-11T12:55:00.861Z</time></trkpt><trkpt lat="40.8742" lon="14.1787467"><ele>356.28571428571433</ele><time>2026-04-11T12:55:02.859Z</time></trkpt><trkpt lat="40.8742" lon="14.178835"><ele>356.8571428571429</ele><time>2026-04-11T12:55:04.859Z</time></trkpt><trkpt lat="40.8742083" lon="14.17892"><ele>357.42857142857144</ele><time>2026-04-11T12:55:06.86Z</time></trkpt><trkpt lat="40.8742033" lon="14.1790283"><ele>358.0</ele><time>2026-04-11T12:55:09.86Z</time></trkpt><trkpt lat="40.8741983" lon="14.1791417"><ele>358.42857142857144</ele><time>2026-04-11T12:55:12.858Z</time></trkpt><trkpt lat="40.8741967" lon="14.1792283"><ele>358.8571428571429</ele><time>2026-04-11T12:55:14.86Z</time></trkpt><trkpt lat="40.8741867" lon="14.17932"><ele>359.28571428571433</ele><time>2026-04-11T12:55:16.86Z</time></trkpt><trkpt lat="40.87417" lon="14.1794167"><ele>359.7142857142857</ele><time>2026-04-11T12:55:18.86Z</time></trkpt><trkpt lat="40.8741467" lon="14.179505"><ele>360.1428571428571</ele><time>2026-04-11T12:55:20.859Z</time></trkpt><trkpt lat="40.8741367" lon="14.1795917"><ele>360.5714285714286</ele><time>2026-04-11T12:55:22.857Z</time></trkpt><trkpt lat="40.874095" lon="14.179675"><ele>361.0</ele><time>2026-04-11T12:55:24.859Z</time></trkpt><trkpt lat="40.8740667" lon="14.179765"><ele>361.0</ele><time>2026-04-11T12:55:26.858Z</time></trkpt><trkpt lat="40.87403" lon="14.1798483"><ele>361.0</ele><time>2026-04-11T12:55:28.859Z</time></trkpt><trkpt lat="40.8740067" lon="14.179935"><ele>361.0</ele><time>2026-04-11T12:55:30.858Z</time></trkpt><trkpt lat="40.8739767" lon="14.1800167"><ele>361.0</ele><time>2026-04-11T12:55:32.859Z</time></trkpt><trkpt lat="40.8739583" lon="14.18011"><ele>361.0</ele><time>2026-04-11T12:55:34.861Z</time></trkpt><trkpt lat="40.873935" lon="14.1801983"><ele>361.0</ele><time>2026-04-11T12:55:36.859Z</time></trkpt><trkpt lat="40.8739183" lon="14.1802883"><ele>361.0</ele><time>2026-04-11T12:55:38.859Z</time></trkpt><trkpt lat="40.8738983" lon="14.1803767"><ele>361.5714285714286</ele><time>2026-04-11T12:55:40.858Z</time></trkpt><trkpt lat="40.87387" lon="14.1804567"><ele>362.1428571428571</ele><time>2026-04-11T12:55:42.859Z</time></trkpt><trkpt lat="40.8738383" lon="14.1805517"><ele>362.7142857142857</ele><time>2026-04-11T12:55:45.858Z</time></trkpt><trkpt lat="40.8738183" lon="14.180645"><ele>363.28571428571433</ele><time>2026-04-11T12:55:48.858Z</time></trkpt><trkpt lat="40.8737933" lon="14.1807367"><ele>363.8571428571429</ele><time>2026-04-11T12:55:52.859Z</time></trkpt><trkpt lat="40.8737633" lon="14.18082"><ele>364.42857142857144</ele><time>2026-04-11T12:55:55.858Z</time></trkpt><trkpt lat="40.87371" lon="14.1809"><ele>365.0</ele><time>2026-04-11T12:55:58.856Z</time></trkpt><trkpt lat="40.8736567" lon="14.1810117"><ele>365.0</ele><time>2026-04-11T12:56:01.856Z</time></trkpt><trkpt lat="40.8736117" lon="14.1811483"><ele>365.0</ele><time>2026-04-11T12:56:03.856Z</time></trkpt><trkpt lat="40.87357" lon="14.1812917"><ele>365.0</ele><time>2026-04-11T12:56:05.856Z</time></trkpt><trkpt lat="40.8735533" lon="14.1814417"><ele>365.0</ele><time>2026-04-11T12:56:07.856Z</time></trkpt><trkpt lat="40.8735467" lon="14.181585"><ele>364.83333333333337</ele><time>2026-04-11T12:56:09.856Z</time></trkpt><trkpt lat="40.8735167" lon="14.1816983"><ele>364.6666666666667</ele><time>2026-04-11T12:56:11.858Z</time></trkpt><trkpt lat="40.8734617" lon="14.18179"><ele>364.5</ele><time>2026-04-11T12:56:13.855Z</time></trkpt><trkpt lat="40.8734217" lon="14.18187"><ele>364.3333333333333</ele><time>2026-04-11T12:56:15.856Z</time></trkpt><trkpt lat="40.8733783" lon="14.1819383"><ele>364.16666666666663</ele><time>2026-04-11T12:56:17.856Z</time></trkpt><trkpt lat="40.87334" lon="14.1820217"><ele>364.0</ele><time>2026-04-11T12:56:19.856Z</time></trkpt><trkpt lat="40.8732883" lon="14.18211"><ele>364.0</ele><time>2026-04-11T12:56:21.856Z</time></trkpt><trkpt lat="40.8732283" lon="14.1822017"><ele>364.0</ele><time>2026-04-11T12:56:23.856Z</time></trkpt><trkpt lat="40.873155" lon="14.1822867"><ele>364.0</ele><time>2026-04-11T12:56:25.857Z</time></trkpt><trkpt lat="40.8730817" lon="14.18237"><ele>364.0</ele><time>2026-04-11T12:56:27.854Z</time></trkpt><trkpt lat="40.8730383" lon="14.1824517"><ele>364.0</ele><time>2026-04-11T12:56:29.856Z</time></trkpt><trkpt lat="40.872975" lon="14.182545"><ele>363.79999999999995</ele><time>2026-04-11T12:56:31.856Z</time></trkpt><trkpt lat="40.8729133" lon="14.1826367"><ele>363.59999999999997</ele><time>2026-04-11T12:56:33.856Z</time></trkpt><trkpt lat="40.87286" lon="14.1827333"><ele>363.4</ele><time>2026-04-11T12:56:35.858Z</time></trkpt><trkpt lat="40.8727817" lon="14.1828183"><ele>363.2</ele><time>2026-04-11T12:56:37.856Z</time></trkpt><trkpt lat="40.8727033" lon="14.182895"><ele>363.0</ele><time>2026-04-11T12:56:39.856Z</time></trkpt><trkpt lat="40.8726167" lon="14.1829533"><ele>363.1666666666667</ele><time>2026-04-11T12:56:41.856Z</time></trkpt><trkpt lat="40.87253" lon="14.183"><ele>363.3333333333333</ele><time>2026-04-11T12:56:43.858Z</time></trkpt><trkpt lat="40.87244" lon="14.1830183"><ele>363.5</ele><time>2026-04-11T12:56:45.856Z</time></trkpt><trkpt lat="40.8723733" lon="14.1829617"><ele>363.66666666666663</ele><time>2026-04-11T12:56:47.856Z</time></trkpt><trkpt lat="40.8723267" lon="14.1828667"><ele>363.8333333333333</ele><time>2026-04-11T12:56:49.856Z</time></trkpt><trkpt lat="40.8722717" lon="14.1827867"><ele>364.0</ele><time>2026-04-11T12:56:51.856Z</time></trkpt><trkpt lat="40.872195" lon="14.1827433"><ele>364.0</ele><time>2026-04-11T12:56:53.856Z</time></trkpt><trkpt lat="40.8721267" lon="14.1827233"><ele>364.0</ele><time>2026-04-11T12:56:55.856Z</time></trkpt><trkpt lat="40.87205" lon="14.1827183"><ele>364.0</ele><time>2026-04-11T12:56:57.856Z</time></trkpt><trkpt lat="40.8719633" lon="14.1827017"><ele>364.0</ele><time>2026-04-11T12:56:59.856Z</time></trkpt><trkpt lat="40.8718783" lon="14.182705"><ele>364.0</ele><time>2026-04-11T12:57:01.857Z</time></trkpt><trkpt lat="40.8717667" lon="14.18277"><ele>364.0</ele><time>2026-04-11T12:57:03.857Z</time></trkpt><trkpt lat="40.871685" lon="14.18286"><ele>363.16666666666663</ele><time>2026-04-11T12:57:05.858Z</time></trkpt><trkpt lat="40.871625" lon="14.182945"><ele>362.3333333333333</ele><time>2026-04-11T12:57:07.856Z</time></trkpt><trkpt lat="40.8715833" lon="14.1830367"><ele>361.5</ele><time>2026-04-11T12:57:09.855Z</time></trkpt><trkpt lat="40.871525" lon="14.1831417"><ele>360.6666666666667</ele><time>2026-04-11T12:57:11.856Z</time></trkpt><trkpt lat="40.87146" lon="14.18322"><ele>359.83333333333337</ele><time>2026-04-11T12:57:13.857Z</time></trkpt><trkpt lat="40.8714217" lon="14.1833167"><ele>359.0</ele><time>2026-04-11T12:57:15.855Z</time></trkpt><trkpt lat="40.8714067" lon="14.1834167"><ele>360.7142857142857</ele><time>2026-04-11T12:57:17.856Z</time></trkpt><trkpt lat="40.8714033" lon="14.1835117"><ele>362.42857142857144</ele><time>2026-04-11T12:57:19.855Z</time></trkpt><trkpt lat="40.871415" lon="14.183615"><ele>364.1428571428571</ele><time>2026-04-11T12:57:21.856Z</time></trkpt><trkpt lat="40.8714167" lon="14.183715"><ele>365.8571428571429</ele><time>2026-04-11T12:57:23.856Z</time></trkpt><trkpt lat="40.8714167" lon="14.1838117"><ele>367.57142857142856</ele><time>2026-04-11T12:57:25.857Z</time></trkpt><trkpt lat="40.871405" lon="14.1839"><ele>369.2857142857143</ele><time>2026-04-11T12:57:27.856Z</time></trkpt><trkpt lat="40.8713867" lon="14.18398"><ele>371.0</ele><time>2026-04-11T12:57:29.856Z</time></trkpt><trkpt lat="40.87136" lon="14.1840567"><ele>371.6</ele><time>2026-04-11T12:57:31.856Z</time></trkpt><trkpt lat="40.8713183" lon="14.1841783"><ele>372.20000000000005</ele><time>2026-04-11T12:57:34.856Z</time></trkpt><trkpt lat="40.8712767" lon="14.1842667"><ele>372.79999999999995</ele><time>2026-04-11T12:57:36.856Z</time></trkpt><trkpt lat="40.8712283" lon="14.18441"><ele>373.4</ele><time>2026-04-11T12:57:39.856Z</time></trkpt><trkpt lat="40.8711633" lon="14.1845083"><ele>374.0</ele><time>2026-04-11T12:57:41.857Z</time></trkpt><trkpt lat="40.8711017" lon="14.1846"><ele>374.0</ele><time>2026-04-11T12:57:43.855Z</time></trkpt><trkpt lat="40.8710283" lon="14.18469"><ele>374.0</ele><time>2026-04-11T12:57:45.859Z</time></trkpt><trkpt lat="40.87096" lon="14.18478"><ele>374.0</ele><time>2026-04-11T12:57:47.857Z</time></trkpt><trkpt lat="40.870895" lon="14.18486"><ele>374.0</ele><time>2026-04-11T12:57:49.856Z</time></trkpt><trkpt lat="40.8708317" lon="14.18494"><ele>374.0</ele><time>2026-04-11T12:57:51.856Z</time></trkpt><trkpt lat="40.8707717" lon="14.185015"><ele>374.33333333333337</ele><time>2026-04-11T12:57:53.856Z</time></trkpt><trkpt lat="40.870715" lon="14.1850867"><ele>374.6666666666667</ele><time>2026-04-11T12:57:55.856Z</time></trkpt><trkpt lat="40.87066" lon="14.18517"><ele>375.0</ele><time>2026-04-11T12:57:57.856Z</time></trkpt><trkpt lat="40.8706033" lon="14.18523"><ele>375.3333333333333</ele><time>2026-04-11T12:57:59.855Z</time></trkpt><trkpt lat="40.8705433" lon="14.1853067"><ele>375.66666666666663</ele><time>2026-04-11T12:58:02.856Z</time></trkpt><trkpt lat="40.87052" lon="14.1854167"><ele>376.0</ele><time>2026-04-11T12:58:05.856Z</time></trkpt><trkpt lat="40.8705033" lon="14.185535"><ele>376.0</ele><time>2026-04-11T12:58:08.857Z</time></trkpt><trkpt lat="40.8704867" lon="14.1856533"><ele>376.0</ele><time>2026-04-11T12:58:11.857Z</time></trkpt><trkpt lat="40.87048" lon="14.1857383"><ele>376.0</ele><time>2026-04-11T12:58:13.855Z</time></trkpt><trkpt lat="40.8704733" lon="14.185855"><ele>376.0</ele><time>2026-04-11T12:58:16.856Z</time></trkpt><trkpt lat="40.8704733" lon="14.1859383"><ele>376.0</ele><time>2026-04-11T12:58:18.857Z</time></trkpt><trkpt lat="40.8704733" lon="14.1860217"><ele>376.0</ele><time>2026-04-11T12:58:20.857Z</time></trkpt><trkpt lat="40.87049" lon="14.1861183"><ele>376.0</ele><time>2026-04-11T12:58:22.858Z</time></trkpt><trkpt lat="40.87051" lon="14.1862433"><ele>376.42857142857144</ele><time>2026-04-11T12:58:25.856Z</time></trkpt><trkpt lat="40.8705283" lon="14.186335"><ele>376.85714285714283</ele><time>2026-04-11T12:58:27.856Z</time></trkpt><trkpt lat="40.8705483" lon="14.18644"><ele>377.28571428571433</ele><time>2026-04-11T12:58:30.857Z</time></trkpt><trkpt lat="40.8705333" lon="14.1865267"><ele>377.7142857142857</ele><time>2026-04-11T12:58:32.857Z</time></trkpt><trkpt lat="40.8705283" lon="14.1866117"><ele>378.14285714285717</ele><time>2026-04-11T12:58:34.856Z</time></trkpt><trkpt lat="40.8705267" lon="14.1866967"><ele>378.5714285714286</ele><time>2026-04-11T12:58:36.856Z</time></trkpt><trkpt lat="40.8705033" lon="14.186795"><ele>379.0</ele><time>2026-04-11T12:58:38.856Z</time></trkpt><trkpt lat="40.8704533" lon="14.1868817"><ele>379.0</ele><time>2026-04-11T12:58:41.856Z</time></trkpt><trkpt lat="40.870375" lon="14.18689"><ele>379.0</ele><time>2026-04-11T12:58:44.856Z</time></trkpt><trkpt lat="40.87028" lon="14.186865"><ele>379.0</ele><time>2026-04-11T12:58:47.858Z</time></trkpt><trkpt lat="40.87019" lon="14.1868633"><ele>379.0</ele><time>2026-04-11T12:58:50.858Z</time></trkpt><trkpt lat="40.8701217" lon="14.18686"><ele>379.0</ele><time>2026-04-11T12:58:52.856Z</time></trkpt><trkpt lat="40.8700467" lon="14.18686"><ele>379.0</ele><time>2026-04-11T12:58:54.857Z</time></trkpt><trkpt lat="40.8699667" lon="14.186855"><ele>380.0</ele><time>2026-04-11T12:58:56.857Z</time></trkpt><trkpt lat="40.8699017" lon="14.18685"><ele>381.0</ele><time>2026-04-11T12:58:58.856Z</time></trkpt><trkpt lat="40.8698233" lon="14.18684"><ele>382.0</ele><time>2026-04-11T12:59:00.856Z</time></trkpt><trkpt lat="40.86973" lon="14.1868317"><ele>383.0</ele><time>2026-04-11T12:59:02.856Z</time></trkpt><trkpt lat="40.8696483" lon="14.1868217"><ele>384.00000000000006</ele><time>2026-04-11T12:59:04.855Z</time></trkpt><trkpt lat="40.8695683" lon="14.18682"><ele>385.0</ele><time>2026-04-11T12:59:06.857Z</time></trkpt><trkpt lat="40.8694883" lon="14.18681"><ele>385.00000000000006</ele><time>2026-04-11T12:59:08.856Z</time></trkpt><trkpt lat="40.8694133" lon="14.1867783"><ele>385.0</ele><time>2026-04-11T12:59:10.856Z</time></trkpt><trkpt lat="40.86935" lon="14.1867383"><ele>385.0</ele><time>2026-04-11T12:59:12.856Z</time></trkpt><trkpt lat="40.869285" lon="14.186705"><ele>385.0</ele><time>2026-04-11T12:59:14.855Z</time></trkpt><trkpt lat="40.8691983" lon="14.1866583"><ele>385.00000000000006</ele><time>2026-04-11T12:59:17.857Z</time></trkpt><trkpt lat="40.8691367" lon="14.1866233"><ele>385.0</ele><time>2026-04-11T12:59:19.856Z</time></trkpt><trkpt lat="40.8690667" lon="14.1865783"><ele>384.6666666666667</ele><time>2026-04-11T12:59:22.856Z</time></trkpt><trkpt lat="40.8689867" lon="14.1865633"><ele>384.33333333333337</ele><time>2026-04-11T12:59:25.857Z</time></trkpt><trkpt lat="40.8689067" lon="14.1865333"><ele>384.0</ele><time>2026-04-11T12:59:28.856Z</time></trkpt><trkpt lat="40.868825" lon="14.1865017"><ele>383.6666666666667</ele><time>2026-04-11T12:59:31.858Z</time></trkpt><trkpt lat="40.8687367" lon="14.1864933"><ele>383.33333333333337</ele><time>2026-04-11T12:59:34.86Z</time></trkpt><trkpt lat="40.868665" lon="14.1865033"><ele>383.0</ele><time>2026-04-11T12:59:37.856Z</time></trkpt><trkpt lat="40.8685883" lon="14.186515"><ele>384.1666666666667</ele><time>2026-04-11T12:59:40.856Z</time></trkpt><trkpt lat="40.8685067" lon="14.18653"><ele>385.33333333333337</ele><time>2026-04-11T12:59:43.857Z</time></trkpt><trkpt lat="40.8684233" lon="14.1865667"><ele>386.5</ele><time>2026-04-11T12:59:46.857Z</time></trkpt><trkpt lat="40.86834" lon="14.1865883"><ele>387.6666666666667</ele><time>2026-04-11T12:59:49.856Z</time></trkpt><trkpt lat="40.8682717" lon="14.1866183"><ele>388.8333333333333</ele><time>2026-04-11T12:59:52.857Z</time></trkpt><trkpt lat="40.8681967" lon="14.186645"><ele>390.0</ele><time>2026-04-11T12:59:55.857Z</time></trkpt><trkpt lat="40.868125" lon="14.1866683"><ele>391.1666666666667</ele><time>2026-04-11T12:59:58.857Z</time></trkpt><trkpt lat="40.8680567" lon="14.1867133"><ele>392.33333333333337</ele><time>2026-04-11T13:00:02.858Z</time></trkpt><trkpt lat="40.867995" lon="14.1867783"><ele>393.5</ele><time>2026-04-11T13:00:06.857Z</time></trkpt><trkpt lat="40.8679267" lon="14.1868183"><ele>394.6666666666667</ele><time>2026-04-11T13:00:09.857Z</time></trkpt><trkpt lat="40.8678617" lon="14.1868533"><ele>395.83333333333337</ele><time>2026-04-11T13:00:12.857Z</time></trkpt><trkpt lat="40.867795" lon="14.1869233"><ele>397.0</ele><time>2026-04-11T13:00:15.858Z</time></trkpt><trkpt lat="40.867735" lon="14.1870217"><ele>397.00000000000006</ele><time>2026-04-11T13:00:18.857Z</time></trkpt><trkpt lat="40.867695" lon="14.1871067"><ele>397.0</ele><time>2026-04-11T13:00:21.858Z</time></trkpt><trkpt lat="40.8676167" lon="14.1871733"><ele>397.0</ele><time>2026-04-11T13:00:24.856Z</time></trkpt><trkpt lat="40.867535" lon="14.1872433"><ele>397.0</ele><time>2026-04-11T13:00:27.857Z</time></trkpt><trkpt lat="40.867475" lon="14.1872967"><ele>397.00000000000006</ele><time>2026-04-11T13:00:29.858Z</time></trkpt><trkpt lat="40.8674017" lon="14.1873567"><ele>397.0</ele><time>2026-04-11T13:00:32.856Z</time></trkpt><trkpt lat="40.86733" lon="14.18739"><ele>397.85714285714283</ele><time>2026-04-11T13:00:35.856Z</time></trkpt><trkpt lat="40.867265" lon="14.187425"><ele>398.71428571428567</ele><time>2026-04-11T13:00:38.856Z</time></trkpt><trkpt lat="40.8672083" lon="14.1874717"><ele>399.57142857142856</ele><time>2026-04-11T13:00:41.856Z</time></trkpt><trkpt lat="40.8671467" lon="14.18752"><ele>400.42857142857144</ele><time>2026-04-11T13:00:44.857Z</time></trkpt><trkpt lat="40.8670683" lon="14.1875517"><ele>401.2857142857143</ele><time>2026-04-11T13:00:48.857Z</time></trkpt><trkpt lat="40.8669983" lon="14.187565"><ele>402.14285714285717</ele><time>2026-04-11T13:00:51.857Z</time></trkpt><trkpt lat="40.8669283" lon="14.18757"><ele>403.0</ele><time>2026-04-11T13:00:53.857Z</time></trkpt><trkpt lat="40.86686" lon="14.1875817"><ele>403.0</ele><time>2026-04-11T13:00:55.858Z</time></trkpt><trkpt lat="40.8667983" lon="14.1876067"><ele>403.0</ele><time>2026-04-11T13:00:57.86Z</time></trkpt><trkpt lat="40.8667317" lon="14.1876367"><ele>403.0</ele><time>2026-04-11T13:00:59.857Z</time></trkpt><trkpt lat="40.866685" lon="14.1877083"><ele>403.0</ele><time>2026-04-11T13:01:02.857Z</time></trkpt><trkpt lat="40.8666417" lon="14.1877833"><ele>403.0</ele><time>2026-04-11T13:01:05.859Z</time></trkpt><trkpt lat="40.866595" lon="14.18785"><ele>403.0</ele><time>2026-04-11T13:01:08.862Z</time></trkpt><trkpt lat="40.86654" lon="14.1879183"><ele>403.0</ele><time>2026-04-11T13:01:11.862Z</time></trkpt><trkpt lat="40.86649" lon="14.1880267"><ele>403.33333333333337</ele><time>2026-04-11T13:01:14.859Z</time></trkpt><trkpt lat="40.8664517" lon="14.1881033"><ele>403.6666666666667</ele><time>2026-04-11T13:01:16.859Z</time></trkpt><trkpt lat="40.8664083" lon="14.1881783"><ele>404.0</ele><time>2026-04-11T13:01:18.859Z</time></trkpt><trkpt lat="40.8663617" lon="14.1882483"><ele>404.33333333333337</ele><time>2026-04-11T13:01:20.858Z</time></trkpt><trkpt lat="40.8663133" lon="14.1883383"><ele>404.6666666666667</ele><time>2026-04-11T13:01:22.859Z</time></trkpt><trkpt lat="40.866265" lon="14.1884233"><ele>405.0</ele><time>2026-04-11T13:01:24.858Z</time></trkpt><trkpt lat="40.8662267" lon="14.1885083"><ele>406.0</ele><time>2026-04-11T13:01:26.859Z</time></trkpt><trkpt lat="40.866195" lon="14.1886033"><ele>407.0</ele><time>2026-04-11T13:01:28.859Z</time></trkpt><trkpt lat="40.8661667" lon="14.1887"><ele>408.0</ele><time>2026-04-11T13:01:30.859Z</time></trkpt><trkpt lat="40.8661333" lon="14.188785"><ele>409.0</ele><time>2026-04-11T13:01:32.858Z</time></trkpt><trkpt lat="40.8660933" lon="14.1888717"><ele>410.0</ele><time>2026-04-11T13:01:34.857Z</time></trkpt><trkpt lat="40.8660417" lon="14.1889533"><ele>411.0</ele><time>2026-04-11T13:01:36.858Z</time></trkpt><trkpt lat="40.8659917" lon="14.1890433"><ele>411.0</ele><time>2026-04-11T13:01:38.857Z</time></trkpt><trkpt lat="40.86595" lon="14.1891317"><ele>411.0</ele><time>2026-04-11T13:01:40.856Z</time></trkpt><trkpt lat="40.8658933" lon="14.189225"><ele>411.0</ele><time>2026-04-11T13:01:42.857Z</time></trkpt><trkpt lat="40.8658383" lon="14.1893067"><ele>411.0</ele><time>2026-04-11T13:01:44.856Z</time></trkpt><trkpt lat="40.8657733" lon="14.1893817"><ele>411.0</ele><time>2026-04-11T13:01:46.855Z</time></trkpt><trkpt lat="40.8656933" lon="14.18943"><ele>411.0</ele><time>2026-04-11T13:01:48.857Z</time></trkpt><trkpt lat="40.8656183" lon="14.1894817"><ele>411.7142857142857</ele><time>2026-04-11T13:01:50.856Z</time></trkpt><trkpt lat="40.8655483" lon="14.1895467"><ele>412.42857142857144</ele><time>2026-04-11T13:01:52.861Z</time></trkpt><trkpt lat="40.8654817" lon="14.189585"><ele>413.1428571428571</ele><time>2026-04-11T13:01:54.856Z</time></trkpt><trkpt lat="40.8654133" lon="14.1895917"><ele>413.8571428571429</ele><time>2026-04-11T13:01:56.855Z</time></trkpt><trkpt lat="40.8653467" lon="14.1896017"><ele>414.5714285714286</ele><time>2026-04-11T13:01:58.856Z</time></trkpt><trkpt lat="40.8652633" lon="14.189615"><ele>415.2857142857143</ele><time>2026-04-11T13:02:01.857Z</time></trkpt><trkpt lat="40.8652" lon="14.1896383"><ele>416.0</ele><time>2026-04-11T13:02:03.858Z</time></trkpt><trkpt lat="40.8651383" lon="14.1896633"><ele>416.4285714285714</ele><time>2026-04-11T13:02:05.858Z</time></trkpt><trkpt lat="40.8650717" lon="14.189675"><ele>416.8571428571429</ele><time>2026-04-11T13:02:07.858Z</time></trkpt><trkpt lat="40.8650067" lon="14.189685"><ele>417.2857142857143</ele><time>2026-04-11T13:02:09.858Z</time></trkpt><trkpt lat="40.8649467" lon="14.1897217"><ele>417.71428571428567</ele><time>2026-04-11T13:02:11.857Z</time></trkpt><trkpt lat="40.8648933" lon="14.1897683"><ele>418.1428571428571</ele><time>2026-04-11T13:02:13.858Z</time></trkpt><trkpt lat="40.8648083" lon="14.18983"><ele>418.57142857142856</ele><time>2026-04-11T13:02:16.858Z</time></trkpt><trkpt lat="40.8647333" lon="14.1898733"><ele>419.0</ele><time>2026-04-11T13:02:18.858Z</time></trkpt><trkpt lat="40.8646833" lon="14.189925"><ele>418.99999999999994</ele><time>2026-04-11T13:02:20.857Z</time></trkpt><trkpt lat="40.8646467" lon="14.1899933"><ele>419.0</ele><time>2026-04-11T13:02:22.858Z</time></trkpt><trkpt lat="40.8645933" lon="14.1900967"><ele>419.0</ele><time>2026-04-11T13:02:24.859Z</time></trkpt><trkpt lat="40.86454" lon="14.1901833"><ele>419.0</ele><time>2026-04-11T13:02:26.858Z</time></trkpt><trkpt lat="40.8644767" lon="14.1902433"><ele>418.99999999999994</ele><time>2026-04-11T13:02:28.857Z</time></trkpt><trkpt lat="40.86441" lon="14.190295"><ele>419.0</ele><time>2026-04-11T13:02:30.857Z</time></trkpt><trkpt lat="40.86434" lon="14.190335"><ele>418.16666666666663</ele><time>2026-04-11T13:02:32.857Z</time></trkpt><trkpt lat="40.864265" lon="14.190375"><ele>417.3333333333333</ele><time>2026-04-11T13:02:34.858Z</time></trkpt><trkpt lat="40.8642017" lon="14.1904083"><ele>416.5</ele><time>2026-04-11T13:02:36.857Z</time></trkpt><trkpt lat="40.86414" lon="14.1904833"><ele>415.66666666666663</ele><time>2026-04-11T13:02:39.857Z</time></trkpt><trkpt lat="40.8642267" lon="14.1906383"><ele>414.8333333333333</ele><time>2026-04-11T13:04:05.857Z</time></trkpt><trkpt lat="40.86428" lon="14.190685"><ele>414.0</ele><time>2026-04-11T13:04:07.858Z</time></trkpt><trkpt lat="40.8643367" lon="14.1907383"><ele>414.0</ele><time>2026-04-11T13:04:09.856Z</time></trkpt><trkpt lat="40.86434" lon="14.190825"><ele>414.0</ele><time>2026-04-11T13:04:12.856Z</time></trkpt><trkpt lat="40.8644117" lon="14.190875"><ele>414.0</ele><time>2026-04-11T13:04:15.857Z</time></trkpt><trkpt lat="40.8643833" lon="14.191015"><ele>414.0</ele><time>2026-04-11T13:04:16.858Z</time></trkpt><trkpt lat="40.8643233" lon="14.1910983"><ele>414.0</ele><time>2026-04-11T13:04:17.857Z</time></trkpt><trkpt lat="40.8642417" lon="14.19117"><ele>414.0</ele><time>2026-04-11T13:04:18.859Z</time></trkpt><trkpt lat="40.8641167" lon="14.1912633"><ele>414.8571428571429</ele><time>2026-04-11T13:04:19.859Z</time></trkpt><trkpt lat="40.8640417" lon="14.1913333"><ele>415.7142857142857</ele><time>2026-04-11T13:04:20.857Z</time></trkpt><trkpt lat="40.8639867" lon="14.1913917"><ele>416.57142857142856</ele><time>2026-04-11T13:04:21.856Z</time></trkpt><trkpt lat="40.863935" lon="14.1914533"><ele>417.42857142857144</ele><time>2026-04-11T13:04:22.856Z</time></trkpt><trkpt lat="40.86388" lon="14.19152"><ele>418.2857142857143</ele><time>2026-04-11T13:04:23.857Z</time></trkpt><trkpt lat="40.8638367" lon="14.191585"><ele>419.14285714285717</ele><time>2026-04-11T13:04:24.856Z</time></trkpt><trkpt lat="40.863785" lon="14.191645"><ele>420.0</ele><time>2026-04-11T13:04:25.857Z</time></trkpt><trkpt lat="40.8637033" lon="14.1917667"><ele>420.0</ele><time>2026-04-11T13:04:27.857Z</time></trkpt><trkpt lat="40.8636767" lon="14.191845"><ele>420.0</ele><time>2026-04-11T13:04:28.858Z</time></trkpt><trkpt lat="40.8636567" lon="14.1919317"><ele>420.0</ele><time>2026-04-11T13:04:29.86Z</time></trkpt><trkpt lat="40.8636417" lon="14.1920183"><ele>420.0</ele><time>2026-04-11T13:04:30.859Z</time></trkpt><trkpt lat="40.863625" lon="14.1921083"><ele>420.0</ele><time>2026-04-11T13:04:31.858Z</time></trkpt><trkpt lat="40.8636067" lon="14.1922083"><ele>420.0</ele><time>2026-04-11T13:04:32.859Z</time></trkpt><trkpt lat="40.8636" lon="14.19232"><ele>420.0</ele><time>2026-04-11T13:04:33.862Z</time></trkpt><trkpt lat="40.8635917" lon="14.1924383"><ele>419.4</ele><time>2026-04-11T13:04:34.858Z</time></trkpt><trkpt lat="40.8635917" lon="14.19255"><ele>418.8</ele><time>2026-04-11T13:04:35.858Z</time></trkpt><trkpt lat="40.8636017" lon="14.1926617"><ele>418.20000000000005</ele><time>2026-04-11T13:04:36.857Z</time></trkpt><trkpt lat="40.8636167" lon="14.19277"><ele>417.6</ele><time>2026-04-11T13:04:37.858Z</time></trkpt><trkpt lat="40.8636433" lon="14.1928767"><ele>417.0</ele><time>2026-04-11T13:04:38.858Z</time></trkpt><trkpt lat="40.8637217" lon="14.1930067"><ele>417.0</ele><time>2026-04-11T13:04:39.856Z</time></trkpt><trkpt lat="40.8637767" lon="14.1931317"><ele>417.0</ele><time>2026-04-11T13:04:40.857Z</time></trkpt><trkpt lat="40.8638183" lon="14.193265"><ele>417.0</ele><time>2026-04-11T13:04:41.857Z</time></trkpt><trkpt lat="40.8638533" lon="14.193415"><ele>417.0</ele><time>2026-04-11T13:04:42.857Z</time></trkpt><trkpt lat="40.863875" lon="14.193565"><ele>416.25</ele><time>2026-04-11T13:04:43.859Z</time></trkpt><trkpt lat="40.863885" lon="14.1937133"><ele>415.5</ele><time>2026-04-11T13:04:44.858Z</time></trkpt><trkpt lat="40.8638983" lon="14.1938667"><ele>414.75</ele><time>2026-04-11T13:04:45.857Z</time></trkpt><trkpt lat="40.863925" lon="14.1940233"><ele>414.0</ele><time>2026-04-11T13:04:46.859Z</time></trkpt><trkpt lat="40.8639533" lon="14.194185"><ele>413.0</ele><time>2026-04-11T13:04:47.859Z</time></trkpt><trkpt lat="40.86399" lon="14.1943533"><ele>412.0</ele><time>2026-04-11T13:04:48.86Z</time></trkpt><trkpt lat="40.8640367" lon="14.1945183"><ele>411.0</ele><time>2026-04-11T13:04:49.859Z</time></trkpt><trkpt lat="40.864075" lon="14.1946717"><ele>410.0</ele><time>2026-04-11T13:04:50.861Z</time></trkpt><trkpt lat="40.86411" lon="14.1948183"><ele>409.0</ele><time>2026-04-11T13:04:51.859Z</time></trkpt><trkpt lat="40.8641333" lon="14.1949717"><ele>408.0</ele><time>2026-04-11T13:04:52.86Z</time></trkpt><trkpt lat="40.8641483" lon="14.1951233"><ele>407.0</ele><time>2026-04-11T13:04:53.859Z</time></trkpt><trkpt lat="40.86415" lon="14.1952767"><ele>406.0</ele><time>2026-04-11T13:04:54.862Z</time></trkpt><trkpt lat="40.8641467" lon="14.1954283"><ele>406.0</ele><time>2026-04-11T13:04:55.859Z</time></trkpt><trkpt lat="40.86414" lon="14.1955817"><ele>406.0</ele><time>2026-04-11T13:04:56.859Z</time></trkpt><trkpt lat="40.864145" lon="14.195725"><ele>406.0</ele><time>2026-04-11T13:04:57.861Z</time></trkpt><trkpt lat="40.8641483" lon="14.1958683"><ele>406.0</ele><time>2026-04-11T13:04:58.859Z</time></trkpt><trkpt lat="40.8641483" lon="14.1960133"><ele>406.0</ele><time>2026-04-11T13:04:59.86Z</time></trkpt><trkpt lat="40.864155" lon="14.1961633"><ele>404.25</ele><time>2026-04-11T13:05:00.859Z</time></trkpt><trkpt lat="40.8641683" lon="14.19632"><ele>402.5</ele><time>2026-04-11T13:05:01.861Z</time></trkpt><trkpt lat="40.8641867" lon="14.19648"><ele>400.75</ele><time>2026-04-11T13:05:02.859Z</time></trkpt><trkpt lat="40.8642" lon="14.1966383"><ele>399.0</ele><time>2026-04-11T13:05:03.86Z</time></trkpt><trkpt lat="40.8642" lon="14.1967917"><ele>397.6</ele><time>2026-04-11T13:05:04.858Z</time></trkpt><trkpt lat="40.8641967" lon="14.1969417"><ele>396.2</ele><time>2026-04-11T13:05:05.86Z</time></trkpt><trkpt lat="40.8641933" lon="14.1970783"><ele>394.8</ele><time>2026-04-11T13:05:06.859Z</time></trkpt><trkpt lat="40.86417" lon="14.1972"><ele>393.40000000000003</ele><time>2026-04-11T13:05:07.862Z</time></trkpt><trkpt lat="40.864135" lon="14.1973183"><ele>392.0</ele><time>2026-04-11T13:05:08.859Z</time></trkpt><trkpt lat="40.8640933" lon="14.1974367"><ele>391.20000000000005</ele><time>2026-04-11T13:05:09.857Z</time></trkpt><trkpt lat="40.8640617" lon="14.1975583"><ele>390.4</ele><time>2026-04-11T13:05:10.858Z</time></trkpt><trkpt lat="40.8640317" lon="14.1976783"><ele>389.6</ele><time>2026-04-11T13:05:11.858Z</time></trkpt><trkpt lat="40.8640033" lon="14.1978017"><ele>388.79999999999995</ele><time>2026-04-11T13:05:12.858Z</time></trkpt><trkpt lat="40.8639767" lon="14.19792"><ele>388.0</ele><time>2026-04-11T13:05:13.858Z</time></trkpt><trkpt lat="40.86395" lon="14.1980433"><ele>387.59999999999997</ele><time>2026-04-11T13:05:14.859Z</time></trkpt><trkpt lat="40.86392" lon="14.19817"><ele>387.2</ele><time>2026-04-11T13:05:15.858Z</time></trkpt><trkpt lat="40.863895" lon="14.1982933"><ele>386.8</ele><time>2026-04-11T13:05:16.86Z</time></trkpt><trkpt lat="40.8638617" lon="14.1984117"><ele>386.4</ele><time>2026-04-11T13:05:17.858Z</time></trkpt><trkpt lat="40.8638167" lon="14.19853"><ele>386.0</ele><time>2026-04-11T13:05:18.86Z</time></trkpt><trkpt lat="40.8637683" lon="14.1986483"><ele>386.0</ele><time>2026-04-11T13:05:19.86Z</time></trkpt><trkpt lat="40.863715" lon="14.1987667"><ele>386.0</ele><time>2026-04-11T13:05:20.858Z</time></trkpt><trkpt lat="40.8636583" lon="14.198885"><ele>386.0</ele><time>2026-04-11T13:05:21.858Z</time></trkpt><trkpt lat="40.8635967" lon="14.199"><ele>386.0</ele><time>2026-04-11T13:05:22.858Z</time></trkpt><trkpt lat="40.8635317" lon="14.199115"><ele>386.0</ele><time>2026-04-11T13:05:23.858Z</time></trkpt><trkpt lat="40.8634717" lon="14.199235"><ele>385.20000000000005</ele><time>2026-04-11T13:05:24.857Z</time></trkpt><trkpt lat="40.863415" lon="14.1993533"><ele>384.40000000000003</ele><time>2026-04-11T13:05:25.858Z</time></trkpt><trkpt lat="40.8633567" lon="14.1994683"><ele>383.6</ele><time>2026-04-11T13:05:26.86Z</time></trkpt><trkpt lat="40.8633" lon="14.1995883"><ele>382.8</ele><time>2026-04-11T13:05:27.858Z</time></trkpt><trkpt lat="40.8632417" lon="14.1997133"><ele>382.0</ele><time>2026-04-11T13:05:28.857Z</time></trkpt><trkpt lat="40.863185" lon="14.19984"><ele>381.0</ele><time>2026-04-11T13:05:29.858Z</time></trkpt><trkpt lat="40.8631283" lon="14.1999667"><ele>380.0</ele><time>2026-04-11T13:05:30.858Z</time></trkpt><trkpt lat="40.8630683" lon="14.2000933"><ele>379.0</ele><time>2026-04-11T13:05:31.857Z</time></trkpt><trkpt lat="40.8630083" lon="14.2002183"><ele>378.0</ele><time>2026-04-11T13:05:32.859Z</time></trkpt><trkpt lat="40.8629533" lon="14.2003467"><ele>377.0</ele><time>2026-04-11T13:05:33.858Z</time></trkpt><trkpt lat="40.86291" lon="14.2004867"><ele>377.0</ele><time>2026-04-11T13:05:34.858Z</time></trkpt><trkpt lat="40.86289" lon="14.2006317"><ele>377.0</ele><time>2026-04-11T13:05:35.858Z</time></trkpt><trkpt lat="40.86289" lon="14.2007717"><ele>377.0</ele><time>2026-04-11T13:05:36.867Z</time></trkpt><trkpt lat="40.862885" lon="14.2008983"><ele>377.0</ele><time>2026-04-11T13:05:37.867Z</time></trkpt><trkpt lat="40.862875" lon="14.201025"><ele>377.0</ele><time>2026-04-11T13:05:38.857Z</time></trkpt><trkpt lat="40.8628633" lon="14.2011533"><ele>375.8</ele><time>2026-04-11T13:05:39.857Z</time></trkpt><trkpt lat="40.862855" lon="14.2012817"><ele>374.6</ele><time>2026-04-11T13:05:40.858Z</time></trkpt><trkpt lat="40.8628467" lon="14.20141"><ele>373.40000000000003</ele><time>2026-04-11T13:05:41.858Z</time></trkpt><trkpt lat="40.8628483" lon="14.2015367"><ele>372.20000000000005</ele><time>2026-04-11T13:05:42.858Z</time></trkpt><trkpt lat="40.8628633" lon="14.201665"><ele>371.0</ele><time>2026-04-11T13:05:43.858Z</time></trkpt><trkpt lat="40.8628883" lon="14.2017917"><ele>370.6</ele><time>2026-04-11T13:05:44.858Z</time></trkpt><trkpt lat="40.862925" lon="14.2019117"><ele>370.20000000000005</ele><time>2026-04-11T13:05:45.858Z</time></trkpt><trkpt lat="40.8629667" lon="14.2020283"><ele>369.79999999999995</ele><time>2026-04-11T13:05:46.857Z</time></trkpt><trkpt lat="40.8630083" lon="14.2021483"><ele>369.4</ele><time>2026-04-11T13:05:47.857Z</time></trkpt><trkpt lat="40.8630517" lon="14.2022683"><ele>369.0</ele><time>2026-04-11T13:05:48.859Z</time></trkpt><trkpt lat="40.8630933" lon="14.2023883"><ele>368.4</ele><time>2026-04-11T13:05:49.858Z</time></trkpt><trkpt lat="40.86314" lon="14.2025167"><ele>367.79999999999995</ele><time>2026-04-11T13:05:50.861Z</time></trkpt><trkpt lat="40.8631717" lon="14.2026467"><ele>367.20000000000005</ele><time>2026-04-11T13:05:51.857Z</time></trkpt><trkpt lat="40.8632017" lon="14.2027883"><ele>366.6</ele><time>2026-04-11T13:05:52.858Z</time></trkpt><trkpt lat="40.8632233" lon="14.2029317"><ele>366.0</ele><time>2026-04-11T13:05:53.858Z</time></trkpt><trkpt lat="40.8632383" lon="14.2030717"><ele>365.4</ele><time>2026-04-11T13:05:54.856Z</time></trkpt><trkpt lat="40.8632517" lon="14.2032017"><ele>364.8</ele><time>2026-04-11T13:05:55.857Z</time></trkpt><trkpt lat="40.8632567" lon="14.2033333"><ele>364.2</ele><time>2026-04-11T13:05:56.856Z</time></trkpt><trkpt lat="40.8632517" lon="14.20347"><ele>363.59999999999997</ele><time>2026-04-11T13:05:57.856Z</time></trkpt><trkpt lat="40.86323" lon="14.2036"><ele>363.0</ele><time>2026-04-11T13:05:58.858Z</time></trkpt><trkpt lat="40.8631983" lon="14.20373"><ele>363.0</ele><time>2026-04-11T13:05:59.858Z</time></trkpt><trkpt lat="40.8631633" lon="14.20386"><ele>363.0</ele><time>2026-04-11T13:06:00.859Z</time></trkpt><trkpt lat="40.8631233" lon="14.2039917"><ele>363.0</ele><time>2026-04-11T13:06:01.858Z</time></trkpt><trkpt lat="40.8630933" lon="14.2041283"><ele>363.0</ele><time>2026-04-11T13:06:02.857Z</time></trkpt><trkpt lat="40.8630667" lon="14.2042683"><ele>363.0</ele><time>2026-04-11T13:06:03.858Z</time></trkpt><trkpt lat="40.863045" lon="14.2044"><ele>361.79999999999995</ele><time>2026-04-11T13:06:04.858Z</time></trkpt><trkpt lat="40.863025" lon="14.2045217"><ele>360.6</ele><time>2026-04-11T13:06:05.857Z</time></trkpt><trkpt lat="40.8630017" lon="14.2046417"><ele>359.4</ele><time>2026-04-11T13:06:06.857Z</time></trkpt><trkpt lat="40.8629867" lon="14.2047633"><ele>358.20000000000005</ele><time>2026-04-11T13:06:07.858Z</time></trkpt><trkpt lat="40.86299" lon="14.2048867"><ele>357.0</ele><time>2026-04-11T13:06:08.857Z</time></trkpt><trkpt lat="40.862995" lon="14.2050133"><ele>356.20000000000005</ele><time>2026-04-11T13:06:09.859Z</time></trkpt><trkpt lat="40.8629983" lon="14.20514"><ele>355.4</ele><time>2026-04-11T13:06:10.86Z</time></trkpt><trkpt lat="40.863" lon="14.2052683"><ele>354.6</ele><time>2026-04-11T13:06:11.858Z</time></trkpt><trkpt lat="40.8630067" lon="14.2054"><ele>353.79999999999995</ele><time>2026-04-11T13:06:12.857Z</time></trkpt><trkpt lat="40.8630133" lon="14.2055317"><ele>353.0</ele><time>2026-04-11T13:06:13.857Z</time></trkpt><trkpt lat="40.8630217" lon="14.2056617"><ele>353.4</ele><time>2026-04-11T13:06:14.857Z</time></trkpt><trkpt lat="40.86303" lon="14.205785"><ele>353.79999999999995</ele><time>2026-04-11T13:06:15.858Z</time></trkpt><trkpt lat="40.863045" lon="14.2059133"><ele>354.2</ele><time>2026-04-11T13:06:16.858Z</time></trkpt><trkpt lat="40.8630667" lon="14.2060433"><ele>354.6</ele><time>2026-04-11T13:06:17.858Z</time></trkpt><trkpt lat="40.8631" lon="14.2061667"><ele>355.0</ele><time>2026-04-11T13:06:18.858Z</time></trkpt><trkpt lat="40.8631433" lon="14.2062867"><ele>355.0</ele><time>2026-04-11T13:06:19.862Z</time></trkpt><trkpt lat="40.8631883" lon="14.2064133"><ele>355.0</ele><time>2026-04-11T13:06:20.86Z</time></trkpt><trkpt lat="40.8632217" lon="14.2065467"><ele>355.0</ele><time>2026-04-11T13:06:21.858Z</time></trkpt><trkpt lat="40.8632483" lon="14.206695"><ele>355.0</ele><time>2026-04-11T13:06:22.857Z</time></trkpt><trkpt lat="40.8632667" lon="14.2068517"><ele>355.0</ele><time>2026-04-11T13:06:23.858Z</time></trkpt><trkpt lat="40.8632883" lon="14.20701"><ele>353.25</ele><time>2026-04-11T13:06:24.857Z</time></trkpt><trkpt lat="40.8633017" lon="14.20717"><ele>351.5</ele><time>2026-04-11T13:06:25.859Z</time></trkpt><trkpt lat="40.863305" lon="14.2073333"><ele>349.75</ele><time>2026-04-11T13:06:26.86Z</time></trkpt><trkpt lat="40.8633067" lon="14.2074917"><ele>348.0</ele><time>2026-04-11T13:06:27.857Z</time></trkpt><trkpt lat="40.8632933" lon="14.2076467"><ele>345.75</ele><time>2026-04-11T13:06:28.858Z</time></trkpt><trkpt lat="40.86328" lon="14.2077983"><ele>343.5</ele><time>2026-04-11T13:06:29.858Z</time></trkpt><trkpt lat="40.8632733" lon="14.2079467"><ele>341.25</ele><time>2026-04-11T13:06:30.858Z</time></trkpt><trkpt lat="40.8632633" lon="14.2080983"><ele>339.0</ele><time>2026-04-11T13:06:31.857Z</time></trkpt><trkpt lat="40.8632533" lon="14.208245"><ele>338.0</ele><time>2026-04-11T13:06:32.857Z</time></trkpt><trkpt lat="40.863245" lon="14.2084"><ele>337.0</ele><time>2026-04-11T13:06:33.856Z</time></trkpt><trkpt lat="40.8632433" lon="14.20856"><ele>336.0</ele><time>2026-04-11T13:06:34.857Z</time></trkpt><trkpt lat="40.8632467" lon="14.2087217"><ele>335.0</ele><time>2026-04-11T13:06:35.857Z</time></trkpt><trkpt lat="40.8632483" lon="14.2088667"><ele>333.8</ele><time>2026-04-11T13:06:36.857Z</time></trkpt><trkpt lat="40.86325" lon="14.20901"><ele>332.6</ele><time>2026-04-11T13:06:37.857Z</time></trkpt><trkpt lat="40.863245" lon="14.2091533"><ele>331.4</ele><time>2026-04-11T13:06:38.856Z</time></trkpt><trkpt lat="40.86324" lon="14.2092983"><ele>330.2</ele><time>2026-04-11T13:06:39.857Z</time></trkpt><trkpt lat="40.8632317" lon="14.2094417"><ele>329.0</ele><time>2026-04-11T13:06:40.857Z</time></trkpt><trkpt lat="40.8632283" lon="14.2095883"><ele>329.0</ele><time>2026-04-11T13:06:41.859Z</time></trkpt><trkpt lat="40.8632267" lon="14.2097283"><ele>329.0</ele><time>2026-04-11T13:06:42.858Z</time></trkpt><trkpt lat="40.8632267" lon="14.20987"><ele>329.0</ele><time>2026-04-11T13:06:43.861Z</time></trkpt><trkpt lat="40.8632333" lon="14.210015"><ele>329.0</ele><time>2026-04-11T13:06:44.857Z</time></trkpt><trkpt lat="40.8632267" lon="14.2101667"><ele>329.0</ele><time>2026-04-11T13:06:45.856Z</time></trkpt><trkpt lat="40.863215" lon="14.210315"><ele>328.79999999999995</ele><time>2026-04-11T13:06:46.857Z</time></trkpt><trkpt lat="40.863195" lon="14.2104533"><ele>328.59999999999997</ele><time>2026-04-11T13:06:47.857Z</time></trkpt><trkpt lat="40.863175" lon="14.2105867"><ele>328.4</ele><time>2026-04-11T13:06:48.858Z</time></trkpt><trkpt lat="40.8631483" lon="14.2107183"><ele>328.2</ele><time>2026-04-11T13:06:49.857Z</time></trkpt><trkpt lat="40.8631167" lon="14.2108517"><ele>328.0</ele><time>2026-04-11T13:06:50.857Z</time></trkpt><trkpt lat="40.8630833" lon="14.2109883"><ele>328.0</ele><time>2026-04-11T13:06:51.857Z</time></trkpt><trkpt lat="40.86305" lon="14.2111367"><ele>328.0</ele><time>2026-04-11T13:06:52.857Z</time></trkpt><trkpt lat="40.8630167" lon="14.2112883"><ele>328.0</ele><time>2026-04-11T13:06:53.856Z</time></trkpt><trkpt lat="40.8629817" lon="14.2114483"><ele>328.0</ele><time>2026-04-11T13:06:54.857Z</time></trkpt><trkpt lat="40.8629417" lon="14.2116083"><ele>326.75</ele><time>2026-04-11T13:06:55.857Z</time></trkpt><trkpt lat="40.862905" lon="14.2117683"><ele>325.5</ele><time>2026-04-11T13:06:56.857Z</time></trkpt><trkpt lat="40.862875" lon="14.2119317"><ele>324.25</ele><time>2026-04-11T13:06:57.857Z</time></trkpt><trkpt lat="40.8628533" lon="14.2120933"><ele>323.0</ele><time>2026-04-11T13:06:58.858Z</time></trkpt><trkpt lat="40.8628383" lon="14.2122583"><ele>321.25</ele><time>2026-04-11T13:06:59.857Z</time></trkpt><trkpt lat="40.8628333" lon="14.212425"><ele>319.5</ele><time>2026-04-11T13:07:00.857Z</time></trkpt><trkpt lat="40.862835" lon="14.212595"><ele>317.75</ele><time>2026-04-11T13:07:01.857Z</time></trkpt><trkpt lat="40.862835" lon="14.21279"><ele>316.0</ele><time>2026-04-11T13:07:02.858Z</time></trkpt><trkpt lat="40.8628517" lon="14.2129683"><ele>316.0</ele><time>2026-04-11T13:07:03.858Z</time></trkpt><trkpt lat="40.86288" lon="14.21314"><ele>316.0</ele><time>2026-04-11T13:07:04.857Z</time></trkpt><trkpt lat="40.862925" lon="14.2133033"><ele>316.0</ele><time>2026-04-11T13:07:05.857Z</time></trkpt><trkpt lat="40.86298" lon="14.2134667"><ele>316.0</ele><time>2026-04-11T13:07:06.857Z</time></trkpt><trkpt lat="40.8630383" lon="14.2136267"><ele>314.5</ele><time>2026-04-11T13:07:07.857Z</time></trkpt><trkpt lat="40.8631017" lon="14.21378"><ele>313.0</ele><time>2026-04-11T13:07:08.859Z</time></trkpt><trkpt lat="40.8631683" lon="14.21393"><ele>311.5</ele><time>2026-04-11T13:07:09.856Z</time></trkpt><trkpt lat="40.8632317" lon="14.2140633"><ele>310.0</ele><time>2026-04-11T13:07:10.858Z</time></trkpt><trkpt lat="40.8632983" lon="14.2141867"><ele>309.0</ele><time>2026-04-11T13:07:11.857Z</time></trkpt><trkpt lat="40.863365" lon="14.2143017"><ele>308.0</ele><time>2026-04-11T13:07:12.857Z</time></trkpt><trkpt lat="40.8634417" lon="14.2144017"><ele>307.0</ele><time>2026-04-11T13:07:13.856Z</time></trkpt><trkpt lat="40.8635167" lon="14.21449"><ele>306.0</ele><time>2026-04-11T13:07:14.857Z</time></trkpt><trkpt lat="40.8635833" lon="14.21456"><ele>305.0</ele><time>2026-04-11T13:07:15.857Z</time></trkpt><trkpt lat="40.86365" lon="14.2146167"><ele>304.33333333333337</ele><time>2026-04-11T13:07:16.857Z</time></trkpt><trkpt lat="40.8637083" lon="14.21468"><ele>303.6666666666667</ele><time>2026-04-11T13:07:17.857Z</time></trkpt><trkpt lat="40.8637567" lon="14.2147433"><ele>303.0</ele><time>2026-04-11T13:07:18.857Z</time></trkpt><trkpt lat="40.863785" lon="14.2148417"><ele>302.3333333333333</ele><time>2026-04-11T13:07:19.857Z</time></trkpt><trkpt lat="40.8637933" lon="14.214945"><ele>301.66666666666663</ele><time>2026-04-11T13:07:20.857Z</time></trkpt><trkpt lat="40.8637867" lon="14.2150433"><ele>301.0</ele><time>2026-04-11T13:07:21.857Z</time></trkpt><trkpt lat="40.8637783" lon="14.215145"><ele>301.0</ele><time>2026-04-11T13:07:22.857Z</time></trkpt><trkpt lat="40.8637817" lon="14.21525"><ele>301.0</ele><time>2026-04-11T13:07:23.857Z</time></trkpt><trkpt lat="40.8637817" lon="14.21536"><ele>301.0</ele><time>2026-04-11T13:07:24.857Z</time></trkpt><trkpt lat="40.8637783" lon="14.215475"><ele>301.0</ele><time>2026-04-11T13:07:25.858Z</time></trkpt><trkpt lat="40.86378" lon="14.2155933"><ele>301.0</ele><time>2026-04-11T13:07:26.857Z</time></trkpt><trkpt lat="40.8637883" lon="14.21571"><ele>301.0</ele><time>2026-04-11T13:07:27.856Z</time></trkpt><trkpt lat="40.8638" lon="14.215825"><ele>300.3333333333333</ele><time>2026-04-11T13:07:28.856Z</time></trkpt><trkpt lat="40.86381" lon="14.2159333"><ele>299.66666666666663</ele><time>2026-04-11T13:07:29.856Z</time></trkpt><trkpt lat="40.8638183" lon="14.2160433"><ele>299.0</ele><time>2026-04-11T13:07:30.856Z</time></trkpt><trkpt lat="40.86383" lon="14.21616"><ele>298.3333333333333</ele><time>2026-04-11T13:07:31.857Z</time></trkpt><trkpt lat="40.8638433" lon="14.2162817"><ele>297.6666666666667</ele><time>2026-04-11T13:07:32.864Z</time></trkpt><trkpt lat="40.8638483" lon="14.2164133"><ele>297.0</ele><time>2026-04-11T13:07:33.857Z</time></trkpt><trkpt lat="40.863855" lon="14.216555"><ele>295.6</ele><time>2026-04-11T13:07:34.857Z</time></trkpt><trkpt lat="40.8638633" lon="14.2166983"><ele>294.2</ele><time>2026-04-11T13:07:35.857Z</time></trkpt><trkpt lat="40.8638767" lon="14.2168467"><ele>292.8</ele><time>2026-04-11T13:07:36.857Z</time></trkpt><trkpt lat="40.863895" lon="14.216985"><ele>291.4</ele><time>2026-04-11T13:07:37.856Z</time></trkpt><trkpt lat="40.863915" lon="14.217125"><ele>290.0</ele><time>2026-04-11T13:07:38.856Z</time></trkpt><trkpt lat="40.8639433" lon="14.2172633"><ele>289.8</ele><time>2026-04-11T13:07:39.856Z</time></trkpt><trkpt lat="40.863975" lon="14.2173967"><ele>289.6</ele><time>2026-04-11T13:07:40.856Z</time></trkpt><trkpt lat="40.8640133" lon="14.2175233"><ele>289.4</ele><time>2026-04-11T13:07:41.855Z</time></trkpt><trkpt lat="40.8640517" lon="14.21765"><ele>289.2</ele><time>2026-04-11T13:07:42.856Z</time></trkpt><trkpt lat="40.864085" lon="14.2177767"><ele>289.0</ele><time>2026-04-11T13:07:43.856Z</time></trkpt><trkpt lat="40.8641083" lon="14.2179"><ele>289.0</ele><time>2026-04-11T13:07:44.856Z</time></trkpt><trkpt lat="40.8641183" lon="14.21803"><ele>289.0</ele><time>2026-04-11T13:07:45.856Z</time></trkpt><trkpt lat="40.8641233" lon="14.2181533"><ele>289.0</ele><time>2026-04-11T13:07:46.856Z</time></trkpt><trkpt lat="40.8641217" lon="14.2182683"><ele>289.0</ele><time>2026-04-11T13:07:47.856Z</time></trkpt><trkpt lat="40.8641117" lon="14.2183817"><ele>289.0</ele><time>2026-04-11T13:07:48.856Z</time></trkpt><trkpt lat="40.8641033" lon="14.218495"><ele>288.57142857142856</ele><time>2026-04-11T13:07:49.856Z</time></trkpt><trkpt lat="40.8640883" lon="14.2185983"><ele>288.1428571428571</ele><time>2026-04-11T13:07:50.855Z</time></trkpt><trkpt lat="40.8640733" lon="14.218695"><ele>287.71428571428567</ele><time>2026-04-11T13:07:51.856Z</time></trkpt><trkpt lat="40.8640633" lon="14.2187867"><ele>287.2857142857143</ele><time>2026-04-11T13:07:52.856Z</time></trkpt><trkpt lat="40.8640517" lon="14.218875"><ele>286.85714285714283</ele><time>2026-04-11T13:07:53.855Z</time></trkpt><trkpt lat="40.8640367" lon="14.2189617"><ele>286.4285714285714</ele><time>2026-04-11T13:07:54.856Z</time></trkpt><trkpt lat="40.8640133" lon="14.2190433"><ele>286.0</ele><time>2026-04-11T13:07:55.856Z</time></trkpt><trkpt lat="40.86395" lon="14.2191767"><ele>285.40000000000003</ele><time>2026-04-11T13:07:57.855Z</time></trkpt><trkpt lat="40.8638617" lon="14.2192767"><ele>284.8</ele><time>2026-04-11T13:07:59.856Z</time></trkpt><trkpt lat="40.8637683" lon="14.219375"><ele>284.20000000000005</ele><time>2026-04-11T13:08:01.857Z</time></trkpt><trkpt lat="40.8636717" lon="14.2194817"><ele>283.6</ele><time>2026-04-11T13:08:03.857Z</time></trkpt><trkpt lat="40.8636233" lon="14.219535"><ele>283.0</ele><time>2026-04-11T13:08:04.857Z</time></trkpt><trkpt lat="40.86357" lon="14.2195967"><ele>283.0</ele><time>2026-04-11T13:08:05.855Z</time></trkpt><trkpt lat="40.863505" lon="14.219665"><ele>283.0</ele><time>2026-04-11T13:08:06.856Z</time></trkpt><trkpt lat="40.8634283" lon="14.2197183"><ele>283.0</ele><time>2026-04-11T13:08:07.856Z</time></trkpt><trkpt lat="40.863345" lon="14.2197733"><ele>283.0</ele><time>2026-04-11T13:08:08.857Z</time></trkpt><trkpt lat="40.863275" lon="14.2198367"><ele>283.0</ele><time>2026-04-11T13:08:09.857Z</time></trkpt><trkpt lat="40.8632017" lon="14.2199017"><ele>283.0</ele><time>2026-04-11T13:08:10.855Z</time></trkpt><trkpt lat="40.863125" lon="14.2199667"><ele>282.2</ele><time>2026-04-11T13:08:11.856Z</time></trkpt><trkpt lat="40.8630483" lon="14.2200417"><ele>281.4</ele><time>2026-04-11T13:08:12.856Z</time></trkpt><trkpt lat="40.862965" lon="14.22013"><ele>280.59999999999997</ele><time>2026-04-11T13:08:13.857Z</time></trkpt><trkpt lat="40.862885" lon="14.2202083"><ele>279.8</ele><time>2026-04-11T13:08:14.856Z</time></trkpt><trkpt lat="40.8628133" lon="14.2202817"><ele>279.0</ele><time>2026-04-11T13:08:15.856Z</time></trkpt><trkpt lat="40.86274" lon="14.2203583"><ele>279.0</ele><time>2026-04-11T13:08:16.856Z</time></trkpt><trkpt lat="40.8626667" lon="14.220435"><ele>279.0</ele><time>2026-04-11T13:08:17.855Z</time></trkpt><trkpt lat="40.8625833" lon="14.220505"><ele>279.0</ele><time>2026-04-11T13:08:18.856Z</time></trkpt><trkpt lat="40.8625017" lon="14.22058"><ele>279.0</ele><time>2026-04-11T13:08:19.856Z</time></trkpt><trkpt lat="40.86242" lon="14.2206583"><ele>279.0</ele><time>2026-04-11T13:08:20.859Z</time></trkpt><trkpt lat="40.8623333" lon="14.2207333"><ele>278.8</ele><time>2026-04-11T13:08:21.856Z</time></trkpt><trkpt lat="40.8622483" lon="14.22081"><ele>278.59999999999997</ele><time>2026-04-11T13:08:22.856Z</time></trkpt><trkpt lat="40.86217" lon="14.2208883"><ele>278.4</ele><time>2026-04-11T13:08:23.855Z</time></trkpt><trkpt lat="40.8620783" lon="14.22097"><ele>278.2</ele><time>2026-04-11T13:08:24.856Z</time></trkpt><trkpt lat="40.86199" lon="14.2210567"><ele>278.0</ele><time>2026-04-11T13:08:25.856Z</time></trkpt><trkpt lat="40.8619033" lon="14.2211333"><ele>278.0</ele><time>2026-04-11T13:08:26.856Z</time></trkpt><trkpt lat="40.861815" lon="14.221215"><ele>278.0</ele><time>2026-04-11T13:08:27.856Z</time></trkpt><trkpt lat="40.8617367" lon="14.2212983"><ele>278.0</ele><time>2026-04-11T13:08:28.859Z</time></trkpt><trkpt lat="40.86166" lon="14.2213833"><ele>278.0</ele><time>2026-04-11T13:08:29.856Z</time></trkpt><trkpt lat="40.8615933" lon="14.2214633"><ele>278.0</ele><time>2026-04-11T13:08:30.856Z</time></trkpt><trkpt lat="40.8614783" lon="14.2215167"><ele>276.2</ele><time>2026-04-11T13:08:31.856Z</time></trkpt><trkpt lat="40.8613867" lon="14.22159"><ele>274.4</ele><time>2026-04-11T13:08:32.856Z</time></trkpt><trkpt lat="40.86131" lon="14.221665"><ele>272.59999999999997</ele><time>2026-04-11T13:08:33.856Z</time></trkpt><trkpt lat="40.861235" lon="14.2217417"><ele>270.8</ele><time>2026-04-11T13:08:34.857Z</time></trkpt><trkpt lat="40.8611683" lon="14.22182"><ele>269.0</ele><time>2026-04-11T13:08:35.858Z</time></trkpt><trkpt lat="40.8610983" lon="14.22189"><ele>269.0</ele><time>2026-04-11T13:08:36.857Z</time></trkpt><trkpt lat="40.8610417" lon="14.2219633"><ele>269.0</ele><time>2026-04-11T13:08:37.858Z</time></trkpt><trkpt lat="40.860995" lon="14.22205"><ele>269.0</ele><time>2026-04-11T13:08:38.859Z</time></trkpt><trkpt lat="40.8609567" lon="14.222145"><ele>269.0</ele><time>2026-04-11T13:08:39.857Z</time></trkpt><trkpt lat="40.8609317" lon="14.2222417"><ele>269.0</ele><time>2026-04-11T13:08:40.859Z</time></trkpt><trkpt lat="40.8609533" lon="14.2223483"><ele>269.0</ele><time>2026-04-11T13:08:41.856Z</time></trkpt><trkpt lat="40.86099" lon="14.2224533"><ele>269.33333333333337</ele><time>2026-04-11T13:08:42.856Z</time></trkpt><trkpt lat="40.8610167" lon="14.2225533"><ele>269.6666666666667</ele><time>2026-04-11T13:08:43.855Z</time></trkpt><trkpt lat="40.8610417" lon="14.2226567"><ele>270.0</ele><time>2026-04-11T13:08:44.856Z</time></trkpt><trkpt lat="40.8610883" lon="14.22276"><ele>270.3333333333333</ele><time>2026-04-11T13:08:45.856Z</time></trkpt><trkpt lat="40.861135" lon="14.2228667"><ele>270.66666666666663</ele><time>2026-04-11T13:08:46.864Z</time></trkpt><trkpt lat="40.86117" lon="14.2229733"><ele>271.0</ele><time>2026-04-11T13:08:47.857Z</time></trkpt><trkpt lat="40.8612017" lon="14.2230817"><ele>271.0</ele><time>2026-04-11T13:08:48.856Z</time></trkpt><trkpt lat="40.8612383" lon="14.22319"><ele>271.0</ele><time>2026-04-11T13:08:49.856Z</time></trkpt><trkpt lat="40.8612733" lon="14.2232983"><ele>271.0</ele><time>2026-04-11T13:08:50.856Z</time></trkpt><trkpt lat="40.8613183" lon="14.22342"><ele>271.0</ele><time>2026-04-11T13:08:51.858Z</time></trkpt><trkpt lat="40.8613533" lon="14.2235333"><ele>271.0</ele><time>2026-04-11T13:08:52.857Z</time></trkpt><trkpt lat="40.8613867" lon="14.22365"><ele>271.0</ele><time>2026-04-11T13:08:53.858Z</time></trkpt><trkpt lat="40.8614217" lon="14.2237683"><ele>271.0</ele><time>2026-04-11T13:08:54.857Z</time></trkpt><trkpt lat="40.8614483" lon="14.2238833"><ele>271.0</ele><time>2026-04-11T13:08:55.858Z</time></trkpt><trkpt lat="40.8614783" lon="14.2240067"><ele>271.0</ele><time>2026-04-11T13:08:56.857Z</time></trkpt><trkpt lat="40.8615067" lon="14.2241267"><ele>271.0</ele><time>2026-04-11T13:08:57.857Z</time></trkpt><trkpt lat="40.8615417" lon="14.2242417"><ele>270.2</ele><time>2026-04-11T13:08:58.855Z</time></trkpt><trkpt lat="40.8615883" lon="14.2243583"><ele>269.40000000000003</ele><time>2026-04-11T13:08:59.856Z</time></trkpt><trkpt lat="40.8616267" lon="14.224475"><ele>268.6</ele><time>2026-04-11T13:09:00.856Z</time></trkpt><trkpt lat="40.861655" lon="14.2245917"><ele>267.8</ele><time>2026-04-11T13:09:01.858Z</time></trkpt><trkpt lat="40.8616867" lon="14.2247033"><ele>267.0</ele><time>2026-04-11T13:09:02.856Z</time></trkpt><trkpt lat="40.861725" lon="14.2248133"><ele>266.6</ele><time>2026-04-11T13:09:03.856Z</time></trkpt><trkpt lat="40.861755" lon="14.2249267"><ele>266.2</ele><time>2026-04-11T13:09:04.856Z</time></trkpt><trkpt lat="40.86181" lon="14.22504"><ele>265.8</ele><time>2026-04-11T13:09:05.856Z</time></trkpt><trkpt lat="40.8618633" lon="14.2251433"><ele>265.4</ele><time>2026-04-11T13:09:06.856Z</time></trkpt><trkpt lat="40.8619217" lon="14.22524"><ele>265.0</ele><time>2026-04-11T13:09:07.856Z</time></trkpt><trkpt lat="40.8619817" lon="14.2253217"><ele>265.0</ele><time>2026-04-11T13:09:08.858Z</time></trkpt><trkpt lat="40.862045" lon="14.225395"><ele>265.0</ele><time>2026-04-11T13:09:09.856Z</time></trkpt><trkpt lat="40.8621" lon="14.225465"><ele>265.0</ele><time>2026-04-11T13:09:10.856Z</time></trkpt><trkpt lat="40.8621667" lon="14.225525"><ele>265.0</ele><time>2026-04-11T13:09:11.856Z</time></trkpt><trkpt lat="40.8622383" lon="14.2255733"><ele>265.0</ele><time>2026-04-11T13:09:12.856Z</time></trkpt><trkpt lat="40.862325" lon="14.2256"><ele>265.0</ele><time>2026-04-11T13:09:13.855Z</time></trkpt><trkpt lat="40.8624133" lon="14.22562"><ele>264.8333333333333</ele><time>2026-04-11T13:09:14.857Z</time></trkpt><trkpt lat="40.8624983" lon="14.2256633"><ele>264.66666666666663</ele><time>2026-04-11T13:09:15.858Z</time></trkpt><trkpt lat="40.862585" lon="14.22568"><ele>264.5</ele><time>2026-04-11T13:09:16.859Z</time></trkpt><trkpt lat="40.862665" lon="14.2257117"><ele>264.3333333333333</ele><time>2026-04-11T13:09:17.858Z</time></trkpt><trkpt lat="40.8627467" lon="14.2257567"><ele>264.1666666666667</ele><time>2026-04-11T13:09:18.858Z</time></trkpt><trkpt lat="40.8628283" lon="14.2257917"><ele>264.0</ele><time>2026-04-11T13:09:19.858Z</time></trkpt><trkpt lat="40.8629183" lon="14.2258267"><ele>263.4</ele><time>2026-04-11T13:09:20.858Z</time></trkpt><trkpt lat="40.8630083" lon="14.2258467"><ele>262.79999999999995</ele><time>2026-04-11T13:09:21.857Z</time></trkpt><trkpt lat="40.86308" lon="14.2258917"><ele>262.20000000000005</ele><time>2026-04-11T13:09:22.858Z</time></trkpt><trkpt lat="40.8631883" lon="14.2258933"><ele>261.6</ele><time>2026-04-11T13:09:23.857Z</time></trkpt><trkpt lat="40.86328" lon="14.22592"><ele>261.0</ele><time>2026-04-11T13:09:24.858Z</time></trkpt><trkpt lat="40.8633683" lon="14.225945"><ele>260.8</ele><time>2026-04-11T13:09:25.858Z</time></trkpt><trkpt lat="40.863455" lon="14.225965"><ele>260.6</ele><time>2026-04-11T13:09:26.859Z</time></trkpt><trkpt lat="40.8635433" lon="14.2259867"><ele>260.4</ele><time>2026-04-11T13:09:27.858Z</time></trkpt><trkpt lat="40.8636333" lon="14.2260217"><ele>260.2</ele><time>2026-04-11T13:09:28.858Z</time></trkpt><trkpt lat="40.8637233" lon="14.2260517"><ele>260.0</ele><time>2026-04-11T13:09:29.857Z</time></trkpt><trkpt lat="40.863815" lon="14.2260883"><ele>260.0</ele><time>2026-04-11T13:09:30.858Z</time></trkpt><trkpt lat="40.8639033" lon="14.2261283"><ele>260.0</ele><time>2026-04-11T13:09:31.858Z</time></trkpt><trkpt lat="40.8639883" lon="14.2261683"><ele>260.0</ele><time>2026-04-11T13:09:32.858Z</time></trkpt><trkpt lat="40.8640817" lon="14.2262033"><ele>260.0</ele><time>2026-04-11T13:09:33.857Z</time></trkpt><trkpt lat="40.864175" lon="14.2262383"><ele>260.0</ele><time>2026-04-11T13:09:34.857Z</time></trkpt><trkpt lat="40.8642733" lon="14.226275"><ele>260.8</ele><time>2026-04-11T13:09:35.857Z</time></trkpt><trkpt lat="40.8643767" lon="14.226305"><ele>261.6</ele><time>2026-04-11T13:09:36.857Z</time></trkpt><trkpt lat="40.864475" lon="14.2263433"><ele>262.4</ele><time>2026-04-11T13:09:37.857Z</time></trkpt><trkpt lat="40.8645683" lon="14.2263783"><ele>263.2</ele><time>2026-04-11T13:09:38.856Z</time></trkpt><trkpt lat="40.8646583" lon="14.22642"><ele>264.0</ele><time>2026-04-11T13:09:39.856Z</time></trkpt><trkpt lat="40.8647467" lon="14.226455"><ele>263.1666666666667</ele><time>2026-04-11T13:09:40.856Z</time></trkpt><trkpt lat="40.8648383" lon="14.22649"><ele>262.3333333333333</ele><time>2026-04-11T13:09:41.855Z</time></trkpt><trkpt lat="40.864915" lon="14.22652"><ele>261.5</ele><time>2026-04-11T13:09:42.856Z</time></trkpt><trkpt lat="40.8649967" lon="14.226545"><ele>260.66666666666663</ele><time>2026-04-11T13:09:43.857Z</time></trkpt><trkpt lat="40.8650733" lon="14.2265617"><ele>259.8333333333333</ele><time>2026-04-11T13:09:44.857Z</time></trkpt><trkpt lat="40.8651433" lon="14.22658"><ele>259.0</ele><time>2026-04-11T13:09:45.857Z</time></trkpt><trkpt lat="40.8652083" lon="14.226605"><ele>259.0</ele><time>2026-04-11T13:09:46.856Z</time></trkpt><trkpt lat="40.8653367" lon="14.2266583"><ele>259.0</ele><time>2026-04-11T13:09:48.856Z</time></trkpt><trkpt lat="40.8654033" lon="14.2266783"><ele>259.0</ele><time>2026-04-11T13:09:49.856Z</time></trkpt><trkpt lat="40.8654683" lon="14.2266967"><ele>259.0</ele><time>2026-04-11T13:09:50.856Z</time></trkpt><trkpt lat="40.8655317" lon="14.2267167"><ele>259.0</ele><time>2026-04-11T13:09:51.856Z</time></trkpt><trkpt lat="40.8656" lon="14.2267333"><ele>259.0</ele><time>2026-04-11T13:09:52.856Z</time></trkpt><trkpt lat="40.8656683" lon="14.2267517"><ele>259.0</ele><time>2026-04-11T13:09:53.859Z</time></trkpt><trkpt lat="40.865745" lon="14.2267733"><ele>259.0</ele><time>2026-04-11T13:09:54.856Z</time></trkpt><trkpt lat="40.8658133" lon="14.22679"><ele>259.0</ele><time>2026-04-11T13:09:55.857Z</time></trkpt><trkpt lat="40.865885" lon="14.22681"><ele>259.0</ele><time>2026-04-11T13:09:56.856Z</time></trkpt><trkpt lat="40.8659567" lon="14.2268383"><ele>259.0</ele><time>2026-04-11T13:09:57.856Z</time></trkpt><trkpt lat="40.8660367" lon="14.226875"><ele>259.0</ele><time>2026-04-11T13:09:58.856Z</time></trkpt><trkpt lat="40.86612" lon="14.2269117"><ele>259.0</ele><time>2026-04-11T13:09:59.856Z</time></trkpt><trkpt lat="40.8662067" lon="14.2269467"><ele>259.0</ele><time>2026-04-11T13:10:00.857Z</time></trkpt><trkpt lat="40.8662917" lon="14.226975"><ele>259.0</ele><time>2026-04-11T13:10:01.857Z</time></trkpt><trkpt lat="40.8663767" lon="14.2270033"><ele>259.0</ele><time>2026-04-11T13:10:02.856Z</time></trkpt><trkpt lat="40.8664633" lon="14.2270333"><ele>259.0</ele><time>2026-04-11T13:10:03.856Z</time></trkpt><trkpt lat="40.866555" lon="14.2270633"><ele>259.0</ele><time>2026-04-11T13:10:04.856Z</time></trkpt><trkpt lat="40.8666483" lon="14.2270933"><ele>259.0</ele><time>2026-04-11T13:10:05.857Z</time></trkpt><trkpt lat="40.866745" lon="14.2271317"><ele>259.0</ele><time>2026-04-11T13:10:06.856Z</time></trkpt><trkpt lat="40.8668417" lon="14.227165"><ele>259.0</ele><time>2026-04-11T13:10:07.856Z</time></trkpt><trkpt lat="40.86694" lon="14.2272"><ele>259.0</ele><time>2026-04-11T13:10:08.858Z</time></trkpt><trkpt lat="40.867035" lon="14.2272367"><ele>259.0</ele><time>2026-04-11T13:10:09.856Z</time></trkpt><trkpt lat="40.86713" lon="14.22727"><ele>259.0</ele><time>2026-04-11T13:10:10.856Z</time></trkpt><trkpt lat="40.867225" lon="14.2272983"><ele>259.0</ele><time>2026-04-11T13:10:11.856Z</time></trkpt><trkpt lat="40.8673217" lon="14.2273383"><ele>259.0</ele><time>2026-04-11T13:10:12.856Z</time></trkpt><trkpt lat="40.8674167" lon="14.2273767"><ele>259.0</ele><time>2026-04-11T13:10:13.857Z</time></trkpt><trkpt lat="40.8675083" lon="14.22742"><ele>257.4</ele><time>2026-04-11T13:10:14.856Z</time></trkpt><trkpt lat="40.8675967" lon="14.2274667"><ele>255.79999999999998</ele><time>2026-04-11T13:10:15.856Z</time></trkpt><trkpt lat="40.86769" lon="14.2275033"><ele>254.20000000000002</ele><time>2026-04-11T13:10:16.856Z</time></trkpt><trkpt lat="40.8677867" lon="14.22754"><ele>252.60000000000002</ele><time>2026-04-11T13:10:17.858Z</time></trkpt><trkpt lat="40.8678833" lon="14.2275767"><ele>251.0</ele><time>2026-04-11T13:10:18.858Z</time></trkpt><trkpt lat="40.8679783" lon="14.22762"><ele>251.0</ele><time>2026-04-11T13:10:19.858Z</time></trkpt><trkpt lat="40.8680733" lon="14.22766"><ele>251.00000000000003</ele><time>2026-04-11T13:10:20.857Z</time></trkpt><trkpt lat="40.868165" lon="14.2276967"><ele>251.00000000000003</ele><time>2026-04-11T13:10:21.858Z</time></trkpt><trkpt lat="40.8682533" lon="14.2277367"><ele>251.0</ele><time>2026-04-11T13:10:22.858Z</time></trkpt><trkpt lat="40.8683333" lon="14.227775"><ele>251.0</ele><time>2026-04-11T13:10:23.858Z</time></trkpt><trkpt lat="40.8684067" lon="14.22781"><ele>249.60000000000002</ele><time>2026-04-11T13:10:24.856Z</time></trkpt><trkpt lat="40.8684683" lon="14.2278517"><ele>248.20000000000002</ele><time>2026-04-11T13:10:25.856Z</time></trkpt><trkpt lat="40.8685783" lon="14.2278683"><ele>246.79999999999998</ele><time>2026-04-11T13:10:27.857Z</time></trkpt><trkpt lat="40.8686333" lon="14.2277833"><ele>245.39999999999998</ele><time>2026-04-11T13:10:29.857Z</time></trkpt><trkpt lat="40.868645" lon="14.227635"><ele>244.0</ele><time>2026-04-11T13:10:31.856Z</time></trkpt><trkpt lat="40.8686333" lon="14.2275367"><ele>244.0</ele><time>2026-04-11T13:10:32.857Z</time></trkpt><trkpt lat="40.8686333" lon="14.2274517"><ele>243.99999999999997</ele><time>2026-04-11T13:10:33.858Z</time></trkpt><trkpt lat="40.8686333" lon="14.2272933"><ele>243.99999999999997</ele><time>2026-04-11T13:10:35.857Z</time></trkpt><trkpt lat="40.8686317" lon="14.2271333"><ele>244.0</ele><time>2026-04-11T13:10:37.856Z</time></trkpt><trkpt lat="40.8686317" lon="14.2269867"><ele>244.0</ele><time>2026-04-11T13:10:39.855Z</time></trkpt><trkpt lat="40.8686267" lon="14.22683"><ele>245.79999999999998</ele><time>2026-04-11T13:10:41.856Z</time></trkpt><trkpt lat="40.868635" lon="14.22668"><ele>247.59999999999997</ele><time>2026-04-11T13:10:43.857Z</time></trkpt><trkpt lat="40.8686517" lon="14.2265417"><ele>249.4</ele><time>2026-04-11T13:10:45.856Z</time></trkpt><trkpt lat="40.8686483" lon="14.2263933"><ele>251.2</ele><time>2026-04-11T13:10:47.857Z</time></trkpt><trkpt lat="40.86865" lon="14.2262483"><ele>253.0</ele><time>2026-04-11T13:10:49.857Z</time></trkpt><trkpt lat="40.86866" lon="14.2260983"><ele>254.25</ele><time>2026-04-11T13:10:51.86Z</time></trkpt><trkpt lat="40.8686783" lon="14.2259583"><ele>255.5</ele><time>2026-04-11T13:10:53.859Z</time></trkpt><trkpt lat="40.8686833" lon="14.2258067"><ele>256.75</ele><time>2026-04-11T13:10:55.856Z</time></trkpt><trkpt lat="40.8686767" lon="14.2256517"><ele>258.0</ele><time>2026-04-11T13:10:57.856Z</time></trkpt><trkpt lat="40.8686817" lon="14.2255017"><ele>258.0</ele><time>2026-04-11T13:10:59.857Z</time></trkpt><trkpt lat="40.8686783" lon="14.2253567"><ele>258.0</ele><time>2026-04-11T13:11:01.855Z</time></trkpt><trkpt lat="40.8686767" lon="14.225215"><ele>258.0</ele><time>2026-04-11T13:11:03.856Z</time></trkpt><trkpt lat="40.8686883" lon="14.2250817"><ele>258.0</ele><time>2026-04-11T13:11:05.857Z</time></trkpt><trkpt lat="40.8686917" lon="14.22495"><ele>258.0</ele><time>2026-04-11T13:11:07.856Z</time></trkpt><trkpt lat="40.8687083" lon="14.2248083"><ele>258.8</ele><time>2026-04-11T13:11:09.856Z</time></trkpt><trkpt lat="40.8687217" lon="14.2246633"><ele>259.6</ele><time>2026-04-11T13:11:11.858Z</time></trkpt><trkpt lat="40.8687217" lon="14.224525"><ele>260.4</ele><time>2026-04-11T13:11:13.858Z</time></trkpt><trkpt lat="40.8687333" lon="14.22441"><ele>261.2</ele><time>2026-04-11T13:11:15.857Z</time></trkpt><trkpt lat="40.8687367" lon="14.2243083"><ele>262.0</ele><time>2026-04-11T13:11:17.857Z</time></trkpt><trkpt lat="40.8687383" lon="14.2242133"><ele>262.0</ele><time>2026-04-11T13:11:19.861Z</time></trkpt><trkpt lat="40.8687917" lon="14.2241167"><ele>262.0</ele><time>2026-04-11T13:11:22.857Z</time></trkpt><trkpt lat="40.8688567" lon="14.2240317"><ele>262.0</ele><time>2026-04-11T13:11:24.857Z</time></trkpt><trkpt lat="40.8689133" lon="14.2239617"><ele>262.0</ele><time>2026-04-11T13:11:26.855Z</time></trkpt><trkpt lat="40.8689867" lon="14.2239267"><ele>262.0</ele><time>2026-04-11T13:11:29.857Z</time></trkpt><trkpt lat="40.8690367" lon="14.2238283"><ele>262.0</ele><time>2026-04-11T13:11:32.856Z</time></trkpt><trkpt lat="40.869065" lon="14.223715"><ele>262.16666666666663</ele><time>2026-04-11T13:11:34.856Z</time></trkpt><trkpt lat="40.8690967" lon="14.22359"><ele>262.3333333333333</ele><time>2026-04-11T13:11:36.857Z</time></trkpt><trkpt lat="40.8691117" lon="14.223445"><ele>262.5</ele><time>2026-04-11T13:11:38.857Z</time></trkpt><trkpt lat="40.8691267" lon="14.2233533"><ele>262.6666666666667</ele><time>2026-04-11T13:11:39.856Z</time></trkpt><trkpt lat="40.8691133" lon="14.22327"><ele>262.83333333333337</ele><time>2026-04-11T13:11:40.857Z</time></trkpt><trkpt lat="40.8691283" lon="14.2231867"><ele>263.0</ele><time>2026-04-11T13:11:41.856Z</time></trkpt><trkpt lat="40.86918" lon="14.2230483"><ele>262.6666666666667</ele><time>2026-04-11T13:11:43.856Z</time></trkpt><trkpt lat="40.869185" lon="14.2229617"><ele>262.33333333333337</ele><time>2026-04-11T13:11:44.856Z</time></trkpt><trkpt lat="40.8691467" lon="14.2228733"><ele>262.0</ele><time>2026-04-11T13:11:45.857Z</time></trkpt><trkpt lat="40.8691383" lon="14.2227383"><ele>261.6666666666667</ele><time>2026-04-11T13:11:47.855Z</time></trkpt><trkpt lat="40.8690967" lon="14.222625"><ele>261.3333333333333</ele><time>2026-04-11T13:11:49.857Z</time></trkpt><trkpt lat="40.8690817" lon="14.2225167"><ele>261.0</ele><time>2026-04-11T13:11:51.856Z</time></trkpt><trkpt lat="40.8691267" lon="14.22241"><ele>260.6</ele><time>2026-04-11T13:11:53.857Z</time></trkpt><trkpt lat="40.86919" lon="14.222305"><ele>260.20000000000005</ele><time>2026-04-11T13:11:55.857Z</time></trkpt><trkpt lat="40.869245" lon="14.2222533"><ele>259.79999999999995</ele><time>2026-04-11T13:11:56.857Z</time></trkpt><trkpt lat="40.8693433" lon="14.2221933"><ele>259.4</ele><time>2026-04-11T13:11:57.856Z</time></trkpt><trkpt lat="40.8694483" lon="14.22216"><ele>259.0</ele><time>2026-04-11T13:11:58.856Z</time></trkpt><trkpt lat="40.869565" lon="14.2221317"><ele>258.2</ele><time>2026-04-11T13:11:59.857Z</time></trkpt><trkpt lat="40.869695" lon="14.2221233"><ele>257.4</ele><time>2026-04-11T13:12:00.857Z</time></trkpt><trkpt lat="40.8697917" lon="14.2220967"><ele>256.6</ele><time>2026-04-11T13:12:01.857Z</time></trkpt><trkpt lat="40.8699033" lon="14.2220667"><ele>255.8</ele><time>2026-04-11T13:12:02.857Z</time></trkpt><trkpt lat="40.87" lon="14.2220533"><ele>255.0</ele><time>2026-04-11T13:12:03.856Z</time></trkpt><trkpt lat="40.87011" lon="14.2220517"><ele>253.0</ele><time>2026-04-11T13:12:04.858Z</time></trkpt><trkpt lat="40.8702283" lon="14.2220483"><ele>251.0</ele><time>2026-04-11T13:12:05.859Z</time></trkpt><trkpt lat="40.870345" lon="14.2220383"><ele>249.0</ele><time>2026-04-11T13:12:06.857Z</time></trkpt><trkpt lat="40.8704617" lon="14.2220117"><ele>247.0</ele><time>2026-04-11T13:12:07.859Z</time></trkpt><trkpt lat="40.8705733" lon="14.2219883"><ele>247.0</ele><time>2026-04-11T13:12:08.859Z</time></trkpt><trkpt lat="40.8706867" lon="14.22196"><ele>247.0</ele><time>2026-04-11T13:12:09.858Z</time></trkpt><trkpt lat="40.8708067" lon="14.221925"><ele>247.0</ele><time>2026-04-11T13:12:10.859Z</time></trkpt><trkpt lat="40.8709233" lon="14.22188"><ele>247.0</ele><time>2026-04-11T13:12:11.859Z</time></trkpt><trkpt lat="40.8710433" lon="14.2218217"><ele>245.5</ele><time>2026-04-11T13:12:12.858Z</time></trkpt><trkpt lat="40.871195" lon="14.2217933"><ele>244.0</ele><time>2026-04-11T13:12:13.859Z</time></trkpt><trkpt lat="40.87131" lon="14.2217483"><ele>242.5</ele><time>2026-04-11T13:12:14.857Z</time></trkpt><trkpt lat="40.87143" lon="14.2217217"><ele>241.0</ele><time>2026-04-11T13:12:15.858Z</time></trkpt><trkpt lat="40.8715517" lon="14.2217133"><ele>241.0</ele><time>2026-04-11T13:12:16.858Z</time></trkpt><trkpt lat="40.871675" lon="14.2217267"><ele>241.0</ele><time>2026-04-11T13:12:17.857Z</time></trkpt><trkpt lat="40.871795" lon="14.2217483"><ele>241.0</ele><time>2026-04-11T13:12:18.857Z</time></trkpt><trkpt lat="40.87191" lon="14.221775"><ele>241.0</ele><time>2026-04-11T13:12:19.857Z</time></trkpt><trkpt lat="40.8720267" lon="14.221815"><ele>242.0</ele><time>2026-04-11T13:12:20.857Z</time></trkpt><trkpt lat="40.8721417" lon="14.2218533"><ele>243.0</ele><time>2026-04-11T13:12:21.856Z</time></trkpt><trkpt lat="40.8722567" lon="14.2218867"><ele>244.0</ele><time>2026-04-11T13:12:22.857Z</time></trkpt><trkpt lat="40.8723717" lon="14.2218983"><ele>245.0</ele><time>2026-04-11T13:12:23.857Z</time></trkpt><trkpt lat="40.8724817" lon="14.22189"><ele>245.0</ele><time>2026-04-11T13:12:24.858Z</time></trkpt><trkpt lat="40.8725883" lon="14.2218583"><ele>245.0</ele><time>2026-04-11T13:12:25.857Z</time></trkpt><trkpt lat="40.872695" lon="14.2218133"><ele>245.0</ele><time>2026-04-11T13:12:26.856Z</time></trkpt><trkpt lat="40.8727983" lon="14.221755"><ele>245.0</ele><time>2026-04-11T13:12:27.855Z</time></trkpt><trkpt lat="40.8728983" lon="14.2216983"><ele>245.0</ele><time>2026-04-11T13:12:28.857Z</time></trkpt><trkpt lat="40.873" lon="14.2216433"><ele>244.2</ele><time>2026-04-11T13:12:29.856Z</time></trkpt><trkpt lat="40.873105" lon="14.2216017"><ele>243.4</ele><time>2026-04-11T13:12:30.857Z</time></trkpt><trkpt lat="40.8732133" lon="14.2215817"><ele>242.60000000000002</ele><time>2026-04-11T13:12:31.857Z</time></trkpt><trkpt lat="40.8733233" lon="14.2215833"><ele>241.8</ele><time>2026-04-11T13:12:32.856Z</time></trkpt><trkpt lat="40.87343" lon="14.2215933"><ele>241.0</ele><time>2026-04-11T13:12:33.856Z</time></trkpt><trkpt lat="40.873535" lon="14.2216083"><ele>240.60000000000002</ele><time>2026-04-11T13:12:34.857Z</time></trkpt><trkpt lat="40.8736433" lon="14.221625"><ele>240.20000000000002</ele><time>2026-04-11T13:12:35.857Z</time></trkpt><trkpt lat="40.8737517" lon="14.22164"><ele>239.79999999999998</ele><time>2026-04-11T13:12:36.856Z</time></trkpt><trkpt lat="40.8738617" lon="14.2216533"><ele>239.39999999999998</ele><time>2026-04-11T13:12:37.856Z</time></trkpt><trkpt lat="40.8739717" lon="14.221675"><ele>239.0</ele><time>2026-04-11T13:12:38.856Z</time></trkpt><trkpt lat="40.87407" lon="14.2216967"><ele>239.00000000000003</ele><time>2026-04-11T13:12:39.855Z</time></trkpt><trkpt lat="40.8741583" lon="14.2217"><ele>239.0</ele><time>2026-04-11T13:12:40.857Z</time></trkpt><trkpt lat="40.8742383" lon="14.2217117"><ele>239.0</ele><time>2026-04-11T13:12:41.857Z</time></trkpt><trkpt lat="40.8743067" lon="14.221725"><ele>239.0</ele><time>2026-04-11T13:12:42.857Z</time></trkpt><trkpt lat="40.8744083" lon="14.2217433"><ele>239.00000000000003</ele><time>2026-04-11T13:12:44.859Z</time></trkpt><trkpt lat="40.8745167" lon="14.2217583"><ele>239.0</ele><time>2026-04-11T13:12:46.857Z</time></trkpt><trkpt lat="40.8746217" lon="14.22178"><ele>238.39999999999998</ele><time>2026-04-11T13:12:48.857Z</time></trkpt><trkpt lat="40.87471" lon="14.22183"><ele>237.79999999999998</ele><time>2026-04-11T13:12:50.857Z</time></trkpt><trkpt lat="40.8747633" lon="14.2219367"><ele>237.20000000000002</ele><time>2026-04-11T13:12:52.856Z</time></trkpt><trkpt lat="40.874755" lon="14.2221183"><ele>236.60000000000002</ele><time>2026-04-11T13:12:54.857Z</time></trkpt><trkpt lat="40.8747533" lon="14.2222083"><ele>236.0</ele><time>2026-04-11T13:12:55.856Z</time></trkpt><trkpt lat="40.87475" lon="14.2223"><ele>235.83333333333334</ele><time>2026-04-11T13:12:56.857Z</time></trkpt><trkpt lat="40.8747317" lon="14.2223967"><ele>235.66666666666669</ele><time>2026-04-11T13:12:57.858Z</time></trkpt><trkpt lat="40.8747233" lon="14.2224933"><ele>235.5</ele><time>2026-04-11T13:12:58.856Z</time></trkpt><trkpt lat="40.8747183" lon="14.22259"><ele>235.33333333333331</ele><time>2026-04-11T13:12:59.857Z</time></trkpt><trkpt lat="40.874725" lon="14.2226933"><ele>235.16666666666666</ele><time>2026-04-11T13:13:00.857Z</time></trkpt><trkpt lat="40.8747433" lon="14.2227967"><ele>235.0</ele><time>2026-04-11T13:13:01.86Z</time></trkpt><trkpt lat="40.8747633" lon="14.2229"><ele>234.99999999999997</ele><time>2026-04-11T13:13:02.857Z</time></trkpt><trkpt lat="40.8747933" lon="14.2230017"><ele>235.0</ele><time>2026-04-11T13:13:03.857Z</time></trkpt><trkpt lat="40.874825" lon="14.2231"><ele>235.0</ele><time>2026-04-11T13:13:04.857Z</time></trkpt><trkpt lat="40.874865" lon="14.223195"><ele>235.0</ele><time>2026-04-11T13:13:05.857Z</time></trkpt><trkpt lat="40.8749067" lon="14.22329"><ele>234.99999999999997</ele><time>2026-04-11T13:13:06.857Z</time></trkpt><trkpt lat="40.8749517" lon="14.2233867"><ele>235.0</ele><time>2026-04-11T13:13:07.857Z</time></trkpt><trkpt lat="40.875" lon="14.223475"><ele>234.83333333333331</ele><time>2026-04-11T13:13:08.856Z</time></trkpt><trkpt lat="40.875055" lon="14.223565"><ele>234.66666666666666</ele><time>2026-04-11T13:13:09.857Z</time></trkpt><trkpt lat="40.8751133" lon="14.2236517"><ele>234.5</ele><time>2026-04-11T13:13:10.857Z</time></trkpt><trkpt lat="40.8751783" lon="14.2237333"><ele>234.33333333333331</ele><time>2026-04-11T13:13:11.856Z</time></trkpt><trkpt lat="40.8752517" lon="14.223795"><ele>234.16666666666666</ele><time>2026-04-11T13:13:12.857Z</time></trkpt><trkpt lat="40.87533" lon="14.2238417"><ele>234.0</ele><time>2026-04-11T13:13:13.857Z</time></trkpt><trkpt lat="40.8754117" lon="14.223875"><ele>234.0</ele><time>2026-04-11T13:13:14.857Z</time></trkpt><trkpt lat="40.8754917" lon="14.2239217"><ele>234.0</ele><time>2026-04-11T13:13:15.857Z</time></trkpt><trkpt lat="40.87556" lon="14.2239767"><ele>234.0</ele><time>2026-04-11T13:13:16.857Z</time></trkpt><trkpt lat="40.8756167" lon="14.22404"><ele>234.0</ele><time>2026-04-11T13:13:17.857Z</time></trkpt><trkpt lat="40.8756583" lon="14.2241217"><ele>234.0</ele><time>2026-04-11T13:13:18.857Z</time></trkpt><trkpt lat="40.87568" lon="14.224225"><ele>234.0</ele><time>2026-04-11T13:13:19.857Z</time></trkpt><trkpt lat="40.875675" lon="14.224335"><ele>232.66666666666666</ele><time>2026-04-11T13:13:20.857Z</time></trkpt><trkpt lat="40.8756617" lon="14.224445"><ele>231.33333333333331</ele><time>2026-04-11T13:13:21.859Z</time></trkpt><trkpt lat="40.8756317" lon="14.2245583"><ele>230.0</ele><time>2026-04-11T13:13:22.858Z</time></trkpt><trkpt lat="40.8755867" lon="14.2246533"><ele>228.66666666666666</ele><time>2026-04-11T13:13:23.856Z</time></trkpt><trkpt lat="40.8755533" lon="14.2247467"><ele>227.33333333333331</ele><time>2026-04-11T13:13:24.857Z</time></trkpt><trkpt lat="40.87551" lon="14.22484"><ele>226.0</ele><time>2026-04-11T13:13:25.859Z</time></trkpt><trkpt lat="40.8754767" lon="14.2249317"><ele>225.66666666666666</ele><time>2026-04-11T13:13:26.856Z</time></trkpt><trkpt lat="40.8754433" lon="14.2250267"><ele>225.33333333333331</ele><time>2026-04-11T13:13:27.857Z</time></trkpt><trkpt lat="40.8754067" lon="14.2251283"><ele>225.0</ele><time>2026-04-11T13:13:28.857Z</time></trkpt><trkpt lat="40.875375" lon="14.225225"><ele>224.66666666666669</ele><time>2026-04-11T13:13:29.857Z</time></trkpt><trkpt lat="40.875345" lon="14.2253267"><ele>224.33333333333334</ele><time>2026-04-11T13:13:30.858Z</time></trkpt><trkpt lat="40.8753183" lon="14.2254333"><ele>224.0</ele><time>2026-04-11T13:13:31.857Z</time></trkpt><trkpt lat="40.8753" lon="14.2255417"><ele>224.00000000000003</ele><time>2026-04-11T13:13:32.857Z</time></trkpt><trkpt lat="40.8752917" lon="14.2256517"><ele>224.0</ele><time>2026-04-11T13:13:33.857Z</time></trkpt><trkpt lat="40.87529" lon="14.2257633"><ele>224.0</ele><time>2026-04-11T13:13:34.857Z</time></trkpt><trkpt lat="40.8752917" lon="14.225875"><ele>224.0</ele><time>2026-04-11T13:13:35.857Z</time></trkpt><trkpt lat="40.875295" lon="14.2259883"><ele>224.00000000000003</ele><time>2026-04-11T13:13:36.857Z</time></trkpt><trkpt lat="40.8753033" lon="14.2261033"><ele>224.0</ele><time>2026-04-11T13:13:37.856Z</time></trkpt><trkpt lat="40.8753133" lon="14.22622"><ele>224.00000000000003</ele><time>2026-04-11T13:13:38.856Z</time></trkpt><trkpt lat="40.87533" lon="14.2263383"><ele>224.0</ele><time>2026-04-11T13:13:39.856Z</time></trkpt><trkpt lat="40.875345" lon="14.226455"><ele>224.0</ele><time>2026-04-11T13:13:40.856Z</time></trkpt><trkpt lat="40.8753617" lon="14.22657"><ele>224.0</ele><time>2026-04-11T13:13:41.856Z</time></trkpt><trkpt lat="40.87538" lon="14.2266817"><ele>224.00000000000003</ele><time>2026-04-11T13:13:42.856Z</time></trkpt><trkpt lat="40.87541" lon="14.2267933"><ele>224.0</ele><time>2026-04-11T13:13:43.856Z</time></trkpt><trkpt lat="40.875455" lon="14.2269017"><ele>223.39999999999998</ele><time>2026-04-11T13:13:44.856Z</time></trkpt><trkpt lat="40.8755167" lon="14.2269983"><ele>222.79999999999998</ele><time>2026-04-11T13:13:45.855Z</time></trkpt><trkpt lat="40.8755883" lon="14.2270817"><ele>222.20000000000002</ele><time>2026-04-11T13:13:46.856Z</time></trkpt><trkpt lat="40.87567" lon="14.2271383"><ele>221.60000000000002</ele><time>2026-04-11T13:13:47.856Z</time></trkpt><trkpt lat="40.87576" lon="14.2271717"><ele>221.0</ele><time>2026-04-11T13:13:48.856Z</time></trkpt><trkpt lat="40.87586" lon="14.2271867"><ele>221.4</ele><time>2026-04-11T13:13:49.857Z</time></trkpt><trkpt lat="40.8759583" lon="14.2271967"><ele>221.8</ele><time>2026-04-11T13:13:50.855Z</time></trkpt><trkpt lat="40.8760617" lon="14.2272033"><ele>222.20000000000002</ele><time>2026-04-11T13:13:51.856Z</time></trkpt><trkpt lat="40.87617" lon="14.22721"><ele>222.60000000000002</ele><time>2026-04-11T13:13:52.856Z</time></trkpt><trkpt lat="40.87628" lon="14.22722"><ele>223.0</ele><time>2026-04-11T13:13:53.856Z</time></trkpt><trkpt lat="40.8763867" lon="14.2272317"><ele>223.0</ele><time>2026-04-11T13:13:54.856Z</time></trkpt><trkpt lat="40.8764917" lon="14.2272517"><ele>223.0</ele><time>2026-04-11T13:13:55.856Z</time></trkpt><trkpt lat="40.876605" lon="14.2272833"><ele>223.0</ele><time>2026-04-11T13:13:56.856Z</time></trkpt><trkpt lat="40.8767133" lon="14.2273267"><ele>223.0</ele><time>2026-04-11T13:13:57.856Z</time></trkpt><trkpt lat="40.8768233" lon="14.2273917"><ele>219.5</ele><time>2026-04-11T13:13:58.856Z</time></trkpt><trkpt lat="40.876935" lon="14.2274633"><ele>216.0</ele><time>2026-04-11T13:13:59.857Z</time></trkpt><trkpt lat="40.877035" lon="14.2275583"><ele>212.5</ele><time>2026-04-11T13:14:00.856Z</time></trkpt><trkpt lat="40.877135" lon="14.2276483"><ele>209.0</ele><time>2026-04-11T13:14:01.856Z</time></trkpt><trkpt lat="40.877225" lon="14.2277383"><ele>209.0</ele><time>2026-04-11T13:14:02.857Z</time></trkpt><trkpt lat="40.8773233" lon="14.2278267"><ele>209.0</ele><time>2026-04-11T13:14:03.856Z</time></trkpt><trkpt lat="40.8774133" lon="14.2279067"><ele>209.0</ele><time>2026-04-11T13:14:04.856Z</time></trkpt><trkpt lat="40.8775067" lon="14.2279567"><ele>209.0</ele><time>2026-04-11T13:14:05.859Z</time></trkpt><trkpt lat="40.877605" lon="14.2279833"><ele>209.0</ele><time>2026-04-11T13:14:06.855Z</time></trkpt><trkpt lat="40.8777033" lon="14.22798"><ele>208.39999999999998</ele><time>2026-04-11T13:14:07.859Z</time></trkpt><trkpt lat="40.8777983" lon="14.2279467"><ele>207.8</ele><time>2026-04-11T13:14:08.855Z</time></trkpt><trkpt lat="40.8779" lon="14.2279017"><ele>207.2</ele><time>2026-04-11T13:14:09.856Z</time></trkpt><trkpt lat="40.8779983" lon="14.2278617"><ele>206.60000000000002</ele><time>2026-04-11T13:14:10.856Z</time></trkpt><trkpt lat="40.8780917" lon="14.22784"><ele>206.0</ele><time>2026-04-11T13:14:11.856Z</time></trkpt><trkpt lat="40.87818" lon="14.2278533"><ele>206.00000000000003</ele><time>2026-04-11T13:14:12.856Z</time></trkpt><trkpt lat="40.8782533" lon="14.2279083"><ele>206.0</ele><time>2026-04-11T13:14:13.856Z</time></trkpt><trkpt lat="40.87832" lon="14.2279783"><ele>206.0</ele><time>2026-04-11T13:14:14.856Z</time></trkpt><trkpt lat="40.8783733" lon="14.2280733"><ele>206.0</ele><time>2026-04-11T13:14:15.856Z</time></trkpt><trkpt lat="40.87842" lon="14.2281767"><ele>206.00000000000003</ele><time>2026-04-11T13:14:16.856Z</time></trkpt><trkpt lat="40.8784717" lon="14.2282883"><ele>206.0</ele><time>2026-04-11T13:14:17.856Z</time></trkpt><trkpt lat="40.878525" lon="14.2284017"><ele>205.20000000000002</ele><time>2026-04-11T13:14:18.856Z</time></trkpt><trkpt lat="40.878575" lon="14.228515"><ele>204.4</ele><time>2026-04-11T13:14:19.856Z</time></trkpt><trkpt lat="40.8786183" lon="14.2286283"><ele>203.6</ele><time>2026-04-11T13:14:20.856Z</time></trkpt><trkpt lat="40.8786367" lon="14.2287517"><ele>202.8</ele><time>2026-04-11T13:14:21.856Z</time></trkpt><trkpt lat="40.8786467" lon="14.22888"><ele>202.0</ele><time>2026-04-11T13:14:22.856Z</time></trkpt><trkpt lat="40.8786417" lon="14.22901"><ele>201.2</ele><time>2026-04-11T13:14:23.856Z</time></trkpt><trkpt lat="40.87863" lon="14.2291433"><ele>200.39999999999998</ele><time>2026-04-11T13:14:24.856Z</time></trkpt><trkpt lat="40.8786067" lon="14.22928"><ele>199.60000000000002</ele><time>2026-04-11T13:14:25.858Z</time></trkpt><trkpt lat="40.8785833" lon="14.2294183"><ele>198.8</ele><time>2026-04-11T13:14:26.856Z</time></trkpt><trkpt lat="40.8785617" lon="14.2295583"><ele>198.0</ele><time>2026-04-11T13:14:27.856Z</time></trkpt><trkpt lat="40.8785467" lon="14.2297017"><ele>197.2</ele><time>2026-04-11T13:14:28.856Z</time></trkpt><trkpt lat="40.8785383" lon="14.2298483"><ele>196.4</ele><time>2026-04-11T13:14:29.856Z</time></trkpt><trkpt lat="40.8785417" lon="14.2299917"><ele>195.6</ele><time>2026-04-11T13:14:30.856Z</time></trkpt><trkpt lat="40.878545" lon="14.2301383"><ele>194.79999999999998</ele><time>2026-04-11T13:14:31.856Z</time></trkpt><trkpt lat="40.8785483" lon="14.230285"><ele>194.0</ele><time>2026-04-11T13:14:32.856Z</time></trkpt><trkpt lat="40.8785267" lon="14.230425"><ele>194.0</ele><time>2026-04-11T13:14:33.856Z</time></trkpt><trkpt lat="40.878535" lon="14.2305583"><ele>194.0</ele><time>2026-04-11T13:14:34.855Z</time></trkpt><trkpt lat="40.8785633" lon="14.2306883"><ele>194.0</ele><time>2026-04-11T13:14:35.856Z</time></trkpt><trkpt lat="40.8786117" lon="14.2308"><ele>194.0</ele><time>2026-04-11T13:14:36.855Z</time></trkpt><trkpt lat="40.8786767" lon="14.2308933"><ele>194.0</ele><time>2026-04-11T13:14:37.855Z</time></trkpt><trkpt lat="40.878755" lon="14.230955"><ele>193.2</ele><time>2026-04-11T13:14:38.856Z</time></trkpt><trkpt lat="40.8788417" lon="14.2309983"><ele>192.39999999999998</ele><time>2026-04-11T13:14:39.856Z</time></trkpt><trkpt lat="40.8789267" lon="14.2310267"><ele>191.6</ele><time>2026-04-11T13:14:40.856Z</time></trkpt><trkpt lat="40.8790183" lon="14.2310167"><ele>190.8</ele><time>2026-04-11T13:14:41.856Z</time></trkpt><trkpt lat="40.8791217" lon="14.230995"><ele>190.0</ele><time>2026-04-11T13:14:42.856Z</time></trkpt><trkpt lat="40.8792267" lon="14.2309983"><ele>190.0</ele><time>2026-04-11T13:14:43.856Z</time></trkpt><trkpt lat="40.879335" lon="14.23101"><ele>190.0</ele><time>2026-04-11T13:14:44.856Z</time></trkpt><trkpt lat="40.8794433" lon="14.2310283"><ele>190.0</ele><time>2026-04-11T13:14:45.856Z</time></trkpt><trkpt lat="40.8795517" lon="14.2310533"><ele>190.0</ele><time>2026-04-11T13:14:46.858Z</time></trkpt><trkpt lat="40.8796517" lon="14.231095"><ele>190.0</ele><time>2026-04-11T13:14:47.856Z</time></trkpt><trkpt lat="40.8797483" lon="14.23115"><ele>190.0</ele><time>2026-04-11T13:14:48.856Z</time></trkpt><trkpt lat="40.8798333" lon="14.2312267"><ele>190.0</ele><time>2026-04-11T13:14:49.859Z</time></trkpt><trkpt lat="40.8799067" lon="14.2313167"><ele>190.0</ele><time>2026-04-11T13:14:50.857Z</time></trkpt><trkpt lat="40.87996" lon="14.23141"><ele>190.0</ele><time>2026-04-11T13:14:51.856Z</time></trkpt><trkpt lat="40.8800017" lon="14.2315117"><ele>190.0</ele><time>2026-04-11T13:14:52.857Z</time></trkpt><trkpt lat="40.8800383" lon="14.231605"><ele>189.33333333333334</ele><time>2026-04-11T13:14:53.857Z</time></trkpt><trkpt lat="40.8800533" lon="14.2317067"><ele>188.66666666666669</ele><time>2026-04-11T13:14:54.856Z</time></trkpt><trkpt lat="40.88005" lon="14.231815"><ele>188.0</ele><time>2026-04-11T13:14:55.857Z</time></trkpt><trkpt lat="40.880035" lon="14.2319217"><ele>187.33333333333334</ele><time>2026-04-11T13:14:56.856Z</time></trkpt><trkpt lat="40.88001" lon="14.232035"><ele>186.66666666666666</ele><time>2026-04-11T13:14:57.856Z</time></trkpt><trkpt lat="40.879995" lon="14.23215"><ele>186.0</ele><time>2026-04-11T13:14:58.856Z</time></trkpt><trkpt lat="40.8800133" lon="14.232265"><ele>185.16666666666666</ele><time>2026-04-11T13:14:59.856Z</time></trkpt><trkpt lat="40.8800517" lon="14.2323717"><ele>184.33333333333334</ele><time>2026-04-11T13:15:00.855Z</time></trkpt><trkpt lat="40.88011" lon="14.23246"><ele>183.5</ele><time>2026-04-11T13:15:01.856Z</time></trkpt><trkpt lat="40.8801767" lon="14.2325383"><ele>182.66666666666669</ele><time>2026-04-11T13:15:02.855Z</time></trkpt><trkpt lat="40.8802383" lon="14.2326117"><ele>181.83333333333334</ele><time>2026-04-11T13:15:03.857Z</time></trkpt><trkpt lat="40.8803133" lon="14.2326633"><ele>181.0</ele><time>2026-04-11T13:15:04.856Z</time></trkpt><trkpt lat="40.880385" lon="14.2327133"><ele>180.85714285714286</ele><time>2026-04-11T13:15:05.857Z</time></trkpt><trkpt lat="40.88046" lon="14.2327617"><ele>180.71428571428572</ele><time>2026-04-11T13:15:06.856Z</time></trkpt><trkpt lat="40.8805333" lon="14.232815"><ele>180.57142857142856</ele><time>2026-04-11T13:15:07.856Z</time></trkpt><trkpt lat="40.8806017" lon="14.232865"><ele>180.42857142857144</ele><time>2026-04-11T13:15:08.856Z</time></trkpt><trkpt lat="40.880665" lon="14.2329033"><ele>180.2857142857143</ele><time>2026-04-11T13:15:09.857Z</time></trkpt><trkpt lat="40.8807217" lon="14.23294"><ele>180.14285714285714</ele><time>2026-04-11T13:15:10.857Z</time></trkpt><trkpt lat="40.8807783" lon="14.2329767"><ele>180.0</ele><time>2026-04-11T13:15:11.856Z</time></trkpt><trkpt lat="40.8808333" lon="14.23302"><ele>180.0</ele><time>2026-04-11T13:15:12.856Z</time></trkpt><trkpt lat="40.8808917" lon="14.2330633"><ele>180.0</ele><time>2026-04-11T13:15:13.857Z</time></trkpt><trkpt lat="40.8809533" lon="14.233115"><ele>180.0</ele><time>2026-04-11T13:15:14.856Z</time></trkpt><trkpt lat="40.8810167" lon="14.2331733"><ele>180.0</ele><time>2026-04-11T13:15:15.858Z</time></trkpt><trkpt lat="40.88108" lon="14.233235"><ele>180.0</ele><time>2026-04-11T13:15:16.856Z</time></trkpt><trkpt lat="40.881145" lon="14.2333083"><ele>180.0</ele><time>2026-04-11T13:15:17.856Z</time></trkpt><trkpt lat="40.881205" lon="14.2333917"><ele>179.4</ele><time>2026-04-11T13:15:18.856Z</time></trkpt><trkpt lat="40.8812567" lon="14.2334917"><ele>178.8</ele><time>2026-04-11T13:15:19.856Z</time></trkpt><trkpt lat="40.881305" lon="14.233595"><ele>178.2</ele><time>2026-04-11T13:15:20.857Z</time></trkpt><trkpt lat="40.8813383" lon="14.233715"><ele>177.6</ele><time>2026-04-11T13:15:21.857Z</time></trkpt><trkpt lat="40.8813833" lon="14.2338233"><ele>177.0</ele><time>2026-04-11T13:15:22.858Z</time></trkpt><trkpt lat="40.881415" lon="14.23394"><ele>176.6</ele><time>2026-04-11T13:15:23.858Z</time></trkpt><trkpt lat="40.8814367" lon="14.2340683"><ele>176.2</ele><time>2026-04-11T13:15:24.859Z</time></trkpt><trkpt lat="40.8814467" lon="14.2342"><ele>175.8</ele><time>2026-04-11T13:15:25.858Z</time></trkpt><trkpt lat="40.881455" lon="14.2343283"><ele>175.4</ele><time>2026-04-11T13:15:26.858Z</time></trkpt><trkpt lat="40.8814567" lon="14.2344483"><ele>175.0</ele><time>2026-04-11T13:15:27.858Z</time></trkpt><trkpt lat="40.8814567" lon="14.2345633"><ele>175.0</ele><time>2026-04-11T13:15:28.858Z</time></trkpt><trkpt lat="40.8814733" lon="14.23468"><ele>175.0</ele><time>2026-04-11T13:15:29.859Z</time></trkpt><trkpt lat="40.8815017" lon="14.2347933"><ele>175.0</ele><time>2026-04-11T13:15:30.858Z</time></trkpt><trkpt lat="40.8815433" lon="14.2349033"><ele>175.0</ele><time>2026-04-11T13:15:31.858Z</time></trkpt><trkpt lat="40.8815983" lon="14.2350083"><ele>175.0</ele><time>2026-04-11T13:15:32.859Z</time></trkpt><trkpt lat="40.8816567" lon="14.23511"><ele>173.8</ele><time>2026-04-11T13:15:33.858Z</time></trkpt><trkpt lat="40.8817217" lon="14.2352083"><ele>172.6</ele><time>2026-04-11T13:15:34.859Z</time></trkpt><trkpt lat="40.881795" lon="14.2353067"><ele>171.39999999999998</ele><time>2026-04-11T13:15:35.857Z</time></trkpt><trkpt lat="40.8818683" lon="14.235405"><ele>170.2</ele><time>2026-04-11T13:15:36.857Z</time></trkpt><trkpt lat="40.8819367" lon="14.235505"><ele>169.0</ele><time>2026-04-11T13:15:37.858Z</time></trkpt><trkpt lat="40.882005" lon="14.23559"><ele>167.79999999999998</ele><time>2026-04-11T13:15:38.859Z</time></trkpt><trkpt lat="40.8820767" lon="14.235665"><ele>166.6</ele><time>2026-04-11T13:15:39.857Z</time></trkpt><trkpt lat="40.882145" lon="14.235735"><ele>165.4</ele><time>2026-04-11T13:15:40.858Z</time></trkpt><trkpt lat="40.8822183" lon="14.2358033"><ele>164.2</ele><time>2026-04-11T13:15:41.859Z</time></trkpt><trkpt lat="40.8822967" lon="14.2358667"><ele>163.0</ele><time>2026-04-11T13:15:42.859Z</time></trkpt><trkpt lat="40.8823783" lon="14.23593"><ele>163.0</ele><time>2026-04-11T13:15:43.859Z</time></trkpt><trkpt lat="40.88246" lon="14.2359933"><ele>163.0</ele><time>2026-04-11T13:15:44.858Z</time></trkpt><trkpt lat="40.8825483" lon="14.236055"><ele>163.0</ele><time>2026-04-11T13:15:45.858Z</time></trkpt><trkpt lat="40.8826383" lon="14.236115"><ele>163.0</ele><time>2026-04-11T13:15:46.859Z</time></trkpt><trkpt lat="40.88273" lon="14.2361817"><ele>163.0</ele><time>2026-04-11T13:15:47.858Z</time></trkpt><trkpt lat="40.882825" lon="14.2362517"><ele>162.60000000000002</ele><time>2026-04-11T13:15:48.857Z</time></trkpt><trkpt lat="40.8829183" lon="14.2363283"><ele>162.20000000000002</ele><time>2026-04-11T13:15:49.857Z</time></trkpt><trkpt lat="40.8830017" lon="14.2364117"><ele>161.8</ele><time>2026-04-11T13:15:50.857Z</time></trkpt><trkpt lat="40.8830733" lon="14.2365017"><ele>161.4</ele><time>2026-04-11T13:15:51.857Z</time></trkpt><trkpt lat="40.8831367" lon="14.2365933"><ele>161.0</ele><time>2026-04-11T13:15:52.858Z</time></trkpt><trkpt lat="40.8831983" lon="14.236685"><ele>160.33333333333331</ele><time>2026-04-11T13:15:53.857Z</time></trkpt><trkpt lat="40.8832633" lon="14.2367667"><ele>159.66666666666666</ele><time>2026-04-11T13:15:54.856Z</time></trkpt><trkpt lat="40.8833317" lon="14.236835"><ele>159.0</ele><time>2026-04-11T13:15:55.855Z</time></trkpt><trkpt lat="40.8834017" lon="14.23689"><ele>158.33333333333334</ele><time>2026-04-11T13:15:56.856Z</time></trkpt><trkpt lat="40.88348" lon="14.2369317"><ele>157.66666666666669</ele><time>2026-04-11T13:15:57.856Z</time></trkpt><trkpt lat="40.8835617" lon="14.23696"><ele>157.0</ele><time>2026-04-11T13:15:58.856Z</time></trkpt><trkpt lat="40.883645" lon="14.23697"><ele>156.4</ele><time>2026-04-11T13:15:59.856Z</time></trkpt><trkpt lat="40.8837233" lon="14.236975"><ele>155.79999999999998</ele><time>2026-04-11T13:16:00.856Z</time></trkpt><trkpt lat="40.8837917" lon="14.236975"><ele>155.2</ele><time>2026-04-11T13:16:01.856Z</time></trkpt><trkpt lat="40.8839033" lon="14.2369633"><ele>154.6</ele><time>2026-04-11T13:16:03.856Z</time></trkpt><trkpt lat="40.8840067" lon="14.23697"><ele>154.0</ele><time>2026-04-11T13:16:05.856Z</time></trkpt><trkpt lat="40.8841267" lon="14.2369767"><ele>154.0</ele><time>2026-04-11T13:16:07.857Z</time></trkpt><trkpt lat="40.884255" lon="14.2369833"><ele>154.0</ele><time>2026-04-11T13:16:09.856Z</time></trkpt><trkpt lat="40.88432" lon="14.2370017"><ele>154.0</ele><time>2026-04-11T13:16:10.856Z</time></trkpt><trkpt lat="40.8843833" lon="14.2370333"><ele>154.0</ele><time>2026-04-11T13:16:11.856Z</time></trkpt><trkpt lat="40.8844467" lon="14.23708"><ele>154.0</ele><time>2026-04-11T13:16:12.856Z</time></trkpt><trkpt lat="40.8845067" lon="14.2371367"><ele>154.0</ele><time>2026-04-11T13:16:13.856Z</time></trkpt><trkpt lat="40.8845633" lon="14.2372083"><ele>153.8</ele><time>2026-04-11T13:16:14.858Z</time></trkpt><trkpt lat="40.884615" lon="14.2372933"><ele>153.60000000000002</ele><time>2026-04-11T13:16:15.856Z</time></trkpt><trkpt lat="40.8846667" lon="14.2373933"><ele>153.4</ele><time>2026-04-11T13:16:16.857Z</time></trkpt><trkpt lat="40.88471" lon="14.237495"><ele>153.20000000000002</ele><time>2026-04-11T13:16:17.856Z</time></trkpt><trkpt lat="40.88475" lon="14.2376067"><ele>153.0</ele><time>2026-04-11T13:16:18.859Z</time></trkpt><trkpt lat="40.8847917" lon="14.2377217"><ele>152.4</ele><time>2026-04-11T13:16:19.857Z</time></trkpt><trkpt lat="40.88482" lon="14.2378417"><ele>151.8</ele><time>2026-04-11T13:16:20.857Z</time></trkpt><trkpt lat="40.8848567" lon="14.2379583"><ele>151.2</ele><time>2026-04-11T13:16:21.856Z</time></trkpt><trkpt lat="40.88489" lon="14.238075"><ele>150.6</ele><time>2026-04-11T13:16:22.859Z</time></trkpt><trkpt lat="40.8849283" lon="14.238195"><ele>150.0</ele><time>2026-04-11T13:16:23.856Z</time></trkpt><trkpt lat="40.884965" lon="14.2383167"><ele>149.8</ele><time>2026-04-11T13:16:24.856Z</time></trkpt><trkpt lat="40.885" lon="14.2384367"><ele>149.6</ele><time>2026-04-11T13:16:25.856Z</time></trkpt><trkpt lat="40.8850367" lon="14.2385567"><ele>149.4</ele><time>2026-04-11T13:16:26.855Z</time></trkpt><trkpt lat="40.885075" lon="14.23868"><ele>149.2</ele><time>2026-04-11T13:16:27.856Z</time></trkpt><trkpt lat="40.8851133" lon="14.2388033"><ele>149.0</ele><time>2026-04-11T13:16:28.856Z</time></trkpt><trkpt lat="40.885155" lon="14.2389283"><ele>148.4</ele><time>2026-04-11T13:16:29.856Z</time></trkpt><trkpt lat="40.8851983" lon="14.2390533"><ele>147.8</ele><time>2026-04-11T13:16:30.856Z</time></trkpt><trkpt lat="40.8852433" lon="14.2391783"><ele>147.2</ele><time>2026-04-11T13:16:31.856Z</time></trkpt><trkpt lat="40.885285" lon="14.2393067"><ele>146.6</ele><time>2026-04-11T13:16:32.856Z</time></trkpt><trkpt lat="40.88532" lon="14.2394383"><ele>146.0</ele><time>2026-04-11T13:16:33.856Z</time></trkpt><trkpt lat="40.885355" lon="14.2395717"><ele>146.0</ele><time>2026-04-11T13:16:34.857Z</time></trkpt><trkpt lat="40.8853933" lon="14.2397"><ele>146.0</ele><time>2026-04-11T13:16:35.857Z</time></trkpt><trkpt lat="40.8854333" lon="14.2398283"><ele>146.0</ele><time>2026-04-11T13:16:36.857Z</time></trkpt><trkpt lat="40.8854717" lon="14.23996"><ele>146.0</ele><time>2026-04-11T13:16:37.858Z</time></trkpt><trkpt lat="40.8855083" lon="14.2400883"><ele>146.0</ele><time>2026-04-11T13:16:38.856Z</time></trkpt><trkpt lat="40.8855533" lon="14.2402167"><ele>145.6</ele><time>2026-04-11T13:16:39.857Z</time></trkpt><trkpt lat="40.8856" lon="14.2403433"><ele>145.2</ele><time>2026-04-11T13:16:40.856Z</time></trkpt><trkpt lat="40.8856383" lon="14.2404667"><ele>144.8</ele><time>2026-04-11T13:16:41.857Z</time></trkpt><trkpt lat="40.8856733" lon="14.240595"><ele>144.4</ele><time>2026-04-11T13:16:42.856Z</time></trkpt><trkpt lat="40.8857083" lon="14.2407233"><ele>144.0</ele><time>2026-04-11T13:16:43.857Z</time></trkpt><trkpt lat="40.885745" lon="14.24085"><ele>143.6</ele><time>2026-04-11T13:16:44.856Z</time></trkpt><trkpt lat="40.8857833" lon="14.2409783"><ele>143.2</ele><time>2026-04-11T13:16:45.856Z</time></trkpt><trkpt lat="40.8858317" lon="14.2411067"><ele>142.79999999999998</ele><time>2026-04-11T13:16:46.856Z</time></trkpt><trkpt lat="40.88587" lon="14.241235"><ele>142.4</ele><time>2026-04-11T13:16:47.856Z</time></trkpt><trkpt lat="40.885905" lon="14.2413617"><ele>142.0</ele><time>2026-04-11T13:16:48.858Z</time></trkpt><trkpt lat="40.88595" lon="14.2414917"><ele>141.79999999999998</ele><time>2026-04-11T13:16:49.856Z</time></trkpt><trkpt lat="40.8859833" lon="14.241625"><ele>141.6</ele><time>2026-04-11T13:16:50.857Z</time></trkpt><trkpt lat="40.8860217" lon="14.24176"><ele>141.39999999999998</ele><time>2026-04-11T13:16:51.857Z</time></trkpt><trkpt lat="40.8860533" lon="14.2418967"><ele>141.2</ele><time>2026-04-11T13:16:52.857Z</time></trkpt><trkpt lat="40.8860983" lon="14.2420333"><ele>141.0</ele><time>2026-04-11T13:16:53.86Z</time></trkpt><trkpt lat="40.8861383" lon="14.2421617"><ele>141.0</ele><time>2026-04-11T13:16:54.858Z</time></trkpt><trkpt lat="40.8861717" lon="14.2422867"><ele>141.0</ele><time>2026-04-11T13:16:55.857Z</time></trkpt><trkpt lat="40.8862067" lon="14.2424017"><ele>141.0</ele><time>2026-04-11T13:16:56.857Z</time></trkpt><trkpt lat="40.88624" lon="14.2425133"><ele>141.0</ele><time>2026-04-11T13:16:57.856Z</time></trkpt><trkpt lat="40.8862817" lon="14.24263"><ele>141.0</ele><time>2026-04-11T13:16:58.856Z</time></trkpt><trkpt lat="40.8863217" lon="14.2427467"><ele>141.0</ele><time>2026-04-11T13:16:59.857Z</time></trkpt><trkpt lat="40.88636" lon="14.2428633"><ele>141.0</ele><time>2026-04-11T13:17:00.857Z</time></trkpt><trkpt lat="40.8864033" lon="14.24298"><ele>141.0</ele><time>2026-04-11T13:17:01.862Z</time></trkpt><trkpt lat="40.8864517" lon="14.243095"><ele>141.0</ele><time>2026-04-11T13:17:02.858Z</time></trkpt><trkpt lat="40.886495" lon="14.2432033"><ele>141.0</ele><time>2026-04-11T13:17:03.856Z</time></trkpt><trkpt lat="40.8865367" lon="14.2433033"><ele>140.57142857142858</ele><time>2026-04-11T13:17:04.858Z</time></trkpt><trkpt lat="40.886575" lon="14.2433967"><ele>140.14285714285714</ele><time>2026-04-11T13:17:05.857Z</time></trkpt><trkpt lat="40.8866067" lon="14.24349"><ele>139.71428571428572</ele><time>2026-04-11T13:17:06.858Z</time></trkpt><trkpt lat="40.8866383" lon="14.2435833"><ele>139.28571428571428</ele><time>2026-04-11T13:17:07.856Z</time></trkpt><trkpt lat="40.8866683" lon="14.2436767"><ele>138.85714285714286</ele><time>2026-04-11T13:17:08.856Z</time></trkpt><trkpt lat="40.886695" lon="14.2437633"><ele>138.42857142857144</ele><time>2026-04-11T13:17:09.855Z</time></trkpt><trkpt lat="40.8867217" lon="14.2438417"><ele>138.0</ele><time>2026-04-11T13:17:10.856Z</time></trkpt><trkpt lat="40.8867467" lon="14.2439717"><ele>137.6</ele><time>2026-04-11T13:17:12.856Z</time></trkpt><trkpt lat="40.8867567" lon="14.244085"><ele>137.20000000000002</ele><time>2026-04-11T13:17:14.856Z</time></trkpt><trkpt lat="40.8867883" lon="14.244225"><ele>136.8</ele><time>2026-04-11T13:17:16.858Z</time></trkpt><trkpt lat="40.886815" lon="14.2443733"><ele>136.4</ele><time>2026-04-11T13:17:18.856Z</time></trkpt><trkpt lat="40.8868667" lon="14.2445283"><ele>136.0</ele><time>2026-04-11T13:17:20.856Z</time></trkpt><trkpt lat="40.8869083" lon="14.244615"><ele>136.0</ele><time>2026-04-11T13:17:21.858Z</time></trkpt><trkpt lat="40.8869483" lon="14.2446983"><ele>136.0</ele><time>2026-04-11T13:17:22.857Z</time></trkpt><trkpt lat="40.8869883" lon="14.2447817"><ele>136.0</ele><time>2026-04-11T13:17:23.857Z</time></trkpt><trkpt lat="40.8870217" lon="14.24487"><ele>136.0</ele><time>2026-04-11T13:17:24.855Z</time></trkpt><trkpt lat="40.8870517" lon="14.2449633"><ele>136.0</ele><time>2026-04-11T13:17:25.859Z</time></trkpt><trkpt lat="40.88708" lon="14.2450567"><ele>136.0</ele><time>2026-04-11T13:17:26.857Z</time></trkpt><trkpt lat="40.8871217" lon="14.2451483"><ele>135.66666666666669</ele><time>2026-04-11T13:17:27.859Z</time></trkpt><trkpt lat="40.8871567" lon="14.245245"><ele>135.33333333333334</ele><time>2026-04-11T13:17:28.858Z</time></trkpt><trkpt lat="40.88719" lon="14.2453417"><ele>135.0</ele><time>2026-04-11T13:17:29.857Z</time></trkpt><trkpt lat="40.8872283" lon="14.24544"><ele>134.66666666666666</ele><time>2026-04-11T13:17:30.86Z</time></trkpt><trkpt lat="40.887265" lon="14.24554"><ele>134.33333333333331</ele><time>2026-04-11T13:17:31.857Z</time></trkpt><trkpt lat="40.8872983" lon="14.2456417"><ele>134.0</ele><time>2026-04-11T13:17:32.856Z</time></trkpt><trkpt lat="40.88733" lon="14.2457433"><ele>133.66666666666666</ele><time>2026-04-11T13:17:33.856Z</time></trkpt><trkpt lat="40.88736" lon="14.2458467"><ele>133.33333333333331</ele><time>2026-04-11T13:17:34.856Z</time></trkpt><trkpt lat="40.88739" lon="14.2459467"><ele>133.0</ele><time>2026-04-11T13:17:35.857Z</time></trkpt><trkpt lat="40.8874217" lon="14.2460433"><ele>132.66666666666666</ele><time>2026-04-11T13:17:36.856Z</time></trkpt><trkpt lat="40.8874583" lon="14.2461333"><ele>132.33333333333334</ele><time>2026-04-11T13:17:37.857Z</time></trkpt><trkpt lat="40.8874867" lon="14.24622"><ele>132.0</ele><time>2026-04-11T13:17:38.855Z</time></trkpt><trkpt lat="40.887525" lon="14.2463617"><ele>132.0</ele><time>2026-04-11T13:17:40.857Z</time></trkpt><trkpt lat="40.887555" lon="14.2464583"><ele>132.0</ele><time>2026-04-11T13:17:42.856Z</time></trkpt><trkpt lat="40.88757" lon="14.2465583"><ele>132.0</ele><time>2026-04-11T13:17:44.86Z</time></trkpt><trkpt lat="40.8876033" lon="14.2466817"><ele>132.0</ele><time>2026-04-11T13:17:46.857Z</time></trkpt><trkpt lat="40.8876533" lon="14.24684"><ele>132.0</ele><time>2026-04-11T13:17:48.858Z</time></trkpt><trkpt lat="40.887675" lon="14.2469217"><ele>131.83333333333334</ele><time>2026-04-11T13:17:49.857Z</time></trkpt><trkpt lat="40.8876983" lon="14.2470033"><ele>131.66666666666666</ele><time>2026-04-11T13:17:50.857Z</time></trkpt><trkpt lat="40.88773" lon="14.2470917"><ele>131.5</ele><time>2026-04-11T13:17:51.857Z</time></trkpt><trkpt lat="40.8877583" lon="14.2471833"><ele>131.33333333333331</ele><time>2026-04-11T13:17:52.856Z</time></trkpt><trkpt lat="40.8877867" lon="14.2472783"><ele>131.16666666666666</ele><time>2026-04-11T13:17:53.856Z</time></trkpt><trkpt lat="40.887825" lon="14.2473783"><ele>131.0</ele><time>2026-04-11T13:17:54.857Z</time></trkpt><trkpt lat="40.8878533" lon="14.24748"><ele>130.5</ele><time>2026-04-11T13:17:55.857Z</time></trkpt><trkpt lat="40.8878833" lon="14.2475817"><ele>130.0</ele><time>2026-04-11T13:17:56.857Z</time></trkpt><trkpt lat="40.8879167" lon="14.2476867"><ele>129.5</ele><time>2026-04-11T13:17:57.855Z</time></trkpt><trkpt lat="40.8879467" lon="14.24779"><ele>129.0</ele><time>2026-04-11T13:17:58.857Z</time></trkpt><trkpt lat="40.8879683" lon="14.247895"><ele>128.5</ele><time>2026-04-11T13:17:59.862Z</time></trkpt><trkpt lat="40.8880033" lon="14.248"><ele>128.0</ele><time>2026-04-11T13:18:00.856Z</time></trkpt><trkpt lat="40.88805" lon="14.248105"><ele>127.2</ele><time>2026-04-11T13:18:01.859Z</time></trkpt><trkpt lat="40.88809" lon="14.2482133"><ele>126.4</ele><time>2026-04-11T13:18:02.858Z</time></trkpt><trkpt lat="40.88813" lon="14.248325"><ele>125.60000000000001</ele><time>2026-04-11T13:18:03.857Z</time></trkpt><trkpt lat="40.888165" lon="14.2484367"><ele>124.80000000000001</ele><time>2026-04-11T13:18:04.857Z</time></trkpt><trkpt lat="40.8882033" lon="14.2485467"><ele>124.0</ele><time>2026-04-11T13:18:05.857Z</time></trkpt><trkpt lat="40.8882433" lon="14.248655"><ele>124.00000000000001</ele><time>2026-04-11T13:18:06.857Z</time></trkpt><trkpt lat="40.888285" lon="14.2487667"><ele>124.0</ele><time>2026-04-11T13:18:07.857Z</time></trkpt><trkpt lat="40.8883233" lon="14.248875"><ele>124.0</ele><time>2026-04-11T13:18:08.857Z</time></trkpt><trkpt lat="40.8883633" lon="14.2489767"><ele>124.0</ele><time>2026-04-11T13:18:09.858Z</time></trkpt><trkpt lat="40.8884083" lon="14.2490783"><ele>124.00000000000001</ele><time>2026-04-11T13:18:10.857Z</time></trkpt><trkpt lat="40.88844" lon="14.24918"><ele>124.0</ele><time>2026-04-11T13:18:11.858Z</time></trkpt><trkpt lat="40.8884767" lon="14.2492683"><ele>123.83333333333334</ele><time>2026-04-11T13:18:12.856Z</time></trkpt><trkpt lat="40.88851" lon="14.2493683"><ele>123.66666666666667</ele><time>2026-04-11T13:18:13.859Z</time></trkpt><trkpt lat="40.8885417" lon="14.249465"><ele>123.5</ele><time>2026-04-11T13:18:14.862Z</time></trkpt><trkpt lat="40.8885767" lon="14.2495583"><ele>123.33333333333334</ele><time>2026-04-11T13:18:15.857Z</time></trkpt><trkpt lat="40.888605" lon="14.2496533"><ele>123.16666666666667</ele><time>2026-04-11T13:18:16.857Z</time></trkpt><trkpt lat="40.8886317" lon="14.24974"><ele>123.0</ele><time>2026-04-11T13:18:17.858Z</time></trkpt><trkpt lat="40.8886567" lon="14.24982"><ele>122.57142857142858</ele><time>2026-04-11T13:18:18.857Z</time></trkpt><trkpt lat="40.8886833" lon="14.2498983"><ele>122.14285714285714</ele><time>2026-04-11T13:18:19.857Z</time></trkpt><trkpt lat="40.8887017" lon="14.24998"><ele>121.71428571428572</ele><time>2026-04-11T13:18:20.857Z</time></trkpt><trkpt lat="40.888725" lon="14.2500617"><ele>121.28571428571429</ele><time>2026-04-11T13:18:21.857Z</time></trkpt><trkpt lat="40.8887567" lon="14.2501483"><ele>120.85714285714286</ele><time>2026-04-11T13:18:22.858Z</time></trkpt><trkpt lat="40.8887917" lon="14.250235"><ele>120.42857142857143</ele><time>2026-04-11T13:18:23.856Z</time></trkpt><trkpt lat="40.8888167" lon="14.2503183"><ele>120.0</ele><time>2026-04-11T13:18:24.855Z</time></trkpt><trkpt lat="40.8888417" lon="14.250405"><ele>120.0</ele><time>2026-04-11T13:18:25.857Z</time></trkpt><trkpt lat="40.8888617" lon="14.2504883"><ele>120.0</ele><time>2026-04-11T13:18:26.857Z</time></trkpt><trkpt lat="40.8888417" lon="14.25065"><ele>120.0</ele><time>2026-04-11T13:18:28.858Z</time></trkpt><trkpt lat="40.8887817" lon="14.250765"><ele>120.0</ele><time>2026-04-11T13:18:30.857Z</time></trkpt><trkpt lat="40.8887233" lon="14.250805"><ele>120.0</ele><time>2026-04-11T13:18:31.857Z</time></trkpt><trkpt lat="40.888665" lon="14.250845"><ele>120.0</ele><time>2026-04-11T13:18:32.857Z</time></trkpt><trkpt lat="40.888555" lon="14.250955"><ele>120.0</ele><time>2026-04-11T13:18:34.858Z</time></trkpt><trkpt lat="40.8885167" lon="14.2510317"><ele>120.0</ele><time>2026-04-11T13:18:35.857Z</time></trkpt><trkpt lat="40.8884883" lon="14.2511083"><ele>120.0</ele><time>2026-04-11T13:18:36.857Z</time></trkpt><trkpt lat="40.88846" lon="14.2511917"><ele>120.0</ele><time>2026-04-11T13:18:37.857Z</time></trkpt><trkpt lat="40.8884317" lon="14.251275"><ele>120.0</ele><time>2026-04-11T13:18:38.857Z</time></trkpt><trkpt lat="40.8883983" lon="14.2513583"><ele>120.0</ele><time>2026-04-11T13:18:39.857Z</time></trkpt><trkpt lat="40.8883667" lon="14.2514433"><ele>120.0</ele><time>2026-04-11T13:18:40.857Z</time></trkpt><trkpt lat="40.8883367" lon="14.25153"><ele>120.42857142857143</ele><time>2026-04-11T13:18:41.857Z</time></trkpt><trkpt lat="40.8883117" lon="14.251615"><ele>120.85714285714286</ele><time>2026-04-11T13:18:42.857Z</time></trkpt><trkpt lat="40.888285" lon="14.2517"><ele>121.28571428571429</ele><time>2026-04-11T13:18:43.857Z</time></trkpt><trkpt lat="40.8882667" lon="14.2517867"><ele>121.71428571428572</ele><time>2026-04-11T13:18:44.857Z</time></trkpt><trkpt lat="40.8882433" lon="14.251875"><ele>122.14285714285714</ele><time>2026-04-11T13:18:45.857Z</time></trkpt><trkpt lat="40.8882133" lon="14.2519617"><ele>122.57142857142858</ele><time>2026-04-11T13:18:46.86Z</time></trkpt><trkpt lat="40.8881867" lon="14.2520517"><ele>123.00000000000001</ele><time>2026-04-11T13:18:47.856Z</time></trkpt><trkpt lat="40.8881617" lon="14.2521433"><ele>123.0</ele><time>2026-04-11T13:18:48.857Z</time></trkpt><trkpt lat="40.8881283" lon="14.2522333"><ele>123.0</ele><time>2026-04-11T13:18:49.857Z</time></trkpt><trkpt lat="40.88809" lon="14.2523217"><ele>123.0</ele><time>2026-04-11T13:18:50.857Z</time></trkpt><trkpt lat="40.8880483" lon="14.2524083"><ele>123.0</ele><time>2026-04-11T13:18:51.857Z</time></trkpt><trkpt lat="40.8880067" lon="14.2525"><ele>123.0</ele><time>2026-04-11T13:18:52.856Z</time></trkpt><trkpt lat="40.8879667" lon="14.252595"><ele>123.0</ele><time>2026-04-11T13:18:53.857Z</time></trkpt><trkpt lat="40.887935" lon="14.2526933"><ele>122.83333333333333</ele><time>2026-04-11T13:18:54.856Z</time></trkpt><trkpt lat="40.8879067" lon="14.252795"><ele>122.66666666666666</ele><time>2026-04-11T13:18:55.857Z</time></trkpt><trkpt lat="40.88789" lon="14.2529017"><ele>122.5</ele><time>2026-04-11T13:18:56.858Z</time></trkpt><trkpt lat="40.8878733" lon="14.253005"><ele>122.33333333333333</ele><time>2026-04-11T13:18:57.857Z</time></trkpt><trkpt lat="40.8878533" lon="14.253105"><ele>122.16666666666666</ele><time>2026-04-11T13:18:58.856Z</time></trkpt><trkpt lat="40.8878367" lon="14.2532067"><ele>122.0</ele><time>2026-04-11T13:18:59.857Z</time></trkpt><trkpt lat="40.8878283" lon="14.2533083"><ele>121.16666666666666</ele><time>2026-04-11T13:19:00.856Z</time></trkpt><trkpt lat="40.88782" lon="14.25341"><ele>120.33333333333333</ele><time>2026-04-11T13:19:01.857Z</time></trkpt><trkpt lat="40.8878183" lon="14.25351"><ele>119.5</ele><time>2026-04-11T13:19:02.856Z</time></trkpt><trkpt lat="40.88781" lon="14.2536117"><ele>118.66666666666666</ele><time>2026-04-11T13:19:03.856Z</time></trkpt><trkpt lat="40.8878033" lon="14.2537183"><ele>117.83333333333333</ele><time>2026-04-11T13:19:04.857Z</time></trkpt><trkpt lat="40.8877983" lon="14.2538283"><ele>117.0</ele><time>2026-04-11T13:19:05.858Z</time></trkpt><trkpt lat="40.887795" lon="14.2539367"><ele>116.66666666666667</ele><time>2026-04-11T13:19:06.858Z</time></trkpt><trkpt lat="40.88779" lon="14.2540417"><ele>116.33333333333334</ele><time>2026-04-11T13:19:07.856Z</time></trkpt><trkpt lat="40.887785" lon="14.2541517"><ele>116.0</ele><time>2026-04-11T13:19:08.857Z</time></trkpt><trkpt lat="40.8877833" lon="14.2542633"><ele>115.66666666666667</ele><time>2026-04-11T13:19:09.856Z</time></trkpt><trkpt lat="40.887785" lon="14.2543767"><ele>115.33333333333334</ele><time>2026-04-11T13:19:10.856Z</time></trkpt><trkpt lat="40.8877867" lon="14.2544917"><ele>115.0</ele><time>2026-04-11T13:19:11.857Z</time></trkpt><trkpt lat="40.8877883" lon="14.2546033"><ele>115.00000000000001</ele><time>2026-04-11T13:19:12.858Z</time></trkpt><trkpt lat="40.8877833" lon="14.2547183"><ele>115.0</ele><time>2026-04-11T13:19:13.858Z</time></trkpt><trkpt lat="40.88778" lon="14.254835"><ele>115.0</ele><time>2026-04-11T13:19:14.857Z</time></trkpt><trkpt lat="40.8877767" lon="14.2549383"><ele>115.0</ele><time>2026-04-11T13:19:15.858Z</time></trkpt><trkpt lat="40.8877617" lon="14.25502"><ele>115.00000000000001</ele><time>2026-04-11T13:19:16.855Z</time></trkpt><trkpt lat="40.8877167" lon="14.25514"><ele>115.0</ele><time>2026-04-11T13:19:18.857Z</time></trkpt><trkpt lat="40.88765" lon="14.2551967"><ele>115.2</ele><time>2026-04-11T13:19:20.856Z</time></trkpt><trkpt lat="40.88758" lon="14.2551717"><ele>115.4</ele><time>2026-04-11T13:19:22.856Z</time></trkpt><trkpt lat="40.8875267" lon="14.255125"><ele>115.6</ele><time>2026-04-11T13:19:23.857Z</time></trkpt><trkpt lat="40.8874267" lon="14.2550167"><ele>115.8</ele><time>2026-04-11T13:19:25.855Z</time></trkpt><trkpt lat="40.887325" lon="14.2549217"><ele>116.0</ele><time>2026-04-11T13:19:27.855Z</time></trkpt><trkpt lat="40.8872133" lon="14.2548417"><ele>115.99999999999999</ele><time>2026-04-11T13:19:29.856Z</time></trkpt><trkpt lat="40.8871483" lon="14.2548067"><ele>116.0</ele><time>2026-04-11T13:19:30.856Z</time></trkpt><trkpt lat="40.8870867" lon="14.2547767"><ele>116.0</ele><time>2026-04-11T13:19:31.857Z</time></trkpt><trkpt lat="40.8870233" lon="14.2547383"><ele>116.0</ele><time>2026-04-11T13:19:32.856Z</time></trkpt><trkpt lat="40.886965" lon="14.2546983"><ele>115.99999999999999</ele><time>2026-04-11T13:19:33.856Z</time></trkpt><trkpt lat="40.8868517" lon="14.2546217"><ele>116.0</ele><time>2026-04-11T13:19:35.856Z</time></trkpt><trkpt lat="40.8867917" lon="14.2545817"><ele>116.16666666666666</ele><time>2026-04-11T13:19:36.856Z</time></trkpt><trkpt lat="40.8867317" lon="14.25454"><ele>116.33333333333333</ele><time>2026-04-11T13:19:37.856Z</time></trkpt><trkpt lat="40.886675" lon="14.2544983"><ele>116.5</ele><time>2026-04-11T13:19:38.856Z</time></trkpt><trkpt lat="40.8865667" lon="14.25441"><ele>116.66666666666666</ele><time>2026-04-11T13:19:40.856Z</time></trkpt><trkpt lat="40.8865083" lon="14.2543633"><ele>116.83333333333333</ele><time>2026-04-11T13:19:41.857Z</time></trkpt><trkpt lat="40.886445" lon="14.2543233"><ele>117.0</ele><time>2026-04-11T13:19:42.856Z</time></trkpt><trkpt lat="40.886375" lon="14.2542917"><ele>117.0</ele><time>2026-04-11T13:19:43.857Z</time></trkpt><trkpt lat="40.88631" lon="14.254255"><ele>116.99999999999999</ele><time>2026-04-11T13:19:44.857Z</time></trkpt><trkpt lat="40.886245" lon="14.254235"><ele>116.99999999999999</ele><time>2026-04-11T13:19:45.858Z</time></trkpt><trkpt lat="40.8861333" lon="14.2542267"><ele>117.0</ele><time>2026-04-11T13:19:47.857Z</time></trkpt><trkpt lat="40.886025" lon="14.2542417"><ele>117.0</ele><time>2026-04-11T13:19:49.857Z</time></trkpt><trkpt lat="40.8859233" lon="14.2542267"><ele>117.5</ele><time>2026-04-11T13:19:51.856Z</time></trkpt><trkpt lat="40.885835" lon="14.2541833"><ele>118.0</ele><time>2026-04-11T13:19:53.858Z</time></trkpt><trkpt lat="40.8857567" lon="14.2541383"><ele>118.5</ele><time>2026-04-11T13:19:55.856Z</time></trkpt><trkpt lat="40.8856867" lon="14.25408"><ele>119.0</ele><time>2026-04-11T13:19:57.856Z</time></trkpt><trkpt lat="40.88561" lon="14.25403"><ele>119.5</ele><time>2026-04-11T13:19:59.855Z</time></trkpt><trkpt lat="40.8855267" lon="14.2539817"><ele>120.0</ele><time>2026-04-11T13:20:01.856Z</time></trkpt><trkpt lat="40.885445" lon="14.2539233"><ele>120.0</ele><time>2026-04-11T13:20:03.856Z</time></trkpt><trkpt lat="40.88536" lon="14.2538467"><ele>120.0</ele><time>2026-04-11T13:20:05.856Z</time></trkpt><trkpt lat="40.88528" lon="14.2537867"><ele>120.0</ele><time>2026-04-11T13:20:07.856Z</time></trkpt><trkpt lat="40.8852033" lon="14.253715"><ele>120.0</ele><time>2026-04-11T13:20:09.856Z</time></trkpt><trkpt lat="40.8851217" lon="14.2536183"><ele>120.0</ele><time>2026-04-11T13:20:11.856Z</time></trkpt><trkpt lat="40.88503" lon="14.2535383"><ele>120.0</ele><time>2026-04-11T13:20:13.856Z</time></trkpt><trkpt lat="40.8849417" lon="14.253465"><ele>120.0</ele><time>2026-04-11T13:20:15.856Z</time></trkpt><trkpt lat="40.88485" lon="14.253395"><ele>120.0</ele><time>2026-04-11T13:20:17.856Z</time></trkpt><trkpt lat="40.884755" lon="14.2533533"><ele>120.0</ele><time>2026-04-11T13:20:19.858Z</time></trkpt><trkpt lat="40.8846483" lon="14.25334"><ele>120.0</ele><time>2026-04-11T13:20:21.857Z</time></trkpt><trkpt lat="40.8845483" lon="14.2533483"><ele>120.0</ele><time>2026-04-11T13:20:23.857Z</time></trkpt><trkpt lat="40.8844383" lon="14.2533833"><ele>120.0</ele><time>2026-04-11T13:20:25.857Z</time></trkpt><trkpt lat="40.88434" lon="14.2534533"><ele>120.0</ele><time>2026-04-11T13:20:27.856Z</time></trkpt><trkpt lat="40.8842533" lon="14.2535717"><ele>120.0</ele><time>2026-04-11T13:20:29.857Z</time></trkpt><trkpt lat="40.88422" lon="14.2536433"><ele>120.0</ele><time>2026-04-11T13:20:30.856Z</time></trkpt><trkpt lat="40.8841933" lon="14.2537283"><ele>119.71428571428572</ele><time>2026-04-11T13:20:31.856Z</time></trkpt><trkpt lat="40.88418" lon="14.2538167"><ele>119.42857142857142</ele><time>2026-04-11T13:20:32.856Z</time></trkpt><trkpt lat="40.884175" lon="14.25391"><ele>119.14285714285714</ele><time>2026-04-11T13:20:33.856Z</time></trkpt><trkpt lat="40.8841683" lon="14.254"><ele>118.85714285714286</ele><time>2026-04-11T13:20:34.856Z</time></trkpt><trkpt lat="40.8841583" lon="14.2541"><ele>118.57142857142858</ele><time>2026-04-11T13:20:35.856Z</time></trkpt><trkpt lat="40.884145" lon="14.2541983"><ele>118.28571428571428</ele><time>2026-04-11T13:20:36.856Z</time></trkpt><trkpt lat="40.8841367" lon="14.2543117"><ele>118.0</ele><time>2026-04-11T13:20:37.856Z</time></trkpt><trkpt lat="40.884105" lon="14.2544167"><ele>117.66666666666667</ele><time>2026-04-11T13:20:38.855Z</time></trkpt><trkpt lat="40.884075" lon="14.254515"><ele>117.33333333333334</ele><time>2026-04-11T13:20:39.856Z</time></trkpt><trkpt lat="40.8840417" lon="14.254615"><ele>117.0</ele><time>2026-04-11T13:20:40.857Z</time></trkpt><trkpt lat="40.8840167" lon="14.25472"><ele>116.66666666666666</ele><time>2026-04-11T13:20:41.858Z</time></trkpt><trkpt lat="40.8840067" lon="14.25483"><ele>116.33333333333333</ele><time>2026-04-11T13:20:42.856Z</time></trkpt><trkpt lat="40.8840083" lon="14.25494"><ele>116.0</ele><time>2026-04-11T13:20:43.856Z</time></trkpt><trkpt lat="40.8840283" lon="14.255045"><ele>115.99999999999999</ele><time>2026-04-11T13:20:44.856Z</time></trkpt><trkpt lat="40.88407" lon="14.2551367"><ele>116.0</ele><time>2026-04-11T13:20:45.856Z</time></trkpt><trkpt lat="40.8841267" lon="14.25522"><ele>116.0</ele><time>2026-04-11T13:20:46.856Z</time></trkpt><trkpt lat="40.88419" lon="14.2553017"><ele>116.0</ele><time>2026-04-11T13:20:47.855Z</time></trkpt><trkpt lat="40.8842533" lon="14.2553817"><ele>115.99999999999999</ele><time>2026-04-11T13:20:48.857Z</time></trkpt><trkpt lat="40.8843133" lon="14.2554567"><ele>116.0</ele><time>2026-04-11T13:20:49.856Z</time></trkpt><trkpt lat="40.8843733" lon="14.2555267"><ele>116.16666666666666</ele><time>2026-04-11T13:20:50.858Z</time></trkpt><trkpt lat="40.8844367" lon="14.2555983"><ele>116.33333333333333</ele><time>2026-04-11T13:20:51.857Z</time></trkpt><trkpt lat="40.8844967" lon="14.2556767"><ele>116.5</ele><time>2026-04-11T13:20:52.857Z</time></trkpt><trkpt lat="40.88455" lon="14.2557667"><ele>116.66666666666666</ele><time>2026-04-11T13:20:53.856Z</time></trkpt><trkpt lat="40.8845917" lon="14.2558683"><ele>116.83333333333333</ele><time>2026-04-11T13:20:54.856Z</time></trkpt><trkpt lat="40.88463" lon="14.2559717"><ele>117.0</ele><time>2026-04-11T13:20:55.856Z</time></trkpt><trkpt lat="40.88467" lon="14.2560733"><ele>117.0</ele><time>2026-04-11T13:20:56.857Z</time></trkpt><trkpt lat="40.8847083" lon="14.256175"><ele>117.0</ele><time>2026-04-11T13:20:57.857Z</time></trkpt><trkpt lat="40.8847567" lon="14.2562733"><ele>117.0</ele><time>2026-04-11T13:20:58.855Z</time></trkpt><trkpt lat="40.88481" lon="14.2563667"><ele>117.0</ele><time>2026-04-11T13:20:59.856Z</time></trkpt><trkpt lat="40.88487" lon="14.2564483"><ele>117.0</ele><time>2026-04-11T13:21:00.856Z</time></trkpt><trkpt lat="40.8849383" lon="14.2565267"><ele>117.0</ele><time>2026-04-11T13:21:01.86Z</time></trkpt><trkpt lat="40.88501" lon="14.2566017"><ele>116.8</ele><time>2026-04-11T13:21:02.858Z</time></trkpt><trkpt lat="40.8850917" lon="14.256675"><ele>116.6</ele><time>2026-04-11T13:21:03.86Z</time></trkpt><trkpt lat="40.8851667" lon="14.2567433"><ele>116.39999999999999</ele><time>2026-04-11T13:21:04.856Z</time></trkpt><trkpt lat="40.8852433" lon="14.25681"><ele>116.19999999999999</ele><time>2026-04-11T13:21:05.858Z</time></trkpt><trkpt lat="40.8853267" lon="14.2568783"><ele>116.0</ele><time>2026-04-11T13:21:06.856Z</time></trkpt><trkpt lat="40.8854067" lon="14.2569433"><ele>116.8</ele><time>2026-04-11T13:21:07.856Z</time></trkpt><trkpt lat="40.8854833" lon="14.2570033"><ele>117.6</ele><time>2026-04-11T13:21:08.856Z</time></trkpt><trkpt lat="40.8855583" lon="14.2570633"><ele>118.4</ele><time>2026-04-11T13:21:09.855Z</time></trkpt><trkpt lat="40.8856367" lon="14.25713"><ele>119.2</ele><time>2026-04-11T13:21:10.856Z</time></trkpt><trkpt lat="40.8857117" lon="14.2572"><ele>120.0</ele><time>2026-04-11T13:21:11.857Z</time></trkpt><trkpt lat="40.8857833" lon="14.2572733"><ele>119.33333333333333</ele><time>2026-04-11T13:21:12.856Z</time></trkpt><trkpt lat="40.885855" lon="14.25734"><ele>118.66666666666666</ele><time>2026-04-11T13:21:13.856Z</time></trkpt><trkpt lat="40.88593" lon="14.2574017"><ele>118.0</ele><time>2026-04-11T13:21:14.856Z</time></trkpt><trkpt lat="40.886005" lon="14.25746"><ele>117.33333333333333</ele><time>2026-04-11T13:21:15.856Z</time></trkpt><trkpt lat="40.8860833" lon="14.2575167"><ele>116.66666666666666</ele><time>2026-04-11T13:21:16.858Z</time></trkpt><trkpt lat="40.8861567" lon="14.2575767"><ele>116.0</ele><time>2026-04-11T13:21:17.857Z</time></trkpt><trkpt lat="40.8862317" lon="14.2576333"><ele>115.99999999999999</ele><time>2026-04-11T13:21:18.856Z</time></trkpt><trkpt lat="40.886305" lon="14.2576883"><ele>116.0</ele><time>2026-04-11T13:21:19.859Z</time></trkpt><trkpt lat="40.886365" lon="14.2577467"><ele>116.0</ele><time>2026-04-11T13:21:20.856Z</time></trkpt><trkpt lat="40.8864183" lon="14.2578083"><ele>116.0</ele><time>2026-04-11T13:21:21.858Z</time></trkpt><trkpt lat="40.88646" lon="14.2579617"><ele>115.99999999999999</ele><time>2026-04-11T13:21:23.856Z</time></trkpt><trkpt lat="40.8864517" lon="14.2580567"><ele>116.0</ele><time>2026-04-11T13:21:24.856Z</time></trkpt><trkpt lat="40.886445" lon="14.25815"><ele>115.71428571428572</ele><time>2026-04-11T13:21:25.856Z</time></trkpt><trkpt lat="40.8864167" lon="14.2582333"><ele>115.42857142857143</ele><time>2026-04-11T13:21:26.857Z</time></trkpt><trkpt lat="40.8863767" lon="14.2583067"><ele>115.14285714285714</ele><time>2026-04-11T13:21:27.857Z</time></trkpt><trkpt lat="40.886335" lon="14.258375"><ele>114.85714285714286</ele><time>2026-04-11T13:21:28.856Z</time></trkpt><trkpt lat="40.8863033" lon="14.2584533"><ele>114.57142857142856</ele><time>2026-04-11T13:21:29.857Z</time></trkpt><trkpt lat="40.8862717" lon="14.2585333"><ele>114.28571428571428</ele><time>2026-04-11T13:21:30.858Z</time></trkpt><trkpt lat="40.88624" lon="14.2586183"><ele>114.0</ele><time>2026-04-11T13:21:31.857Z</time></trkpt><trkpt lat="40.88621" lon="14.25871"><ele>114.0</ele><time>2026-04-11T13:21:32.855Z</time></trkpt><trkpt lat="40.88618" lon="14.2588083"><ele>114.0</ele><time>2026-04-11T13:21:33.857Z</time></trkpt><trkpt lat="40.8861467" lon="14.2589"><ele>114.0</ele><time>2026-04-11T13:21:34.856Z</time></trkpt><trkpt lat="40.8861133" lon="14.258995"><ele>114.0</ele><time>2026-04-11T13:21:35.856Z</time></trkpt><trkpt lat="40.8860733" lon="14.259085"><ele>114.0</ele><time>2026-04-11T13:21:36.856Z</time></trkpt><trkpt lat="40.8860333" lon="14.2591667"><ele>114.0</ele><time>2026-04-11T13:21:37.856Z</time></trkpt><trkpt lat="40.88599" lon="14.259255"><ele>113.85714285714285</ele><time>2026-04-11T13:21:38.858Z</time></trkpt><trkpt lat="40.8859467" lon="14.2593417"><ele>113.7142857142857</ele><time>2026-04-11T13:21:39.856Z</time></trkpt><trkpt lat="40.8859117" lon="14.25942"><ele>113.57142857142857</ele><time>2026-04-11T13:21:40.856Z</time></trkpt><trkpt lat="40.8858767" lon="14.2594983"><ele>113.42857142857142</ele><time>2026-04-11T13:21:41.856Z</time></trkpt><trkpt lat="40.88584" lon="14.2595783"><ele>113.28571428571428</ele><time>2026-04-11T13:21:42.857Z</time></trkpt><trkpt lat="40.8858067" lon="14.2596583"><ele>113.14285714285714</ele><time>2026-04-11T13:21:43.857Z</time></trkpt><trkpt lat="40.88578" lon="14.2597433"><ele>113.0</ele><time>2026-04-11T13:21:44.857Z</time></trkpt><trkpt lat="40.8857483" lon="14.2598333"><ele>112.49999999999999</ele><time>2026-04-11T13:21:45.856Z</time></trkpt><trkpt lat="40.8857133" lon="14.2599233"><ele>112.0</ele><time>2026-04-11T13:21:46.856Z</time></trkpt><trkpt lat="40.8856783" lon="14.26001"><ele>111.5</ele><time>2026-04-11T13:21:47.857Z</time></trkpt><trkpt lat="40.8856433" lon="14.2601"><ele>111.0</ele><time>2026-04-11T13:21:48.857Z</time></trkpt><trkpt lat="40.88561" lon="14.26019"><ele>110.49999999999999</ele><time>2026-04-11T13:21:49.857Z</time></trkpt><trkpt lat="40.88557" lon="14.2602817"><ele>110.0</ele><time>2026-04-11T13:21:50.856Z</time></trkpt><trkpt lat="40.88553" lon="14.2603783"><ele>109.99999999999999</ele><time>2026-04-11T13:21:51.856Z</time></trkpt><trkpt lat="40.8854883" lon="14.260475"><ele>110.0</ele><time>2026-04-11T13:21:52.855Z</time></trkpt><trkpt lat="40.88545" lon="14.2605767"><ele>110.0</ele><time>2026-04-11T13:21:53.858Z</time></trkpt><trkpt lat="40.8854133" lon="14.260675"><ele>110.0</ele><time>2026-04-11T13:21:54.857Z</time></trkpt><trkpt lat="40.8853783" lon="14.2607717"><ele>109.99999999999999</ele><time>2026-04-11T13:21:55.858Z</time></trkpt><trkpt lat="40.885345" lon="14.2608717"><ele>110.0</ele><time>2026-04-11T13:21:56.859Z</time></trkpt><trkpt lat="40.8853183" lon="14.260975"><ele>109.83333333333333</ele><time>2026-04-11T13:21:57.858Z</time></trkpt><trkpt lat="40.8853" lon="14.26108"><ele>109.66666666666666</ele><time>2026-04-11T13:21:58.858Z</time></trkpt><trkpt lat="40.8852917" lon="14.26119"><ele>109.5</ele><time>2026-04-11T13:21:59.858Z</time></trkpt><trkpt lat="40.88529" lon="14.2613017"><ele>109.33333333333334</ele><time>2026-04-11T13:22:00.858Z</time></trkpt><trkpt lat="40.8853067" lon="14.2614117"><ele>109.16666666666667</ele><time>2026-04-11T13:22:01.858Z</time></trkpt><trkpt lat="40.8853333" lon="14.26152"><ele>109.0</ele><time>2026-04-11T13:22:02.857Z</time></trkpt><trkpt lat="40.8853633" lon="14.2616233"><ele>108.83333333333334</ele><time>2026-04-11T13:22:03.857Z</time></trkpt><trkpt lat="40.8853917" lon="14.2617267"><ele>108.66666666666667</ele><time>2026-04-11T13:22:04.858Z</time></trkpt><trkpt lat="40.8854167" lon="14.26184"><ele>108.5</ele><time>2026-04-11T13:22:05.859Z</time></trkpt><trkpt lat="40.8854417" lon="14.26194"><ele>108.33333333333334</ele><time>2026-04-11T13:22:06.858Z</time></trkpt><trkpt lat="40.8854683" lon="14.262035"><ele>108.16666666666667</ele><time>2026-04-11T13:22:07.858Z</time></trkpt><trkpt lat="40.885505" lon="14.262125"><ele>108.0</ele><time>2026-04-11T13:22:08.858Z</time></trkpt><trkpt lat="40.88554" lon="14.2622267"><ele>107.66666666666667</ele><time>2026-04-11T13:22:09.857Z</time></trkpt><trkpt lat="40.8855767" lon="14.2623217"><ele>107.33333333333334</ele><time>2026-04-11T13:22:10.856Z</time></trkpt><trkpt lat="40.8856183" lon="14.26241"><ele>107.0</ele><time>2026-04-11T13:22:11.857Z</time></trkpt><trkpt lat="40.8856517" lon="14.2625067"><ele>106.66666666666667</ele><time>2026-04-11T13:22:12.857Z</time></trkpt><trkpt lat="40.885695" lon="14.2626017"><ele>106.33333333333334</ele><time>2026-04-11T13:22:13.857Z</time></trkpt><trkpt lat="40.8857533" lon="14.2626883"><ele>106.0</ele><time>2026-04-11T13:22:14.855Z</time></trkpt><trkpt lat="40.8858183" lon="14.2627567"><ele>106.00000000000001</ele><time>2026-04-11T13:22:15.855Z</time></trkpt><trkpt lat="40.8858833" lon="14.2628133"><ele>106.0</ele><time>2026-04-11T13:22:16.856Z</time></trkpt><trkpt lat="40.8859483" lon="14.262865"><ele>106.0</ele><time>2026-04-11T13:22:17.857Z</time></trkpt><trkpt lat="40.886005" lon="14.26292"><ele>106.0</ele><time>2026-04-11T13:22:18.855Z</time></trkpt><trkpt lat="40.88606" lon="14.2629717"><ele>106.00000000000001</ele><time>2026-04-11T13:22:19.857Z</time></trkpt><trkpt lat="40.886165" lon="14.263055"><ele>106.0</ele><time>2026-04-11T13:22:21.856Z</time></trkpt><trkpt lat="40.8861417" lon="14.2631483"><ele>106.0</ele><time>2026-04-11T13:22:25.856Z</time></trkpt><trkpt lat="40.8860533" lon="14.2632233"><ele>106.0</ele><time>2026-04-11T13:22:27.857Z</time></trkpt><trkpt lat="40.8860383" lon="14.26331"><ele>106.0</ele><time>2026-04-11T13:22:29.857Z</time></trkpt><trkpt lat="40.88605" lon="14.2633967"><ele>106.0</ele><time>2026-04-11T13:22:30.856Z</time></trkpt><trkpt lat="40.8860233" lon="14.2635483"><ele>106.0</ele><time>2026-04-11T13:22:32.857Z</time></trkpt><trkpt lat="40.8859817" lon="14.2637083"><ele>106.00000000000001</ele><time>2026-04-11T13:22:34.855Z</time></trkpt><trkpt lat="40.8859483" lon="14.26379"><ele>106.0</ele><time>2026-04-11T13:22:35.857Z</time></trkpt><trkpt lat="40.885905" lon="14.2638717"><ele>106.0</ele><time>2026-04-11T13:22:36.857Z</time></trkpt><trkpt lat="40.885855" lon="14.2639567"><ele>106.0</ele><time>2026-04-11T13:22:37.857Z</time></trkpt><trkpt lat="40.8858067" lon="14.2640367"><ele>106.00000000000001</ele><time>2026-04-11T13:22:38.857Z</time></trkpt><trkpt lat="40.885755" lon="14.2641183"><ele>106.0</ele><time>2026-04-11T13:22:39.855Z</time></trkpt><trkpt lat="40.8857067" lon="14.264205"><ele>105.50000000000001</ele><time>2026-04-11T13:22:40.857Z</time></trkpt><trkpt lat="40.8856433" lon="14.26429"><ele>105.0</ele><time>2026-04-11T13:22:41.857Z</time></trkpt><trkpt lat="40.8855783" lon="14.264375"><ele>104.5</ele><time>2026-04-11T13:22:42.857Z</time></trkpt><trkpt lat="40.8855217" lon="14.2644567"><ele>104.0</ele><time>2026-04-11T13:22:43.857Z</time></trkpt><trkpt lat="40.88547" lon="14.26454"><ele>103.50000000000001</ele><time>2026-04-11T13:22:44.856Z</time></trkpt><trkpt lat="40.885415" lon="14.26462"><ele>103.0</ele><time>2026-04-11T13:22:45.857Z</time></trkpt><trkpt lat="40.8853583" lon="14.264695"><ele>103.00000000000001</ele><time>2026-04-11T13:22:46.858Z</time></trkpt><trkpt lat="40.8853067" lon="14.2647717"><ele>103.0</ele><time>2026-04-11T13:22:47.857Z</time></trkpt><trkpt lat="40.8852533" lon="14.2648483"><ele>103.0</ele><time>2026-04-11T13:22:48.857Z</time></trkpt><trkpt lat="40.8852" lon="14.2649267"><ele>103.0</ele><time>2026-04-11T13:22:49.856Z</time></trkpt><trkpt lat="40.885145" lon="14.265005"><ele>103.00000000000001</ele><time>2026-04-11T13:22:50.857Z</time></trkpt><trkpt lat="40.8850917" lon="14.2650833"><ele>103.0</ele><time>2026-04-11T13:22:51.857Z</time></trkpt><trkpt lat="40.88504" lon="14.2651583"><ele>102.83333333333334</ele><time>2026-04-11T13:22:52.857Z</time></trkpt><trkpt lat="40.8849767" lon="14.265235"><ele>102.66666666666667</ele><time>2026-04-11T13:22:53.857Z</time></trkpt><trkpt lat="40.8849217" lon="14.26531"><ele>102.5</ele><time>2026-04-11T13:22:54.856Z</time></trkpt><trkpt lat="40.88487" lon="14.2653883"><ele>102.33333333333334</ele><time>2026-04-11T13:22:55.857Z</time></trkpt><trkpt lat="40.8848133" lon="14.265465"><ele>102.16666666666667</ele><time>2026-04-11T13:22:56.858Z</time></trkpt><trkpt lat="40.8847467" lon="14.2655383"><ele>102.0</ele><time>2026-04-11T13:22:57.857Z</time></trkpt><trkpt lat="40.8846883" lon="14.2656117"><ele>101.5</ele><time>2026-04-11T13:22:58.857Z</time></trkpt><trkpt lat="40.88463" lon="14.265685"><ele>101.0</ele><time>2026-04-11T13:22:59.857Z</time></trkpt><trkpt lat="40.884575" lon="14.26576"><ele>100.5</ele><time>2026-04-11T13:23:00.856Z</time></trkpt><trkpt lat="40.8845167" lon="14.265835"><ele>100.0</ele><time>2026-04-11T13:23:01.857Z</time></trkpt><trkpt lat="40.8844567" lon="14.2659083"><ele>99.5</ele><time>2026-04-11T13:23:02.857Z</time></trkpt><trkpt lat="40.8843967" lon="14.26598"><ele>99.0</ele><time>2026-04-11T13:23:03.856Z</time></trkpt><trkpt lat="40.8843433" lon="14.266055"><ele>99.0</ele><time>2026-04-11T13:23:04.856Z</time></trkpt><trkpt lat="40.8842883" lon="14.266125"><ele>99.0</ele><time>2026-04-11T13:23:05.857Z</time></trkpt><trkpt lat="40.88423" lon="14.2662"><ele>99.0</ele><time>2026-04-11T13:23:06.857Z</time></trkpt><trkpt lat="40.8841767" lon="14.2662717"><ele>99.0</ele><time>2026-04-11T13:23:07.856Z</time></trkpt><trkpt lat="40.8841233" lon="14.2663433"><ele>99.0</ele><time>2026-04-11T13:23:08.856Z</time></trkpt><trkpt lat="40.8840683" lon="14.2664183"><ele>99.0</ele><time>2026-04-11T13:23:09.857Z</time></trkpt><trkpt lat="40.8840167" lon="14.2664933"><ele>99.16666666666667</ele><time>2026-04-11T13:23:10.857Z</time></trkpt><trkpt lat="40.88396" lon="14.2665683"><ele>99.33333333333334</ele><time>2026-04-11T13:23:11.859Z</time></trkpt><trkpt lat="40.8838983" lon="14.2666483"><ele>99.5</ele><time>2026-04-11T13:23:12.858Z</time></trkpt><trkpt lat="40.8838367" lon="14.2667267"><ele>99.66666666666667</ele><time>2026-04-11T13:23:13.858Z</time></trkpt><trkpt lat="40.883775" lon="14.2668117"><ele>99.83333333333334</ele><time>2026-04-11T13:23:14.858Z</time></trkpt><trkpt lat="40.8837167" lon="14.2668933"><ele>100.0</ele><time>2026-04-11T13:23:15.857Z</time></trkpt><trkpt lat="40.8836583" lon="14.2669733"><ele>100.00000000000001</ele><time>2026-04-11T13:23:16.86Z</time></trkpt><trkpt lat="40.8835967" lon="14.267045"><ele>100.0</ele><time>2026-04-11T13:23:17.858Z</time></trkpt><trkpt lat="40.883535" lon="14.2671183"><ele>100.0</ele><time>2026-04-11T13:23:18.858Z</time></trkpt><trkpt lat="40.88348" lon="14.2671933"><ele>100.0</ele><time>2026-04-11T13:23:19.858Z</time></trkpt><trkpt lat="40.8834283" lon="14.2672767"><ele>100.00000000000001</ele><time>2026-04-11T13:23:20.857Z</time></trkpt><trkpt lat="40.8833767" lon="14.2673667"><ele>100.0</ele><time>2026-04-11T13:23:21.857Z</time></trkpt><trkpt lat="40.8833267" lon="14.2674567"><ele>99.50000000000001</ele><time>2026-04-11T13:23:22.858Z</time></trkpt><trkpt lat="40.8832767" lon="14.2675467"><ele>99.0</ele><time>2026-04-11T13:23:23.858Z</time></trkpt><trkpt lat="40.8832267" lon="14.2676383"><ele>98.5</ele><time>2026-04-11T13:23:24.857Z</time></trkpt><trkpt lat="40.8831767" lon="14.26773"><ele>98.0</ele><time>2026-04-11T13:23:25.858Z</time></trkpt><trkpt lat="40.8831333" lon="14.267825"><ele>97.50000000000001</ele><time>2026-04-11T13:23:26.859Z</time></trkpt><trkpt lat="40.883075" lon="14.2679267"><ele>97.0</ele><time>2026-04-11T13:23:27.858Z</time></trkpt><trkpt lat="40.883045" lon="14.268025"><ele>96.83333333333334</ele><time>2026-04-11T13:23:28.857Z</time></trkpt><trkpt lat="40.8830133" lon="14.268125"><ele>96.66666666666667</ele><time>2026-04-11T13:23:29.86Z</time></trkpt><trkpt lat="40.8829817" lon="14.2682217"><ele>96.5</ele><time>2026-04-11T13:23:30.857Z</time></trkpt><trkpt lat="40.88295" lon="14.2683217"><ele>96.33333333333334</ele><time>2026-04-11T13:23:31.858Z</time></trkpt><trkpt lat="40.8829183" lon="14.2684183"><ele>96.16666666666667</ele><time>2026-04-11T13:23:32.858Z</time></trkpt><trkpt lat="40.8828867" lon="14.2685133"><ele>96.0</ele><time>2026-04-11T13:23:33.859Z</time></trkpt><trkpt lat="40.882855" lon="14.268605"><ele>96.0</ele><time>2026-04-11T13:23:34.859Z</time></trkpt><trkpt lat="40.8828217" lon="14.2686933"><ele>96.0</ele><time>2026-04-11T13:23:35.857Z</time></trkpt><trkpt lat="40.8827833" lon="14.2687783"><ele>96.0</ele><time>2026-04-11T13:23:36.857Z</time></trkpt><trkpt lat="40.8827383" lon="14.2688667"><ele>96.0</ele><time>2026-04-11T13:23:37.858Z</time></trkpt><trkpt lat="40.8826967" lon="14.2689533"><ele>96.0</ele><time>2026-04-11T13:23:38.859Z</time></trkpt><trkpt lat="40.8826483" lon="14.2690367"><ele>96.0</ele><time>2026-04-11T13:23:39.858Z</time></trkpt><trkpt lat="40.8826017" lon="14.2691217"><ele>96.0</ele><time>2026-04-11T13:23:40.859Z</time></trkpt><trkpt lat="40.88256" lon="14.2692067"><ele>96.0</ele><time>2026-04-11T13:23:41.858Z</time></trkpt><trkpt lat="40.882515" lon="14.2692883"><ele>96.0</ele><time>2026-04-11T13:23:42.859Z</time></trkpt><trkpt lat="40.8824733" lon="14.2693683"><ele>96.0</ele><time>2026-04-11T13:23:43.861Z</time></trkpt><trkpt lat="40.8824233" lon="14.2694467"><ele>96.0</ele><time>2026-04-11T13:23:44.858Z</time></trkpt><trkpt lat="40.88238" lon="14.269535"><ele>96.0</ele><time>2026-04-11T13:23:45.858Z</time></trkpt><trkpt lat="40.8823433" lon="14.2696267"><ele>96.0</ele><time>2026-04-11T13:23:46.859Z</time></trkpt><trkpt lat="40.8822967" lon="14.2697183"><ele>96.0</ele><time>2026-04-11T13:23:47.858Z</time></trkpt><trkpt lat="40.8822567" lon="14.2698167"><ele>96.0</ele><time>2026-04-11T13:23:48.858Z</time></trkpt><trkpt lat="40.8822333" lon="14.2699233"><ele>96.0</ele><time>2026-04-11T13:23:49.858Z</time></trkpt><trkpt lat="40.8822183" lon="14.2700317"><ele>96.0</ele><time>2026-04-11T13:23:50.858Z</time></trkpt><trkpt lat="40.8822117" lon="14.2701417"><ele>96.0</ele><time>2026-04-11T13:23:51.858Z</time></trkpt><trkpt lat="40.8821983" lon="14.2702467"><ele>95.83333333333333</ele><time>2026-04-11T13:23:52.859Z</time></trkpt><trkpt lat="40.8821817" lon="14.2703467"><ele>95.66666666666667</ele><time>2026-04-11T13:23:53.859Z</time></trkpt><trkpt lat="40.88217" lon="14.27045"><ele>95.5</ele><time>2026-04-11T13:23:54.858Z</time></trkpt><trkpt lat="40.8821633" lon="14.270555"><ele>95.33333333333334</ele><time>2026-04-11T13:23:55.858Z</time></trkpt><trkpt lat="40.882165" lon="14.27066"><ele>95.16666666666667</ele><time>2026-04-11T13:23:56.858Z</time></trkpt><trkpt lat="40.8821717" lon="14.2707633"><ele>95.0</ele><time>2026-04-11T13:23:57.858Z</time></trkpt><trkpt lat="40.8821817" lon="14.2708567"><ele>94.83333333333334</ele><time>2026-04-11T13:23:58.858Z</time></trkpt><trkpt lat="40.8821983" lon="14.270945"><ele>94.66666666666667</ele><time>2026-04-11T13:23:59.858Z</time></trkpt><trkpt lat="40.8822133" lon="14.2710283"><ele>94.5</ele><time>2026-04-11T13:24:00.858Z</time></trkpt><trkpt lat="40.8822117" lon="14.271115"><ele>94.33333333333333</ele><time>2026-04-11T13:24:01.859Z</time></trkpt><trkpt lat="40.8821867" lon="14.2712667"><ele>94.16666666666666</ele><time>2026-04-11T13:24:03.857Z</time></trkpt><trkpt lat="40.88215" lon="14.271375"><ele>94.0</ele><time>2026-04-11T13:24:05.858Z</time></trkpt><trkpt lat="40.8822183" lon="14.271425"><ele>93.6</ele><time>2026-04-11T13:24:10.858Z</time></trkpt><trkpt lat="40.8822017" lon="14.2715233"><ele>93.2</ele><time>2026-04-11T13:24:14.857Z</time></trkpt><trkpt lat="40.8821183" lon="14.2715867"><ele>92.8</ele><time>2026-04-11T13:24:16.858Z</time></trkpt><trkpt lat="40.8820333" lon="14.2716783"><ele>92.39999999999999</ele><time>2026-04-11T13:24:18.858Z</time></trkpt><trkpt lat="40.881985" lon="14.27182"><ele>92.0</ele><time>2026-04-11T13:24:20.858Z</time></trkpt><trkpt lat="40.8819767" lon="14.271905"><ele>92.0</ele><time>2026-04-11T13:24:21.859Z</time></trkpt><trkpt lat="40.8819867" lon="14.2719917"><ele>92.0</ele><time>2026-04-11T13:24:22.858Z</time></trkpt><trkpt lat="40.882015" lon="14.2720733"><ele>92.0</ele><time>2026-04-11T13:24:23.859Z</time></trkpt><trkpt lat="40.8820583" lon="14.2721467"><ele>92.0</ele><time>2026-04-11T13:24:24.857Z</time></trkpt><trkpt lat="40.882115" lon="14.2722067"><ele>92.0</ele><time>2026-04-11T13:24:25.858Z</time></trkpt><trkpt lat="40.882175" lon="14.27226"><ele>92.0</ele><time>2026-04-11T13:24:26.858Z</time></trkpt><trkpt lat="40.8822433" lon="14.2723133"><ele>92.0</ele><time>2026-04-11T13:24:27.857Z</time></trkpt><trkpt lat="40.8823133" lon="14.2723617"><ele>92.16666666666667</ele><time>2026-04-11T13:24:28.858Z</time></trkpt><trkpt lat="40.8823867" lon="14.27241"><ele>92.33333333333334</ele><time>2026-04-11T13:24:29.858Z</time></trkpt><trkpt lat="40.882455" lon="14.2724617"><ele>92.5</ele><time>2026-04-11T13:24:30.858Z</time></trkpt><trkpt lat="40.8825217" lon="14.2725183"><ele>92.66666666666667</ele><time>2026-04-11T13:24:31.86Z</time></trkpt><trkpt lat="40.8825883" lon="14.2725783"><ele>92.83333333333333</ele><time>2026-04-11T13:24:32.857Z</time></trkpt><trkpt lat="40.8826583" lon="14.27264"><ele>93.0</ele><time>2026-04-11T13:24:33.856Z</time></trkpt><trkpt lat="40.8827283" lon="14.2726917"><ele>93.5</ele><time>2026-04-11T13:24:34.856Z</time></trkpt><trkpt lat="40.8827933" lon="14.2727483"><ele>94.0</ele><time>2026-04-11T13:24:35.857Z</time></trkpt><trkpt lat="40.8828583" lon="14.27281"><ele>94.5</ele><time>2026-04-11T13:24:36.857Z</time></trkpt><trkpt lat="40.8829233" lon="14.2728767"><ele>95.0</ele><time>2026-04-11T13:24:37.857Z</time></trkpt><trkpt lat="40.8829883" lon="14.2729467"><ele>95.5</ele><time>2026-04-11T13:24:38.857Z</time></trkpt><trkpt lat="40.88306" lon="14.2730183"><ele>96.0</ele><time>2026-04-11T13:24:39.857Z</time></trkpt><trkpt lat="40.8831333" lon="14.27309"><ele>95.6</ele><time>2026-04-11T13:24:40.857Z</time></trkpt><trkpt lat="40.88321" lon="14.2731667"><ele>95.19999999999999</ele><time>2026-04-11T13:24:41.858Z</time></trkpt><trkpt lat="40.8832833" lon="14.2732417"><ele>94.80000000000001</ele><time>2026-04-11T13:24:42.858Z</time></trkpt><trkpt lat="40.8833533" lon="14.2733133"><ele>94.4</ele><time>2026-04-11T13:24:43.858Z</time></trkpt><trkpt lat="40.8834217" lon="14.2733867"><ele>94.0</ele><time>2026-04-11T13:24:44.859Z</time></trkpt><trkpt lat="40.8834933" lon="14.273455"><ele>94.0</ele><time>2026-04-11T13:24:45.857Z</time></trkpt><trkpt lat="40.883565" lon="14.2735283"><ele>94.0</ele><time>2026-04-11T13:24:46.857Z</time></trkpt><trkpt lat="40.8836367" lon="14.2735967"><ele>94.0</ele><time>2026-04-11T13:24:47.858Z</time></trkpt><trkpt lat="40.883705" lon="14.273665"><ele>94.0</ele><time>2026-04-11T13:24:48.859Z</time></trkpt><trkpt lat="40.883775" lon="14.2737317"><ele>94.0</ele><time>2026-04-11T13:24:49.857Z</time></trkpt><trkpt lat="40.8838467" lon="14.2738033"><ele>94.0</ele><time>2026-04-11T13:24:50.856Z</time></trkpt><trkpt lat="40.8839167" lon="14.273875"><ele>93.83333333333333</ele><time>2026-04-11T13:24:51.856Z</time></trkpt><trkpt lat="40.8839883" lon="14.273945"><ele>93.66666666666666</ele><time>2026-04-11T13:24:52.856Z</time></trkpt><trkpt lat="40.8840583" lon="14.274015"><ele>93.5</ele><time>2026-04-11T13:24:53.856Z</time></trkpt><trkpt lat="40.8841267" lon="14.2740883"><ele>93.33333333333333</ele><time>2026-04-11T13:24:54.856Z</time></trkpt><trkpt lat="40.884195" lon="14.27416"><ele>93.16666666666667</ele><time>2026-04-11T13:24:55.856Z</time></trkpt><trkpt lat="40.8842667" lon="14.27423"><ele>93.0</ele><time>2026-04-11T13:24:56.856Z</time></trkpt><trkpt lat="40.88434" lon="14.2742933"><ele>92.66666666666667</ele><time>2026-04-11T13:24:57.855Z</time></trkpt><trkpt lat="40.88441" lon="14.2743633"><ele>92.33333333333333</ele><time>2026-04-11T13:24:58.856Z</time></trkpt><trkpt lat="40.8844783" lon="14.2744333"><ele>92.0</ele><time>2026-04-11T13:24:59.856Z</time></trkpt><trkpt lat="40.884545" lon="14.2745033"><ele>91.66666666666666</ele><time>2026-04-11T13:25:00.856Z</time></trkpt><trkpt lat="40.8846117" lon="14.2745717"><ele>91.33333333333333</ele><time>2026-04-11T13:25:01.856Z</time></trkpt><trkpt lat="40.8846767" lon="14.2746367"><ele>91.0</ele><time>2026-04-11T13:25:02.856Z</time></trkpt><trkpt lat="40.8847417" lon="14.2747"><ele>91.0</ele><time>2026-04-11T13:25:03.857Z</time></trkpt><trkpt lat="40.8848033" lon="14.2747633"><ele>91.0</ele><time>2026-04-11T13:25:04.856Z</time></trkpt><trkpt lat="40.884865" lon="14.274825"><ele>91.0</ele><time>2026-04-11T13:25:05.856Z</time></trkpt><trkpt lat="40.8849267" lon="14.2748883"><ele>91.0</ele><time>2026-04-11T13:25:06.856Z</time></trkpt><trkpt lat="40.8849883" lon="14.2749533"><ele>91.0</ele><time>2026-04-11T13:25:07.858Z</time></trkpt><trkpt lat="40.8850533" lon="14.2750183"><ele>91.0</ele><time>2026-04-11T13:25:08.856Z</time></trkpt><trkpt lat="40.8851183" lon="14.275085"><ele>91.16666666666666</ele><time>2026-04-11T13:25:09.858Z</time></trkpt><trkpt lat="40.8851833" lon="14.275155"><ele>91.33333333333333</ele><time>2026-04-11T13:25:10.857Z</time></trkpt><trkpt lat="40.8852483" lon="14.2752217"><ele>91.5</ele><time>2026-04-11T13:25:11.859Z</time></trkpt><trkpt lat="40.8853133" lon="14.27529"><ele>91.66666666666667</ele><time>2026-04-11T13:25:12.855Z</time></trkpt><trkpt lat="40.885375" lon="14.2753617"><ele>91.83333333333334</ele><time>2026-04-11T13:25:13.856Z</time></trkpt><trkpt lat="40.88544" lon="14.2754283"><ele>92.0</ele><time>2026-04-11T13:25:14.856Z</time></trkpt><trkpt lat="40.8855083" lon="14.2754883"><ele>92.0</ele><time>2026-04-11T13:25:15.856Z</time></trkpt><trkpt lat="40.8855767" lon="14.2755383"><ele>92.0</ele><time>2026-04-11T13:25:16.855Z</time></trkpt><trkpt lat="40.8856467" lon="14.2755833"><ele>92.0</ele><time>2026-04-11T13:25:17.856Z</time></trkpt><trkpt lat="40.88572" lon="14.2756283"><ele>92.0</ele><time>2026-04-11T13:25:18.856Z</time></trkpt><trkpt lat="40.885795" lon="14.2756667"><ele>92.0</ele><time>2026-04-11T13:25:19.857Z</time></trkpt><trkpt lat="40.8858717" lon="14.2756967"><ele>92.0</ele><time>2026-04-11T13:25:20.858Z</time></trkpt><trkpt lat="40.88595" lon="14.2757233"><ele>91.6</ele><time>2026-04-11T13:25:21.856Z</time></trkpt><trkpt lat="40.886025" lon="14.2757533"><ele>91.19999999999999</ele><time>2026-04-11T13:25:22.856Z</time></trkpt><trkpt lat="40.886095" lon="14.2757817"><ele>90.8</ele><time>2026-04-11T13:25:23.856Z</time></trkpt><trkpt lat="40.8862" lon="14.2758567"><ele>90.4</ele><time>2026-04-11T13:25:25.857Z</time></trkpt><trkpt lat="40.8862717" lon="14.2759217"><ele>90.0</ele><time>2026-04-11T13:25:27.856Z</time></trkpt><trkpt lat="40.8863483" lon="14.2759933"><ele>90.0</ele><time>2026-04-11T13:25:30.857Z</time></trkpt><trkpt lat="40.8864117" lon="14.27605"><ele>90.0</ele><time>2026-04-11T13:25:32.855Z</time></trkpt><trkpt lat="40.886495" lon="14.2761233"><ele>90.0</ele><time>2026-04-11T13:25:34.855Z</time></trkpt><trkpt lat="40.8865933" lon="14.27618"><ele>90.0</ele><time>2026-04-11T13:25:36.865Z</time></trkpt><trkpt lat="40.8866883" lon="14.2762417"><ele>90.0</ele><time>2026-04-11T13:25:38.856Z</time></trkpt><trkpt lat="40.8867867" lon="14.27631"><ele>90.0</ele><time>2026-04-11T13:25:40.856Z</time></trkpt><trkpt lat="40.886895" lon="14.27639"><ele>90.0</ele><time>2026-04-11T13:25:42.858Z</time></trkpt><trkpt lat="40.88695" lon="14.276435"><ele>90.0</ele><time>2026-04-11T13:25:43.856Z</time></trkpt><trkpt lat="40.88705" lon="14.276525"><ele>90.0</ele><time>2026-04-11T13:25:45.856Z</time></trkpt><trkpt lat="40.8871417" lon="14.2766083"><ele>90.0</ele><time>2026-04-11T13:25:47.856Z</time></trkpt><trkpt lat="40.8872383" lon="14.2766783"><ele>90.0</ele><time>2026-04-11T13:25:49.856Z</time></trkpt><trkpt lat="40.88734" lon="14.27674"><ele>90.0</ele><time>2026-04-11T13:25:51.858Z</time></trkpt><trkpt lat="40.8874417" lon="14.2768117"><ele>90.0</ele><time>2026-04-11T13:25:53.858Z</time></trkpt><trkpt lat="40.88755" lon="14.2768817"><ele>90.0</ele><time>2026-04-11T13:25:55.857Z</time></trkpt><trkpt lat="40.88761" lon="14.2769183"><ele>90.0</ele><time>2026-04-11T13:25:56.856Z</time></trkpt><trkpt lat="40.8876733" lon="14.27696"><ele>90.0</ele><time>2026-04-11T13:25:57.856Z</time></trkpt><trkpt lat="40.8877383" lon="14.2770033"><ele>90.0</ele><time>2026-04-11T13:25:58.856Z</time></trkpt><trkpt lat="40.8878033" lon="14.2770467"><ele>90.0</ele><time>2026-04-11T13:25:59.855Z</time></trkpt><trkpt lat="40.8878667" lon="14.27709"><ele>90.0</ele><time>2026-04-11T13:26:00.857Z</time></trkpt><trkpt lat="40.8879267" lon="14.2771417"><ele>90.0</ele><time>2026-04-11T13:26:01.856Z</time></trkpt><trkpt lat="40.887985" lon="14.27719"><ele>90.0</ele><time>2026-04-11T13:26:02.857Z</time></trkpt><trkpt lat="40.8880383" lon="14.2772417"><ele>90.0</ele><time>2026-04-11T13:26:03.856Z</time></trkpt><trkpt lat="40.8880917" lon="14.2772883"><ele>90.0</ele><time>2026-04-11T13:26:04.859Z</time></trkpt><trkpt lat="40.88815" lon="14.277335"><ele>90.0</ele><time>2026-04-11T13:26:05.856Z</time></trkpt><trkpt lat="40.8882033" lon="14.2773883"><ele>90.0</ele><time>2026-04-11T13:26:06.855Z</time></trkpt><trkpt lat="40.8882583" lon="14.277435"><ele>90.0</ele><time>2026-04-11T13:26:07.856Z</time></trkpt><trkpt lat="40.8883583" lon="14.277525"><ele>90.0</ele><time>2026-04-11T13:26:09.856Z</time></trkpt><trkpt lat="40.888455" lon="14.2776133"><ele>90.0</ele><time>2026-04-11T13:26:11.857Z</time></trkpt><trkpt lat="40.8885483" lon="14.277695"><ele>90.0</ele><time>2026-04-11T13:26:13.856Z</time></trkpt><trkpt lat="40.8886467" lon="14.2777767"><ele>90.0</ele><time>2026-04-11T13:26:15.858Z</time></trkpt><trkpt lat="40.888705" lon="14.2778167"><ele>90.0</ele><time>2026-04-11T13:26:16.858Z</time></trkpt><trkpt lat="40.888765" lon="14.2778567"><ele>90.0</ele><time>2026-04-11T13:26:17.856Z</time></trkpt><trkpt lat="40.888825" lon="14.2779"><ele>90.0</ele><time>2026-04-11T13:26:18.859Z</time></trkpt><trkpt lat="40.8888833" lon="14.2779467"><ele>90.0</ele><time>2026-04-11T13:26:19.856Z</time></trkpt><trkpt lat="40.88895" lon="14.277985"><ele>90.0</ele><time>2026-04-11T13:26:20.864Z</time></trkpt><trkpt lat="40.8890217" lon="14.2780117"><ele>90.0</ele><time>2026-04-11T13:26:21.859Z</time></trkpt><trkpt lat="40.8890917" lon="14.2780417"><ele>90.0</ele><time>2026-04-11T13:26:22.858Z</time></trkpt><trkpt lat="40.889165" lon="14.2780667"><ele>90.0</ele><time>2026-04-11T13:26:23.857Z</time></trkpt><trkpt lat="40.8892417" lon="14.278085"><ele>90.0</ele><time>2026-04-11T13:26:24.863Z</time></trkpt><trkpt lat="40.8893167" lon="14.278105"><ele>90.0</ele><time>2026-04-11T13:26:25.863Z</time></trkpt><trkpt lat="40.8893883" lon="14.278125"><ele>89.66666666666667</ele><time>2026-04-11T13:26:26.862Z</time></trkpt><trkpt lat="40.8894667" lon="14.2781283"><ele>89.33333333333333</ele><time>2026-04-11T13:26:27.861Z</time></trkpt><trkpt lat="40.8895483" lon="14.2781367"><ele>89.0</ele><time>2026-04-11T13:26:28.862Z</time></trkpt><trkpt lat="40.8896267" lon="14.2781633"><ele>88.66666666666666</ele><time>2026-04-11T13:26:29.856Z</time></trkpt><trkpt lat="40.889705" lon="14.278185"><ele>88.33333333333333</ele><time>2026-04-11T13:26:30.857Z</time></trkpt><trkpt lat="40.8897783" lon="14.278215"><ele>88.0</ele><time>2026-04-11T13:26:31.857Z</time></trkpt><trkpt lat="40.88985" lon="14.2782333"><ele>88.0</ele><time>2026-04-11T13:26:32.857Z</time></trkpt><trkpt lat="40.8899267" lon="14.2782633"><ele>88.0</ele><time>2026-04-11T13:26:33.856Z</time></trkpt><trkpt lat="40.8900017" lon="14.27829"><ele>88.0</ele><time>2026-04-11T13:26:34.857Z</time></trkpt><trkpt lat="40.89008" lon="14.2783267"><ele>88.0</ele><time>2026-04-11T13:26:35.857Z</time></trkpt><trkpt lat="40.890155" lon="14.27836"><ele>88.0</ele><time>2026-04-11T13:26:36.858Z</time></trkpt><trkpt lat="40.8902267" lon="14.2783983"><ele>88.0</ele><time>2026-04-11T13:26:37.859Z</time></trkpt><trkpt lat="40.89031" lon="14.2784383"><ele>88.83333333333333</ele><time>2026-04-11T13:26:38.857Z</time></trkpt><trkpt lat="40.8903867" lon="14.278475"><ele>89.66666666666666</ele><time>2026-04-11T13:26:39.859Z</time></trkpt><trkpt lat="40.8904567" lon="14.278515"><ele>90.5</ele><time>2026-04-11T13:26:40.856Z</time></trkpt><trkpt lat="40.89053" lon="14.278555"><ele>91.33333333333333</ele><time>2026-04-11T13:26:41.859Z</time></trkpt><trkpt lat="40.8905967" lon="14.2786033"><ele>92.16666666666667</ele><time>2026-04-11T13:26:42.857Z</time></trkpt><trkpt lat="40.890665" lon="14.2786467"><ele>93.0</ele><time>2026-04-11T13:26:43.858Z</time></trkpt><trkpt lat="40.890735" lon="14.2786833"><ele>93.0</ele><time>2026-04-11T13:26:44.856Z</time></trkpt><trkpt lat="40.8908017" lon="14.2787183"><ele>93.0</ele><time>2026-04-11T13:26:45.86Z</time></trkpt><trkpt lat="40.890865" lon="14.27875"><ele>93.0</ele><time>2026-04-11T13:26:46.855Z</time></trkpt><trkpt lat="40.8909333" lon="14.27878"><ele>93.0</ele><time>2026-04-11T13:26:47.855Z</time></trkpt><trkpt lat="40.890995" lon="14.2788117"><ele>93.0</ele><time>2026-04-11T13:26:48.857Z</time></trkpt><trkpt lat="40.891055" lon="14.2788467"><ele>93.0</ele><time>2026-04-11T13:26:49.857Z</time></trkpt><trkpt lat="40.8911733" lon="14.2789083"><ele>92.57142857142858</ele><time>2026-04-11T13:26:51.856Z</time></trkpt><trkpt lat="40.8912333" lon="14.2789383"><ele>92.14285714285714</ele><time>2026-04-11T13:26:52.856Z</time></trkpt><trkpt lat="40.8912933" lon="14.2789717"><ele>91.71428571428572</ele><time>2026-04-11T13:26:53.857Z</time></trkpt><trkpt lat="40.8913567" lon="14.2790017"><ele>91.28571428571429</ele><time>2026-04-11T13:26:54.856Z</time></trkpt><trkpt lat="40.8914217" lon="14.2790333"><ele>90.85714285714286</ele><time>2026-04-11T13:26:55.857Z</time></trkpt><trkpt lat="40.8914867" lon="14.2790633"><ele>90.42857142857143</ele><time>2026-04-11T13:26:56.857Z</time></trkpt><trkpt lat="40.89155" lon="14.2790933"><ele>90.0</ele><time>2026-04-11T13:26:57.856Z</time></trkpt><trkpt lat="40.8916083" lon="14.2791317"><ele>90.0</ele><time>2026-04-11T13:26:58.858Z</time></trkpt><trkpt lat="40.8916683" lon="14.27917"><ele>90.0</ele><time>2026-04-11T13:26:59.857Z</time></trkpt><trkpt lat="40.891725" lon="14.2792083"><ele>90.0</ele><time>2026-04-11T13:27:00.856Z</time></trkpt><trkpt lat="40.8918233" lon="14.2792767"><ele>90.0</ele><time>2026-04-11T13:27:02.859Z</time></trkpt><trkpt lat="40.891865" lon="14.2793633"><ele>90.0</ele><time>2026-04-11T13:27:04.857Z</time></trkpt><trkpt lat="40.8918883" lon="14.2794617"><ele>90.0</ele><time>2026-04-11T13:27:06.856Z</time></trkpt><trkpt lat="40.8918533" lon="14.2795317"><ele>90.0</ele><time>2026-04-11T13:27:08.856Z</time></trkpt><trkpt lat="40.8917533" lon="14.2795917"><ele>90.0</ele><time>2026-04-11T13:27:10.857Z</time></trkpt><trkpt lat="40.89169" lon="14.2796167"><ele>90.0</ele><time>2026-04-11T13:27:11.856Z</time></trkpt><trkpt lat="40.891595" lon="14.2796867"><ele>90.0</ele><time>2026-04-11T13:27:13.857Z</time></trkpt><trkpt lat="40.8915217" lon="14.2797217"><ele>90.0</ele><time>2026-04-11T13:27:14.858Z</time></trkpt><trkpt lat="40.8914433" lon="14.279755"><ele>90.0</ele><time>2026-04-11T13:27:15.856Z</time></trkpt><trkpt lat="40.891335" lon="14.2798317"><ele>89.4</ele><time>2026-04-11T13:27:17.857Z</time></trkpt><trkpt lat="40.8912267" lon="14.2799183"><ele>88.8</ele><time>2026-04-11T13:27:19.857Z</time></trkpt><trkpt lat="40.8911217" lon="14.2800017"><ele>88.19999999999999</ele><time>2026-04-11T13:27:21.856Z</time></trkpt><trkpt lat="40.891065" lon="14.2800433"><ele>87.6</ele><time>2026-04-11T13:27:22.856Z</time></trkpt><trkpt lat="40.8910067" lon="14.2800883"><ele>87.0</ele><time>2026-04-11T13:27:23.86Z</time></trkpt><trkpt lat="40.8909017" lon="14.2801767"><ele>86.85714285714286</ele><time>2026-04-11T13:27:25.858Z</time></trkpt><trkpt lat="40.8908467" lon="14.28022"><ele>86.71428571428572</ele><time>2026-04-11T13:27:26.856Z</time></trkpt><trkpt lat="40.8907917" lon="14.280265"><ele>86.57142857142858</ele><time>2026-04-11T13:27:27.856Z</time></trkpt><trkpt lat="40.89074" lon="14.280315"><ele>86.42857142857143</ele><time>2026-04-11T13:27:28.856Z</time></trkpt><trkpt lat="40.890685" lon="14.2803617"><ele>86.28571428571429</ele><time>2026-04-11T13:27:29.856Z</time></trkpt><trkpt lat="40.8906267" lon="14.2804033"><ele>86.14285714285715</ele><time>2026-04-11T13:27:30.857Z</time></trkpt><trkpt lat="40.89057" lon="14.2804533"><ele>86.0</ele><time>2026-04-11T13:27:31.859Z</time></trkpt><trkpt lat="40.8905117" lon="14.2804983"><ele>86.0</ele><time>2026-04-11T13:27:32.857Z</time></trkpt><trkpt lat="40.8904583" lon="14.2805467"><ele>86.0</ele><time>2026-04-11T13:27:33.856Z</time></trkpt><trkpt lat="40.8904033" lon="14.2805917"><ele>86.0</ele><time>2026-04-11T13:27:34.857Z</time></trkpt><trkpt lat="40.89035" lon="14.2806367"><ele>86.0</ele><time>2026-04-11T13:27:35.86Z</time></trkpt><trkpt lat="40.8902567" lon="14.2807317"><ele>86.0</ele><time>2026-04-11T13:27:37.858Z</time></trkpt><trkpt lat="40.890175" lon="14.2808267"><ele>86.0</ele><time>2026-04-11T13:27:39.857Z</time></trkpt><trkpt lat="40.8901333" lon="14.2809233"><ele>85.8</ele><time>2026-04-11T13:27:41.856Z</time></trkpt><trkpt lat="40.8901267" lon="14.2810183"><ele>85.6</ele><time>2026-04-11T13:27:43.857Z</time></trkpt><trkpt lat="40.890175" lon="14.281135"><ele>85.4</ele><time>2026-04-11T13:27:45.856Z</time></trkpt><trkpt lat="40.8902533" lon="14.28128"><ele>85.2</ele><time>2026-04-11T13:27:47.856Z</time></trkpt><trkpt lat="40.8903017" lon="14.281345"><ele>85.0</ele><time>2026-04-11T13:27:48.858Z</time></trkpt><trkpt lat="40.8903633" lon="14.2814183"><ele>85.16666666666666</ele><time>2026-04-11T13:27:49.857Z</time></trkpt><trkpt lat="40.89041" lon="14.281485"><ele>85.33333333333333</ele><time>2026-04-11T13:27:50.857Z</time></trkpt><trkpt lat="40.8904583" lon="14.2815617"><ele>85.5</ele><time>2026-04-11T13:27:51.859Z</time></trkpt><trkpt lat="40.89051" lon="14.28164"><ele>85.66666666666667</ele><time>2026-04-11T13:27:52.856Z</time></trkpt><trkpt lat="40.8905533" lon="14.281715"><ele>85.83333333333334</ele><time>2026-04-11T13:27:53.857Z</time></trkpt><trkpt lat="40.890595" lon="14.2817833"><ele>86.0</ele><time>2026-04-11T13:27:54.856Z</time></trkpt><trkpt lat="40.89068" lon="14.28191"><ele>86.0</ele><time>2026-04-11T13:27:56.868Z</time></trkpt><trkpt lat="40.890725" lon="14.28199"><ele>86.0</ele><time>2026-04-11T13:27:57.857Z</time></trkpt><trkpt lat="40.8907717" lon="14.28206"><ele>86.0</ele><time>2026-04-11T13:27:58.86Z</time></trkpt><trkpt lat="40.890835" lon="14.2821317"><ele>86.0</ele><time>2026-04-11T13:27:59.86Z</time></trkpt><trkpt lat="40.8909033" lon="14.2821967"><ele>86.0</ele><time>2026-04-11T13:28:00.86Z</time></trkpt><trkpt lat="40.89096" lon="14.2822633"><ele>86.0</ele><time>2026-04-11T13:28:01.859Z</time></trkpt><trkpt lat="40.8910133" lon="14.2823267"><ele>86.19999999999999</ele><time>2026-04-11T13:28:02.86Z</time></trkpt><trkpt lat="40.8910683" lon="14.2823817"><ele>86.39999999999999</ele><time>2026-04-11T13:28:03.86Z</time></trkpt><trkpt lat="40.8911383" lon="14.282515"><ele>86.6</ele><time>2026-04-11T13:28:05.859Z</time></trkpt><trkpt lat="40.891185" lon="14.28258"><ele>86.8</ele><time>2026-04-11T13:28:06.86Z</time></trkpt><trkpt lat="40.89127" lon="14.28269"><ele>87.0</ele><time>2026-04-11T13:28:08.86Z</time></trkpt><trkpt lat="40.8913433" lon="14.2827233"><ele>87.0</ele><time>2026-04-11T13:28:09.86Z</time></trkpt><trkpt lat="40.89132" lon="14.2828067"><ele>87.0</ele><time>2026-04-11T13:28:11.86Z</time></trkpt><trkpt lat="40.89126" lon="14.2828417"><ele>87.0</ele><time>2026-04-11T13:28:14.859Z</time></trkpt><trkpt lat="40.8912133" lon="14.2829283"><ele>87.0</ele><time>2026-04-11T13:28:16.86Z</time></trkpt><trkpt lat="40.8912533" lon="14.282995"><ele>87.0</ele><time>2026-04-11T13:28:18.861Z</time></trkpt><trkpt lat="40.8913167" lon="14.283065"><ele>87.0</ele><time>2026-04-11T13:28:20.86Z</time></trkpt><trkpt lat="40.89141" lon="14.283155"><ele>86.66666666666667</ele><time>2026-04-11T13:28:22.861Z</time></trkpt><trkpt lat="40.8915267" lon="14.2832183"><ele>86.33333333333333</ele><time>2026-04-11T13:28:24.861Z</time></trkpt><trkpt lat="40.8915883" lon="14.2832633"><ele>86.0</ele><time>2026-04-11T13:28:25.86Z</time></trkpt><trkpt lat="40.8916483" lon="14.283305"><ele>85.66666666666666</ele><time>2026-04-11T13:28:26.861Z</time></trkpt><trkpt lat="40.8917067" lon="14.2833517"><ele>85.33333333333333</ele><time>2026-04-11T13:28:27.858Z</time></trkpt><trkpt lat="40.8917683" lon="14.2833967"><ele>85.0</ele><time>2026-04-11T13:28:28.86Z</time></trkpt><trkpt lat="40.8918267" lon="14.2834417"><ele>85.0</ele><time>2026-04-11T13:28:29.861Z</time></trkpt><trkpt lat="40.8918867" lon="14.2834867"><ele>85.0</ele><time>2026-04-11T13:28:30.86Z</time></trkpt><trkpt lat="40.8919417" lon="14.2835383"><ele>85.0</ele><time>2026-04-11T13:28:31.861Z</time></trkpt><trkpt lat="40.8920367" lon="14.2836517"><ele>85.0</ele><time>2026-04-11T13:28:33.86Z</time></trkpt><trkpt lat="40.8920917" lon="14.2837067"><ele>85.0</ele><time>2026-04-11T13:28:34.859Z</time></trkpt><trkpt lat="40.8921383" lon="14.283765"><ele>85.0</ele><time>2026-04-11T13:28:35.861Z</time></trkpt><trkpt lat="40.8922317" lon="14.2838867"><ele>85.2</ele><time>2026-04-11T13:28:37.861Z</time></trkpt><trkpt lat="40.8922833" lon="14.2839417"><ele>85.4</ele><time>2026-04-11T13:28:38.86Z</time></trkpt><trkpt lat="40.892335" lon="14.2839933"><ele>85.6</ele><time>2026-04-11T13:28:39.858Z</time></trkpt><trkpt lat="40.8924283" lon="14.2840983"><ele>85.8</ele><time>2026-04-11T13:28:41.862Z</time></trkpt><trkpt lat="40.892515" lon="14.284195"><ele>86.0</ele><time>2026-04-11T13:28:43.859Z</time></trkpt><trkpt lat="40.892595" lon="14.28431"><ele>86.0</ele><time>2026-04-11T13:28:45.858Z</time></trkpt><trkpt lat="40.89266" lon="14.28444"><ele>86.0</ele><time>2026-04-11T13:28:47.859Z</time></trkpt><trkpt lat="40.89273" lon="14.2845767"><ele>86.0</ele><time>2026-04-11T13:28:49.86Z</time></trkpt><trkpt lat="40.8927717" lon="14.2846433"><ele>86.0</ele><time>2026-04-11T13:28:50.859Z</time></trkpt><trkpt lat="40.8928133" lon="14.2847133"><ele>86.0</ele><time>2026-04-11T13:28:51.858Z</time></trkpt><trkpt lat="40.8928583" lon="14.2847783"><ele>86.0</ele><time>2026-04-11T13:28:52.858Z</time></trkpt><trkpt lat="40.8929033" lon="14.2848483"><ele>85.85714285714286</ele><time>2026-04-11T13:28:53.861Z</time></trkpt><trkpt lat="40.89295" lon="14.2849167"><ele>85.71428571428572</ele><time>2026-04-11T13:28:54.86Z</time></trkpt><trkpt lat="40.8929883" lon="14.28499"><ele>85.57142857142858</ele><time>2026-04-11T13:28:55.859Z</time></trkpt><trkpt lat="40.8930217" lon="14.2850667"><ele>85.42857142857143</ele><time>2026-04-11T13:28:56.859Z</time></trkpt><trkpt lat="40.893055" lon="14.2851467"><ele>85.28571428571428</ele><time>2026-04-11T13:28:57.858Z</time></trkpt><trkpt lat="40.893085" lon="14.28522"><ele>85.14285714285715</ele><time>2026-04-11T13:28:58.86Z</time></trkpt><trkpt lat="40.8931133" lon="14.2852967"><ele>85.0</ele><time>2026-04-11T13:28:59.86Z</time></trkpt><trkpt lat="40.893145" lon="14.28537"><ele>85.0</ele><time>2026-04-11T13:29:00.858Z</time></trkpt><trkpt lat="40.8931767" lon="14.2854483"><ele>85.0</ele><time>2026-04-11T13:29:01.859Z</time></trkpt><trkpt lat="40.89321" lon="14.2855217"><ele>85.0</ele><time>2026-04-11T13:29:02.859Z</time></trkpt><trkpt lat="40.893265" lon="14.2856633"><ele>85.0</ele><time>2026-04-11T13:29:04.86Z</time></trkpt><trkpt lat="40.893315" lon="14.2857617"><ele>85.0</ele><time>2026-04-11T13:29:06.86Z</time></trkpt><trkpt lat="40.8933483" lon="14.2858517"><ele>85.0</ele><time>2026-04-11T13:29:08.86Z</time></trkpt><trkpt lat="40.8933667" lon="14.2859617"><ele>84.25</ele><time>2026-04-11T13:29:10.859Z</time></trkpt><trkpt lat="40.89341" lon="14.2860883"><ele>83.5</ele><time>2026-04-11T13:29:12.858Z</time></trkpt><trkpt lat="40.8934517" lon="14.2862333"><ele>82.75</ele><time>2026-04-11T13:29:14.859Z</time></trkpt><trkpt lat="40.8934933" lon="14.286375"><ele>82.0</ele><time>2026-04-11T13:29:16.858Z</time></trkpt><trkpt lat="40.8935283" lon="14.28652"><ele>81.5</ele><time>2026-04-11T13:29:18.861Z</time></trkpt><trkpt lat="40.8935683" lon="14.28667"><ele>81.0</ele><time>2026-04-11T13:29:20.86Z</time></trkpt><trkpt lat="40.8936033" lon="14.2868233"><ele>80.5</ele><time>2026-04-11T13:29:22.86Z</time></trkpt><trkpt lat="40.8936367" lon="14.2869633"><ele>80.0</ele><time>2026-04-11T13:29:24.86Z</time></trkpt><trkpt lat="40.8936733" lon="14.2870933"><ele>80.0</ele><time>2026-04-11T13:29:26.861Z</time></trkpt><trkpt lat="40.89372" lon="14.2872217"><ele>80.0</ele><time>2026-04-11T13:29:28.859Z</time></trkpt><trkpt lat="40.8937683" lon="14.2873517"><ele>80.0</ele><time>2026-04-11T13:29:30.86Z</time></trkpt><trkpt lat="40.89382" lon="14.28748"><ele>80.0</ele><time>2026-04-11T13:29:32.86Z</time></trkpt><trkpt lat="40.89386" lon="14.2876067"><ele>80.0</ele><time>2026-04-11T13:29:34.86Z</time></trkpt><trkpt lat="40.8938933" lon="14.2877283"><ele>80.0</ele><time>2026-04-11T13:29:36.859Z</time></trkpt><trkpt lat="40.8939167" lon="14.2878167"><ele>80.0</ele><time>2026-04-11T13:29:38.859Z</time></trkpt><trkpt lat="40.893855" lon="14.28785"><ele>80.0</ele><time>2026-04-11T13:30:05.856Z</time></trkpt></trkseg></trk></gpx>